<?xml version="1.0" encoding="UTF-8" standalone="no" ?>
<gpx xmlns="http://www.topografix.com/GPX/1/1" xmlns:xsi="http://www.w3.org/2001/XMLSchema-instance" xsi:schemaLocation="http://www.topografix.com/GPX/1/1 http://www.topografix.com/GPX/1/1/gpx.xsd" version="1.1" creator="VisuGPX - https://www.visugpx.com">
  <metadata>
    <name>VTT LALBENQUE Les Gariottes 2026 Revitees</name>
    <desc><![CDATA[Trace des Gariottes 2026 revisitée pour la rendre en peu plus engagée. La base est le 48km mais avec quelques difficultés en plus ce qui amène le dénivelé à près de 1700m. Trace au départ et retour de l'église d'Aujols.]]></desc>
  </metadata>
  <trk>
    <name><![CDATA[Les Gariottes  2026 (Un peu adaptée)]]></name>
    <extensions>
      <line xmlns="http://www.topografix.com/GPX/gpx_style/0/2">
        <color>0000FF</color>
        <width>4</width>
      </line>
    </extensions>
    <trkseg>
      <trkpt lat="44.40307" lon="1.55219">
        <ele>244</ele>
        <time>2026-03-22T07:04:57Z</time>
      </trkpt>
      <trkpt lat="44.40322" lon="1.55233">
        <ele>245</ele>
        <time>2026-03-22T07:05:05Z</time>
      </trkpt>
      <trkpt lat="44.40323" lon="1.55234">
        <ele>245.2</ele>
        <time>2026-03-22T07:05:06Z</time>
      </trkpt>
      <trkpt lat="44.40325" lon="1.55234">
        <ele>245.4</ele>
        <time>2026-03-22T07:05:07Z</time>
      </trkpt>
      <trkpt lat="44.40327" lon="1.55235">
        <ele>245.6</ele>
        <time>2026-03-22T07:05:08Z</time>
      </trkpt>
      <trkpt lat="44.40329" lon="1.55234">
        <ele>245.6</ele>
        <time>2026-03-22T07:05:09Z</time>
      </trkpt>
      <trkpt lat="44.40331" lon="1.55233">
        <ele>245.8</ele>
        <time>2026-03-22T07:05:10Z</time>
      </trkpt>
      <trkpt lat="44.40334" lon="1.55231">
        <ele>245.6</ele>
        <time>2026-03-22T07:05:11Z</time>
      </trkpt>
      <trkpt lat="44.40336" lon="1.5523">
        <ele>245.6</ele>
        <time>2026-03-22T07:05:12Z</time>
      </trkpt>
      <trkpt lat="44.40343" lon="1.55231">
        <ele>245.4</ele>
        <time>2026-03-22T07:05:15Z</time>
      </trkpt>
      <trkpt lat="44.40345" lon="1.55234">
        <ele>245.4</ele>
        <time>2026-03-22T07:05:16Z</time>
      </trkpt>
      <trkpt lat="44.40348" lon="1.5526">
        <ele>245.6</ele>
        <time>2026-03-22T07:05:23Z</time>
      </trkpt>
      <trkpt lat="44.40352" lon="1.5529">
        <ele>246.4</ele>
        <time>2026-03-22T07:05:30Z</time>
      </trkpt>
      <trkpt lat="44.40354" lon="1.55303">
        <ele>247</ele>
        <time>2026-03-22T07:05:33Z</time>
      </trkpt>
      <trkpt lat="44.40355" lon="1.55312">
        <ele>247.6</ele>
        <time>2026-03-22T07:05:35Z</time>
      </trkpt>
      <trkpt lat="44.40356" lon="1.55331">
        <ele>249.2</ele>
        <time>2026-03-22T07:05:39Z</time>
      </trkpt>
      <trkpt lat="44.40357" lon="1.55336">
        <ele>249.6</ele>
        <time>2026-03-22T07:05:40Z</time>
      </trkpt>
      <trkpt lat="44.40359" lon="1.5534">
        <ele>249.8</ele>
        <time>2026-03-22T07:05:41Z</time>
      </trkpt>
      <trkpt lat="44.40361" lon="1.55344">
        <ele>250.2</ele>
        <time>2026-03-22T07:05:42Z</time>
      </trkpt>
      <trkpt lat="44.40363" lon="1.55347">
        <ele>250.4</ele>
        <time>2026-03-22T07:05:43Z</time>
      </trkpt>
      <trkpt lat="44.40365" lon="1.55351">
        <ele>250.8</ele>
        <time>2026-03-22T07:05:44Z</time>
      </trkpt>
      <trkpt lat="44.40367" lon="1.55355">
        <ele>251</ele>
        <time>2026-03-22T07:05:45Z</time>
      </trkpt>
      <trkpt lat="44.4037" lon="1.55358">
        <ele>251.4</ele>
        <time>2026-03-22T07:05:46Z</time>
      </trkpt>
      <trkpt lat="44.40371" lon="1.55362">
        <ele>251.6</ele>
        <time>2026-03-22T07:05:47Z</time>
      </trkpt>
      <trkpt lat="44.40373" lon="1.55365">
        <ele>251.8</ele>
        <time>2026-03-22T07:05:48Z</time>
      </trkpt>
      <trkpt lat="44.40375" lon="1.55369">
        <ele>251.8</ele>
        <time>2026-03-22T07:05:49Z</time>
      </trkpt>
      <trkpt lat="44.40377" lon="1.55373">
        <ele>252</ele>
        <time>2026-03-22T07:05:50Z</time>
      </trkpt>
      <trkpt lat="44.4038" lon="1.55376">
        <ele>252.2</ele>
        <time>2026-03-22T07:05:51Z</time>
      </trkpt>
      <trkpt lat="44.40382" lon="1.5538">
        <ele>252.6</ele>
        <time>2026-03-22T07:05:52Z</time>
      </trkpt>
      <trkpt lat="44.40384" lon="1.55382">
        <ele>252.8</ele>
        <time>2026-03-22T07:05:53Z</time>
      </trkpt>
      <trkpt lat="44.40387" lon="1.55385">
        <ele>253</ele>
        <time>2026-03-22T07:05:54Z</time>
      </trkpt>
      <trkpt lat="44.40389" lon="1.55386">
        <ele>253.2</ele>
        <time>2026-03-22T07:05:55Z</time>
      </trkpt>
      <trkpt lat="44.40392" lon="1.55387">
        <ele>253.4</ele>
        <time>2026-03-22T07:05:56Z</time>
      </trkpt>
      <trkpt lat="44.40395" lon="1.55387">
        <ele>253.6</ele>
        <time>2026-03-22T07:05:57Z</time>
      </trkpt>
      <trkpt lat="44.40397" lon="1.55387">
        <ele>253.8</ele>
        <time>2026-03-22T07:05:58Z</time>
      </trkpt>
      <trkpt lat="44.40399" lon="1.55386">
        <ele>254</ele>
        <time>2026-03-22T07:05:59Z</time>
      </trkpt>
      <trkpt lat="44.40401" lon="1.55385">
        <ele>254.2</ele>
        <time>2026-03-22T07:06:00Z</time>
      </trkpt>
      <trkpt lat="44.40405" lon="1.55384">
        <ele>254.4</ele>
        <time>2026-03-22T07:06:01Z</time>
      </trkpt>
      <trkpt lat="44.40408" lon="1.55384">
        <ele>254.6</ele>
        <time>2026-03-22T07:06:02Z</time>
      </trkpt>
      <trkpt lat="44.40411" lon="1.55383">
        <ele>254.8</ele>
        <time>2026-03-22T07:06:03Z</time>
      </trkpt>
      <trkpt lat="44.40414" lon="1.55382">
        <ele>254.8</ele>
        <time>2026-03-22T07:06:04Z</time>
      </trkpt>
      <trkpt lat="44.40417" lon="1.5538">
        <ele>255</ele>
        <time>2026-03-22T07:06:05Z</time>
      </trkpt>
      <trkpt lat="44.40421" lon="1.55378">
        <ele>255</ele>
        <time>2026-03-22T07:06:06Z</time>
      </trkpt>
      <trkpt lat="44.40424" lon="1.55375">
        <ele>255</ele>
        <time>2026-03-22T07:06:07Z</time>
      </trkpt>
      <trkpt lat="44.40427" lon="1.55372">
        <ele>255</ele>
        <time>2026-03-22T07:06:08Z</time>
      </trkpt>
      <trkpt lat="44.4043" lon="1.55368">
        <ele>255</ele>
        <time>2026-03-22T07:06:09Z</time>
      </trkpt>
      <trkpt lat="44.40434" lon="1.55364">
        <ele>255</ele>
        <time>2026-03-22T07:06:10Z</time>
      </trkpt>
      <trkpt lat="44.40437" lon="1.55359">
        <ele>255</ele>
        <time>2026-03-22T07:06:11Z</time>
      </trkpt>
      <trkpt lat="44.40441" lon="1.55354">
        <ele>255</ele>
        <time>2026-03-22T07:06:12Z</time>
      </trkpt>
      <trkpt lat="44.40445" lon="1.55349">
        <ele>255</ele>
        <time>2026-03-22T07:06:13Z</time>
      </trkpt>
      <trkpt lat="44.40448" lon="1.55344">
        <ele>254.8</ele>
        <time>2026-03-22T07:06:14Z</time>
      </trkpt>
      <trkpt lat="44.40452" lon="1.55339">
        <ele>254.6</ele>
        <time>2026-03-22T07:06:15Z</time>
      </trkpt>
      <trkpt lat="44.40456" lon="1.55335">
        <ele>254.2</ele>
        <time>2026-03-22T07:06:16Z</time>
      </trkpt>
      <trkpt lat="44.4046" lon="1.5533">
        <ele>254</ele>
        <time>2026-03-22T07:06:17Z</time>
      </trkpt>
      <trkpt lat="44.40465" lon="1.55326">
        <ele>253.8</ele>
        <time>2026-03-22T07:06:18Z</time>
      </trkpt>
      <trkpt lat="44.4047" lon="1.55322">
        <ele>253.6</ele>
        <time>2026-03-22T07:06:19Z</time>
      </trkpt>
      <trkpt lat="44.4048" lon="1.55315">
        <ele>253</ele>
        <time>2026-03-22T07:06:21Z</time>
      </trkpt>
      <trkpt lat="44.40484" lon="1.55313">
        <ele>252.6</ele>
        <time>2026-03-22T07:06:22Z</time>
      </trkpt>
      <trkpt lat="44.40489" lon="1.55311">
        <ele>252.4</ele>
        <time>2026-03-22T07:06:23Z</time>
      </trkpt>
      <trkpt lat="44.40493" lon="1.5531">
        <ele>252</ele>
        <time>2026-03-22T07:06:24Z</time>
      </trkpt>
      <trkpt lat="44.40497" lon="1.55309">
        <ele>251.6</ele>
        <time>2026-03-22T07:06:25Z</time>
      </trkpt>
      <trkpt lat="44.40501" lon="1.55309">
        <ele>251.4</ele>
        <time>2026-03-22T07:06:26Z</time>
      </trkpt>
      <trkpt lat="44.40505" lon="1.55308">
        <ele>251</ele>
        <time>2026-03-22T07:06:27Z</time>
      </trkpt>
      <trkpt lat="44.40512" lon="1.55308">
        <ele>250.4</ele>
        <time>2026-03-22T07:06:29Z</time>
      </trkpt>
      <trkpt lat="44.40513" lon="1.55309">
        <ele>250</ele>
        <time>2026-03-22T07:06:31Z</time>
      </trkpt>
      <trkpt lat="44.40518" lon="1.55331">
        <ele>249.8</ele>
        <time>2026-03-22T07:23:49Z</time>
      </trkpt>
      <trkpt lat="44.40518" lon="1.55337">
        <ele>249.8</ele>
        <time>2026-03-22T07:23:51Z</time>
      </trkpt>
      <trkpt lat="44.40517" lon="1.55359">
        <ele>250.2</ele>
        <time>2026-03-22T07:23:57Z</time>
      </trkpt>
      <trkpt lat="44.40517" lon="1.55363">
        <ele>250.4</ele>
        <time>2026-03-22T07:23:58Z</time>
      </trkpt>
      <trkpt lat="44.40518" lon="1.55399">
        <ele>251.2</ele>
        <time>2026-03-22T07:24:06Z</time>
      </trkpt>
      <trkpt lat="44.40518" lon="1.55414">
        <ele>251.6</ele>
        <time>2026-03-22T07:24:09Z</time>
      </trkpt>
      <trkpt lat="44.40519" lon="1.55441">
        <ele>252.2</ele>
        <time>2026-03-22T07:24:14Z</time>
      </trkpt>
      <trkpt lat="44.40522" lon="1.55477">
        <ele>252.6</ele>
        <time>2026-03-22T07:24:21Z</time>
      </trkpt>
      <trkpt lat="44.40533" lon="1.55508">
        <ele>252.6</ele>
        <time>2026-03-22T07:24:27Z</time>
      </trkpt>
      <trkpt lat="44.4054" lon="1.55529">
        <ele>252.6</ele>
        <time>2026-03-22T07:24:31Z</time>
      </trkpt>
      <trkpt lat="44.40546" lon="1.55546">
        <ele>252.8</ele>
        <time>2026-03-22T07:24:34Z</time>
      </trkpt>
      <trkpt lat="44.40551" lon="1.55556">
        <ele>252.8</ele>
        <time>2026-03-22T07:24:36Z</time>
      </trkpt>
      <trkpt lat="44.40568" lon="1.55582">
        <ele>252.8</ele>
        <time>2026-03-22T07:24:42Z</time>
      </trkpt>
      <trkpt lat="44.40571" lon="1.55586">
        <ele>252.8</ele>
        <time>2026-03-22T07:24:43Z</time>
      </trkpt>
      <trkpt lat="44.40577" lon="1.55595">
        <ele>253</ele>
        <time>2026-03-22T07:24:45Z</time>
      </trkpt>
      <trkpt lat="44.40582" lon="1.55603">
        <ele>253</ele>
        <time>2026-03-22T07:24:47Z</time>
      </trkpt>
      <trkpt lat="44.40588" lon="1.55612">
        <ele>253</ele>
        <time>2026-03-22T07:24:49Z</time>
      </trkpt>
      <trkpt lat="44.40591" lon="1.55616">
        <ele>253</ele>
        <time>2026-03-22T07:24:50Z</time>
      </trkpt>
      <trkpt lat="44.40593" lon="1.55621">
        <ele>253</ele>
        <time>2026-03-22T07:24:51Z</time>
      </trkpt>
      <trkpt lat="44.40603" lon="1.55635">
        <ele>253</ele>
        <time>2026-03-22T07:24:54Z</time>
      </trkpt>
      <trkpt lat="44.40615" lon="1.55647">
        <ele>252.8</ele>
        <time>2026-03-22T07:24:57Z</time>
      </trkpt>
      <trkpt lat="44.40641" lon="1.55669">
        <ele>252.4</ele>
        <time>2026-03-22T07:25:02Z</time>
      </trkpt>
      <trkpt lat="44.40658" lon="1.55685">
        <ele>251.6</ele>
        <time>2026-03-22T07:25:05Z</time>
      </trkpt>
      <trkpt lat="44.40677" lon="1.55699">
        <ele>250.6</ele>
        <time>2026-03-22T07:25:08Z</time>
      </trkpt>
      <trkpt lat="44.40683" lon="1.55703">
        <ele>250.2</ele>
        <time>2026-03-22T07:25:09Z</time>
      </trkpt>
      <trkpt lat="44.40703" lon="1.55714">
        <ele>249</ele>
        <time>2026-03-22T07:25:12Z</time>
      </trkpt>
      <trkpt lat="44.40718" lon="1.55716">
        <ele>248.2</ele>
        <time>2026-03-22T07:25:14Z</time>
      </trkpt>
      <trkpt lat="44.40725" lon="1.55715">
        <ele>247.6</ele>
        <time>2026-03-22T07:25:15Z</time>
      </trkpt>
      <trkpt lat="44.4074" lon="1.55715">
        <ele>246.8</ele>
        <time>2026-03-22T07:25:17Z</time>
      </trkpt>
      <trkpt lat="44.40747" lon="1.55718">
        <ele>246.4</ele>
        <time>2026-03-22T07:25:18Z</time>
      </trkpt>
      <trkpt lat="44.40754" lon="1.55722">
        <ele>245.8</ele>
        <time>2026-03-22T07:25:19Z</time>
      </trkpt>
      <trkpt lat="44.40767" lon="1.55728">
        <ele>244.8</ele>
        <time>2026-03-22T07:25:21Z</time>
      </trkpt>
      <trkpt lat="44.40773" lon="1.55732">
        <ele>244.4</ele>
        <time>2026-03-22T07:25:22Z</time>
      </trkpt>
      <trkpt lat="44.40778" lon="1.55737">
        <ele>244</ele>
        <time>2026-03-22T07:25:23Z</time>
      </trkpt>
      <trkpt lat="44.40781" lon="1.55744">
        <ele>243.6</ele>
        <time>2026-03-22T07:25:24Z</time>
      </trkpt>
      <trkpt lat="44.40784" lon="1.55751">
        <ele>243.2</ele>
        <time>2026-03-22T07:25:25Z</time>
      </trkpt>
      <trkpt lat="44.40787" lon="1.55759">
        <ele>243</ele>
        <time>2026-03-22T07:25:26Z</time>
      </trkpt>
      <trkpt lat="44.4079" lon="1.55766">
        <ele>242.6</ele>
        <time>2026-03-22T07:25:27Z</time>
      </trkpt>
      <trkpt lat="44.40792" lon="1.55774">
        <ele>242.2</ele>
        <time>2026-03-22T07:25:28Z</time>
      </trkpt>
      <trkpt lat="44.40795" lon="1.55781">
        <ele>242</ele>
        <time>2026-03-22T07:25:29Z</time>
      </trkpt>
      <trkpt lat="44.40797" lon="1.55788">
        <ele>241.4</ele>
        <time>2026-03-22T07:25:30Z</time>
      </trkpt>
      <trkpt lat="44.408" lon="1.55795">
        <ele>241</ele>
        <time>2026-03-22T07:25:31Z</time>
      </trkpt>
      <trkpt lat="44.40802" lon="1.55802">
        <ele>241</ele>
        <time>2026-03-22T07:25:32Z</time>
      </trkpt>
      <trkpt lat="44.40803" lon="1.55809">
        <ele>240.8</ele>
        <time>2026-03-22T07:25:33Z</time>
      </trkpt>
      <trkpt lat="44.40804" lon="1.55817">
        <ele>240.8</ele>
        <time>2026-03-22T07:25:34Z</time>
      </trkpt>
      <trkpt lat="44.40805" lon="1.55824">
        <ele>240.8</ele>
        <time>2026-03-22T07:25:35Z</time>
      </trkpt>
      <trkpt lat="44.40805" lon="1.55832">
        <ele>240.8</ele>
        <time>2026-03-22T07:25:36Z</time>
      </trkpt>
      <trkpt lat="44.40805" lon="1.5584">
        <ele>240.8</ele>
        <time>2026-03-22T07:25:37Z</time>
      </trkpt>
      <trkpt lat="44.40805" lon="1.55848">
        <ele>240.8</ele>
        <time>2026-03-22T07:25:38Z</time>
      </trkpt>
      <trkpt lat="44.40803" lon="1.55864">
        <ele>240.8</ele>
        <time>2026-03-22T07:25:40Z</time>
      </trkpt>
      <trkpt lat="44.40801" lon="1.55881">
        <ele>240.8</ele>
        <time>2026-03-22T07:25:42Z</time>
      </trkpt>
      <trkpt lat="44.40804" lon="1.55905">
        <ele>240.8</ele>
        <time>2026-03-22T07:25:45Z</time>
      </trkpt>
      <trkpt lat="44.40813" lon="1.55942">
        <ele>240.8</ele>
        <time>2026-03-22T07:25:50Z</time>
      </trkpt>
      <trkpt lat="44.40816" lon="1.55958">
        <ele>240.8</ele>
        <time>2026-03-22T07:25:52Z</time>
      </trkpt>
      <trkpt lat="44.40818" lon="1.55993">
        <ele>240</ele>
        <time>2026-03-22T07:25:56Z</time>
      </trkpt>
      <trkpt lat="44.40818" lon="1.56001">
        <ele>239.8</ele>
        <time>2026-03-22T07:25:57Z</time>
      </trkpt>
      <trkpt lat="44.40818" lon="1.56008">
        <ele>239.4</ele>
        <time>2026-03-22T07:25:58Z</time>
      </trkpt>
      <trkpt lat="44.40817" lon="1.56015">
        <ele>239.2</ele>
        <time>2026-03-22T07:25:59Z</time>
      </trkpt>
      <trkpt lat="44.40816" lon="1.56021">
        <ele>238.8</ele>
        <time>2026-03-22T07:26:00Z</time>
      </trkpt>
      <trkpt lat="44.40815" lon="1.56027">
        <ele>238.4</ele>
        <time>2026-03-22T07:26:01Z</time>
      </trkpt>
      <trkpt lat="44.40815" lon="1.56033">
        <ele>238</ele>
        <time>2026-03-22T07:26:02Z</time>
      </trkpt>
      <trkpt lat="44.40816" lon="1.56038">
        <ele>237.4</ele>
        <time>2026-03-22T07:26:03Z</time>
      </trkpt>
      <trkpt lat="44.40817" lon="1.56043">
        <ele>236.8</ele>
        <time>2026-03-22T07:26:04Z</time>
      </trkpt>
      <trkpt lat="44.40817" lon="1.56049">
        <ele>236.2</ele>
        <time>2026-03-22T07:26:05Z</time>
      </trkpt>
      <trkpt lat="44.40817" lon="1.56064">
        <ele>235.8</ele>
        <time>2026-03-22T07:26:07Z</time>
      </trkpt>
      <trkpt lat="44.40816" lon="1.56072">
        <ele>235.2</ele>
        <time>2026-03-22T07:26:08Z</time>
      </trkpt>
      <trkpt lat="44.40813" lon="1.56095">
        <ele>234</ele>
        <time>2026-03-22T07:26:11Z</time>
      </trkpt>
      <trkpt lat="44.4081" lon="1.5612">
        <ele>232.8</ele>
        <time>2026-03-22T07:26:14Z</time>
      </trkpt>
      <trkpt lat="44.4081" lon="1.56129">
        <ele>232.6</ele>
        <time>2026-03-22T07:26:15Z</time>
      </trkpt>
      <trkpt lat="44.4081" lon="1.56153">
        <ele>231.8</ele>
        <time>2026-03-22T07:26:18Z</time>
      </trkpt>
      <trkpt lat="44.4081" lon="1.56168">
        <ele>231.2</ele>
        <time>2026-03-22T07:26:20Z</time>
      </trkpt>
      <trkpt lat="44.4081" lon="1.56175">
        <ele>231</ele>
        <time>2026-03-22T07:26:21Z</time>
      </trkpt>
      <trkpt lat="44.4081" lon="1.56182">
        <ele>230.8</ele>
        <time>2026-03-22T07:26:22Z</time>
      </trkpt>
      <trkpt lat="44.4081" lon="1.56189">
        <ele>230.6</ele>
        <time>2026-03-22T07:26:23Z</time>
      </trkpt>
      <trkpt lat="44.4081" lon="1.56197">
        <ele>230.6</ele>
        <time>2026-03-22T07:26:24Z</time>
      </trkpt>
      <trkpt lat="44.40809" lon="1.56212">
        <ele>230.4</ele>
        <time>2026-03-22T07:26:26Z</time>
      </trkpt>
      <trkpt lat="44.40804" lon="1.56277">
        <ele>230.6</ele>
        <time>2026-03-22T07:26:35Z</time>
      </trkpt>
      <trkpt lat="44.40804" lon="1.56286">
        <ele>230.8</ele>
        <time>2026-03-22T07:26:36Z</time>
      </trkpt>
      <trkpt lat="44.40804" lon="1.56293">
        <ele>230.8</ele>
        <time>2026-03-22T07:26:37Z</time>
      </trkpt>
      <trkpt lat="44.40804" lon="1.563">
        <ele>231</ele>
        <time>2026-03-22T07:26:38Z</time>
      </trkpt>
      <trkpt lat="44.40805" lon="1.56307">
        <ele>231</ele>
        <time>2026-03-22T07:26:39Z</time>
      </trkpt>
      <trkpt lat="44.40806" lon="1.56315">
        <ele>231.2</ele>
        <time>2026-03-22T07:26:40Z</time>
      </trkpt>
      <trkpt lat="44.40807" lon="1.56322">
        <ele>231.4</ele>
        <time>2026-03-22T07:26:41Z</time>
      </trkpt>
      <trkpt lat="44.40812" lon="1.56342">
        <ele>231.8</ele>
        <time>2026-03-22T07:26:44Z</time>
      </trkpt>
      <trkpt lat="44.40817" lon="1.56354">
        <ele>232.6</ele>
        <time>2026-03-22T07:26:46Z</time>
      </trkpt>
      <trkpt lat="44.4082" lon="1.56359">
        <ele>232.8</ele>
        <time>2026-03-22T07:26:47Z</time>
      </trkpt>
      <trkpt lat="44.40823" lon="1.56365">
        <ele>233</ele>
        <time>2026-03-22T07:26:48Z</time>
      </trkpt>
      <trkpt lat="44.40837" lon="1.56387">
        <ele>233.6</ele>
        <time>2026-03-22T07:26:52Z</time>
      </trkpt>
      <trkpt lat="44.40843" lon="1.56396">
        <ele>233.8</ele>
        <time>2026-03-22T07:26:54Z</time>
      </trkpt>
      <trkpt lat="44.40845" lon="1.564">
        <ele>234</ele>
        <time>2026-03-22T07:26:55Z</time>
      </trkpt>
      <trkpt lat="44.40847" lon="1.56405">
        <ele>234</ele>
        <time>2026-03-22T07:26:56Z</time>
      </trkpt>
      <trkpt lat="44.40848" lon="1.56408">
        <ele>234.2</ele>
        <time>2026-03-22T07:26:57Z</time>
      </trkpt>
      <trkpt lat="44.4085" lon="1.56412">
        <ele>234.2</ele>
        <time>2026-03-22T07:26:58Z</time>
      </trkpt>
      <trkpt lat="44.40853" lon="1.56416">
        <ele>234.2</ele>
        <time>2026-03-22T07:26:59Z</time>
      </trkpt>
      <trkpt lat="44.40856" lon="1.56421">
        <ele>234.4</ele>
        <time>2026-03-22T07:27:00Z</time>
      </trkpt>
      <trkpt lat="44.40858" lon="1.56427">
        <ele>234.4</ele>
        <time>2026-03-22T07:27:01Z</time>
      </trkpt>
      <trkpt lat="44.40861" lon="1.56434">
        <ele>234.4</ele>
        <time>2026-03-22T07:27:02Z</time>
      </trkpt>
      <trkpt lat="44.40862" lon="1.56441">
        <ele>234.4</ele>
        <time>2026-03-22T07:27:03Z</time>
      </trkpt>
      <trkpt lat="44.40863" lon="1.56449">
        <ele>234.4</ele>
        <time>2026-03-22T07:27:04Z</time>
      </trkpt>
      <trkpt lat="44.40863" lon="1.56456">
        <ele>234.4</ele>
        <time>2026-03-22T07:27:05Z</time>
      </trkpt>
      <trkpt lat="44.40863" lon="1.56463">
        <ele>234.4</ele>
        <time>2026-03-22T07:27:06Z</time>
      </trkpt>
      <trkpt lat="44.40866" lon="1.56468">
        <ele>234.4</ele>
        <time>2026-03-22T07:27:07Z</time>
      </trkpt>
      <trkpt lat="44.4087" lon="1.56469">
        <ele>234.4</ele>
        <time>2026-03-22T07:27:08Z</time>
      </trkpt>
      <trkpt lat="44.40874" lon="1.56469">
        <ele>234.4</ele>
        <time>2026-03-22T07:27:09Z</time>
      </trkpt>
      <trkpt lat="44.40901" lon="1.56477">
        <ele>234.4</ele>
        <time>2026-03-22T07:27:14Z</time>
      </trkpt>
      <trkpt lat="44.4092" lon="1.5648">
        <ele>234.2</ele>
        <time>2026-03-22T07:27:17Z</time>
      </trkpt>
      <trkpt lat="44.40932" lon="1.56482">
        <ele>233.8</ele>
        <time>2026-03-22T07:27:19Z</time>
      </trkpt>
      <trkpt lat="44.40956" lon="1.56487">
        <ele>233</ele>
        <time>2026-03-22T07:27:23Z</time>
      </trkpt>
      <trkpt lat="44.40962" lon="1.56489">
        <ele>232.8</ele>
        <time>2026-03-22T07:27:24Z</time>
      </trkpt>
      <trkpt lat="44.40967" lon="1.56491">
        <ele>232.6</ele>
        <time>2026-03-22T07:27:25Z</time>
      </trkpt>
      <trkpt lat="44.40973" lon="1.56493">
        <ele>232.4</ele>
        <time>2026-03-22T07:27:26Z</time>
      </trkpt>
      <trkpt lat="44.40979" lon="1.56494">
        <ele>232.4</ele>
        <time>2026-03-22T07:27:27Z</time>
      </trkpt>
      <trkpt lat="44.40985" lon="1.56496">
        <ele>232.2</ele>
        <time>2026-03-22T07:27:28Z</time>
      </trkpt>
      <trkpt lat="44.41002" lon="1.56498">
        <ele>232.2</ele>
        <time>2026-03-22T07:27:31Z</time>
      </trkpt>
      <trkpt lat="44.41008" lon="1.56497">
        <ele>232</ele>
        <time>2026-03-22T07:27:32Z</time>
      </trkpt>
      <trkpt lat="44.41013" lon="1.56497">
        <ele>231.8</ele>
        <time>2026-03-22T07:27:33Z</time>
      </trkpt>
      <trkpt lat="44.41032" lon="1.56497">
        <ele>231.6</ele>
        <time>2026-03-22T07:27:36Z</time>
      </trkpt>
      <trkpt lat="44.4105" lon="1.56486">
        <ele>231.4</ele>
        <time>2026-03-22T07:27:39Z</time>
      </trkpt>
      <trkpt lat="44.41055" lon="1.56481">
        <ele>231.4</ele>
        <time>2026-03-22T07:27:40Z</time>
      </trkpt>
      <trkpt lat="44.41065" lon="1.56473">
        <ele>231.4</ele>
        <time>2026-03-22T07:27:42Z</time>
      </trkpt>
      <trkpt lat="44.41069" lon="1.56467">
        <ele>231.2</ele>
        <time>2026-03-22T07:27:43Z</time>
      </trkpt>
      <trkpt lat="44.41074" lon="1.56463">
        <ele>230.6</ele>
        <time>2026-03-22T07:27:44Z</time>
      </trkpt>
      <trkpt lat="44.41079" lon="1.56461">
        <ele>230.2</ele>
        <time>2026-03-22T07:27:45Z</time>
      </trkpt>
      <trkpt lat="44.41085" lon="1.56459">
        <ele>230</ele>
        <time>2026-03-22T07:27:46Z</time>
      </trkpt>
      <trkpt lat="44.4109" lon="1.56456">
        <ele>229.4</ele>
        <time>2026-03-22T07:27:47Z</time>
      </trkpt>
      <trkpt lat="44.41096" lon="1.56455">
        <ele>229.2</ele>
        <time>2026-03-22T07:27:48Z</time>
      </trkpt>
      <trkpt lat="44.41101" lon="1.56454">
        <ele>229</ele>
        <time>2026-03-22T07:27:49Z</time>
      </trkpt>
      <trkpt lat="44.41107" lon="1.56452">
        <ele>228.4</ele>
        <time>2026-03-22T07:27:50Z</time>
      </trkpt>
      <trkpt lat="44.41113" lon="1.56449">
        <ele>227.6</ele>
        <time>2026-03-22T07:27:51Z</time>
      </trkpt>
      <trkpt lat="44.41118" lon="1.56444">
        <ele>227</ele>
        <time>2026-03-22T07:27:52Z</time>
      </trkpt>
      <trkpt lat="44.41122" lon="1.56437">
        <ele>226.4</ele>
        <time>2026-03-22T07:27:53Z</time>
      </trkpt>
      <trkpt lat="44.41124" lon="1.56431">
        <ele>225.6</ele>
        <time>2026-03-22T07:27:54Z</time>
      </trkpt>
      <trkpt lat="44.41123" lon="1.56424">
        <ele>224.6</ele>
        <time>2026-03-22T07:27:55Z</time>
      </trkpt>
      <trkpt lat="44.41121" lon="1.56419">
        <ele>223.8</ele>
        <time>2026-03-22T07:27:56Z</time>
      </trkpt>
      <trkpt lat="44.41122" lon="1.56414">
        <ele>223.2</ele>
        <time>2026-03-22T07:27:57Z</time>
      </trkpt>
      <trkpt lat="44.41125" lon="1.5641">
        <ele>222.2</ele>
        <time>2026-03-22T07:27:58Z</time>
      </trkpt>
      <trkpt lat="44.41129" lon="1.5641">
        <ele>220.8</ele>
        <time>2026-03-22T07:27:59Z</time>
      </trkpt>
      <trkpt lat="44.41135" lon="1.56412">
        <ele>219.8</ele>
        <time>2026-03-22T07:28:00Z</time>
      </trkpt>
      <trkpt lat="44.41142" lon="1.56415">
        <ele>218.6</ele>
        <time>2026-03-22T07:28:01Z</time>
      </trkpt>
      <trkpt lat="44.41148" lon="1.56418">
        <ele>217.6</ele>
        <time>2026-03-22T07:28:02Z</time>
      </trkpt>
      <trkpt lat="44.41161" lon="1.56422">
        <ele>216.6</ele>
        <time>2026-03-22T07:28:04Z</time>
      </trkpt>
      <trkpt lat="44.41167" lon="1.56422">
        <ele>216</ele>
        <time>2026-03-22T07:28:05Z</time>
      </trkpt>
      <trkpt lat="44.41171" lon="1.56419">
        <ele>215.2</ele>
        <time>2026-03-22T07:28:06Z</time>
      </trkpt>
      <trkpt lat="44.41175" lon="1.56413">
        <ele>214.2</ele>
        <time>2026-03-22T07:28:07Z</time>
      </trkpt>
      <trkpt lat="44.41179" lon="1.56404">
        <ele>213.6</ele>
        <time>2026-03-22T07:28:08Z</time>
      </trkpt>
      <trkpt lat="44.41186" lon="1.5639">
        <ele>212</ele>
        <time>2026-03-22T07:28:10Z</time>
      </trkpt>
      <trkpt lat="44.41198" lon="1.56379">
        <ele>210.4</ele>
        <time>2026-03-22T07:28:12Z</time>
      </trkpt>
      <trkpt lat="44.41204" lon="1.56374">
        <ele>209.6</ele>
        <time>2026-03-22T07:28:13Z</time>
      </trkpt>
      <trkpt lat="44.41208" lon="1.56368">
        <ele>208.8</ele>
        <time>2026-03-22T07:28:14Z</time>
      </trkpt>
      <trkpt lat="44.41211" lon="1.56362">
        <ele>207.4</ele>
        <time>2026-03-22T07:28:15Z</time>
      </trkpt>
      <trkpt lat="44.41211" lon="1.56356">
        <ele>206.4</ele>
        <time>2026-03-22T07:28:16Z</time>
      </trkpt>
      <trkpt lat="44.41212" lon="1.56349">
        <ele>205.4</ele>
        <time>2026-03-22T07:28:17Z</time>
      </trkpt>
      <trkpt lat="44.41214" lon="1.56343">
        <ele>204.6</ele>
        <time>2026-03-22T07:28:18Z</time>
      </trkpt>
      <trkpt lat="44.41217" lon="1.56337">
        <ele>203.2</ele>
        <time>2026-03-22T07:28:19Z</time>
      </trkpt>
      <trkpt lat="44.41217" lon="1.56333">
        <ele>202</ele>
        <time>2026-03-22T07:28:20Z</time>
      </trkpt>
      <trkpt lat="44.41218" lon="1.5633">
        <ele>200.6</ele>
        <time>2026-03-22T07:28:21Z</time>
      </trkpt>
      <trkpt lat="44.41219" lon="1.56328">
        <ele>198.8</ele>
        <time>2026-03-22T07:28:22Z</time>
      </trkpt>
      <trkpt lat="44.41221" lon="1.56327">
        <ele>197.6</ele>
        <time>2026-03-22T07:28:23Z</time>
      </trkpt>
      <trkpt lat="44.41224" lon="1.56327">
        <ele>196</ele>
        <time>2026-03-22T07:28:24Z</time>
      </trkpt>
      <trkpt lat="44.41228" lon="1.5633">
        <ele>194.8</ele>
        <time>2026-03-22T07:28:25Z</time>
      </trkpt>
      <trkpt lat="44.41233" lon="1.56334">
        <ele>193.4</ele>
        <time>2026-03-22T07:28:26Z</time>
      </trkpt>
      <trkpt lat="44.41239" lon="1.56338">
        <ele>192</ele>
        <time>2026-03-22T07:28:27Z</time>
      </trkpt>
      <trkpt lat="44.41245" lon="1.56343">
        <ele>190.6</ele>
        <time>2026-03-22T07:28:28Z</time>
      </trkpt>
      <trkpt lat="44.41257" lon="1.56354">
        <ele>189</ele>
        <time>2026-03-22T07:28:30Z</time>
      </trkpt>
      <trkpt lat="44.41269" lon="1.56368">
        <ele>188.4</ele>
        <time>2026-03-22T07:28:32Z</time>
      </trkpt>
      <trkpt lat="44.41275" lon="1.56375">
        <ele>188</ele>
        <time>2026-03-22T07:28:33Z</time>
      </trkpt>
      <trkpt lat="44.41281" lon="1.56384">
        <ele>187.8</ele>
        <time>2026-03-22T07:28:34Z</time>
      </trkpt>
      <trkpt lat="44.41292" lon="1.56403">
        <ele>187.2</ele>
        <time>2026-03-22T07:28:36Z</time>
      </trkpt>
      <trkpt lat="44.41299" lon="1.56411">
        <ele>186.8</ele>
        <time>2026-03-22T07:28:37Z</time>
      </trkpt>
      <trkpt lat="44.41306" lon="1.56418">
        <ele>186</ele>
        <time>2026-03-22T07:28:38Z</time>
      </trkpt>
      <trkpt lat="44.41314" lon="1.56424">
        <ele>185.2</ele>
        <time>2026-03-22T07:28:39Z</time>
      </trkpt>
      <trkpt lat="44.41323" lon="1.5643">
        <ele>184.6</ele>
        <time>2026-03-22T07:28:40Z</time>
      </trkpt>
      <trkpt lat="44.41332" lon="1.56435">
        <ele>184</ele>
        <time>2026-03-22T07:28:41Z</time>
      </trkpt>
      <trkpt lat="44.4134" lon="1.56441">
        <ele>183</ele>
        <time>2026-03-22T07:28:42Z</time>
      </trkpt>
      <trkpt lat="44.41347" lon="1.5645">
        <ele>182.4</ele>
        <time>2026-03-22T07:28:43Z</time>
      </trkpt>
      <trkpt lat="44.41354" lon="1.56458">
        <ele>181.8</ele>
        <time>2026-03-22T07:28:44Z</time>
      </trkpt>
      <trkpt lat="44.41369" lon="1.56475">
        <ele>180.6</ele>
        <time>2026-03-22T07:28:46Z</time>
      </trkpt>
      <trkpt lat="44.41377" lon="1.56485">
        <ele>179.8</ele>
        <time>2026-03-22T07:28:47Z</time>
      </trkpt>
      <trkpt lat="44.41385" lon="1.56493">
        <ele>179.2</ele>
        <time>2026-03-22T07:28:48Z</time>
      </trkpt>
      <trkpt lat="44.414" lon="1.56506">
        <ele>178.2</ele>
        <time>2026-03-22T07:28:50Z</time>
      </trkpt>
      <trkpt lat="44.41408" lon="1.56512">
        <ele>177</ele>
        <time>2026-03-22T07:28:51Z</time>
      </trkpt>
      <trkpt lat="44.41415" lon="1.56518">
        <ele>176.4</ele>
        <time>2026-03-22T07:28:52Z</time>
      </trkpt>
      <trkpt lat="44.41422" lon="1.56524">
        <ele>175.2</ele>
        <time>2026-03-22T07:28:53Z</time>
      </trkpt>
      <trkpt lat="44.41429" lon="1.5653">
        <ele>174</ele>
        <time>2026-03-22T07:28:54Z</time>
      </trkpt>
      <trkpt lat="44.41435" lon="1.56536">
        <ele>173.2</ele>
        <time>2026-03-22T07:28:55Z</time>
      </trkpt>
      <trkpt lat="44.41441" lon="1.56542">
        <ele>172</ele>
        <time>2026-03-22T07:28:56Z</time>
      </trkpt>
      <trkpt lat="44.41448" lon="1.56547">
        <ele>171.4</ele>
        <time>2026-03-22T07:28:57Z</time>
      </trkpt>
      <trkpt lat="44.41454" lon="1.56552">
        <ele>171</ele>
        <time>2026-03-22T07:28:58Z</time>
      </trkpt>
      <trkpt lat="44.41488" lon="1.56574">
        <ele>170</ele>
        <time>2026-03-22T07:29:03Z</time>
      </trkpt>
      <trkpt lat="44.41495" lon="1.56578">
        <ele>169.8</ele>
        <time>2026-03-22T07:29:04Z</time>
      </trkpt>
      <trkpt lat="44.41508" lon="1.56585">
        <ele>169.4</ele>
        <time>2026-03-22T07:29:06Z</time>
      </trkpt>
      <trkpt lat="44.41521" lon="1.56591">
        <ele>169</ele>
        <time>2026-03-22T07:29:08Z</time>
      </trkpt>
      <trkpt lat="44.41527" lon="1.56594">
        <ele>168.6</ele>
        <time>2026-03-22T07:29:09Z</time>
      </trkpt>
      <trkpt lat="44.41533" lon="1.56596">
        <ele>168.6</ele>
        <time>2026-03-22T07:29:10Z</time>
      </trkpt>
      <trkpt lat="44.41539" lon="1.56598">
        <ele>168.4</ele>
        <time>2026-03-22T07:29:11Z</time>
      </trkpt>
      <trkpt lat="44.41545" lon="1.56599">
        <ele>168.2</ele>
        <time>2026-03-22T07:29:12Z</time>
      </trkpt>
      <trkpt lat="44.41557" lon="1.56602">
        <ele>167.6</ele>
        <time>2026-03-22T07:29:14Z</time>
      </trkpt>
      <trkpt lat="44.41563" lon="1.56604">
        <ele>167.4</ele>
        <time>2026-03-22T07:29:15Z</time>
      </trkpt>
      <trkpt lat="44.41569" lon="1.56605">
        <ele>167.4</ele>
        <time>2026-03-22T07:29:16Z</time>
      </trkpt>
      <trkpt lat="44.41575" lon="1.56607">
        <ele>167.2</ele>
        <time>2026-03-22T07:29:17Z</time>
      </trkpt>
      <trkpt lat="44.4158" lon="1.5661">
        <ele>167</ele>
        <time>2026-03-22T07:29:18Z</time>
      </trkpt>
      <trkpt lat="44.41586" lon="1.56613">
        <ele>167</ele>
        <time>2026-03-22T07:29:19Z</time>
      </trkpt>
      <trkpt lat="44.41591" lon="1.56617">
        <ele>167</ele>
        <time>2026-03-22T07:29:20Z</time>
      </trkpt>
      <trkpt lat="44.41595" lon="1.56622">
        <ele>167</ele>
        <time>2026-03-22T07:29:21Z</time>
      </trkpt>
      <trkpt lat="44.41599" lon="1.56628">
        <ele>166.8</ele>
        <time>2026-03-22T07:29:22Z</time>
      </trkpt>
      <trkpt lat="44.41602" lon="1.56634">
        <ele>166.6</ele>
        <time>2026-03-22T07:29:23Z</time>
      </trkpt>
      <trkpt lat="44.41608" lon="1.56648">
        <ele>166.6</ele>
        <time>2026-03-22T07:29:25Z</time>
      </trkpt>
      <trkpt lat="44.41611" lon="1.56655">
        <ele>166.4</ele>
        <time>2026-03-22T07:29:26Z</time>
      </trkpt>
      <trkpt lat="44.41614" lon="1.56662">
        <ele>166.4</ele>
        <time>2026-03-22T07:29:27Z</time>
      </trkpt>
      <trkpt lat="44.41616" lon="1.56669">
        <ele>166.4</ele>
        <time>2026-03-22T07:29:28Z</time>
      </trkpt>
      <trkpt lat="44.41618" lon="1.56677">
        <ele>166.4</ele>
        <time>2026-03-22T07:29:29Z</time>
      </trkpt>
      <trkpt lat="44.41619" lon="1.56684">
        <ele>166.2</ele>
        <time>2026-03-22T07:29:30Z</time>
      </trkpt>
      <trkpt lat="44.41623" lon="1.56715">
        <ele>166</ele>
        <time>2026-03-22T07:29:34Z</time>
      </trkpt>
      <trkpt lat="44.41623" lon="1.56721">
        <ele>166</ele>
        <time>2026-03-22T07:29:35Z</time>
      </trkpt>
      <trkpt lat="44.41624" lon="1.56727">
        <ele>166</ele>
        <time>2026-03-22T07:29:36Z</time>
      </trkpt>
      <trkpt lat="44.41624" lon="1.56733">
        <ele>166</ele>
        <time>2026-03-22T07:29:37Z</time>
      </trkpt>
      <trkpt lat="44.41624" lon="1.56737">
        <ele>166</ele>
        <time>2026-03-22T07:29:38Z</time>
      </trkpt>
      <trkpt lat="44.41624" lon="1.56742">
        <ele>166</ele>
        <time>2026-03-22T07:29:39Z</time>
      </trkpt>
      <trkpt lat="44.41624" lon="1.56747">
        <ele>166.2</ele>
        <time>2026-03-22T07:29:40Z</time>
      </trkpt>
      <trkpt lat="44.41624" lon="1.56751">
        <ele>166.2</ele>
        <time>2026-03-22T07:29:41Z</time>
      </trkpt>
      <trkpt lat="44.41624" lon="1.56755">
        <ele>166.2</ele>
        <time>2026-03-22T07:29:42Z</time>
      </trkpt>
      <trkpt lat="44.41623" lon="1.56759">
        <ele>166.2</ele>
        <time>2026-03-22T07:29:43Z</time>
      </trkpt>
      <trkpt lat="44.41622" lon="1.56769">
        <ele>166.6</ele>
        <time>2026-03-22T07:29:45Z</time>
      </trkpt>
      <trkpt lat="44.41624" lon="1.56779">
        <ele>167.4</ele>
        <time>2026-03-22T07:29:47Z</time>
      </trkpt>
      <trkpt lat="44.41626" lon="1.56784">
        <ele>167.8</ele>
        <time>2026-03-22T07:29:48Z</time>
      </trkpt>
      <trkpt lat="44.41628" lon="1.56789">
        <ele>168.4</ele>
        <time>2026-03-22T07:29:49Z</time>
      </trkpt>
      <trkpt lat="44.41631" lon="1.56795">
        <ele>168.6</ele>
        <time>2026-03-22T07:29:50Z</time>
      </trkpt>
      <trkpt lat="44.41633" lon="1.56801">
        <ele>168.8</ele>
        <time>2026-03-22T07:29:51Z</time>
      </trkpt>
      <trkpt lat="44.41636" lon="1.56816">
        <ele>169</ele>
        <time>2026-03-22T07:29:53Z</time>
      </trkpt>
      <trkpt lat="44.41637" lon="1.56823">
        <ele>169</ele>
        <time>2026-03-22T07:29:54Z</time>
      </trkpt>
      <trkpt lat="44.41636" lon="1.56831">
        <ele>169</ele>
        <time>2026-03-22T07:29:55Z</time>
      </trkpt>
      <trkpt lat="44.41635" lon="1.56839">
        <ele>169</ele>
        <time>2026-03-22T07:29:56Z</time>
      </trkpt>
      <trkpt lat="44.41633" lon="1.56847">
        <ele>169</ele>
        <time>2026-03-22T07:29:57Z</time>
      </trkpt>
      <trkpt lat="44.4163" lon="1.56855">
        <ele>169</ele>
        <time>2026-03-22T07:29:58Z</time>
      </trkpt>
      <trkpt lat="44.41628" lon="1.56862">
        <ele>169</ele>
        <time>2026-03-22T07:29:59Z</time>
      </trkpt>
      <trkpt lat="44.41625" lon="1.56868">
        <ele>168.6</ele>
        <time>2026-03-22T07:30:00Z</time>
      </trkpt>
      <trkpt lat="44.41622" lon="1.56874">
        <ele>168.4</ele>
        <time>2026-03-22T07:30:01Z</time>
      </trkpt>
      <trkpt lat="44.41619" lon="1.56881">
        <ele>168.2</ele>
        <time>2026-03-22T07:30:02Z</time>
      </trkpt>
      <trkpt lat="44.41616" lon="1.56887">
        <ele>168.2</ele>
        <time>2026-03-22T07:30:03Z</time>
      </trkpt>
      <trkpt lat="44.41613" lon="1.56891">
        <ele>168</ele>
        <time>2026-03-22T07:30:04Z</time>
      </trkpt>
      <trkpt lat="44.41611" lon="1.56896">
        <ele>167.8</ele>
        <time>2026-03-22T07:30:05Z</time>
      </trkpt>
      <trkpt lat="44.41609" lon="1.569">
        <ele>167.8</ele>
        <time>2026-03-22T07:30:06Z</time>
      </trkpt>
      <trkpt lat="44.41607" lon="1.56904">
        <ele>168</ele>
        <time>2026-03-22T07:30:07Z</time>
      </trkpt>
      <trkpt lat="44.41605" lon="1.56909">
        <ele>167.8</ele>
        <time>2026-03-22T07:30:08Z</time>
      </trkpt>
      <trkpt lat="44.41602" lon="1.56918">
        <ele>167.8</ele>
        <time>2026-03-22T07:30:10Z</time>
      </trkpt>
      <trkpt lat="44.41601" lon="1.56923">
        <ele>167.8</ele>
        <time>2026-03-22T07:30:11Z</time>
      </trkpt>
      <trkpt lat="44.41599" lon="1.56927">
        <ele>167.8</ele>
        <time>2026-03-22T07:30:12Z</time>
      </trkpt>
      <trkpt lat="44.41598" lon="1.56931">
        <ele>168.2</ele>
        <time>2026-03-22T07:30:13Z</time>
      </trkpt>
      <trkpt lat="44.41597" lon="1.56936">
        <ele>168.8</ele>
        <time>2026-03-22T07:30:14Z</time>
      </trkpt>
      <trkpt lat="44.41595" lon="1.56945">
        <ele>169.6</ele>
        <time>2026-03-22T07:30:16Z</time>
      </trkpt>
      <trkpt lat="44.41595" lon="1.5695">
        <ele>170</ele>
        <time>2026-03-22T07:30:17Z</time>
      </trkpt>
      <trkpt lat="44.41595" lon="1.56954">
        <ele>170</ele>
        <time>2026-03-22T07:30:18Z</time>
      </trkpt>
      <trkpt lat="44.41595" lon="1.56959">
        <ele>170.6</ele>
        <time>2026-03-22T07:30:19Z</time>
      </trkpt>
      <trkpt lat="44.41595" lon="1.56963">
        <ele>171</ele>
        <time>2026-03-22T07:30:20Z</time>
      </trkpt>
      <trkpt lat="44.41596" lon="1.56967">
        <ele>171.4</ele>
        <time>2026-03-22T07:30:21Z</time>
      </trkpt>
      <trkpt lat="44.41596" lon="1.56971">
        <ele>172</ele>
        <time>2026-03-22T07:30:22Z</time>
      </trkpt>
      <trkpt lat="44.41597" lon="1.56975">
        <ele>172.6</ele>
        <time>2026-03-22T07:30:23Z</time>
      </trkpt>
      <trkpt lat="44.41598" lon="1.56979">
        <ele>173.2</ele>
        <time>2026-03-22T07:30:24Z</time>
      </trkpt>
      <trkpt lat="44.41598" lon="1.56983">
        <ele>173.8</ele>
        <time>2026-03-22T07:30:25Z</time>
      </trkpt>
      <trkpt lat="44.41598" lon="1.56987">
        <ele>174.2</ele>
        <time>2026-03-22T07:30:26Z</time>
      </trkpt>
      <trkpt lat="44.41599" lon="1.56991">
        <ele>174.8</ele>
        <time>2026-03-22T07:30:27Z</time>
      </trkpt>
      <trkpt lat="44.41599" lon="1.56994">
        <ele>175.2</ele>
        <time>2026-03-22T07:30:28Z</time>
      </trkpt>
      <trkpt lat="44.416" lon="1.56998">
        <ele>175.6</ele>
        <time>2026-03-22T07:30:29Z</time>
      </trkpt>
      <trkpt lat="44.41601" lon="1.57002">
        <ele>176.6</ele>
        <time>2026-03-22T07:30:30Z</time>
      </trkpt>
      <trkpt lat="44.41602" lon="1.57005">
        <ele>177.2</ele>
        <time>2026-03-22T07:30:31Z</time>
      </trkpt>
      <trkpt lat="44.41603" lon="1.57009">
        <ele>177.8</ele>
        <time>2026-03-22T07:30:32Z</time>
      </trkpt>
      <trkpt lat="44.41604" lon="1.57013">
        <ele>178.2</ele>
        <time>2026-03-22T07:30:33Z</time>
      </trkpt>
      <trkpt lat="44.41605" lon="1.57016">
        <ele>178.8</ele>
        <time>2026-03-22T07:30:34Z</time>
      </trkpt>
      <trkpt lat="44.41606" lon="1.5702">
        <ele>179.4</ele>
        <time>2026-03-22T07:30:35Z</time>
      </trkpt>
      <trkpt lat="44.41607" lon="1.57024">
        <ele>179.8</ele>
        <time>2026-03-22T07:30:36Z</time>
      </trkpt>
      <trkpt lat="44.41608" lon="1.57027">
        <ele>181</ele>
        <time>2026-03-22T07:30:37Z</time>
      </trkpt>
      <trkpt lat="44.41609" lon="1.5703">
        <ele>181.4</ele>
        <time>2026-03-22T07:30:38Z</time>
      </trkpt>
      <trkpt lat="44.41611" lon="1.57033">
        <ele>181.8</ele>
        <time>2026-03-22T07:30:39Z</time>
      </trkpt>
      <trkpt lat="44.41612" lon="1.57036">
        <ele>182.2</ele>
        <time>2026-03-22T07:30:40Z</time>
      </trkpt>
      <trkpt lat="44.41613" lon="1.57038">
        <ele>183</ele>
        <time>2026-03-22T07:30:41Z</time>
      </trkpt>
      <trkpt lat="44.41614" lon="1.57041">
        <ele>183.6</ele>
        <time>2026-03-22T07:30:42Z</time>
      </trkpt>
      <trkpt lat="44.41616" lon="1.57044">
        <ele>184</ele>
        <time>2026-03-22T07:30:43Z</time>
      </trkpt>
      <trkpt lat="44.41619" lon="1.57047">
        <ele>184.4</ele>
        <time>2026-03-22T07:30:44Z</time>
      </trkpt>
      <trkpt lat="44.41621" lon="1.5705">
        <ele>185</ele>
        <time>2026-03-22T07:30:45Z</time>
      </trkpt>
      <trkpt lat="44.41623" lon="1.57053">
        <ele>185.6</ele>
        <time>2026-03-22T07:30:46Z</time>
      </trkpt>
      <trkpt lat="44.41625" lon="1.57055">
        <ele>185.8</ele>
        <time>2026-03-22T07:30:47Z</time>
      </trkpt>
      <trkpt lat="44.41627" lon="1.57058">
        <ele>186.2</ele>
        <time>2026-03-22T07:30:48Z</time>
      </trkpt>
      <trkpt lat="44.41629" lon="1.5706">
        <ele>186.8</ele>
        <time>2026-03-22T07:30:49Z</time>
      </trkpt>
      <trkpt lat="44.41631" lon="1.57063">
        <ele>187.2</ele>
        <time>2026-03-22T07:30:50Z</time>
      </trkpt>
      <trkpt lat="44.41634" lon="1.57065">
        <ele>187.4</ele>
        <time>2026-03-22T07:30:51Z</time>
      </trkpt>
      <trkpt lat="44.41636" lon="1.57067">
        <ele>187.8</ele>
        <time>2026-03-22T07:30:52Z</time>
      </trkpt>
      <trkpt lat="44.41638" lon="1.5707">
        <ele>188.4</ele>
        <time>2026-03-22T07:30:53Z</time>
      </trkpt>
      <trkpt lat="44.41641" lon="1.57072">
        <ele>189</ele>
        <time>2026-03-22T07:30:54Z</time>
      </trkpt>
      <trkpt lat="44.41643" lon="1.57074">
        <ele>189.6</ele>
        <time>2026-03-22T07:30:55Z</time>
      </trkpt>
      <trkpt lat="44.41645" lon="1.57077">
        <ele>190.2</ele>
        <time>2026-03-22T07:30:56Z</time>
      </trkpt>
      <trkpt lat="44.41647" lon="1.57079">
        <ele>190.6</ele>
        <time>2026-03-22T07:30:57Z</time>
      </trkpt>
      <trkpt lat="44.41649" lon="1.57081">
        <ele>191</ele>
        <time>2026-03-22T07:30:58Z</time>
      </trkpt>
      <trkpt lat="44.41651" lon="1.57083">
        <ele>191.4</ele>
        <time>2026-03-22T07:30:59Z</time>
      </trkpt>
      <trkpt lat="44.41654" lon="1.57084">
        <ele>191.6</ele>
        <time>2026-03-22T07:31:00Z</time>
      </trkpt>
      <trkpt lat="44.41657" lon="1.57085">
        <ele>192.4</ele>
        <time>2026-03-22T07:31:01Z</time>
      </trkpt>
      <trkpt lat="44.41659" lon="1.57086">
        <ele>192.8</ele>
        <time>2026-03-22T07:31:02Z</time>
      </trkpt>
      <trkpt lat="44.41662" lon="1.57087">
        <ele>193.2</ele>
        <time>2026-03-22T07:31:03Z</time>
      </trkpt>
      <trkpt lat="44.41664" lon="1.57088">
        <ele>193.6</ele>
        <time>2026-03-22T07:31:04Z</time>
      </trkpt>
      <trkpt lat="44.41667" lon="1.57089">
        <ele>194.2</ele>
        <time>2026-03-22T07:31:05Z</time>
      </trkpt>
      <trkpt lat="44.4167" lon="1.5709">
        <ele>194.6</ele>
        <time>2026-03-22T07:31:06Z</time>
      </trkpt>
      <trkpt lat="44.41673" lon="1.5709">
        <ele>195</ele>
        <time>2026-03-22T07:31:07Z</time>
      </trkpt>
      <trkpt lat="44.41676" lon="1.57091">
        <ele>195.6</ele>
        <time>2026-03-22T07:31:08Z</time>
      </trkpt>
      <trkpt lat="44.41678" lon="1.57093">
        <ele>196</ele>
        <time>2026-03-22T07:31:09Z</time>
      </trkpt>
      <trkpt lat="44.41681" lon="1.57094">
        <ele>196.4</ele>
        <time>2026-03-22T07:31:10Z</time>
      </trkpt>
      <trkpt lat="44.41683" lon="1.57095">
        <ele>196.8</ele>
        <time>2026-03-22T07:31:11Z</time>
      </trkpt>
      <trkpt lat="44.41686" lon="1.57095">
        <ele>197.2</ele>
        <time>2026-03-22T07:31:12Z</time>
      </trkpt>
      <trkpt lat="44.41688" lon="1.57096">
        <ele>197.8</ele>
        <time>2026-03-22T07:31:13Z</time>
      </trkpt>
      <trkpt lat="44.4169" lon="1.57097">
        <ele>198.2</ele>
        <time>2026-03-22T07:31:14Z</time>
      </trkpt>
      <trkpt lat="44.41691" lon="1.57098">
        <ele>198.6</ele>
        <time>2026-03-22T07:31:15Z</time>
      </trkpt>
      <trkpt lat="44.41693" lon="1.57099">
        <ele>199.2</ele>
        <time>2026-03-22T07:31:16Z</time>
      </trkpt>
      <trkpt lat="44.41695" lon="1.57099">
        <ele>199.4</ele>
        <time>2026-03-22T07:31:17Z</time>
      </trkpt>
      <trkpt lat="44.41697" lon="1.571">
        <ele>199.6</ele>
        <time>2026-03-22T07:31:18Z</time>
      </trkpt>
      <trkpt lat="44.41698" lon="1.57102">
        <ele>199.8</ele>
        <time>2026-03-22T07:31:19Z</time>
      </trkpt>
      <trkpt lat="44.41699" lon="1.57104">
        <ele>200</ele>
        <time>2026-03-22T07:31:20Z</time>
      </trkpt>
      <trkpt lat="44.41701" lon="1.57106">
        <ele>200.4</ele>
        <time>2026-03-22T07:31:21Z</time>
      </trkpt>
      <trkpt lat="44.41702" lon="1.57108">
        <ele>200.6</ele>
        <time>2026-03-22T07:31:22Z</time>
      </trkpt>
      <trkpt lat="44.41703" lon="1.5711">
        <ele>200.8</ele>
        <time>2026-03-22T07:31:23Z</time>
      </trkpt>
      <trkpt lat="44.41705" lon="1.57112">
        <ele>201.2</ele>
        <time>2026-03-22T07:31:24Z</time>
      </trkpt>
      <trkpt lat="44.41706" lon="1.57114">
        <ele>201.6</ele>
        <time>2026-03-22T07:31:25Z</time>
      </trkpt>
      <trkpt lat="44.41708" lon="1.57116">
        <ele>202</ele>
        <time>2026-03-22T07:31:26Z</time>
      </trkpt>
      <trkpt lat="44.4171" lon="1.57118">
        <ele>202.4</ele>
        <time>2026-03-22T07:31:27Z</time>
      </trkpt>
      <trkpt lat="44.41711" lon="1.5712">
        <ele>202.6</ele>
        <time>2026-03-22T07:31:28Z</time>
      </trkpt>
      <trkpt lat="44.41713" lon="1.57122">
        <ele>203</ele>
        <time>2026-03-22T07:31:29Z</time>
      </trkpt>
      <trkpt lat="44.41715" lon="1.57123">
        <ele>203.2</ele>
        <time>2026-03-22T07:31:30Z</time>
      </trkpt>
      <trkpt lat="44.41716" lon="1.57125">
        <ele>203.4</ele>
        <time>2026-03-22T07:31:31Z</time>
      </trkpt>
      <trkpt lat="44.41718" lon="1.57126">
        <ele>203.6</ele>
        <time>2026-03-22T07:31:32Z</time>
      </trkpt>
      <trkpt lat="44.41719" lon="1.57127">
        <ele>203.8</ele>
        <time>2026-03-22T07:31:33Z</time>
      </trkpt>
      <trkpt lat="44.41721" lon="1.57129">
        <ele>204</ele>
        <time>2026-03-22T07:31:34Z</time>
      </trkpt>
      <trkpt lat="44.41722" lon="1.5713">
        <ele>204.4</ele>
        <time>2026-03-22T07:31:35Z</time>
      </trkpt>
      <trkpt lat="44.41724" lon="1.57131">
        <ele>204.6</ele>
        <time>2026-03-22T07:31:36Z</time>
      </trkpt>
      <trkpt lat="44.41726" lon="1.57132">
        <ele>205</ele>
        <time>2026-03-22T07:31:37Z</time>
      </trkpt>
      <trkpt lat="44.41728" lon="1.57133">
        <ele>205.4</ele>
        <time>2026-03-22T07:31:38Z</time>
      </trkpt>
      <trkpt lat="44.41729" lon="1.57134">
        <ele>205.6</ele>
        <time>2026-03-22T07:31:39Z</time>
      </trkpt>
      <trkpt lat="44.4173" lon="1.57136">
        <ele>205.8</ele>
        <time>2026-03-22T07:31:40Z</time>
      </trkpt>
      <trkpt lat="44.41732" lon="1.57137">
        <ele>206.2</ele>
        <time>2026-03-22T07:31:41Z</time>
      </trkpt>
      <trkpt lat="44.41733" lon="1.57138">
        <ele>206.4</ele>
        <time>2026-03-22T07:31:42Z</time>
      </trkpt>
      <trkpt lat="44.41734" lon="1.5714">
        <ele>206.8</ele>
        <time>2026-03-22T07:31:43Z</time>
      </trkpt>
      <trkpt lat="44.41736" lon="1.57141">
        <ele>207.2</ele>
        <time>2026-03-22T07:31:44Z</time>
      </trkpt>
      <trkpt lat="44.41738" lon="1.57143">
        <ele>207.6</ele>
        <time>2026-03-22T07:31:45Z</time>
      </trkpt>
      <trkpt lat="44.41739" lon="1.57144">
        <ele>208</ele>
        <time>2026-03-22T07:31:46Z</time>
      </trkpt>
      <trkpt lat="44.41741" lon="1.57146">
        <ele>208.4</ele>
        <time>2026-03-22T07:31:47Z</time>
      </trkpt>
      <trkpt lat="44.41742" lon="1.57148">
        <ele>208.8</ele>
        <time>2026-03-22T07:31:48Z</time>
      </trkpt>
      <trkpt lat="44.41743" lon="1.5715">
        <ele>209</ele>
        <time>2026-03-22T07:31:49Z</time>
      </trkpt>
      <trkpt lat="44.41745" lon="1.57152">
        <ele>209.4</ele>
        <time>2026-03-22T07:31:50Z</time>
      </trkpt>
      <trkpt lat="44.41747" lon="1.57154">
        <ele>209.6</ele>
        <time>2026-03-22T07:31:51Z</time>
      </trkpt>
      <trkpt lat="44.41748" lon="1.57156">
        <ele>210</ele>
        <time>2026-03-22T07:31:52Z</time>
      </trkpt>
      <trkpt lat="44.4175" lon="1.57158">
        <ele>210.2</ele>
        <time>2026-03-22T07:31:53Z</time>
      </trkpt>
      <trkpt lat="44.41752" lon="1.57159">
        <ele>210.6</ele>
        <time>2026-03-22T07:31:54Z</time>
      </trkpt>
      <trkpt lat="44.41754" lon="1.57161">
        <ele>211</ele>
        <time>2026-03-22T07:31:55Z</time>
      </trkpt>
      <trkpt lat="44.41755" lon="1.57162">
        <ele>211.2</ele>
        <time>2026-03-22T07:31:56Z</time>
      </trkpt>
      <trkpt lat="44.41757" lon="1.57164">
        <ele>211.6</ele>
        <time>2026-03-22T07:31:57Z</time>
      </trkpt>
      <trkpt lat="44.41759" lon="1.57166">
        <ele>212.4</ele>
        <time>2026-03-22T07:31:58Z</time>
      </trkpt>
      <trkpt lat="44.41761" lon="1.57169">
        <ele>212.8</ele>
        <time>2026-03-22T07:31:59Z</time>
      </trkpt>
      <trkpt lat="44.41763" lon="1.57171">
        <ele>213</ele>
        <time>2026-03-22T07:32:00Z</time>
      </trkpt>
      <trkpt lat="44.41765" lon="1.57173">
        <ele>213.4</ele>
        <time>2026-03-22T07:32:01Z</time>
      </trkpt>
      <trkpt lat="44.41768" lon="1.57175">
        <ele>213.6</ele>
        <time>2026-03-22T07:32:02Z</time>
      </trkpt>
      <trkpt lat="44.4177" lon="1.57178">
        <ele>214</ele>
        <time>2026-03-22T07:32:03Z</time>
      </trkpt>
      <trkpt lat="44.41772" lon="1.57181">
        <ele>214.4</ele>
        <time>2026-03-22T07:32:04Z</time>
      </trkpt>
      <trkpt lat="44.41774" lon="1.57184">
        <ele>214.8</ele>
        <time>2026-03-22T07:32:05Z</time>
      </trkpt>
      <trkpt lat="44.41775" lon="1.57187">
        <ele>215.4</ele>
        <time>2026-03-22T07:32:06Z</time>
      </trkpt>
      <trkpt lat="44.41777" lon="1.5719">
        <ele>215.6</ele>
        <time>2026-03-22T07:32:07Z</time>
      </trkpt>
      <trkpt lat="44.41779" lon="1.57192">
        <ele>215.8</ele>
        <time>2026-03-22T07:32:08Z</time>
      </trkpt>
      <trkpt lat="44.41781" lon="1.57194">
        <ele>216</ele>
        <time>2026-03-22T07:32:09Z</time>
      </trkpt>
      <trkpt lat="44.41783" lon="1.57196">
        <ele>216.6</ele>
        <time>2026-03-22T07:32:10Z</time>
      </trkpt>
      <trkpt lat="44.41785" lon="1.572">
        <ele>216.8</ele>
        <time>2026-03-22T07:32:11Z</time>
      </trkpt>
      <trkpt lat="44.41786" lon="1.57203">
        <ele>217.4</ele>
        <time>2026-03-22T07:32:12Z</time>
      </trkpt>
      <trkpt lat="44.41787" lon="1.57206">
        <ele>217.6</ele>
        <time>2026-03-22T07:32:13Z</time>
      </trkpt>
      <trkpt lat="44.41788" lon="1.57209">
        <ele>218</ele>
        <time>2026-03-22T07:32:14Z</time>
      </trkpt>
      <trkpt lat="44.41789" lon="1.57212">
        <ele>218.4</ele>
        <time>2026-03-22T07:32:15Z</time>
      </trkpt>
      <trkpt lat="44.4179" lon="1.57215">
        <ele>218.8</ele>
        <time>2026-03-22T07:32:16Z</time>
      </trkpt>
      <trkpt lat="44.41791" lon="1.57218">
        <ele>219</ele>
        <time>2026-03-22T07:32:17Z</time>
      </trkpt>
      <trkpt lat="44.41792" lon="1.57221">
        <ele>219.4</ele>
        <time>2026-03-22T07:32:18Z</time>
      </trkpt>
      <trkpt lat="44.41793" lon="1.57224">
        <ele>219.8</ele>
        <time>2026-03-22T07:32:19Z</time>
      </trkpt>
      <trkpt lat="44.41794" lon="1.57227">
        <ele>220.2</ele>
        <time>2026-03-22T07:32:20Z</time>
      </trkpt>
      <trkpt lat="44.41795" lon="1.57229">
        <ele>220.6</ele>
        <time>2026-03-22T07:32:21Z</time>
      </trkpt>
      <trkpt lat="44.41795" lon="1.57232">
        <ele>221</ele>
        <time>2026-03-22T07:32:22Z</time>
      </trkpt>
      <trkpt lat="44.41796" lon="1.57235">
        <ele>221.2</ele>
        <time>2026-03-22T07:32:23Z</time>
      </trkpt>
      <trkpt lat="44.41797" lon="1.57238">
        <ele>221.6</ele>
        <time>2026-03-22T07:32:24Z</time>
      </trkpt>
      <trkpt lat="44.41799" lon="1.57241">
        <ele>222</ele>
        <time>2026-03-22T07:32:25Z</time>
      </trkpt>
      <trkpt lat="44.418" lon="1.57244">
        <ele>222.4</ele>
        <time>2026-03-22T07:32:26Z</time>
      </trkpt>
      <trkpt lat="44.41801" lon="1.57247">
        <ele>222.6</ele>
        <time>2026-03-22T07:32:27Z</time>
      </trkpt>
      <trkpt lat="44.41803" lon="1.5725">
        <ele>223</ele>
        <time>2026-03-22T07:32:28Z</time>
      </trkpt>
      <trkpt lat="44.41804" lon="1.57253">
        <ele>223.2</ele>
        <time>2026-03-22T07:32:29Z</time>
      </trkpt>
      <trkpt lat="44.41805" lon="1.57256">
        <ele>223.4</ele>
        <time>2026-03-22T07:32:30Z</time>
      </trkpt>
      <trkpt lat="44.41806" lon="1.57259">
        <ele>223.8</ele>
        <time>2026-03-22T07:32:31Z</time>
      </trkpt>
      <trkpt lat="44.41808" lon="1.57262">
        <ele>224.2</ele>
        <time>2026-03-22T07:32:32Z</time>
      </trkpt>
      <trkpt lat="44.41809" lon="1.57264">
        <ele>224.4</ele>
        <time>2026-03-22T07:32:33Z</time>
      </trkpt>
      <trkpt lat="44.41811" lon="1.57267">
        <ele>224.6</ele>
        <time>2026-03-22T07:32:34Z</time>
      </trkpt>
      <trkpt lat="44.41812" lon="1.5727">
        <ele>224.8</ele>
        <time>2026-03-22T07:32:35Z</time>
      </trkpt>
      <trkpt lat="44.41814" lon="1.57273">
        <ele>225.2</ele>
        <time>2026-03-22T07:32:36Z</time>
      </trkpt>
      <trkpt lat="44.41815" lon="1.57276">
        <ele>225.4</ele>
        <time>2026-03-22T07:32:37Z</time>
      </trkpt>
      <trkpt lat="44.41817" lon="1.57278">
        <ele>225.8</ele>
        <time>2026-03-22T07:32:38Z</time>
      </trkpt>
      <trkpt lat="44.41819" lon="1.57281">
        <ele>226.2</ele>
        <time>2026-03-22T07:32:39Z</time>
      </trkpt>
      <trkpt lat="44.41821" lon="1.57283">
        <ele>226.4</ele>
        <time>2026-03-22T07:32:40Z</time>
      </trkpt>
      <trkpt lat="44.41822" lon="1.57286">
        <ele>226.6</ele>
        <time>2026-03-22T07:32:41Z</time>
      </trkpt>
      <trkpt lat="44.41824" lon="1.57289">
        <ele>227</ele>
        <time>2026-03-22T07:32:42Z</time>
      </trkpt>
      <trkpt lat="44.41826" lon="1.57292">
        <ele>227.2</ele>
        <time>2026-03-22T07:32:43Z</time>
      </trkpt>
      <trkpt lat="44.41827" lon="1.57295">
        <ele>227.4</ele>
        <time>2026-03-22T07:32:44Z</time>
      </trkpt>
      <trkpt lat="44.41829" lon="1.57298">
        <ele>227.6</ele>
        <time>2026-03-22T07:32:45Z</time>
      </trkpt>
      <trkpt lat="44.4183" lon="1.573">
        <ele>227.8</ele>
        <time>2026-03-22T07:32:46Z</time>
      </trkpt>
      <trkpt lat="44.41832" lon="1.57303">
        <ele>228.2</ele>
        <time>2026-03-22T07:32:47Z</time>
      </trkpt>
      <trkpt lat="44.41833" lon="1.57306">
        <ele>228.4</ele>
        <time>2026-03-22T07:32:48Z</time>
      </trkpt>
      <trkpt lat="44.41835" lon="1.57308">
        <ele>228.8</ele>
        <time>2026-03-22T07:32:49Z</time>
      </trkpt>
      <trkpt lat="44.41836" lon="1.57311">
        <ele>228.8</ele>
        <time>2026-03-22T07:32:50Z</time>
      </trkpt>
      <trkpt lat="44.41838" lon="1.57314">
        <ele>229.2</ele>
        <time>2026-03-22T07:32:51Z</time>
      </trkpt>
      <trkpt lat="44.41839" lon="1.57317">
        <ele>229.4</ele>
        <time>2026-03-22T07:32:52Z</time>
      </trkpt>
      <trkpt lat="44.4184" lon="1.5732">
        <ele>229.8</ele>
        <time>2026-03-22T07:32:53Z</time>
      </trkpt>
      <trkpt lat="44.41842" lon="1.57323">
        <ele>230</ele>
        <time>2026-03-22T07:32:54Z</time>
      </trkpt>
      <trkpt lat="44.41843" lon="1.57327">
        <ele>230.6</ele>
        <time>2026-03-22T07:32:55Z</time>
      </trkpt>
      <trkpt lat="44.41844" lon="1.5733">
        <ele>230.8</ele>
        <time>2026-03-22T07:32:56Z</time>
      </trkpt>
      <trkpt lat="44.41846" lon="1.57333">
        <ele>231</ele>
        <time>2026-03-22T07:32:57Z</time>
      </trkpt>
      <trkpt lat="44.41847" lon="1.57336">
        <ele>231.4</ele>
        <time>2026-03-22T07:32:58Z</time>
      </trkpt>
      <trkpt lat="44.41848" lon="1.57339">
        <ele>231.6</ele>
        <time>2026-03-22T07:32:59Z</time>
      </trkpt>
      <trkpt lat="44.4185" lon="1.57342">
        <ele>232</ele>
        <time>2026-03-22T07:33:00Z</time>
      </trkpt>
      <trkpt lat="44.41851" lon="1.57345">
        <ele>232.2</ele>
        <time>2026-03-22T07:33:01Z</time>
      </trkpt>
      <trkpt lat="44.41852" lon="1.57348">
        <ele>232.4</ele>
        <time>2026-03-22T07:33:02Z</time>
      </trkpt>
      <trkpt lat="44.41853" lon="1.57351">
        <ele>232.6</ele>
        <time>2026-03-22T07:33:03Z</time>
      </trkpt>
      <trkpt lat="44.41854" lon="1.57355">
        <ele>232.8</ele>
        <time>2026-03-22T07:33:04Z</time>
      </trkpt>
      <trkpt lat="44.41856" lon="1.57358">
        <ele>233</ele>
        <time>2026-03-22T07:33:05Z</time>
      </trkpt>
      <trkpt lat="44.41857" lon="1.57361">
        <ele>233.2</ele>
        <time>2026-03-22T07:33:06Z</time>
      </trkpt>
      <trkpt lat="44.41859" lon="1.57364">
        <ele>233.4</ele>
        <time>2026-03-22T07:33:07Z</time>
      </trkpt>
      <trkpt lat="44.41861" lon="1.57367">
        <ele>233.6</ele>
        <time>2026-03-22T07:33:08Z</time>
      </trkpt>
      <trkpt lat="44.41862" lon="1.5737">
        <ele>233.8</ele>
        <time>2026-03-22T07:33:09Z</time>
      </trkpt>
      <trkpt lat="44.41864" lon="1.57373">
        <ele>234</ele>
        <time>2026-03-22T07:33:10Z</time>
      </trkpt>
      <trkpt lat="44.41865" lon="1.57376">
        <ele>234.2</ele>
        <time>2026-03-22T07:33:11Z</time>
      </trkpt>
      <trkpt lat="44.41867" lon="1.57379">
        <ele>234.4</ele>
        <time>2026-03-22T07:33:12Z</time>
      </trkpt>
      <trkpt lat="44.41869" lon="1.57382">
        <ele>234.6</ele>
        <time>2026-03-22T07:33:13Z</time>
      </trkpt>
      <trkpt lat="44.4187" lon="1.57385">
        <ele>234.8</ele>
        <time>2026-03-22T07:33:14Z</time>
      </trkpt>
      <trkpt lat="44.41871" lon="1.57388">
        <ele>234.8</ele>
        <time>2026-03-22T07:33:15Z</time>
      </trkpt>
      <trkpt lat="44.41873" lon="1.57391">
        <ele>235</ele>
        <time>2026-03-22T07:33:16Z</time>
      </trkpt>
      <trkpt lat="44.41875" lon="1.57393">
        <ele>235</ele>
        <time>2026-03-22T07:33:17Z</time>
      </trkpt>
      <trkpt lat="44.41877" lon="1.57396">
        <ele>235.2</ele>
        <time>2026-03-22T07:33:18Z</time>
      </trkpt>
      <trkpt lat="44.41879" lon="1.57399">
        <ele>235.4</ele>
        <time>2026-03-22T07:33:19Z</time>
      </trkpt>
      <trkpt lat="44.41881" lon="1.57402">
        <ele>235.6</ele>
        <time>2026-03-22T07:33:20Z</time>
      </trkpt>
      <trkpt lat="44.41883" lon="1.57405">
        <ele>235.6</ele>
        <time>2026-03-22T07:33:21Z</time>
      </trkpt>
      <trkpt lat="44.41884" lon="1.57408">
        <ele>236</ele>
        <time>2026-03-22T07:33:22Z</time>
      </trkpt>
      <trkpt lat="44.41886" lon="1.57411">
        <ele>236.2</ele>
        <time>2026-03-22T07:33:23Z</time>
      </trkpt>
      <trkpt lat="44.41888" lon="1.57414">
        <ele>236.4</ele>
        <time>2026-03-22T07:33:24Z</time>
      </trkpt>
      <trkpt lat="44.4189" lon="1.57416">
        <ele>236.6</ele>
        <time>2026-03-22T07:33:25Z</time>
      </trkpt>
      <trkpt lat="44.41892" lon="1.57419">
        <ele>236.6</ele>
        <time>2026-03-22T07:33:26Z</time>
      </trkpt>
      <trkpt lat="44.41894" lon="1.57422">
        <ele>236.8</ele>
        <time>2026-03-22T07:33:27Z</time>
      </trkpt>
      <trkpt lat="44.41897" lon="1.57424">
        <ele>237</ele>
        <time>2026-03-22T07:33:28Z</time>
      </trkpt>
      <trkpt lat="44.41899" lon="1.57426">
        <ele>237</ele>
        <time>2026-03-22T07:33:29Z</time>
      </trkpt>
      <trkpt lat="44.41901" lon="1.57428">
        <ele>237.2</ele>
        <time>2026-03-22T07:33:30Z</time>
      </trkpt>
      <trkpt lat="44.41904" lon="1.5743">
        <ele>237.4</ele>
        <time>2026-03-22T07:33:31Z</time>
      </trkpt>
      <trkpt lat="44.41906" lon="1.57432">
        <ele>237.6</ele>
        <time>2026-03-22T07:33:32Z</time>
      </trkpt>
      <trkpt lat="44.41908" lon="1.57433">
        <ele>237.6</ele>
        <time>2026-03-22T07:33:33Z</time>
      </trkpt>
      <trkpt lat="44.4191" lon="1.57435">
        <ele>237.8</ele>
        <time>2026-03-22T07:33:34Z</time>
      </trkpt>
      <trkpt lat="44.41913" lon="1.57438">
        <ele>238</ele>
        <time>2026-03-22T07:33:35Z</time>
      </trkpt>
      <trkpt lat="44.41915" lon="1.5744">
        <ele>238.4</ele>
        <time>2026-03-22T07:33:36Z</time>
      </trkpt>
      <trkpt lat="44.41917" lon="1.57443">
        <ele>238.6</ele>
        <time>2026-03-22T07:33:37Z</time>
      </trkpt>
      <trkpt lat="44.4192" lon="1.57445">
        <ele>238.8</ele>
        <time>2026-03-22T07:33:38Z</time>
      </trkpt>
      <trkpt lat="44.41924" lon="1.57449">
        <ele>239</ele>
        <time>2026-03-22T07:33:39Z</time>
      </trkpt>
      <trkpt lat="44.41927" lon="1.57453">
        <ele>239.2</ele>
        <time>2026-03-22T07:33:40Z</time>
      </trkpt>
      <trkpt lat="44.41931" lon="1.57456">
        <ele>239.4</ele>
        <time>2026-03-22T07:33:41Z</time>
      </trkpt>
      <trkpt lat="44.41934" lon="1.5746">
        <ele>239.6</ele>
        <time>2026-03-22T07:33:42Z</time>
      </trkpt>
      <trkpt lat="44.41937" lon="1.57464">
        <ele>239.8</ele>
        <time>2026-03-22T07:33:43Z</time>
      </trkpt>
      <trkpt lat="44.4194" lon="1.57467">
        <ele>240.2</ele>
        <time>2026-03-22T07:33:44Z</time>
      </trkpt>
      <trkpt lat="44.41944" lon="1.5747">
        <ele>240.4</ele>
        <time>2026-03-22T07:33:45Z</time>
      </trkpt>
      <trkpt lat="44.41947" lon="1.57474">
        <ele>240.8</ele>
        <time>2026-03-22T07:33:46Z</time>
      </trkpt>
      <trkpt lat="44.4195" lon="1.57477">
        <ele>241</ele>
        <time>2026-03-22T07:33:47Z</time>
      </trkpt>
      <trkpt lat="44.41952" lon="1.5748">
        <ele>241.2</ele>
        <time>2026-03-22T07:33:48Z</time>
      </trkpt>
      <trkpt lat="44.41955" lon="1.57483">
        <ele>241.4</ele>
        <time>2026-03-22T07:33:49Z</time>
      </trkpt>
      <trkpt lat="44.41957" lon="1.57486">
        <ele>241.6</ele>
        <time>2026-03-22T07:33:50Z</time>
      </trkpt>
      <trkpt lat="44.4196" lon="1.57488">
        <ele>242</ele>
        <time>2026-03-22T07:33:51Z</time>
      </trkpt>
      <trkpt lat="44.41962" lon="1.57491">
        <ele>242.2</ele>
        <time>2026-03-22T07:33:52Z</time>
      </trkpt>
      <trkpt lat="44.41964" lon="1.57493">
        <ele>242.4</ele>
        <time>2026-03-22T07:33:53Z</time>
      </trkpt>
      <trkpt lat="44.41967" lon="1.57496">
        <ele>242.6</ele>
        <time>2026-03-22T07:33:54Z</time>
      </trkpt>
      <trkpt lat="44.41969" lon="1.57499">
        <ele>242.8</ele>
        <time>2026-03-22T07:33:55Z</time>
      </trkpt>
      <trkpt lat="44.41972" lon="1.57502">
        <ele>243.2</ele>
        <time>2026-03-22T07:33:56Z</time>
      </trkpt>
      <trkpt lat="44.41975" lon="1.57505">
        <ele>243.6</ele>
        <time>2026-03-22T07:33:57Z</time>
      </trkpt>
      <trkpt lat="44.41978" lon="1.57508">
        <ele>243.8</ele>
        <time>2026-03-22T07:33:58Z</time>
      </trkpt>
      <trkpt lat="44.41981" lon="1.57511">
        <ele>244.2</ele>
        <time>2026-03-22T07:33:59Z</time>
      </trkpt>
      <trkpt lat="44.41983" lon="1.57515">
        <ele>244.2</ele>
        <time>2026-03-22T07:34:00Z</time>
      </trkpt>
      <trkpt lat="44.41986" lon="1.57518">
        <ele>244.4</ele>
        <time>2026-03-22T07:34:01Z</time>
      </trkpt>
      <trkpt lat="44.41989" lon="1.57521">
        <ele>244.6</ele>
        <time>2026-03-22T07:34:02Z</time>
      </trkpt>
      <trkpt lat="44.41992" lon="1.57524">
        <ele>244.8</ele>
        <time>2026-03-22T07:34:03Z</time>
      </trkpt>
      <trkpt lat="44.41995" lon="1.57528">
        <ele>245</ele>
        <time>2026-03-22T07:34:04Z</time>
      </trkpt>
      <trkpt lat="44.41997" lon="1.57531">
        <ele>245.2</ele>
        <time>2026-03-22T07:34:06Z</time>
      </trkpt>
      <trkpt lat="44.42" lon="1.57535">
        <ele>245.4</ele>
        <time>2026-03-22T07:34:07Z</time>
      </trkpt>
      <trkpt lat="44.42004" lon="1.57538">
        <ele>245.4</ele>
        <time>2026-03-22T07:34:08Z</time>
      </trkpt>
      <trkpt lat="44.42007" lon="1.57542">
        <ele>245.8</ele>
        <time>2026-03-22T07:34:09Z</time>
      </trkpt>
      <trkpt lat="44.4201" lon="1.57545">
        <ele>246</ele>
        <time>2026-03-22T07:34:10Z</time>
      </trkpt>
      <trkpt lat="44.42013" lon="1.57549">
        <ele>246.2</ele>
        <time>2026-03-22T07:34:11Z</time>
      </trkpt>
      <trkpt lat="44.42016" lon="1.57553">
        <ele>246.4</ele>
        <time>2026-03-22T07:34:12Z</time>
      </trkpt>
      <trkpt lat="44.42019" lon="1.57557">
        <ele>246.6</ele>
        <time>2026-03-22T07:34:13Z</time>
      </trkpt>
      <trkpt lat="44.42022" lon="1.57561">
        <ele>246.8</ele>
        <time>2026-03-22T07:34:14Z</time>
      </trkpt>
      <trkpt lat="44.42025" lon="1.57566">
        <ele>246.8</ele>
        <time>2026-03-22T07:34:15Z</time>
      </trkpt>
      <trkpt lat="44.42029" lon="1.57572">
        <ele>246.8</ele>
        <time>2026-03-22T07:34:16Z</time>
      </trkpt>
      <trkpt lat="44.42031" lon="1.57577">
        <ele>246.8</ele>
        <time>2026-03-22T07:34:17Z</time>
      </trkpt>
      <trkpt lat="44.42034" lon="1.57582">
        <ele>246.8</ele>
        <time>2026-03-22T07:34:18Z</time>
      </trkpt>
      <trkpt lat="44.42038" lon="1.57586">
        <ele>246.8</ele>
        <time>2026-03-22T07:34:19Z</time>
      </trkpt>
      <trkpt lat="44.4204" lon="1.57591">
        <ele>246.8</ele>
        <time>2026-03-22T07:34:20Z</time>
      </trkpt>
      <trkpt lat="44.42043" lon="1.57596">
        <ele>246.8</ele>
        <time>2026-03-22T07:34:21Z</time>
      </trkpt>
      <trkpt lat="44.42046" lon="1.57602">
        <ele>246.8</ele>
        <time>2026-03-22T07:34:22Z</time>
      </trkpt>
      <trkpt lat="44.42049" lon="1.57608">
        <ele>246.8</ele>
        <time>2026-03-22T07:34:23Z</time>
      </trkpt>
      <trkpt lat="44.42052" lon="1.57614">
        <ele>246.8</ele>
        <time>2026-03-22T07:34:24Z</time>
      </trkpt>
      <trkpt lat="44.42056" lon="1.57621">
        <ele>246.8</ele>
        <time>2026-03-22T07:34:25Z</time>
      </trkpt>
      <trkpt lat="44.42059" lon="1.57628">
        <ele>246.8</ele>
        <time>2026-03-22T07:34:26Z</time>
      </trkpt>
      <trkpt lat="44.42062" lon="1.57635">
        <ele>246.6</ele>
        <time>2026-03-22T07:34:27Z</time>
      </trkpt>
      <trkpt lat="44.42065" lon="1.57642">
        <ele>246.4</ele>
        <time>2026-03-22T07:34:28Z</time>
      </trkpt>
      <trkpt lat="44.42068" lon="1.57648">
        <ele>246.4</ele>
        <time>2026-03-22T07:34:29Z</time>
      </trkpt>
      <trkpt lat="44.42071" lon="1.57655">
        <ele>246.4</ele>
        <time>2026-03-22T07:34:30Z</time>
      </trkpt>
      <trkpt lat="44.42073" lon="1.57661">
        <ele>246.4</ele>
        <time>2026-03-22T07:34:31Z</time>
      </trkpt>
      <trkpt lat="44.42076" lon="1.57668">
        <ele>246.2</ele>
        <time>2026-03-22T07:34:32Z</time>
      </trkpt>
      <trkpt lat="44.42082" lon="1.5768">
        <ele>245.8</ele>
        <time>2026-03-22T07:34:34Z</time>
      </trkpt>
      <trkpt lat="44.42089" lon="1.57702">
        <ele>245.4</ele>
        <time>2026-03-22T07:34:37Z</time>
      </trkpt>
      <trkpt lat="44.42091" lon="1.5771">
        <ele>245.4</ele>
        <time>2026-03-22T07:34:38Z</time>
      </trkpt>
      <trkpt lat="44.42093" lon="1.57716">
        <ele>245.2</ele>
        <time>2026-03-22T07:34:39Z</time>
      </trkpt>
      <trkpt lat="44.42096" lon="1.57723">
        <ele>245.2</ele>
        <time>2026-03-22T07:34:40Z</time>
      </trkpt>
      <trkpt lat="44.42098" lon="1.57729">
        <ele>244.8</ele>
        <time>2026-03-22T07:34:41Z</time>
      </trkpt>
      <trkpt lat="44.42101" lon="1.57736">
        <ele>244.6</ele>
        <time>2026-03-22T07:34:42Z</time>
      </trkpt>
      <trkpt lat="44.42103" lon="1.57743">
        <ele>244.4</ele>
        <time>2026-03-22T07:34:43Z</time>
      </trkpt>
      <trkpt lat="44.42104" lon="1.57749">
        <ele>244.2</ele>
        <time>2026-03-22T07:34:44Z</time>
      </trkpt>
      <trkpt lat="44.42107" lon="1.57755">
        <ele>244</ele>
        <time>2026-03-22T07:34:45Z</time>
      </trkpt>
      <trkpt lat="44.42109" lon="1.5776">
        <ele>244</ele>
        <time>2026-03-22T07:34:46Z</time>
      </trkpt>
      <trkpt lat="44.42113" lon="1.57763">
        <ele>243.8</ele>
        <time>2026-03-22T07:34:47Z</time>
      </trkpt>
      <trkpt lat="44.42117" lon="1.57765">
        <ele>243.8</ele>
        <time>2026-03-22T07:34:48Z</time>
      </trkpt>
      <trkpt lat="44.42122" lon="1.57766">
        <ele>243.8</ele>
        <time>2026-03-22T07:34:49Z</time>
      </trkpt>
      <trkpt lat="44.42128" lon="1.57765">
        <ele>243.6</ele>
        <time>2026-03-22T07:34:50Z</time>
      </trkpt>
      <trkpt lat="44.42133" lon="1.57765">
        <ele>243.6</ele>
        <time>2026-03-22T07:34:51Z</time>
      </trkpt>
      <trkpt lat="44.42154" lon="1.57763">
        <ele>243</ele>
        <time>2026-03-22T07:34:55Z</time>
      </trkpt>
      <trkpt lat="44.42168" lon="1.57762">
        <ele>242.8</ele>
        <time>2026-03-22T07:34:58Z</time>
      </trkpt>
      <trkpt lat="44.42171" lon="1.57761">
        <ele>242.6</ele>
        <time>2026-03-22T07:34:59Z</time>
      </trkpt>
      <trkpt lat="44.42175" lon="1.57761">
        <ele>242.4</ele>
        <time>2026-03-22T07:35:00Z</time>
      </trkpt>
      <trkpt lat="44.42179" lon="1.5776">
        <ele>242</ele>
        <time>2026-03-22T07:35:01Z</time>
      </trkpt>
      <trkpt lat="44.42188" lon="1.57758">
        <ele>241.6</ele>
        <time>2026-03-22T07:35:03Z</time>
      </trkpt>
      <trkpt lat="44.42199" lon="1.57756">
        <ele>241</ele>
        <time>2026-03-22T07:35:05Z</time>
      </trkpt>
      <trkpt lat="44.42212" lon="1.57753">
        <ele>240.2</ele>
        <time>2026-03-22T07:35:07Z</time>
      </trkpt>
      <trkpt lat="44.42218" lon="1.5775">
        <ele>239.8</ele>
        <time>2026-03-22T07:35:08Z</time>
      </trkpt>
      <trkpt lat="44.42224" lon="1.57746">
        <ele>239.4</ele>
        <time>2026-03-22T07:35:09Z</time>
      </trkpt>
      <trkpt lat="44.4223" lon="1.57741">
        <ele>239</ele>
        <time>2026-03-22T07:35:10Z</time>
      </trkpt>
      <trkpt lat="44.42235" lon="1.57736">
        <ele>238.4</ele>
        <time>2026-03-22T07:35:11Z</time>
      </trkpt>
      <trkpt lat="44.42246" lon="1.57724">
        <ele>237.6</ele>
        <time>2026-03-22T07:35:13Z</time>
      </trkpt>
      <trkpt lat="44.42252" lon="1.57718">
        <ele>237.2</ele>
        <time>2026-03-22T07:35:14Z</time>
      </trkpt>
      <trkpt lat="44.42265" lon="1.57705">
        <ele>236.2</ele>
        <time>2026-03-22T07:35:16Z</time>
      </trkpt>
      <trkpt lat="44.42278" lon="1.57692">
        <ele>235.4</ele>
        <time>2026-03-22T07:35:18Z</time>
      </trkpt>
      <trkpt lat="44.42285" lon="1.57685">
        <ele>234.8</ele>
        <time>2026-03-22T07:35:19Z</time>
      </trkpt>
      <trkpt lat="44.42299" lon="1.57672">
        <ele>234</ele>
        <time>2026-03-22T07:35:21Z</time>
      </trkpt>
      <trkpt lat="44.42305" lon="1.57663">
        <ele>233.4</ele>
        <time>2026-03-22T07:35:22Z</time>
      </trkpt>
      <trkpt lat="44.42312" lon="1.57655">
        <ele>232.8</ele>
        <time>2026-03-22T07:35:23Z</time>
      </trkpt>
      <trkpt lat="44.42319" lon="1.57646">
        <ele>232.2</ele>
        <time>2026-03-22T07:35:24Z</time>
      </trkpt>
      <trkpt lat="44.42333" lon="1.5763">
        <ele>231</ele>
        <time>2026-03-22T07:35:26Z</time>
      </trkpt>
      <trkpt lat="44.4234" lon="1.57622">
        <ele>230</ele>
        <time>2026-03-22T07:35:27Z</time>
      </trkpt>
      <trkpt lat="44.42347" lon="1.57614">
        <ele>229.4</ele>
        <time>2026-03-22T07:35:28Z</time>
      </trkpt>
      <trkpt lat="44.42361" lon="1.57599">
        <ele>228.4</ele>
        <time>2026-03-22T07:35:30Z</time>
      </trkpt>
      <trkpt lat="44.42368" lon="1.57591">
        <ele>228</ele>
        <time>2026-03-22T07:35:31Z</time>
      </trkpt>
      <trkpt lat="44.42376" lon="1.57584">
        <ele>227.4</ele>
        <time>2026-03-22T07:35:32Z</time>
      </trkpt>
      <trkpt lat="44.42383" lon="1.57579">
        <ele>227</ele>
        <time>2026-03-22T07:35:33Z</time>
      </trkpt>
      <trkpt lat="44.42391" lon="1.57578">
        <ele>226.4</ele>
        <time>2026-03-22T07:35:34Z</time>
      </trkpt>
      <trkpt lat="44.42399" lon="1.57579">
        <ele>225.6</ele>
        <time>2026-03-22T07:35:35Z</time>
      </trkpt>
      <trkpt lat="44.42408" lon="1.57579">
        <ele>225</ele>
        <time>2026-03-22T07:35:36Z</time>
      </trkpt>
      <trkpt lat="44.42417" lon="1.57578">
        <ele>224.2</ele>
        <time>2026-03-22T07:35:37Z</time>
      </trkpt>
      <trkpt lat="44.42426" lon="1.57577">
        <ele>223.4</ele>
        <time>2026-03-22T07:35:38Z</time>
      </trkpt>
      <trkpt lat="44.42436" lon="1.57578">
        <ele>222.6</ele>
        <time>2026-03-22T07:35:39Z</time>
      </trkpt>
      <trkpt lat="44.42446" lon="1.57581">
        <ele>221.2</ele>
        <time>2026-03-22T07:35:40Z</time>
      </trkpt>
      <trkpt lat="44.42455" lon="1.57585">
        <ele>220.4</ele>
        <time>2026-03-22T07:35:41Z</time>
      </trkpt>
      <trkpt lat="44.42463" lon="1.57589">
        <ele>219.8</ele>
        <time>2026-03-22T07:35:42Z</time>
      </trkpt>
      <trkpt lat="44.4247" lon="1.57592">
        <ele>219.2</ele>
        <time>2026-03-22T07:35:43Z</time>
      </trkpt>
      <trkpt lat="44.42477" lon="1.57591">
        <ele>218.2</ele>
        <time>2026-03-22T07:35:44Z</time>
      </trkpt>
      <trkpt lat="44.42483" lon="1.57587">
        <ele>217.6</ele>
        <time>2026-03-22T07:35:45Z</time>
      </trkpt>
      <trkpt lat="44.42488" lon="1.5758">
        <ele>216.8</ele>
        <time>2026-03-22T07:35:46Z</time>
      </trkpt>
      <trkpt lat="44.42492" lon="1.57573">
        <ele>216.2</ele>
        <time>2026-03-22T07:35:47Z</time>
      </trkpt>
      <trkpt lat="44.42497" lon="1.57569">
        <ele>215</ele>
        <time>2026-03-22T07:35:48Z</time>
      </trkpt>
      <trkpt lat="44.42501" lon="1.57569">
        <ele>213.8</ele>
        <time>2026-03-22T07:35:49Z</time>
      </trkpt>
      <trkpt lat="44.42506" lon="1.57571">
        <ele>211.8</ele>
        <time>2026-03-22T07:35:50Z</time>
      </trkpt>
      <trkpt lat="44.42511" lon="1.57573">
        <ele>210.2</ele>
        <time>2026-03-22T07:35:51Z</time>
      </trkpt>
      <trkpt lat="44.42514" lon="1.57575">
        <ele>209.2</ele>
        <time>2026-03-22T07:35:52Z</time>
      </trkpt>
      <trkpt lat="44.42517" lon="1.57578">
        <ele>208.2</ele>
        <time>2026-03-22T07:35:53Z</time>
      </trkpt>
      <trkpt lat="44.4252" lon="1.57581">
        <ele>207.2</ele>
        <time>2026-03-22T07:35:54Z</time>
      </trkpt>
      <trkpt lat="44.42521" lon="1.57584">
        <ele>206.8</ele>
        <time>2026-03-22T07:35:55Z</time>
      </trkpt>
      <trkpt lat="44.4252" lon="1.57588">
        <ele>206.6</ele>
        <time>2026-03-22T07:35:56Z</time>
      </trkpt>
      <trkpt lat="44.42519" lon="1.57591">
        <ele>206.4</ele>
        <time>2026-03-22T07:35:57Z</time>
      </trkpt>
      <trkpt lat="44.42517" lon="1.576">
        <ele>206.2</ele>
        <time>2026-03-22T07:35:59Z</time>
      </trkpt>
      <trkpt lat="44.42516" lon="1.57604">
        <ele>206.2</ele>
        <time>2026-03-22T07:36:00Z</time>
      </trkpt>
      <trkpt lat="44.42513" lon="1.57613">
        <ele>206.2</ele>
        <time>2026-03-22T07:36:02Z</time>
      </trkpt>
      <trkpt lat="44.42509" lon="1.57621">
        <ele>206.6</ele>
        <time>2026-03-22T07:36:04Z</time>
      </trkpt>
      <trkpt lat="44.42506" lon="1.5763">
        <ele>207.4</ele>
        <time>2026-03-22T07:36:06Z</time>
      </trkpt>
      <trkpt lat="44.42504" lon="1.57642">
        <ele>208.8</ele>
        <time>2026-03-22T07:36:09Z</time>
      </trkpt>
      <trkpt lat="44.42501" lon="1.5765">
        <ele>209.6</ele>
        <time>2026-03-22T07:36:11Z</time>
      </trkpt>
      <trkpt lat="44.425" lon="1.57655">
        <ele>210</ele>
        <time>2026-03-22T07:36:12Z</time>
      </trkpt>
      <trkpt lat="44.42497" lon="1.57664">
        <ele>210.4</ele>
        <time>2026-03-22T07:36:14Z</time>
      </trkpt>
      <trkpt lat="44.42496" lon="1.57668">
        <ele>210.8</ele>
        <time>2026-03-22T07:36:15Z</time>
      </trkpt>
      <trkpt lat="44.42495" lon="1.57672">
        <ele>211</ele>
        <time>2026-03-22T07:36:16Z</time>
      </trkpt>
      <trkpt lat="44.42493" lon="1.5768">
        <ele>211.6</ele>
        <time>2026-03-22T07:36:18Z</time>
      </trkpt>
      <trkpt lat="44.42492" lon="1.57685">
        <ele>212</ele>
        <time>2026-03-22T07:36:19Z</time>
      </trkpt>
      <trkpt lat="44.42491" lon="1.57689">
        <ele>212.4</ele>
        <time>2026-03-22T07:36:20Z</time>
      </trkpt>
      <trkpt lat="44.42491" lon="1.57693">
        <ele>212.6</ele>
        <time>2026-03-22T07:36:21Z</time>
      </trkpt>
      <trkpt lat="44.4249" lon="1.57697">
        <ele>213</ele>
        <time>2026-03-22T07:36:22Z</time>
      </trkpt>
      <trkpt lat="44.42489" lon="1.57704">
        <ele>213.4</ele>
        <time>2026-03-22T07:36:24Z</time>
      </trkpt>
      <trkpt lat="44.42489" lon="1.57707">
        <ele>213.6</ele>
        <time>2026-03-22T07:36:25Z</time>
      </trkpt>
      <trkpt lat="44.42489" lon="1.57711">
        <ele>213.8</ele>
        <time>2026-03-22T07:36:26Z</time>
      </trkpt>
      <trkpt lat="44.42488" lon="1.57715">
        <ele>213.8</ele>
        <time>2026-03-22T07:36:27Z</time>
      </trkpt>
      <trkpt lat="44.42488" lon="1.57719">
        <ele>214.2</ele>
        <time>2026-03-22T07:36:28Z</time>
      </trkpt>
      <trkpt lat="44.42489" lon="1.57722">
        <ele>214.4</ele>
        <time>2026-03-22T07:36:29Z</time>
      </trkpt>
      <trkpt lat="44.42489" lon="1.57725">
        <ele>214.6</ele>
        <time>2026-03-22T07:36:30Z</time>
      </trkpt>
      <trkpt lat="44.4249" lon="1.57729">
        <ele>215.2</ele>
        <time>2026-03-22T07:36:31Z</time>
      </trkpt>
      <trkpt lat="44.4249" lon="1.57732">
        <ele>215.6</ele>
        <time>2026-03-22T07:36:32Z</time>
      </trkpt>
      <trkpt lat="44.4249" lon="1.57735">
        <ele>216.2</ele>
        <time>2026-03-22T07:36:33Z</time>
      </trkpt>
      <trkpt lat="44.42491" lon="1.57738">
        <ele>216.6</ele>
        <time>2026-03-22T07:36:34Z</time>
      </trkpt>
      <trkpt lat="44.42491" lon="1.57741">
        <ele>216.8</ele>
        <time>2026-03-22T07:36:35Z</time>
      </trkpt>
      <trkpt lat="44.42491" lon="1.57744">
        <ele>217.2</ele>
        <time>2026-03-22T07:36:36Z</time>
      </trkpt>
      <trkpt lat="44.42491" lon="1.57748">
        <ele>217.6</ele>
        <time>2026-03-22T07:36:37Z</time>
      </trkpt>
      <trkpt lat="44.42491" lon="1.57752">
        <ele>217.8</ele>
        <time>2026-03-22T07:36:38Z</time>
      </trkpt>
      <trkpt lat="44.42491" lon="1.57755">
        <ele>218.2</ele>
        <time>2026-03-22T07:36:39Z</time>
      </trkpt>
      <trkpt lat="44.42491" lon="1.57759">
        <ele>218.4</ele>
        <time>2026-03-22T07:36:40Z</time>
      </trkpt>
      <trkpt lat="44.42491" lon="1.57763">
        <ele>218.8</ele>
        <time>2026-03-22T07:36:41Z</time>
      </trkpt>
      <trkpt lat="44.42491" lon="1.57766">
        <ele>219.2</ele>
        <time>2026-03-22T07:36:42Z</time>
      </trkpt>
      <trkpt lat="44.42492" lon="1.57769">
        <ele>219.6</ele>
        <time>2026-03-22T07:36:43Z</time>
      </trkpt>
      <trkpt lat="44.42492" lon="1.57773">
        <ele>220</ele>
        <time>2026-03-22T07:36:44Z</time>
      </trkpt>
      <trkpt lat="44.42492" lon="1.57776">
        <ele>220.2</ele>
        <time>2026-03-22T07:36:45Z</time>
      </trkpt>
      <trkpt lat="44.42492" lon="1.5778">
        <ele>220.6</ele>
        <time>2026-03-22T07:36:46Z</time>
      </trkpt>
      <trkpt lat="44.42492" lon="1.57784">
        <ele>220.8</ele>
        <time>2026-03-22T07:36:47Z</time>
      </trkpt>
      <trkpt lat="44.42491" lon="1.57788">
        <ele>221.2</ele>
        <time>2026-03-22T07:36:48Z</time>
      </trkpt>
      <trkpt lat="44.42491" lon="1.57792">
        <ele>221.4</ele>
        <time>2026-03-22T07:36:49Z</time>
      </trkpt>
      <trkpt lat="44.42491" lon="1.57795">
        <ele>221.6</ele>
        <time>2026-03-22T07:36:50Z</time>
      </trkpt>
      <trkpt lat="44.42491" lon="1.57798">
        <ele>222</ele>
        <time>2026-03-22T07:36:51Z</time>
      </trkpt>
      <trkpt lat="44.42491" lon="1.57801">
        <ele>222.2</ele>
        <time>2026-03-22T07:36:52Z</time>
      </trkpt>
      <trkpt lat="44.42491" lon="1.57804">
        <ele>222.6</ele>
        <time>2026-03-22T07:36:53Z</time>
      </trkpt>
      <trkpt lat="44.42491" lon="1.57808">
        <ele>223</ele>
        <time>2026-03-22T07:36:54Z</time>
      </trkpt>
      <trkpt lat="44.42491" lon="1.57811">
        <ele>223.2</ele>
        <time>2026-03-22T07:36:55Z</time>
      </trkpt>
      <trkpt lat="44.4249" lon="1.57814">
        <ele>223.4</ele>
        <time>2026-03-22T07:36:56Z</time>
      </trkpt>
      <trkpt lat="44.4249" lon="1.57817">
        <ele>223.6</ele>
        <time>2026-03-22T07:36:57Z</time>
      </trkpt>
      <trkpt lat="44.4249" lon="1.5782">
        <ele>223.8</ele>
        <time>2026-03-22T07:36:58Z</time>
      </trkpt>
      <trkpt lat="44.42491" lon="1.57823">
        <ele>224.2</ele>
        <time>2026-03-22T07:36:59Z</time>
      </trkpt>
      <trkpt lat="44.4249" lon="1.57827">
        <ele>224.6</ele>
        <time>2026-03-22T07:37:00Z</time>
      </trkpt>
      <trkpt lat="44.4249" lon="1.57831">
        <ele>224.8</ele>
        <time>2026-03-22T07:37:01Z</time>
      </trkpt>
      <trkpt lat="44.4249" lon="1.57834">
        <ele>225</ele>
        <time>2026-03-22T07:37:02Z</time>
      </trkpt>
      <trkpt lat="44.42488" lon="1.57836">
        <ele>225.4</ele>
        <time>2026-03-22T07:37:03Z</time>
      </trkpt>
      <trkpt lat="44.42488" lon="1.57839">
        <ele>225.6</ele>
        <time>2026-03-22T07:37:04Z</time>
      </trkpt>
      <trkpt lat="44.42488" lon="1.57842">
        <ele>225.6</ele>
        <time>2026-03-22T07:37:05Z</time>
      </trkpt>
      <trkpt lat="44.42489" lon="1.57846">
        <ele>225.8</ele>
        <time>2026-03-22T07:37:06Z</time>
      </trkpt>
      <trkpt lat="44.42489" lon="1.5785">
        <ele>226.2</ele>
        <time>2026-03-22T07:37:07Z</time>
      </trkpt>
      <trkpt lat="44.42489" lon="1.57854">
        <ele>226.2</ele>
        <time>2026-03-22T07:37:08Z</time>
      </trkpt>
      <trkpt lat="44.42489" lon="1.57858">
        <ele>226.4</ele>
        <time>2026-03-22T07:37:09Z</time>
      </trkpt>
      <trkpt lat="44.42488" lon="1.57862">
        <ele>226.8</ele>
        <time>2026-03-22T07:37:10Z</time>
      </trkpt>
      <trkpt lat="44.42487" lon="1.57866">
        <ele>227</ele>
        <time>2026-03-22T07:37:11Z</time>
      </trkpt>
      <trkpt lat="44.42486" lon="1.57871">
        <ele>227</ele>
        <time>2026-03-22T07:37:12Z</time>
      </trkpt>
      <trkpt lat="44.42486" lon="1.57875">
        <ele>227.2</ele>
        <time>2026-03-22T07:37:13Z</time>
      </trkpt>
      <trkpt lat="44.42485" lon="1.57879">
        <ele>227.4</ele>
        <time>2026-03-22T07:37:14Z</time>
      </trkpt>
      <trkpt lat="44.42486" lon="1.57882">
        <ele>227.6</ele>
        <time>2026-03-22T07:37:15Z</time>
      </trkpt>
      <trkpt lat="44.42486" lon="1.57886">
        <ele>227.8</ele>
        <time>2026-03-22T07:37:16Z</time>
      </trkpt>
      <trkpt lat="44.42485" lon="1.57889">
        <ele>228</ele>
        <time>2026-03-22T07:37:17Z</time>
      </trkpt>
      <trkpt lat="44.42486" lon="1.57891">
        <ele>228.4</ele>
        <time>2026-03-22T07:37:18Z</time>
      </trkpt>
      <trkpt lat="44.42485" lon="1.57895">
        <ele>228.6</ele>
        <time>2026-03-22T07:37:19Z</time>
      </trkpt>
      <trkpt lat="44.42486" lon="1.57898">
        <ele>228.8</ele>
        <time>2026-03-22T07:37:20Z</time>
      </trkpt>
      <trkpt lat="44.42486" lon="1.579">
        <ele>229.2</ele>
        <time>2026-03-22T07:37:21Z</time>
      </trkpt>
      <trkpt lat="44.42487" lon="1.57902">
        <ele>229.8</ele>
        <time>2026-03-22T07:37:22Z</time>
      </trkpt>
      <trkpt lat="44.42486" lon="1.57905">
        <ele>230.2</ele>
        <time>2026-03-22T07:37:23Z</time>
      </trkpt>
      <trkpt lat="44.42483" lon="1.57909">
        <ele>230.4</ele>
        <time>2026-03-22T07:37:24Z</time>
      </trkpt>
      <trkpt lat="44.42483" lon="1.57913">
        <ele>230.6</ele>
        <time>2026-03-22T07:37:25Z</time>
      </trkpt>
      <trkpt lat="44.42482" lon="1.57916">
        <ele>230.8</ele>
        <time>2026-03-22T07:37:26Z</time>
      </trkpt>
      <trkpt lat="44.42481" lon="1.5792">
        <ele>231.2</ele>
        <time>2026-03-22T07:37:27Z</time>
      </trkpt>
      <trkpt lat="44.4248" lon="1.57924">
        <ele>231.2</ele>
        <time>2026-03-22T07:37:28Z</time>
      </trkpt>
      <trkpt lat="44.42479" lon="1.57928">
        <ele>231.4</ele>
        <time>2026-03-22T07:37:29Z</time>
      </trkpt>
      <trkpt lat="44.42478" lon="1.57933">
        <ele>231.6</ele>
        <time>2026-03-22T07:37:30Z</time>
      </trkpt>
      <trkpt lat="44.42477" lon="1.57937">
        <ele>231.6</ele>
        <time>2026-03-22T07:37:31Z</time>
      </trkpt>
      <trkpt lat="44.42476" lon="1.57941">
        <ele>231.8</ele>
        <time>2026-03-22T07:37:32Z</time>
      </trkpt>
      <trkpt lat="44.42476" lon="1.57946">
        <ele>232</ele>
        <time>2026-03-22T07:37:33Z</time>
      </trkpt>
      <trkpt lat="44.42475" lon="1.57951">
        <ele>232.2</ele>
        <time>2026-03-22T07:37:34Z</time>
      </trkpt>
      <trkpt lat="44.42475" lon="1.57956">
        <ele>232.2</ele>
        <time>2026-03-22T07:37:35Z</time>
      </trkpt>
      <trkpt lat="44.42475" lon="1.57961">
        <ele>232.4</ele>
        <time>2026-03-22T07:37:36Z</time>
      </trkpt>
      <trkpt lat="44.42475" lon="1.57965">
        <ele>232.6</ele>
        <time>2026-03-22T07:37:37Z</time>
      </trkpt>
      <trkpt lat="44.42474" lon="1.5797">
        <ele>232.8</ele>
        <time>2026-03-22T07:37:38Z</time>
      </trkpt>
      <trkpt lat="44.42474" lon="1.57975">
        <ele>233.2</ele>
        <time>2026-03-22T07:37:39Z</time>
      </trkpt>
      <trkpt lat="44.42474" lon="1.5798">
        <ele>233.2</ele>
        <time>2026-03-22T07:37:40Z</time>
      </trkpt>
      <trkpt lat="44.42474" lon="1.57985">
        <ele>233.4</ele>
        <time>2026-03-22T07:37:41Z</time>
      </trkpt>
      <trkpt lat="44.42474" lon="1.5799">
        <ele>233.4</ele>
        <time>2026-03-22T07:37:42Z</time>
      </trkpt>
      <trkpt lat="44.42475" lon="1.57994">
        <ele>233.6</ele>
        <time>2026-03-22T07:37:43Z</time>
      </trkpt>
      <trkpt lat="44.42475" lon="1.57999">
        <ele>233.8</ele>
        <time>2026-03-22T07:37:44Z</time>
      </trkpt>
      <trkpt lat="44.42475" lon="1.58005">
        <ele>234</ele>
        <time>2026-03-22T07:37:45Z</time>
      </trkpt>
      <trkpt lat="44.42475" lon="1.5801">
        <ele>234.2</ele>
        <time>2026-03-22T07:37:46Z</time>
      </trkpt>
      <trkpt lat="44.42475" lon="1.58016">
        <ele>234.2</ele>
        <time>2026-03-22T07:37:47Z</time>
      </trkpt>
      <trkpt lat="44.42475" lon="1.58021">
        <ele>234.4</ele>
        <time>2026-03-22T07:37:48Z</time>
      </trkpt>
      <trkpt lat="44.42476" lon="1.58027">
        <ele>234.6</ele>
        <time>2026-03-22T07:37:49Z</time>
      </trkpt>
      <trkpt lat="44.42476" lon="1.58032">
        <ele>234.6</ele>
        <time>2026-03-22T07:37:50Z</time>
      </trkpt>
      <trkpt lat="44.42476" lon="1.58038">
        <ele>234.8</ele>
        <time>2026-03-22T07:37:51Z</time>
      </trkpt>
      <trkpt lat="44.42476" lon="1.58044">
        <ele>235</ele>
        <time>2026-03-22T07:37:52Z</time>
      </trkpt>
      <trkpt lat="44.42476" lon="1.58049">
        <ele>235</ele>
        <time>2026-03-22T07:37:53Z</time>
      </trkpt>
      <trkpt lat="44.42476" lon="1.58055">
        <ele>235</ele>
        <time>2026-03-22T07:37:54Z</time>
      </trkpt>
      <trkpt lat="44.42476" lon="1.58061">
        <ele>235</ele>
        <time>2026-03-22T07:37:55Z</time>
      </trkpt>
      <trkpt lat="44.42477" lon="1.58068">
        <ele>235</ele>
        <time>2026-03-22T07:37:56Z</time>
      </trkpt>
      <trkpt lat="44.42478" lon="1.58074">
        <ele>235</ele>
        <time>2026-03-22T07:37:57Z</time>
      </trkpt>
      <trkpt lat="44.4248" lon="1.58081">
        <ele>235</ele>
        <time>2026-03-22T07:37:58Z</time>
      </trkpt>
      <trkpt lat="44.42482" lon="1.58087">
        <ele>235</ele>
        <time>2026-03-22T07:37:59Z</time>
      </trkpt>
      <trkpt lat="44.42485" lon="1.58093">
        <ele>235.2</ele>
        <time>2026-03-22T07:38:00Z</time>
      </trkpt>
      <trkpt lat="44.42487" lon="1.58099">
        <ele>235.2</ele>
        <time>2026-03-22T07:38:01Z</time>
      </trkpt>
      <trkpt lat="44.42489" lon="1.58106">
        <ele>235.2</ele>
        <time>2026-03-22T07:38:02Z</time>
      </trkpt>
      <trkpt lat="44.42491" lon="1.58112">
        <ele>235.2</ele>
        <time>2026-03-22T07:38:03Z</time>
      </trkpt>
      <trkpt lat="44.42493" lon="1.58118">
        <ele>235.2</ele>
        <time>2026-03-22T07:38:04Z</time>
      </trkpt>
      <trkpt lat="44.42496" lon="1.58125">
        <ele>235.4</ele>
        <time>2026-03-22T07:38:05Z</time>
      </trkpt>
      <trkpt lat="44.42498" lon="1.58132">
        <ele>235.4</ele>
        <time>2026-03-22T07:38:06Z</time>
      </trkpt>
      <trkpt lat="44.42501" lon="1.58138">
        <ele>235.4</ele>
        <time>2026-03-22T07:38:07Z</time>
      </trkpt>
      <trkpt lat="44.42503" lon="1.58146">
        <ele>235.4</ele>
        <time>2026-03-22T07:38:08Z</time>
      </trkpt>
      <trkpt lat="44.42511" lon="1.58172">
        <ele>235.4</ele>
        <time>2026-03-22T07:38:12Z</time>
      </trkpt>
      <trkpt lat="44.42514" lon="1.58176">
        <ele>235.4</ele>
        <time>2026-03-22T07:38:13Z</time>
      </trkpt>
      <trkpt lat="44.42518" lon="1.58177">
        <ele>235.4</ele>
        <time>2026-03-22T07:38:14Z</time>
      </trkpt>
      <trkpt lat="44.42522" lon="1.58177">
        <ele>235.4</ele>
        <time>2026-03-22T07:38:15Z</time>
      </trkpt>
      <trkpt lat="44.42526" lon="1.58177">
        <ele>235.4</ele>
        <time>2026-03-22T07:38:16Z</time>
      </trkpt>
      <trkpt lat="44.4253" lon="1.58177">
        <ele>235.4</ele>
        <time>2026-03-22T07:38:17Z</time>
      </trkpt>
      <trkpt lat="44.42534" lon="1.58176">
        <ele>235.4</ele>
        <time>2026-03-22T07:38:18Z</time>
      </trkpt>
      <trkpt lat="44.42553" lon="1.58169">
        <ele>235.4</ele>
        <time>2026-03-22T07:38:22Z</time>
      </trkpt>
      <trkpt lat="44.42558" lon="1.58169">
        <ele>235.4</ele>
        <time>2026-03-22T07:38:23Z</time>
      </trkpt>
      <trkpt lat="44.42563" lon="1.58171">
        <ele>235.4</ele>
        <time>2026-03-22T07:38:24Z</time>
      </trkpt>
      <trkpt lat="44.42568" lon="1.58174">
        <ele>235.4</ele>
        <time>2026-03-22T07:38:25Z</time>
      </trkpt>
      <trkpt lat="44.42573" lon="1.58178">
        <ele>235.4</ele>
        <time>2026-03-22T07:38:26Z</time>
      </trkpt>
      <trkpt lat="44.42576" lon="1.58182">
        <ele>235.4</ele>
        <time>2026-03-22T07:38:27Z</time>
      </trkpt>
      <trkpt lat="44.42579" lon="1.58185">
        <ele>235.4</ele>
        <time>2026-03-22T07:38:28Z</time>
      </trkpt>
      <trkpt lat="44.42581" lon="1.58187">
        <ele>235.4</ele>
        <time>2026-03-22T07:38:29Z</time>
      </trkpt>
      <trkpt lat="44.42584" lon="1.58189">
        <ele>235.4</ele>
        <time>2026-03-22T07:38:30Z</time>
      </trkpt>
      <trkpt lat="44.42587" lon="1.58192">
        <ele>235.4</ele>
        <time>2026-03-22T07:38:31Z</time>
      </trkpt>
      <trkpt lat="44.42599" lon="1.58203">
        <ele>234.2</ele>
        <time>2026-03-22T07:38:35Z</time>
      </trkpt>
      <trkpt lat="44.42602" lon="1.58206">
        <ele>234</ele>
        <time>2026-03-22T07:38:36Z</time>
      </trkpt>
      <trkpt lat="44.42605" lon="1.58208">
        <ele>233.8</ele>
        <time>2026-03-22T07:38:37Z</time>
      </trkpt>
      <trkpt lat="44.4261" lon="1.58213">
        <ele>233.4</ele>
        <time>2026-03-22T07:38:39Z</time>
      </trkpt>
      <trkpt lat="44.42617" lon="1.58218">
        <ele>233.2</ele>
        <time>2026-03-22T07:38:41Z</time>
      </trkpt>
      <trkpt lat="44.42619" lon="1.5822">
        <ele>233</ele>
        <time>2026-03-22T07:38:42Z</time>
      </trkpt>
      <trkpt lat="44.42622" lon="1.58222">
        <ele>233</ele>
        <time>2026-03-22T07:38:43Z</time>
      </trkpt>
      <trkpt lat="44.42624" lon="1.58223">
        <ele>232.8</ele>
        <time>2026-03-22T07:38:44Z</time>
      </trkpt>
      <trkpt lat="44.42636" lon="1.58227">
        <ele>232.4</ele>
        <time>2026-03-22T07:38:47Z</time>
      </trkpt>
      <trkpt lat="44.42661" lon="1.58241">
        <ele>231.8</ele>
        <time>2026-03-22T07:38:52Z</time>
      </trkpt>
      <trkpt lat="44.42667" lon="1.58244">
        <ele>231.4</ele>
        <time>2026-03-22T07:38:53Z</time>
      </trkpt>
      <trkpt lat="44.42672" lon="1.58246">
        <ele>231.2</ele>
        <time>2026-03-22T07:38:54Z</time>
      </trkpt>
      <trkpt lat="44.42677" lon="1.58246">
        <ele>231</ele>
        <time>2026-03-22T07:38:55Z</time>
      </trkpt>
      <trkpt lat="44.42681" lon="1.58242">
        <ele>230.8</ele>
        <time>2026-03-22T07:38:56Z</time>
      </trkpt>
      <trkpt lat="44.42688" lon="1.5823">
        <ele>230.4</ele>
        <time>2026-03-22T07:38:58Z</time>
      </trkpt>
      <trkpt lat="44.42689" lon="1.58223">
        <ele>230.2</ele>
        <time>2026-03-22T07:38:59Z</time>
      </trkpt>
      <trkpt lat="44.42689" lon="1.58217">
        <ele>230</ele>
        <time>2026-03-22T07:39:00Z</time>
      </trkpt>
      <trkpt lat="44.42689" lon="1.5821">
        <ele>230</ele>
        <time>2026-03-22T07:39:01Z</time>
      </trkpt>
      <trkpt lat="44.4269" lon="1.58204">
        <ele>230</ele>
        <time>2026-03-22T07:39:02Z</time>
      </trkpt>
      <trkpt lat="44.42691" lon="1.58197">
        <ele>229.8</ele>
        <time>2026-03-22T07:39:03Z</time>
      </trkpt>
      <trkpt lat="44.42693" lon="1.5819">
        <ele>229.8</ele>
        <time>2026-03-22T07:39:04Z</time>
      </trkpt>
      <trkpt lat="44.42695" lon="1.58184">
        <ele>229.8</ele>
        <time>2026-03-22T07:39:05Z</time>
      </trkpt>
      <trkpt lat="44.42699" lon="1.58172">
        <ele>229.8</ele>
        <time>2026-03-22T07:39:07Z</time>
      </trkpt>
      <trkpt lat="44.42699" lon="1.58166">
        <ele>229.8</ele>
        <time>2026-03-22T07:39:08Z</time>
      </trkpt>
      <trkpt lat="44.427" lon="1.5816">
        <ele>229.8</ele>
        <time>2026-03-22T07:39:09Z</time>
      </trkpt>
      <trkpt lat="44.42701" lon="1.58155">
        <ele>230.2</ele>
        <time>2026-03-22T07:39:10Z</time>
      </trkpt>
      <trkpt lat="44.42702" lon="1.5815">
        <ele>230.8</ele>
        <time>2026-03-22T07:39:11Z</time>
      </trkpt>
      <trkpt lat="44.42704" lon="1.58144">
        <ele>231.4</ele>
        <time>2026-03-22T07:39:12Z</time>
      </trkpt>
      <trkpt lat="44.42705" lon="1.58138">
        <ele>232</ele>
        <time>2026-03-22T07:39:13Z</time>
      </trkpt>
      <trkpt lat="44.42705" lon="1.58133">
        <ele>232.6</ele>
        <time>2026-03-22T07:39:14Z</time>
      </trkpt>
      <trkpt lat="44.42705" lon="1.58128">
        <ele>233.4</ele>
        <time>2026-03-22T07:39:15Z</time>
      </trkpt>
      <trkpt lat="44.42706" lon="1.58123">
        <ele>234</ele>
        <time>2026-03-22T07:39:16Z</time>
      </trkpt>
      <trkpt lat="44.42707" lon="1.58119">
        <ele>234.6</ele>
        <time>2026-03-22T07:39:17Z</time>
      </trkpt>
      <trkpt lat="44.42708" lon="1.58115">
        <ele>235.4</ele>
        <time>2026-03-22T07:39:18Z</time>
      </trkpt>
      <trkpt lat="44.42711" lon="1.58111">
        <ele>235.8</ele>
        <time>2026-03-22T07:39:19Z</time>
      </trkpt>
      <trkpt lat="44.42713" lon="1.58108">
        <ele>236.2</ele>
        <time>2026-03-22T07:39:20Z</time>
      </trkpt>
      <trkpt lat="44.42716" lon="1.58104">
        <ele>237</ele>
        <time>2026-03-22T07:39:21Z</time>
      </trkpt>
      <trkpt lat="44.42718" lon="1.581">
        <ele>237.8</ele>
        <time>2026-03-22T07:39:22Z</time>
      </trkpt>
      <trkpt lat="44.4272" lon="1.58097">
        <ele>238.2</ele>
        <time>2026-03-22T07:39:23Z</time>
      </trkpt>
      <trkpt lat="44.42723" lon="1.58093">
        <ele>238.6</ele>
        <time>2026-03-22T07:39:24Z</time>
      </trkpt>
      <trkpt lat="44.42725" lon="1.5809">
        <ele>239.6</ele>
        <time>2026-03-22T07:39:25Z</time>
      </trkpt>
      <trkpt lat="44.42727" lon="1.58086">
        <ele>240</ele>
        <time>2026-03-22T07:39:26Z</time>
      </trkpt>
      <trkpt lat="44.4273" lon="1.58083">
        <ele>240.6</ele>
        <time>2026-03-22T07:39:27Z</time>
      </trkpt>
      <trkpt lat="44.42733" lon="1.58082">
        <ele>241</ele>
        <time>2026-03-22T07:39:28Z</time>
      </trkpt>
      <trkpt lat="44.42736" lon="1.58082">
        <ele>241.6</ele>
        <time>2026-03-22T07:39:29Z</time>
      </trkpt>
      <trkpt lat="44.42739" lon="1.58083">
        <ele>242</ele>
        <time>2026-03-22T07:39:30Z</time>
      </trkpt>
      <trkpt lat="44.42743" lon="1.58084">
        <ele>242.6</ele>
        <time>2026-03-22T07:39:31Z</time>
      </trkpt>
      <trkpt lat="44.42746" lon="1.58084">
        <ele>243</ele>
        <time>2026-03-22T07:39:32Z</time>
      </trkpt>
      <trkpt lat="44.42749" lon="1.58085">
        <ele>243.2</ele>
        <time>2026-03-22T07:39:33Z</time>
      </trkpt>
      <trkpt lat="44.42753" lon="1.58085">
        <ele>243.6</ele>
        <time>2026-03-22T07:39:34Z</time>
      </trkpt>
      <trkpt lat="44.42756" lon="1.58085">
        <ele>244.2</ele>
        <time>2026-03-22T07:39:35Z</time>
      </trkpt>
      <trkpt lat="44.42759" lon="1.58085">
        <ele>244.8</ele>
        <time>2026-03-22T07:39:36Z</time>
      </trkpt>
      <trkpt lat="44.42763" lon="1.58084">
        <ele>245.2</ele>
        <time>2026-03-22T07:39:37Z</time>
      </trkpt>
      <trkpt lat="44.42766" lon="1.58083">
        <ele>245.6</ele>
        <time>2026-03-22T07:39:38Z</time>
      </trkpt>
      <trkpt lat="44.42769" lon="1.58081">
        <ele>246</ele>
        <time>2026-03-22T07:39:39Z</time>
      </trkpt>
      <trkpt lat="44.42773" lon="1.58079">
        <ele>246.2</ele>
        <time>2026-03-22T07:39:40Z</time>
      </trkpt>
      <trkpt lat="44.42775" lon="1.58076">
        <ele>246.8</ele>
        <time>2026-03-22T07:39:41Z</time>
      </trkpt>
      <trkpt lat="44.42778" lon="1.58073">
        <ele>247.2</ele>
        <time>2026-03-22T07:39:42Z</time>
      </trkpt>
      <trkpt lat="44.4278" lon="1.58069">
        <ele>247.4</ele>
        <time>2026-03-22T07:39:43Z</time>
      </trkpt>
      <trkpt lat="44.42783" lon="1.58066">
        <ele>247.8</ele>
        <time>2026-03-22T07:39:44Z</time>
      </trkpt>
      <trkpt lat="44.42786" lon="1.58062">
        <ele>248.2</ele>
        <time>2026-03-22T07:39:45Z</time>
      </trkpt>
      <trkpt lat="44.42789" lon="1.5806">
        <ele>248.8</ele>
        <time>2026-03-22T07:39:46Z</time>
      </trkpt>
      <trkpt lat="44.42792" lon="1.58057">
        <ele>249.2</ele>
        <time>2026-03-22T07:39:47Z</time>
      </trkpt>
      <trkpt lat="44.42795" lon="1.58056">
        <ele>249.2</ele>
        <time>2026-03-22T07:39:48Z</time>
      </trkpt>
      <trkpt lat="44.42798" lon="1.58057">
        <ele>249.4</ele>
        <time>2026-03-22T07:39:49Z</time>
      </trkpt>
      <trkpt lat="44.42801" lon="1.58059">
        <ele>249.4</ele>
        <time>2026-03-22T07:39:50Z</time>
      </trkpt>
      <trkpt lat="44.42805" lon="1.58063">
        <ele>249.4</ele>
        <time>2026-03-22T07:39:51Z</time>
      </trkpt>
      <trkpt lat="44.42809" lon="1.58063">
        <ele>249.4</ele>
        <time>2026-03-22T07:39:52Z</time>
      </trkpt>
      <trkpt lat="44.42814" lon="1.58063">
        <ele>249.4</ele>
        <time>2026-03-22T07:39:53Z</time>
      </trkpt>
      <trkpt lat="44.4282" lon="1.58062">
        <ele>249.4</ele>
        <time>2026-03-22T07:39:54Z</time>
      </trkpt>
      <trkpt lat="44.42826" lon="1.58062">
        <ele>249.4</ele>
        <time>2026-03-22T07:39:55Z</time>
      </trkpt>
      <trkpt lat="44.42833" lon="1.58061">
        <ele>249.4</ele>
        <time>2026-03-22T07:39:56Z</time>
      </trkpt>
      <trkpt lat="44.4284" lon="1.5806">
        <ele>249.4</ele>
        <time>2026-03-22T07:39:57Z</time>
      </trkpt>
      <trkpt lat="44.42848" lon="1.58059">
        <ele>249.2</ele>
        <time>2026-03-22T07:39:58Z</time>
      </trkpt>
      <trkpt lat="44.42856" lon="1.58058">
        <ele>248.8</ele>
        <time>2026-03-22T07:39:59Z</time>
      </trkpt>
      <trkpt lat="44.42865" lon="1.58058">
        <ele>248.6</ele>
        <time>2026-03-22T07:40:00Z</time>
      </trkpt>
      <trkpt lat="44.42874" lon="1.58057">
        <ele>248.2</ele>
        <time>2026-03-22T07:40:01Z</time>
      </trkpt>
      <trkpt lat="44.42883" lon="1.58055">
        <ele>248</ele>
        <time>2026-03-22T07:40:02Z</time>
      </trkpt>
      <trkpt lat="44.42892" lon="1.58054">
        <ele>247.2</ele>
        <time>2026-03-22T07:40:03Z</time>
      </trkpt>
      <trkpt lat="44.42901" lon="1.58053">
        <ele>246.8</ele>
        <time>2026-03-22T07:40:04Z</time>
      </trkpt>
      <trkpt lat="44.42907" lon="1.58053">
        <ele>245.8</ele>
        <time>2026-03-22T07:40:05Z</time>
      </trkpt>
      <trkpt lat="44.42914" lon="1.58052">
        <ele>244.6</ele>
        <time>2026-03-22T07:40:06Z</time>
      </trkpt>
      <trkpt lat="44.42919" lon="1.58048">
        <ele>244</ele>
        <time>2026-03-22T07:40:07Z</time>
      </trkpt>
      <trkpt lat="44.42921" lon="1.58044">
        <ele>242.6</ele>
        <time>2026-03-22T07:40:08Z</time>
      </trkpt>
      <trkpt lat="44.4292" lon="1.58036">
        <ele>240.8</ele>
        <time>2026-03-22T07:40:09Z</time>
      </trkpt>
      <trkpt lat="44.4292" lon="1.58029">
        <ele>239.4</ele>
        <time>2026-03-22T07:40:10Z</time>
      </trkpt>
      <trkpt lat="44.42919" lon="1.58021">
        <ele>237.4</ele>
        <time>2026-03-22T07:40:11Z</time>
      </trkpt>
      <trkpt lat="44.42919" lon="1.58012">
        <ele>235.2</ele>
        <time>2026-03-22T07:40:12Z</time>
      </trkpt>
      <trkpt lat="44.42919" lon="1.58002">
        <ele>234</ele>
        <time>2026-03-22T07:40:13Z</time>
      </trkpt>
      <trkpt lat="44.42918" lon="1.57994">
        <ele>233</ele>
        <time>2026-03-22T07:40:14Z</time>
      </trkpt>
      <trkpt lat="44.42916" lon="1.57982">
        <ele>232.4</ele>
        <time>2026-03-22T07:40:15Z</time>
      </trkpt>
      <trkpt lat="44.42915" lon="1.57972">
        <ele>231.8</ele>
        <time>2026-03-22T07:40:16Z</time>
      </trkpt>
      <trkpt lat="44.42915" lon="1.57962">
        <ele>231.4</ele>
        <time>2026-03-22T07:40:17Z</time>
      </trkpt>
      <trkpt lat="44.42916" lon="1.57952">
        <ele>231</ele>
        <time>2026-03-22T07:40:18Z</time>
      </trkpt>
      <trkpt lat="44.42917" lon="1.57933">
        <ele>230.4</ele>
        <time>2026-03-22T07:40:20Z</time>
      </trkpt>
      <trkpt lat="44.4292" lon="1.57903">
        <ele>229.4</ele>
        <time>2026-03-22T07:40:23Z</time>
      </trkpt>
      <trkpt lat="44.42921" lon="1.57894">
        <ele>229.2</ele>
        <time>2026-03-22T07:40:24Z</time>
      </trkpt>
      <trkpt lat="44.42923" lon="1.57875">
        <ele>228.6</ele>
        <time>2026-03-22T07:40:26Z</time>
      </trkpt>
      <trkpt lat="44.42926" lon="1.57865">
        <ele>228.2</ele>
        <time>2026-03-22T07:40:27Z</time>
      </trkpt>
      <trkpt lat="44.42929" lon="1.57856">
        <ele>227.8</ele>
        <time>2026-03-22T07:40:28Z</time>
      </trkpt>
      <trkpt lat="44.42934" lon="1.57847">
        <ele>227.6</ele>
        <time>2026-03-22T07:40:29Z</time>
      </trkpt>
      <trkpt lat="44.42939" lon="1.57838">
        <ele>227.4</ele>
        <time>2026-03-22T07:40:30Z</time>
      </trkpt>
      <trkpt lat="44.42949" lon="1.57821">
        <ele>227.2</ele>
        <time>2026-03-22T07:40:32Z</time>
      </trkpt>
      <trkpt lat="44.42957" lon="1.57802">
        <ele>226.6</ele>
        <time>2026-03-22T07:40:34Z</time>
      </trkpt>
      <trkpt lat="44.42959" lon="1.57791">
        <ele>225.8</ele>
        <time>2026-03-22T07:40:35Z</time>
      </trkpt>
      <trkpt lat="44.42961" lon="1.5778">
        <ele>225.2</ele>
        <time>2026-03-22T07:40:36Z</time>
      </trkpt>
      <trkpt lat="44.42962" lon="1.57768">
        <ele>224.8</ele>
        <time>2026-03-22T07:40:37Z</time>
      </trkpt>
      <trkpt lat="44.42963" lon="1.57756">
        <ele>223.8</ele>
        <time>2026-03-22T07:40:38Z</time>
      </trkpt>
      <trkpt lat="44.42964" lon="1.57733">
        <ele>222.6</ele>
        <time>2026-03-22T07:40:40Z</time>
      </trkpt>
      <trkpt lat="44.42965" lon="1.57709">
        <ele>221.8</ele>
        <time>2026-03-22T07:40:42Z</time>
      </trkpt>
      <trkpt lat="44.42967" lon="1.57685">
        <ele>221.2</ele>
        <time>2026-03-22T07:40:44Z</time>
      </trkpt>
      <trkpt lat="44.42974" lon="1.57664">
        <ele>219.6</ele>
        <time>2026-03-22T07:40:46Z</time>
      </trkpt>
      <trkpt lat="44.42981" lon="1.57642">
        <ele>218.4</ele>
        <time>2026-03-22T07:40:48Z</time>
      </trkpt>
      <trkpt lat="44.42984" lon="1.5762">
        <ele>217.2</ele>
        <time>2026-03-22T07:40:50Z</time>
      </trkpt>
      <trkpt lat="44.42984" lon="1.57595">
        <ele>215.6</ele>
        <time>2026-03-22T07:40:52Z</time>
      </trkpt>
      <trkpt lat="44.42982" lon="1.57569">
        <ele>213.6</ele>
        <time>2026-03-22T07:40:54Z</time>
      </trkpt>
      <trkpt lat="44.42976" lon="1.57542">
        <ele>212.4</ele>
        <time>2026-03-22T07:40:56Z</time>
      </trkpt>
      <trkpt lat="44.42974" lon="1.57528">
        <ele>211.8</ele>
        <time>2026-03-22T07:40:57Z</time>
      </trkpt>
      <trkpt lat="44.42973" lon="1.57514">
        <ele>211.2</ele>
        <time>2026-03-22T07:40:58Z</time>
      </trkpt>
      <trkpt lat="44.42975" lon="1.575">
        <ele>210.6</ele>
        <time>2026-03-22T07:40:59Z</time>
      </trkpt>
      <trkpt lat="44.42977" lon="1.57486">
        <ele>209.4</ele>
        <time>2026-03-22T07:41:00Z</time>
      </trkpt>
      <trkpt lat="44.4298" lon="1.57472">
        <ele>208.6</ele>
        <time>2026-03-22T07:41:01Z</time>
      </trkpt>
      <trkpt lat="44.42981" lon="1.57457">
        <ele>207.8</ele>
        <time>2026-03-22T07:41:02Z</time>
      </trkpt>
      <trkpt lat="44.4298" lon="1.57441">
        <ele>206.4</ele>
        <time>2026-03-22T07:41:03Z</time>
      </trkpt>
      <trkpt lat="44.42977" lon="1.57427">
        <ele>205</ele>
        <time>2026-03-22T07:41:04Z</time>
      </trkpt>
      <trkpt lat="44.42972" lon="1.57414">
        <ele>203.6</ele>
        <time>2026-03-22T07:41:05Z</time>
      </trkpt>
      <trkpt lat="44.42966" lon="1.57401">
        <ele>202.8</ele>
        <time>2026-03-22T07:41:06Z</time>
      </trkpt>
      <trkpt lat="44.42959" lon="1.57389">
        <ele>201.4</ele>
        <time>2026-03-22T07:41:07Z</time>
      </trkpt>
      <trkpt lat="44.42951" lon="1.57377">
        <ele>200.4</ele>
        <time>2026-03-22T07:41:08Z</time>
      </trkpt>
      <trkpt lat="44.42943" lon="1.57364">
        <ele>199</ele>
        <time>2026-03-22T07:41:09Z</time>
      </trkpt>
      <trkpt lat="44.42937" lon="1.57351">
        <ele>197</ele>
        <time>2026-03-22T07:41:10Z</time>
      </trkpt>
      <trkpt lat="44.4293" lon="1.57338">
        <ele>195.6</ele>
        <time>2026-03-22T07:41:11Z</time>
      </trkpt>
      <trkpt lat="44.42925" lon="1.57324">
        <ele>194.4</ele>
        <time>2026-03-22T07:41:12Z</time>
      </trkpt>
      <trkpt lat="44.4292" lon="1.5731">
        <ele>193.2</ele>
        <time>2026-03-22T07:41:13Z</time>
      </trkpt>
      <trkpt lat="44.42916" lon="1.57295">
        <ele>191.8</ele>
        <time>2026-03-22T07:41:14Z</time>
      </trkpt>
      <trkpt lat="44.42914" lon="1.57279">
        <ele>191</ele>
        <time>2026-03-22T07:41:15Z</time>
      </trkpt>
      <trkpt lat="44.42911" lon="1.57263">
        <ele>189.6</ele>
        <time>2026-03-22T07:41:16Z</time>
      </trkpt>
      <trkpt lat="44.42908" lon="1.57249">
        <ele>188.2</ele>
        <time>2026-03-22T07:41:17Z</time>
      </trkpt>
      <trkpt lat="44.42906" lon="1.57235">
        <ele>187.4</ele>
        <time>2026-03-22T07:41:18Z</time>
      </trkpt>
      <trkpt lat="44.42905" lon="1.57223">
        <ele>186.2</ele>
        <time>2026-03-22T07:41:19Z</time>
      </trkpt>
      <trkpt lat="44.42905" lon="1.57212">
        <ele>184.8</ele>
        <time>2026-03-22T07:41:20Z</time>
      </trkpt>
      <trkpt lat="44.42908" lon="1.57202">
        <ele>183.6</ele>
        <time>2026-03-22T07:41:21Z</time>
      </trkpt>
      <trkpt lat="44.42914" lon="1.57194">
        <ele>182.6</ele>
        <time>2026-03-22T07:41:22Z</time>
      </trkpt>
      <trkpt lat="44.4292" lon="1.57188">
        <ele>180.8</ele>
        <time>2026-03-22T07:41:23Z</time>
      </trkpt>
      <trkpt lat="44.42926" lon="1.57181">
        <ele>179.8</ele>
        <time>2026-03-22T07:41:24Z</time>
      </trkpt>
      <trkpt lat="44.42933" lon="1.57174">
        <ele>178.2</ele>
        <time>2026-03-22T07:41:25Z</time>
      </trkpt>
      <trkpt lat="44.4294" lon="1.57167">
        <ele>176.6</ele>
        <time>2026-03-22T07:41:26Z</time>
      </trkpt>
      <trkpt lat="44.42946" lon="1.57159">
        <ele>175</ele>
        <time>2026-03-22T07:41:27Z</time>
      </trkpt>
      <trkpt lat="44.42951" lon="1.57151">
        <ele>174.2</ele>
        <time>2026-03-22T07:41:28Z</time>
      </trkpt>
      <trkpt lat="44.42957" lon="1.57144">
        <ele>173.6</ele>
        <time>2026-03-22T07:41:29Z</time>
      </trkpt>
      <trkpt lat="44.42963" lon="1.57137">
        <ele>173.2</ele>
        <time>2026-03-22T07:41:30Z</time>
      </trkpt>
      <trkpt lat="44.4297" lon="1.57131">
        <ele>173</ele>
        <time>2026-03-22T07:41:31Z</time>
      </trkpt>
      <trkpt lat="44.42976" lon="1.57126">
        <ele>172.2</ele>
        <time>2026-03-22T07:41:32Z</time>
      </trkpt>
      <trkpt lat="44.42983" lon="1.5712">
        <ele>171.6</ele>
        <time>2026-03-22T07:41:33Z</time>
      </trkpt>
      <trkpt lat="44.42995" lon="1.57108">
        <ele>171</ele>
        <time>2026-03-22T07:41:35Z</time>
      </trkpt>
      <trkpt lat="44.43002" lon="1.57103">
        <ele>171</ele>
        <time>2026-03-22T07:41:36Z</time>
      </trkpt>
      <trkpt lat="44.43008" lon="1.57097">
        <ele>170.6</ele>
        <time>2026-03-22T07:41:37Z</time>
      </trkpt>
      <trkpt lat="44.43013" lon="1.57092">
        <ele>170.4</ele>
        <time>2026-03-22T07:41:38Z</time>
      </trkpt>
      <trkpt lat="44.43019" lon="1.57086">
        <ele>170</ele>
        <time>2026-03-22T07:41:39Z</time>
      </trkpt>
      <trkpt lat="44.43025" lon="1.57082">
        <ele>169.8</ele>
        <time>2026-03-22T07:41:40Z</time>
      </trkpt>
      <trkpt lat="44.43031" lon="1.57079">
        <ele>169.6</ele>
        <time>2026-03-22T07:41:41Z</time>
      </trkpt>
      <trkpt lat="44.43037" lon="1.57077">
        <ele>169.4</ele>
        <time>2026-03-22T07:41:42Z</time>
      </trkpt>
      <trkpt lat="44.43043" lon="1.57075">
        <ele>169.2</ele>
        <time>2026-03-22T07:41:43Z</time>
      </trkpt>
      <trkpt lat="44.43049" lon="1.57074">
        <ele>168.8</ele>
        <time>2026-03-22T07:41:44Z</time>
      </trkpt>
      <trkpt lat="44.43055" lon="1.57074">
        <ele>168.8</ele>
        <time>2026-03-22T07:41:45Z</time>
      </trkpt>
      <trkpt lat="44.43085" lon="1.57074">
        <ele>168.2</ele>
        <time>2026-03-22T07:41:50Z</time>
      </trkpt>
      <trkpt lat="44.4309" lon="1.57074">
        <ele>168</ele>
        <time>2026-03-22T07:41:51Z</time>
      </trkpt>
      <trkpt lat="44.43095" lon="1.57075">
        <ele>167.8</ele>
        <time>2026-03-22T07:41:52Z</time>
      </trkpt>
      <trkpt lat="44.431" lon="1.57075">
        <ele>167.6</ele>
        <time>2026-03-22T07:41:53Z</time>
      </trkpt>
      <trkpt lat="44.43104" lon="1.57075">
        <ele>167.6</ele>
        <time>2026-03-22T07:41:54Z</time>
      </trkpt>
      <trkpt lat="44.43108" lon="1.57075">
        <ele>167.4</ele>
        <time>2026-03-22T07:41:55Z</time>
      </trkpt>
      <trkpt lat="44.43111" lon="1.57074">
        <ele>167.4</ele>
        <time>2026-03-22T07:41:56Z</time>
      </trkpt>
      <trkpt lat="44.43114" lon="1.57075">
        <ele>167.2</ele>
        <time>2026-03-22T07:41:57Z</time>
      </trkpt>
      <trkpt lat="44.43117" lon="1.57076">
        <ele>167.2</ele>
        <time>2026-03-22T07:41:58Z</time>
      </trkpt>
      <trkpt lat="44.43119" lon="1.57078">
        <ele>167.2</ele>
        <time>2026-03-22T07:41:59Z</time>
      </trkpt>
      <trkpt lat="44.43121" lon="1.5708">
        <ele>167.2</ele>
        <time>2026-03-22T07:42:00Z</time>
      </trkpt>
      <trkpt lat="44.43123" lon="1.57083">
        <ele>167.2</ele>
        <time>2026-03-22T07:42:01Z</time>
      </trkpt>
      <trkpt lat="44.43123" lon="1.57086">
        <ele>167.2</ele>
        <time>2026-03-22T07:42:02Z</time>
      </trkpt>
      <trkpt lat="44.43124" lon="1.57089">
        <ele>167.2</ele>
        <time>2026-03-22T07:42:03Z</time>
      </trkpt>
      <trkpt lat="44.43125" lon="1.57093">
        <ele>167.2</ele>
        <time>2026-03-22T07:42:04Z</time>
      </trkpt>
      <trkpt lat="44.43125" lon="1.57096">
        <ele>167.2</ele>
        <time>2026-03-22T07:42:05Z</time>
      </trkpt>
      <trkpt lat="44.43127" lon="1.57116">
        <ele>169.4</ele>
        <time>2026-03-22T07:42:10Z</time>
      </trkpt>
      <trkpt lat="44.43128" lon="1.57124">
        <ele>170.6</ele>
        <time>2026-03-22T07:42:12Z</time>
      </trkpt>
      <trkpt lat="44.43126" lon="1.57137">
        <ele>171.8</ele>
        <time>2026-03-22T07:42:15Z</time>
      </trkpt>
      <trkpt lat="44.43125" lon="1.57144">
        <ele>172.4</ele>
        <time>2026-03-22T07:42:17Z</time>
      </trkpt>
      <trkpt lat="44.43125" lon="1.57147">
        <ele>173</ele>
        <time>2026-03-22T07:42:18Z</time>
      </trkpt>
      <trkpt lat="44.43125" lon="1.5715">
        <ele>173.4</ele>
        <time>2026-03-22T07:42:19Z</time>
      </trkpt>
      <trkpt lat="44.43125" lon="1.57154">
        <ele>174</ele>
        <time>2026-03-22T07:42:20Z</time>
      </trkpt>
      <trkpt lat="44.43125" lon="1.57158">
        <ele>174.6</ele>
        <time>2026-03-22T07:42:21Z</time>
      </trkpt>
      <trkpt lat="44.43124" lon="1.57162">
        <ele>175</ele>
        <time>2026-03-22T07:42:22Z</time>
      </trkpt>
      <trkpt lat="44.43124" lon="1.57166">
        <ele>175.4</ele>
        <time>2026-03-22T07:42:23Z</time>
      </trkpt>
      <trkpt lat="44.43124" lon="1.57169">
        <ele>175.8</ele>
        <time>2026-03-22T07:42:24Z</time>
      </trkpt>
      <trkpt lat="44.43124" lon="1.57173">
        <ele>176.4</ele>
        <time>2026-03-22T07:42:25Z</time>
      </trkpt>
      <trkpt lat="44.43123" lon="1.57176">
        <ele>177</ele>
        <time>2026-03-22T07:42:26Z</time>
      </trkpt>
      <trkpt lat="44.43123" lon="1.5718">
        <ele>177.4</ele>
        <time>2026-03-22T07:42:27Z</time>
      </trkpt>
      <trkpt lat="44.43123" lon="1.57184">
        <ele>177.8</ele>
        <time>2026-03-22T07:42:28Z</time>
      </trkpt>
      <trkpt lat="44.43123" lon="1.57188">
        <ele>178.4</ele>
        <time>2026-03-22T07:42:29Z</time>
      </trkpt>
      <trkpt lat="44.43123" lon="1.57191">
        <ele>178.8</ele>
        <time>2026-03-22T07:42:30Z</time>
      </trkpt>
      <trkpt lat="44.43123" lon="1.57195">
        <ele>179.4</ele>
        <time>2026-03-22T07:42:31Z</time>
      </trkpt>
      <trkpt lat="44.43123" lon="1.57198">
        <ele>180</ele>
        <time>2026-03-22T07:42:32Z</time>
      </trkpt>
      <trkpt lat="44.43123" lon="1.57202">
        <ele>180.4</ele>
        <time>2026-03-22T07:42:33Z</time>
      </trkpt>
      <trkpt lat="44.43123" lon="1.57205">
        <ele>181</ele>
        <time>2026-03-22T07:42:34Z</time>
      </trkpt>
      <trkpt lat="44.43123" lon="1.57208">
        <ele>181.4</ele>
        <time>2026-03-22T07:42:35Z</time>
      </trkpt>
      <trkpt lat="44.43123" lon="1.57212">
        <ele>182</ele>
        <time>2026-03-22T07:42:36Z</time>
      </trkpt>
      <trkpt lat="44.43123" lon="1.57216">
        <ele>182.4</ele>
        <time>2026-03-22T07:42:37Z</time>
      </trkpt>
      <trkpt lat="44.43123" lon="1.5722">
        <ele>183</ele>
        <time>2026-03-22T07:42:38Z</time>
      </trkpt>
      <trkpt lat="44.43123" lon="1.57224">
        <ele>183.6</ele>
        <time>2026-03-22T07:42:39Z</time>
      </trkpt>
      <trkpt lat="44.43123" lon="1.57227">
        <ele>184</ele>
        <time>2026-03-22T07:42:40Z</time>
      </trkpt>
      <trkpt lat="44.43123" lon="1.57231">
        <ele>184.6</ele>
        <time>2026-03-22T07:42:41Z</time>
      </trkpt>
      <trkpt lat="44.43122" lon="1.57234">
        <ele>185</ele>
        <time>2026-03-22T07:42:42Z</time>
      </trkpt>
      <trkpt lat="44.43122" lon="1.57238">
        <ele>185.6</ele>
        <time>2026-03-22T07:42:43Z</time>
      </trkpt>
      <trkpt lat="44.43122" lon="1.57241">
        <ele>186</ele>
        <time>2026-03-22T07:42:44Z</time>
      </trkpt>
      <trkpt lat="44.43123" lon="1.57244">
        <ele>186.6</ele>
        <time>2026-03-22T07:42:45Z</time>
      </trkpt>
      <trkpt lat="44.43123" lon="1.57247">
        <ele>187.2</ele>
        <time>2026-03-22T07:42:46Z</time>
      </trkpt>
      <trkpt lat="44.43123" lon="1.57251">
        <ele>187.8</ele>
        <time>2026-03-22T07:42:47Z</time>
      </trkpt>
      <trkpt lat="44.43123" lon="1.57254">
        <ele>188.4</ele>
        <time>2026-03-22T07:42:48Z</time>
      </trkpt>
      <trkpt lat="44.43123" lon="1.57258">
        <ele>188.8</ele>
        <time>2026-03-22T07:42:49Z</time>
      </trkpt>
      <trkpt lat="44.43123" lon="1.57261">
        <ele>189.4</ele>
        <time>2026-03-22T07:42:50Z</time>
      </trkpt>
      <trkpt lat="44.43123" lon="1.57265">
        <ele>189.8</ele>
        <time>2026-03-22T07:42:51Z</time>
      </trkpt>
      <trkpt lat="44.43123" lon="1.57268">
        <ele>190.2</ele>
        <time>2026-03-22T07:42:52Z</time>
      </trkpt>
      <trkpt lat="44.43123" lon="1.57272">
        <ele>190.6</ele>
        <time>2026-03-22T07:42:53Z</time>
      </trkpt>
      <trkpt lat="44.43123" lon="1.57275">
        <ele>191.2</ele>
        <time>2026-03-22T07:42:54Z</time>
      </trkpt>
      <trkpt lat="44.43123" lon="1.57279">
        <ele>191.6</ele>
        <time>2026-03-22T07:42:55Z</time>
      </trkpt>
      <trkpt lat="44.43122" lon="1.57282">
        <ele>192</ele>
        <time>2026-03-22T07:42:56Z</time>
      </trkpt>
      <trkpt lat="44.43122" lon="1.57286">
        <ele>192.4</ele>
        <time>2026-03-22T07:42:57Z</time>
      </trkpt>
      <trkpt lat="44.43122" lon="1.57291">
        <ele>192.6</ele>
        <time>2026-03-22T07:42:58Z</time>
      </trkpt>
      <trkpt lat="44.43121" lon="1.57295">
        <ele>193.2</ele>
        <time>2026-03-22T07:42:59Z</time>
      </trkpt>
      <trkpt lat="44.43121" lon="1.57298">
        <ele>193.6</ele>
        <time>2026-03-22T07:43:00Z</time>
      </trkpt>
      <trkpt lat="44.4312" lon="1.57302">
        <ele>194</ele>
        <time>2026-03-22T07:43:01Z</time>
      </trkpt>
      <trkpt lat="44.43119" lon="1.57306">
        <ele>194.4</ele>
        <time>2026-03-22T07:43:02Z</time>
      </trkpt>
      <trkpt lat="44.4312" lon="1.5731">
        <ele>195</ele>
        <time>2026-03-22T07:43:03Z</time>
      </trkpt>
      <trkpt lat="44.4312" lon="1.57313">
        <ele>195.4</ele>
        <time>2026-03-22T07:43:04Z</time>
      </trkpt>
      <trkpt lat="44.4312" lon="1.57316">
        <ele>195.8</ele>
        <time>2026-03-22T07:43:05Z</time>
      </trkpt>
      <trkpt lat="44.4312" lon="1.5732">
        <ele>196</ele>
        <time>2026-03-22T07:43:06Z</time>
      </trkpt>
      <trkpt lat="44.4312" lon="1.57324">
        <ele>196.6</ele>
        <time>2026-03-22T07:43:07Z</time>
      </trkpt>
      <trkpt lat="44.43121" lon="1.57327">
        <ele>197</ele>
        <time>2026-03-22T07:43:08Z</time>
      </trkpt>
      <trkpt lat="44.43122" lon="1.57331">
        <ele>197.6</ele>
        <time>2026-03-22T07:43:09Z</time>
      </trkpt>
      <trkpt lat="44.43122" lon="1.57333">
        <ele>198</ele>
        <time>2026-03-22T07:43:10Z</time>
      </trkpt>
      <trkpt lat="44.43122" lon="1.57334">
        <ele>198.6</ele>
        <time>2026-03-22T07:43:11Z</time>
      </trkpt>
      <trkpt lat="44.43122" lon="1.57334">
        <ele>198.8</ele>
        <time>2026-03-22T07:43:12Z</time>
      </trkpt>
      <trkpt lat="44.43122" lon="1.57334">
        <ele>199.2</ele>
        <time>2026-03-22T07:43:13Z</time>
      </trkpt>
      <trkpt lat="44.43123" lon="1.57347">
        <ele>202.6</ele>
        <time>2026-03-22T07:43:35Z</time>
      </trkpt>
      <trkpt lat="44.43123" lon="1.57349">
        <ele>202.6</ele>
        <time>2026-03-22T07:43:36Z</time>
      </trkpt>
      <trkpt lat="44.43124" lon="1.57352">
        <ele>202.6</ele>
        <time>2026-03-22T07:43:37Z</time>
      </trkpt>
      <trkpt lat="44.43123" lon="1.57354">
        <ele>202.8</ele>
        <time>2026-03-22T07:43:38Z</time>
      </trkpt>
      <trkpt lat="44.43123" lon="1.57357">
        <ele>203</ele>
        <time>2026-03-22T07:43:39Z</time>
      </trkpt>
      <trkpt lat="44.43123" lon="1.57359">
        <ele>203</ele>
        <time>2026-03-22T07:43:40Z</time>
      </trkpt>
      <trkpt lat="44.43123" lon="1.57362">
        <ele>203.4</ele>
        <time>2026-03-22T07:43:41Z</time>
      </trkpt>
      <trkpt lat="44.43123" lon="1.57365">
        <ele>203.6</ele>
        <time>2026-03-22T07:43:42Z</time>
      </trkpt>
      <trkpt lat="44.43123" lon="1.57368">
        <ele>204</ele>
        <time>2026-03-22T07:43:43Z</time>
      </trkpt>
      <trkpt lat="44.43123" lon="1.5737">
        <ele>204.4</ele>
        <time>2026-03-22T07:43:44Z</time>
      </trkpt>
      <trkpt lat="44.43122" lon="1.57373">
        <ele>205</ele>
        <time>2026-03-22T07:43:45Z</time>
      </trkpt>
      <trkpt lat="44.43122" lon="1.57376">
        <ele>205.6</ele>
        <time>2026-03-22T07:43:46Z</time>
      </trkpt>
      <trkpt lat="44.43121" lon="1.57379">
        <ele>206.2</ele>
        <time>2026-03-22T07:43:47Z</time>
      </trkpt>
      <trkpt lat="44.4312" lon="1.57382">
        <ele>206.6</ele>
        <time>2026-03-22T07:43:48Z</time>
      </trkpt>
      <trkpt lat="44.43119" lon="1.57384">
        <ele>207.2</ele>
        <time>2026-03-22T07:43:49Z</time>
      </trkpt>
      <trkpt lat="44.43118" lon="1.57386">
        <ele>207.6</ele>
        <time>2026-03-22T07:43:50Z</time>
      </trkpt>
      <trkpt lat="44.43117" lon="1.57387">
        <ele>208</ele>
        <time>2026-03-22T07:43:51Z</time>
      </trkpt>
      <trkpt lat="44.43116" lon="1.57389">
        <ele>208.6</ele>
        <time>2026-03-22T07:43:52Z</time>
      </trkpt>
      <trkpt lat="44.43115" lon="1.57391">
        <ele>209</ele>
        <time>2026-03-22T07:43:53Z</time>
      </trkpt>
      <trkpt lat="44.43114" lon="1.57392">
        <ele>209.4</ele>
        <time>2026-03-22T07:43:54Z</time>
      </trkpt>
      <trkpt lat="44.43113" lon="1.57394">
        <ele>209.8</ele>
        <time>2026-03-22T07:43:55Z</time>
      </trkpt>
      <trkpt lat="44.43113" lon="1.57396">
        <ele>210</ele>
        <time>2026-03-22T07:43:56Z</time>
      </trkpt>
      <trkpt lat="44.43112" lon="1.57398">
        <ele>210.2</ele>
        <time>2026-03-22T07:43:57Z</time>
      </trkpt>
      <trkpt lat="44.43112" lon="1.574">
        <ele>210.4</ele>
        <time>2026-03-22T07:43:58Z</time>
      </trkpt>
      <trkpt lat="44.43112" lon="1.57403">
        <ele>210.6</ele>
        <time>2026-03-22T07:43:59Z</time>
      </trkpt>
      <trkpt lat="44.43112" lon="1.57405">
        <ele>210.8</ele>
        <time>2026-03-22T07:44:00Z</time>
      </trkpt>
      <trkpt lat="44.43111" lon="1.57408">
        <ele>210.8</ele>
        <time>2026-03-22T07:44:01Z</time>
      </trkpt>
      <trkpt lat="44.43111" lon="1.5741">
        <ele>211</ele>
        <time>2026-03-22T07:44:02Z</time>
      </trkpt>
      <trkpt lat="44.43111" lon="1.57412">
        <ele>211.2</ele>
        <time>2026-03-22T07:44:03Z</time>
      </trkpt>
      <trkpt lat="44.43111" lon="1.57414">
        <ele>211.4</ele>
        <time>2026-03-22T07:44:04Z</time>
      </trkpt>
      <trkpt lat="44.4311" lon="1.57416">
        <ele>211.6</ele>
        <time>2026-03-22T07:44:05Z</time>
      </trkpt>
      <trkpt lat="44.4311" lon="1.57418">
        <ele>211.8</ele>
        <time>2026-03-22T07:44:06Z</time>
      </trkpt>
      <trkpt lat="44.43109" lon="1.5742">
        <ele>212</ele>
        <time>2026-03-22T07:44:07Z</time>
      </trkpt>
      <trkpt lat="44.43108" lon="1.57422">
        <ele>212</ele>
        <time>2026-03-22T07:44:08Z</time>
      </trkpt>
      <trkpt lat="44.43107" lon="1.57424">
        <ele>212.2</ele>
        <time>2026-03-22T07:44:09Z</time>
      </trkpt>
      <trkpt lat="44.43107" lon="1.57425">
        <ele>212.4</ele>
        <time>2026-03-22T07:44:10Z</time>
      </trkpt>
      <trkpt lat="44.43106" lon="1.57427">
        <ele>212.6</ele>
        <time>2026-03-22T07:44:11Z</time>
      </trkpt>
      <trkpt lat="44.43106" lon="1.5743">
        <ele>212.8</ele>
        <time>2026-03-22T07:44:12Z</time>
      </trkpt>
      <trkpt lat="44.43105" lon="1.57433">
        <ele>213</ele>
        <time>2026-03-22T07:44:13Z</time>
      </trkpt>
      <trkpt lat="44.43105" lon="1.57436">
        <ele>213.2</ele>
        <time>2026-03-22T07:44:14Z</time>
      </trkpt>
      <trkpt lat="44.43106" lon="1.57438">
        <ele>213.4</ele>
        <time>2026-03-22T07:44:15Z</time>
      </trkpt>
      <trkpt lat="44.43107" lon="1.57441">
        <ele>213.4</ele>
        <time>2026-03-22T07:44:16Z</time>
      </trkpt>
      <trkpt lat="44.43108" lon="1.57443">
        <ele>213.6</ele>
        <time>2026-03-22T07:44:17Z</time>
      </trkpt>
      <trkpt lat="44.4311" lon="1.57445">
        <ele>213.8</ele>
        <time>2026-03-22T07:44:18Z</time>
      </trkpt>
      <trkpt lat="44.43112" lon="1.57446">
        <ele>214</ele>
        <time>2026-03-22T07:44:19Z</time>
      </trkpt>
      <trkpt lat="44.43114" lon="1.57446">
        <ele>214.2</ele>
        <time>2026-03-22T07:44:20Z</time>
      </trkpt>
      <trkpt lat="44.43116" lon="1.57447">
        <ele>214.4</ele>
        <time>2026-03-22T07:44:21Z</time>
      </trkpt>
      <trkpt lat="44.43119" lon="1.57446">
        <ele>214.6</ele>
        <time>2026-03-22T07:44:22Z</time>
      </trkpt>
      <trkpt lat="44.43121" lon="1.57445">
        <ele>215</ele>
        <time>2026-03-22T07:44:23Z</time>
      </trkpt>
      <trkpt lat="44.43123" lon="1.57444">
        <ele>215.2</ele>
        <time>2026-03-22T07:44:24Z</time>
      </trkpt>
      <trkpt lat="44.43125" lon="1.57443">
        <ele>215.8</ele>
        <time>2026-03-22T07:44:25Z</time>
      </trkpt>
      <trkpt lat="44.43128" lon="1.57442">
        <ele>216.2</ele>
        <time>2026-03-22T07:44:26Z</time>
      </trkpt>
      <trkpt lat="44.4313" lon="1.57441">
        <ele>216.8</ele>
        <time>2026-03-22T07:44:27Z</time>
      </trkpt>
      <trkpt lat="44.43132" lon="1.57442">
        <ele>217.2</ele>
        <time>2026-03-22T07:44:28Z</time>
      </trkpt>
      <trkpt lat="44.43134" lon="1.57443">
        <ele>217.8</ele>
        <time>2026-03-22T07:44:29Z</time>
      </trkpt>
      <trkpt lat="44.43137" lon="1.57443">
        <ele>218.2</ele>
        <time>2026-03-22T07:44:30Z</time>
      </trkpt>
      <trkpt lat="44.43139" lon="1.57443">
        <ele>218.6</ele>
        <time>2026-03-22T07:44:31Z</time>
      </trkpt>
      <trkpt lat="44.43141" lon="1.57444">
        <ele>219</ele>
        <time>2026-03-22T07:44:32Z</time>
      </trkpt>
      <trkpt lat="44.43143" lon="1.57444">
        <ele>219.4</ele>
        <time>2026-03-22T07:44:33Z</time>
      </trkpt>
      <trkpt lat="44.43145" lon="1.57445">
        <ele>219.6</ele>
        <time>2026-03-22T07:44:34Z</time>
      </trkpt>
      <trkpt lat="44.43147" lon="1.57446">
        <ele>220</ele>
        <time>2026-03-22T07:44:35Z</time>
      </trkpt>
      <trkpt lat="44.43148" lon="1.57448">
        <ele>220.4</ele>
        <time>2026-03-22T07:44:36Z</time>
      </trkpt>
      <trkpt lat="44.4315" lon="1.5745">
        <ele>220.8</ele>
        <time>2026-03-22T07:44:37Z</time>
      </trkpt>
      <trkpt lat="44.43151" lon="1.57452">
        <ele>221.4</ele>
        <time>2026-03-22T07:44:38Z</time>
      </trkpt>
      <trkpt lat="44.43152" lon="1.57454">
        <ele>221.8</ele>
        <time>2026-03-22T07:44:39Z</time>
      </trkpt>
      <trkpt lat="44.43154" lon="1.57456">
        <ele>222.4</ele>
        <time>2026-03-22T07:44:40Z</time>
      </trkpt>
      <trkpt lat="44.43155" lon="1.57458">
        <ele>222.6</ele>
        <time>2026-03-22T07:44:41Z</time>
      </trkpt>
      <trkpt lat="44.43157" lon="1.5746">
        <ele>223</ele>
        <time>2026-03-22T07:44:42Z</time>
      </trkpt>
      <trkpt lat="44.43159" lon="1.57462">
        <ele>223.4</ele>
        <time>2026-03-22T07:44:43Z</time>
      </trkpt>
      <trkpt lat="44.43161" lon="1.57463">
        <ele>223.8</ele>
        <time>2026-03-22T07:44:44Z</time>
      </trkpt>
      <trkpt lat="44.43163" lon="1.57463">
        <ele>224</ele>
        <time>2026-03-22T07:44:45Z</time>
      </trkpt>
      <trkpt lat="44.43165" lon="1.57463">
        <ele>224.4</ele>
        <time>2026-03-22T07:44:46Z</time>
      </trkpt>
      <trkpt lat="44.43167" lon="1.57463">
        <ele>224.6</ele>
        <time>2026-03-22T07:44:47Z</time>
      </trkpt>
      <trkpt lat="44.43169" lon="1.57463">
        <ele>225.2</ele>
        <time>2026-03-22T07:44:48Z</time>
      </trkpt>
      <trkpt lat="44.43171" lon="1.57463">
        <ele>225.8</ele>
        <time>2026-03-22T07:44:49Z</time>
      </trkpt>
      <trkpt lat="44.43172" lon="1.57463">
        <ele>226.2</ele>
        <time>2026-03-22T07:44:50Z</time>
      </trkpt>
      <trkpt lat="44.43175" lon="1.57463">
        <ele>226.6</ele>
        <time>2026-03-22T07:44:51Z</time>
      </trkpt>
      <trkpt lat="44.43177" lon="1.57464">
        <ele>227</ele>
        <time>2026-03-22T07:44:52Z</time>
      </trkpt>
      <trkpt lat="44.43179" lon="1.57464">
        <ele>227.2</ele>
        <time>2026-03-22T07:44:53Z</time>
      </trkpt>
      <trkpt lat="44.43181" lon="1.57465">
        <ele>227.6</ele>
        <time>2026-03-22T07:44:54Z</time>
      </trkpt>
      <trkpt lat="44.43183" lon="1.57466">
        <ele>228</ele>
        <time>2026-03-22T07:44:55Z</time>
      </trkpt>
      <trkpt lat="44.43184" lon="1.57468">
        <ele>228.2</ele>
        <time>2026-03-22T07:44:56Z</time>
      </trkpt>
      <trkpt lat="44.43186" lon="1.57469">
        <ele>228.6</ele>
        <time>2026-03-22T07:44:57Z</time>
      </trkpt>
      <trkpt lat="44.43188" lon="1.5747">
        <ele>228.8</ele>
        <time>2026-03-22T07:44:58Z</time>
      </trkpt>
      <trkpt lat="44.4319" lon="1.5747">
        <ele>229.2</ele>
        <time>2026-03-22T07:44:59Z</time>
      </trkpt>
      <trkpt lat="44.43192" lon="1.5747">
        <ele>229.6</ele>
        <time>2026-03-22T07:45:00Z</time>
      </trkpt>
      <trkpt lat="44.43194" lon="1.5747">
        <ele>229.8</ele>
        <time>2026-03-22T07:45:01Z</time>
      </trkpt>
      <trkpt lat="44.43195" lon="1.57468">
        <ele>230.2</ele>
        <time>2026-03-22T07:45:02Z</time>
      </trkpt>
      <trkpt lat="44.43197" lon="1.57467">
        <ele>230.4</ele>
        <time>2026-03-22T07:45:03Z</time>
      </trkpt>
      <trkpt lat="44.43198" lon="1.57465">
        <ele>230.8</ele>
        <time>2026-03-22T07:45:04Z</time>
      </trkpt>
      <trkpt lat="44.43199" lon="1.57463">
        <ele>231</ele>
        <time>2026-03-22T07:45:05Z</time>
      </trkpt>
      <trkpt lat="44.432" lon="1.5746">
        <ele>231.4</ele>
        <time>2026-03-22T07:45:06Z</time>
      </trkpt>
      <trkpt lat="44.432" lon="1.57458">
        <ele>231.6</ele>
        <time>2026-03-22T07:45:07Z</time>
      </trkpt>
      <trkpt lat="44.43201" lon="1.57455">
        <ele>232</ele>
        <time>2026-03-22T07:45:08Z</time>
      </trkpt>
      <trkpt lat="44.43201" lon="1.57452">
        <ele>232.2</ele>
        <time>2026-03-22T07:45:09Z</time>
      </trkpt>
      <trkpt lat="44.43201" lon="1.57449">
        <ele>232.6</ele>
        <time>2026-03-22T07:45:10Z</time>
      </trkpt>
      <trkpt lat="44.43202" lon="1.57446">
        <ele>232.6</ele>
        <time>2026-03-22T07:45:11Z</time>
      </trkpt>
      <trkpt lat="44.43203" lon="1.57443">
        <ele>232.8</ele>
        <time>2026-03-22T07:45:12Z</time>
      </trkpt>
      <trkpt lat="44.43204" lon="1.5744">
        <ele>233</ele>
        <time>2026-03-22T07:45:13Z</time>
      </trkpt>
      <trkpt lat="44.43204" lon="1.57436">
        <ele>233.2</ele>
        <time>2026-03-22T07:45:14Z</time>
      </trkpt>
      <trkpt lat="44.43205" lon="1.57433">
        <ele>233.4</ele>
        <time>2026-03-22T07:45:15Z</time>
      </trkpt>
      <trkpt lat="44.43205" lon="1.5743">
        <ele>233.4</ele>
        <time>2026-03-22T07:45:16Z</time>
      </trkpt>
      <trkpt lat="44.43206" lon="1.57426">
        <ele>233.4</ele>
        <time>2026-03-22T07:45:17Z</time>
      </trkpt>
      <trkpt lat="44.43207" lon="1.57423">
        <ele>233.6</ele>
        <time>2026-03-22T07:45:18Z</time>
      </trkpt>
      <trkpt lat="44.43208" lon="1.5742">
        <ele>233.8</ele>
        <time>2026-03-22T07:45:19Z</time>
      </trkpt>
      <trkpt lat="44.43208" lon="1.57417">
        <ele>233.8</ele>
        <time>2026-03-22T07:45:20Z</time>
      </trkpt>
      <trkpt lat="44.43209" lon="1.57414">
        <ele>234</ele>
        <time>2026-03-22T07:45:21Z</time>
      </trkpt>
      <trkpt lat="44.4321" lon="1.57411">
        <ele>234</ele>
        <time>2026-03-22T07:45:22Z</time>
      </trkpt>
      <trkpt lat="44.43212" lon="1.57408">
        <ele>234</ele>
        <time>2026-03-22T07:45:23Z</time>
      </trkpt>
      <trkpt lat="44.43212" lon="1.57404">
        <ele>234</ele>
        <time>2026-03-22T07:45:24Z</time>
      </trkpt>
      <trkpt lat="44.43212" lon="1.57401">
        <ele>234.2</ele>
        <time>2026-03-22T07:45:25Z</time>
      </trkpt>
      <trkpt lat="44.43212" lon="1.57397">
        <ele>234.2</ele>
        <time>2026-03-22T07:45:26Z</time>
      </trkpt>
      <trkpt lat="44.43211" lon="1.57393">
        <ele>234.2</ele>
        <time>2026-03-22T07:45:27Z</time>
      </trkpt>
      <trkpt lat="44.43211" lon="1.57389">
        <ele>234.2</ele>
        <time>2026-03-22T07:45:28Z</time>
      </trkpt>
      <trkpt lat="44.43211" lon="1.57385">
        <ele>234.2</ele>
        <time>2026-03-22T07:45:29Z</time>
      </trkpt>
      <trkpt lat="44.43212" lon="1.57381">
        <ele>234.2</ele>
        <time>2026-03-22T07:45:30Z</time>
      </trkpt>
      <trkpt lat="44.43213" lon="1.57376">
        <ele>234.2</ele>
        <time>2026-03-22T07:45:31Z</time>
      </trkpt>
      <trkpt lat="44.43213" lon="1.57371">
        <ele>234.2</ele>
        <time>2026-03-22T07:45:32Z</time>
      </trkpt>
      <trkpt lat="44.43212" lon="1.57365">
        <ele>234.2</ele>
        <time>2026-03-22T07:45:33Z</time>
      </trkpt>
      <trkpt lat="44.43212" lon="1.57359">
        <ele>234.2</ele>
        <time>2026-03-22T07:45:34Z</time>
      </trkpt>
      <trkpt lat="44.43211" lon="1.57352">
        <ele>234.2</ele>
        <time>2026-03-22T07:45:35Z</time>
      </trkpt>
      <trkpt lat="44.43212" lon="1.57346">
        <ele>234.2</ele>
        <time>2026-03-22T07:45:36Z</time>
      </trkpt>
      <trkpt lat="44.43212" lon="1.57339">
        <ele>234</ele>
        <time>2026-03-22T07:45:37Z</time>
      </trkpt>
      <trkpt lat="44.43212" lon="1.57332">
        <ele>234</ele>
        <time>2026-03-22T07:45:38Z</time>
      </trkpt>
      <trkpt lat="44.43212" lon="1.57316">
        <ele>233.4</ele>
        <time>2026-03-22T07:45:40Z</time>
      </trkpt>
      <trkpt lat="44.43213" lon="1.573">
        <ele>233</ele>
        <time>2026-03-22T07:45:42Z</time>
      </trkpt>
      <trkpt lat="44.43215" lon="1.57293">
        <ele>232.6</ele>
        <time>2026-03-22T07:45:43Z</time>
      </trkpt>
      <trkpt lat="44.43217" lon="1.57286">
        <ele>232.4</ele>
        <time>2026-03-22T07:45:44Z</time>
      </trkpt>
      <trkpt lat="44.43219" lon="1.5728">
        <ele>232</ele>
        <time>2026-03-22T07:45:45Z</time>
      </trkpt>
      <trkpt lat="44.43222" lon="1.57274">
        <ele>231.6</ele>
        <time>2026-03-22T07:45:46Z</time>
      </trkpt>
      <trkpt lat="44.43224" lon="1.57271">
        <ele>231.2</ele>
        <time>2026-03-22T07:45:47Z</time>
      </trkpt>
      <trkpt lat="44.43226" lon="1.57267">
        <ele>231</ele>
        <time>2026-03-22T07:45:48Z</time>
      </trkpt>
      <trkpt lat="44.43229" lon="1.57265">
        <ele>230.8</ele>
        <time>2026-03-22T07:45:49Z</time>
      </trkpt>
      <trkpt lat="44.43231" lon="1.57262">
        <ele>230.8</ele>
        <time>2026-03-22T07:45:50Z</time>
      </trkpt>
      <trkpt lat="44.43232" lon="1.57259">
        <ele>230.6</ele>
        <time>2026-03-22T07:45:51Z</time>
      </trkpt>
      <trkpt lat="44.43233" lon="1.57255">
        <ele>230.6</ele>
        <time>2026-03-22T07:45:52Z</time>
      </trkpt>
      <trkpt lat="44.43237" lon="1.57245">
        <ele>230.6</ele>
        <time>2026-03-22T07:45:54Z</time>
      </trkpt>
      <trkpt lat="44.43242" lon="1.57236">
        <ele>230.6</ele>
        <time>2026-03-22T07:45:56Z</time>
      </trkpt>
      <trkpt lat="44.43245" lon="1.57232">
        <ele>230.6</ele>
        <time>2026-03-22T07:45:57Z</time>
      </trkpt>
      <trkpt lat="44.43247" lon="1.57228">
        <ele>230.6</ele>
        <time>2026-03-22T07:45:58Z</time>
      </trkpt>
      <trkpt lat="44.43249" lon="1.57225">
        <ele>230.6</ele>
        <time>2026-03-22T07:45:59Z</time>
      </trkpt>
      <trkpt lat="44.43251" lon="1.57221">
        <ele>230.6</ele>
        <time>2026-03-22T07:46:00Z</time>
      </trkpt>
      <trkpt lat="44.43253" lon="1.57218">
        <ele>230.6</ele>
        <time>2026-03-22T07:46:01Z</time>
      </trkpt>
      <trkpt lat="44.43255" lon="1.57217">
        <ele>230.6</ele>
        <time>2026-03-22T07:46:02Z</time>
      </trkpt>
      <trkpt lat="44.43258" lon="1.57217">
        <ele>230.6</ele>
        <time>2026-03-22T07:46:03Z</time>
      </trkpt>
      <trkpt lat="44.4326" lon="1.57219">
        <ele>230.6</ele>
        <time>2026-03-22T07:46:04Z</time>
      </trkpt>
      <trkpt lat="44.43262" lon="1.57222">
        <ele>230.6</ele>
        <time>2026-03-22T07:46:05Z</time>
      </trkpt>
      <trkpt lat="44.43263" lon="1.5724">
        <ele>230.8</ele>
        <time>2026-03-22T07:46:09Z</time>
      </trkpt>
      <trkpt lat="44.43262" lon="1.5726">
        <ele>231.4</ele>
        <time>2026-03-22T07:46:13Z</time>
      </trkpt>
      <trkpt lat="44.43262" lon="1.57265">
        <ele>231.6</ele>
        <time>2026-03-22T07:46:14Z</time>
      </trkpt>
      <trkpt lat="44.43264" lon="1.57269">
        <ele>231.8</ele>
        <time>2026-03-22T07:46:15Z</time>
      </trkpt>
      <trkpt lat="44.43266" lon="1.57273">
        <ele>232</ele>
        <time>2026-03-22T07:46:16Z</time>
      </trkpt>
      <trkpt lat="44.43268" lon="1.57276">
        <ele>232.2</ele>
        <time>2026-03-22T07:46:17Z</time>
      </trkpt>
      <trkpt lat="44.43271" lon="1.57278">
        <ele>232.4</ele>
        <time>2026-03-22T07:46:18Z</time>
      </trkpt>
      <trkpt lat="44.43274" lon="1.5728">
        <ele>232.8</ele>
        <time>2026-03-22T07:46:19Z</time>
      </trkpt>
      <trkpt lat="44.43276" lon="1.57281">
        <ele>233</ele>
        <time>2026-03-22T07:46:20Z</time>
      </trkpt>
      <trkpt lat="44.43279" lon="1.57283">
        <ele>233.2</ele>
        <time>2026-03-22T07:46:21Z</time>
      </trkpt>
      <trkpt lat="44.43282" lon="1.57284">
        <ele>233.4</ele>
        <time>2026-03-22T07:46:22Z</time>
      </trkpt>
      <trkpt lat="44.43284" lon="1.57287">
        <ele>233.8</ele>
        <time>2026-03-22T07:46:23Z</time>
      </trkpt>
      <trkpt lat="44.43287" lon="1.57288">
        <ele>234</ele>
        <time>2026-03-22T07:46:24Z</time>
      </trkpt>
      <trkpt lat="44.43289" lon="1.5729">
        <ele>234.2</ele>
        <time>2026-03-22T07:46:25Z</time>
      </trkpt>
      <trkpt lat="44.43291" lon="1.57292">
        <ele>234.4</ele>
        <time>2026-03-22T07:46:26Z</time>
      </trkpt>
      <trkpt lat="44.43293" lon="1.57295">
        <ele>234.6</ele>
        <time>2026-03-22T07:46:27Z</time>
      </trkpt>
      <trkpt lat="44.43295" lon="1.57296">
        <ele>234.8</ele>
        <time>2026-03-22T07:46:28Z</time>
      </trkpt>
      <trkpt lat="44.43298" lon="1.57299">
        <ele>235</ele>
        <time>2026-03-22T07:46:29Z</time>
      </trkpt>
      <trkpt lat="44.43301" lon="1.57302">
        <ele>235.2</ele>
        <time>2026-03-22T07:46:30Z</time>
      </trkpt>
      <trkpt lat="44.43303" lon="1.57305">
        <ele>235.6</ele>
        <time>2026-03-22T07:46:31Z</time>
      </trkpt>
      <trkpt lat="44.43305" lon="1.57309">
        <ele>235.6</ele>
        <time>2026-03-22T07:46:32Z</time>
      </trkpt>
      <trkpt lat="44.43309" lon="1.57314">
        <ele>235.8</ele>
        <time>2026-03-22T07:46:33Z</time>
      </trkpt>
      <trkpt lat="44.43311" lon="1.57318">
        <ele>236</ele>
        <time>2026-03-22T07:46:34Z</time>
      </trkpt>
      <trkpt lat="44.43314" lon="1.57324">
        <ele>236.2</ele>
        <time>2026-03-22T07:46:35Z</time>
      </trkpt>
      <trkpt lat="44.43316" lon="1.57329">
        <ele>236.8</ele>
        <time>2026-03-22T07:46:36Z</time>
      </trkpt>
      <trkpt lat="44.43318" lon="1.57335">
        <ele>237</ele>
        <time>2026-03-22T07:46:37Z</time>
      </trkpt>
      <trkpt lat="44.4332" lon="1.5734">
        <ele>237.2</ele>
        <time>2026-03-22T07:46:38Z</time>
      </trkpt>
      <trkpt lat="44.43321" lon="1.57347">
        <ele>237.2</ele>
        <time>2026-03-22T07:46:39Z</time>
      </trkpt>
      <trkpt lat="44.43323" lon="1.57353">
        <ele>237.6</ele>
        <time>2026-03-22T07:46:40Z</time>
      </trkpt>
      <trkpt lat="44.43324" lon="1.57358">
        <ele>238</ele>
        <time>2026-03-22T07:46:41Z</time>
      </trkpt>
      <trkpt lat="44.43326" lon="1.57363">
        <ele>238.2</ele>
        <time>2026-03-22T07:46:42Z</time>
      </trkpt>
      <trkpt lat="44.43327" lon="1.5737">
        <ele>238.4</ele>
        <time>2026-03-22T07:46:43Z</time>
      </trkpt>
      <trkpt lat="44.43328" lon="1.57376">
        <ele>238.8</ele>
        <time>2026-03-22T07:46:44Z</time>
      </trkpt>
      <trkpt lat="44.43329" lon="1.57383">
        <ele>239.2</ele>
        <time>2026-03-22T07:46:45Z</time>
      </trkpt>
      <trkpt lat="44.4333" lon="1.57389">
        <ele>239.2</ele>
        <time>2026-03-22T07:46:46Z</time>
      </trkpt>
      <trkpt lat="44.43331" lon="1.57394">
        <ele>239.4</ele>
        <time>2026-03-22T07:46:47Z</time>
      </trkpt>
      <trkpt lat="44.43332" lon="1.57399">
        <ele>239.6</ele>
        <time>2026-03-22T07:46:48Z</time>
      </trkpt>
      <trkpt lat="44.43333" lon="1.57403">
        <ele>240</ele>
        <time>2026-03-22T07:46:49Z</time>
      </trkpt>
      <trkpt lat="44.43334" lon="1.57407">
        <ele>240.2</ele>
        <time>2026-03-22T07:46:50Z</time>
      </trkpt>
      <trkpt lat="44.43335" lon="1.57412">
        <ele>240.4</ele>
        <time>2026-03-22T07:46:51Z</time>
      </trkpt>
      <trkpt lat="44.43336" lon="1.57417">
        <ele>240.4</ele>
        <time>2026-03-22T07:46:52Z</time>
      </trkpt>
      <trkpt lat="44.43338" lon="1.57422">
        <ele>240.6</ele>
        <time>2026-03-22T07:46:53Z</time>
      </trkpt>
      <trkpt lat="44.43339" lon="1.57427">
        <ele>240.8</ele>
        <time>2026-03-22T07:46:54Z</time>
      </trkpt>
      <trkpt lat="44.4334" lon="1.57433">
        <ele>241.2</ele>
        <time>2026-03-22T07:46:55Z</time>
      </trkpt>
      <trkpt lat="44.43341" lon="1.57438">
        <ele>241.2</ele>
        <time>2026-03-22T07:46:56Z</time>
      </trkpt>
      <trkpt lat="44.43342" lon="1.57444">
        <ele>241.4</ele>
        <time>2026-03-22T07:46:57Z</time>
      </trkpt>
      <trkpt lat="44.43343" lon="1.5745">
        <ele>241.4</ele>
        <time>2026-03-22T07:46:58Z</time>
      </trkpt>
      <trkpt lat="44.43344" lon="1.57456">
        <ele>241.4</ele>
        <time>2026-03-22T07:46:59Z</time>
      </trkpt>
      <trkpt lat="44.43345" lon="1.57463">
        <ele>241.6</ele>
        <time>2026-03-22T07:47:00Z</time>
      </trkpt>
      <trkpt lat="44.43347" lon="1.57469">
        <ele>241.6</ele>
        <time>2026-03-22T07:47:01Z</time>
      </trkpt>
      <trkpt lat="44.43348" lon="1.57475">
        <ele>241.6</ele>
        <time>2026-03-22T07:47:02Z</time>
      </trkpt>
      <trkpt lat="44.43349" lon="1.57482">
        <ele>241.6</ele>
        <time>2026-03-22T07:47:03Z</time>
      </trkpt>
      <trkpt lat="44.43349" lon="1.57489">
        <ele>241.6</ele>
        <time>2026-03-22T07:47:04Z</time>
      </trkpt>
      <trkpt lat="44.4335" lon="1.57497">
        <ele>241.8</ele>
        <time>2026-03-22T07:47:05Z</time>
      </trkpt>
      <trkpt lat="44.4335" lon="1.57505">
        <ele>241.8</ele>
        <time>2026-03-22T07:47:06Z</time>
      </trkpt>
      <trkpt lat="44.43351" lon="1.57512">
        <ele>242</ele>
        <time>2026-03-22T07:47:07Z</time>
      </trkpt>
      <trkpt lat="44.43351" lon="1.5752">
        <ele>242</ele>
        <time>2026-03-22T07:47:08Z</time>
      </trkpt>
      <trkpt lat="44.43351" lon="1.57528">
        <ele>242</ele>
        <time>2026-03-22T07:47:09Z</time>
      </trkpt>
      <trkpt lat="44.4335" lon="1.57535">
        <ele>242</ele>
        <time>2026-03-22T07:47:10Z</time>
      </trkpt>
      <trkpt lat="44.4335" lon="1.57541">
        <ele>242.2</ele>
        <time>2026-03-22T07:47:11Z</time>
      </trkpt>
      <trkpt lat="44.4335" lon="1.57548">
        <ele>242.4</ele>
        <time>2026-03-22T07:47:12Z</time>
      </trkpt>
      <trkpt lat="44.43349" lon="1.57556">
        <ele>242.4</ele>
        <time>2026-03-22T07:47:13Z</time>
      </trkpt>
      <trkpt lat="44.43348" lon="1.57564">
        <ele>242.6</ele>
        <time>2026-03-22T07:47:14Z</time>
      </trkpt>
      <trkpt lat="44.43348" lon="1.5757">
        <ele>242.8</ele>
        <time>2026-03-22T07:47:15Z</time>
      </trkpt>
      <trkpt lat="44.43347" lon="1.57577">
        <ele>243</ele>
        <time>2026-03-22T07:47:16Z</time>
      </trkpt>
      <trkpt lat="44.43346" lon="1.57584">
        <ele>243.2</ele>
        <time>2026-03-22T07:47:17Z</time>
      </trkpt>
      <trkpt lat="44.43346" lon="1.57591">
        <ele>243.4</ele>
        <time>2026-03-22T07:47:18Z</time>
      </trkpt>
      <trkpt lat="44.43346" lon="1.57597">
        <ele>243.8</ele>
        <time>2026-03-22T07:47:19Z</time>
      </trkpt>
      <trkpt lat="44.43346" lon="1.57602">
        <ele>244.2</ele>
        <time>2026-03-22T07:47:20Z</time>
      </trkpt>
      <trkpt lat="44.43345" lon="1.57608">
        <ele>244.6</ele>
        <time>2026-03-22T07:47:21Z</time>
      </trkpt>
      <trkpt lat="44.43345" lon="1.57613">
        <ele>244.8</ele>
        <time>2026-03-22T07:47:22Z</time>
      </trkpt>
      <trkpt lat="44.43345" lon="1.57618">
        <ele>244.8</ele>
        <time>2026-03-22T07:47:23Z</time>
      </trkpt>
      <trkpt lat="44.43345" lon="1.57623">
        <ele>245.2</ele>
        <time>2026-03-22T07:47:24Z</time>
      </trkpt>
      <trkpt lat="44.43345" lon="1.57628">
        <ele>245.6</ele>
        <time>2026-03-22T07:47:25Z</time>
      </trkpt>
      <trkpt lat="44.43345" lon="1.57633">
        <ele>245.8</ele>
        <time>2026-03-22T07:47:26Z</time>
      </trkpt>
      <trkpt lat="44.43345" lon="1.57638">
        <ele>246</ele>
        <time>2026-03-22T07:47:27Z</time>
      </trkpt>
      <trkpt lat="44.43344" lon="1.57643">
        <ele>246</ele>
        <time>2026-03-22T07:47:28Z</time>
      </trkpt>
      <trkpt lat="44.43344" lon="1.57648">
        <ele>246.2</ele>
        <time>2026-03-22T07:47:29Z</time>
      </trkpt>
      <trkpt lat="44.43343" lon="1.57653">
        <ele>246.2</ele>
        <time>2026-03-22T07:47:30Z</time>
      </trkpt>
      <trkpt lat="44.43341" lon="1.57658">
        <ele>246.4</ele>
        <time>2026-03-22T07:47:31Z</time>
      </trkpt>
      <trkpt lat="44.4334" lon="1.57663">
        <ele>246.4</ele>
        <time>2026-03-22T07:47:32Z</time>
      </trkpt>
      <trkpt lat="44.43339" lon="1.57668">
        <ele>246.4</ele>
        <time>2026-03-22T07:47:33Z</time>
      </trkpt>
      <trkpt lat="44.43338" lon="1.57673">
        <ele>246.4</ele>
        <time>2026-03-22T07:47:34Z</time>
      </trkpt>
      <trkpt lat="44.43336" lon="1.57678">
        <ele>246.6</ele>
        <time>2026-03-22T07:47:35Z</time>
      </trkpt>
      <trkpt lat="44.43334" lon="1.57684">
        <ele>246.6</ele>
        <time>2026-03-22T07:47:36Z</time>
      </trkpt>
      <trkpt lat="44.43332" lon="1.5769">
        <ele>246.8</ele>
        <time>2026-03-22T07:47:37Z</time>
      </trkpt>
      <trkpt lat="44.4333" lon="1.57696">
        <ele>246.8</ele>
        <time>2026-03-22T07:47:38Z</time>
      </trkpt>
      <trkpt lat="44.43327" lon="1.57703">
        <ele>247</ele>
        <time>2026-03-22T07:47:39Z</time>
      </trkpt>
      <trkpt lat="44.43323" lon="1.5771">
        <ele>247</ele>
        <time>2026-03-22T07:47:40Z</time>
      </trkpt>
      <trkpt lat="44.4332" lon="1.57716">
        <ele>247</ele>
        <time>2026-03-22T07:47:41Z</time>
      </trkpt>
      <trkpt lat="44.43316" lon="1.57722">
        <ele>247.2</ele>
        <time>2026-03-22T07:47:42Z</time>
      </trkpt>
      <trkpt lat="44.43313" lon="1.57729">
        <ele>247.4</ele>
        <time>2026-03-22T07:47:43Z</time>
      </trkpt>
      <trkpt lat="44.4331" lon="1.57736">
        <ele>247.6</ele>
        <time>2026-03-22T07:47:44Z</time>
      </trkpt>
      <trkpt lat="44.43307" lon="1.57743">
        <ele>247.6</ele>
        <time>2026-03-22T07:47:45Z</time>
      </trkpt>
      <trkpt lat="44.43304" lon="1.5775">
        <ele>247.8</ele>
        <time>2026-03-22T07:47:46Z</time>
      </trkpt>
      <trkpt lat="44.43301" lon="1.57756">
        <ele>248</ele>
        <time>2026-03-22T07:47:47Z</time>
      </trkpt>
      <trkpt lat="44.43298" lon="1.57763">
        <ele>248</ele>
        <time>2026-03-22T07:47:48Z</time>
      </trkpt>
      <trkpt lat="44.43295" lon="1.5777">
        <ele>248.2</ele>
        <time>2026-03-22T07:47:49Z</time>
      </trkpt>
      <trkpt lat="44.43293" lon="1.57777">
        <ele>248.2</ele>
        <time>2026-03-22T07:47:50Z</time>
      </trkpt>
      <trkpt lat="44.43291" lon="1.57785">
        <ele>248.2</ele>
        <time>2026-03-22T07:47:51Z</time>
      </trkpt>
      <trkpt lat="44.4329" lon="1.57793">
        <ele>248.4</ele>
        <time>2026-03-22T07:47:52Z</time>
      </trkpt>
      <trkpt lat="44.43289" lon="1.578">
        <ele>248.6</ele>
        <time>2026-03-22T07:47:53Z</time>
      </trkpt>
      <trkpt lat="44.43288" lon="1.57806">
        <ele>248.8</ele>
        <time>2026-03-22T07:47:54Z</time>
      </trkpt>
      <trkpt lat="44.43286" lon="1.57814">
        <ele>248.8</ele>
        <time>2026-03-22T07:47:55Z</time>
      </trkpt>
      <trkpt lat="44.43284" lon="1.57822">
        <ele>249</ele>
        <time>2026-03-22T07:47:56Z</time>
      </trkpt>
      <trkpt lat="44.43283" lon="1.57828">
        <ele>249.2</ele>
        <time>2026-03-22T07:47:57Z</time>
      </trkpt>
      <trkpt lat="44.43281" lon="1.57835">
        <ele>249.2</ele>
        <time>2026-03-22T07:47:58Z</time>
      </trkpt>
      <trkpt lat="44.4328" lon="1.57842">
        <ele>249.2</ele>
        <time>2026-03-22T07:47:59Z</time>
      </trkpt>
      <trkpt lat="44.43279" lon="1.57849">
        <ele>249.4</ele>
        <time>2026-03-22T07:48:00Z</time>
      </trkpt>
      <trkpt lat="44.43277" lon="1.57856">
        <ele>249.4</ele>
        <time>2026-03-22T07:48:01Z</time>
      </trkpt>
      <trkpt lat="44.43275" lon="1.57863">
        <ele>249.4</ele>
        <time>2026-03-22T07:48:02Z</time>
      </trkpt>
      <trkpt lat="44.43274" lon="1.5787">
        <ele>249.4</ele>
        <time>2026-03-22T07:48:03Z</time>
      </trkpt>
      <trkpt lat="44.43272" lon="1.57876">
        <ele>249.4</ele>
        <time>2026-03-22T07:48:04Z</time>
      </trkpt>
      <trkpt lat="44.4327" lon="1.57883">
        <ele>249.6</ele>
        <time>2026-03-22T07:48:05Z</time>
      </trkpt>
      <trkpt lat="44.43269" lon="1.57889">
        <ele>249.6</ele>
        <time>2026-03-22T07:48:06Z</time>
      </trkpt>
      <trkpt lat="44.43267" lon="1.57896">
        <ele>249.8</ele>
        <time>2026-03-22T07:48:07Z</time>
      </trkpt>
      <trkpt lat="44.43266" lon="1.57903">
        <ele>249.8</ele>
        <time>2026-03-22T07:48:08Z</time>
      </trkpt>
      <trkpt lat="44.43265" lon="1.5791">
        <ele>249.8</ele>
        <time>2026-03-22T07:48:09Z</time>
      </trkpt>
      <trkpt lat="44.43262" lon="1.57916">
        <ele>250</ele>
        <time>2026-03-22T07:48:10Z</time>
      </trkpt>
      <trkpt lat="44.43257" lon="1.57928">
        <ele>250.2</ele>
        <time>2026-03-22T07:48:12Z</time>
      </trkpt>
      <trkpt lat="44.43254" lon="1.57934">
        <ele>250.2</ele>
        <time>2026-03-22T07:48:13Z</time>
      </trkpt>
      <trkpt lat="44.43236" lon="1.57957">
        <ele>250.4</ele>
        <time>2026-03-22T07:48:18Z</time>
      </trkpt>
      <trkpt lat="44.43233" lon="1.57962">
        <ele>250.4</ele>
        <time>2026-03-22T07:48:19Z</time>
      </trkpt>
      <trkpt lat="44.4323" lon="1.57967">
        <ele>250.4</ele>
        <time>2026-03-22T07:48:20Z</time>
      </trkpt>
      <trkpt lat="44.43226" lon="1.57971">
        <ele>250.4</ele>
        <time>2026-03-22T07:48:21Z</time>
      </trkpt>
      <trkpt lat="44.43223" lon="1.57977">
        <ele>250.6</ele>
        <time>2026-03-22T07:48:22Z</time>
      </trkpt>
      <trkpt lat="44.43221" lon="1.57982">
        <ele>250.6</ele>
        <time>2026-03-22T07:48:23Z</time>
      </trkpt>
      <trkpt lat="44.43217" lon="1.57992">
        <ele>250.8</ele>
        <time>2026-03-22T07:48:25Z</time>
      </trkpt>
      <trkpt lat="44.4321" lon="1.58021">
        <ele>251.4</ele>
        <time>2026-03-22T07:48:29Z</time>
      </trkpt>
      <trkpt lat="44.43208" lon="1.58029">
        <ele>251.6</ele>
        <time>2026-03-22T07:48:30Z</time>
      </trkpt>
      <trkpt lat="44.43202" lon="1.58051">
        <ele>252</ele>
        <time>2026-03-22T07:48:33Z</time>
      </trkpt>
      <trkpt lat="44.43199" lon="1.58068">
        <ele>252.2</ele>
        <time>2026-03-22T07:48:35Z</time>
      </trkpt>
      <trkpt lat="44.43195" lon="1.58101">
        <ele>252.4</ele>
        <time>2026-03-22T07:48:39Z</time>
      </trkpt>
      <trkpt lat="44.43191" lon="1.58124">
        <ele>252.6</ele>
        <time>2026-03-22T07:48:42Z</time>
      </trkpt>
      <trkpt lat="44.43188" lon="1.58139">
        <ele>252.6</ele>
        <time>2026-03-22T07:48:44Z</time>
      </trkpt>
      <trkpt lat="44.43187" lon="1.58147">
        <ele>252.6</ele>
        <time>2026-03-22T07:48:45Z</time>
      </trkpt>
      <trkpt lat="44.43186" lon="1.58154">
        <ele>252.6</ele>
        <time>2026-03-22T07:48:46Z</time>
      </trkpt>
      <trkpt lat="44.43186" lon="1.58161">
        <ele>252.8</ele>
        <time>2026-03-22T07:48:47Z</time>
      </trkpt>
      <trkpt lat="44.43185" lon="1.58168">
        <ele>252.6</ele>
        <time>2026-03-22T07:48:48Z</time>
      </trkpt>
      <trkpt lat="44.43185" lon="1.58175">
        <ele>252.6</ele>
        <time>2026-03-22T07:48:49Z</time>
      </trkpt>
      <trkpt lat="44.43185" lon="1.58182">
        <ele>253</ele>
        <time>2026-03-22T07:48:50Z</time>
      </trkpt>
      <trkpt lat="44.43185" lon="1.58188">
        <ele>253</ele>
        <time>2026-03-22T07:48:51Z</time>
      </trkpt>
      <trkpt lat="44.43185" lon="1.58193">
        <ele>252.8</ele>
        <time>2026-03-22T07:48:52Z</time>
      </trkpt>
      <trkpt lat="44.43185" lon="1.582">
        <ele>253</ele>
        <time>2026-03-22T07:48:53Z</time>
      </trkpt>
      <trkpt lat="44.43185" lon="1.58226">
        <ele>253.2</ele>
        <time>2026-03-22T07:48:57Z</time>
      </trkpt>
      <trkpt lat="44.43185" lon="1.58239">
        <ele>253.4</ele>
        <time>2026-03-22T07:48:59Z</time>
      </trkpt>
      <trkpt lat="44.43185" lon="1.58245">
        <ele>253.4</ele>
        <time>2026-03-22T07:49:00Z</time>
      </trkpt>
      <trkpt lat="44.43182" lon="1.58279">
        <ele>253.8</ele>
        <time>2026-03-22T07:49:05Z</time>
      </trkpt>
      <trkpt lat="44.43181" lon="1.58294">
        <ele>254</ele>
        <time>2026-03-22T07:49:07Z</time>
      </trkpt>
      <trkpt lat="44.4318" lon="1.58301">
        <ele>254.2</ele>
        <time>2026-03-22T07:49:08Z</time>
      </trkpt>
      <trkpt lat="44.4318" lon="1.58309">
        <ele>254.4</ele>
        <time>2026-03-22T07:49:09Z</time>
      </trkpt>
      <trkpt lat="44.43179" lon="1.58325">
        <ele>254.4</ele>
        <time>2026-03-22T07:49:11Z</time>
      </trkpt>
      <trkpt lat="44.43177" lon="1.58348">
        <ele>254.8</ele>
        <time>2026-03-22T07:49:14Z</time>
      </trkpt>
      <trkpt lat="44.43175" lon="1.58364">
        <ele>255.6</ele>
        <time>2026-03-22T07:49:16Z</time>
      </trkpt>
      <trkpt lat="44.43173" lon="1.58394">
        <ele>256.6</ele>
        <time>2026-03-22T07:49:20Z</time>
      </trkpt>
      <trkpt lat="44.43173" lon="1.58401">
        <ele>256.8</ele>
        <time>2026-03-22T07:49:21Z</time>
      </trkpt>
      <trkpt lat="44.43174" lon="1.58408">
        <ele>257</ele>
        <time>2026-03-22T07:49:22Z</time>
      </trkpt>
      <trkpt lat="44.43175" lon="1.58416">
        <ele>257</ele>
        <time>2026-03-22T07:49:23Z</time>
      </trkpt>
      <trkpt lat="44.43176" lon="1.58423">
        <ele>257.4</ele>
        <time>2026-03-22T07:49:24Z</time>
      </trkpt>
      <trkpt lat="44.43177" lon="1.58431">
        <ele>257.8</ele>
        <time>2026-03-22T07:49:25Z</time>
      </trkpt>
      <trkpt lat="44.43178" lon="1.58438">
        <ele>258</ele>
        <time>2026-03-22T07:49:26Z</time>
      </trkpt>
      <trkpt lat="44.4318" lon="1.58445">
        <ele>258.4</ele>
        <time>2026-03-22T07:49:27Z</time>
      </trkpt>
      <trkpt lat="44.43181" lon="1.58452">
        <ele>258.6</ele>
        <time>2026-03-22T07:49:28Z</time>
      </trkpt>
      <trkpt lat="44.43182" lon="1.58459">
        <ele>258.8</ele>
        <time>2026-03-22T07:49:29Z</time>
      </trkpt>
      <trkpt lat="44.43182" lon="1.58466">
        <ele>259.2</ele>
        <time>2026-03-22T07:49:30Z</time>
      </trkpt>
      <trkpt lat="44.43181" lon="1.58473">
        <ele>259.6</ele>
        <time>2026-03-22T07:49:31Z</time>
      </trkpt>
      <trkpt lat="44.43179" lon="1.5848">
        <ele>260</ele>
        <time>2026-03-22T07:49:32Z</time>
      </trkpt>
      <trkpt lat="44.43177" lon="1.58487">
        <ele>260.4</ele>
        <time>2026-03-22T07:49:33Z</time>
      </trkpt>
      <trkpt lat="44.43174" lon="1.58495">
        <ele>260.6</ele>
        <time>2026-03-22T07:49:34Z</time>
      </trkpt>
      <trkpt lat="44.43172" lon="1.58502">
        <ele>260.8</ele>
        <time>2026-03-22T07:49:35Z</time>
      </trkpt>
      <trkpt lat="44.4317" lon="1.58509">
        <ele>261</ele>
        <time>2026-03-22T07:49:36Z</time>
      </trkpt>
      <trkpt lat="44.43168" lon="1.58515">
        <ele>261.2</ele>
        <time>2026-03-22T07:49:37Z</time>
      </trkpt>
      <trkpt lat="44.43166" lon="1.58522">
        <ele>261.8</ele>
        <time>2026-03-22T07:49:38Z</time>
      </trkpt>
      <trkpt lat="44.43164" lon="1.58529">
        <ele>262.2</ele>
        <time>2026-03-22T07:49:39Z</time>
      </trkpt>
      <trkpt lat="44.43162" lon="1.58535">
        <ele>262.8</ele>
        <time>2026-03-22T07:49:40Z</time>
      </trkpt>
      <trkpt lat="44.43158" lon="1.58541">
        <ele>263.2</ele>
        <time>2026-03-22T07:49:41Z</time>
      </trkpt>
      <trkpt lat="44.43155" lon="1.58547">
        <ele>263.4</ele>
        <time>2026-03-22T07:49:42Z</time>
      </trkpt>
      <trkpt lat="44.43152" lon="1.58552">
        <ele>263.6</ele>
        <time>2026-03-22T07:49:43Z</time>
      </trkpt>
      <trkpt lat="44.43148" lon="1.58558">
        <ele>263.8</ele>
        <time>2026-03-22T07:49:44Z</time>
      </trkpt>
      <trkpt lat="44.43144" lon="1.58564">
        <ele>264</ele>
        <time>2026-03-22T07:49:45Z</time>
      </trkpt>
      <trkpt lat="44.43142" lon="1.5857">
        <ele>264.4</ele>
        <time>2026-03-22T07:49:46Z</time>
      </trkpt>
      <trkpt lat="44.43139" lon="1.58577">
        <ele>264.8</ele>
        <time>2026-03-22T07:49:47Z</time>
      </trkpt>
      <trkpt lat="44.43136" lon="1.58584">
        <ele>265</ele>
        <time>2026-03-22T07:49:48Z</time>
      </trkpt>
      <trkpt lat="44.43134" lon="1.5859">
        <ele>265.2</ele>
        <time>2026-03-22T07:49:49Z</time>
      </trkpt>
      <trkpt lat="44.43131" lon="1.58597">
        <ele>265.2</ele>
        <time>2026-03-22T07:49:50Z</time>
      </trkpt>
      <trkpt lat="44.43128" lon="1.58604">
        <ele>265.2</ele>
        <time>2026-03-22T07:49:51Z</time>
      </trkpt>
      <trkpt lat="44.43126" lon="1.58611">
        <ele>265.2</ele>
        <time>2026-03-22T07:49:52Z</time>
      </trkpt>
      <trkpt lat="44.43124" lon="1.58618">
        <ele>265.2</ele>
        <time>2026-03-22T07:49:53Z</time>
      </trkpt>
      <trkpt lat="44.43121" lon="1.58625">
        <ele>265.2</ele>
        <time>2026-03-22T07:49:54Z</time>
      </trkpt>
      <trkpt lat="44.43118" lon="1.58633">
        <ele>265.2</ele>
        <time>2026-03-22T07:49:55Z</time>
      </trkpt>
      <trkpt lat="44.43115" lon="1.5864">
        <ele>265.2</ele>
        <time>2026-03-22T07:49:56Z</time>
      </trkpt>
      <trkpt lat="44.43112" lon="1.58648">
        <ele>265.2</ele>
        <time>2026-03-22T07:49:57Z</time>
      </trkpt>
      <trkpt lat="44.43108" lon="1.58656">
        <ele>265.2</ele>
        <time>2026-03-22T07:49:58Z</time>
      </trkpt>
      <trkpt lat="44.43105" lon="1.58664">
        <ele>265</ele>
        <time>2026-03-22T07:49:59Z</time>
      </trkpt>
      <trkpt lat="44.43101" lon="1.58671">
        <ele>265</ele>
        <time>2026-03-22T07:50:00Z</time>
      </trkpt>
      <trkpt lat="44.43098" lon="1.58679">
        <ele>264.8</ele>
        <time>2026-03-22T07:50:01Z</time>
      </trkpt>
      <trkpt lat="44.43094" lon="1.58687">
        <ele>264.8</ele>
        <time>2026-03-22T07:50:02Z</time>
      </trkpt>
      <trkpt lat="44.4309" lon="1.58693">
        <ele>264.8</ele>
        <time>2026-03-22T07:50:03Z</time>
      </trkpt>
      <trkpt lat="44.43086" lon="1.58702">
        <ele>264.6</ele>
        <time>2026-03-22T07:50:04Z</time>
      </trkpt>
      <trkpt lat="44.43082" lon="1.5871">
        <ele>264</ele>
        <time>2026-03-22T07:50:05Z</time>
      </trkpt>
      <trkpt lat="44.4308" lon="1.58717">
        <ele>263.6</ele>
        <time>2026-03-22T07:50:06Z</time>
      </trkpt>
      <trkpt lat="44.43078" lon="1.58725">
        <ele>263.4</ele>
        <time>2026-03-22T07:50:07Z</time>
      </trkpt>
      <trkpt lat="44.43077" lon="1.58732">
        <ele>263.2</ele>
        <time>2026-03-22T07:50:08Z</time>
      </trkpt>
      <trkpt lat="44.43076" lon="1.5874">
        <ele>263.2</ele>
        <time>2026-03-22T07:50:09Z</time>
      </trkpt>
      <trkpt lat="44.43075" lon="1.58747">
        <ele>263.2</ele>
        <time>2026-03-22T07:50:10Z</time>
      </trkpt>
      <trkpt lat="44.43072" lon="1.58761">
        <ele>263.2</ele>
        <time>2026-03-22T07:50:12Z</time>
      </trkpt>
      <trkpt lat="44.43071" lon="1.58768">
        <ele>263.2</ele>
        <time>2026-03-22T07:50:13Z</time>
      </trkpt>
      <trkpt lat="44.43069" lon="1.58775">
        <ele>263.2</ele>
        <time>2026-03-22T07:50:14Z</time>
      </trkpt>
      <trkpt lat="44.43067" lon="1.58782">
        <ele>263.2</ele>
        <time>2026-03-22T07:50:15Z</time>
      </trkpt>
      <trkpt lat="44.43065" lon="1.58789">
        <ele>263.2</ele>
        <time>2026-03-22T07:50:16Z</time>
      </trkpt>
      <trkpt lat="44.43064" lon="1.58795">
        <ele>263.4</ele>
        <time>2026-03-22T07:50:17Z</time>
      </trkpt>
      <trkpt lat="44.43062" lon="1.58803">
        <ele>263.4</ele>
        <time>2026-03-22T07:50:18Z</time>
      </trkpt>
      <trkpt lat="44.43061" lon="1.5881">
        <ele>263.6</ele>
        <time>2026-03-22T07:50:19Z</time>
      </trkpt>
      <trkpt lat="44.43058" lon="1.58825">
        <ele>264</ele>
        <time>2026-03-22T07:50:21Z</time>
      </trkpt>
      <trkpt lat="44.43056" lon="1.58833">
        <ele>264.2</ele>
        <time>2026-03-22T07:50:22Z</time>
      </trkpt>
      <trkpt lat="44.43053" lon="1.58864">
        <ele>264.6</ele>
        <time>2026-03-22T07:50:26Z</time>
      </trkpt>
      <trkpt lat="44.43054" lon="1.5888">
        <ele>264.6</ele>
        <time>2026-03-22T07:50:28Z</time>
      </trkpt>
      <trkpt lat="44.43056" lon="1.58895">
        <ele>264.6</ele>
        <time>2026-03-22T07:50:30Z</time>
      </trkpt>
      <trkpt lat="44.43058" lon="1.58901">
        <ele>264.8</ele>
        <time>2026-03-22T07:50:31Z</time>
      </trkpt>
      <trkpt lat="44.43061" lon="1.58908">
        <ele>264.8</ele>
        <time>2026-03-22T07:50:32Z</time>
      </trkpt>
      <trkpt lat="44.43065" lon="1.58921">
        <ele>264.8</ele>
        <time>2026-03-22T07:50:34Z</time>
      </trkpt>
      <trkpt lat="44.43067" lon="1.58927">
        <ele>264.8</ele>
        <time>2026-03-22T07:50:35Z</time>
      </trkpt>
      <trkpt lat="44.43069" lon="1.58933">
        <ele>264.8</ele>
        <time>2026-03-22T07:50:36Z</time>
      </trkpt>
      <trkpt lat="44.43071" lon="1.58939">
        <ele>264.8</ele>
        <time>2026-03-22T07:50:37Z</time>
      </trkpt>
      <trkpt lat="44.43073" lon="1.58945">
        <ele>265</ele>
        <time>2026-03-22T07:50:38Z</time>
      </trkpt>
      <trkpt lat="44.43075" lon="1.58951">
        <ele>265.2</ele>
        <time>2026-03-22T07:50:39Z</time>
      </trkpt>
      <trkpt lat="44.43076" lon="1.58956">
        <ele>265.6</ele>
        <time>2026-03-22T07:50:40Z</time>
      </trkpt>
      <trkpt lat="44.43077" lon="1.58961">
        <ele>265.8</ele>
        <time>2026-03-22T07:50:41Z</time>
      </trkpt>
      <trkpt lat="44.43079" lon="1.58966">
        <ele>266</ele>
        <time>2026-03-22T07:50:42Z</time>
      </trkpt>
      <trkpt lat="44.4308" lon="1.58971">
        <ele>266.2</ele>
        <time>2026-03-22T07:50:43Z</time>
      </trkpt>
      <trkpt lat="44.43083" lon="1.58981">
        <ele>266.8</ele>
        <time>2026-03-22T07:50:45Z</time>
      </trkpt>
      <trkpt lat="44.43084" lon="1.58984">
        <ele>267</ele>
        <time>2026-03-22T07:50:46Z</time>
      </trkpt>
      <trkpt lat="44.43085" lon="1.5899">
        <ele>267.2</ele>
        <time>2026-03-22T07:50:47Z</time>
      </trkpt>
      <trkpt lat="44.43086" lon="1.58994">
        <ele>267.6</ele>
        <time>2026-03-22T07:50:48Z</time>
      </trkpt>
      <trkpt lat="44.43087" lon="1.58998">
        <ele>267.8</ele>
        <time>2026-03-22T07:50:49Z</time>
      </trkpt>
      <trkpt lat="44.43089" lon="1.59001">
        <ele>268</ele>
        <time>2026-03-22T07:50:50Z</time>
      </trkpt>
      <trkpt lat="44.4309" lon="1.59005">
        <ele>268.4</ele>
        <time>2026-03-22T07:50:51Z</time>
      </trkpt>
      <trkpt lat="44.43091" lon="1.59008">
        <ele>268.6</ele>
        <time>2026-03-22T07:50:52Z</time>
      </trkpt>
      <trkpt lat="44.43092" lon="1.59012">
        <ele>268.8</ele>
        <time>2026-03-22T07:50:53Z</time>
      </trkpt>
      <trkpt lat="44.43093" lon="1.59016">
        <ele>269.2</ele>
        <time>2026-03-22T07:50:54Z</time>
      </trkpt>
      <trkpt lat="44.43094" lon="1.59019">
        <ele>269.4</ele>
        <time>2026-03-22T07:50:55Z</time>
      </trkpt>
      <trkpt lat="44.43096" lon="1.59021">
        <ele>269.4</ele>
        <time>2026-03-22T07:50:56Z</time>
      </trkpt>
      <trkpt lat="44.43098" lon="1.59022">
        <ele>269.6</ele>
        <time>2026-03-22T07:50:57Z</time>
      </trkpt>
      <trkpt lat="44.431" lon="1.59021">
        <ele>270</ele>
        <time>2026-03-22T07:50:58Z</time>
      </trkpt>
      <trkpt lat="44.43102" lon="1.59019">
        <ele>270</ele>
        <time>2026-03-22T07:50:59Z</time>
      </trkpt>
      <trkpt lat="44.43105" lon="1.59016">
        <ele>270.2</ele>
        <time>2026-03-22T07:51:00Z</time>
      </trkpt>
      <trkpt lat="44.43108" lon="1.59013">
        <ele>270.4</ele>
        <time>2026-03-22T07:51:01Z</time>
      </trkpt>
      <trkpt lat="44.43111" lon="1.5901">
        <ele>270.6</ele>
        <time>2026-03-22T07:51:02Z</time>
      </trkpt>
      <trkpt lat="44.43114" lon="1.59007">
        <ele>271</ele>
        <time>2026-03-22T07:51:03Z</time>
      </trkpt>
      <trkpt lat="44.43117" lon="1.59004">
        <ele>271.2</ele>
        <time>2026-03-22T07:51:04Z</time>
      </trkpt>
      <trkpt lat="44.43121" lon="1.59">
        <ele>271.4</ele>
        <time>2026-03-22T07:51:05Z</time>
      </trkpt>
      <trkpt lat="44.43125" lon="1.58997">
        <ele>271.8</ele>
        <time>2026-03-22T07:51:06Z</time>
      </trkpt>
      <trkpt lat="44.43128" lon="1.58994">
        <ele>272.2</ele>
        <time>2026-03-22T07:51:07Z</time>
      </trkpt>
      <trkpt lat="44.43131" lon="1.5899">
        <ele>272.6</ele>
        <time>2026-03-22T07:51:08Z</time>
      </trkpt>
      <trkpt lat="44.43135" lon="1.58986">
        <ele>273</ele>
        <time>2026-03-22T07:51:09Z</time>
      </trkpt>
      <trkpt lat="44.43138" lon="1.58982">
        <ele>273.2</ele>
        <time>2026-03-22T07:51:10Z</time>
      </trkpt>
      <trkpt lat="44.43142" lon="1.58978">
        <ele>273.6</ele>
        <time>2026-03-22T07:51:11Z</time>
      </trkpt>
      <trkpt lat="44.43146" lon="1.58974">
        <ele>274.2</ele>
        <time>2026-03-22T07:51:12Z</time>
      </trkpt>
      <trkpt lat="44.43149" lon="1.5897">
        <ele>274.8</ele>
        <time>2026-03-22T07:51:13Z</time>
      </trkpt>
      <trkpt lat="44.43153" lon="1.58966">
        <ele>275.4</ele>
        <time>2026-03-22T07:51:14Z</time>
      </trkpt>
      <trkpt lat="44.43157" lon="1.58963">
        <ele>276</ele>
        <time>2026-03-22T07:51:15Z</time>
      </trkpt>
      <trkpt lat="44.43161" lon="1.5896">
        <ele>276.8</ele>
        <time>2026-03-22T07:51:16Z</time>
      </trkpt>
      <trkpt lat="44.43165" lon="1.58957">
        <ele>277.2</ele>
        <time>2026-03-22T07:51:17Z</time>
      </trkpt>
      <trkpt lat="44.43169" lon="1.58955">
        <ele>277.6</ele>
        <time>2026-03-22T07:51:18Z</time>
      </trkpt>
      <trkpt lat="44.43173" lon="1.58952">
        <ele>277.8</ele>
        <time>2026-03-22T07:51:19Z</time>
      </trkpt>
      <trkpt lat="44.43178" lon="1.5895">
        <ele>278.2</ele>
        <time>2026-03-22T07:51:20Z</time>
      </trkpt>
      <trkpt lat="44.43182" lon="1.58949">
        <ele>278.4</ele>
        <time>2026-03-22T07:51:21Z</time>
      </trkpt>
      <trkpt lat="44.43186" lon="1.58947">
        <ele>278.8</ele>
        <time>2026-03-22T07:51:22Z</time>
      </trkpt>
      <trkpt lat="44.43191" lon="1.58945">
        <ele>279</ele>
        <time>2026-03-22T07:51:23Z</time>
      </trkpt>
      <trkpt lat="44.43195" lon="1.58943">
        <ele>279.2</ele>
        <time>2026-03-22T07:51:24Z</time>
      </trkpt>
      <trkpt lat="44.43199" lon="1.58942">
        <ele>279.6</ele>
        <time>2026-03-22T07:51:25Z</time>
      </trkpt>
      <trkpt lat="44.43203" lon="1.5894">
        <ele>279.8</ele>
        <time>2026-03-22T07:51:26Z</time>
      </trkpt>
      <trkpt lat="44.43207" lon="1.58938">
        <ele>280.2</ele>
        <time>2026-03-22T07:51:27Z</time>
      </trkpt>
      <trkpt lat="44.43211" lon="1.58936">
        <ele>280.6</ele>
        <time>2026-03-22T07:51:28Z</time>
      </trkpt>
      <trkpt lat="44.43214" lon="1.58934">
        <ele>280.8</ele>
        <time>2026-03-22T07:51:29Z</time>
      </trkpt>
      <trkpt lat="44.43219" lon="1.58932">
        <ele>281.2</ele>
        <time>2026-03-22T07:51:30Z</time>
      </trkpt>
      <trkpt lat="44.43223" lon="1.5893">
        <ele>281.6</ele>
        <time>2026-03-22T07:51:31Z</time>
      </trkpt>
      <trkpt lat="44.43226" lon="1.58928">
        <ele>281.8</ele>
        <time>2026-03-22T07:51:32Z</time>
      </trkpt>
      <trkpt lat="44.4323" lon="1.58926">
        <ele>282</ele>
        <time>2026-03-22T07:51:33Z</time>
      </trkpt>
      <trkpt lat="44.43234" lon="1.58925">
        <ele>282.2</ele>
        <time>2026-03-22T07:51:34Z</time>
      </trkpt>
      <trkpt lat="44.43238" lon="1.58923">
        <ele>282.6</ele>
        <time>2026-03-22T07:51:35Z</time>
      </trkpt>
      <trkpt lat="44.43242" lon="1.58921">
        <ele>283</ele>
        <time>2026-03-22T07:51:36Z</time>
      </trkpt>
      <trkpt lat="44.43246" lon="1.5892">
        <ele>283.2</ele>
        <time>2026-03-22T07:51:37Z</time>
      </trkpt>
      <trkpt lat="44.4325" lon="1.58919">
        <ele>283.4</ele>
        <time>2026-03-22T07:51:38Z</time>
      </trkpt>
      <trkpt lat="44.43254" lon="1.58918">
        <ele>283.6</ele>
        <time>2026-03-22T07:51:39Z</time>
      </trkpt>
      <trkpt lat="44.43258" lon="1.58917">
        <ele>283.8</ele>
        <time>2026-03-22T07:51:40Z</time>
      </trkpt>
      <trkpt lat="44.43262" lon="1.58916">
        <ele>283.8</ele>
        <time>2026-03-22T07:51:41Z</time>
      </trkpt>
      <trkpt lat="44.43266" lon="1.58916">
        <ele>283.8</ele>
        <time>2026-03-22T07:51:42Z</time>
      </trkpt>
      <trkpt lat="44.43271" lon="1.58916">
        <ele>284</ele>
        <time>2026-03-22T07:51:43Z</time>
      </trkpt>
      <trkpt lat="44.43275" lon="1.58917">
        <ele>284.2</ele>
        <time>2026-03-22T07:51:44Z</time>
      </trkpt>
      <trkpt lat="44.43279" lon="1.58918">
        <ele>284.2</ele>
        <time>2026-03-22T07:51:45Z</time>
      </trkpt>
      <trkpt lat="44.43283" lon="1.5892">
        <ele>284.4</ele>
        <time>2026-03-22T07:51:46Z</time>
      </trkpt>
      <trkpt lat="44.43287" lon="1.58922">
        <ele>284.4</ele>
        <time>2026-03-22T07:51:47Z</time>
      </trkpt>
      <trkpt lat="44.43292" lon="1.58924">
        <ele>284.6</ele>
        <time>2026-03-22T07:51:48Z</time>
      </trkpt>
      <trkpt lat="44.43296" lon="1.58926">
        <ele>284.6</ele>
        <time>2026-03-22T07:51:49Z</time>
      </trkpt>
      <trkpt lat="44.43301" lon="1.58928">
        <ele>284.8</ele>
        <time>2026-03-22T07:51:50Z</time>
      </trkpt>
      <trkpt lat="44.43305" lon="1.5893">
        <ele>285</ele>
        <time>2026-03-22T07:51:51Z</time>
      </trkpt>
      <trkpt lat="44.4331" lon="1.58933">
        <ele>284.8</ele>
        <time>2026-03-22T07:51:52Z</time>
      </trkpt>
      <trkpt lat="44.43315" lon="1.58937">
        <ele>285.2</ele>
        <time>2026-03-22T07:51:53Z</time>
      </trkpt>
      <trkpt lat="44.4332" lon="1.5894">
        <ele>285.2</ele>
        <time>2026-03-22T07:51:54Z</time>
      </trkpt>
      <trkpt lat="44.43324" lon="1.58943">
        <ele>285.2</ele>
        <time>2026-03-22T07:51:55Z</time>
      </trkpt>
      <trkpt lat="44.4333" lon="1.58946">
        <ele>285.2</ele>
        <time>2026-03-22T07:51:56Z</time>
      </trkpt>
      <trkpt lat="44.43336" lon="1.58949">
        <ele>285.2</ele>
        <time>2026-03-22T07:51:57Z</time>
      </trkpt>
      <trkpt lat="44.43342" lon="1.58952">
        <ele>285.2</ele>
        <time>2026-03-22T07:51:58Z</time>
      </trkpt>
      <trkpt lat="44.43349" lon="1.58955">
        <ele>285.2</ele>
        <time>2026-03-22T07:51:59Z</time>
      </trkpt>
      <trkpt lat="44.43355" lon="1.58959">
        <ele>285.2</ele>
        <time>2026-03-22T07:52:00Z</time>
      </trkpt>
      <trkpt lat="44.43362" lon="1.58963">
        <ele>285.2</ele>
        <time>2026-03-22T07:52:01Z</time>
      </trkpt>
      <trkpt lat="44.43369" lon="1.58967">
        <ele>285.2</ele>
        <time>2026-03-22T07:52:02Z</time>
      </trkpt>
      <trkpt lat="44.43376" lon="1.58973">
        <ele>285</ele>
        <time>2026-03-22T07:52:03Z</time>
      </trkpt>
      <trkpt lat="44.43384" lon="1.58979">
        <ele>284.6</ele>
        <time>2026-03-22T07:52:04Z</time>
      </trkpt>
      <trkpt lat="44.43391" lon="1.58985">
        <ele>284.4</ele>
        <time>2026-03-22T07:52:05Z</time>
      </trkpt>
      <trkpt lat="44.43416" lon="1.59002">
        <ele>282.6</ele>
        <time>2026-03-22T07:52:08Z</time>
      </trkpt>
      <trkpt lat="44.43434" lon="1.59013">
        <ele>281.6</ele>
        <time>2026-03-22T07:52:10Z</time>
      </trkpt>
      <trkpt lat="44.43442" lon="1.59018">
        <ele>280.6</ele>
        <time>2026-03-22T07:52:11Z</time>
      </trkpt>
      <trkpt lat="44.4345" lon="1.59022">
        <ele>279.6</ele>
        <time>2026-03-22T07:52:12Z</time>
      </trkpt>
      <trkpt lat="44.43458" lon="1.59028">
        <ele>278.4</ele>
        <time>2026-03-22T07:52:13Z</time>
      </trkpt>
      <trkpt lat="44.43476" lon="1.59036">
        <ele>276.4</ele>
        <time>2026-03-22T07:52:15Z</time>
      </trkpt>
      <trkpt lat="44.43496" lon="1.59045">
        <ele>274.6</ele>
        <time>2026-03-22T07:52:17Z</time>
      </trkpt>
      <trkpt lat="44.43514" lon="1.5905">
        <ele>271.8</ele>
        <time>2026-03-22T07:52:19Z</time>
      </trkpt>
      <trkpt lat="44.43534" lon="1.59053">
        <ele>270.4</ele>
        <time>2026-03-22T07:52:21Z</time>
      </trkpt>
      <trkpt lat="44.43544" lon="1.59055">
        <ele>270</ele>
        <time>2026-03-22T07:52:22Z</time>
      </trkpt>
      <trkpt lat="44.43565" lon="1.5906">
        <ele>269</ele>
        <time>2026-03-22T07:52:24Z</time>
      </trkpt>
      <trkpt lat="44.43574" lon="1.59062">
        <ele>268.6</ele>
        <time>2026-03-22T07:52:25Z</time>
      </trkpt>
      <trkpt lat="44.43583" lon="1.59063">
        <ele>267.8</ele>
        <time>2026-03-22T07:52:26Z</time>
      </trkpt>
      <trkpt lat="44.43592" lon="1.59062">
        <ele>266.6</ele>
        <time>2026-03-22T07:52:27Z</time>
      </trkpt>
      <trkpt lat="44.43599" lon="1.59058">
        <ele>265.6</ele>
        <time>2026-03-22T07:52:28Z</time>
      </trkpt>
      <trkpt lat="44.43607" lon="1.59052">
        <ele>264.6</ele>
        <time>2026-03-22T07:52:29Z</time>
      </trkpt>
      <trkpt lat="44.43614" lon="1.59045">
        <ele>263.4</ele>
        <time>2026-03-22T07:52:30Z</time>
      </trkpt>
      <trkpt lat="44.4362" lon="1.59037">
        <ele>262.2</ele>
        <time>2026-03-22T07:52:31Z</time>
      </trkpt>
      <trkpt lat="44.43626" lon="1.5903">
        <ele>260.2</ele>
        <time>2026-03-22T07:52:32Z</time>
      </trkpt>
      <trkpt lat="44.43632" lon="1.59024">
        <ele>258.4</ele>
        <time>2026-03-22T07:52:33Z</time>
      </trkpt>
      <trkpt lat="44.43637" lon="1.59018">
        <ele>257.6</ele>
        <time>2026-03-22T07:52:34Z</time>
      </trkpt>
      <trkpt lat="44.43643" lon="1.59014">
        <ele>257.2</ele>
        <time>2026-03-22T07:52:35Z</time>
      </trkpt>
      <trkpt lat="44.43648" lon="1.59011">
        <ele>256.8</ele>
        <time>2026-03-22T07:52:36Z</time>
      </trkpt>
      <trkpt lat="44.43653" lon="1.5901">
        <ele>256.8</ele>
        <time>2026-03-22T07:52:37Z</time>
      </trkpt>
      <trkpt lat="44.43659" lon="1.59009">
        <ele>256.8</ele>
        <time>2026-03-22T07:52:38Z</time>
      </trkpt>
      <trkpt lat="44.43664" lon="1.5901">
        <ele>256.6</ele>
        <time>2026-03-22T07:52:39Z</time>
      </trkpt>
      <trkpt lat="44.4367" lon="1.59009">
        <ele>256.6</ele>
        <time>2026-03-22T07:52:40Z</time>
      </trkpt>
      <trkpt lat="44.4368" lon="1.59006">
        <ele>256.6</ele>
        <time>2026-03-22T07:52:42Z</time>
      </trkpt>
      <trkpt lat="44.43684" lon="1.59003">
        <ele>256.8</ele>
        <time>2026-03-22T07:52:43Z</time>
      </trkpt>
      <trkpt lat="44.43688" lon="1.58997">
        <ele>257.2</ele>
        <time>2026-03-22T07:52:44Z</time>
      </trkpt>
      <trkpt lat="44.43691" lon="1.58991">
        <ele>257.4</ele>
        <time>2026-03-22T07:52:45Z</time>
      </trkpt>
      <trkpt lat="44.43693" lon="1.58985">
        <ele>258</ele>
        <time>2026-03-22T07:52:46Z</time>
      </trkpt>
      <trkpt lat="44.43694" lon="1.58979">
        <ele>258.4</ele>
        <time>2026-03-22T07:52:47Z</time>
      </trkpt>
      <trkpt lat="44.43696" lon="1.58972">
        <ele>259</ele>
        <time>2026-03-22T07:52:48Z</time>
      </trkpt>
      <trkpt lat="44.43697" lon="1.58966">
        <ele>259.4</ele>
        <time>2026-03-22T07:52:49Z</time>
      </trkpt>
      <trkpt lat="44.43698" lon="1.5896">
        <ele>260</ele>
        <time>2026-03-22T07:52:50Z</time>
      </trkpt>
      <trkpt lat="44.43699" lon="1.58954">
        <ele>260.6</ele>
        <time>2026-03-22T07:52:51Z</time>
      </trkpt>
      <trkpt lat="44.437" lon="1.58948">
        <ele>261.4</ele>
        <time>2026-03-22T07:52:52Z</time>
      </trkpt>
      <trkpt lat="44.437" lon="1.58942">
        <ele>262</ele>
        <time>2026-03-22T07:52:53Z</time>
      </trkpt>
      <trkpt lat="44.43701" lon="1.58937">
        <ele>262.8</ele>
        <time>2026-03-22T07:52:54Z</time>
      </trkpt>
      <trkpt lat="44.43701" lon="1.58932">
        <ele>263.4</ele>
        <time>2026-03-22T07:52:55Z</time>
      </trkpt>
      <trkpt lat="44.43702" lon="1.58927">
        <ele>264.2</ele>
        <time>2026-03-22T07:52:56Z</time>
      </trkpt>
      <trkpt lat="44.43704" lon="1.58923">
        <ele>265</ele>
        <time>2026-03-22T07:52:57Z</time>
      </trkpt>
      <trkpt lat="44.43707" lon="1.5892">
        <ele>265.6</ele>
        <time>2026-03-22T07:52:58Z</time>
      </trkpt>
      <trkpt lat="44.4371" lon="1.58918">
        <ele>266.2</ele>
        <time>2026-03-22T07:52:59Z</time>
      </trkpt>
      <trkpt lat="44.43714" lon="1.58915">
        <ele>266.8</ele>
        <time>2026-03-22T07:53:00Z</time>
      </trkpt>
      <trkpt lat="44.43716" lon="1.58913">
        <ele>267.4</ele>
        <time>2026-03-22T07:53:01Z</time>
      </trkpt>
      <trkpt lat="44.43719" lon="1.5891">
        <ele>268.2</ele>
        <time>2026-03-22T07:53:02Z</time>
      </trkpt>
      <trkpt lat="44.43722" lon="1.58907">
        <ele>268.8</ele>
        <time>2026-03-22T07:53:03Z</time>
      </trkpt>
      <trkpt lat="44.43725" lon="1.58905">
        <ele>269.4</ele>
        <time>2026-03-22T07:53:04Z</time>
      </trkpt>
      <trkpt lat="44.43729" lon="1.58903">
        <ele>270</ele>
        <time>2026-03-22T07:53:05Z</time>
      </trkpt>
      <trkpt lat="44.43732" lon="1.58901">
        <ele>270.6</ele>
        <time>2026-03-22T07:53:06Z</time>
      </trkpt>
      <trkpt lat="44.43735" lon="1.58899">
        <ele>271.2</ele>
        <time>2026-03-22T07:53:07Z</time>
      </trkpt>
      <trkpt lat="44.43738" lon="1.58898">
        <ele>271.6</ele>
        <time>2026-03-22T07:53:08Z</time>
      </trkpt>
      <trkpt lat="44.43741" lon="1.58896">
        <ele>272.4</ele>
        <time>2026-03-22T07:53:09Z</time>
      </trkpt>
      <trkpt lat="44.43744" lon="1.58895">
        <ele>273</ele>
        <time>2026-03-22T07:53:10Z</time>
      </trkpt>
      <trkpt lat="44.43747" lon="1.58893">
        <ele>273.4</ele>
        <time>2026-03-22T07:53:11Z</time>
      </trkpt>
      <trkpt lat="44.4375" lon="1.58893">
        <ele>274.2</ele>
        <time>2026-03-22T07:53:12Z</time>
      </trkpt>
      <trkpt lat="44.43753" lon="1.58892">
        <ele>274.6</ele>
        <time>2026-03-22T07:53:13Z</time>
      </trkpt>
      <trkpt lat="44.43757" lon="1.58892">
        <ele>274.8</ele>
        <time>2026-03-22T07:53:14Z</time>
      </trkpt>
      <trkpt lat="44.4376" lon="1.58892">
        <ele>275</ele>
        <time>2026-03-22T07:53:15Z</time>
      </trkpt>
      <trkpt lat="44.43764" lon="1.58892">
        <ele>275.4</ele>
        <time>2026-03-22T07:53:16Z</time>
      </trkpt>
      <trkpt lat="44.43767" lon="1.58892">
        <ele>275.8</ele>
        <time>2026-03-22T07:53:17Z</time>
      </trkpt>
      <trkpt lat="44.4377" lon="1.58892">
        <ele>276.4</ele>
        <time>2026-03-22T07:53:18Z</time>
      </trkpt>
      <trkpt lat="44.43773" lon="1.58892">
        <ele>277</ele>
        <time>2026-03-22T07:53:19Z</time>
      </trkpt>
      <trkpt lat="44.43777" lon="1.58893">
        <ele>277.2</ele>
        <time>2026-03-22T07:53:20Z</time>
      </trkpt>
      <trkpt lat="44.4378" lon="1.58893">
        <ele>277.4</ele>
        <time>2026-03-22T07:53:21Z</time>
      </trkpt>
      <trkpt lat="44.43784" lon="1.58894">
        <ele>277.8</ele>
        <time>2026-03-22T07:53:22Z</time>
      </trkpt>
      <trkpt lat="44.43786" lon="1.58895">
        <ele>278.2</ele>
        <time>2026-03-22T07:53:23Z</time>
      </trkpt>
      <trkpt lat="44.43789" lon="1.58896">
        <ele>278.6</ele>
        <time>2026-03-22T07:53:24Z</time>
      </trkpt>
      <trkpt lat="44.43793" lon="1.58897">
        <ele>278.8</ele>
        <time>2026-03-22T07:53:25Z</time>
      </trkpt>
      <trkpt lat="44.43795" lon="1.58898">
        <ele>279</ele>
        <time>2026-03-22T07:53:26Z</time>
      </trkpt>
      <trkpt lat="44.43799" lon="1.58898">
        <ele>279.4</ele>
        <time>2026-03-22T07:53:27Z</time>
      </trkpt>
      <trkpt lat="44.43802" lon="1.58899">
        <ele>279.8</ele>
        <time>2026-03-22T07:53:28Z</time>
      </trkpt>
      <trkpt lat="44.43805" lon="1.589">
        <ele>280.2</ele>
        <time>2026-03-22T07:53:29Z</time>
      </trkpt>
      <trkpt lat="44.43808" lon="1.589">
        <ele>280.6</ele>
        <time>2026-03-22T07:53:30Z</time>
      </trkpt>
      <trkpt lat="44.43811" lon="1.589">
        <ele>280.8</ele>
        <time>2026-03-22T07:53:31Z</time>
      </trkpt>
      <trkpt lat="44.43815" lon="1.589">
        <ele>280.8</ele>
        <time>2026-03-22T07:53:32Z</time>
      </trkpt>
      <trkpt lat="44.43819" lon="1.589">
        <ele>281</ele>
        <time>2026-03-22T07:53:33Z</time>
      </trkpt>
      <trkpt lat="44.43822" lon="1.58901">
        <ele>281.4</ele>
        <time>2026-03-22T07:53:34Z</time>
      </trkpt>
      <trkpt lat="44.43825" lon="1.58901">
        <ele>281.8</ele>
        <time>2026-03-22T07:53:35Z</time>
      </trkpt>
      <trkpt lat="44.43829" lon="1.58901">
        <ele>282.2</ele>
        <time>2026-03-22T07:53:36Z</time>
      </trkpt>
      <trkpt lat="44.43832" lon="1.58901">
        <ele>282.2</ele>
        <time>2026-03-22T07:53:37Z</time>
      </trkpt>
      <trkpt lat="44.43836" lon="1.58901">
        <ele>282.4</ele>
        <time>2026-03-22T07:53:38Z</time>
      </trkpt>
      <trkpt lat="44.43841" lon="1.58902">
        <ele>282.6</ele>
        <time>2026-03-22T07:53:39Z</time>
      </trkpt>
      <trkpt lat="44.43845" lon="1.58902">
        <ele>282.8</ele>
        <time>2026-03-22T07:53:40Z</time>
      </trkpt>
      <trkpt lat="44.43849" lon="1.58902">
        <ele>283</ele>
        <time>2026-03-22T07:53:41Z</time>
      </trkpt>
      <trkpt lat="44.43853" lon="1.58903">
        <ele>283.2</ele>
        <time>2026-03-22T07:53:42Z</time>
      </trkpt>
      <trkpt lat="44.43857" lon="1.58903">
        <ele>283.4</ele>
        <time>2026-03-22T07:53:43Z</time>
      </trkpt>
      <trkpt lat="44.4386" lon="1.58904">
        <ele>283.4</ele>
        <time>2026-03-22T07:53:44Z</time>
      </trkpt>
      <trkpt lat="44.43864" lon="1.58906">
        <ele>283.6</ele>
        <time>2026-03-22T07:53:45Z</time>
      </trkpt>
      <trkpt lat="44.43869" lon="1.58907">
        <ele>283.8</ele>
        <time>2026-03-22T07:53:46Z</time>
      </trkpt>
      <trkpt lat="44.43872" lon="1.58909">
        <ele>284</ele>
        <time>2026-03-22T07:53:47Z</time>
      </trkpt>
      <trkpt lat="44.43876" lon="1.58911">
        <ele>284</ele>
        <time>2026-03-22T07:53:48Z</time>
      </trkpt>
      <trkpt lat="44.43879" lon="1.58913">
        <ele>284.4</ele>
        <time>2026-03-22T07:53:49Z</time>
      </trkpt>
      <trkpt lat="44.43883" lon="1.58916">
        <ele>284.8</ele>
        <time>2026-03-22T07:53:50Z</time>
      </trkpt>
      <trkpt lat="44.43885" lon="1.58917">
        <ele>284.8</ele>
        <time>2026-03-22T07:53:51Z</time>
      </trkpt>
      <trkpt lat="44.43888" lon="1.58919">
        <ele>285</ele>
        <time>2026-03-22T07:53:52Z</time>
      </trkpt>
      <trkpt lat="44.43892" lon="1.58921">
        <ele>285.4</ele>
        <time>2026-03-22T07:53:53Z</time>
      </trkpt>
      <trkpt lat="44.43895" lon="1.58923">
        <ele>285.4</ele>
        <time>2026-03-22T07:53:54Z</time>
      </trkpt>
      <trkpt lat="44.439" lon="1.58925">
        <ele>285.8</ele>
        <time>2026-03-22T07:53:55Z</time>
      </trkpt>
      <trkpt lat="44.43903" lon="1.58927">
        <ele>286</ele>
        <time>2026-03-22T07:53:56Z</time>
      </trkpt>
      <trkpt lat="44.43907" lon="1.5893">
        <ele>286.4</ele>
        <time>2026-03-22T07:53:57Z</time>
      </trkpt>
      <trkpt lat="44.43911" lon="1.58932">
        <ele>286.6</ele>
        <time>2026-03-22T07:53:58Z</time>
      </trkpt>
      <trkpt lat="44.43915" lon="1.58933">
        <ele>286.8</ele>
        <time>2026-03-22T07:53:59Z</time>
      </trkpt>
      <trkpt lat="44.43918" lon="1.58935">
        <ele>286.8</ele>
        <time>2026-03-22T07:54:00Z</time>
      </trkpt>
      <trkpt lat="44.43922" lon="1.58936">
        <ele>287</ele>
        <time>2026-03-22T07:54:01Z</time>
      </trkpt>
      <trkpt lat="44.43927" lon="1.58937">
        <ele>287.4</ele>
        <time>2026-03-22T07:54:02Z</time>
      </trkpt>
      <trkpt lat="44.43932" lon="1.58939">
        <ele>287.8</ele>
        <time>2026-03-22T07:54:03Z</time>
      </trkpt>
      <trkpt lat="44.43936" lon="1.5894">
        <ele>288.2</ele>
        <time>2026-03-22T07:54:04Z</time>
      </trkpt>
      <trkpt lat="44.43941" lon="1.58941">
        <ele>288.6</ele>
        <time>2026-03-22T07:54:05Z</time>
      </trkpt>
      <trkpt lat="44.43946" lon="1.58943">
        <ele>289</ele>
        <time>2026-03-22T07:54:06Z</time>
      </trkpt>
      <trkpt lat="44.43951" lon="1.58944">
        <ele>289.4</ele>
        <time>2026-03-22T07:54:07Z</time>
      </trkpt>
      <trkpt lat="44.43956" lon="1.58945">
        <ele>289.6</ele>
        <time>2026-03-22T07:54:08Z</time>
      </trkpt>
      <trkpt lat="44.43962" lon="1.58947">
        <ele>289.8</ele>
        <time>2026-03-22T07:54:09Z</time>
      </trkpt>
      <trkpt lat="44.43968" lon="1.58948">
        <ele>290</ele>
        <time>2026-03-22T07:54:10Z</time>
      </trkpt>
      <trkpt lat="44.43972" lon="1.58948">
        <ele>290.2</ele>
        <time>2026-03-22T07:54:11Z</time>
      </trkpt>
      <trkpt lat="44.43978" lon="1.58949">
        <ele>290.2</ele>
        <time>2026-03-22T07:54:12Z</time>
      </trkpt>
      <trkpt lat="44.43982" lon="1.5895">
        <ele>290.4</ele>
        <time>2026-03-22T07:54:13Z</time>
      </trkpt>
      <trkpt lat="44.43988" lon="1.5895">
        <ele>290.4</ele>
        <time>2026-03-22T07:54:14Z</time>
      </trkpt>
      <trkpt lat="44.43994" lon="1.58951">
        <ele>290.6</ele>
        <time>2026-03-22T07:54:15Z</time>
      </trkpt>
      <trkpt lat="44.43998" lon="1.58952">
        <ele>290.6</ele>
        <time>2026-03-22T07:54:16Z</time>
      </trkpt>
      <trkpt lat="44.44004" lon="1.58952">
        <ele>290.8</ele>
        <time>2026-03-22T07:54:17Z</time>
      </trkpt>
      <trkpt lat="44.44009" lon="1.58953">
        <ele>290.8</ele>
        <time>2026-03-22T07:54:18Z</time>
      </trkpt>
      <trkpt lat="44.44013" lon="1.58953">
        <ele>291</ele>
        <time>2026-03-22T07:54:19Z</time>
      </trkpt>
      <trkpt lat="44.44019" lon="1.58953">
        <ele>291.2</ele>
        <time>2026-03-22T07:54:20Z</time>
      </trkpt>
      <trkpt lat="44.44024" lon="1.58953">
        <ele>291.4</ele>
        <time>2026-03-22T07:54:21Z</time>
      </trkpt>
      <trkpt lat="44.4403" lon="1.58952">
        <ele>291.6</ele>
        <time>2026-03-22T07:54:22Z</time>
      </trkpt>
      <trkpt lat="44.44036" lon="1.58952">
        <ele>291.8</ele>
        <time>2026-03-22T07:54:23Z</time>
      </trkpt>
      <trkpt lat="44.44044" lon="1.58951">
        <ele>291.8</ele>
        <time>2026-03-22T07:54:24Z</time>
      </trkpt>
      <trkpt lat="44.44049" lon="1.5895">
        <ele>292</ele>
        <time>2026-03-22T07:54:25Z</time>
      </trkpt>
      <trkpt lat="44.44054" lon="1.58949">
        <ele>292.2</ele>
        <time>2026-03-22T07:54:26Z</time>
      </trkpt>
      <trkpt lat="44.44059" lon="1.58947">
        <ele>292.4</ele>
        <time>2026-03-22T07:54:27Z</time>
      </trkpt>
      <trkpt lat="44.44066" lon="1.58943">
        <ele>292.6</ele>
        <time>2026-03-22T07:54:28Z</time>
      </trkpt>
      <trkpt lat="44.4407" lon="1.58939">
        <ele>292.6</ele>
        <time>2026-03-22T07:54:29Z</time>
      </trkpt>
      <trkpt lat="44.44074" lon="1.58934">
        <ele>292.6</ele>
        <time>2026-03-22T07:54:30Z</time>
      </trkpt>
      <trkpt lat="44.44077" lon="1.58929">
        <ele>292.8</ele>
        <time>2026-03-22T07:54:31Z</time>
      </trkpt>
      <trkpt lat="44.44079" lon="1.58923">
        <ele>293</ele>
        <time>2026-03-22T07:54:32Z</time>
      </trkpt>
      <trkpt lat="44.44081" lon="1.58918">
        <ele>293</ele>
        <time>2026-03-22T07:54:33Z</time>
      </trkpt>
      <trkpt lat="44.44083" lon="1.58913">
        <ele>293.2</ele>
        <time>2026-03-22T07:54:34Z</time>
      </trkpt>
      <trkpt lat="44.44085" lon="1.58908">
        <ele>293.2</ele>
        <time>2026-03-22T07:54:35Z</time>
      </trkpt>
      <trkpt lat="44.44087" lon="1.58903">
        <ele>293.2</ele>
        <time>2026-03-22T07:54:36Z</time>
      </trkpt>
      <trkpt lat="44.44089" lon="1.58899">
        <ele>293.6</ele>
        <time>2026-03-22T07:54:37Z</time>
      </trkpt>
      <trkpt lat="44.44091" lon="1.58894">
        <ele>294.4</ele>
        <time>2026-03-22T07:54:38Z</time>
      </trkpt>
      <trkpt lat="44.44093" lon="1.5889">
        <ele>294.8</ele>
        <time>2026-03-22T07:54:39Z</time>
      </trkpt>
      <trkpt lat="44.44095" lon="1.58886">
        <ele>295</ele>
        <time>2026-03-22T07:54:40Z</time>
      </trkpt>
      <trkpt lat="44.44097" lon="1.58883">
        <ele>295.8</ele>
        <time>2026-03-22T07:54:41Z</time>
      </trkpt>
      <trkpt lat="44.441" lon="1.5888">
        <ele>296.2</ele>
        <time>2026-03-22T07:54:42Z</time>
      </trkpt>
      <trkpt lat="44.44102" lon="1.58876">
        <ele>297</ele>
        <time>2026-03-22T07:54:43Z</time>
      </trkpt>
      <trkpt lat="44.44104" lon="1.58873">
        <ele>297.4</ele>
        <time>2026-03-22T07:54:44Z</time>
      </trkpt>
      <trkpt lat="44.44107" lon="1.5887">
        <ele>298.2</ele>
        <time>2026-03-22T07:54:45Z</time>
      </trkpt>
      <trkpt lat="44.4411" lon="1.58867">
        <ele>298.8</ele>
        <time>2026-03-22T07:54:46Z</time>
      </trkpt>
      <trkpt lat="44.44113" lon="1.58863">
        <ele>299.4</ele>
        <time>2026-03-22T07:54:47Z</time>
      </trkpt>
      <trkpt lat="44.44115" lon="1.58861">
        <ele>299.8</ele>
        <time>2026-03-22T07:54:48Z</time>
      </trkpt>
      <trkpt lat="44.44118" lon="1.58857">
        <ele>300.4</ele>
        <time>2026-03-22T07:54:49Z</time>
      </trkpt>
      <trkpt lat="44.44121" lon="1.58853">
        <ele>301</ele>
        <time>2026-03-22T07:54:50Z</time>
      </trkpt>
      <trkpt lat="44.44124" lon="1.58849">
        <ele>301.4</ele>
        <time>2026-03-22T07:54:51Z</time>
      </trkpt>
      <trkpt lat="44.44126" lon="1.58845">
        <ele>301.8</ele>
        <time>2026-03-22T07:54:52Z</time>
      </trkpt>
      <trkpt lat="44.44128" lon="1.58841">
        <ele>302.4</ele>
        <time>2026-03-22T07:54:53Z</time>
      </trkpt>
      <trkpt lat="44.4413" lon="1.58837">
        <ele>302.8</ele>
        <time>2026-03-22T07:54:54Z</time>
      </trkpt>
      <trkpt lat="44.44132" lon="1.58833">
        <ele>303.2</ele>
        <time>2026-03-22T07:54:55Z</time>
      </trkpt>
      <trkpt lat="44.44134" lon="1.58829">
        <ele>304</ele>
        <time>2026-03-22T07:54:56Z</time>
      </trkpt>
      <trkpt lat="44.44136" lon="1.58825">
        <ele>304.8</ele>
        <time>2026-03-22T07:54:57Z</time>
      </trkpt>
      <trkpt lat="44.44139" lon="1.58822">
        <ele>305.2</ele>
        <time>2026-03-22T07:54:58Z</time>
      </trkpt>
      <trkpt lat="44.44142" lon="1.58818">
        <ele>305.6</ele>
        <time>2026-03-22T07:54:59Z</time>
      </trkpt>
      <trkpt lat="44.44145" lon="1.58814">
        <ele>306</ele>
        <time>2026-03-22T07:55:00Z</time>
      </trkpt>
      <trkpt lat="44.44148" lon="1.5881">
        <ele>306.6</ele>
        <time>2026-03-22T07:55:01Z</time>
      </trkpt>
      <trkpt lat="44.4415" lon="1.58807">
        <ele>307</ele>
        <time>2026-03-22T07:55:02Z</time>
      </trkpt>
      <trkpt lat="44.44153" lon="1.58802">
        <ele>308</ele>
        <time>2026-03-22T07:55:03Z</time>
      </trkpt>
      <trkpt lat="44.44156" lon="1.58799">
        <ele>308.6</ele>
        <time>2026-03-22T07:55:04Z</time>
      </trkpt>
      <trkpt lat="44.44159" lon="1.58796">
        <ele>309</ele>
        <time>2026-03-22T07:55:05Z</time>
      </trkpt>
      <trkpt lat="44.44163" lon="1.58793">
        <ele>309.4</ele>
        <time>2026-03-22T07:55:06Z</time>
      </trkpt>
      <trkpt lat="44.44166" lon="1.58791">
        <ele>309.8</ele>
        <time>2026-03-22T07:55:07Z</time>
      </trkpt>
      <trkpt lat="44.44171" lon="1.58789">
        <ele>310.2</ele>
        <time>2026-03-22T07:55:08Z</time>
      </trkpt>
      <trkpt lat="44.44175" lon="1.58787">
        <ele>310.6</ele>
        <time>2026-03-22T07:55:09Z</time>
      </trkpt>
      <trkpt lat="44.4418" lon="1.58785">
        <ele>310.8</ele>
        <time>2026-03-22T07:55:10Z</time>
      </trkpt>
      <trkpt lat="44.44184" lon="1.58783">
        <ele>311</ele>
        <time>2026-03-22T07:55:11Z</time>
      </trkpt>
      <trkpt lat="44.44189" lon="1.58781">
        <ele>311.2</ele>
        <time>2026-03-22T07:55:12Z</time>
      </trkpt>
      <trkpt lat="44.44193" lon="1.58779">
        <ele>311.4</ele>
        <time>2026-03-22T07:55:13Z</time>
      </trkpt>
      <trkpt lat="44.44198" lon="1.58777">
        <ele>311.6</ele>
        <time>2026-03-22T07:55:14Z</time>
      </trkpt>
      <trkpt lat="44.44203" lon="1.58775">
        <ele>312</ele>
        <time>2026-03-22T07:55:15Z</time>
      </trkpt>
      <trkpt lat="44.44207" lon="1.58773">
        <ele>312.2</ele>
        <time>2026-03-22T07:55:16Z</time>
      </trkpt>
      <trkpt lat="44.44212" lon="1.58772">
        <ele>312.2</ele>
        <time>2026-03-22T07:55:17Z</time>
      </trkpt>
      <trkpt lat="44.44218" lon="1.58769">
        <ele>312.4</ele>
        <time>2026-03-22T07:55:18Z</time>
      </trkpt>
      <trkpt lat="44.44223" lon="1.58767">
        <ele>312.6</ele>
        <time>2026-03-22T07:55:19Z</time>
      </trkpt>
      <trkpt lat="44.44228" lon="1.58764">
        <ele>312.8</ele>
        <time>2026-03-22T07:55:20Z</time>
      </trkpt>
      <trkpt lat="44.44233" lon="1.58761">
        <ele>312.8</ele>
        <time>2026-03-22T07:55:21Z</time>
      </trkpt>
      <trkpt lat="44.44237" lon="1.58759">
        <ele>312.8</ele>
        <time>2026-03-22T07:55:22Z</time>
      </trkpt>
      <trkpt lat="44.44244" lon="1.58756">
        <ele>312.8</ele>
        <time>2026-03-22T07:55:23Z</time>
      </trkpt>
      <trkpt lat="44.44249" lon="1.58754">
        <ele>312.8</ele>
        <time>2026-03-22T07:55:24Z</time>
      </trkpt>
      <trkpt lat="44.44255" lon="1.58753">
        <ele>312.8</ele>
        <time>2026-03-22T07:55:25Z</time>
      </trkpt>
      <trkpt lat="44.44261" lon="1.58752">
        <ele>312.8</ele>
        <time>2026-03-22T07:55:26Z</time>
      </trkpt>
      <trkpt lat="44.44267" lon="1.58751">
        <ele>312.8</ele>
        <time>2026-03-22T07:55:27Z</time>
      </trkpt>
      <trkpt lat="44.44274" lon="1.58751">
        <ele>312.8</ele>
        <time>2026-03-22T07:55:28Z</time>
      </trkpt>
      <trkpt lat="44.4428" lon="1.58751">
        <ele>312.8</ele>
        <time>2026-03-22T07:55:29Z</time>
      </trkpt>
      <trkpt lat="44.44285" lon="1.58752">
        <ele>312.4</ele>
        <time>2026-03-22T07:55:30Z</time>
      </trkpt>
      <trkpt lat="44.44292" lon="1.58753">
        <ele>312.2</ele>
        <time>2026-03-22T07:55:31Z</time>
      </trkpt>
      <trkpt lat="44.44298" lon="1.58753">
        <ele>312</ele>
        <time>2026-03-22T07:55:32Z</time>
      </trkpt>
      <trkpt lat="44.44305" lon="1.58753">
        <ele>311.8</ele>
        <time>2026-03-22T07:55:33Z</time>
      </trkpt>
      <trkpt lat="44.44312" lon="1.58753">
        <ele>311.6</ele>
        <time>2026-03-22T07:55:34Z</time>
      </trkpt>
      <trkpt lat="44.44319" lon="1.58753">
        <ele>311.6</ele>
        <time>2026-03-22T07:55:35Z</time>
      </trkpt>
      <trkpt lat="44.44326" lon="1.58753">
        <ele>311.2</ele>
        <time>2026-03-22T07:55:36Z</time>
      </trkpt>
      <trkpt lat="44.44334" lon="1.58754">
        <ele>311</ele>
        <time>2026-03-22T07:55:37Z</time>
      </trkpt>
      <trkpt lat="44.4435" lon="1.58754">
        <ele>310.6</ele>
        <time>2026-03-22T07:55:39Z</time>
      </trkpt>
      <trkpt lat="44.44375" lon="1.58752">
        <ele>309.6</ele>
        <time>2026-03-22T07:55:42Z</time>
      </trkpt>
      <trkpt lat="44.44382" lon="1.58751">
        <ele>308.8</ele>
        <time>2026-03-22T07:55:43Z</time>
      </trkpt>
      <trkpt lat="44.4439" lon="1.5875">
        <ele>308.2</ele>
        <time>2026-03-22T07:55:44Z</time>
      </trkpt>
      <trkpt lat="44.44413" lon="1.58748">
        <ele>306.4</ele>
        <time>2026-03-22T07:55:47Z</time>
      </trkpt>
      <trkpt lat="44.4443" lon="1.58747">
        <ele>305.4</ele>
        <time>2026-03-22T07:55:49Z</time>
      </trkpt>
      <trkpt lat="44.44444" lon="1.58746">
        <ele>304.2</ele>
        <time>2026-03-22T07:55:51Z</time>
      </trkpt>
      <trkpt lat="44.44451" lon="1.58746">
        <ele>304</ele>
        <time>2026-03-22T07:55:52Z</time>
      </trkpt>
      <trkpt lat="44.44457" lon="1.58745">
        <ele>303.8</ele>
        <time>2026-03-22T07:55:53Z</time>
      </trkpt>
      <trkpt lat="44.44464" lon="1.58745">
        <ele>303.6</ele>
        <time>2026-03-22T07:55:54Z</time>
      </trkpt>
      <trkpt lat="44.4447" lon="1.58744">
        <ele>303.6</ele>
        <time>2026-03-22T07:55:55Z</time>
      </trkpt>
      <trkpt lat="44.44477" lon="1.58743">
        <ele>303.4</ele>
        <time>2026-03-22T07:55:56Z</time>
      </trkpt>
      <trkpt lat="44.44489" lon="1.58741">
        <ele>303.2</ele>
        <time>2026-03-22T07:55:58Z</time>
      </trkpt>
      <trkpt lat="44.44496" lon="1.58738">
        <ele>303.2</ele>
        <time>2026-03-22T07:55:59Z</time>
      </trkpt>
      <trkpt lat="44.44501" lon="1.58736">
        <ele>303.2</ele>
        <time>2026-03-22T07:56:00Z</time>
      </trkpt>
      <trkpt lat="44.44507" lon="1.58733">
        <ele>303.2</ele>
        <time>2026-03-22T07:56:01Z</time>
      </trkpt>
      <trkpt lat="44.44513" lon="1.5873">
        <ele>303.2</ele>
        <time>2026-03-22T07:56:02Z</time>
      </trkpt>
      <trkpt lat="44.44519" lon="1.58727">
        <ele>303.2</ele>
        <time>2026-03-22T07:56:03Z</time>
      </trkpt>
      <trkpt lat="44.44525" lon="1.58724">
        <ele>303.2</ele>
        <time>2026-03-22T07:56:04Z</time>
      </trkpt>
      <trkpt lat="44.4453" lon="1.58722">
        <ele>303.2</ele>
        <time>2026-03-22T07:56:05Z</time>
      </trkpt>
      <trkpt lat="44.44536" lon="1.58719">
        <ele>303.2</ele>
        <time>2026-03-22T07:56:06Z</time>
      </trkpt>
      <trkpt lat="44.44541" lon="1.58717">
        <ele>303.2</ele>
        <time>2026-03-22T07:56:07Z</time>
      </trkpt>
      <trkpt lat="44.44547" lon="1.58715">
        <ele>303.2</ele>
        <time>2026-03-22T07:56:08Z</time>
      </trkpt>
      <trkpt lat="44.44552" lon="1.58713">
        <ele>303.2</ele>
        <time>2026-03-22T07:56:09Z</time>
      </trkpt>
      <trkpt lat="44.44558" lon="1.58711">
        <ele>303.2</ele>
        <time>2026-03-22T07:56:10Z</time>
      </trkpt>
      <trkpt lat="44.44563" lon="1.58709">
        <ele>303.4</ele>
        <time>2026-03-22T07:56:11Z</time>
      </trkpt>
      <trkpt lat="44.44568" lon="1.58706">
        <ele>303.4</ele>
        <time>2026-03-22T07:56:12Z</time>
      </trkpt>
      <trkpt lat="44.44573" lon="1.58703">
        <ele>303.8</ele>
        <time>2026-03-22T07:56:13Z</time>
      </trkpt>
      <trkpt lat="44.44578" lon="1.587">
        <ele>304</ele>
        <time>2026-03-22T07:56:14Z</time>
      </trkpt>
      <trkpt lat="44.44583" lon="1.58697">
        <ele>304.2</ele>
        <time>2026-03-22T07:56:15Z</time>
      </trkpt>
      <trkpt lat="44.44599" lon="1.5869">
        <ele>304.4</ele>
        <time>2026-03-22T07:56:18Z</time>
      </trkpt>
      <trkpt lat="44.44611" lon="1.58686">
        <ele>304.4</ele>
        <time>2026-03-22T07:56:20Z</time>
      </trkpt>
      <trkpt lat="44.4463" lon="1.58675">
        <ele>304.4</ele>
        <time>2026-03-22T07:56:23Z</time>
      </trkpt>
      <trkpt lat="44.44642" lon="1.58664">
        <ele>304.4</ele>
        <time>2026-03-22T07:56:25Z</time>
      </trkpt>
      <trkpt lat="44.44653" lon="1.58649">
        <ele>303.6</ele>
        <time>2026-03-22T07:56:27Z</time>
      </trkpt>
      <trkpt lat="44.4467" lon="1.58624">
        <ele>302</ele>
        <time>2026-03-22T07:56:30Z</time>
      </trkpt>
      <trkpt lat="44.44675" lon="1.58615">
        <ele>301.6</ele>
        <time>2026-03-22T07:56:31Z</time>
      </trkpt>
      <trkpt lat="44.44685" lon="1.58597">
        <ele>300.8</ele>
        <time>2026-03-22T07:56:33Z</time>
      </trkpt>
      <trkpt lat="44.44697" lon="1.58579">
        <ele>299.8</ele>
        <time>2026-03-22T07:56:35Z</time>
      </trkpt>
      <trkpt lat="44.4471" lon="1.58565">
        <ele>298.6</ele>
        <time>2026-03-22T07:56:37Z</time>
      </trkpt>
      <trkpt lat="44.44717" lon="1.58559">
        <ele>297.8</ele>
        <time>2026-03-22T07:56:38Z</time>
      </trkpt>
      <trkpt lat="44.44724" lon="1.58552">
        <ele>297.2</ele>
        <time>2026-03-22T07:56:39Z</time>
      </trkpt>
      <trkpt lat="44.4474" lon="1.58538">
        <ele>295.6</ele>
        <time>2026-03-22T07:56:41Z</time>
      </trkpt>
      <trkpt lat="44.44762" lon="1.58518">
        <ele>294.2</ele>
        <time>2026-03-22T07:56:44Z</time>
      </trkpt>
      <trkpt lat="44.44768" lon="1.58513">
        <ele>293.8</ele>
        <time>2026-03-22T07:56:45Z</time>
      </trkpt>
      <trkpt lat="44.44776" lon="1.58506">
        <ele>293.2</ele>
        <time>2026-03-22T07:56:46Z</time>
      </trkpt>
      <trkpt lat="44.44788" lon="1.58495">
        <ele>292.2</ele>
        <time>2026-03-22T07:56:48Z</time>
      </trkpt>
      <trkpt lat="44.44794" lon="1.58489">
        <ele>291.8</ele>
        <time>2026-03-22T07:56:49Z</time>
      </trkpt>
      <trkpt lat="44.44801" lon="1.58482">
        <ele>291.6</ele>
        <time>2026-03-22T07:56:50Z</time>
      </trkpt>
      <trkpt lat="44.44807" lon="1.58477">
        <ele>291.4</ele>
        <time>2026-03-22T07:56:51Z</time>
      </trkpt>
      <trkpt lat="44.44812" lon="1.58472">
        <ele>291.2</ele>
        <time>2026-03-22T07:56:52Z</time>
      </trkpt>
      <trkpt lat="44.44818" lon="1.58467">
        <ele>291.2</ele>
        <time>2026-03-22T07:56:53Z</time>
      </trkpt>
      <trkpt lat="44.44823" lon="1.58462">
        <ele>291</ele>
        <time>2026-03-22T07:56:54Z</time>
      </trkpt>
      <trkpt lat="44.44828" lon="1.58457">
        <ele>291</ele>
        <time>2026-03-22T07:56:55Z</time>
      </trkpt>
      <trkpt lat="44.44832" lon="1.58451">
        <ele>291</ele>
        <time>2026-03-22T07:56:56Z</time>
      </trkpt>
      <trkpt lat="44.44841" lon="1.5844">
        <ele>291</ele>
        <time>2026-03-22T07:56:58Z</time>
      </trkpt>
      <trkpt lat="44.44845" lon="1.58434">
        <ele>291</ele>
        <time>2026-03-22T07:56:59Z</time>
      </trkpt>
      <trkpt lat="44.44853" lon="1.58422">
        <ele>291</ele>
        <time>2026-03-22T07:57:01Z</time>
      </trkpt>
      <trkpt lat="44.44857" lon="1.58416">
        <ele>291</ele>
        <time>2026-03-22T07:57:02Z</time>
      </trkpt>
      <trkpt lat="44.44861" lon="1.58412">
        <ele>291</ele>
        <time>2026-03-22T07:57:03Z</time>
      </trkpt>
      <trkpt lat="44.44866" lon="1.58409">
        <ele>291</ele>
        <time>2026-03-22T07:57:04Z</time>
      </trkpt>
      <trkpt lat="44.44871" lon="1.58407">
        <ele>291</ele>
        <time>2026-03-22T07:57:05Z</time>
      </trkpt>
      <trkpt lat="44.44875" lon="1.58405">
        <ele>291</ele>
        <time>2026-03-22T07:57:06Z</time>
      </trkpt>
      <trkpt lat="44.44881" lon="1.58404">
        <ele>291.2</ele>
        <time>2026-03-22T07:57:07Z</time>
      </trkpt>
      <trkpt lat="44.44885" lon="1.58404">
        <ele>291.2</ele>
        <time>2026-03-22T07:57:08Z</time>
      </trkpt>
      <trkpt lat="44.44889" lon="1.58404">
        <ele>291.2</ele>
        <time>2026-03-22T07:57:09Z</time>
      </trkpt>
      <trkpt lat="44.44893" lon="1.58404">
        <ele>291.2</ele>
        <time>2026-03-22T07:57:10Z</time>
      </trkpt>
      <trkpt lat="44.44901" lon="1.58407">
        <ele>291.4</ele>
        <time>2026-03-22T07:57:12Z</time>
      </trkpt>
      <trkpt lat="44.44906" lon="1.58407">
        <ele>291.4</ele>
        <time>2026-03-22T07:57:13Z</time>
      </trkpt>
      <trkpt lat="44.4491" lon="1.58406">
        <ele>292</ele>
        <time>2026-03-22T07:57:14Z</time>
      </trkpt>
      <trkpt lat="44.44914" lon="1.58404">
        <ele>292.2</ele>
        <time>2026-03-22T07:57:15Z</time>
      </trkpt>
      <trkpt lat="44.44918" lon="1.58403">
        <ele>292.6</ele>
        <time>2026-03-22T07:57:16Z</time>
      </trkpt>
      <trkpt lat="44.44923" lon="1.58403">
        <ele>293</ele>
        <time>2026-03-22T07:57:17Z</time>
      </trkpt>
      <trkpt lat="44.44927" lon="1.58403">
        <ele>293.4</ele>
        <time>2026-03-22T07:57:18Z</time>
      </trkpt>
      <trkpt lat="44.4493" lon="1.58402">
        <ele>294</ele>
        <time>2026-03-22T07:57:19Z</time>
      </trkpt>
      <trkpt lat="44.44934" lon="1.58402">
        <ele>294.6</ele>
        <time>2026-03-22T07:57:20Z</time>
      </trkpt>
      <trkpt lat="44.44938" lon="1.58401">
        <ele>295</ele>
        <time>2026-03-22T07:57:21Z</time>
      </trkpt>
      <trkpt lat="44.44941" lon="1.584">
        <ele>295.6</ele>
        <time>2026-03-22T07:57:22Z</time>
      </trkpt>
      <trkpt lat="44.44948" lon="1.58398">
        <ele>296.6</ele>
        <time>2026-03-22T07:57:24Z</time>
      </trkpt>
      <trkpt lat="44.44953" lon="1.58397">
        <ele>297</ele>
        <time>2026-03-22T07:57:25Z</time>
      </trkpt>
      <trkpt lat="44.44957" lon="1.58397">
        <ele>297.2</ele>
        <time>2026-03-22T07:57:26Z</time>
      </trkpt>
      <trkpt lat="44.4496" lon="1.58396">
        <ele>297.6</ele>
        <time>2026-03-22T07:57:27Z</time>
      </trkpt>
      <trkpt lat="44.44963" lon="1.58395">
        <ele>298.2</ele>
        <time>2026-03-22T07:57:28Z</time>
      </trkpt>
      <trkpt lat="44.44967" lon="1.58393">
        <ele>298.6</ele>
        <time>2026-03-22T07:57:29Z</time>
      </trkpt>
      <trkpt lat="44.44969" lon="1.58392">
        <ele>298.8</ele>
        <time>2026-03-22T07:57:30Z</time>
      </trkpt>
      <trkpt lat="44.44973" lon="1.58391">
        <ele>299.4</ele>
        <time>2026-03-22T07:57:31Z</time>
      </trkpt>
      <trkpt lat="44.44976" lon="1.58389">
        <ele>299.8</ele>
        <time>2026-03-22T07:57:32Z</time>
      </trkpt>
      <trkpt lat="44.4498" lon="1.58386">
        <ele>300</ele>
        <time>2026-03-22T07:57:33Z</time>
      </trkpt>
      <trkpt lat="44.44983" lon="1.58384">
        <ele>300.6</ele>
        <time>2026-03-22T07:57:34Z</time>
      </trkpt>
      <trkpt lat="44.44986" lon="1.58381">
        <ele>301</ele>
        <time>2026-03-22T07:57:35Z</time>
      </trkpt>
      <trkpt lat="44.44989" lon="1.58378">
        <ele>301.4</ele>
        <time>2026-03-22T07:57:36Z</time>
      </trkpt>
      <trkpt lat="44.4499" lon="1.58376">
        <ele>302</ele>
        <time>2026-03-22T07:57:37Z</time>
      </trkpt>
      <trkpt lat="44.44992" lon="1.58373">
        <ele>302.8</ele>
        <time>2026-03-22T07:57:38Z</time>
      </trkpt>
      <trkpt lat="44.44994" lon="1.5837">
        <ele>303</ele>
        <time>2026-03-22T07:57:39Z</time>
      </trkpt>
      <trkpt lat="44.44996" lon="1.58366">
        <ele>303.8</ele>
        <time>2026-03-22T07:57:40Z</time>
      </trkpt>
      <trkpt lat="44.44998" lon="1.58361">
        <ele>304.2</ele>
        <time>2026-03-22T07:57:41Z</time>
      </trkpt>
      <trkpt lat="44.45" lon="1.58357">
        <ele>304.4</ele>
        <time>2026-03-22T07:57:42Z</time>
      </trkpt>
      <trkpt lat="44.45002" lon="1.58353">
        <ele>305.6</ele>
        <time>2026-03-22T07:57:43Z</time>
      </trkpt>
      <trkpt lat="44.45004" lon="1.58349">
        <ele>306.4</ele>
        <time>2026-03-22T07:57:44Z</time>
      </trkpt>
      <trkpt lat="44.45005" lon="1.58345">
        <ele>306.8</ele>
        <time>2026-03-22T07:57:45Z</time>
      </trkpt>
      <trkpt lat="44.45006" lon="1.5834">
        <ele>307.4</ele>
        <time>2026-03-22T07:57:46Z</time>
      </trkpt>
      <trkpt lat="44.45007" lon="1.58335">
        <ele>307.8</ele>
        <time>2026-03-22T07:57:47Z</time>
      </trkpt>
      <trkpt lat="44.45008" lon="1.5833">
        <ele>308.4</ele>
        <time>2026-03-22T07:57:48Z</time>
      </trkpt>
      <trkpt lat="44.45009" lon="1.58324">
        <ele>308.8</ele>
        <time>2026-03-22T07:57:49Z</time>
      </trkpt>
      <trkpt lat="44.4501" lon="1.58319">
        <ele>309.2</ele>
        <time>2026-03-22T07:57:50Z</time>
      </trkpt>
      <trkpt lat="44.4501" lon="1.58315">
        <ele>309.6</ele>
        <time>2026-03-22T07:57:51Z</time>
      </trkpt>
      <trkpt lat="44.45012" lon="1.5831">
        <ele>310</ele>
        <time>2026-03-22T07:57:52Z</time>
      </trkpt>
      <trkpt lat="44.45014" lon="1.58304">
        <ele>310.4</ele>
        <time>2026-03-22T07:57:53Z</time>
      </trkpt>
      <trkpt lat="44.45015" lon="1.58298">
        <ele>310.8</ele>
        <time>2026-03-22T07:57:54Z</time>
      </trkpt>
      <trkpt lat="44.45017" lon="1.58292">
        <ele>311.2</ele>
        <time>2026-03-22T07:57:55Z</time>
      </trkpt>
      <trkpt lat="44.45018" lon="1.58286">
        <ele>311.6</ele>
        <time>2026-03-22T07:57:56Z</time>
      </trkpt>
      <trkpt lat="44.45019" lon="1.58281">
        <ele>312</ele>
        <time>2026-03-22T07:57:57Z</time>
      </trkpt>
      <trkpt lat="44.45021" lon="1.58275">
        <ele>312.2</ele>
        <time>2026-03-22T07:57:58Z</time>
      </trkpt>
      <trkpt lat="44.45022" lon="1.58269">
        <ele>312.4</ele>
        <time>2026-03-22T07:57:59Z</time>
      </trkpt>
      <trkpt lat="44.45023" lon="1.58264">
        <ele>312.8</ele>
        <time>2026-03-22T07:58:00Z</time>
      </trkpt>
      <trkpt lat="44.45024" lon="1.5826">
        <ele>313</ele>
        <time>2026-03-22T07:58:01Z</time>
      </trkpt>
      <trkpt lat="44.45024" lon="1.58255">
        <ele>313.4</ele>
        <time>2026-03-22T07:58:02Z</time>
      </trkpt>
      <trkpt lat="44.45025" lon="1.58249">
        <ele>313.8</ele>
        <time>2026-03-22T07:58:03Z</time>
      </trkpt>
      <trkpt lat="44.45025" lon="1.58244">
        <ele>314.2</ele>
        <time>2026-03-22T07:58:04Z</time>
      </trkpt>
      <trkpt lat="44.45026" lon="1.58238">
        <ele>314.6</ele>
        <time>2026-03-22T07:58:05Z</time>
      </trkpt>
      <trkpt lat="44.45028" lon="1.58233">
        <ele>315</ele>
        <time>2026-03-22T07:58:06Z</time>
      </trkpt>
      <trkpt lat="44.4503" lon="1.5823">
        <ele>315.6</ele>
        <time>2026-03-22T07:58:07Z</time>
      </trkpt>
      <trkpt lat="44.45033" lon="1.58226">
        <ele>316</ele>
        <time>2026-03-22T07:58:08Z</time>
      </trkpt>
      <trkpt lat="44.45036" lon="1.58226">
        <ele>316.4</ele>
        <time>2026-03-22T07:58:09Z</time>
      </trkpt>
      <trkpt lat="44.45039" lon="1.58228">
        <ele>316.8</ele>
        <time>2026-03-22T07:58:10Z</time>
      </trkpt>
      <trkpt lat="44.45044" lon="1.58232">
        <ele>317.2</ele>
        <time>2026-03-22T07:58:11Z</time>
      </trkpt>
      <trkpt lat="44.45047" lon="1.58236">
        <ele>317.4</ele>
        <time>2026-03-22T07:58:12Z</time>
      </trkpt>
      <trkpt lat="44.4505" lon="1.58239">
        <ele>317.8</ele>
        <time>2026-03-22T07:58:13Z</time>
      </trkpt>
      <trkpt lat="44.45054" lon="1.58243">
        <ele>318.2</ele>
        <time>2026-03-22T07:58:14Z</time>
      </trkpt>
      <trkpt lat="44.45058" lon="1.58247">
        <ele>318.8</ele>
        <time>2026-03-22T07:58:15Z</time>
      </trkpt>
      <trkpt lat="44.45063" lon="1.58252">
        <ele>319.4</ele>
        <time>2026-03-22T07:58:16Z</time>
      </trkpt>
      <trkpt lat="44.45067" lon="1.58257">
        <ele>320</ele>
        <time>2026-03-22T07:58:17Z</time>
      </trkpt>
      <trkpt lat="44.45071" lon="1.58261">
        <ele>320.2</ele>
        <time>2026-03-22T07:58:18Z</time>
      </trkpt>
      <trkpt lat="44.45075" lon="1.58265">
        <ele>320.4</ele>
        <time>2026-03-22T07:58:19Z</time>
      </trkpt>
      <trkpt lat="44.45079" lon="1.58269">
        <ele>320.6</ele>
        <time>2026-03-22T07:58:20Z</time>
      </trkpt>
      <trkpt lat="44.45082" lon="1.58274">
        <ele>320.8</ele>
        <time>2026-03-22T07:58:21Z</time>
      </trkpt>
      <trkpt lat="44.45085" lon="1.58277">
        <ele>321</ele>
        <time>2026-03-22T07:58:22Z</time>
      </trkpt>
      <trkpt lat="44.4509" lon="1.58283">
        <ele>321.4</ele>
        <time>2026-03-22T07:58:23Z</time>
      </trkpt>
      <trkpt lat="44.45095" lon="1.58289">
        <ele>321.8</ele>
        <time>2026-03-22T07:58:24Z</time>
      </trkpt>
      <trkpt lat="44.45099" lon="1.58293">
        <ele>322</ele>
        <time>2026-03-22T07:58:25Z</time>
      </trkpt>
      <trkpt lat="44.45105" lon="1.58298">
        <ele>322.2</ele>
        <time>2026-03-22T07:58:26Z</time>
      </trkpt>
      <trkpt lat="44.4511" lon="1.58302">
        <ele>322.2</ele>
        <time>2026-03-22T07:58:27Z</time>
      </trkpt>
      <trkpt lat="44.45114" lon="1.58306">
        <ele>322.8</ele>
        <time>2026-03-22T07:58:28Z</time>
      </trkpt>
      <trkpt lat="44.45119" lon="1.58311">
        <ele>323</ele>
        <time>2026-03-22T07:58:29Z</time>
      </trkpt>
      <trkpt lat="44.45124" lon="1.58315">
        <ele>323.2</ele>
        <time>2026-03-22T07:58:30Z</time>
      </trkpt>
      <trkpt lat="44.45128" lon="1.5832">
        <ele>323.2</ele>
        <time>2026-03-22T07:58:31Z</time>
      </trkpt>
      <trkpt lat="44.45133" lon="1.58327">
        <ele>323.2</ele>
        <time>2026-03-22T07:58:32Z</time>
      </trkpt>
      <trkpt lat="44.45137" lon="1.58334">
        <ele>323.2</ele>
        <time>2026-03-22T07:58:33Z</time>
      </trkpt>
      <trkpt lat="44.4514" lon="1.5834">
        <ele>323.4</ele>
        <time>2026-03-22T07:58:34Z</time>
      </trkpt>
      <trkpt lat="44.45145" lon="1.58348">
        <ele>323.4</ele>
        <time>2026-03-22T07:58:35Z</time>
      </trkpt>
      <trkpt lat="44.45151" lon="1.58355">
        <ele>323.4</ele>
        <time>2026-03-22T07:58:36Z</time>
      </trkpt>
      <trkpt lat="44.45156" lon="1.58363">
        <ele>323.4</ele>
        <time>2026-03-22T07:58:37Z</time>
      </trkpt>
      <trkpt lat="44.45162" lon="1.5837">
        <ele>323.2</ele>
        <time>2026-03-22T07:58:38Z</time>
      </trkpt>
      <trkpt lat="44.45168" lon="1.58376">
        <ele>323.2</ele>
        <time>2026-03-22T07:58:39Z</time>
      </trkpt>
      <trkpt lat="44.45174" lon="1.58382">
        <ele>323</ele>
        <time>2026-03-22T07:58:40Z</time>
      </trkpt>
      <trkpt lat="44.45178" lon="1.58385">
        <ele>322.6</ele>
        <time>2026-03-22T07:58:41Z</time>
      </trkpt>
      <trkpt lat="44.45181" lon="1.58385">
        <ele>321.8</ele>
        <time>2026-03-22T07:58:42Z</time>
      </trkpt>
      <trkpt lat="44.45183" lon="1.58381">
        <ele>321.4</ele>
        <time>2026-03-22T07:58:43Z</time>
      </trkpt>
      <trkpt lat="44.45184" lon="1.58378">
        <ele>320.4</ele>
        <time>2026-03-22T07:58:44Z</time>
      </trkpt>
      <trkpt lat="44.45186" lon="1.58372">
        <ele>319.6</ele>
        <time>2026-03-22T07:58:45Z</time>
      </trkpt>
      <trkpt lat="44.45187" lon="1.58367">
        <ele>318</ele>
        <time>2026-03-22T07:58:46Z</time>
      </trkpt>
      <trkpt lat="44.45188" lon="1.58361">
        <ele>317</ele>
        <time>2026-03-22T07:58:47Z</time>
      </trkpt>
      <trkpt lat="44.45189" lon="1.58356">
        <ele>316.4</ele>
        <time>2026-03-22T07:58:48Z</time>
      </trkpt>
      <trkpt lat="44.45191" lon="1.58346">
        <ele>315.8</ele>
        <time>2026-03-22T07:58:50Z</time>
      </trkpt>
      <trkpt lat="44.45197" lon="1.58322">
        <ele>315.6</ele>
        <time>2026-03-22T07:58:54Z</time>
      </trkpt>
      <trkpt lat="44.45201" lon="1.58304">
        <ele>315.6</ele>
        <time>2026-03-22T07:58:57Z</time>
      </trkpt>
      <trkpt lat="44.45208" lon="1.58283">
        <ele>315.6</ele>
        <time>2026-03-22T07:59:00Z</time>
      </trkpt>
      <trkpt lat="44.45217" lon="1.58263">
        <ele>315.4</ele>
        <time>2026-03-22T07:59:03Z</time>
      </trkpt>
      <trkpt lat="44.45219" lon="1.58258">
        <ele>315.4</ele>
        <time>2026-03-22T07:59:04Z</time>
      </trkpt>
      <trkpt lat="44.4522" lon="1.58254">
        <ele>315.4</ele>
        <time>2026-03-22T07:59:05Z</time>
      </trkpt>
      <trkpt lat="44.45222" lon="1.5825">
        <ele>315.2</ele>
        <time>2026-03-22T07:59:06Z</time>
      </trkpt>
      <trkpt lat="44.45223" lon="1.58247">
        <ele>314.8</ele>
        <time>2026-03-22T07:59:07Z</time>
      </trkpt>
      <trkpt lat="44.45224" lon="1.58243">
        <ele>314</ele>
        <time>2026-03-22T07:59:08Z</time>
      </trkpt>
      <trkpt lat="44.45227" lon="1.58237">
        <ele>313.4</ele>
        <time>2026-03-22T07:59:09Z</time>
      </trkpt>
      <trkpt lat="44.45234" lon="1.58218">
        <ele>312.2</ele>
        <time>2026-03-22T07:59:12Z</time>
      </trkpt>
      <trkpt lat="44.45238" lon="1.58205">
        <ele>311.2</ele>
        <time>2026-03-22T07:59:14Z</time>
      </trkpt>
      <trkpt lat="44.45242" lon="1.58197">
        <ele>311</ele>
        <time>2026-03-22T07:59:15Z</time>
      </trkpt>
      <trkpt lat="44.45248" lon="1.58184">
        <ele>310.4</ele>
        <time>2026-03-22T07:59:17Z</time>
      </trkpt>
      <trkpt lat="44.45254" lon="1.58171">
        <ele>309.8</ele>
        <time>2026-03-22T07:59:19Z</time>
      </trkpt>
      <trkpt lat="44.45264" lon="1.58148">
        <ele>308.8</ele>
        <time>2026-03-22T07:59:22Z</time>
      </trkpt>
      <trkpt lat="44.45273" lon="1.58129">
        <ele>308.6</ele>
        <time>2026-03-22T07:59:25Z</time>
      </trkpt>
      <trkpt lat="44.45284" lon="1.58109">
        <ele>308.4</ele>
        <time>2026-03-22T07:59:28Z</time>
      </trkpt>
      <trkpt lat="44.45287" lon="1.58105">
        <ele>308.4</ele>
        <time>2026-03-22T07:59:29Z</time>
      </trkpt>
      <trkpt lat="44.45292" lon="1.58098">
        <ele>308.4</ele>
        <time>2026-03-22T07:59:30Z</time>
      </trkpt>
      <trkpt lat="44.45297" lon="1.58088">
        <ele>308.2</ele>
        <time>2026-03-22T07:59:32Z</time>
      </trkpt>
      <trkpt lat="44.45314" lon="1.58065">
        <ele>308</ele>
        <time>2026-03-22T07:59:36Z</time>
      </trkpt>
      <trkpt lat="44.45318" lon="1.58061">
        <ele>307.8</ele>
        <time>2026-03-22T07:59:37Z</time>
      </trkpt>
      <trkpt lat="44.45321" lon="1.58057">
        <ele>307.8</ele>
        <time>2026-03-22T07:59:38Z</time>
      </trkpt>
      <trkpt lat="44.4533" lon="1.58049">
        <ele>307.8</ele>
        <time>2026-03-22T07:59:40Z</time>
      </trkpt>
      <trkpt lat="44.4534" lon="1.5804">
        <ele>308</ele>
        <time>2026-03-22T07:59:42Z</time>
      </trkpt>
      <trkpt lat="44.45344" lon="1.58034">
        <ele>307.8</ele>
        <time>2026-03-22T07:59:43Z</time>
      </trkpt>
      <trkpt lat="44.45348" lon="1.5803">
        <ele>307.6</ele>
        <time>2026-03-22T07:59:44Z</time>
      </trkpt>
      <trkpt lat="44.45353" lon="1.58025">
        <ele>307.6</ele>
        <time>2026-03-22T07:59:45Z</time>
      </trkpt>
      <trkpt lat="44.45367" lon="1.58013">
        <ele>307.2</ele>
        <time>2026-03-22T07:59:48Z</time>
      </trkpt>
      <trkpt lat="44.45371" lon="1.5801">
        <ele>307.2</ele>
        <time>2026-03-22T07:59:49Z</time>
      </trkpt>
      <trkpt lat="44.45376" lon="1.58007">
        <ele>307.2</ele>
        <time>2026-03-22T07:59:50Z</time>
      </trkpt>
      <trkpt lat="44.4538" lon="1.58003">
        <ele>307</ele>
        <time>2026-03-22T07:59:51Z</time>
      </trkpt>
      <trkpt lat="44.45381" lon="1.58002">
        <ele>307</ele>
        <time>2026-03-22T07:59:52Z</time>
      </trkpt>
      <trkpt lat="44.45383" lon="1.58001">
        <ele>307</ele>
        <time>2026-03-22T07:59:53Z</time>
      </trkpt>
      <trkpt lat="44.45384" lon="1.58">
        <ele>307</ele>
        <time>2026-03-22T07:59:54Z</time>
      </trkpt>
      <trkpt lat="44.45385" lon="1.58002">
        <ele>306.8</ele>
        <time>2026-03-22T07:59:55Z</time>
      </trkpt>
      <trkpt lat="44.45384" lon="1.58004">
        <ele>306.8</ele>
        <time>2026-03-22T07:59:56Z</time>
      </trkpt>
      <trkpt lat="44.45379" lon="1.58028">
        <ele>306.2</ele>
        <time>2026-03-22T08:00:00Z</time>
      </trkpt>
      <trkpt lat="44.45373" lon="1.58041">
        <ele>305.8</ele>
        <time>2026-03-22T08:00:02Z</time>
      </trkpt>
      <trkpt lat="44.45368" lon="1.5805">
        <ele>305.6</ele>
        <time>2026-03-22T08:00:03Z</time>
      </trkpt>
      <trkpt lat="44.45366" lon="1.58056">
        <ele>305.2</ele>
        <time>2026-03-22T08:00:04Z</time>
      </trkpt>
      <trkpt lat="44.45365" lon="1.58062">
        <ele>304.6</ele>
        <time>2026-03-22T08:00:05Z</time>
      </trkpt>
      <trkpt lat="44.45364" lon="1.58069">
        <ele>304</ele>
        <time>2026-03-22T08:00:06Z</time>
      </trkpt>
      <trkpt lat="44.45362" lon="1.58075">
        <ele>302.8</ele>
        <time>2026-03-22T08:00:07Z</time>
      </trkpt>
      <trkpt lat="44.4536" lon="1.58081">
        <ele>302</ele>
        <time>2026-03-22T08:00:08Z</time>
      </trkpt>
      <trkpt lat="44.45358" lon="1.58089">
        <ele>301.2</ele>
        <time>2026-03-22T08:00:09Z</time>
      </trkpt>
      <trkpt lat="44.45355" lon="1.58097">
        <ele>299.8</ele>
        <time>2026-03-22T08:00:10Z</time>
      </trkpt>
      <trkpt lat="44.45353" lon="1.58105">
        <ele>299</ele>
        <time>2026-03-22T08:00:11Z</time>
      </trkpt>
      <trkpt lat="44.45352" lon="1.58114">
        <ele>297.6</ele>
        <time>2026-03-22T08:00:12Z</time>
      </trkpt>
      <trkpt lat="44.4535" lon="1.58121">
        <ele>296.4</ele>
        <time>2026-03-22T08:00:13Z</time>
      </trkpt>
      <trkpt lat="44.45347" lon="1.58128">
        <ele>295.8</ele>
        <time>2026-03-22T08:00:14Z</time>
      </trkpt>
      <trkpt lat="44.45345" lon="1.58136">
        <ele>294.8</ele>
        <time>2026-03-22T08:00:15Z</time>
      </trkpt>
      <trkpt lat="44.45345" lon="1.58144">
        <ele>294</ele>
        <time>2026-03-22T08:00:16Z</time>
      </trkpt>
      <trkpt lat="44.45342" lon="1.58153">
        <ele>293.2</ele>
        <time>2026-03-22T08:00:17Z</time>
      </trkpt>
      <trkpt lat="44.4534" lon="1.58171">
        <ele>292</ele>
        <time>2026-03-22T08:00:19Z</time>
      </trkpt>
      <trkpt lat="44.45339" lon="1.58179">
        <ele>290.8</ele>
        <time>2026-03-22T08:00:20Z</time>
      </trkpt>
      <trkpt lat="44.45337" lon="1.58185">
        <ele>290.2</ele>
        <time>2026-03-22T08:00:21Z</time>
      </trkpt>
      <trkpt lat="44.45334" lon="1.58191">
        <ele>289.4</ele>
        <time>2026-03-22T08:00:22Z</time>
      </trkpt>
      <trkpt lat="44.45331" lon="1.58196">
        <ele>288.6</ele>
        <time>2026-03-22T08:00:23Z</time>
      </trkpt>
      <trkpt lat="44.45328" lon="1.582">
        <ele>288.2</ele>
        <time>2026-03-22T08:00:24Z</time>
      </trkpt>
      <trkpt lat="44.45323" lon="1.58206">
        <ele>287.6</ele>
        <time>2026-03-22T08:00:25Z</time>
      </trkpt>
      <trkpt lat="44.45319" lon="1.58212">
        <ele>286.4</ele>
        <time>2026-03-22T08:00:26Z</time>
      </trkpt>
      <trkpt lat="44.45317" lon="1.58218">
        <ele>285.4</ele>
        <time>2026-03-22T08:00:27Z</time>
      </trkpt>
      <trkpt lat="44.45314" lon="1.58223">
        <ele>284.8</ele>
        <time>2026-03-22T08:00:28Z</time>
      </trkpt>
      <trkpt lat="44.45312" lon="1.58228">
        <ele>284</ele>
        <time>2026-03-22T08:00:29Z</time>
      </trkpt>
      <trkpt lat="44.4531" lon="1.58233">
        <ele>283.6</ele>
        <time>2026-03-22T08:00:30Z</time>
      </trkpt>
      <trkpt lat="44.45309" lon="1.58239">
        <ele>283.2</ele>
        <time>2026-03-22T08:00:31Z</time>
      </trkpt>
      <trkpt lat="44.45307" lon="1.58246">
        <ele>283</ele>
        <time>2026-03-22T08:00:32Z</time>
      </trkpt>
      <trkpt lat="44.45303" lon="1.5827">
        <ele>282.8</ele>
        <time>2026-03-22T08:00:35Z</time>
      </trkpt>
      <trkpt lat="44.45301" lon="1.58277">
        <ele>282.8</ele>
        <time>2026-03-22T08:00:36Z</time>
      </trkpt>
      <trkpt lat="44.45299" lon="1.58285">
        <ele>282.8</ele>
        <time>2026-03-22T08:00:37Z</time>
      </trkpt>
      <trkpt lat="44.45298" lon="1.58293">
        <ele>282.6</ele>
        <time>2026-03-22T08:00:38Z</time>
      </trkpt>
      <trkpt lat="44.45299" lon="1.58302">
        <ele>282.2</ele>
        <time>2026-03-22T08:00:39Z</time>
      </trkpt>
      <trkpt lat="44.45301" lon="1.58311">
        <ele>281.8</ele>
        <time>2026-03-22T08:00:40Z</time>
      </trkpt>
      <trkpt lat="44.45304" lon="1.58318">
        <ele>281.6</ele>
        <time>2026-03-22T08:00:41Z</time>
      </trkpt>
      <trkpt lat="44.45305" lon="1.58325">
        <ele>281.6</ele>
        <time>2026-03-22T08:00:42Z</time>
      </trkpt>
      <trkpt lat="44.45306" lon="1.58333">
        <ele>281.4</ele>
        <time>2026-03-22T08:00:43Z</time>
      </trkpt>
      <trkpt lat="44.45308" lon="1.5834">
        <ele>281.4</ele>
        <time>2026-03-22T08:00:44Z</time>
      </trkpt>
      <trkpt lat="44.45308" lon="1.58347">
        <ele>281.2</ele>
        <time>2026-03-22T08:00:45Z</time>
      </trkpt>
      <trkpt lat="44.45309" lon="1.58356">
        <ele>281.2</ele>
        <time>2026-03-22T08:00:46Z</time>
      </trkpt>
      <trkpt lat="44.4531" lon="1.58372">
        <ele>280.8</ele>
        <time>2026-03-22T08:00:48Z</time>
      </trkpt>
      <trkpt lat="44.45311" lon="1.58391">
        <ele>280.4</ele>
        <time>2026-03-22T08:00:50Z</time>
      </trkpt>
      <trkpt lat="44.45316" lon="1.5841">
        <ele>280.2</ele>
        <time>2026-03-22T08:00:52Z</time>
      </trkpt>
      <trkpt lat="44.45318" lon="1.5842">
        <ele>280</ele>
        <time>2026-03-22T08:00:53Z</time>
      </trkpt>
      <trkpt lat="44.45324" lon="1.58436">
        <ele>279.4</ele>
        <time>2026-03-22T08:00:55Z</time>
      </trkpt>
      <trkpt lat="44.45327" lon="1.58442">
        <ele>279.2</ele>
        <time>2026-03-22T08:00:56Z</time>
      </trkpt>
      <trkpt lat="44.45328" lon="1.58449">
        <ele>279</ele>
        <time>2026-03-22T08:00:57Z</time>
      </trkpt>
      <trkpt lat="44.45329" lon="1.58456">
        <ele>278.8</ele>
        <time>2026-03-22T08:00:58Z</time>
      </trkpt>
      <trkpt lat="44.4533" lon="1.58462">
        <ele>278.8</ele>
        <time>2026-03-22T08:00:59Z</time>
      </trkpt>
      <trkpt lat="44.45331" lon="1.58467">
        <ele>278.8</ele>
        <time>2026-03-22T08:01:00Z</time>
      </trkpt>
      <trkpt lat="44.45332" lon="1.58471">
        <ele>278.8</ele>
        <time>2026-03-22T08:01:01Z</time>
      </trkpt>
      <trkpt lat="44.45332" lon="1.58476">
        <ele>278.8</ele>
        <time>2026-03-22T08:01:02Z</time>
      </trkpt>
      <trkpt lat="44.45333" lon="1.5848">
        <ele>278.8</ele>
        <time>2026-03-22T08:01:03Z</time>
      </trkpt>
      <trkpt lat="44.45336" lon="1.58501">
        <ele>279.4</ele>
        <time>2026-03-22T08:01:07Z</time>
      </trkpt>
      <trkpt lat="44.45338" lon="1.58513">
        <ele>280.2</ele>
        <time>2026-03-22T08:01:09Z</time>
      </trkpt>
      <trkpt lat="44.45343" lon="1.58531">
        <ele>280.8</ele>
        <time>2026-03-22T08:01:12Z</time>
      </trkpt>
      <trkpt lat="44.45344" lon="1.58537">
        <ele>280.8</ele>
        <time>2026-03-22T08:01:13Z</time>
      </trkpt>
      <trkpt lat="44.45349" lon="1.58552">
        <ele>281</ele>
        <time>2026-03-22T08:01:16Z</time>
      </trkpt>
      <trkpt lat="44.4535" lon="1.58556">
        <ele>281</ele>
        <time>2026-03-22T08:01:17Z</time>
      </trkpt>
      <trkpt lat="44.45352" lon="1.5856">
        <ele>281</ele>
        <time>2026-03-22T08:01:18Z</time>
      </trkpt>
      <trkpt lat="44.45354" lon="1.58565">
        <ele>281</ele>
        <time>2026-03-22T08:01:19Z</time>
      </trkpt>
      <trkpt lat="44.45356" lon="1.58569">
        <ele>281</ele>
        <time>2026-03-22T08:01:20Z</time>
      </trkpt>
      <trkpt lat="44.45362" lon="1.58582">
        <ele>281.2</ele>
        <time>2026-03-22T08:01:23Z</time>
      </trkpt>
      <trkpt lat="44.45364" lon="1.58586">
        <ele>281.2</ele>
        <time>2026-03-22T08:01:24Z</time>
      </trkpt>
      <trkpt lat="44.45365" lon="1.58589">
        <ele>281.2</ele>
        <time>2026-03-22T08:01:25Z</time>
      </trkpt>
      <trkpt lat="44.45367" lon="1.58593">
        <ele>281</ele>
        <time>2026-03-22T08:01:26Z</time>
      </trkpt>
      <trkpt lat="44.4537" lon="1.58596">
        <ele>281</ele>
        <time>2026-03-22T08:01:27Z</time>
      </trkpt>
      <trkpt lat="44.45378" lon="1.58608">
        <ele>281</ele>
        <time>2026-03-22T08:01:30Z</time>
      </trkpt>
      <trkpt lat="44.45385" lon="1.58616">
        <ele>281</ele>
        <time>2026-03-22T08:01:32Z</time>
      </trkpt>
      <trkpt lat="44.45388" lon="1.5862">
        <ele>281</ele>
        <time>2026-03-22T08:01:33Z</time>
      </trkpt>
      <trkpt lat="44.45391" lon="1.58624">
        <ele>280.8</ele>
        <time>2026-03-22T08:01:34Z</time>
      </trkpt>
      <trkpt lat="44.45394" lon="1.58628">
        <ele>280.8</ele>
        <time>2026-03-22T08:01:35Z</time>
      </trkpt>
      <trkpt lat="44.45396" lon="1.58632">
        <ele>280.6</ele>
        <time>2026-03-22T08:01:36Z</time>
      </trkpt>
      <trkpt lat="44.45399" lon="1.58635">
        <ele>280.2</ele>
        <time>2026-03-22T08:01:37Z</time>
      </trkpt>
      <trkpt lat="44.45402" lon="1.58639">
        <ele>280.2</ele>
        <time>2026-03-22T08:01:38Z</time>
      </trkpt>
      <trkpt lat="44.45411" lon="1.58649">
        <ele>279.6</ele>
        <time>2026-03-22T08:01:41Z</time>
      </trkpt>
      <trkpt lat="44.45414" lon="1.58653">
        <ele>279.6</ele>
        <time>2026-03-22T08:01:42Z</time>
      </trkpt>
      <trkpt lat="44.45417" lon="1.58656">
        <ele>279.6</ele>
        <time>2026-03-22T08:01:43Z</time>
      </trkpt>
      <trkpt lat="44.45428" lon="1.58667">
        <ele>279.4</ele>
        <time>2026-03-22T08:01:46Z</time>
      </trkpt>
      <trkpt lat="44.45445" lon="1.58687">
        <ele>279.2</ele>
        <time>2026-03-22T08:01:52Z</time>
      </trkpt>
      <trkpt lat="44.45446" lon="1.58689">
        <ele>279.2</ele>
        <time>2026-03-22T08:01:53Z</time>
      </trkpt>
      <trkpt lat="44.45448" lon="1.58691">
        <ele>279.2</ele>
        <time>2026-03-22T08:01:54Z</time>
      </trkpt>
      <trkpt lat="44.45449" lon="1.58693">
        <ele>279.2</ele>
        <time>2026-03-22T08:01:55Z</time>
      </trkpt>
      <trkpt lat="44.45451" lon="1.58695">
        <ele>279</ele>
        <time>2026-03-22T08:01:56Z</time>
      </trkpt>
      <trkpt lat="44.45459" lon="1.58703">
        <ele>278.8</ele>
        <time>2026-03-22T08:02:00Z</time>
      </trkpt>
      <trkpt lat="44.45461" lon="1.58706">
        <ele>278.6</ele>
        <time>2026-03-22T08:02:01Z</time>
      </trkpt>
      <trkpt lat="44.45467" lon="1.58714">
        <ele>278.4</ele>
        <time>2026-03-22T08:02:03Z</time>
      </trkpt>
      <trkpt lat="44.4547" lon="1.58718">
        <ele>278.4</ele>
        <time>2026-03-22T08:02:04Z</time>
      </trkpt>
      <trkpt lat="44.45473" lon="1.58724">
        <ele>278.2</ele>
        <time>2026-03-22T08:02:05Z</time>
      </trkpt>
      <trkpt lat="44.45489" lon="1.58744">
        <ele>277.6</ele>
        <time>2026-03-22T08:02:08Z</time>
      </trkpt>
      <trkpt lat="44.45498" lon="1.5876">
        <ele>277.2</ele>
        <time>2026-03-22T08:02:10Z</time>
      </trkpt>
      <trkpt lat="44.4551" lon="1.58785">
        <ele>276.4</ele>
        <time>2026-03-22T08:02:12Z</time>
      </trkpt>
      <trkpt lat="44.45515" lon="1.58797">
        <ele>275.8</ele>
        <time>2026-03-22T08:02:13Z</time>
      </trkpt>
      <trkpt lat="44.45526" lon="1.58824">
        <ele>274.4</ele>
        <time>2026-03-22T08:02:15Z</time>
      </trkpt>
      <trkpt lat="44.4553" lon="1.58836">
        <ele>273.8</ele>
        <time>2026-03-22T08:02:16Z</time>
      </trkpt>
      <trkpt lat="44.45535" lon="1.58847">
        <ele>272</ele>
        <time>2026-03-22T08:02:17Z</time>
      </trkpt>
      <trkpt lat="44.45538" lon="1.58854">
        <ele>270.6</ele>
        <time>2026-03-22T08:02:18Z</time>
      </trkpt>
      <trkpt lat="44.45542" lon="1.58862">
        <ele>269.8</ele>
        <time>2026-03-22T08:02:19Z</time>
      </trkpt>
      <trkpt lat="44.45546" lon="1.58868">
        <ele>268.8</ele>
        <time>2026-03-22T08:02:20Z</time>
      </trkpt>
      <trkpt lat="44.4555" lon="1.58873">
        <ele>267.4</ele>
        <time>2026-03-22T08:02:21Z</time>
      </trkpt>
      <trkpt lat="44.45554" lon="1.58877">
        <ele>266.4</ele>
        <time>2026-03-22T08:02:22Z</time>
      </trkpt>
      <trkpt lat="44.45559" lon="1.58876">
        <ele>264.6</ele>
        <time>2026-03-22T08:02:23Z</time>
      </trkpt>
      <trkpt lat="44.45565" lon="1.58874">
        <ele>262.8</ele>
        <time>2026-03-22T08:02:24Z</time>
      </trkpt>
      <trkpt lat="44.45571" lon="1.5887">
        <ele>261.2</ele>
        <time>2026-03-22T08:02:25Z</time>
      </trkpt>
      <trkpt lat="44.45577" lon="1.58863">
        <ele>259.8</ele>
        <time>2026-03-22T08:02:26Z</time>
      </trkpt>
      <trkpt lat="44.45581" lon="1.58857">
        <ele>258</ele>
        <time>2026-03-22T08:02:27Z</time>
      </trkpt>
      <trkpt lat="44.45584" lon="1.58847">
        <ele>256.2</ele>
        <time>2026-03-22T08:02:28Z</time>
      </trkpt>
      <trkpt lat="44.45586" lon="1.58836">
        <ele>255.2</ele>
        <time>2026-03-22T08:02:29Z</time>
      </trkpt>
      <trkpt lat="44.45587" lon="1.58824">
        <ele>254.2</ele>
        <time>2026-03-22T08:02:30Z</time>
      </trkpt>
      <trkpt lat="44.45586" lon="1.58811">
        <ele>253.6</ele>
        <time>2026-03-22T08:02:31Z</time>
      </trkpt>
      <trkpt lat="44.45585" lon="1.58799">
        <ele>253.2</ele>
        <time>2026-03-22T08:02:32Z</time>
      </trkpt>
      <trkpt lat="44.45583" lon="1.58784">
        <ele>252.6</ele>
        <time>2026-03-22T08:02:33Z</time>
      </trkpt>
      <trkpt lat="44.45581" lon="1.58773">
        <ele>252.4</ele>
        <time>2026-03-22T08:02:34Z</time>
      </trkpt>
      <trkpt lat="44.4558" lon="1.58757">
        <ele>252.2</ele>
        <time>2026-03-22T08:02:35Z</time>
      </trkpt>
      <trkpt lat="44.4558" lon="1.5873">
        <ele>251.2</ele>
        <time>2026-03-22T08:02:37Z</time>
      </trkpt>
      <trkpt lat="44.45584" lon="1.58689">
        <ele>249.4</ele>
        <time>2026-03-22T08:02:40Z</time>
      </trkpt>
      <trkpt lat="44.45585" lon="1.58661">
        <ele>247.8</ele>
        <time>2026-03-22T08:02:42Z</time>
      </trkpt>
      <trkpt lat="44.45584" lon="1.58647">
        <ele>247.2</ele>
        <time>2026-03-22T08:02:43Z</time>
      </trkpt>
      <trkpt lat="44.45582" lon="1.58633">
        <ele>246.6</ele>
        <time>2026-03-22T08:02:44Z</time>
      </trkpt>
      <trkpt lat="44.45579" lon="1.5862">
        <ele>246</ele>
        <time>2026-03-22T08:02:45Z</time>
      </trkpt>
      <trkpt lat="44.45575" lon="1.58607">
        <ele>245</ele>
        <time>2026-03-22T08:02:46Z</time>
      </trkpt>
      <trkpt lat="44.45566" lon="1.58582">
        <ele>243.6</ele>
        <time>2026-03-22T08:02:48Z</time>
      </trkpt>
      <trkpt lat="44.45555" lon="1.58559">
        <ele>242</ele>
        <time>2026-03-22T08:02:50Z</time>
      </trkpt>
      <trkpt lat="44.45543" lon="1.58538">
        <ele>240.6</ele>
        <time>2026-03-22T08:02:52Z</time>
      </trkpt>
      <trkpt lat="44.45536" lon="1.5853">
        <ele>239.8</ele>
        <time>2026-03-22T08:02:53Z</time>
      </trkpt>
      <trkpt lat="44.45528" lon="1.58524">
        <ele>239.6</ele>
        <time>2026-03-22T08:02:54Z</time>
      </trkpt>
      <trkpt lat="44.4552" lon="1.5852">
        <ele>238.6</ele>
        <time>2026-03-22T08:02:55Z</time>
      </trkpt>
      <trkpt lat="44.45513" lon="1.58518">
        <ele>237.8</ele>
        <time>2026-03-22T08:02:56Z</time>
      </trkpt>
      <trkpt lat="44.45505" lon="1.58515">
        <ele>237.2</ele>
        <time>2026-03-22T08:02:57Z</time>
      </trkpt>
      <trkpt lat="44.45494" lon="1.58501">
        <ele>236.4</ele>
        <time>2026-03-22T08:02:59Z</time>
      </trkpt>
      <trkpt lat="44.45493" lon="1.58493">
        <ele>235.8</ele>
        <time>2026-03-22T08:03:00Z</time>
      </trkpt>
      <trkpt lat="44.45495" lon="1.58482">
        <ele>235.2</ele>
        <time>2026-03-22T08:03:01Z</time>
      </trkpt>
      <trkpt lat="44.45499" lon="1.58472">
        <ele>234.6</ele>
        <time>2026-03-22T08:03:02Z</time>
      </trkpt>
      <trkpt lat="44.45505" lon="1.58463">
        <ele>234</ele>
        <time>2026-03-22T08:03:03Z</time>
      </trkpt>
      <trkpt lat="44.45512" lon="1.58455">
        <ele>233</ele>
        <time>2026-03-22T08:03:04Z</time>
      </trkpt>
      <trkpt lat="44.45519" lon="1.58447">
        <ele>232.2</ele>
        <time>2026-03-22T08:03:05Z</time>
      </trkpt>
      <trkpt lat="44.45525" lon="1.58437">
        <ele>231.6</ele>
        <time>2026-03-22T08:03:06Z</time>
      </trkpt>
      <trkpt lat="44.45528" lon="1.58425">
        <ele>231</ele>
        <time>2026-03-22T08:03:07Z</time>
      </trkpt>
      <trkpt lat="44.45529" lon="1.58413">
        <ele>230.4</ele>
        <time>2026-03-22T08:03:08Z</time>
      </trkpt>
      <trkpt lat="44.45528" lon="1.58399">
        <ele>230.2</ele>
        <time>2026-03-22T08:03:09Z</time>
      </trkpt>
      <trkpt lat="44.45528" lon="1.58388">
        <ele>229.8</ele>
        <time>2026-03-22T08:03:10Z</time>
      </trkpt>
      <trkpt lat="44.45528" lon="1.58382">
        <ele>229.2</ele>
        <time>2026-03-22T08:03:11Z</time>
      </trkpt>
      <trkpt lat="44.45531" lon="1.58377">
        <ele>228.6</ele>
        <time>2026-03-22T08:03:12Z</time>
      </trkpt>
      <trkpt lat="44.45537" lon="1.58377">
        <ele>228.2</ele>
        <time>2026-03-22T08:03:13Z</time>
      </trkpt>
      <trkpt lat="44.45542" lon="1.58382">
        <ele>227.8</ele>
        <time>2026-03-22T08:03:14Z</time>
      </trkpt>
      <trkpt lat="44.45546" lon="1.58391">
        <ele>227.2</ele>
        <time>2026-03-22T08:03:15Z</time>
      </trkpt>
      <trkpt lat="44.45556" lon="1.58411">
        <ele>226.4</ele>
        <time>2026-03-22T08:03:17Z</time>
      </trkpt>
      <trkpt lat="44.4556" lon="1.58423">
        <ele>226.2</ele>
        <time>2026-03-22T08:03:18Z</time>
      </trkpt>
      <trkpt lat="44.45568" lon="1.58449">
        <ele>224.6</ele>
        <time>2026-03-22T08:03:20Z</time>
      </trkpt>
      <trkpt lat="44.45572" lon="1.58463">
        <ele>224.2</ele>
        <time>2026-03-22T08:03:21Z</time>
      </trkpt>
      <trkpt lat="44.45579" lon="1.58478">
        <ele>223.6</ele>
        <time>2026-03-22T08:03:22Z</time>
      </trkpt>
      <trkpt lat="44.45594" lon="1.58497">
        <ele>221.8</ele>
        <time>2026-03-22T08:03:24Z</time>
      </trkpt>
      <trkpt lat="44.45602" lon="1.58505">
        <ele>221.4</ele>
        <time>2026-03-22T08:03:25Z</time>
      </trkpt>
      <trkpt lat="44.45611" lon="1.58513">
        <ele>220.6</ele>
        <time>2026-03-22T08:03:26Z</time>
      </trkpt>
      <trkpt lat="44.45629" lon="1.5853">
        <ele>218.4</ele>
        <time>2026-03-22T08:03:28Z</time>
      </trkpt>
      <trkpt lat="44.45638" lon="1.58539">
        <ele>217.4</ele>
        <time>2026-03-22T08:03:29Z</time>
      </trkpt>
      <trkpt lat="44.45648" lon="1.58547">
        <ele>216.8</ele>
        <time>2026-03-22T08:03:30Z</time>
      </trkpt>
      <trkpt lat="44.45667" lon="1.58564">
        <ele>215.8</ele>
        <time>2026-03-22T08:03:32Z</time>
      </trkpt>
      <trkpt lat="44.45687" lon="1.58579">
        <ele>214.2</ele>
        <time>2026-03-22T08:03:34Z</time>
      </trkpt>
      <trkpt lat="44.45697" lon="1.58586">
        <ele>213.6</ele>
        <time>2026-03-22T08:03:35Z</time>
      </trkpt>
      <trkpt lat="44.45709" lon="1.58592">
        <ele>212.2</ele>
        <time>2026-03-22T08:03:36Z</time>
      </trkpt>
      <trkpt lat="44.45719" lon="1.58596">
        <ele>210.6</ele>
        <time>2026-03-22T08:03:37Z</time>
      </trkpt>
      <trkpt lat="44.45729" lon="1.58603">
        <ele>209.2</ele>
        <time>2026-03-22T08:03:38Z</time>
      </trkpt>
      <trkpt lat="44.45738" lon="1.58612">
        <ele>208.4</ele>
        <time>2026-03-22T08:03:39Z</time>
      </trkpt>
      <trkpt lat="44.45746" lon="1.58625">
        <ele>207.4</ele>
        <time>2026-03-22T08:03:40Z</time>
      </trkpt>
      <trkpt lat="44.45753" lon="1.58638">
        <ele>206.8</ele>
        <time>2026-03-22T08:03:41Z</time>
      </trkpt>
      <trkpt lat="44.45761" lon="1.58651">
        <ele>205.2</ele>
        <time>2026-03-22T08:03:42Z</time>
      </trkpt>
      <trkpt lat="44.4577" lon="1.58663">
        <ele>201.8</ele>
        <time>2026-03-22T08:03:43Z</time>
      </trkpt>
      <trkpt lat="44.45779" lon="1.58672">
        <ele>200</ele>
        <time>2026-03-22T08:03:44Z</time>
      </trkpt>
      <trkpt lat="44.45789" lon="1.58681">
        <ele>199</ele>
        <time>2026-03-22T08:03:45Z</time>
      </trkpt>
      <trkpt lat="44.45799" lon="1.58689">
        <ele>197.2</ele>
        <time>2026-03-22T08:03:46Z</time>
      </trkpt>
      <trkpt lat="44.45808" lon="1.58698">
        <ele>195.8</ele>
        <time>2026-03-22T08:03:47Z</time>
      </trkpt>
      <trkpt lat="44.45817" lon="1.58709">
        <ele>194</ele>
        <time>2026-03-22T08:03:48Z</time>
      </trkpt>
      <trkpt lat="44.45826" lon="1.58719">
        <ele>192.8</ele>
        <time>2026-03-22T08:03:49Z</time>
      </trkpt>
      <trkpt lat="44.45834" lon="1.5873">
        <ele>191.6</ele>
        <time>2026-03-22T08:03:50Z</time>
      </trkpt>
      <trkpt lat="44.45842" lon="1.58741">
        <ele>189.8</ele>
        <time>2026-03-22T08:03:51Z</time>
      </trkpt>
      <trkpt lat="44.4585" lon="1.58754">
        <ele>188.6</ele>
        <time>2026-03-22T08:03:52Z</time>
      </trkpt>
      <trkpt lat="44.45855" lon="1.58768">
        <ele>186.8</ele>
        <time>2026-03-22T08:03:53Z</time>
      </trkpt>
      <trkpt lat="44.45859" lon="1.58782">
        <ele>185.6</ele>
        <time>2026-03-22T08:03:54Z</time>
      </trkpt>
      <trkpt lat="44.45861" lon="1.58798">
        <ele>184.4</ele>
        <time>2026-03-22T08:03:55Z</time>
      </trkpt>
      <trkpt lat="44.45863" lon="1.58813">
        <ele>183.6</ele>
        <time>2026-03-22T08:03:56Z</time>
      </trkpt>
      <trkpt lat="44.45866" lon="1.58829">
        <ele>182.8</ele>
        <time>2026-03-22T08:03:57Z</time>
      </trkpt>
      <trkpt lat="44.45871" lon="1.58843">
        <ele>181.4</ele>
        <time>2026-03-22T08:03:58Z</time>
      </trkpt>
      <trkpt lat="44.45877" lon="1.58855">
        <ele>180.4</ele>
        <time>2026-03-22T08:03:59Z</time>
      </trkpt>
      <trkpt lat="44.45885" lon="1.58867">
        <ele>179.8</ele>
        <time>2026-03-22T08:04:00Z</time>
      </trkpt>
      <trkpt lat="44.45892" lon="1.58878">
        <ele>178.6</ele>
        <time>2026-03-22T08:04:01Z</time>
      </trkpt>
      <trkpt lat="44.459" lon="1.58889">
        <ele>177.8</ele>
        <time>2026-03-22T08:04:02Z</time>
      </trkpt>
      <trkpt lat="44.45907" lon="1.589">
        <ele>177.2</ele>
        <time>2026-03-22T08:04:03Z</time>
      </trkpt>
      <trkpt lat="44.45913" lon="1.58911">
        <ele>176.6</ele>
        <time>2026-03-22T08:04:04Z</time>
      </trkpt>
      <trkpt lat="44.4592" lon="1.58922">
        <ele>175.6</ele>
        <time>2026-03-22T08:04:05Z</time>
      </trkpt>
      <trkpt lat="44.45926" lon="1.58934">
        <ele>174.4</ele>
        <time>2026-03-22T08:04:06Z</time>
      </trkpt>
      <trkpt lat="44.45932" lon="1.58945">
        <ele>173.2</ele>
        <time>2026-03-22T08:04:07Z</time>
      </trkpt>
      <trkpt lat="44.45939" lon="1.58956">
        <ele>172.4</ele>
        <time>2026-03-22T08:04:08Z</time>
      </trkpt>
      <trkpt lat="44.45952" lon="1.58976">
        <ele>170.6</ele>
        <time>2026-03-22T08:04:10Z</time>
      </trkpt>
      <trkpt lat="44.45959" lon="1.58983">
        <ele>170</ele>
        <time>2026-03-22T08:04:11Z</time>
      </trkpt>
      <trkpt lat="44.45967" lon="1.58989">
        <ele>169.2</ele>
        <time>2026-03-22T08:04:12Z</time>
      </trkpt>
      <trkpt lat="44.45973" lon="1.58992">
        <ele>168.6</ele>
        <time>2026-03-22T08:04:13Z</time>
      </trkpt>
      <trkpt lat="44.45979" lon="1.58994">
        <ele>167.4</ele>
        <time>2026-03-22T08:04:14Z</time>
      </trkpt>
      <trkpt lat="44.45984" lon="1.58993">
        <ele>166.6</ele>
        <time>2026-03-22T08:04:15Z</time>
      </trkpt>
      <trkpt lat="44.45991" lon="1.58992">
        <ele>166</ele>
        <time>2026-03-22T08:04:16Z</time>
      </trkpt>
      <trkpt lat="44.45997" lon="1.58991">
        <ele>165.2</ele>
        <time>2026-03-22T08:04:17Z</time>
      </trkpt>
      <trkpt lat="44.46003" lon="1.58991">
        <ele>164.2</ele>
        <time>2026-03-22T08:04:18Z</time>
      </trkpt>
      <trkpt lat="44.4601" lon="1.5899">
        <ele>163.8</ele>
        <time>2026-03-22T08:04:19Z</time>
      </trkpt>
      <trkpt lat="44.46023" lon="1.58992">
        <ele>162.2</ele>
        <time>2026-03-22T08:04:21Z</time>
      </trkpt>
      <trkpt lat="44.46041" lon="1.58999">
        <ele>161.2</ele>
        <time>2026-03-22T08:04:24Z</time>
      </trkpt>
      <trkpt lat="44.46059" lon="1.59009">
        <ele>160.6</ele>
        <time>2026-03-22T08:04:27Z</time>
      </trkpt>
      <trkpt lat="44.46084" lon="1.59027">
        <ele>160</ele>
        <time>2026-03-22T08:04:31Z</time>
      </trkpt>
      <trkpt lat="44.46109" lon="1.59046">
        <ele>159.6</ele>
        <time>2026-03-22T08:04:35Z</time>
      </trkpt>
      <trkpt lat="44.46116" lon="1.5905">
        <ele>159.4</ele>
        <time>2026-03-22T08:04:36Z</time>
      </trkpt>
      <trkpt lat="44.46123" lon="1.59053">
        <ele>159</ele>
        <time>2026-03-22T08:04:37Z</time>
      </trkpt>
      <trkpt lat="44.46137" lon="1.59057">
        <ele>158.4</ele>
        <time>2026-03-22T08:04:39Z</time>
      </trkpt>
      <trkpt lat="44.46144" lon="1.59058">
        <ele>158.2</ele>
        <time>2026-03-22T08:04:40Z</time>
      </trkpt>
      <trkpt lat="44.46152" lon="1.59058">
        <ele>157.6</ele>
        <time>2026-03-22T08:04:41Z</time>
      </trkpt>
      <trkpt lat="44.46172" lon="1.59058">
        <ele>156.2</ele>
        <time>2026-03-22T08:04:44Z</time>
      </trkpt>
      <trkpt lat="44.46179" lon="1.59059">
        <ele>156</ele>
        <time>2026-03-22T08:04:45Z</time>
      </trkpt>
      <trkpt lat="44.46186" lon="1.59058">
        <ele>155.4</ele>
        <time>2026-03-22T08:04:46Z</time>
      </trkpt>
      <trkpt lat="44.46192" lon="1.59058">
        <ele>155.2</ele>
        <time>2026-03-22T08:04:47Z</time>
      </trkpt>
      <trkpt lat="44.46199" lon="1.59058">
        <ele>154.8</ele>
        <time>2026-03-22T08:04:48Z</time>
      </trkpt>
      <trkpt lat="44.46206" lon="1.59058">
        <ele>154.6</ele>
        <time>2026-03-22T08:04:49Z</time>
      </trkpt>
      <trkpt lat="44.46224" lon="1.59058">
        <ele>154.2</ele>
        <time>2026-03-22T08:04:52Z</time>
      </trkpt>
      <trkpt lat="44.4623" lon="1.59058">
        <ele>154</ele>
        <time>2026-03-22T08:04:53Z</time>
      </trkpt>
      <trkpt lat="44.46276" lon="1.59063">
        <ele>153.4</ele>
        <time>2026-03-22T08:04:59Z</time>
      </trkpt>
      <trkpt lat="44.46292" lon="1.59074">
        <ele>153</ele>
        <time>2026-03-22T08:05:01Z</time>
      </trkpt>
      <trkpt lat="44.46298" lon="1.59081">
        <ele>152.6</ele>
        <time>2026-03-22T08:05:02Z</time>
      </trkpt>
      <trkpt lat="44.46305" lon="1.5909">
        <ele>152</ele>
        <time>2026-03-22T08:05:03Z</time>
      </trkpt>
      <trkpt lat="44.46313" lon="1.59098">
        <ele>151.6</ele>
        <time>2026-03-22T08:05:04Z</time>
      </trkpt>
      <trkpt lat="44.46323" lon="1.59105">
        <ele>151</ele>
        <time>2026-03-22T08:05:05Z</time>
      </trkpt>
      <trkpt lat="44.46333" lon="1.59108">
        <ele>150.2</ele>
        <time>2026-03-22T08:05:06Z</time>
      </trkpt>
      <trkpt lat="44.46344" lon="1.5911">
        <ele>149.6</ele>
        <time>2026-03-22T08:05:07Z</time>
      </trkpt>
      <trkpt lat="44.46355" lon="1.59111">
        <ele>148.8</ele>
        <time>2026-03-22T08:05:08Z</time>
      </trkpt>
      <trkpt lat="44.46378" lon="1.59113">
        <ele>147</ele>
        <time>2026-03-22T08:05:10Z</time>
      </trkpt>
      <trkpt lat="44.46389" lon="1.59113">
        <ele>145.8</ele>
        <time>2026-03-22T08:05:11Z</time>
      </trkpt>
      <trkpt lat="44.46399" lon="1.59112">
        <ele>144.8</ele>
        <time>2026-03-22T08:05:12Z</time>
      </trkpt>
      <trkpt lat="44.46409" lon="1.5911">
        <ele>143.6</ele>
        <time>2026-03-22T08:05:13Z</time>
      </trkpt>
      <trkpt lat="44.46419" lon="1.59105">
        <ele>142.8</ele>
        <time>2026-03-22T08:05:14Z</time>
      </trkpt>
      <trkpt lat="44.46428" lon="1.59098">
        <ele>141.8</ele>
        <time>2026-03-22T08:05:15Z</time>
      </trkpt>
      <trkpt lat="44.46433" lon="1.59089">
        <ele>140.8</ele>
        <time>2026-03-22T08:05:16Z</time>
      </trkpt>
      <trkpt lat="44.4644" lon="1.59075">
        <ele>140.2</ele>
        <time>2026-03-22T08:05:17Z</time>
      </trkpt>
      <trkpt lat="44.46444" lon="1.59067">
        <ele>139</ele>
        <time>2026-03-22T08:05:18Z</time>
      </trkpt>
      <trkpt lat="44.46448" lon="1.59056">
        <ele>137.6</ele>
        <time>2026-03-22T08:05:19Z</time>
      </trkpt>
      <trkpt lat="44.46453" lon="1.59045">
        <ele>135.8</ele>
        <time>2026-03-22T08:05:20Z</time>
      </trkpt>
      <trkpt lat="44.46458" lon="1.59035">
        <ele>134.4</ele>
        <time>2026-03-22T08:05:21Z</time>
      </trkpt>
      <trkpt lat="44.46463" lon="1.59026">
        <ele>133</ele>
        <time>2026-03-22T08:05:22Z</time>
      </trkpt>
      <trkpt lat="44.4647" lon="1.59015">
        <ele>131.6</ele>
        <time>2026-03-22T08:05:23Z</time>
      </trkpt>
      <trkpt lat="44.46474" lon="1.59008">
        <ele>130</ele>
        <time>2026-03-22T08:05:24Z</time>
      </trkpt>
      <trkpt lat="44.46478" lon="1.59">
        <ele>129.2</ele>
        <time>2026-03-22T08:05:25Z</time>
      </trkpt>
      <trkpt lat="44.46482" lon="1.58989">
        <ele>128.6</ele>
        <time>2026-03-22T08:05:26Z</time>
      </trkpt>
      <trkpt lat="44.46486" lon="1.5898">
        <ele>127.6</ele>
        <time>2026-03-22T08:05:27Z</time>
      </trkpt>
      <trkpt lat="44.4649" lon="1.58971">
        <ele>127</ele>
        <time>2026-03-22T08:05:28Z</time>
      </trkpt>
      <trkpt lat="44.46499" lon="1.58952">
        <ele>126.6</ele>
        <time>2026-03-22T08:05:30Z</time>
      </trkpt>
      <trkpt lat="44.4651" lon="1.58926">
        <ele>126.2</ele>
        <time>2026-03-22T08:05:33Z</time>
      </trkpt>
      <trkpt lat="44.46514" lon="1.58918">
        <ele>126.2</ele>
        <time>2026-03-22T08:05:34Z</time>
      </trkpt>
      <trkpt lat="44.46518" lon="1.5891">
        <ele>126.2</ele>
        <time>2026-03-22T08:05:35Z</time>
      </trkpt>
      <trkpt lat="44.46524" lon="1.58897">
        <ele>126</ele>
        <time>2026-03-22T08:05:37Z</time>
      </trkpt>
      <trkpt lat="44.46529" lon="1.58888">
        <ele>126</ele>
        <time>2026-03-22T08:05:38Z</time>
      </trkpt>
      <trkpt lat="44.46532" lon="1.58882">
        <ele>126</ele>
        <time>2026-03-22T08:05:39Z</time>
      </trkpt>
      <trkpt lat="44.46536" lon="1.58875">
        <ele>126</ele>
        <time>2026-03-22T08:05:40Z</time>
      </trkpt>
      <trkpt lat="44.46539" lon="1.58868">
        <ele>126</ele>
        <time>2026-03-22T08:05:41Z</time>
      </trkpt>
      <trkpt lat="44.46544" lon="1.58861">
        <ele>126</ele>
        <time>2026-03-22T08:05:42Z</time>
      </trkpt>
      <trkpt lat="44.46548" lon="1.58855">
        <ele>126</ele>
        <time>2026-03-22T08:05:43Z</time>
      </trkpt>
      <trkpt lat="44.46553" lon="1.58849">
        <ele>126</ele>
        <time>2026-03-22T08:05:44Z</time>
      </trkpt>
      <trkpt lat="44.46559" lon="1.58842">
        <ele>126</ele>
        <time>2026-03-22T08:05:45Z</time>
      </trkpt>
      <trkpt lat="44.46564" lon="1.58836">
        <ele>126</ele>
        <time>2026-03-22T08:05:46Z</time>
      </trkpt>
      <trkpt lat="44.46567" lon="1.58832">
        <ele>125.8</ele>
        <time>2026-03-22T08:05:47Z</time>
      </trkpt>
      <trkpt lat="44.46572" lon="1.58825">
        <ele>125.8</ele>
        <time>2026-03-22T08:05:48Z</time>
      </trkpt>
      <trkpt lat="44.46576" lon="1.58819">
        <ele>125.8</ele>
        <time>2026-03-22T08:05:49Z</time>
      </trkpt>
      <trkpt lat="44.4658" lon="1.58814">
        <ele>125.8</ele>
        <time>2026-03-22T08:05:50Z</time>
      </trkpt>
      <trkpt lat="44.46584" lon="1.58807">
        <ele>125.8</ele>
        <time>2026-03-22T08:05:51Z</time>
      </trkpt>
      <trkpt lat="44.46588" lon="1.58801">
        <ele>125.8</ele>
        <time>2026-03-22T08:05:52Z</time>
      </trkpt>
      <trkpt lat="44.46596" lon="1.58788">
        <ele>125.6</ele>
        <time>2026-03-22T08:05:54Z</time>
      </trkpt>
      <trkpt lat="44.46623" lon="1.58743">
        <ele>125.6</ele>
        <time>2026-03-22T08:06:01Z</time>
      </trkpt>
      <trkpt lat="44.46659" lon="1.58686">
        <ele>125.6</ele>
        <time>2026-03-22T08:06:10Z</time>
      </trkpt>
      <trkpt lat="44.4667" lon="1.58668">
        <ele>125.6</ele>
        <time>2026-03-22T08:06:13Z</time>
      </trkpt>
      <trkpt lat="44.46674" lon="1.58662">
        <ele>125.6</ele>
        <time>2026-03-22T08:06:14Z</time>
      </trkpt>
      <trkpt lat="44.46678" lon="1.58656">
        <ele>125.6</ele>
        <time>2026-03-22T08:06:15Z</time>
      </trkpt>
      <trkpt lat="44.46682" lon="1.5865">
        <ele>125.6</ele>
        <time>2026-03-22T08:06:16Z</time>
      </trkpt>
      <trkpt lat="44.46695" lon="1.58633">
        <ele>125.4</ele>
        <time>2026-03-22T08:06:19Z</time>
      </trkpt>
      <trkpt lat="44.46742" lon="1.5858">
        <ele>125</ele>
        <time>2026-03-22T08:06:29Z</time>
      </trkpt>
      <trkpt lat="44.4676" lon="1.58558">
        <ele>125</ele>
        <time>2026-03-22T08:06:33Z</time>
      </trkpt>
      <trkpt lat="44.46781" lon="1.5853">
        <ele>125</ele>
        <time>2026-03-22T08:06:38Z</time>
      </trkpt>
      <trkpt lat="44.46816" lon="1.58474">
        <ele>125</ele>
        <time>2026-03-22T08:06:47Z</time>
      </trkpt>
      <trkpt lat="44.4682" lon="1.58468">
        <ele>125.2</ele>
        <time>2026-03-22T08:06:48Z</time>
      </trkpt>
      <trkpt lat="44.46822" lon="1.58461">
        <ele>125.2</ele>
        <time>2026-03-22T08:06:49Z</time>
      </trkpt>
      <trkpt lat="44.46824" lon="1.58454">
        <ele>125.2</ele>
        <time>2026-03-22T08:06:50Z</time>
      </trkpt>
      <trkpt lat="44.46824" lon="1.58447">
        <ele>125.2</ele>
        <time>2026-03-22T08:06:51Z</time>
      </trkpt>
      <trkpt lat="44.46822" lon="1.5844">
        <ele>125.4</ele>
        <time>2026-03-22T08:06:52Z</time>
      </trkpt>
      <trkpt lat="44.46818" lon="1.58435">
        <ele>125.6</ele>
        <time>2026-03-22T08:06:53Z</time>
      </trkpt>
      <trkpt lat="44.46815" lon="1.5843">
        <ele>125.8</ele>
        <time>2026-03-22T08:06:54Z</time>
      </trkpt>
      <trkpt lat="44.4681" lon="1.58425">
        <ele>126</ele>
        <time>2026-03-22T08:06:55Z</time>
      </trkpt>
      <trkpt lat="44.46806" lon="1.58422">
        <ele>126</ele>
        <time>2026-03-22T08:06:56Z</time>
      </trkpt>
      <trkpt lat="44.46803" lon="1.58418">
        <ele>126.4</ele>
        <time>2026-03-22T08:06:57Z</time>
      </trkpt>
      <trkpt lat="44.46802" lon="1.58414">
        <ele>126.8</ele>
        <time>2026-03-22T08:06:58Z</time>
      </trkpt>
      <trkpt lat="44.46803" lon="1.5841">
        <ele>127.4</ele>
        <time>2026-03-22T08:06:59Z</time>
      </trkpt>
      <trkpt lat="44.46805" lon="1.58409">
        <ele>128</ele>
        <time>2026-03-22T08:07:00Z</time>
      </trkpt>
      <trkpt lat="44.46813" lon="1.58416">
        <ele>129</ele>
        <time>2026-03-22T08:07:02Z</time>
      </trkpt>
      <trkpt lat="44.46817" lon="1.58421">
        <ele>129.6</ele>
        <time>2026-03-22T08:07:03Z</time>
      </trkpt>
      <trkpt lat="44.46821" lon="1.58427">
        <ele>130</ele>
        <time>2026-03-22T08:07:04Z</time>
      </trkpt>
      <trkpt lat="44.46825" lon="1.58432">
        <ele>130.2</ele>
        <time>2026-03-22T08:07:05Z</time>
      </trkpt>
      <trkpt lat="44.46829" lon="1.58438">
        <ele>130.4</ele>
        <time>2026-03-22T08:07:06Z</time>
      </trkpt>
      <trkpt lat="44.46832" lon="1.58443">
        <ele>130.8</ele>
        <time>2026-03-22T08:07:07Z</time>
      </trkpt>
      <trkpt lat="44.46836" lon="1.58449">
        <ele>131</ele>
        <time>2026-03-22T08:07:08Z</time>
      </trkpt>
      <trkpt lat="44.46839" lon="1.58454">
        <ele>131.2</ele>
        <time>2026-03-22T08:07:09Z</time>
      </trkpt>
      <trkpt lat="44.46843" lon="1.5846">
        <ele>131.4</ele>
        <time>2026-03-22T08:07:10Z</time>
      </trkpt>
      <trkpt lat="44.46846" lon="1.58465">
        <ele>131.6</ele>
        <time>2026-03-22T08:07:11Z</time>
      </trkpt>
      <trkpt lat="44.46849" lon="1.5847">
        <ele>131.8</ele>
        <time>2026-03-22T08:07:12Z</time>
      </trkpt>
      <trkpt lat="44.46853" lon="1.58476">
        <ele>132</ele>
        <time>2026-03-22T08:07:13Z</time>
      </trkpt>
      <trkpt lat="44.46857" lon="1.58482">
        <ele>132.2</ele>
        <time>2026-03-22T08:07:14Z</time>
      </trkpt>
      <trkpt lat="44.4686" lon="1.58487">
        <ele>132.4</ele>
        <time>2026-03-22T08:07:15Z</time>
      </trkpt>
      <trkpt lat="44.46863" lon="1.58493">
        <ele>132.6</ele>
        <time>2026-03-22T08:07:16Z</time>
      </trkpt>
      <trkpt lat="44.46867" lon="1.58498">
        <ele>132.6</ele>
        <time>2026-03-22T08:07:17Z</time>
      </trkpt>
      <trkpt lat="44.46871" lon="1.58504">
        <ele>132.8</ele>
        <time>2026-03-22T08:07:18Z</time>
      </trkpt>
      <trkpt lat="44.46874" lon="1.5851">
        <ele>133</ele>
        <time>2026-03-22T08:07:19Z</time>
      </trkpt>
      <trkpt lat="44.46878" lon="1.58516">
        <ele>133.2</ele>
        <time>2026-03-22T08:07:20Z</time>
      </trkpt>
      <trkpt lat="44.46881" lon="1.58521">
        <ele>133.2</ele>
        <time>2026-03-22T08:07:21Z</time>
      </trkpt>
      <trkpt lat="44.46885" lon="1.58527">
        <ele>133.4</ele>
        <time>2026-03-22T08:07:22Z</time>
      </trkpt>
      <trkpt lat="44.46888" lon="1.58533">
        <ele>133.6</ele>
        <time>2026-03-22T08:07:23Z</time>
      </trkpt>
      <trkpt lat="44.46892" lon="1.58539">
        <ele>133.6</ele>
        <time>2026-03-22T08:07:24Z</time>
      </trkpt>
      <trkpt lat="44.46896" lon="1.58545">
        <ele>133.6</ele>
        <time>2026-03-22T08:07:25Z</time>
      </trkpt>
      <trkpt lat="44.469" lon="1.58551">
        <ele>133.8</ele>
        <time>2026-03-22T08:07:26Z</time>
      </trkpt>
      <trkpt lat="44.46904" lon="1.58558">
        <ele>133.8</ele>
        <time>2026-03-22T08:07:27Z</time>
      </trkpt>
      <trkpt lat="44.46908" lon="1.58564">
        <ele>133.8</ele>
        <time>2026-03-22T08:07:28Z</time>
      </trkpt>
      <trkpt lat="44.46912" lon="1.58571">
        <ele>133.8</ele>
        <time>2026-03-22T08:07:29Z</time>
      </trkpt>
      <trkpt lat="44.46916" lon="1.58577">
        <ele>133.8</ele>
        <time>2026-03-22T08:07:30Z</time>
      </trkpt>
      <trkpt lat="44.4692" lon="1.58584">
        <ele>133.8</ele>
        <time>2026-03-22T08:07:31Z</time>
      </trkpt>
      <trkpt lat="44.46925" lon="1.5859">
        <ele>133.8</ele>
        <time>2026-03-22T08:07:32Z</time>
      </trkpt>
      <trkpt lat="44.46929" lon="1.58597">
        <ele>133.8</ele>
        <time>2026-03-22T08:07:33Z</time>
      </trkpt>
      <trkpt lat="44.46933" lon="1.58603">
        <ele>133.8</ele>
        <time>2026-03-22T08:07:34Z</time>
      </trkpt>
      <trkpt lat="44.46937" lon="1.5861">
        <ele>133.6</ele>
        <time>2026-03-22T08:07:35Z</time>
      </trkpt>
      <trkpt lat="44.46941" lon="1.58616">
        <ele>133.4</ele>
        <time>2026-03-22T08:07:36Z</time>
      </trkpt>
      <trkpt lat="44.46946" lon="1.58623">
        <ele>133.2</ele>
        <time>2026-03-22T08:07:37Z</time>
      </trkpt>
      <trkpt lat="44.4695" lon="1.5863">
        <ele>133.2</ele>
        <time>2026-03-22T08:07:38Z</time>
      </trkpt>
      <trkpt lat="44.46954" lon="1.58636">
        <ele>133</ele>
        <time>2026-03-22T08:07:39Z</time>
      </trkpt>
      <trkpt lat="44.46971" lon="1.58662">
        <ele>132.4</ele>
        <time>2026-03-22T08:07:43Z</time>
      </trkpt>
      <trkpt lat="44.46991" lon="1.58694">
        <ele>131.4</ele>
        <time>2026-03-22T08:07:48Z</time>
      </trkpt>
      <trkpt lat="44.46995" lon="1.587">
        <ele>131.2</ele>
        <time>2026-03-22T08:07:49Z</time>
      </trkpt>
      <trkpt lat="44.47015" lon="1.58732">
        <ele>130.4</ele>
        <time>2026-03-22T08:07:54Z</time>
      </trkpt>
      <trkpt lat="44.47019" lon="1.58738">
        <ele>130.4</ele>
        <time>2026-03-22T08:07:55Z</time>
      </trkpt>
      <trkpt lat="44.47023" lon="1.58745">
        <ele>130.2</ele>
        <time>2026-03-22T08:07:56Z</time>
      </trkpt>
      <trkpt lat="44.47031" lon="1.58757">
        <ele>130.2</ele>
        <time>2026-03-22T08:07:58Z</time>
      </trkpt>
      <trkpt lat="44.47034" lon="1.58763">
        <ele>130.2</ele>
        <time>2026-03-22T08:07:59Z</time>
      </trkpt>
      <trkpt lat="44.47046" lon="1.58782">
        <ele>130</ele>
        <time>2026-03-22T08:08:02Z</time>
      </trkpt>
      <trkpt lat="44.47048" lon="1.58786">
        <ele>130</ele>
        <time>2026-03-22T08:08:03Z</time>
      </trkpt>
      <trkpt lat="44.47051" lon="1.58792">
        <ele>130</ele>
        <time>2026-03-22T08:08:04Z</time>
      </trkpt>
      <trkpt lat="44.47054" lon="1.58797">
        <ele>130</ele>
        <time>2026-03-22T08:08:05Z</time>
      </trkpt>
      <trkpt lat="44.47056" lon="1.58801">
        <ele>130</ele>
        <time>2026-03-22T08:08:06Z</time>
      </trkpt>
      <trkpt lat="44.47059" lon="1.58805">
        <ele>130</ele>
        <time>2026-03-22T08:08:07Z</time>
      </trkpt>
      <trkpt lat="44.47062" lon="1.58808">
        <ele>130</ele>
        <time>2026-03-22T08:08:08Z</time>
      </trkpt>
      <trkpt lat="44.47066" lon="1.58809">
        <ele>130</ele>
        <time>2026-03-22T08:08:09Z</time>
      </trkpt>
      <trkpt lat="44.4707" lon="1.58809">
        <ele>130</ele>
        <time>2026-03-22T08:08:10Z</time>
      </trkpt>
      <trkpt lat="44.47077" lon="1.58807">
        <ele>130.2</ele>
        <time>2026-03-22T08:08:12Z</time>
      </trkpt>
      <trkpt lat="44.4708" lon="1.58808">
        <ele>130.2</ele>
        <time>2026-03-22T08:08:13Z</time>
      </trkpt>
      <trkpt lat="44.47082" lon="1.58811">
        <ele>130.2</ele>
        <time>2026-03-22T08:08:14Z</time>
      </trkpt>
      <trkpt lat="44.47085" lon="1.5882">
        <ele>130.2</ele>
        <time>2026-03-22T08:08:16Z</time>
      </trkpt>
      <trkpt lat="44.47086" lon="1.58824">
        <ele>130.2</ele>
        <time>2026-03-22T08:08:17Z</time>
      </trkpt>
      <trkpt lat="44.47088" lon="1.58828">
        <ele>130.2</ele>
        <time>2026-03-22T08:08:18Z</time>
      </trkpt>
      <trkpt lat="44.47089" lon="1.5883">
        <ele>130.2</ele>
        <time>2026-03-22T08:08:19Z</time>
      </trkpt>
      <trkpt lat="44.47091" lon="1.58832">
        <ele>130.2</ele>
        <time>2026-03-22T08:08:20Z</time>
      </trkpt>
      <trkpt lat="44.47091" lon="1.58833">
        <ele>130.2</ele>
        <time>2026-03-22T08:08:21Z</time>
      </trkpt>
      <trkpt lat="44.47092" lon="1.58835">
        <ele>130.2</ele>
        <time>2026-03-22T08:08:22Z</time>
      </trkpt>
      <trkpt lat="44.47092" lon="1.58835">
        <ele>131</ele>
        <time>2026-03-22T08:08:24Z</time>
      </trkpt>
      <trkpt lat="44.47098" lon="1.58831">
        <ele>136</ele>
        <time>2026-03-22T08:08:40Z</time>
      </trkpt>
      <trkpt lat="44.47101" lon="1.5883">
        <ele>136</ele>
        <time>2026-03-22T08:08:41Z</time>
      </trkpt>
      <trkpt lat="44.47103" lon="1.58828">
        <ele>136</ele>
        <time>2026-03-22T08:08:42Z</time>
      </trkpt>
      <trkpt lat="44.47107" lon="1.58827">
        <ele>136</ele>
        <time>2026-03-22T08:08:43Z</time>
      </trkpt>
      <trkpt lat="44.4711" lon="1.58826">
        <ele>136</ele>
        <time>2026-03-22T08:08:44Z</time>
      </trkpt>
      <trkpt lat="44.47113" lon="1.58824">
        <ele>136.2</ele>
        <time>2026-03-22T08:08:45Z</time>
      </trkpt>
      <trkpt lat="44.47116" lon="1.58822">
        <ele>136.2</ele>
        <time>2026-03-22T08:08:46Z</time>
      </trkpt>
      <trkpt lat="44.4712" lon="1.5882">
        <ele>136.4</ele>
        <time>2026-03-22T08:08:47Z</time>
      </trkpt>
      <trkpt lat="44.47125" lon="1.58818">
        <ele>136.6</ele>
        <time>2026-03-22T08:08:48Z</time>
      </trkpt>
      <trkpt lat="44.47128" lon="1.58816">
        <ele>137</ele>
        <time>2026-03-22T08:08:49Z</time>
      </trkpt>
      <trkpt lat="44.47132" lon="1.58814">
        <ele>137.2</ele>
        <time>2026-03-22T08:08:50Z</time>
      </trkpt>
      <trkpt lat="44.47135" lon="1.58812">
        <ele>137.6</ele>
        <time>2026-03-22T08:08:51Z</time>
      </trkpt>
      <trkpt lat="44.47139" lon="1.58809">
        <ele>138</ele>
        <time>2026-03-22T08:08:52Z</time>
      </trkpt>
      <trkpt lat="44.47144" lon="1.58805">
        <ele>138.4</ele>
        <time>2026-03-22T08:08:53Z</time>
      </trkpt>
      <trkpt lat="44.47148" lon="1.58803">
        <ele>139</ele>
        <time>2026-03-22T08:08:54Z</time>
      </trkpt>
      <trkpt lat="44.47153" lon="1.588">
        <ele>139.4</ele>
        <time>2026-03-22T08:08:55Z</time>
      </trkpt>
      <trkpt lat="44.47158" lon="1.58797">
        <ele>139.6</ele>
        <time>2026-03-22T08:08:56Z</time>
      </trkpt>
      <trkpt lat="44.47163" lon="1.58794">
        <ele>140.2</ele>
        <time>2026-03-22T08:08:57Z</time>
      </trkpt>
      <trkpt lat="44.47167" lon="1.58791">
        <ele>140.8</ele>
        <time>2026-03-22T08:08:58Z</time>
      </trkpt>
      <trkpt lat="44.47171" lon="1.58789">
        <ele>141.2</ele>
        <time>2026-03-22T08:08:59Z</time>
      </trkpt>
      <trkpt lat="44.47177" lon="1.58785">
        <ele>141.6</ele>
        <time>2026-03-22T08:09:00Z</time>
      </trkpt>
      <trkpt lat="44.47182" lon="1.58782">
        <ele>141.8</ele>
        <time>2026-03-22T08:09:01Z</time>
      </trkpt>
      <trkpt lat="44.47188" lon="1.58778">
        <ele>141.8</ele>
        <time>2026-03-22T08:09:02Z</time>
      </trkpt>
      <trkpt lat="44.47192" lon="1.58775">
        <ele>141.8</ele>
        <time>2026-03-22T08:09:03Z</time>
      </trkpt>
      <trkpt lat="44.47197" lon="1.58772">
        <ele>141.8</ele>
        <time>2026-03-22T08:09:04Z</time>
      </trkpt>
      <trkpt lat="44.47204" lon="1.58767">
        <ele>141.8</ele>
        <time>2026-03-22T08:09:05Z</time>
      </trkpt>
      <trkpt lat="44.47208" lon="1.58764">
        <ele>141.8</ele>
        <time>2026-03-22T08:09:06Z</time>
      </trkpt>
      <trkpt lat="44.47213" lon="1.58761">
        <ele>141.8</ele>
        <time>2026-03-22T08:09:07Z</time>
      </trkpt>
      <trkpt lat="44.47219" lon="1.58759">
        <ele>141.8</ele>
        <time>2026-03-22T08:09:08Z</time>
      </trkpt>
      <trkpt lat="44.47223" lon="1.58756">
        <ele>141.8</ele>
        <time>2026-03-22T08:09:09Z</time>
      </trkpt>
      <trkpt lat="44.47228" lon="1.58754">
        <ele>141.6</ele>
        <time>2026-03-22T08:09:10Z</time>
      </trkpt>
      <trkpt lat="44.47234" lon="1.58753">
        <ele>141.4</ele>
        <time>2026-03-22T08:09:11Z</time>
      </trkpt>
      <trkpt lat="44.47237" lon="1.58752">
        <ele>141.2</ele>
        <time>2026-03-22T08:09:12Z</time>
      </trkpt>
      <trkpt lat="44.47243" lon="1.5875">
        <ele>141</ele>
        <time>2026-03-22T08:09:13Z</time>
      </trkpt>
      <trkpt lat="44.47248" lon="1.58748">
        <ele>141</ele>
        <time>2026-03-22T08:09:14Z</time>
      </trkpt>
      <trkpt lat="44.47255" lon="1.58746">
        <ele>141</ele>
        <time>2026-03-22T08:09:15Z</time>
      </trkpt>
      <trkpt lat="44.47259" lon="1.58745">
        <ele>141</ele>
        <time>2026-03-22T08:09:16Z</time>
      </trkpt>
      <trkpt lat="44.47264" lon="1.58744">
        <ele>141</ele>
        <time>2026-03-22T08:09:17Z</time>
      </trkpt>
      <trkpt lat="44.47269" lon="1.58743">
        <ele>141</ele>
        <time>2026-03-22T08:09:18Z</time>
      </trkpt>
      <trkpt lat="44.47273" lon="1.58743">
        <ele>141</ele>
        <time>2026-03-22T08:09:19Z</time>
      </trkpt>
      <trkpt lat="44.47277" lon="1.58742">
        <ele>141</ele>
        <time>2026-03-22T08:09:20Z</time>
      </trkpt>
      <trkpt lat="44.47282" lon="1.58741">
        <ele>141.2</ele>
        <time>2026-03-22T08:09:21Z</time>
      </trkpt>
      <trkpt lat="44.4729" lon="1.5874">
        <ele>141.8</ele>
        <time>2026-03-22T08:09:23Z</time>
      </trkpt>
      <trkpt lat="44.47295" lon="1.5874">
        <ele>142</ele>
        <time>2026-03-22T08:09:24Z</time>
      </trkpt>
      <trkpt lat="44.47298" lon="1.5874">
        <ele>142.4</ele>
        <time>2026-03-22T08:09:25Z</time>
      </trkpt>
      <trkpt lat="44.47302" lon="1.58741">
        <ele>143</ele>
        <time>2026-03-22T08:09:26Z</time>
      </trkpt>
      <trkpt lat="44.47304" lon="1.58743">
        <ele>143.4</ele>
        <time>2026-03-22T08:09:27Z</time>
      </trkpt>
      <trkpt lat="44.47304" lon="1.58745">
        <ele>144</ele>
        <time>2026-03-22T08:09:28Z</time>
      </trkpt>
      <trkpt lat="44.47302" lon="1.58745">
        <ele>144.4</ele>
        <time>2026-03-22T08:09:29Z</time>
      </trkpt>
      <trkpt lat="44.47298" lon="1.58747">
        <ele>145</ele>
        <time>2026-03-22T08:09:30Z</time>
      </trkpt>
      <trkpt lat="44.47294" lon="1.58749">
        <ele>145.2</ele>
        <time>2026-03-22T08:09:31Z</time>
      </trkpt>
      <trkpt lat="44.47291" lon="1.58751">
        <ele>145.6</ele>
        <time>2026-03-22T08:09:32Z</time>
      </trkpt>
      <trkpt lat="44.47287" lon="1.58753">
        <ele>146.4</ele>
        <time>2026-03-22T08:09:33Z</time>
      </trkpt>
      <trkpt lat="44.47283" lon="1.58755">
        <ele>146.8</ele>
        <time>2026-03-22T08:09:34Z</time>
      </trkpt>
      <trkpt lat="44.47279" lon="1.58758">
        <ele>147</ele>
        <time>2026-03-22T08:09:35Z</time>
      </trkpt>
      <trkpt lat="44.47274" lon="1.5876">
        <ele>147.4</ele>
        <time>2026-03-22T08:09:36Z</time>
      </trkpt>
      <trkpt lat="44.4727" lon="1.58763">
        <ele>147.6</ele>
        <time>2026-03-22T08:09:37Z</time>
      </trkpt>
      <trkpt lat="44.47266" lon="1.58766">
        <ele>148.2</ele>
        <time>2026-03-22T08:09:38Z</time>
      </trkpt>
      <trkpt lat="44.47262" lon="1.5877">
        <ele>148.4</ele>
        <time>2026-03-22T08:09:39Z</time>
      </trkpt>
      <trkpt lat="44.47259" lon="1.58774">
        <ele>148.8</ele>
        <time>2026-03-22T08:09:40Z</time>
      </trkpt>
      <trkpt lat="44.47255" lon="1.58778">
        <ele>149.2</ele>
        <time>2026-03-22T08:09:41Z</time>
      </trkpt>
      <trkpt lat="44.47251" lon="1.58782">
        <ele>149.4</ele>
        <time>2026-03-22T08:09:42Z</time>
      </trkpt>
      <trkpt lat="44.47247" lon="1.58786">
        <ele>149.4</ele>
        <time>2026-03-22T08:09:43Z</time>
      </trkpt>
      <trkpt lat="44.47243" lon="1.58789">
        <ele>149.8</ele>
        <time>2026-03-22T08:09:44Z</time>
      </trkpt>
      <trkpt lat="44.47239" lon="1.58792">
        <ele>150.8</ele>
        <time>2026-03-22T08:09:45Z</time>
      </trkpt>
      <trkpt lat="44.47236" lon="1.58795">
        <ele>151.2</ele>
        <time>2026-03-22T08:09:46Z</time>
      </trkpt>
      <trkpt lat="44.47232" lon="1.58798">
        <ele>151.6</ele>
        <time>2026-03-22T08:09:47Z</time>
      </trkpt>
      <trkpt lat="44.47228" lon="1.58802">
        <ele>151.8</ele>
        <time>2026-03-22T08:09:48Z</time>
      </trkpt>
      <trkpt lat="44.47224" lon="1.58805">
        <ele>152.2</ele>
        <time>2026-03-22T08:09:49Z</time>
      </trkpt>
      <trkpt lat="44.4722" lon="1.58809">
        <ele>152.6</ele>
        <time>2026-03-22T08:09:50Z</time>
      </trkpt>
      <trkpt lat="44.47216" lon="1.58812">
        <ele>152.8</ele>
        <time>2026-03-22T08:09:51Z</time>
      </trkpt>
      <trkpt lat="44.47212" lon="1.58815">
        <ele>152.8</ele>
        <time>2026-03-22T08:09:52Z</time>
      </trkpt>
      <trkpt lat="44.47208" lon="1.58818">
        <ele>153.2</ele>
        <time>2026-03-22T08:09:53Z</time>
      </trkpt>
      <trkpt lat="44.47204" lon="1.58821">
        <ele>153.4</ele>
        <time>2026-03-22T08:09:54Z</time>
      </trkpt>
      <trkpt lat="44.472" lon="1.58823">
        <ele>153.8</ele>
        <time>2026-03-22T08:09:55Z</time>
      </trkpt>
      <trkpt lat="44.47195" lon="1.58826">
        <ele>154.2</ele>
        <time>2026-03-22T08:09:56Z</time>
      </trkpt>
      <trkpt lat="44.47191" lon="1.58828">
        <ele>154.2</ele>
        <time>2026-03-22T08:09:57Z</time>
      </trkpt>
      <trkpt lat="44.47186" lon="1.5883">
        <ele>154.6</ele>
        <time>2026-03-22T08:09:58Z</time>
      </trkpt>
      <trkpt lat="44.47181" lon="1.58833">
        <ele>154.8</ele>
        <time>2026-03-22T08:09:59Z</time>
      </trkpt>
      <trkpt lat="44.47177" lon="1.58836">
        <ele>155</ele>
        <time>2026-03-22T08:10:00Z</time>
      </trkpt>
      <trkpt lat="44.47172" lon="1.5884">
        <ele>155.4</ele>
        <time>2026-03-22T08:10:01Z</time>
      </trkpt>
      <trkpt lat="44.47167" lon="1.58844">
        <ele>155.4</ele>
        <time>2026-03-22T08:10:02Z</time>
      </trkpt>
      <trkpt lat="44.47163" lon="1.5885">
        <ele>155.6</ele>
        <time>2026-03-22T08:10:03Z</time>
      </trkpt>
      <trkpt lat="44.47159" lon="1.58856">
        <ele>156</ele>
        <time>2026-03-22T08:10:04Z</time>
      </trkpt>
      <trkpt lat="44.47157" lon="1.58862">
        <ele>156.4</ele>
        <time>2026-03-22T08:10:05Z</time>
      </trkpt>
      <trkpt lat="44.47155" lon="1.5887">
        <ele>156.6</ele>
        <time>2026-03-22T08:10:06Z</time>
      </trkpt>
      <trkpt lat="44.47153" lon="1.58878">
        <ele>156.6</ele>
        <time>2026-03-22T08:10:07Z</time>
      </trkpt>
      <trkpt lat="44.47152" lon="1.58886">
        <ele>156.8</ele>
        <time>2026-03-22T08:10:08Z</time>
      </trkpt>
      <trkpt lat="44.4715" lon="1.58894">
        <ele>156.8</ele>
        <time>2026-03-22T08:10:09Z</time>
      </trkpt>
      <trkpt lat="44.47148" lon="1.58901">
        <ele>156.8</ele>
        <time>2026-03-22T08:10:10Z</time>
      </trkpt>
      <trkpt lat="44.47145" lon="1.58909">
        <ele>157</ele>
        <time>2026-03-22T08:10:11Z</time>
      </trkpt>
      <trkpt lat="44.47141" lon="1.58917">
        <ele>157</ele>
        <time>2026-03-22T08:10:12Z</time>
      </trkpt>
      <trkpt lat="44.47138" lon="1.58924">
        <ele>157</ele>
        <time>2026-03-22T08:10:13Z</time>
      </trkpt>
      <trkpt lat="44.47134" lon="1.58934">
        <ele>157.2</ele>
        <time>2026-03-22T08:10:14Z</time>
      </trkpt>
      <trkpt lat="44.47131" lon="1.5894">
        <ele>157.2</ele>
        <time>2026-03-22T08:10:15Z</time>
      </trkpt>
      <trkpt lat="44.47128" lon="1.58947">
        <ele>157.2</ele>
        <time>2026-03-22T08:10:16Z</time>
      </trkpt>
      <trkpt lat="44.47125" lon="1.58954">
        <ele>157.2</ele>
        <time>2026-03-22T08:10:17Z</time>
      </trkpt>
      <trkpt lat="44.4712" lon="1.5896">
        <ele>157.2</ele>
        <time>2026-03-22T08:10:18Z</time>
      </trkpt>
      <trkpt lat="44.47116" lon="1.58966">
        <ele>157.2</ele>
        <time>2026-03-22T08:10:19Z</time>
      </trkpt>
      <trkpt lat="44.47111" lon="1.5897">
        <ele>157.4</ele>
        <time>2026-03-22T08:10:20Z</time>
      </trkpt>
      <trkpt lat="44.47107" lon="1.58973">
        <ele>157.4</ele>
        <time>2026-03-22T08:10:21Z</time>
      </trkpt>
      <trkpt lat="44.47102" lon="1.58976">
        <ele>157.6</ele>
        <time>2026-03-22T08:10:22Z</time>
      </trkpt>
      <trkpt lat="44.47097" lon="1.58979">
        <ele>157.6</ele>
        <time>2026-03-22T08:10:23Z</time>
      </trkpt>
      <trkpt lat="44.47092" lon="1.58982">
        <ele>157.6</ele>
        <time>2026-03-22T08:10:24Z</time>
      </trkpt>
      <trkpt lat="44.47087" lon="1.58985">
        <ele>157.6</ele>
        <time>2026-03-22T08:10:25Z</time>
      </trkpt>
      <trkpt lat="44.47081" lon="1.58988">
        <ele>157.6</ele>
        <time>2026-03-22T08:10:26Z</time>
      </trkpt>
      <trkpt lat="44.47076" lon="1.58991">
        <ele>157.6</ele>
        <time>2026-03-22T08:10:27Z</time>
      </trkpt>
      <trkpt lat="44.47071" lon="1.58994">
        <ele>157.6</ele>
        <time>2026-03-22T08:10:28Z</time>
      </trkpt>
      <trkpt lat="44.47067" lon="1.58997">
        <ele>157.8</ele>
        <time>2026-03-22T08:10:29Z</time>
      </trkpt>
      <trkpt lat="44.47061" lon="1.59">
        <ele>158</ele>
        <time>2026-03-22T08:10:30Z</time>
      </trkpt>
      <trkpt lat="44.47058" lon="1.59003">
        <ele>158.4</ele>
        <time>2026-03-22T08:10:31Z</time>
      </trkpt>
      <trkpt lat="44.47053" lon="1.59007">
        <ele>158.4</ele>
        <time>2026-03-22T08:10:32Z</time>
      </trkpt>
      <trkpt lat="44.47049" lon="1.59011">
        <ele>158.8</ele>
        <time>2026-03-22T08:10:33Z</time>
      </trkpt>
      <trkpt lat="44.47045" lon="1.59015">
        <ele>159</ele>
        <time>2026-03-22T08:10:34Z</time>
      </trkpt>
      <trkpt lat="44.4704" lon="1.59019">
        <ele>159</ele>
        <time>2026-03-22T08:10:35Z</time>
      </trkpt>
      <trkpt lat="44.47035" lon="1.59024">
        <ele>159.2</ele>
        <time>2026-03-22T08:10:36Z</time>
      </trkpt>
      <trkpt lat="44.47031" lon="1.59029">
        <ele>159.2</ele>
        <time>2026-03-22T08:10:37Z</time>
      </trkpt>
      <trkpt lat="44.47026" lon="1.59034">
        <ele>159.2</ele>
        <time>2026-03-22T08:10:38Z</time>
      </trkpt>
      <trkpt lat="44.47021" lon="1.5904">
        <ele>159.2</ele>
        <time>2026-03-22T08:10:39Z</time>
      </trkpt>
      <trkpt lat="44.47017" lon="1.59045">
        <ele>159.2</ele>
        <time>2026-03-22T08:10:40Z</time>
      </trkpt>
      <trkpt lat="44.47012" lon="1.5905">
        <ele>159.2</ele>
        <time>2026-03-22T08:10:41Z</time>
      </trkpt>
      <trkpt lat="44.47007" lon="1.59056">
        <ele>159.2</ele>
        <time>2026-03-22T08:10:42Z</time>
      </trkpt>
      <trkpt lat="44.47002" lon="1.59061">
        <ele>159.2</ele>
        <time>2026-03-22T08:10:43Z</time>
      </trkpt>
      <trkpt lat="44.46997" lon="1.59066">
        <ele>159.2</ele>
        <time>2026-03-22T08:10:44Z</time>
      </trkpt>
      <trkpt lat="44.46992" lon="1.59071">
        <ele>159</ele>
        <time>2026-03-22T08:10:45Z</time>
      </trkpt>
      <trkpt lat="44.46987" lon="1.59076">
        <ele>158.8</ele>
        <time>2026-03-22T08:10:46Z</time>
      </trkpt>
      <trkpt lat="44.46977" lon="1.59087">
        <ele>158</ele>
        <time>2026-03-22T08:10:48Z</time>
      </trkpt>
      <trkpt lat="44.46963" lon="1.59102">
        <ele>157.2</ele>
        <time>2026-03-22T08:10:51Z</time>
      </trkpt>
      <trkpt lat="44.46958" lon="1.59107">
        <ele>156.8</ele>
        <time>2026-03-22T08:10:52Z</time>
      </trkpt>
      <trkpt lat="44.46954" lon="1.5911">
        <ele>156.6</ele>
        <time>2026-03-22T08:10:53Z</time>
      </trkpt>
      <trkpt lat="44.46949" lon="1.59115">
        <ele>156.6</ele>
        <time>2026-03-22T08:10:54Z</time>
      </trkpt>
      <trkpt lat="44.46945" lon="1.59119">
        <ele>156.4</ele>
        <time>2026-03-22T08:10:55Z</time>
      </trkpt>
      <trkpt lat="44.46935" lon="1.59127">
        <ele>156.4</ele>
        <time>2026-03-22T08:10:57Z</time>
      </trkpt>
      <trkpt lat="44.46931" lon="1.59131">
        <ele>156.4</ele>
        <time>2026-03-22T08:10:58Z</time>
      </trkpt>
      <trkpt lat="44.46927" lon="1.59134">
        <ele>156.4</ele>
        <time>2026-03-22T08:10:59Z</time>
      </trkpt>
      <trkpt lat="44.46918" lon="1.59141">
        <ele>156.4</ele>
        <time>2026-03-22T08:11:01Z</time>
      </trkpt>
      <trkpt lat="44.46913" lon="1.59145">
        <ele>156.4</ele>
        <time>2026-03-22T08:11:02Z</time>
      </trkpt>
      <trkpt lat="44.46908" lon="1.59149">
        <ele>156.6</ele>
        <time>2026-03-22T08:11:03Z</time>
      </trkpt>
      <trkpt lat="44.46904" lon="1.59152">
        <ele>156.6</ele>
        <time>2026-03-22T08:11:04Z</time>
      </trkpt>
      <trkpt lat="44.46899" lon="1.59156">
        <ele>156.8</ele>
        <time>2026-03-22T08:11:05Z</time>
      </trkpt>
      <trkpt lat="44.46895" lon="1.59159">
        <ele>157</ele>
        <time>2026-03-22T08:11:06Z</time>
      </trkpt>
      <trkpt lat="44.46891" lon="1.59162">
        <ele>157.2</ele>
        <time>2026-03-22T08:11:07Z</time>
      </trkpt>
      <trkpt lat="44.46876" lon="1.59172">
        <ele>158.4</ele>
        <time>2026-03-22T08:11:10Z</time>
      </trkpt>
      <trkpt lat="44.4687" lon="1.59175">
        <ele>158.6</ele>
        <time>2026-03-22T08:11:11Z</time>
      </trkpt>
      <trkpt lat="44.46852" lon="1.59194">
        <ele>159.4</ele>
        <time>2026-03-22T08:11:15Z</time>
      </trkpt>
      <trkpt lat="44.46839" lon="1.59208">
        <ele>160</ele>
        <time>2026-03-22T08:11:18Z</time>
      </trkpt>
      <trkpt lat="44.46827" lon="1.59224">
        <ele>160.2</ele>
        <time>2026-03-22T08:11:21Z</time>
      </trkpt>
      <trkpt lat="44.46823" lon="1.59229">
        <ele>160.2</ele>
        <time>2026-03-22T08:11:22Z</time>
      </trkpt>
      <trkpt lat="44.46819" lon="1.59234">
        <ele>160.4</ele>
        <time>2026-03-22T08:11:23Z</time>
      </trkpt>
      <trkpt lat="44.46815" lon="1.59239">
        <ele>160.4</ele>
        <time>2026-03-22T08:11:24Z</time>
      </trkpt>
      <trkpt lat="44.46811" lon="1.59244">
        <ele>160.4</ele>
        <time>2026-03-22T08:11:25Z</time>
      </trkpt>
      <trkpt lat="44.46807" lon="1.59249">
        <ele>160.4</ele>
        <time>2026-03-22T08:11:26Z</time>
      </trkpt>
      <trkpt lat="44.46803" lon="1.59254">
        <ele>160.4</ele>
        <time>2026-03-22T08:11:27Z</time>
      </trkpt>
      <trkpt lat="44.468" lon="1.59259">
        <ele>160.6</ele>
        <time>2026-03-22T08:11:28Z</time>
      </trkpt>
      <trkpt lat="44.46796" lon="1.59265">
        <ele>160.6</ele>
        <time>2026-03-22T08:11:29Z</time>
      </trkpt>
      <trkpt lat="44.46792" lon="1.5927">
        <ele>160.6</ele>
        <time>2026-03-22T08:11:30Z</time>
      </trkpt>
      <trkpt lat="44.46788" lon="1.59276">
        <ele>160.6</ele>
        <time>2026-03-22T08:11:31Z</time>
      </trkpt>
      <trkpt lat="44.46784" lon="1.59281">
        <ele>160.6</ele>
        <time>2026-03-22T08:11:32Z</time>
      </trkpt>
      <trkpt lat="44.46781" lon="1.59287">
        <ele>160.8</ele>
        <time>2026-03-22T08:11:33Z</time>
      </trkpt>
      <trkpt lat="44.46776" lon="1.59294">
        <ele>160.8</ele>
        <time>2026-03-22T08:11:34Z</time>
      </trkpt>
      <trkpt lat="44.46772" lon="1.593">
        <ele>160.8</ele>
        <time>2026-03-22T08:11:35Z</time>
      </trkpt>
      <trkpt lat="44.46768" lon="1.59305">
        <ele>160.8</ele>
        <time>2026-03-22T08:11:36Z</time>
      </trkpt>
      <trkpt lat="44.46764" lon="1.5931">
        <ele>160.8</ele>
        <time>2026-03-22T08:11:37Z</time>
      </trkpt>
      <trkpt lat="44.46751" lon="1.59333">
        <ele>160.8</ele>
        <time>2026-03-22T08:11:41Z</time>
      </trkpt>
      <trkpt lat="44.46747" lon="1.59339">
        <ele>160.8</ele>
        <time>2026-03-22T08:11:42Z</time>
      </trkpt>
      <trkpt lat="44.46744" lon="1.59344">
        <ele>160.8</ele>
        <time>2026-03-22T08:11:43Z</time>
      </trkpt>
      <trkpt lat="44.46742" lon="1.59349">
        <ele>160.8</ele>
        <time>2026-03-22T08:11:44Z</time>
      </trkpt>
      <trkpt lat="44.46739" lon="1.59355">
        <ele>160.8</ele>
        <time>2026-03-22T08:11:45Z</time>
      </trkpt>
      <trkpt lat="44.46735" lon="1.59365">
        <ele>160.6</ele>
        <time>2026-03-22T08:11:47Z</time>
      </trkpt>
      <trkpt lat="44.46732" lon="1.59371">
        <ele>160.6</ele>
        <time>2026-03-22T08:11:48Z</time>
      </trkpt>
      <trkpt lat="44.46731" lon="1.59377">
        <ele>160.6</ele>
        <time>2026-03-22T08:11:49Z</time>
      </trkpt>
      <trkpt lat="44.46729" lon="1.59382">
        <ele>160.6</ele>
        <time>2026-03-22T08:11:50Z</time>
      </trkpt>
      <trkpt lat="44.46727" lon="1.59387">
        <ele>160.4</ele>
        <time>2026-03-22T08:11:51Z</time>
      </trkpt>
      <trkpt lat="44.46726" lon="1.59391">
        <ele>160.4</ele>
        <time>2026-03-22T08:11:52Z</time>
      </trkpt>
      <trkpt lat="44.46724" lon="1.59395">
        <ele>160.4</ele>
        <time>2026-03-22T08:11:53Z</time>
      </trkpt>
      <trkpt lat="44.46723" lon="1.59399">
        <ele>160.4</ele>
        <time>2026-03-22T08:11:54Z</time>
      </trkpt>
      <trkpt lat="44.46724" lon="1.59402">
        <ele>160.4</ele>
        <time>2026-03-22T08:11:55Z</time>
      </trkpt>
      <trkpt lat="44.46727" lon="1.59405">
        <ele>160.4</ele>
        <time>2026-03-22T08:11:56Z</time>
      </trkpt>
      <trkpt lat="44.46728" lon="1.59406">
        <ele>160.4</ele>
        <time>2026-03-22T08:11:57Z</time>
      </trkpt>
      <trkpt lat="44.46729" lon="1.59406">
        <ele>160.4</ele>
        <time>2026-03-22T08:11:58Z</time>
      </trkpt>
      <trkpt lat="44.4673" lon="1.59406">
        <ele>160.4</ele>
        <time>2026-03-22T08:11:59Z</time>
      </trkpt>
      <trkpt lat="44.4673" lon="1.59405">
        <ele>160.4</ele>
        <time>2026-03-22T08:12:00Z</time>
      </trkpt>
      <trkpt lat="44.4673" lon="1.59403">
        <ele>160.4</ele>
        <time>2026-03-22T08:12:01Z</time>
      </trkpt>
      <trkpt lat="44.46731" lon="1.59401">
        <ele>160.4</ele>
        <time>2026-03-22T08:12:02Z</time>
      </trkpt>
      <trkpt lat="44.46733" lon="1.59399">
        <ele>160.4</ele>
        <time>2026-03-22T08:12:03Z</time>
      </trkpt>
      <trkpt lat="44.46734" lon="1.59396">
        <ele>160.4</ele>
        <time>2026-03-22T08:12:04Z</time>
      </trkpt>
      <trkpt lat="44.46736" lon="1.59394">
        <ele>161</ele>
        <time>2026-03-22T08:12:05Z</time>
      </trkpt>
      <trkpt lat="44.46738" lon="1.59391">
        <ele>161.4</ele>
        <time>2026-03-22T08:12:06Z</time>
      </trkpt>
      <trkpt lat="44.46743" lon="1.59387">
        <ele>161.8</ele>
        <time>2026-03-22T08:12:08Z</time>
      </trkpt>
      <trkpt lat="44.46745" lon="1.59385">
        <ele>161.8</ele>
        <time>2026-03-22T08:12:09Z</time>
      </trkpt>
      <trkpt lat="44.46748" lon="1.59383">
        <ele>162</ele>
        <time>2026-03-22T08:12:10Z</time>
      </trkpt>
      <trkpt lat="44.46753" lon="1.5938">
        <ele>162.8</ele>
        <time>2026-03-22T08:12:12Z</time>
      </trkpt>
      <trkpt lat="44.4676" lon="1.59375">
        <ele>163.8</ele>
        <time>2026-03-22T08:12:15Z</time>
      </trkpt>
      <trkpt lat="44.46762" lon="1.59376">
        <ele>164.2</ele>
        <time>2026-03-22T08:12:16Z</time>
      </trkpt>
      <trkpt lat="44.46763" lon="1.59378">
        <ele>164.6</ele>
        <time>2026-03-22T08:12:17Z</time>
      </trkpt>
      <trkpt lat="44.46763" lon="1.59381">
        <ele>165</ele>
        <time>2026-03-22T08:12:18Z</time>
      </trkpt>
      <trkpt lat="44.46764" lon="1.59383">
        <ele>165.4</ele>
        <time>2026-03-22T08:12:19Z</time>
      </trkpt>
      <trkpt lat="44.46764" lon="1.59386">
        <ele>165.8</ele>
        <time>2026-03-22T08:12:20Z</time>
      </trkpt>
      <trkpt lat="44.46764" lon="1.59389">
        <ele>166.2</ele>
        <time>2026-03-22T08:12:21Z</time>
      </trkpt>
      <trkpt lat="44.46765" lon="1.59393">
        <ele>166.6</ele>
        <time>2026-03-22T08:12:22Z</time>
      </trkpt>
      <trkpt lat="44.46765" lon="1.59395">
        <ele>166.8</ele>
        <time>2026-03-22T08:12:23Z</time>
      </trkpt>
      <trkpt lat="44.46765" lon="1.59399">
        <ele>167.2</ele>
        <time>2026-03-22T08:12:24Z</time>
      </trkpt>
      <trkpt lat="44.46765" lon="1.59403">
        <ele>167.8</ele>
        <time>2026-03-22T08:12:25Z</time>
      </trkpt>
      <trkpt lat="44.46765" lon="1.59406">
        <ele>168.4</ele>
        <time>2026-03-22T08:12:26Z</time>
      </trkpt>
      <trkpt lat="44.46765" lon="1.59411">
        <ele>169</ele>
        <time>2026-03-22T08:12:27Z</time>
      </trkpt>
      <trkpt lat="44.46765" lon="1.59415">
        <ele>169.2</ele>
        <time>2026-03-22T08:12:28Z</time>
      </trkpt>
      <trkpt lat="44.46764" lon="1.59419">
        <ele>169.6</ele>
        <time>2026-03-22T08:12:29Z</time>
      </trkpt>
      <trkpt lat="44.46764" lon="1.59423">
        <ele>170</ele>
        <time>2026-03-22T08:12:30Z</time>
      </trkpt>
      <trkpt lat="44.46764" lon="1.59426">
        <ele>170.4</ele>
        <time>2026-03-22T08:12:31Z</time>
      </trkpt>
      <trkpt lat="44.46764" lon="1.5943">
        <ele>170.8</ele>
        <time>2026-03-22T08:12:32Z</time>
      </trkpt>
      <trkpt lat="44.46765" lon="1.59433">
        <ele>171</ele>
        <time>2026-03-22T08:12:33Z</time>
      </trkpt>
      <trkpt lat="44.46766" lon="1.59437">
        <ele>171.4</ele>
        <time>2026-03-22T08:12:34Z</time>
      </trkpt>
      <trkpt lat="44.46768" lon="1.59439">
        <ele>171.6</ele>
        <time>2026-03-22T08:12:35Z</time>
      </trkpt>
      <trkpt lat="44.4677" lon="1.59442">
        <ele>172</ele>
        <time>2026-03-22T08:12:36Z</time>
      </trkpt>
      <trkpt lat="44.46771" lon="1.59444">
        <ele>172.2</ele>
        <time>2026-03-22T08:12:37Z</time>
      </trkpt>
      <trkpt lat="44.46773" lon="1.59446">
        <ele>172.4</ele>
        <time>2026-03-22T08:12:38Z</time>
      </trkpt>
      <trkpt lat="44.46775" lon="1.59447">
        <ele>172.6</ele>
        <time>2026-03-22T08:12:39Z</time>
      </trkpt>
      <trkpt lat="44.46777" lon="1.59447">
        <ele>172.8</ele>
        <time>2026-03-22T08:12:40Z</time>
      </trkpt>
      <trkpt lat="44.46779" lon="1.59445">
        <ele>173.2</ele>
        <time>2026-03-22T08:12:41Z</time>
      </trkpt>
      <trkpt lat="44.46781" lon="1.59443">
        <ele>173.8</ele>
        <time>2026-03-22T08:12:42Z</time>
      </trkpt>
      <trkpt lat="44.46783" lon="1.5944">
        <ele>174.2</ele>
        <time>2026-03-22T08:12:43Z</time>
      </trkpt>
      <trkpt lat="44.46785" lon="1.59438">
        <ele>174.6</ele>
        <time>2026-03-22T08:12:44Z</time>
      </trkpt>
      <trkpt lat="44.46787" lon="1.59435">
        <ele>175.2</ele>
        <time>2026-03-22T08:12:45Z</time>
      </trkpt>
      <trkpt lat="44.46789" lon="1.59433">
        <ele>175.8</ele>
        <time>2026-03-22T08:12:46Z</time>
      </trkpt>
      <trkpt lat="44.46791" lon="1.59431">
        <ele>176.2</ele>
        <time>2026-03-22T08:12:47Z</time>
      </trkpt>
      <trkpt lat="44.46792" lon="1.59428">
        <ele>176.8</ele>
        <time>2026-03-22T08:12:48Z</time>
      </trkpt>
      <trkpt lat="44.46793" lon="1.59426">
        <ele>177.2</ele>
        <time>2026-03-22T08:12:49Z</time>
      </trkpt>
      <trkpt lat="44.46795" lon="1.59424">
        <ele>177.8</ele>
        <time>2026-03-22T08:12:50Z</time>
      </trkpt>
      <trkpt lat="44.46797" lon="1.59421">
        <ele>178.4</ele>
        <time>2026-03-22T08:12:51Z</time>
      </trkpt>
      <trkpt lat="44.46798" lon="1.59418">
        <ele>178.6</ele>
        <time>2026-03-22T08:12:52Z</time>
      </trkpt>
      <trkpt lat="44.468" lon="1.59416">
        <ele>179.2</ele>
        <time>2026-03-22T08:12:53Z</time>
      </trkpt>
      <trkpt lat="44.46802" lon="1.59414">
        <ele>179.6</ele>
        <time>2026-03-22T08:12:54Z</time>
      </trkpt>
      <trkpt lat="44.46803" lon="1.59413">
        <ele>179.8</ele>
        <time>2026-03-22T08:12:55Z</time>
      </trkpt>
      <trkpt lat="44.46805" lon="1.59411">
        <ele>180</ele>
        <time>2026-03-22T08:12:56Z</time>
      </trkpt>
      <trkpt lat="44.46807" lon="1.59409">
        <ele>180.2</ele>
        <time>2026-03-22T08:12:57Z</time>
      </trkpt>
      <trkpt lat="44.46808" lon="1.59408">
        <ele>180.6</ele>
        <time>2026-03-22T08:12:58Z</time>
      </trkpt>
      <trkpt lat="44.4681" lon="1.59407">
        <ele>181</ele>
        <time>2026-03-22T08:12:59Z</time>
      </trkpt>
      <trkpt lat="44.46812" lon="1.59405">
        <ele>181.2</ele>
        <time>2026-03-22T08:13:00Z</time>
      </trkpt>
      <trkpt lat="44.46815" lon="1.59404">
        <ele>181.6</ele>
        <time>2026-03-22T08:13:01Z</time>
      </trkpt>
      <trkpt lat="44.46817" lon="1.59403">
        <ele>181.8</ele>
        <time>2026-03-22T08:13:02Z</time>
      </trkpt>
      <trkpt lat="44.46818" lon="1.59403">
        <ele>182.2</ele>
        <time>2026-03-22T08:13:03Z</time>
      </trkpt>
      <trkpt lat="44.4682" lon="1.59403">
        <ele>182.4</ele>
        <time>2026-03-22T08:13:04Z</time>
      </trkpt>
      <trkpt lat="44.46821" lon="1.59403">
        <ele>182.8</ele>
        <time>2026-03-22T08:13:05Z</time>
      </trkpt>
      <trkpt lat="44.46823" lon="1.59402">
        <ele>183.2</ele>
        <time>2026-03-22T08:13:06Z</time>
      </trkpt>
      <trkpt lat="44.46825" lon="1.59401">
        <ele>183.4</ele>
        <time>2026-03-22T08:13:07Z</time>
      </trkpt>
      <trkpt lat="44.46827" lon="1.59401">
        <ele>184</ele>
        <time>2026-03-22T08:13:08Z</time>
      </trkpt>
      <trkpt lat="44.46829" lon="1.594">
        <ele>184.4</ele>
        <time>2026-03-22T08:13:09Z</time>
      </trkpt>
      <trkpt lat="44.4683" lon="1.59399">
        <ele>184.8</ele>
        <time>2026-03-22T08:13:10Z</time>
      </trkpt>
      <trkpt lat="44.46832" lon="1.59398">
        <ele>185.4</ele>
        <time>2026-03-22T08:13:11Z</time>
      </trkpt>
      <trkpt lat="44.46834" lon="1.59397">
        <ele>185.8</ele>
        <time>2026-03-22T08:13:12Z</time>
      </trkpt>
      <trkpt lat="44.46836" lon="1.59397">
        <ele>186.8</ele>
        <time>2026-03-22T08:13:13Z</time>
      </trkpt>
      <trkpt lat="44.46838" lon="1.59396">
        <ele>187.4</ele>
        <time>2026-03-22T08:13:14Z</time>
      </trkpt>
      <trkpt lat="44.4684" lon="1.59395">
        <ele>187.8</ele>
        <time>2026-03-22T08:13:15Z</time>
      </trkpt>
      <trkpt lat="44.46842" lon="1.59393">
        <ele>188.2</ele>
        <time>2026-03-22T08:13:16Z</time>
      </trkpt>
      <trkpt lat="44.46844" lon="1.59392">
        <ele>188.6</ele>
        <time>2026-03-22T08:13:17Z</time>
      </trkpt>
      <trkpt lat="44.46846" lon="1.59391">
        <ele>189</ele>
        <time>2026-03-22T08:13:18Z</time>
      </trkpt>
      <trkpt lat="44.46848" lon="1.59389">
        <ele>189.2</ele>
        <time>2026-03-22T08:13:19Z</time>
      </trkpt>
      <trkpt lat="44.46849" lon="1.59389">
        <ele>189.6</ele>
        <time>2026-03-22T08:13:20Z</time>
      </trkpt>
      <trkpt lat="44.46852" lon="1.59388">
        <ele>190</ele>
        <time>2026-03-22T08:13:21Z</time>
      </trkpt>
      <trkpt lat="44.46854" lon="1.59387">
        <ele>190.4</ele>
        <time>2026-03-22T08:13:22Z</time>
      </trkpt>
      <trkpt lat="44.46856" lon="1.59386">
        <ele>191</ele>
        <time>2026-03-22T08:13:23Z</time>
      </trkpt>
      <trkpt lat="44.46858" lon="1.59385">
        <ele>191.4</ele>
        <time>2026-03-22T08:13:24Z</time>
      </trkpt>
      <trkpt lat="44.4686" lon="1.59384">
        <ele>192</ele>
        <time>2026-03-22T08:13:25Z</time>
      </trkpt>
      <trkpt lat="44.46862" lon="1.59383">
        <ele>192.2</ele>
        <time>2026-03-22T08:13:26Z</time>
      </trkpt>
      <trkpt lat="44.46864" lon="1.59382">
        <ele>192.4</ele>
        <time>2026-03-22T08:13:27Z</time>
      </trkpt>
      <trkpt lat="44.46867" lon="1.59382">
        <ele>192.8</ele>
        <time>2026-03-22T08:13:28Z</time>
      </trkpt>
      <trkpt lat="44.46869" lon="1.59382">
        <ele>193</ele>
        <time>2026-03-22T08:13:29Z</time>
      </trkpt>
      <trkpt lat="44.46871" lon="1.59382">
        <ele>193.6</ele>
        <time>2026-03-22T08:13:30Z</time>
      </trkpt>
      <trkpt lat="44.46873" lon="1.59381">
        <ele>193.8</ele>
        <time>2026-03-22T08:13:31Z</time>
      </trkpt>
      <trkpt lat="44.46875" lon="1.59381">
        <ele>194.2</ele>
        <time>2026-03-22T08:13:32Z</time>
      </trkpt>
      <trkpt lat="44.46877" lon="1.5938">
        <ele>194.4</ele>
        <time>2026-03-22T08:13:33Z</time>
      </trkpt>
      <trkpt lat="44.46879" lon="1.5938">
        <ele>194.8</ele>
        <time>2026-03-22T08:13:34Z</time>
      </trkpt>
      <trkpt lat="44.4688" lon="1.59381">
        <ele>195.4</ele>
        <time>2026-03-22T08:13:35Z</time>
      </trkpt>
      <trkpt lat="44.46882" lon="1.5938">
        <ele>195.6</ele>
        <time>2026-03-22T08:13:36Z</time>
      </trkpt>
      <trkpt lat="44.46884" lon="1.59378">
        <ele>196.2</ele>
        <time>2026-03-22T08:13:37Z</time>
      </trkpt>
      <trkpt lat="44.46887" lon="1.59377">
        <ele>196.6</ele>
        <time>2026-03-22T08:13:38Z</time>
      </trkpt>
      <trkpt lat="44.46889" lon="1.59376">
        <ele>197</ele>
        <time>2026-03-22T08:13:39Z</time>
      </trkpt>
      <trkpt lat="44.46891" lon="1.59375">
        <ele>197.2</ele>
        <time>2026-03-22T08:13:40Z</time>
      </trkpt>
      <trkpt lat="44.46894" lon="1.59374">
        <ele>197.4</ele>
        <time>2026-03-22T08:13:41Z</time>
      </trkpt>
      <trkpt lat="44.46896" lon="1.59373">
        <ele>197.8</ele>
        <time>2026-03-22T08:13:42Z</time>
      </trkpt>
      <trkpt lat="44.46899" lon="1.59372">
        <ele>198.2</ele>
        <time>2026-03-22T08:13:43Z</time>
      </trkpt>
      <trkpt lat="44.46901" lon="1.59371">
        <ele>198.6</ele>
        <time>2026-03-22T08:13:44Z</time>
      </trkpt>
      <trkpt lat="44.46904" lon="1.5937">
        <ele>199</ele>
        <time>2026-03-22T08:13:45Z</time>
      </trkpt>
      <trkpt lat="44.46906" lon="1.5937">
        <ele>199</ele>
        <time>2026-03-22T08:13:46Z</time>
      </trkpt>
      <trkpt lat="44.46908" lon="1.59369">
        <ele>199.4</ele>
        <time>2026-03-22T08:13:47Z</time>
      </trkpt>
      <trkpt lat="44.46911" lon="1.59368">
        <ele>199.8</ele>
        <time>2026-03-22T08:13:48Z</time>
      </trkpt>
      <trkpt lat="44.46913" lon="1.59367">
        <ele>200</ele>
        <time>2026-03-22T08:13:49Z</time>
      </trkpt>
      <trkpt lat="44.46915" lon="1.59366">
        <ele>200.4</ele>
        <time>2026-03-22T08:13:50Z</time>
      </trkpt>
      <trkpt lat="44.46918" lon="1.59365">
        <ele>200.8</ele>
        <time>2026-03-22T08:13:51Z</time>
      </trkpt>
      <trkpt lat="44.46919" lon="1.59365">
        <ele>201</ele>
        <time>2026-03-22T08:13:52Z</time>
      </trkpt>
      <trkpt lat="44.46921" lon="1.59364">
        <ele>201.4</ele>
        <time>2026-03-22T08:13:53Z</time>
      </trkpt>
      <trkpt lat="44.46923" lon="1.59365">
        <ele>201.6</ele>
        <time>2026-03-22T08:13:54Z</time>
      </trkpt>
      <trkpt lat="44.46925" lon="1.59364">
        <ele>202.2</ele>
        <time>2026-03-22T08:13:55Z</time>
      </trkpt>
      <trkpt lat="44.46927" lon="1.59364">
        <ele>202.4</ele>
        <time>2026-03-22T08:13:56Z</time>
      </trkpt>
      <trkpt lat="44.46929" lon="1.59365">
        <ele>202.8</ele>
        <time>2026-03-22T08:13:57Z</time>
      </trkpt>
      <trkpt lat="44.46931" lon="1.59365">
        <ele>203</ele>
        <time>2026-03-22T08:13:58Z</time>
      </trkpt>
      <trkpt lat="44.46934" lon="1.59365">
        <ele>203.4</ele>
        <time>2026-03-22T08:13:59Z</time>
      </trkpt>
      <trkpt lat="44.46936" lon="1.59365">
        <ele>203.8</ele>
        <time>2026-03-22T08:14:00Z</time>
      </trkpt>
      <trkpt lat="44.46939" lon="1.59365">
        <ele>204.2</ele>
        <time>2026-03-22T08:14:01Z</time>
      </trkpt>
      <trkpt lat="44.46941" lon="1.59365">
        <ele>204.6</ele>
        <time>2026-03-22T08:14:02Z</time>
      </trkpt>
      <trkpt lat="44.46944" lon="1.59365">
        <ele>204.8</ele>
        <time>2026-03-22T08:14:03Z</time>
      </trkpt>
      <trkpt lat="44.46946" lon="1.59365">
        <ele>205.2</ele>
        <time>2026-03-22T08:14:04Z</time>
      </trkpt>
      <trkpt lat="44.46949" lon="1.59365">
        <ele>205.6</ele>
        <time>2026-03-22T08:14:05Z</time>
      </trkpt>
      <trkpt lat="44.46952" lon="1.59366">
        <ele>206</ele>
        <time>2026-03-22T08:14:06Z</time>
      </trkpt>
      <trkpt lat="44.46954" lon="1.59367">
        <ele>206.4</ele>
        <time>2026-03-22T08:14:07Z</time>
      </trkpt>
      <trkpt lat="44.46956" lon="1.59367">
        <ele>206.8</ele>
        <time>2026-03-22T08:14:08Z</time>
      </trkpt>
      <trkpt lat="44.46958" lon="1.59369">
        <ele>207.2</ele>
        <time>2026-03-22T08:14:09Z</time>
      </trkpt>
      <trkpt lat="44.4696" lon="1.5937">
        <ele>207.6</ele>
        <time>2026-03-22T08:14:10Z</time>
      </trkpt>
      <trkpt lat="44.46962" lon="1.59371">
        <ele>208</ele>
        <time>2026-03-22T08:14:11Z</time>
      </trkpt>
      <trkpt lat="44.46964" lon="1.59372">
        <ele>208.4</ele>
        <time>2026-03-22T08:14:12Z</time>
      </trkpt>
      <trkpt lat="44.46966" lon="1.59373">
        <ele>209.2</ele>
        <time>2026-03-22T08:14:13Z</time>
      </trkpt>
      <trkpt lat="44.46968" lon="1.59374">
        <ele>209.4</ele>
        <time>2026-03-22T08:14:14Z</time>
      </trkpt>
      <trkpt lat="44.4697" lon="1.59375">
        <ele>210</ele>
        <time>2026-03-22T08:14:15Z</time>
      </trkpt>
      <trkpt lat="44.46971" lon="1.59376">
        <ele>210.6</ele>
        <time>2026-03-22T08:14:16Z</time>
      </trkpt>
      <trkpt lat="44.46973" lon="1.59377">
        <ele>211.2</ele>
        <time>2026-03-22T08:14:17Z</time>
      </trkpt>
      <trkpt lat="44.46976" lon="1.59378">
        <ele>211.6</ele>
        <time>2026-03-22T08:14:18Z</time>
      </trkpt>
      <trkpt lat="44.46977" lon="1.59378">
        <ele>211.8</ele>
        <time>2026-03-22T08:14:19Z</time>
      </trkpt>
      <trkpt lat="44.46979" lon="1.59379">
        <ele>212.2</ele>
        <time>2026-03-22T08:14:20Z</time>
      </trkpt>
      <trkpt lat="44.4698" lon="1.5938">
        <ele>212.6</ele>
        <time>2026-03-22T08:14:21Z</time>
      </trkpt>
      <trkpt lat="44.46982" lon="1.59381">
        <ele>213</ele>
        <time>2026-03-22T08:14:22Z</time>
      </trkpt>
      <trkpt lat="44.46984" lon="1.59382">
        <ele>213.8</ele>
        <time>2026-03-22T08:14:23Z</time>
      </trkpt>
      <trkpt lat="44.46986" lon="1.59383">
        <ele>214.4</ele>
        <time>2026-03-22T08:14:24Z</time>
      </trkpt>
      <trkpt lat="44.46988" lon="1.59383">
        <ele>215</ele>
        <time>2026-03-22T08:14:25Z</time>
      </trkpt>
      <trkpt lat="44.4699" lon="1.59384">
        <ele>215.4</ele>
        <time>2026-03-22T08:14:26Z</time>
      </trkpt>
      <trkpt lat="44.46992" lon="1.59384">
        <ele>215.6</ele>
        <time>2026-03-22T08:14:27Z</time>
      </trkpt>
      <trkpt lat="44.46993" lon="1.59385">
        <ele>215.8</ele>
        <time>2026-03-22T08:14:28Z</time>
      </trkpt>
      <trkpt lat="44.46995" lon="1.59386">
        <ele>216</ele>
        <time>2026-03-22T08:14:29Z</time>
      </trkpt>
      <trkpt lat="44.46998" lon="1.59386">
        <ele>216.6</ele>
        <time>2026-03-22T08:14:30Z</time>
      </trkpt>
      <trkpt lat="44.47" lon="1.59388">
        <ele>217</ele>
        <time>2026-03-22T08:14:31Z</time>
      </trkpt>
      <trkpt lat="44.47002" lon="1.59389">
        <ele>217.2</ele>
        <time>2026-03-22T08:14:32Z</time>
      </trkpt>
      <trkpt lat="44.47004" lon="1.5939">
        <ele>217.6</ele>
        <time>2026-03-22T08:14:33Z</time>
      </trkpt>
      <trkpt lat="44.47006" lon="1.59391">
        <ele>218</ele>
        <time>2026-03-22T08:14:34Z</time>
      </trkpt>
      <trkpt lat="44.47009" lon="1.59392">
        <ele>218.4</ele>
        <time>2026-03-22T08:14:35Z</time>
      </trkpt>
      <trkpt lat="44.47011" lon="1.59393">
        <ele>218.6</ele>
        <time>2026-03-22T08:14:36Z</time>
      </trkpt>
      <trkpt lat="44.47013" lon="1.59394">
        <ele>219.2</ele>
        <time>2026-03-22T08:14:37Z</time>
      </trkpt>
      <trkpt lat="44.47015" lon="1.59394">
        <ele>219.6</ele>
        <time>2026-03-22T08:14:38Z</time>
      </trkpt>
      <trkpt lat="44.47017" lon="1.59395">
        <ele>220</ele>
        <time>2026-03-22T08:14:39Z</time>
      </trkpt>
      <trkpt lat="44.4702" lon="1.59396">
        <ele>220.4</ele>
        <time>2026-03-22T08:14:40Z</time>
      </trkpt>
      <trkpt lat="44.47022" lon="1.59396">
        <ele>220.8</ele>
        <time>2026-03-22T08:14:41Z</time>
      </trkpt>
      <trkpt lat="44.47024" lon="1.59397">
        <ele>221.2</ele>
        <time>2026-03-22T08:14:42Z</time>
      </trkpt>
      <trkpt lat="44.47026" lon="1.59398">
        <ele>221.8</ele>
        <time>2026-03-22T08:14:43Z</time>
      </trkpt>
      <trkpt lat="44.47029" lon="1.59399">
        <ele>222.2</ele>
        <time>2026-03-22T08:14:44Z</time>
      </trkpt>
      <trkpt lat="44.47032" lon="1.59399">
        <ele>222.4</ele>
        <time>2026-03-22T08:14:45Z</time>
      </trkpt>
      <trkpt lat="44.47035" lon="1.594">
        <ele>222.8</ele>
        <time>2026-03-22T08:14:46Z</time>
      </trkpt>
      <trkpt lat="44.47037" lon="1.594">
        <ele>223.2</ele>
        <time>2026-03-22T08:14:47Z</time>
      </trkpt>
      <trkpt lat="44.4704" lon="1.59401">
        <ele>223.6</ele>
        <time>2026-03-22T08:14:48Z</time>
      </trkpt>
      <trkpt lat="44.47043" lon="1.59401">
        <ele>224</ele>
        <time>2026-03-22T08:14:49Z</time>
      </trkpt>
      <trkpt lat="44.47046" lon="1.59402">
        <ele>224.2</ele>
        <time>2026-03-22T08:14:50Z</time>
      </trkpt>
      <trkpt lat="44.47049" lon="1.59402">
        <ele>224.6</ele>
        <time>2026-03-22T08:14:51Z</time>
      </trkpt>
      <trkpt lat="44.47052" lon="1.59403">
        <ele>224.8</ele>
        <time>2026-03-22T08:14:52Z</time>
      </trkpt>
      <trkpt lat="44.47055" lon="1.59404">
        <ele>225.4</ele>
        <time>2026-03-22T08:14:53Z</time>
      </trkpt>
      <trkpt lat="44.47058" lon="1.59405">
        <ele>225.8</ele>
        <time>2026-03-22T08:14:54Z</time>
      </trkpt>
      <trkpt lat="44.47061" lon="1.59404">
        <ele>226</ele>
        <time>2026-03-22T08:14:55Z</time>
      </trkpt>
      <trkpt lat="44.47064" lon="1.59404">
        <ele>226.4</ele>
        <time>2026-03-22T08:14:56Z</time>
      </trkpt>
      <trkpt lat="44.47066" lon="1.59403">
        <ele>226.6</ele>
        <time>2026-03-22T08:14:57Z</time>
      </trkpt>
      <trkpt lat="44.4707" lon="1.59401">
        <ele>226.8</ele>
        <time>2026-03-22T08:14:58Z</time>
      </trkpt>
      <trkpt lat="44.47073" lon="1.59398">
        <ele>226.8</ele>
        <time>2026-03-22T08:14:59Z</time>
      </trkpt>
      <trkpt lat="44.47076" lon="1.59396">
        <ele>226.8</ele>
        <time>2026-03-22T08:15:00Z</time>
      </trkpt>
      <trkpt lat="44.4708" lon="1.59393">
        <ele>226.8</ele>
        <time>2026-03-22T08:15:01Z</time>
      </trkpt>
      <trkpt lat="44.47084" lon="1.59391">
        <ele>226.8</ele>
        <time>2026-03-22T08:15:02Z</time>
      </trkpt>
      <trkpt lat="44.47088" lon="1.59389">
        <ele>226.8</ele>
        <time>2026-03-22T08:15:03Z</time>
      </trkpt>
      <trkpt lat="44.47091" lon="1.59389">
        <ele>226.8</ele>
        <time>2026-03-22T08:15:04Z</time>
      </trkpt>
      <trkpt lat="44.47095" lon="1.59388">
        <ele>226.8</ele>
        <time>2026-03-22T08:15:05Z</time>
      </trkpt>
      <trkpt lat="44.47099" lon="1.59388">
        <ele>226.8</ele>
        <time>2026-03-22T08:15:06Z</time>
      </trkpt>
      <trkpt lat="44.47102" lon="1.59387">
        <ele>226.8</ele>
        <time>2026-03-22T08:15:07Z</time>
      </trkpt>
      <trkpt lat="44.47106" lon="1.59388">
        <ele>226.6</ele>
        <time>2026-03-22T08:15:08Z</time>
      </trkpt>
      <trkpt lat="44.4711" lon="1.59388">
        <ele>226.6</ele>
        <time>2026-03-22T08:15:09Z</time>
      </trkpt>
      <trkpt lat="44.47114" lon="1.59388">
        <ele>226.4</ele>
        <time>2026-03-22T08:15:10Z</time>
      </trkpt>
      <trkpt lat="44.47118" lon="1.59388">
        <ele>226.4</ele>
        <time>2026-03-22T08:15:11Z</time>
      </trkpt>
      <trkpt lat="44.47122" lon="1.59388">
        <ele>226.4</ele>
        <time>2026-03-22T08:15:12Z</time>
      </trkpt>
      <trkpt lat="44.47126" lon="1.59387">
        <ele>226.4</ele>
        <time>2026-03-22T08:15:13Z</time>
      </trkpt>
      <trkpt lat="44.47129" lon="1.59387">
        <ele>226.4</ele>
        <time>2026-03-22T08:15:14Z</time>
      </trkpt>
      <trkpt lat="44.47133" lon="1.59387">
        <ele>226.4</ele>
        <time>2026-03-22T08:15:15Z</time>
      </trkpt>
      <trkpt lat="44.47136" lon="1.59388">
        <ele>226.4</ele>
        <time>2026-03-22T08:15:16Z</time>
      </trkpt>
      <trkpt lat="44.4714" lon="1.59387">
        <ele>226.8</ele>
        <time>2026-03-22T08:15:17Z</time>
      </trkpt>
      <trkpt lat="44.47143" lon="1.59386">
        <ele>227</ele>
        <time>2026-03-22T08:15:18Z</time>
      </trkpt>
      <trkpt lat="44.47146" lon="1.59384">
        <ele>227.2</ele>
        <time>2026-03-22T08:15:19Z</time>
      </trkpt>
      <trkpt lat="44.47149" lon="1.59381">
        <ele>227.4</ele>
        <time>2026-03-22T08:15:20Z</time>
      </trkpt>
      <trkpt lat="44.47152" lon="1.59378">
        <ele>227.8</ele>
        <time>2026-03-22T08:15:21Z</time>
      </trkpt>
      <trkpt lat="44.47155" lon="1.59375">
        <ele>228.2</ele>
        <time>2026-03-22T08:15:22Z</time>
      </trkpt>
      <trkpt lat="44.47158" lon="1.59373">
        <ele>228.4</ele>
        <time>2026-03-22T08:15:23Z</time>
      </trkpt>
      <trkpt lat="44.47161" lon="1.59371">
        <ele>229</ele>
        <time>2026-03-22T08:15:24Z</time>
      </trkpt>
      <trkpt lat="44.47164" lon="1.5937">
        <ele>229.6</ele>
        <time>2026-03-22T08:15:25Z</time>
      </trkpt>
      <trkpt lat="44.47167" lon="1.5937">
        <ele>229.8</ele>
        <time>2026-03-22T08:15:26Z</time>
      </trkpt>
      <trkpt lat="44.4717" lon="1.59371">
        <ele>230</ele>
        <time>2026-03-22T08:15:27Z</time>
      </trkpt>
      <trkpt lat="44.47172" lon="1.59373">
        <ele>230.6</ele>
        <time>2026-03-22T08:15:28Z</time>
      </trkpt>
      <trkpt lat="44.47174" lon="1.59375">
        <ele>230.8</ele>
        <time>2026-03-22T08:15:29Z</time>
      </trkpt>
      <trkpt lat="44.47175" lon="1.59378">
        <ele>231.2</ele>
        <time>2026-03-22T08:15:30Z</time>
      </trkpt>
      <trkpt lat="44.47177" lon="1.5938">
        <ele>231.4</ele>
        <time>2026-03-22T08:15:31Z</time>
      </trkpt>
      <trkpt lat="44.47179" lon="1.59383">
        <ele>232.2</ele>
        <time>2026-03-22T08:15:32Z</time>
      </trkpt>
      <trkpt lat="44.47181" lon="1.59385">
        <ele>232.6</ele>
        <time>2026-03-22T08:15:33Z</time>
      </trkpt>
      <trkpt lat="44.47183" lon="1.59388">
        <ele>233</ele>
        <time>2026-03-22T08:15:34Z</time>
      </trkpt>
      <trkpt lat="44.47185" lon="1.59391">
        <ele>233.6</ele>
        <time>2026-03-22T08:15:35Z</time>
      </trkpt>
      <trkpt lat="44.47187" lon="1.59395">
        <ele>234</ele>
        <time>2026-03-22T08:15:36Z</time>
      </trkpt>
      <trkpt lat="44.47189" lon="1.59398">
        <ele>234.8</ele>
        <time>2026-03-22T08:15:37Z</time>
      </trkpt>
      <trkpt lat="44.4719" lon="1.59401">
        <ele>235.4</ele>
        <time>2026-03-22T08:15:38Z</time>
      </trkpt>
      <trkpt lat="44.47192" lon="1.59404">
        <ele>236.2</ele>
        <time>2026-03-22T08:15:39Z</time>
      </trkpt>
      <trkpt lat="44.47194" lon="1.59407">
        <ele>236.8</ele>
        <time>2026-03-22T08:15:40Z</time>
      </trkpt>
      <trkpt lat="44.47196" lon="1.5941">
        <ele>237.2</ele>
        <time>2026-03-22T08:15:41Z</time>
      </trkpt>
      <trkpt lat="44.47199" lon="1.59412">
        <ele>237.8</ele>
        <time>2026-03-22T08:15:42Z</time>
      </trkpt>
      <trkpt lat="44.47202" lon="1.59412">
        <ele>238.2</ele>
        <time>2026-03-22T08:15:43Z</time>
      </trkpt>
      <trkpt lat="44.47204" lon="1.5941">
        <ele>238.8</ele>
        <time>2026-03-22T08:15:44Z</time>
      </trkpt>
      <trkpt lat="44.47205" lon="1.59408">
        <ele>239.4</ele>
        <time>2026-03-22T08:15:45Z</time>
      </trkpt>
      <trkpt lat="44.47207" lon="1.59405">
        <ele>239.6</ele>
        <time>2026-03-22T08:15:46Z</time>
      </trkpt>
      <trkpt lat="44.47208" lon="1.59401">
        <ele>240</ele>
        <time>2026-03-22T08:15:47Z</time>
      </trkpt>
      <trkpt lat="44.4721" lon="1.59398">
        <ele>240.2</ele>
        <time>2026-03-22T08:15:48Z</time>
      </trkpt>
      <trkpt lat="44.47212" lon="1.59394">
        <ele>240.6</ele>
        <time>2026-03-22T08:15:49Z</time>
      </trkpt>
      <trkpt lat="44.47214" lon="1.59391">
        <ele>241</ele>
        <time>2026-03-22T08:15:50Z</time>
      </trkpt>
      <trkpt lat="44.47215" lon="1.59389">
        <ele>241.4</ele>
        <time>2026-03-22T08:15:51Z</time>
      </trkpt>
      <trkpt lat="44.47217" lon="1.59387">
        <ele>242.2</ele>
        <time>2026-03-22T08:15:52Z</time>
      </trkpt>
      <trkpt lat="44.47219" lon="1.59385">
        <ele>242.8</ele>
        <time>2026-03-22T08:15:53Z</time>
      </trkpt>
      <trkpt lat="44.47221" lon="1.59383">
        <ele>243.4</ele>
        <time>2026-03-22T08:15:54Z</time>
      </trkpt>
      <trkpt lat="44.47224" lon="1.59381">
        <ele>243.8</ele>
        <time>2026-03-22T08:15:55Z</time>
      </trkpt>
      <trkpt lat="44.47226" lon="1.59379">
        <ele>244.4</ele>
        <time>2026-03-22T08:15:56Z</time>
      </trkpt>
      <trkpt lat="44.47227" lon="1.59377">
        <ele>245</ele>
        <time>2026-03-22T08:15:57Z</time>
      </trkpt>
      <trkpt lat="44.4723" lon="1.59376">
        <ele>245.6</ele>
        <time>2026-03-22T08:15:58Z</time>
      </trkpt>
      <trkpt lat="44.47232" lon="1.59374">
        <ele>245.8</ele>
        <time>2026-03-22T08:15:59Z</time>
      </trkpt>
      <trkpt lat="44.47235" lon="1.59372">
        <ele>246.4</ele>
        <time>2026-03-22T08:16:00Z</time>
      </trkpt>
      <trkpt lat="44.47237" lon="1.5937">
        <ele>246.8</ele>
        <time>2026-03-22T08:16:01Z</time>
      </trkpt>
      <trkpt lat="44.4724" lon="1.59369">
        <ele>247.4</ele>
        <time>2026-03-22T08:16:02Z</time>
      </trkpt>
      <trkpt lat="44.47242" lon="1.59367">
        <ele>247.8</ele>
        <time>2026-03-22T08:16:03Z</time>
      </trkpt>
      <trkpt lat="44.47245" lon="1.59367">
        <ele>248.2</ele>
        <time>2026-03-22T08:16:04Z</time>
      </trkpt>
      <trkpt lat="44.47248" lon="1.59366">
        <ele>248.6</ele>
        <time>2026-03-22T08:16:05Z</time>
      </trkpt>
      <trkpt lat="44.47252" lon="1.59365">
        <ele>248.8</ele>
        <time>2026-03-22T08:16:06Z</time>
      </trkpt>
      <trkpt lat="44.47255" lon="1.59364">
        <ele>249.2</ele>
        <time>2026-03-22T08:16:07Z</time>
      </trkpt>
      <trkpt lat="44.47258" lon="1.59363">
        <ele>249.4</ele>
        <time>2026-03-22T08:16:08Z</time>
      </trkpt>
      <trkpt lat="44.4726" lon="1.59362">
        <ele>249.8</ele>
        <time>2026-03-22T08:16:09Z</time>
      </trkpt>
      <trkpt lat="44.47263" lon="1.59361">
        <ele>250</ele>
        <time>2026-03-22T08:16:10Z</time>
      </trkpt>
      <trkpt lat="44.47266" lon="1.59361">
        <ele>250.2</ele>
        <time>2026-03-22T08:16:11Z</time>
      </trkpt>
      <trkpt lat="44.47268" lon="1.59361">
        <ele>250.2</ele>
        <time>2026-03-22T08:16:12Z</time>
      </trkpt>
      <trkpt lat="44.4727" lon="1.5936">
        <ele>250.2</ele>
        <time>2026-03-22T08:16:13Z</time>
      </trkpt>
      <trkpt lat="44.47273" lon="1.59359">
        <ele>250.2</ele>
        <time>2026-03-22T08:16:14Z</time>
      </trkpt>
      <trkpt lat="44.47276" lon="1.59359">
        <ele>250.4</ele>
        <time>2026-03-22T08:16:15Z</time>
      </trkpt>
      <trkpt lat="44.47278" lon="1.59358">
        <ele>250.4</ele>
        <time>2026-03-22T08:16:16Z</time>
      </trkpt>
      <trkpt lat="44.4728" lon="1.59357">
        <ele>250.4</ele>
        <time>2026-03-22T08:16:17Z</time>
      </trkpt>
      <trkpt lat="44.47283" lon="1.59357">
        <ele>250.4</ele>
        <time>2026-03-22T08:16:18Z</time>
      </trkpt>
      <trkpt lat="44.47286" lon="1.59357">
        <ele>250.4</ele>
        <time>2026-03-22T08:16:19Z</time>
      </trkpt>
      <trkpt lat="44.47289" lon="1.59358">
        <ele>250.4</ele>
        <time>2026-03-22T08:16:20Z</time>
      </trkpt>
      <trkpt lat="44.47292" lon="1.59359">
        <ele>250.4</ele>
        <time>2026-03-22T08:16:21Z</time>
      </trkpt>
      <trkpt lat="44.47295" lon="1.59361">
        <ele>250.4</ele>
        <time>2026-03-22T08:16:22Z</time>
      </trkpt>
      <trkpt lat="44.47298" lon="1.59363">
        <ele>250.4</ele>
        <time>2026-03-22T08:16:23Z</time>
      </trkpt>
      <trkpt lat="44.47301" lon="1.59365">
        <ele>250.4</ele>
        <time>2026-03-22T08:16:24Z</time>
      </trkpt>
      <trkpt lat="44.47304" lon="1.59367">
        <ele>250.4</ele>
        <time>2026-03-22T08:16:25Z</time>
      </trkpt>
      <trkpt lat="44.47307" lon="1.59369">
        <ele>250.4</ele>
        <time>2026-03-22T08:16:26Z</time>
      </trkpt>
      <trkpt lat="44.4731" lon="1.59371">
        <ele>250.4</ele>
        <time>2026-03-22T08:16:27Z</time>
      </trkpt>
      <trkpt lat="44.47312" lon="1.59374">
        <ele>250.4</ele>
        <time>2026-03-22T08:16:28Z</time>
      </trkpt>
      <trkpt lat="44.47315" lon="1.59377">
        <ele>250.6</ele>
        <time>2026-03-22T08:16:29Z</time>
      </trkpt>
      <trkpt lat="44.47318" lon="1.5938">
        <ele>250.8</ele>
        <time>2026-03-22T08:16:30Z</time>
      </trkpt>
      <trkpt lat="44.4732" lon="1.59383">
        <ele>250.8</ele>
        <time>2026-03-22T08:16:31Z</time>
      </trkpt>
      <trkpt lat="44.47323" lon="1.59387">
        <ele>251</ele>
        <time>2026-03-22T08:16:32Z</time>
      </trkpt>
      <trkpt lat="44.47325" lon="1.59391">
        <ele>251</ele>
        <time>2026-03-22T08:16:33Z</time>
      </trkpt>
      <trkpt lat="44.47328" lon="1.59394">
        <ele>251.2</ele>
        <time>2026-03-22T08:16:34Z</time>
      </trkpt>
      <trkpt lat="44.47331" lon="1.59396">
        <ele>251.4</ele>
        <time>2026-03-22T08:16:35Z</time>
      </trkpt>
      <trkpt lat="44.47334" lon="1.59398">
        <ele>251.4</ele>
        <time>2026-03-22T08:16:36Z</time>
      </trkpt>
      <trkpt lat="44.47337" lon="1.59402">
        <ele>251.4</ele>
        <time>2026-03-22T08:16:37Z</time>
      </trkpt>
      <trkpt lat="44.47339" lon="1.59407">
        <ele>251.6</ele>
        <time>2026-03-22T08:16:38Z</time>
      </trkpt>
      <trkpt lat="44.47341" lon="1.59411">
        <ele>251.6</ele>
        <time>2026-03-22T08:16:39Z</time>
      </trkpt>
      <trkpt lat="44.47344" lon="1.59414">
        <ele>252</ele>
        <time>2026-03-22T08:16:40Z</time>
      </trkpt>
      <trkpt lat="44.47347" lon="1.59416">
        <ele>252.2</ele>
        <time>2026-03-22T08:16:41Z</time>
      </trkpt>
      <trkpt lat="44.47351" lon="1.59417">
        <ele>252.4</ele>
        <time>2026-03-22T08:16:42Z</time>
      </trkpt>
      <trkpt lat="44.47358" lon="1.5942">
        <ele>252.6</ele>
        <time>2026-03-22T08:16:44Z</time>
      </trkpt>
      <trkpt lat="44.47361" lon="1.59423">
        <ele>252.8</ele>
        <time>2026-03-22T08:16:45Z</time>
      </trkpt>
      <trkpt lat="44.47365" lon="1.59425">
        <ele>252.8</ele>
        <time>2026-03-22T08:16:46Z</time>
      </trkpt>
      <trkpt lat="44.47368" lon="1.59428">
        <ele>253</ele>
        <time>2026-03-22T08:16:47Z</time>
      </trkpt>
      <trkpt lat="44.47371" lon="1.59432">
        <ele>253.2</ele>
        <time>2026-03-22T08:16:48Z</time>
      </trkpt>
      <trkpt lat="44.47374" lon="1.59435">
        <ele>253.2</ele>
        <time>2026-03-22T08:16:49Z</time>
      </trkpt>
      <trkpt lat="44.47376" lon="1.59438">
        <ele>253.4</ele>
        <time>2026-03-22T08:16:50Z</time>
      </trkpt>
      <trkpt lat="44.4738" lon="1.59439">
        <ele>253.4</ele>
        <time>2026-03-22T08:16:51Z</time>
      </trkpt>
      <trkpt lat="44.47383" lon="1.59439">
        <ele>253.4</ele>
        <time>2026-03-22T08:16:52Z</time>
      </trkpt>
      <trkpt lat="44.47386" lon="1.59439">
        <ele>253.6</ele>
        <time>2026-03-22T08:16:53Z</time>
      </trkpt>
      <trkpt lat="44.47389" lon="1.59438">
        <ele>253.8</ele>
        <time>2026-03-22T08:16:54Z</time>
      </trkpt>
      <trkpt lat="44.47393" lon="1.59437">
        <ele>253.8</ele>
        <time>2026-03-22T08:16:55Z</time>
      </trkpt>
      <trkpt lat="44.47397" lon="1.59436">
        <ele>253.8</ele>
        <time>2026-03-22T08:16:56Z</time>
      </trkpt>
      <trkpt lat="44.47401" lon="1.59435">
        <ele>253.8</ele>
        <time>2026-03-22T08:16:57Z</time>
      </trkpt>
      <trkpt lat="44.47404" lon="1.59435">
        <ele>254</ele>
        <time>2026-03-22T08:16:58Z</time>
      </trkpt>
      <trkpt lat="44.47408" lon="1.59437">
        <ele>254</ele>
        <time>2026-03-22T08:16:59Z</time>
      </trkpt>
      <trkpt lat="44.47411" lon="1.59438">
        <ele>254</ele>
        <time>2026-03-22T08:17:00Z</time>
      </trkpt>
      <trkpt lat="44.47415" lon="1.59438">
        <ele>254</ele>
        <time>2026-03-22T08:17:01Z</time>
      </trkpt>
      <trkpt lat="44.47419" lon="1.59439">
        <ele>254</ele>
        <time>2026-03-22T08:17:02Z</time>
      </trkpt>
      <trkpt lat="44.47436" lon="1.59442">
        <ele>254.2</ele>
        <time>2026-03-22T08:17:07Z</time>
      </trkpt>
      <trkpt lat="44.47436" lon="1.59442">
        <ele>254</ele>
        <time>2026-03-22T08:17:09Z</time>
      </trkpt>
      <trkpt lat="44.47442" lon="1.59448">
        <ele>254</ele>
        <time>2026-03-22T08:17:36Z</time>
      </trkpt>
      <trkpt lat="44.47446" lon="1.59453">
        <ele>254</ele>
        <time>2026-03-22T08:17:38Z</time>
      </trkpt>
      <trkpt lat="44.47453" lon="1.59457">
        <ele>254</ele>
        <time>2026-03-22T08:17:41Z</time>
      </trkpt>
      <trkpt lat="44.47456" lon="1.59458">
        <ele>254</ele>
        <time>2026-03-22T08:17:42Z</time>
      </trkpt>
      <trkpt lat="44.47458" lon="1.59459">
        <ele>254.2</ele>
        <time>2026-03-22T08:17:43Z</time>
      </trkpt>
      <trkpt lat="44.47476" lon="1.59465">
        <ele>254.4</ele>
        <time>2026-03-22T08:17:48Z</time>
      </trkpt>
      <trkpt lat="44.47479" lon="1.59467">
        <ele>254.4</ele>
        <time>2026-03-22T08:17:49Z</time>
      </trkpt>
      <trkpt lat="44.47481" lon="1.59469">
        <ele>254.4</ele>
        <time>2026-03-22T08:17:50Z</time>
      </trkpt>
      <trkpt lat="44.47482" lon="1.59469">
        <ele>254.4</ele>
        <time>2026-03-22T08:17:51Z</time>
      </trkpt>
      <trkpt lat="44.47482" lon="1.59469">
        <ele>254.4</ele>
        <time>2026-03-22T08:17:52Z</time>
      </trkpt>
      <trkpt lat="44.47482" lon="1.59469">
        <ele>254.4</ele>
        <time>2026-03-22T08:17:53Z</time>
      </trkpt>
      <trkpt lat="44.47488" lon="1.59471">
        <ele>254.2</ele>
        <time>2026-03-22T08:18:01Z</time>
      </trkpt>
      <trkpt lat="44.47495" lon="1.59475">
        <ele>254</ele>
        <time>2026-03-22T08:18:03Z</time>
      </trkpt>
      <trkpt lat="44.47522" lon="1.59496">
        <ele>253.8</ele>
        <time>2026-03-22T08:18:10Z</time>
      </trkpt>
      <trkpt lat="44.47526" lon="1.59498">
        <ele>254</ele>
        <time>2026-03-22T08:18:11Z</time>
      </trkpt>
      <trkpt lat="44.47531" lon="1.59501">
        <ele>254</ele>
        <time>2026-03-22T08:18:12Z</time>
      </trkpt>
      <trkpt lat="44.47535" lon="1.59503">
        <ele>254</ele>
        <time>2026-03-22T08:18:13Z</time>
      </trkpt>
      <trkpt lat="44.4754" lon="1.59504">
        <ele>254</ele>
        <time>2026-03-22T08:18:14Z</time>
      </trkpt>
      <trkpt lat="44.47545" lon="1.59505">
        <ele>254</ele>
        <time>2026-03-22T08:18:15Z</time>
      </trkpt>
      <trkpt lat="44.47558" lon="1.59507">
        <ele>254</ele>
        <time>2026-03-22T08:18:18Z</time>
      </trkpt>
      <trkpt lat="44.47567" lon="1.59506">
        <ele>254</ele>
        <time>2026-03-22T08:18:20Z</time>
      </trkpt>
      <trkpt lat="44.47571" lon="1.59507">
        <ele>254.4</ele>
        <time>2026-03-22T08:18:21Z</time>
      </trkpt>
      <trkpt lat="44.47576" lon="1.59508">
        <ele>254.6</ele>
        <time>2026-03-22T08:18:22Z</time>
      </trkpt>
      <trkpt lat="44.4758" lon="1.59507">
        <ele>254.8</ele>
        <time>2026-03-22T08:18:23Z</time>
      </trkpt>
      <trkpt lat="44.47583" lon="1.59507">
        <ele>255</ele>
        <time>2026-03-22T08:18:24Z</time>
      </trkpt>
      <trkpt lat="44.47591" lon="1.59507">
        <ele>255.6</ele>
        <time>2026-03-22T08:18:26Z</time>
      </trkpt>
      <trkpt lat="44.47594" lon="1.59508">
        <ele>256.2</ele>
        <time>2026-03-22T08:18:27Z</time>
      </trkpt>
      <trkpt lat="44.47598" lon="1.59509">
        <ele>256.4</ele>
        <time>2026-03-22T08:18:28Z</time>
      </trkpt>
      <trkpt lat="44.476" lon="1.59509">
        <ele>256.8</ele>
        <time>2026-03-22T08:18:29Z</time>
      </trkpt>
      <trkpt lat="44.47603" lon="1.59509">
        <ele>257.4</ele>
        <time>2026-03-22T08:18:30Z</time>
      </trkpt>
      <trkpt lat="44.47607" lon="1.59508">
        <ele>258</ele>
        <time>2026-03-22T08:18:31Z</time>
      </trkpt>
      <trkpt lat="44.4761" lon="1.59508">
        <ele>258.4</ele>
        <time>2026-03-22T08:18:32Z</time>
      </trkpt>
      <trkpt lat="44.47614" lon="1.59508">
        <ele>258.8</ele>
        <time>2026-03-22T08:18:33Z</time>
      </trkpt>
      <trkpt lat="44.47617" lon="1.59508">
        <ele>259.4</ele>
        <time>2026-03-22T08:18:34Z</time>
      </trkpt>
      <trkpt lat="44.47621" lon="1.59507">
        <ele>259.8</ele>
        <time>2026-03-22T08:18:35Z</time>
      </trkpt>
      <trkpt lat="44.47624" lon="1.59506">
        <ele>260.2</ele>
        <time>2026-03-22T08:18:36Z</time>
      </trkpt>
      <trkpt lat="44.47627" lon="1.59506">
        <ele>260.6</ele>
        <time>2026-03-22T08:18:37Z</time>
      </trkpt>
      <trkpt lat="44.4763" lon="1.59507">
        <ele>261</ele>
        <time>2026-03-22T08:18:38Z</time>
      </trkpt>
      <trkpt lat="44.47633" lon="1.59507">
        <ele>261.2</ele>
        <time>2026-03-22T08:18:39Z</time>
      </trkpt>
      <trkpt lat="44.47636" lon="1.59508">
        <ele>261.4</ele>
        <time>2026-03-22T08:18:40Z</time>
      </trkpt>
      <trkpt lat="44.47638" lon="1.5951">
        <ele>261.6</ele>
        <time>2026-03-22T08:18:41Z</time>
      </trkpt>
      <trkpt lat="44.47641" lon="1.59512">
        <ele>262.2</ele>
        <time>2026-03-22T08:18:42Z</time>
      </trkpt>
      <trkpt lat="44.47643" lon="1.59514">
        <ele>262.6</ele>
        <time>2026-03-22T08:18:43Z</time>
      </trkpt>
      <trkpt lat="44.47645" lon="1.59517">
        <ele>263</ele>
        <time>2026-03-22T08:18:44Z</time>
      </trkpt>
      <trkpt lat="44.47648" lon="1.59519">
        <ele>263.2</ele>
        <time>2026-03-22T08:18:45Z</time>
      </trkpt>
      <trkpt lat="44.47651" lon="1.5952">
        <ele>263.6</ele>
        <time>2026-03-22T08:18:46Z</time>
      </trkpt>
      <trkpt lat="44.47654" lon="1.59521">
        <ele>263.8</ele>
        <time>2026-03-22T08:18:47Z</time>
      </trkpt>
      <trkpt lat="44.47657" lon="1.5952">
        <ele>264.2</ele>
        <time>2026-03-22T08:18:48Z</time>
      </trkpt>
      <trkpt lat="44.47661" lon="1.5952">
        <ele>264.4</ele>
        <time>2026-03-22T08:18:49Z</time>
      </trkpt>
      <trkpt lat="44.47664" lon="1.59519">
        <ele>265</ele>
        <time>2026-03-22T08:18:50Z</time>
      </trkpt>
      <trkpt lat="44.47668" lon="1.59519">
        <ele>265.4</ele>
        <time>2026-03-22T08:18:51Z</time>
      </trkpt>
      <trkpt lat="44.47671" lon="1.5952">
        <ele>266</ele>
        <time>2026-03-22T08:18:52Z</time>
      </trkpt>
      <trkpt lat="44.47674" lon="1.59521">
        <ele>266.4</ele>
        <time>2026-03-22T08:18:53Z</time>
      </trkpt>
      <trkpt lat="44.47678" lon="1.59522">
        <ele>266.8</ele>
        <time>2026-03-22T08:18:54Z</time>
      </trkpt>
      <trkpt lat="44.47681" lon="1.59525">
        <ele>267</ele>
        <time>2026-03-22T08:18:55Z</time>
      </trkpt>
      <trkpt lat="44.47683" lon="1.59527">
        <ele>267</ele>
        <time>2026-03-22T08:18:56Z</time>
      </trkpt>
      <trkpt lat="44.47685" lon="1.59531">
        <ele>267.2</ele>
        <time>2026-03-22T08:18:57Z</time>
      </trkpt>
      <trkpt lat="44.47686" lon="1.59533">
        <ele>267.4</ele>
        <time>2026-03-22T08:18:58Z</time>
      </trkpt>
      <trkpt lat="44.47688" lon="1.59536">
        <ele>267.4</ele>
        <time>2026-03-22T08:18:59Z</time>
      </trkpt>
      <trkpt lat="44.4769" lon="1.59538">
        <ele>267.6</ele>
        <time>2026-03-22T08:19:00Z</time>
      </trkpt>
      <trkpt lat="44.47693" lon="1.5954">
        <ele>267.6</ele>
        <time>2026-03-22T08:19:01Z</time>
      </trkpt>
      <trkpt lat="44.47696" lon="1.5954">
        <ele>267.8</ele>
        <time>2026-03-22T08:19:02Z</time>
      </trkpt>
      <trkpt lat="44.47699" lon="1.59541">
        <ele>267.8</ele>
        <time>2026-03-22T08:19:03Z</time>
      </trkpt>
      <trkpt lat="44.47702" lon="1.59543">
        <ele>268</ele>
        <time>2026-03-22T08:19:04Z</time>
      </trkpt>
      <trkpt lat="44.47706" lon="1.59544">
        <ele>268.2</ele>
        <time>2026-03-22T08:19:05Z</time>
      </trkpt>
      <trkpt lat="44.4771" lon="1.59544">
        <ele>268.2</ele>
        <time>2026-03-22T08:19:06Z</time>
      </trkpt>
      <trkpt lat="44.47713" lon="1.59545">
        <ele>268.2</ele>
        <time>2026-03-22T08:19:07Z</time>
      </trkpt>
      <trkpt lat="44.47716" lon="1.59545">
        <ele>268.2</ele>
        <time>2026-03-22T08:19:08Z</time>
      </trkpt>
      <trkpt lat="44.4772" lon="1.59544">
        <ele>268.2</ele>
        <time>2026-03-22T08:19:09Z</time>
      </trkpt>
      <trkpt lat="44.47723" lon="1.59543">
        <ele>268.2</ele>
        <time>2026-03-22T08:19:10Z</time>
      </trkpt>
      <trkpt lat="44.47726" lon="1.59542">
        <ele>268.2</ele>
        <time>2026-03-22T08:19:11Z</time>
      </trkpt>
      <trkpt lat="44.47728" lon="1.59541">
        <ele>268.2</ele>
        <time>2026-03-22T08:19:12Z</time>
      </trkpt>
      <trkpt lat="44.47729" lon="1.59541">
        <ele>268.2</ele>
        <time>2026-03-22T08:19:13Z</time>
      </trkpt>
      <trkpt lat="44.47729" lon="1.59541">
        <ele>268</ele>
        <time>2026-03-22T08:19:15Z</time>
      </trkpt>
      <trkpt lat="44.47739" lon="1.59535">
        <ele>265.6</ele>
        <time>2026-03-22T08:19:45Z</time>
      </trkpt>
      <trkpt lat="44.47755" lon="1.59529">
        <ele>265.6</ele>
        <time>2026-03-22T08:19:49Z</time>
      </trkpt>
      <trkpt lat="44.4776" lon="1.59526">
        <ele>265.6</ele>
        <time>2026-03-22T08:19:50Z</time>
      </trkpt>
      <trkpt lat="44.47769" lon="1.59521">
        <ele>265.6</ele>
        <time>2026-03-22T08:19:52Z</time>
      </trkpt>
      <trkpt lat="44.47786" lon="1.59513">
        <ele>264.8</ele>
        <time>2026-03-22T08:19:55Z</time>
      </trkpt>
      <trkpt lat="44.47793" lon="1.59509">
        <ele>264.6</ele>
        <time>2026-03-22T08:19:56Z</time>
      </trkpt>
      <trkpt lat="44.47806" lon="1.59503">
        <ele>264</ele>
        <time>2026-03-22T08:19:58Z</time>
      </trkpt>
      <trkpt lat="44.47813" lon="1.595">
        <ele>263.4</ele>
        <time>2026-03-22T08:19:59Z</time>
      </trkpt>
      <trkpt lat="44.47821" lon="1.59497">
        <ele>263.2</ele>
        <time>2026-03-22T08:20:00Z</time>
      </trkpt>
      <trkpt lat="44.47835" lon="1.59492">
        <ele>262.2</ele>
        <time>2026-03-22T08:20:02Z</time>
      </trkpt>
      <trkpt lat="44.47858" lon="1.59484">
        <ele>260.6</ele>
        <time>2026-03-22T08:20:05Z</time>
      </trkpt>
      <trkpt lat="44.47874" lon="1.59481">
        <ele>259</ele>
        <time>2026-03-22T08:20:07Z</time>
      </trkpt>
      <trkpt lat="44.47889" lon="1.59478">
        <ele>258</ele>
        <time>2026-03-22T08:20:09Z</time>
      </trkpt>
      <trkpt lat="44.47895" lon="1.59478">
        <ele>257.2</ele>
        <time>2026-03-22T08:20:10Z</time>
      </trkpt>
      <trkpt lat="44.479" lon="1.5948">
        <ele>256.8</ele>
        <time>2026-03-22T08:20:11Z</time>
      </trkpt>
      <trkpt lat="44.47903" lon="1.59485">
        <ele>256</ele>
        <time>2026-03-22T08:20:12Z</time>
      </trkpt>
      <trkpt lat="44.47907" lon="1.5949">
        <ele>255.2</ele>
        <time>2026-03-22T08:20:13Z</time>
      </trkpt>
      <trkpt lat="44.4791" lon="1.59497">
        <ele>254.6</ele>
        <time>2026-03-22T08:20:14Z</time>
      </trkpt>
      <trkpt lat="44.47914" lon="1.59504">
        <ele>254</ele>
        <time>2026-03-22T08:20:15Z</time>
      </trkpt>
      <trkpt lat="44.47922" lon="1.59519">
        <ele>252.6</ele>
        <time>2026-03-22T08:20:17Z</time>
      </trkpt>
      <trkpt lat="44.47927" lon="1.59526">
        <ele>252.2</ele>
        <time>2026-03-22T08:20:18Z</time>
      </trkpt>
      <trkpt lat="44.47936" lon="1.59541">
        <ele>251.2</ele>
        <time>2026-03-22T08:20:20Z</time>
      </trkpt>
      <trkpt lat="44.4794" lon="1.59547">
        <ele>250.8</ele>
        <time>2026-03-22T08:20:21Z</time>
      </trkpt>
      <trkpt lat="44.47943" lon="1.59552">
        <ele>250.6</ele>
        <time>2026-03-22T08:20:22Z</time>
      </trkpt>
      <trkpt lat="44.47945" lon="1.59555">
        <ele>250.2</ele>
        <time>2026-03-22T08:20:23Z</time>
      </trkpt>
      <trkpt lat="44.47946" lon="1.59556">
        <ele>249.6</ele>
        <time>2026-03-22T08:20:24Z</time>
      </trkpt>
      <trkpt lat="44.47946" lon="1.59556">
        <ele>248.8</ele>
        <time>2026-03-22T08:20:25Z</time>
      </trkpt>
      <trkpt lat="44.47946" lon="1.59556">
        <ele>248.2</ele>
        <time>2026-03-22T08:20:26Z</time>
      </trkpt>
      <trkpt lat="44.47947" lon="1.59557">
        <ele>247.4</ele>
        <time>2026-03-22T08:20:27Z</time>
      </trkpt>
      <trkpt lat="44.47947" lon="1.59558">
        <ele>246.2</ele>
        <time>2026-03-22T08:20:28Z</time>
      </trkpt>
      <trkpt lat="44.47947" lon="1.59558">
        <ele>245.2</ele>
        <time>2026-03-22T08:20:29Z</time>
      </trkpt>
      <trkpt lat="44.47948" lon="1.59558">
        <ele>244</ele>
        <time>2026-03-22T08:20:31Z</time>
      </trkpt>
      <trkpt lat="44.47948" lon="1.59558">
        <ele>243.6</ele>
        <time>2026-03-22T08:20:32Z</time>
      </trkpt>
      <trkpt lat="44.47948" lon="1.59558">
        <ele>243.4</ele>
        <time>2026-03-22T08:20:33Z</time>
      </trkpt>
      <trkpt lat="44.47949" lon="1.59558">
        <ele>243.4</ele>
        <time>2026-03-22T08:20:34Z</time>
      </trkpt>
      <trkpt lat="44.47949" lon="1.59558">
        <ele>243</ele>
        <time>2026-03-22T08:20:36Z</time>
      </trkpt>
      <trkpt lat="44.47953" lon="1.59565">
        <ele>242.4</ele>
        <time>2026-03-22T08:20:49Z</time>
      </trkpt>
      <trkpt lat="44.47955" lon="1.59569">
        <ele>242.4</ele>
        <time>2026-03-22T08:20:50Z</time>
      </trkpt>
      <trkpt lat="44.47958" lon="1.59573">
        <ele>242.4</ele>
        <time>2026-03-22T08:20:51Z</time>
      </trkpt>
      <trkpt lat="44.47967" lon="1.59591">
        <ele>242.4</ele>
        <time>2026-03-22T08:20:54Z</time>
      </trkpt>
      <trkpt lat="44.47975" lon="1.59601">
        <ele>242.2</ele>
        <time>2026-03-22T08:20:56Z</time>
      </trkpt>
      <trkpt lat="44.47978" lon="1.59604">
        <ele>242.2</ele>
        <time>2026-03-22T08:20:57Z</time>
      </trkpt>
      <trkpt lat="44.4798" lon="1.59604">
        <ele>241.8</ele>
        <time>2026-03-22T08:20:58Z</time>
      </trkpt>
      <trkpt lat="44.47981" lon="1.59602">
        <ele>241.4</ele>
        <time>2026-03-22T08:20:59Z</time>
      </trkpt>
      <trkpt lat="44.47983" lon="1.59597">
        <ele>241</ele>
        <time>2026-03-22T08:21:00Z</time>
      </trkpt>
      <trkpt lat="44.47984" lon="1.59594">
        <ele>240</ele>
        <time>2026-03-22T08:21:01Z</time>
      </trkpt>
      <trkpt lat="44.47985" lon="1.5959">
        <ele>239.2</ele>
        <time>2026-03-22T08:21:03Z</time>
      </trkpt>
      <trkpt lat="44.47986" lon="1.59587">
        <ele>237.8</ele>
        <time>2026-03-22T08:21:09Z</time>
      </trkpt>
      <trkpt lat="44.47986" lon="1.59583">
        <ele>237.8</ele>
        <time>2026-03-22T08:21:10Z</time>
      </trkpt>
      <trkpt lat="44.47992" lon="1.59555">
        <ele>237.6</ele>
        <time>2026-03-22T08:21:13Z</time>
      </trkpt>
      <trkpt lat="44.47993" lon="1.59544">
        <ele>237.6</ele>
        <time>2026-03-22T08:21:14Z</time>
      </trkpt>
      <trkpt lat="44.47994" lon="1.59534">
        <ele>237.4</ele>
        <time>2026-03-22T08:21:15Z</time>
      </trkpt>
      <trkpt lat="44.47996" lon="1.59524">
        <ele>237.2</ele>
        <time>2026-03-22T08:21:16Z</time>
      </trkpt>
      <trkpt lat="44.47998" lon="1.59516">
        <ele>236.8</ele>
        <time>2026-03-22T08:21:17Z</time>
      </trkpt>
      <trkpt lat="44.48002" lon="1.59507">
        <ele>236.4</ele>
        <time>2026-03-22T08:21:18Z</time>
      </trkpt>
      <trkpt lat="44.48007" lon="1.59496">
        <ele>236</ele>
        <time>2026-03-22T08:21:19Z</time>
      </trkpt>
      <trkpt lat="44.48014" lon="1.59486">
        <ele>234.2</ele>
        <time>2026-03-22T08:21:20Z</time>
      </trkpt>
      <trkpt lat="44.4802" lon="1.59477">
        <ele>233</ele>
        <time>2026-03-22T08:21:21Z</time>
      </trkpt>
      <trkpt lat="44.48026" lon="1.59466">
        <ele>231</ele>
        <time>2026-03-22T08:21:22Z</time>
      </trkpt>
      <trkpt lat="44.48031" lon="1.59453">
        <ele>229.8</ele>
        <time>2026-03-22T08:21:23Z</time>
      </trkpt>
      <trkpt lat="44.48035" lon="1.59439">
        <ele>227.4</ele>
        <time>2026-03-22T08:21:24Z</time>
      </trkpt>
      <trkpt lat="44.48039" lon="1.59424">
        <ele>225</ele>
        <time>2026-03-22T08:21:25Z</time>
      </trkpt>
      <trkpt lat="44.48043" lon="1.5941">
        <ele>222.8</ele>
        <time>2026-03-22T08:21:26Z</time>
      </trkpt>
      <trkpt lat="44.48048" lon="1.59397">
        <ele>220.8</ele>
        <time>2026-03-22T08:21:27Z</time>
      </trkpt>
      <trkpt lat="44.48053" lon="1.59383">
        <ele>219</ele>
        <time>2026-03-22T08:21:28Z</time>
      </trkpt>
      <trkpt lat="44.48055" lon="1.59368">
        <ele>216.2</ele>
        <time>2026-03-22T08:21:29Z</time>
      </trkpt>
      <trkpt lat="44.48058" lon="1.59353">
        <ele>214.6</ele>
        <time>2026-03-22T08:21:30Z</time>
      </trkpt>
      <trkpt lat="44.48062" lon="1.59337">
        <ele>212</ele>
        <time>2026-03-22T08:21:31Z</time>
      </trkpt>
      <trkpt lat="44.48064" lon="1.59321">
        <ele>209.4</ele>
        <time>2026-03-22T08:21:32Z</time>
      </trkpt>
      <trkpt lat="44.48065" lon="1.59306">
        <ele>207.4</ele>
        <time>2026-03-22T08:21:33Z</time>
      </trkpt>
      <trkpt lat="44.48064" lon="1.59291">
        <ele>205.2</ele>
        <time>2026-03-22T08:21:34Z</time>
      </trkpt>
      <trkpt lat="44.48062" lon="1.59277">
        <ele>202.2</ele>
        <time>2026-03-22T08:21:35Z</time>
      </trkpt>
      <trkpt lat="44.48058" lon="1.59264">
        <ele>200.6</ele>
        <time>2026-03-22T08:21:36Z</time>
      </trkpt>
      <trkpt lat="44.48055" lon="1.59251">
        <ele>197.8</ele>
        <time>2026-03-22T08:21:37Z</time>
      </trkpt>
      <trkpt lat="44.48053" lon="1.59238">
        <ele>194.8</ele>
        <time>2026-03-22T08:21:38Z</time>
      </trkpt>
      <trkpt lat="44.4805" lon="1.59225">
        <ele>192.2</ele>
        <time>2026-03-22T08:21:39Z</time>
      </trkpt>
      <trkpt lat="44.48046" lon="1.59212">
        <ele>190</ele>
        <time>2026-03-22T08:21:40Z</time>
      </trkpt>
      <trkpt lat="44.48042" lon="1.592">
        <ele>187.4</ele>
        <time>2026-03-22T08:21:41Z</time>
      </trkpt>
      <trkpt lat="44.48039" lon="1.59187">
        <ele>185</ele>
        <time>2026-03-22T08:21:42Z</time>
      </trkpt>
      <trkpt lat="44.48038" lon="1.59174">
        <ele>182.2</ele>
        <time>2026-03-22T08:21:43Z</time>
      </trkpt>
      <trkpt lat="44.48037" lon="1.5916">
        <ele>179.8</ele>
        <time>2026-03-22T08:21:44Z</time>
      </trkpt>
      <trkpt lat="44.48036" lon="1.59148">
        <ele>177.2</ele>
        <time>2026-03-22T08:21:45Z</time>
      </trkpt>
      <trkpt lat="44.48034" lon="1.59137">
        <ele>174.2</ele>
        <time>2026-03-22T08:21:46Z</time>
      </trkpt>
      <trkpt lat="44.48033" lon="1.59127">
        <ele>171.8</ele>
        <time>2026-03-22T08:21:47Z</time>
      </trkpt>
      <trkpt lat="44.48034" lon="1.5912">
        <ele>168.8</ele>
        <time>2026-03-22T08:21:48Z</time>
      </trkpt>
      <trkpt lat="44.48037" lon="1.59115">
        <ele>165</ele>
        <time>2026-03-22T08:21:49Z</time>
      </trkpt>
      <trkpt lat="44.48041" lon="1.59112">
        <ele>162.2</ele>
        <time>2026-03-22T08:21:50Z</time>
      </trkpt>
      <trkpt lat="44.48045" lon="1.5911">
        <ele>159</ele>
        <time>2026-03-22T08:21:51Z</time>
      </trkpt>
      <trkpt lat="44.48047" lon="1.59104">
        <ele>156.2</ele>
        <time>2026-03-22T08:21:52Z</time>
      </trkpt>
      <trkpt lat="44.4805" lon="1.59096">
        <ele>154.2</ele>
        <time>2026-03-22T08:21:53Z</time>
      </trkpt>
      <trkpt lat="44.48053" lon="1.59087">
        <ele>152.4</ele>
        <time>2026-03-22T08:21:54Z</time>
      </trkpt>
      <trkpt lat="44.48056" lon="1.59078">
        <ele>150.2</ele>
        <time>2026-03-22T08:21:55Z</time>
      </trkpt>
      <trkpt lat="44.48057" lon="1.59068">
        <ele>148.6</ele>
        <time>2026-03-22T08:21:56Z</time>
      </trkpt>
      <trkpt lat="44.48058" lon="1.5906">
        <ele>147.4</ele>
        <time>2026-03-22T08:21:57Z</time>
      </trkpt>
      <trkpt lat="44.48058" lon="1.59052">
        <ele>146.6</ele>
        <time>2026-03-22T08:21:58Z</time>
      </trkpt>
      <trkpt lat="44.4806" lon="1.59045">
        <ele>145.6</ele>
        <time>2026-03-22T08:21:59Z</time>
      </trkpt>
      <trkpt lat="44.48064" lon="1.5904">
        <ele>145</ele>
        <time>2026-03-22T08:22:00Z</time>
      </trkpt>
      <trkpt lat="44.48068" lon="1.59037">
        <ele>144.4</ele>
        <time>2026-03-22T08:22:01Z</time>
      </trkpt>
      <trkpt lat="44.48072" lon="1.59036">
        <ele>143.6</ele>
        <time>2026-03-22T08:22:02Z</time>
      </trkpt>
      <trkpt lat="44.48075" lon="1.59037">
        <ele>142.8</ele>
        <time>2026-03-22T08:22:03Z</time>
      </trkpt>
      <trkpt lat="44.48079" lon="1.59038">
        <ele>142.2</ele>
        <time>2026-03-22T08:22:04Z</time>
      </trkpt>
      <trkpt lat="44.48083" lon="1.59038">
        <ele>142</ele>
        <time>2026-03-22T08:22:05Z</time>
      </trkpt>
      <trkpt lat="44.48086" lon="1.59038">
        <ele>142</ele>
        <time>2026-03-22T08:22:06Z</time>
      </trkpt>
      <trkpt lat="44.48089" lon="1.59038">
        <ele>142</ele>
        <time>2026-03-22T08:22:07Z</time>
      </trkpt>
      <trkpt lat="44.48103" lon="1.59037">
        <ele>142</ele>
        <time>2026-03-22T08:22:11Z</time>
      </trkpt>
      <trkpt lat="44.48116" lon="1.59034">
        <ele>142.2</ele>
        <time>2026-03-22T08:22:14Z</time>
      </trkpt>
      <trkpt lat="44.48126" lon="1.59034">
        <ele>142.4</ele>
        <time>2026-03-22T08:22:16Z</time>
      </trkpt>
      <trkpt lat="44.48131" lon="1.59033">
        <ele>142.4</ele>
        <time>2026-03-22T08:22:17Z</time>
      </trkpt>
      <trkpt lat="44.4814" lon="1.59031">
        <ele>142.6</ele>
        <time>2026-03-22T08:22:19Z</time>
      </trkpt>
      <trkpt lat="44.48155" lon="1.59027">
        <ele>142.8</ele>
        <time>2026-03-22T08:22:22Z</time>
      </trkpt>
      <trkpt lat="44.48184" lon="1.59016">
        <ele>143.2</ele>
        <time>2026-03-22T08:22:28Z</time>
      </trkpt>
      <trkpt lat="44.48188" lon="1.59014">
        <ele>143.2</ele>
        <time>2026-03-22T08:22:29Z</time>
      </trkpt>
      <trkpt lat="44.48226" lon="1.58996">
        <ele>144</ele>
        <time>2026-03-22T08:22:37Z</time>
      </trkpt>
      <trkpt lat="44.4826" lon="1.58993">
        <ele>144.6</ele>
        <time>2026-03-22T08:22:44Z</time>
      </trkpt>
      <trkpt lat="44.48275" lon="1.58994">
        <ele>145</ele>
        <time>2026-03-22T08:22:47Z</time>
      </trkpt>
      <trkpt lat="44.48279" lon="1.58995">
        <ele>145</ele>
        <time>2026-03-22T08:22:48Z</time>
      </trkpt>
      <trkpt lat="44.48303" lon="1.58999">
        <ele>145.2</ele>
        <time>2026-03-22T08:22:53Z</time>
      </trkpt>
      <trkpt lat="44.48312" lon="1.59001">
        <ele>145.2</ele>
        <time>2026-03-22T08:22:55Z</time>
      </trkpt>
      <trkpt lat="44.48315" lon="1.59002">
        <ele>145.4</ele>
        <time>2026-03-22T08:22:56Z</time>
      </trkpt>
      <trkpt lat="44.48319" lon="1.59003">
        <ele>145.4</ele>
        <time>2026-03-22T08:22:57Z</time>
      </trkpt>
      <trkpt lat="44.48322" lon="1.59004">
        <ele>145.6</ele>
        <time>2026-03-22T08:22:58Z</time>
      </trkpt>
      <trkpt lat="44.48324" lon="1.59005">
        <ele>145.6</ele>
        <time>2026-03-22T08:22:59Z</time>
      </trkpt>
      <trkpt lat="44.48328" lon="1.59007">
        <ele>145.8</ele>
        <time>2026-03-22T08:23:00Z</time>
      </trkpt>
      <trkpt lat="44.48332" lon="1.59008">
        <ele>146.2</ele>
        <time>2026-03-22T08:23:01Z</time>
      </trkpt>
      <trkpt lat="44.4834" lon="1.59012">
        <ele>146.6</ele>
        <time>2026-03-22T08:23:03Z</time>
      </trkpt>
      <trkpt lat="44.48372" lon="1.5903">
        <ele>147.2</ele>
        <time>2026-03-22T08:23:11Z</time>
      </trkpt>
      <trkpt lat="44.48376" lon="1.59032">
        <ele>147.2</ele>
        <time>2026-03-22T08:23:12Z</time>
      </trkpt>
      <trkpt lat="44.4838" lon="1.59034">
        <ele>147.2</ele>
        <time>2026-03-22T08:23:13Z</time>
      </trkpt>
      <trkpt lat="44.48384" lon="1.59036">
        <ele>147.2</ele>
        <time>2026-03-22T08:23:14Z</time>
      </trkpt>
      <trkpt lat="44.48406" lon="1.59043">
        <ele>147.2</ele>
        <time>2026-03-22T08:23:19Z</time>
      </trkpt>
      <trkpt lat="44.4841" lon="1.59044">
        <ele>147.2</ele>
        <time>2026-03-22T08:23:20Z</time>
      </trkpt>
      <trkpt lat="44.48419" lon="1.59043">
        <ele>147.4</ele>
        <time>2026-03-22T08:23:22Z</time>
      </trkpt>
      <trkpt lat="44.48427" lon="1.5904">
        <ele>147.6</ele>
        <time>2026-03-22T08:23:24Z</time>
      </trkpt>
      <trkpt lat="44.48432" lon="1.59038">
        <ele>147.6</ele>
        <time>2026-03-22T08:23:25Z</time>
      </trkpt>
      <trkpt lat="44.4844" lon="1.59033">
        <ele>147.6</ele>
        <time>2026-03-22T08:23:27Z</time>
      </trkpt>
      <trkpt lat="44.48445" lon="1.5903">
        <ele>147.6</ele>
        <time>2026-03-22T08:23:28Z</time>
      </trkpt>
      <trkpt lat="44.48449" lon="1.59029">
        <ele>147.8</ele>
        <time>2026-03-22T08:23:29Z</time>
      </trkpt>
      <trkpt lat="44.48453" lon="1.59026">
        <ele>147.8</ele>
        <time>2026-03-22T08:23:30Z</time>
      </trkpt>
      <trkpt lat="44.48456" lon="1.59024">
        <ele>148</ele>
        <time>2026-03-22T08:23:31Z</time>
      </trkpt>
      <trkpt lat="44.4846" lon="1.59022">
        <ele>148.2</ele>
        <time>2026-03-22T08:23:32Z</time>
      </trkpt>
      <trkpt lat="44.48463" lon="1.59021">
        <ele>148.4</ele>
        <time>2026-03-22T08:23:33Z</time>
      </trkpt>
      <trkpt lat="44.48467" lon="1.59019">
        <ele>148.8</ele>
        <time>2026-03-22T08:23:34Z</time>
      </trkpt>
      <trkpt lat="44.48471" lon="1.59017">
        <ele>148.8</ele>
        <time>2026-03-22T08:23:35Z</time>
      </trkpt>
      <trkpt lat="44.48475" lon="1.59015">
        <ele>149</ele>
        <time>2026-03-22T08:23:36Z</time>
      </trkpt>
      <trkpt lat="44.48482" lon="1.59011">
        <ele>149.4</ele>
        <time>2026-03-22T08:23:38Z</time>
      </trkpt>
      <trkpt lat="44.48486" lon="1.59008">
        <ele>149.6</ele>
        <time>2026-03-22T08:23:39Z</time>
      </trkpt>
      <trkpt lat="44.48498" lon="1.59003">
        <ele>150.2</ele>
        <time>2026-03-22T08:23:42Z</time>
      </trkpt>
      <trkpt lat="44.48502" lon="1.59001">
        <ele>150.4</ele>
        <time>2026-03-22T08:23:43Z</time>
      </trkpt>
      <trkpt lat="44.48506" lon="1.58999">
        <ele>150.4</ele>
        <time>2026-03-22T08:23:44Z</time>
      </trkpt>
      <trkpt lat="44.48511" lon="1.58998">
        <ele>150.4</ele>
        <time>2026-03-22T08:23:45Z</time>
      </trkpt>
      <trkpt lat="44.48515" lon="1.58996">
        <ele>150.6</ele>
        <time>2026-03-22T08:23:46Z</time>
      </trkpt>
      <trkpt lat="44.4852" lon="1.58994">
        <ele>150.6</ele>
        <time>2026-03-22T08:23:47Z</time>
      </trkpt>
      <trkpt lat="44.48525" lon="1.58992">
        <ele>150.8</ele>
        <time>2026-03-22T08:23:48Z</time>
      </trkpt>
      <trkpt lat="44.48529" lon="1.58989">
        <ele>150.8</ele>
        <time>2026-03-22T08:23:49Z</time>
      </trkpt>
      <trkpt lat="44.48534" lon="1.58987">
        <ele>150.8</ele>
        <time>2026-03-22T08:23:50Z</time>
      </trkpt>
      <trkpt lat="44.48538" lon="1.58984">
        <ele>150.8</ele>
        <time>2026-03-22T08:23:51Z</time>
      </trkpt>
      <trkpt lat="44.48542" lon="1.58981">
        <ele>150.8</ele>
        <time>2026-03-22T08:23:52Z</time>
      </trkpt>
      <trkpt lat="44.48546" lon="1.58978">
        <ele>151</ele>
        <time>2026-03-22T08:23:53Z</time>
      </trkpt>
      <trkpt lat="44.4855" lon="1.58975">
        <ele>151</ele>
        <time>2026-03-22T08:23:54Z</time>
      </trkpt>
      <trkpt lat="44.48554" lon="1.58971">
        <ele>151</ele>
        <time>2026-03-22T08:23:55Z</time>
      </trkpt>
      <trkpt lat="44.48558" lon="1.58967">
        <ele>151.2</ele>
        <time>2026-03-22T08:23:56Z</time>
      </trkpt>
      <trkpt lat="44.48562" lon="1.58963">
        <ele>151.2</ele>
        <time>2026-03-22T08:23:57Z</time>
      </trkpt>
      <trkpt lat="44.48565" lon="1.58959">
        <ele>151.2</ele>
        <time>2026-03-22T08:23:58Z</time>
      </trkpt>
      <trkpt lat="44.48568" lon="1.58954">
        <ele>151.4</ele>
        <time>2026-03-22T08:23:59Z</time>
      </trkpt>
      <trkpt lat="44.48571" lon="1.58949">
        <ele>151.4</ele>
        <time>2026-03-22T08:24:00Z</time>
      </trkpt>
      <trkpt lat="44.48574" lon="1.58945">
        <ele>151.6</ele>
        <time>2026-03-22T08:24:01Z</time>
      </trkpt>
      <trkpt lat="44.48582" lon="1.58931">
        <ele>151.8</ele>
        <time>2026-03-22T08:24:04Z</time>
      </trkpt>
      <trkpt lat="44.48585" lon="1.58926">
        <ele>151.8</ele>
        <time>2026-03-22T08:24:05Z</time>
      </trkpt>
      <trkpt lat="44.48587" lon="1.58921">
        <ele>151.8</ele>
        <time>2026-03-22T08:24:06Z</time>
      </trkpt>
      <trkpt lat="44.4859" lon="1.58916">
        <ele>152.2</ele>
        <time>2026-03-22T08:24:07Z</time>
      </trkpt>
      <trkpt lat="44.48596" lon="1.58905">
        <ele>152.6</ele>
        <time>2026-03-22T08:24:09Z</time>
      </trkpt>
      <trkpt lat="44.486" lon="1.58901">
        <ele>152.6</ele>
        <time>2026-03-22T08:24:10Z</time>
      </trkpt>
      <trkpt lat="44.48603" lon="1.58895">
        <ele>153</ele>
        <time>2026-03-22T08:24:11Z</time>
      </trkpt>
      <trkpt lat="44.48609" lon="1.58885">
        <ele>153.2</ele>
        <time>2026-03-22T08:24:13Z</time>
      </trkpt>
      <trkpt lat="44.48612" lon="1.5888">
        <ele>153.4</ele>
        <time>2026-03-22T08:24:14Z</time>
      </trkpt>
      <trkpt lat="44.48616" lon="1.58876">
        <ele>153.4</ele>
        <time>2026-03-22T08:24:15Z</time>
      </trkpt>
      <trkpt lat="44.4862" lon="1.58872">
        <ele>153.8</ele>
        <time>2026-03-22T08:24:16Z</time>
      </trkpt>
      <trkpt lat="44.48623" lon="1.58868">
        <ele>153.8</ele>
        <time>2026-03-22T08:24:17Z</time>
      </trkpt>
      <trkpt lat="44.48627" lon="1.58864">
        <ele>154</ele>
        <time>2026-03-22T08:24:18Z</time>
      </trkpt>
      <trkpt lat="44.48631" lon="1.5886">
        <ele>154</ele>
        <time>2026-03-22T08:24:19Z</time>
      </trkpt>
      <trkpt lat="44.48635" lon="1.58856">
        <ele>154.2</ele>
        <time>2026-03-22T08:24:20Z</time>
      </trkpt>
      <trkpt lat="44.48638" lon="1.58852">
        <ele>154.4</ele>
        <time>2026-03-22T08:24:21Z</time>
      </trkpt>
      <trkpt lat="44.48642" lon="1.58848">
        <ele>154.4</ele>
        <time>2026-03-22T08:24:22Z</time>
      </trkpt>
      <trkpt lat="44.48646" lon="1.58845">
        <ele>154.4</ele>
        <time>2026-03-22T08:24:23Z</time>
      </trkpt>
      <trkpt lat="44.48649" lon="1.58841">
        <ele>154.4</ele>
        <time>2026-03-22T08:24:24Z</time>
      </trkpt>
      <trkpt lat="44.48653" lon="1.58838">
        <ele>154.6</ele>
        <time>2026-03-22T08:24:25Z</time>
      </trkpt>
      <trkpt lat="44.48656" lon="1.58834">
        <ele>154.6</ele>
        <time>2026-03-22T08:24:26Z</time>
      </trkpt>
      <trkpt lat="44.4866" lon="1.5883">
        <ele>154.6</ele>
        <time>2026-03-22T08:24:27Z</time>
      </trkpt>
      <trkpt lat="44.48663" lon="1.58826">
        <ele>154.8</ele>
        <time>2026-03-22T08:24:28Z</time>
      </trkpt>
      <trkpt lat="44.48667" lon="1.58821">
        <ele>154.8</ele>
        <time>2026-03-22T08:24:29Z</time>
      </trkpt>
      <trkpt lat="44.4867" lon="1.58817">
        <ele>155</ele>
        <time>2026-03-22T08:24:30Z</time>
      </trkpt>
      <trkpt lat="44.48673" lon="1.58812">
        <ele>155</ele>
        <time>2026-03-22T08:24:31Z</time>
      </trkpt>
      <trkpt lat="44.48675" lon="1.58807">
        <ele>155.2</ele>
        <time>2026-03-22T08:24:32Z</time>
      </trkpt>
      <trkpt lat="44.48678" lon="1.58801">
        <ele>155.4</ele>
        <time>2026-03-22T08:24:33Z</time>
      </trkpt>
      <trkpt lat="44.48679" lon="1.58795">
        <ele>155.6</ele>
        <time>2026-03-22T08:24:34Z</time>
      </trkpt>
      <trkpt lat="44.4868" lon="1.5879">
        <ele>155.6</ele>
        <time>2026-03-22T08:24:35Z</time>
      </trkpt>
      <trkpt lat="44.48681" lon="1.58784">
        <ele>155.6</ele>
        <time>2026-03-22T08:24:36Z</time>
      </trkpt>
      <trkpt lat="44.48682" lon="1.58778">
        <ele>155.8</ele>
        <time>2026-03-22T08:24:37Z</time>
      </trkpt>
      <trkpt lat="44.48683" lon="1.58772">
        <ele>155.8</ele>
        <time>2026-03-22T08:24:38Z</time>
      </trkpt>
      <trkpt lat="44.48684" lon="1.58767">
        <ele>155.8</ele>
        <time>2026-03-22T08:24:39Z</time>
      </trkpt>
      <trkpt lat="44.48685" lon="1.58762">
        <ele>155.8</ele>
        <time>2026-03-22T08:24:40Z</time>
      </trkpt>
      <trkpt lat="44.48687" lon="1.58756">
        <ele>156</ele>
        <time>2026-03-22T08:24:41Z</time>
      </trkpt>
      <trkpt lat="44.48689" lon="1.58751">
        <ele>156</ele>
        <time>2026-03-22T08:24:42Z</time>
      </trkpt>
      <trkpt lat="44.48691" lon="1.58747">
        <ele>156</ele>
        <time>2026-03-22T08:24:43Z</time>
      </trkpt>
      <trkpt lat="44.48692" lon="1.58743">
        <ele>156</ele>
        <time>2026-03-22T08:24:44Z</time>
      </trkpt>
      <trkpt lat="44.48694" lon="1.58739">
        <ele>156</ele>
        <time>2026-03-22T08:24:45Z</time>
      </trkpt>
      <trkpt lat="44.48696" lon="1.58735">
        <ele>156.2</ele>
        <time>2026-03-22T08:24:46Z</time>
      </trkpt>
      <trkpt lat="44.487" lon="1.58727">
        <ele>156.8</ele>
        <time>2026-03-22T08:24:48Z</time>
      </trkpt>
      <trkpt lat="44.48702" lon="1.58723">
        <ele>157</ele>
        <time>2026-03-22T08:24:49Z</time>
      </trkpt>
      <trkpt lat="44.48705" lon="1.5872">
        <ele>157.4</ele>
        <time>2026-03-22T08:24:50Z</time>
      </trkpt>
      <trkpt lat="44.48708" lon="1.58717">
        <ele>157.6</ele>
        <time>2026-03-22T08:24:51Z</time>
      </trkpt>
      <trkpt lat="44.48711" lon="1.58713">
        <ele>158</ele>
        <time>2026-03-22T08:24:52Z</time>
      </trkpt>
      <trkpt lat="44.48713" lon="1.5871">
        <ele>158.4</ele>
        <time>2026-03-22T08:24:53Z</time>
      </trkpt>
      <trkpt lat="44.48716" lon="1.58707">
        <ele>158.6</ele>
        <time>2026-03-22T08:24:54Z</time>
      </trkpt>
      <trkpt lat="44.48719" lon="1.58704">
        <ele>158.8</ele>
        <time>2026-03-22T08:24:55Z</time>
      </trkpt>
      <trkpt lat="44.48721" lon="1.58701">
        <ele>158.8</ele>
        <time>2026-03-22T08:24:56Z</time>
      </trkpt>
      <trkpt lat="44.48725" lon="1.58699">
        <ele>158.8</ele>
        <time>2026-03-22T08:24:57Z</time>
      </trkpt>
      <trkpt lat="44.48729" lon="1.58696">
        <ele>159</ele>
        <time>2026-03-22T08:24:58Z</time>
      </trkpt>
      <trkpt lat="44.48733" lon="1.58693">
        <ele>159.2</ele>
        <time>2026-03-22T08:24:59Z</time>
      </trkpt>
      <trkpt lat="44.48737" lon="1.5869">
        <ele>159.4</ele>
        <time>2026-03-22T08:25:00Z</time>
      </trkpt>
      <trkpt lat="44.4874" lon="1.58688">
        <ele>159.8</ele>
        <time>2026-03-22T08:25:01Z</time>
      </trkpt>
      <trkpt lat="44.48744" lon="1.58685">
        <ele>160</ele>
        <time>2026-03-22T08:25:02Z</time>
      </trkpt>
      <trkpt lat="44.48747" lon="1.58682">
        <ele>160.2</ele>
        <time>2026-03-22T08:25:03Z</time>
      </trkpt>
      <trkpt lat="44.48751" lon="1.58678">
        <ele>160.2</ele>
        <time>2026-03-22T08:25:04Z</time>
      </trkpt>
      <trkpt lat="44.48755" lon="1.58675">
        <ele>160.2</ele>
        <time>2026-03-22T08:25:05Z</time>
      </trkpt>
      <trkpt lat="44.48758" lon="1.58671">
        <ele>160.2</ele>
        <time>2026-03-22T08:25:06Z</time>
      </trkpt>
      <trkpt lat="44.48761" lon="1.58667">
        <ele>160.2</ele>
        <time>2026-03-22T08:25:07Z</time>
      </trkpt>
      <trkpt lat="44.48764" lon="1.58662">
        <ele>160.2</ele>
        <time>2026-03-22T08:25:08Z</time>
      </trkpt>
      <trkpt lat="44.48767" lon="1.58658">
        <ele>160.4</ele>
        <time>2026-03-22T08:25:09Z</time>
      </trkpt>
      <trkpt lat="44.4877" lon="1.58654">
        <ele>160.4</ele>
        <time>2026-03-22T08:25:10Z</time>
      </trkpt>
      <trkpt lat="44.48773" lon="1.58649">
        <ele>160.4</ele>
        <time>2026-03-22T08:25:11Z</time>
      </trkpt>
      <trkpt lat="44.48776" lon="1.58644">
        <ele>160.4</ele>
        <time>2026-03-22T08:25:12Z</time>
      </trkpt>
      <trkpt lat="44.48779" lon="1.58639">
        <ele>160.4</ele>
        <time>2026-03-22T08:25:13Z</time>
      </trkpt>
      <trkpt lat="44.48781" lon="1.58634">
        <ele>160.4</ele>
        <time>2026-03-22T08:25:14Z</time>
      </trkpt>
      <trkpt lat="44.48783" lon="1.58629">
        <ele>160.4</ele>
        <time>2026-03-22T08:25:15Z</time>
      </trkpt>
      <trkpt lat="44.48785" lon="1.58624">
        <ele>160.4</ele>
        <time>2026-03-22T08:25:16Z</time>
      </trkpt>
      <trkpt lat="44.48787" lon="1.5862">
        <ele>160.4</ele>
        <time>2026-03-22T08:25:17Z</time>
      </trkpt>
      <trkpt lat="44.48789" lon="1.58615">
        <ele>160.4</ele>
        <time>2026-03-22T08:25:18Z</time>
      </trkpt>
      <trkpt lat="44.48792" lon="1.58611">
        <ele>160.4</ele>
        <time>2026-03-22T08:25:19Z</time>
      </trkpt>
      <trkpt lat="44.48795" lon="1.58607">
        <ele>160.4</ele>
        <time>2026-03-22T08:25:20Z</time>
      </trkpt>
      <trkpt lat="44.48799" lon="1.58604">
        <ele>160.4</ele>
        <time>2026-03-22T08:25:21Z</time>
      </trkpt>
      <trkpt lat="44.48803" lon="1.58601">
        <ele>160.4</ele>
        <time>2026-03-22T08:25:22Z</time>
      </trkpt>
      <trkpt lat="44.48807" lon="1.58599">
        <ele>160.6</ele>
        <time>2026-03-22T08:25:23Z</time>
      </trkpt>
      <trkpt lat="44.48812" lon="1.58597">
        <ele>160.6</ele>
        <time>2026-03-22T08:25:24Z</time>
      </trkpt>
      <trkpt lat="44.48816" lon="1.58596">
        <ele>160.6</ele>
        <time>2026-03-22T08:25:25Z</time>
      </trkpt>
      <trkpt lat="44.4882" lon="1.58596">
        <ele>160.6</ele>
        <time>2026-03-22T08:25:26Z</time>
      </trkpt>
      <trkpt lat="44.48824" lon="1.58596">
        <ele>160.6</ele>
        <time>2026-03-22T08:25:27Z</time>
      </trkpt>
      <trkpt lat="44.48828" lon="1.58596">
        <ele>160.8</ele>
        <time>2026-03-22T08:25:28Z</time>
      </trkpt>
      <trkpt lat="44.48831" lon="1.58597">
        <ele>160.8</ele>
        <time>2026-03-22T08:25:29Z</time>
      </trkpt>
      <trkpt lat="44.48835" lon="1.58599">
        <ele>160.8</ele>
        <time>2026-03-22T08:25:30Z</time>
      </trkpt>
      <trkpt lat="44.48843" lon="1.58602">
        <ele>160.8</ele>
        <time>2026-03-22T08:25:32Z</time>
      </trkpt>
      <trkpt lat="44.48851" lon="1.58606">
        <ele>161.2</ele>
        <time>2026-03-22T08:25:34Z</time>
      </trkpt>
      <trkpt lat="44.48856" lon="1.58606">
        <ele>161.2</ele>
        <time>2026-03-22T08:25:35Z</time>
      </trkpt>
      <trkpt lat="44.4886" lon="1.58607">
        <ele>161.4</ele>
        <time>2026-03-22T08:25:36Z</time>
      </trkpt>
      <trkpt lat="44.48864" lon="1.58608">
        <ele>161.6</ele>
        <time>2026-03-22T08:25:37Z</time>
      </trkpt>
      <trkpt lat="44.48869" lon="1.58609">
        <ele>161.6</ele>
        <time>2026-03-22T08:25:38Z</time>
      </trkpt>
      <trkpt lat="44.48876" lon="1.58613">
        <ele>162.2</ele>
        <time>2026-03-22T08:25:40Z</time>
      </trkpt>
      <trkpt lat="44.48884" lon="1.58615">
        <ele>162.6</ele>
        <time>2026-03-22T08:25:42Z</time>
      </trkpt>
      <trkpt lat="44.48888" lon="1.58616">
        <ele>162.8</ele>
        <time>2026-03-22T08:25:43Z</time>
      </trkpt>
      <trkpt lat="44.48897" lon="1.58617">
        <ele>163.2</ele>
        <time>2026-03-22T08:25:45Z</time>
      </trkpt>
      <trkpt lat="44.48906" lon="1.58616">
        <ele>163.4</ele>
        <time>2026-03-22T08:25:47Z</time>
      </trkpt>
      <trkpt lat="44.4891" lon="1.58615">
        <ele>163.6</ele>
        <time>2026-03-22T08:25:48Z</time>
      </trkpt>
      <trkpt lat="44.48914" lon="1.58615">
        <ele>163.8</ele>
        <time>2026-03-22T08:25:49Z</time>
      </trkpt>
      <trkpt lat="44.48918" lon="1.58614">
        <ele>163.8</ele>
        <time>2026-03-22T08:25:50Z</time>
      </trkpt>
      <trkpt lat="44.48923" lon="1.58613">
        <ele>164</ele>
        <time>2026-03-22T08:25:51Z</time>
      </trkpt>
      <trkpt lat="44.48928" lon="1.58613">
        <ele>164.2</ele>
        <time>2026-03-22T08:25:52Z</time>
      </trkpt>
      <trkpt lat="44.48932" lon="1.58612">
        <ele>164.2</ele>
        <time>2026-03-22T08:25:53Z</time>
      </trkpt>
      <trkpt lat="44.48937" lon="1.58612">
        <ele>164.2</ele>
        <time>2026-03-22T08:25:54Z</time>
      </trkpt>
      <trkpt lat="44.48942" lon="1.58611">
        <ele>164.4</ele>
        <time>2026-03-22T08:25:55Z</time>
      </trkpt>
      <trkpt lat="44.48947" lon="1.5861">
        <ele>164.4</ele>
        <time>2026-03-22T08:25:56Z</time>
      </trkpt>
      <trkpt lat="44.48952" lon="1.58609">
        <ele>164.4</ele>
        <time>2026-03-22T08:25:57Z</time>
      </trkpt>
      <trkpt lat="44.48956" lon="1.58608">
        <ele>164.8</ele>
        <time>2026-03-22T08:25:58Z</time>
      </trkpt>
      <trkpt lat="44.48961" lon="1.58606">
        <ele>165</ele>
        <time>2026-03-22T08:25:59Z</time>
      </trkpt>
      <trkpt lat="44.48966" lon="1.58605">
        <ele>165.2</ele>
        <time>2026-03-22T08:26:00Z</time>
      </trkpt>
      <trkpt lat="44.4897" lon="1.58604">
        <ele>165.2</ele>
        <time>2026-03-22T08:26:01Z</time>
      </trkpt>
      <trkpt lat="44.48974" lon="1.58603">
        <ele>165.2</ele>
        <time>2026-03-22T08:26:02Z</time>
      </trkpt>
      <trkpt lat="44.48978" lon="1.58601">
        <ele>165.4</ele>
        <time>2026-03-22T08:26:03Z</time>
      </trkpt>
      <trkpt lat="44.48982" lon="1.58599">
        <ele>165.4</ele>
        <time>2026-03-22T08:26:04Z</time>
      </trkpt>
      <trkpt lat="44.48987" lon="1.58597">
        <ele>165.6</ele>
        <time>2026-03-22T08:26:05Z</time>
      </trkpt>
      <trkpt lat="44.4899" lon="1.58595">
        <ele>165.6</ele>
        <time>2026-03-22T08:26:06Z</time>
      </trkpt>
      <trkpt lat="44.48995" lon="1.58592">
        <ele>165.8</ele>
        <time>2026-03-22T08:26:07Z</time>
      </trkpt>
      <trkpt lat="44.48999" lon="1.58588">
        <ele>165.8</ele>
        <time>2026-03-22T08:26:08Z</time>
      </trkpt>
      <trkpt lat="44.49003" lon="1.58586">
        <ele>166</ele>
        <time>2026-03-22T08:26:09Z</time>
      </trkpt>
      <trkpt lat="44.49007" lon="1.58585">
        <ele>166.2</ele>
        <time>2026-03-22T08:26:10Z</time>
      </trkpt>
      <trkpt lat="44.4901" lon="1.58584">
        <ele>166.4</ele>
        <time>2026-03-22T08:26:11Z</time>
      </trkpt>
      <trkpt lat="44.49014" lon="1.58582">
        <ele>166.4</ele>
        <time>2026-03-22T08:26:12Z</time>
      </trkpt>
      <trkpt lat="44.49018" lon="1.58581">
        <ele>166.6</ele>
        <time>2026-03-22T08:26:13Z</time>
      </trkpt>
      <trkpt lat="44.49022" lon="1.5858">
        <ele>166.8</ele>
        <time>2026-03-22T08:26:14Z</time>
      </trkpt>
      <trkpt lat="44.49026" lon="1.58578">
        <ele>167</ele>
        <time>2026-03-22T08:26:15Z</time>
      </trkpt>
      <trkpt lat="44.4903" lon="1.58577">
        <ele>167.2</ele>
        <time>2026-03-22T08:26:16Z</time>
      </trkpt>
      <trkpt lat="44.49033" lon="1.58575">
        <ele>167.2</ele>
        <time>2026-03-22T08:26:17Z</time>
      </trkpt>
      <trkpt lat="44.49037" lon="1.58574">
        <ele>167.6</ele>
        <time>2026-03-22T08:26:18Z</time>
      </trkpt>
      <trkpt lat="44.4904" lon="1.58573">
        <ele>167.6</ele>
        <time>2026-03-22T08:26:19Z</time>
      </trkpt>
      <trkpt lat="44.49043" lon="1.58573">
        <ele>167.8</ele>
        <time>2026-03-22T08:26:20Z</time>
      </trkpt>
      <trkpt lat="44.49048" lon="1.58573">
        <ele>168.2</ele>
        <time>2026-03-22T08:26:21Z</time>
      </trkpt>
      <trkpt lat="44.49052" lon="1.58573">
        <ele>168.4</ele>
        <time>2026-03-22T08:26:22Z</time>
      </trkpt>
      <trkpt lat="44.49057" lon="1.58573">
        <ele>168.6</ele>
        <time>2026-03-22T08:26:23Z</time>
      </trkpt>
      <trkpt lat="44.49061" lon="1.58573">
        <ele>169</ele>
        <time>2026-03-22T08:26:24Z</time>
      </trkpt>
      <trkpt lat="44.49066" lon="1.58573">
        <ele>169.2</ele>
        <time>2026-03-22T08:26:25Z</time>
      </trkpt>
      <trkpt lat="44.49071" lon="1.58575">
        <ele>169.4</ele>
        <time>2026-03-22T08:26:26Z</time>
      </trkpt>
      <trkpt lat="44.49075" lon="1.58576">
        <ele>169.6</ele>
        <time>2026-03-22T08:26:27Z</time>
      </trkpt>
      <trkpt lat="44.49078" lon="1.58576">
        <ele>169.8</ele>
        <time>2026-03-22T08:26:28Z</time>
      </trkpt>
      <trkpt lat="44.49083" lon="1.58577">
        <ele>169.8</ele>
        <time>2026-03-22T08:26:29Z</time>
      </trkpt>
      <trkpt lat="44.49088" lon="1.58577">
        <ele>170</ele>
        <time>2026-03-22T08:26:30Z</time>
      </trkpt>
      <trkpt lat="44.49093" lon="1.58578">
        <ele>170.2</ele>
        <time>2026-03-22T08:26:31Z</time>
      </trkpt>
      <trkpt lat="44.49097" lon="1.58578">
        <ele>170.2</ele>
        <time>2026-03-22T08:26:32Z</time>
      </trkpt>
      <trkpt lat="44.49101" lon="1.58579">
        <ele>170.4</ele>
        <time>2026-03-22T08:26:33Z</time>
      </trkpt>
      <trkpt lat="44.49106" lon="1.5858">
        <ele>170.4</ele>
        <time>2026-03-22T08:26:34Z</time>
      </trkpt>
      <trkpt lat="44.49111" lon="1.58581">
        <ele>170.6</ele>
        <time>2026-03-22T08:26:35Z</time>
      </trkpt>
      <trkpt lat="44.49115" lon="1.58582">
        <ele>171</ele>
        <time>2026-03-22T08:26:36Z</time>
      </trkpt>
      <trkpt lat="44.4912" lon="1.58583">
        <ele>171.2</ele>
        <time>2026-03-22T08:26:37Z</time>
      </trkpt>
      <trkpt lat="44.49125" lon="1.58583">
        <ele>171.2</ele>
        <time>2026-03-22T08:26:38Z</time>
      </trkpt>
      <trkpt lat="44.49129" lon="1.58584">
        <ele>171.6</ele>
        <time>2026-03-22T08:26:39Z</time>
      </trkpt>
      <trkpt lat="44.49134" lon="1.58584">
        <ele>171.8</ele>
        <time>2026-03-22T08:26:40Z</time>
      </trkpt>
      <trkpt lat="44.49138" lon="1.58586">
        <ele>171.8</ele>
        <time>2026-03-22T08:26:41Z</time>
      </trkpt>
      <trkpt lat="44.49142" lon="1.58587">
        <ele>171.8</ele>
        <time>2026-03-22T08:26:42Z</time>
      </trkpt>
      <trkpt lat="44.49145" lon="1.58589">
        <ele>172</ele>
        <time>2026-03-22T08:26:43Z</time>
      </trkpt>
      <trkpt lat="44.49149" lon="1.58591">
        <ele>172</ele>
        <time>2026-03-22T08:26:44Z</time>
      </trkpt>
      <trkpt lat="44.49153" lon="1.58594">
        <ele>172</ele>
        <time>2026-03-22T08:26:45Z</time>
      </trkpt>
      <trkpt lat="44.49157" lon="1.58595">
        <ele>172.2</ele>
        <time>2026-03-22T08:26:46Z</time>
      </trkpt>
      <trkpt lat="44.4916" lon="1.58597">
        <ele>172.6</ele>
        <time>2026-03-22T08:26:47Z</time>
      </trkpt>
      <trkpt lat="44.49164" lon="1.58599">
        <ele>172.8</ele>
        <time>2026-03-22T08:26:48Z</time>
      </trkpt>
      <trkpt lat="44.49169" lon="1.586">
        <ele>173</ele>
        <time>2026-03-22T08:26:49Z</time>
      </trkpt>
      <trkpt lat="44.49172" lon="1.58602">
        <ele>173.2</ele>
        <time>2026-03-22T08:26:50Z</time>
      </trkpt>
      <trkpt lat="44.49177" lon="1.58603">
        <ele>173.6</ele>
        <time>2026-03-22T08:26:51Z</time>
      </trkpt>
      <trkpt lat="44.49181" lon="1.58604">
        <ele>173.8</ele>
        <time>2026-03-22T08:26:52Z</time>
      </trkpt>
      <trkpt lat="44.49185" lon="1.58605">
        <ele>173.8</ele>
        <time>2026-03-22T08:26:53Z</time>
      </trkpt>
      <trkpt lat="44.49189" lon="1.58606">
        <ele>173.8</ele>
        <time>2026-03-22T08:26:54Z</time>
      </trkpt>
      <trkpt lat="44.49193" lon="1.58607">
        <ele>174</ele>
        <time>2026-03-22T08:26:55Z</time>
      </trkpt>
      <trkpt lat="44.49197" lon="1.58609">
        <ele>174</ele>
        <time>2026-03-22T08:26:56Z</time>
      </trkpt>
      <trkpt lat="44.492" lon="1.58611">
        <ele>174.2</ele>
        <time>2026-03-22T08:26:57Z</time>
      </trkpt>
      <trkpt lat="44.49204" lon="1.58613">
        <ele>174.2</ele>
        <time>2026-03-22T08:26:58Z</time>
      </trkpt>
      <trkpt lat="44.49207" lon="1.58616">
        <ele>174.2</ele>
        <time>2026-03-22T08:26:59Z</time>
      </trkpt>
      <trkpt lat="44.4921" lon="1.58618">
        <ele>174.4</ele>
        <time>2026-03-22T08:27:00Z</time>
      </trkpt>
      <trkpt lat="44.49213" lon="1.58621">
        <ele>174.6</ele>
        <time>2026-03-22T08:27:01Z</time>
      </trkpt>
      <trkpt lat="44.49217" lon="1.58623">
        <ele>174.6</ele>
        <time>2026-03-22T08:27:02Z</time>
      </trkpt>
      <trkpt lat="44.4922" lon="1.58625">
        <ele>174.8</ele>
        <time>2026-03-22T08:27:03Z</time>
      </trkpt>
      <trkpt lat="44.49223" lon="1.58625">
        <ele>174.8</ele>
        <time>2026-03-22T08:27:04Z</time>
      </trkpt>
      <trkpt lat="44.49226" lon="1.58625">
        <ele>174.8</ele>
        <time>2026-03-22T08:27:05Z</time>
      </trkpt>
      <trkpt lat="44.4923" lon="1.58623">
        <ele>175</ele>
        <time>2026-03-22T08:27:06Z</time>
      </trkpt>
      <trkpt lat="44.49233" lon="1.58622">
        <ele>175</ele>
        <time>2026-03-22T08:27:07Z</time>
      </trkpt>
      <trkpt lat="44.49237" lon="1.5862">
        <ele>175.2</ele>
        <time>2026-03-22T08:27:08Z</time>
      </trkpt>
      <trkpt lat="44.4924" lon="1.58618">
        <ele>175.4</ele>
        <time>2026-03-22T08:27:09Z</time>
      </trkpt>
      <trkpt lat="44.49243" lon="1.58617">
        <ele>175.6</ele>
        <time>2026-03-22T08:27:10Z</time>
      </trkpt>
      <trkpt lat="44.49248" lon="1.58615">
        <ele>175.8</ele>
        <time>2026-03-22T08:27:11Z</time>
      </trkpt>
      <trkpt lat="44.49251" lon="1.58614">
        <ele>176</ele>
        <time>2026-03-22T08:27:12Z</time>
      </trkpt>
      <trkpt lat="44.49255" lon="1.58613">
        <ele>176.2</ele>
        <time>2026-03-22T08:27:13Z</time>
      </trkpt>
      <trkpt lat="44.49258" lon="1.58613">
        <ele>176.4</ele>
        <time>2026-03-22T08:27:14Z</time>
      </trkpt>
      <trkpt lat="44.49262" lon="1.58613">
        <ele>176.4</ele>
        <time>2026-03-22T08:27:15Z</time>
      </trkpt>
      <trkpt lat="44.49267" lon="1.58613">
        <ele>176.4</ele>
        <time>2026-03-22T08:27:16Z</time>
      </trkpt>
      <trkpt lat="44.49271" lon="1.58612">
        <ele>176.6</ele>
        <time>2026-03-22T08:27:17Z</time>
      </trkpt>
      <trkpt lat="44.49275" lon="1.58612">
        <ele>176.6</ele>
        <time>2026-03-22T08:27:18Z</time>
      </trkpt>
      <trkpt lat="44.49279" lon="1.58611">
        <ele>176.8</ele>
        <time>2026-03-22T08:27:19Z</time>
      </trkpt>
      <trkpt lat="44.49283" lon="1.58611">
        <ele>176.8</ele>
        <time>2026-03-22T08:27:20Z</time>
      </trkpt>
      <trkpt lat="44.49287" lon="1.58611">
        <ele>176.8</ele>
        <time>2026-03-22T08:27:21Z</time>
      </trkpt>
      <trkpt lat="44.49291" lon="1.58612">
        <ele>176.8</ele>
        <time>2026-03-22T08:27:22Z</time>
      </trkpt>
      <trkpt lat="44.49295" lon="1.58612">
        <ele>176.8</ele>
        <time>2026-03-22T08:27:23Z</time>
      </trkpt>
      <trkpt lat="44.49299" lon="1.58612">
        <ele>177</ele>
        <time>2026-03-22T08:27:24Z</time>
      </trkpt>
      <trkpt lat="44.49303" lon="1.58613">
        <ele>177</ele>
        <time>2026-03-22T08:27:25Z</time>
      </trkpt>
      <trkpt lat="44.49306" lon="1.58614">
        <ele>177</ele>
        <time>2026-03-22T08:27:26Z</time>
      </trkpt>
      <trkpt lat="44.4931" lon="1.58615">
        <ele>177</ele>
        <time>2026-03-22T08:27:27Z</time>
      </trkpt>
      <trkpt lat="44.49313" lon="1.58615">
        <ele>177.2</ele>
        <time>2026-03-22T08:27:28Z</time>
      </trkpt>
      <trkpt lat="44.49317" lon="1.58616">
        <ele>177.2</ele>
        <time>2026-03-22T08:27:29Z</time>
      </trkpt>
      <trkpt lat="44.49321" lon="1.58616">
        <ele>177.2</ele>
        <time>2026-03-22T08:27:30Z</time>
      </trkpt>
      <trkpt lat="44.49325" lon="1.58616">
        <ele>177.2</ele>
        <time>2026-03-22T08:27:31Z</time>
      </trkpt>
      <trkpt lat="44.49329" lon="1.58616">
        <ele>177.4</ele>
        <time>2026-03-22T08:27:32Z</time>
      </trkpt>
      <trkpt lat="44.49336" lon="1.58616">
        <ele>177.4</ele>
        <time>2026-03-22T08:27:34Z</time>
      </trkpt>
      <trkpt lat="44.4934" lon="1.58616">
        <ele>177.6</ele>
        <time>2026-03-22T08:27:35Z</time>
      </trkpt>
      <trkpt lat="44.49351" lon="1.58615">
        <ele>177.8</ele>
        <time>2026-03-22T08:27:38Z</time>
      </trkpt>
      <trkpt lat="44.49359" lon="1.58615">
        <ele>178</ele>
        <time>2026-03-22T08:27:40Z</time>
      </trkpt>
      <trkpt lat="44.49391" lon="1.58612">
        <ele>178.8</ele>
        <time>2026-03-22T08:27:48Z</time>
      </trkpt>
      <trkpt lat="44.49395" lon="1.58611">
        <ele>179</ele>
        <time>2026-03-22T08:27:49Z</time>
      </trkpt>
      <trkpt lat="44.49402" lon="1.58611">
        <ele>179</ele>
        <time>2026-03-22T08:27:51Z</time>
      </trkpt>
      <trkpt lat="44.4941" lon="1.58611">
        <ele>179.2</ele>
        <time>2026-03-22T08:27:53Z</time>
      </trkpt>
      <trkpt lat="44.49413" lon="1.58611">
        <ele>179.2</ele>
        <time>2026-03-22T08:27:54Z</time>
      </trkpt>
      <trkpt lat="44.49417" lon="1.5861">
        <ele>179.2</ele>
        <time>2026-03-22T08:27:55Z</time>
      </trkpt>
      <trkpt lat="44.49445" lon="1.58605">
        <ele>179.6</ele>
        <time>2026-03-22T08:28:02Z</time>
      </trkpt>
      <trkpt lat="44.49456" lon="1.58606">
        <ele>180</ele>
        <time>2026-03-22T08:28:05Z</time>
      </trkpt>
      <trkpt lat="44.49466" lon="1.58605">
        <ele>180.2</ele>
        <time>2026-03-22T08:28:08Z</time>
      </trkpt>
      <trkpt lat="44.4947" lon="1.58604">
        <ele>180.2</ele>
        <time>2026-03-22T08:28:09Z</time>
      </trkpt>
      <trkpt lat="44.49473" lon="1.58604">
        <ele>180.4</ele>
        <time>2026-03-22T08:28:10Z</time>
      </trkpt>
      <trkpt lat="44.49477" lon="1.58603">
        <ele>180.4</ele>
        <time>2026-03-22T08:28:11Z</time>
      </trkpt>
      <trkpt lat="44.49481" lon="1.58602">
        <ele>180.6</ele>
        <time>2026-03-22T08:28:12Z</time>
      </trkpt>
      <trkpt lat="44.49484" lon="1.58602">
        <ele>180.6</ele>
        <time>2026-03-22T08:28:13Z</time>
      </trkpt>
      <trkpt lat="44.49487" lon="1.58601">
        <ele>180.8</ele>
        <time>2026-03-22T08:28:14Z</time>
      </trkpt>
      <trkpt lat="44.4949" lon="1.58601">
        <ele>181</ele>
        <time>2026-03-22T08:28:15Z</time>
      </trkpt>
      <trkpt lat="44.49494" lon="1.58599">
        <ele>181</ele>
        <time>2026-03-22T08:28:16Z</time>
      </trkpt>
      <trkpt lat="44.49506" lon="1.58594">
        <ele>181.2</ele>
        <time>2026-03-22T08:28:19Z</time>
      </trkpt>
      <trkpt lat="44.4951" lon="1.58593">
        <ele>181.4</ele>
        <time>2026-03-22T08:28:20Z</time>
      </trkpt>
      <trkpt lat="44.49515" lon="1.58592">
        <ele>181.4</ele>
        <time>2026-03-22T08:28:21Z</time>
      </trkpt>
      <trkpt lat="44.49532" lon="1.58588">
        <ele>182</ele>
        <time>2026-03-22T08:28:25Z</time>
      </trkpt>
      <trkpt lat="44.49545" lon="1.5858">
        <ele>182.4</ele>
        <time>2026-03-22T08:28:28Z</time>
      </trkpt>
      <trkpt lat="44.49553" lon="1.58578">
        <ele>182.6</ele>
        <time>2026-03-22T08:28:30Z</time>
      </trkpt>
      <trkpt lat="44.49557" lon="1.58579">
        <ele>182.8</ele>
        <time>2026-03-22T08:28:31Z</time>
      </trkpt>
      <trkpt lat="44.49561" lon="1.58578">
        <ele>183</ele>
        <time>2026-03-22T08:28:32Z</time>
      </trkpt>
      <trkpt lat="44.49565" lon="1.58577">
        <ele>183</ele>
        <time>2026-03-22T08:28:33Z</time>
      </trkpt>
      <trkpt lat="44.4957" lon="1.58576">
        <ele>183.2</ele>
        <time>2026-03-22T08:28:34Z</time>
      </trkpt>
      <trkpt lat="44.49574" lon="1.58576">
        <ele>183.4</ele>
        <time>2026-03-22T08:28:35Z</time>
      </trkpt>
      <trkpt lat="44.49579" lon="1.58574">
        <ele>183.4</ele>
        <time>2026-03-22T08:28:36Z</time>
      </trkpt>
      <trkpt lat="44.49585" lon="1.58573">
        <ele>183.4</ele>
        <time>2026-03-22T08:28:37Z</time>
      </trkpt>
      <trkpt lat="44.49589" lon="1.58572">
        <ele>183.4</ele>
        <time>2026-03-22T08:28:38Z</time>
      </trkpt>
      <trkpt lat="44.49594" lon="1.58572">
        <ele>183.8</ele>
        <time>2026-03-22T08:28:39Z</time>
      </trkpt>
      <trkpt lat="44.49598" lon="1.5857">
        <ele>184</ele>
        <time>2026-03-22T08:28:40Z</time>
      </trkpt>
      <trkpt lat="44.49603" lon="1.58569">
        <ele>184</ele>
        <time>2026-03-22T08:28:41Z</time>
      </trkpt>
      <trkpt lat="44.49608" lon="1.58566">
        <ele>184.2</ele>
        <time>2026-03-22T08:28:42Z</time>
      </trkpt>
      <trkpt lat="44.49612" lon="1.58567">
        <ele>184.2</ele>
        <time>2026-03-22T08:28:43Z</time>
      </trkpt>
      <trkpt lat="44.49615" lon="1.58567">
        <ele>184.4</ele>
        <time>2026-03-22T08:28:44Z</time>
      </trkpt>
      <trkpt lat="44.4962" lon="1.58567">
        <ele>184.4</ele>
        <time>2026-03-22T08:28:45Z</time>
      </trkpt>
      <trkpt lat="44.49623" lon="1.58566">
        <ele>184.6</ele>
        <time>2026-03-22T08:28:46Z</time>
      </trkpt>
      <trkpt lat="44.49628" lon="1.58566">
        <ele>184.6</ele>
        <time>2026-03-22T08:28:47Z</time>
      </trkpt>
      <trkpt lat="44.49632" lon="1.58566">
        <ele>184.6</ele>
        <time>2026-03-22T08:28:48Z</time>
      </trkpt>
      <trkpt lat="44.49635" lon="1.58566">
        <ele>184.8</ele>
        <time>2026-03-22T08:28:49Z</time>
      </trkpt>
      <trkpt lat="44.49639" lon="1.58566">
        <ele>184.8</ele>
        <time>2026-03-22T08:28:50Z</time>
      </trkpt>
      <trkpt lat="44.49643" lon="1.58566">
        <ele>184.8</ele>
        <time>2026-03-22T08:28:51Z</time>
      </trkpt>
      <trkpt lat="44.49646" lon="1.58566">
        <ele>185.2</ele>
        <time>2026-03-22T08:28:52Z</time>
      </trkpt>
      <trkpt lat="44.49649" lon="1.58566">
        <ele>185.4</ele>
        <time>2026-03-22T08:28:53Z</time>
      </trkpt>
      <trkpt lat="44.49653" lon="1.58566">
        <ele>185.4</ele>
        <time>2026-03-22T08:28:54Z</time>
      </trkpt>
      <trkpt lat="44.49656" lon="1.58566">
        <ele>185.6</ele>
        <time>2026-03-22T08:28:55Z</time>
      </trkpt>
      <trkpt lat="44.4966" lon="1.58566">
        <ele>185.8</ele>
        <time>2026-03-22T08:28:56Z</time>
      </trkpt>
      <trkpt lat="44.49664" lon="1.58567">
        <ele>186.2</ele>
        <time>2026-03-22T08:28:57Z</time>
      </trkpt>
      <trkpt lat="44.49667" lon="1.58567">
        <ele>186.4</ele>
        <time>2026-03-22T08:28:58Z</time>
      </trkpt>
      <trkpt lat="44.4967" lon="1.58567">
        <ele>186.6</ele>
        <time>2026-03-22T08:28:59Z</time>
      </trkpt>
      <trkpt lat="44.49674" lon="1.58566">
        <ele>186.4</ele>
        <time>2026-03-22T08:29:00Z</time>
      </trkpt>
      <trkpt lat="44.49677" lon="1.58565">
        <ele>186.4</ele>
        <time>2026-03-22T08:29:01Z</time>
      </trkpt>
      <trkpt lat="44.49681" lon="1.58565">
        <ele>186.6</ele>
        <time>2026-03-22T08:29:02Z</time>
      </trkpt>
      <trkpt lat="44.49685" lon="1.58565">
        <ele>186.8</ele>
        <time>2026-03-22T08:29:03Z</time>
      </trkpt>
      <trkpt lat="44.49689" lon="1.58564">
        <ele>187</ele>
        <time>2026-03-22T08:29:04Z</time>
      </trkpt>
      <trkpt lat="44.49693" lon="1.58564">
        <ele>187.2</ele>
        <time>2026-03-22T08:29:05Z</time>
      </trkpt>
      <trkpt lat="44.49696" lon="1.58563">
        <ele>187.4</ele>
        <time>2026-03-22T08:29:06Z</time>
      </trkpt>
      <trkpt lat="44.49698" lon="1.58563">
        <ele>187.4</ele>
        <time>2026-03-22T08:29:07Z</time>
      </trkpt>
      <trkpt lat="44.49702" lon="1.58562">
        <ele>187.6</ele>
        <time>2026-03-22T08:29:08Z</time>
      </trkpt>
      <trkpt lat="44.49706" lon="1.58561">
        <ele>187.8</ele>
        <time>2026-03-22T08:29:09Z</time>
      </trkpt>
      <trkpt lat="44.4971" lon="1.58559">
        <ele>187.8</ele>
        <time>2026-03-22T08:29:10Z</time>
      </trkpt>
      <trkpt lat="44.49713" lon="1.58558">
        <ele>187.8</ele>
        <time>2026-03-22T08:29:11Z</time>
      </trkpt>
      <trkpt lat="44.49716" lon="1.58555">
        <ele>188</ele>
        <time>2026-03-22T08:29:12Z</time>
      </trkpt>
      <trkpt lat="44.49719" lon="1.58552">
        <ele>188</ele>
        <time>2026-03-22T08:29:13Z</time>
      </trkpt>
      <trkpt lat="44.49722" lon="1.58548">
        <ele>188.2</ele>
        <time>2026-03-22T08:29:14Z</time>
      </trkpt>
      <trkpt lat="44.49726" lon="1.58544">
        <ele>188.2</ele>
        <time>2026-03-22T08:29:15Z</time>
      </trkpt>
      <trkpt lat="44.49728" lon="1.58541">
        <ele>188.2</ele>
        <time>2026-03-22T08:29:16Z</time>
      </trkpt>
      <trkpt lat="44.49732" lon="1.58536">
        <ele>188.4</ele>
        <time>2026-03-22T08:29:17Z</time>
      </trkpt>
      <trkpt lat="44.49735" lon="1.58532">
        <ele>188.4</ele>
        <time>2026-03-22T08:29:18Z</time>
      </trkpt>
      <trkpt lat="44.49739" lon="1.58529">
        <ele>188.6</ele>
        <time>2026-03-22T08:29:19Z</time>
      </trkpt>
      <trkpt lat="44.49742" lon="1.58525">
        <ele>188.6</ele>
        <time>2026-03-22T08:29:20Z</time>
      </trkpt>
      <trkpt lat="44.49746" lon="1.58523">
        <ele>188.6</ele>
        <time>2026-03-22T08:29:21Z</time>
      </trkpt>
      <trkpt lat="44.49751" lon="1.5852">
        <ele>188.8</ele>
        <time>2026-03-22T08:29:22Z</time>
      </trkpt>
      <trkpt lat="44.49754" lon="1.58519">
        <ele>189</ele>
        <time>2026-03-22T08:29:23Z</time>
      </trkpt>
      <trkpt lat="44.49757" lon="1.58519">
        <ele>189.2</ele>
        <time>2026-03-22T08:29:24Z</time>
      </trkpt>
      <trkpt lat="44.49761" lon="1.58519">
        <ele>189.2</ele>
        <time>2026-03-22T08:29:25Z</time>
      </trkpt>
      <trkpt lat="44.49765" lon="1.58519">
        <ele>189.4</ele>
        <time>2026-03-22T08:29:26Z</time>
      </trkpt>
      <trkpt lat="44.49769" lon="1.58517">
        <ele>189.4</ele>
        <time>2026-03-22T08:29:27Z</time>
      </trkpt>
      <trkpt lat="44.49772" lon="1.58514">
        <ele>189.6</ele>
        <time>2026-03-22T08:29:28Z</time>
      </trkpt>
      <trkpt lat="44.49776" lon="1.58511">
        <ele>189.6</ele>
        <time>2026-03-22T08:29:29Z</time>
      </trkpt>
      <trkpt lat="44.49781" lon="1.58508">
        <ele>189.6</ele>
        <time>2026-03-22T08:29:30Z</time>
      </trkpt>
      <trkpt lat="44.49785" lon="1.58507">
        <ele>189.8</ele>
        <time>2026-03-22T08:29:31Z</time>
      </trkpt>
      <trkpt lat="44.49788" lon="1.58505">
        <ele>190.2</ele>
        <time>2026-03-22T08:29:32Z</time>
      </trkpt>
      <trkpt lat="44.49792" lon="1.58504">
        <ele>190.2</ele>
        <time>2026-03-22T08:29:33Z</time>
      </trkpt>
      <trkpt lat="44.49796" lon="1.58503">
        <ele>190.6</ele>
        <time>2026-03-22T08:29:34Z</time>
      </trkpt>
      <trkpt lat="44.498" lon="1.58502">
        <ele>190.6</ele>
        <time>2026-03-22T08:29:35Z</time>
      </trkpt>
      <trkpt lat="44.49803" lon="1.58502">
        <ele>190.8</ele>
        <time>2026-03-22T08:29:36Z</time>
      </trkpt>
      <trkpt lat="44.49806" lon="1.58501">
        <ele>190.8</ele>
        <time>2026-03-22T08:29:37Z</time>
      </trkpt>
      <trkpt lat="44.4981" lon="1.58501">
        <ele>190.8</ele>
        <time>2026-03-22T08:29:38Z</time>
      </trkpt>
      <trkpt lat="44.49812" lon="1.585">
        <ele>191</ele>
        <time>2026-03-22T08:29:39Z</time>
      </trkpt>
      <trkpt lat="44.49816" lon="1.58498">
        <ele>191.2</ele>
        <time>2026-03-22T08:29:40Z</time>
      </trkpt>
      <trkpt lat="44.49819" lon="1.58495">
        <ele>191.2</ele>
        <time>2026-03-22T08:29:41Z</time>
      </trkpt>
      <trkpt lat="44.49822" lon="1.58494">
        <ele>191.2</ele>
        <time>2026-03-22T08:29:42Z</time>
      </trkpt>
      <trkpt lat="44.49825" lon="1.58494">
        <ele>191.4</ele>
        <time>2026-03-22T08:29:43Z</time>
      </trkpt>
      <trkpt lat="44.49829" lon="1.58494">
        <ele>191.6</ele>
        <time>2026-03-22T08:29:44Z</time>
      </trkpt>
      <trkpt lat="44.49833" lon="1.58494">
        <ele>191.8</ele>
        <time>2026-03-22T08:29:45Z</time>
      </trkpt>
      <trkpt lat="44.49836" lon="1.58494">
        <ele>192</ele>
        <time>2026-03-22T08:29:46Z</time>
      </trkpt>
      <trkpt lat="44.4984" lon="1.58493">
        <ele>192.2</ele>
        <time>2026-03-22T08:29:47Z</time>
      </trkpt>
      <trkpt lat="44.49844" lon="1.58493">
        <ele>192.2</ele>
        <time>2026-03-22T08:29:48Z</time>
      </trkpt>
      <trkpt lat="44.49848" lon="1.5849">
        <ele>192.4</ele>
        <time>2026-03-22T08:29:49Z</time>
      </trkpt>
      <trkpt lat="44.49852" lon="1.58488">
        <ele>192.4</ele>
        <time>2026-03-22T08:29:50Z</time>
      </trkpt>
      <trkpt lat="44.49855" lon="1.58486">
        <ele>192.6</ele>
        <time>2026-03-22T08:29:51Z</time>
      </trkpt>
      <trkpt lat="44.49859" lon="1.58484">
        <ele>192.6</ele>
        <time>2026-03-22T08:29:52Z</time>
      </trkpt>
      <trkpt lat="44.49861" lon="1.58482">
        <ele>192.8</ele>
        <time>2026-03-22T08:29:53Z</time>
      </trkpt>
      <trkpt lat="44.49865" lon="1.58479">
        <ele>193</ele>
        <time>2026-03-22T08:29:54Z</time>
      </trkpt>
      <trkpt lat="44.4987" lon="1.58478">
        <ele>193</ele>
        <time>2026-03-22T08:29:55Z</time>
      </trkpt>
      <trkpt lat="44.49872" lon="1.58477">
        <ele>193.2</ele>
        <time>2026-03-22T08:29:56Z</time>
      </trkpt>
      <trkpt lat="44.49875" lon="1.58476">
        <ele>193.2</ele>
        <time>2026-03-22T08:29:57Z</time>
      </trkpt>
      <trkpt lat="44.49879" lon="1.58476">
        <ele>193.4</ele>
        <time>2026-03-22T08:29:58Z</time>
      </trkpt>
      <trkpt lat="44.49884" lon="1.58476">
        <ele>193.6</ele>
        <time>2026-03-22T08:29:59Z</time>
      </trkpt>
      <trkpt lat="44.49888" lon="1.58476">
        <ele>193.6</ele>
        <time>2026-03-22T08:30:00Z</time>
      </trkpt>
      <trkpt lat="44.49891" lon="1.58475">
        <ele>194</ele>
        <time>2026-03-22T08:30:01Z</time>
      </trkpt>
      <trkpt lat="44.49894" lon="1.58474">
        <ele>194.2</ele>
        <time>2026-03-22T08:30:02Z</time>
      </trkpt>
      <trkpt lat="44.49897" lon="1.58474">
        <ele>194.2</ele>
        <time>2026-03-22T08:30:03Z</time>
      </trkpt>
      <trkpt lat="44.49902" lon="1.58472">
        <ele>194.4</ele>
        <time>2026-03-22T08:30:04Z</time>
      </trkpt>
      <trkpt lat="44.49905" lon="1.58471">
        <ele>194.6</ele>
        <time>2026-03-22T08:30:05Z</time>
      </trkpt>
      <trkpt lat="44.49909" lon="1.5847">
        <ele>194.6</ele>
        <time>2026-03-22T08:30:06Z</time>
      </trkpt>
      <trkpt lat="44.49913" lon="1.58468">
        <ele>194.6</ele>
        <time>2026-03-22T08:30:07Z</time>
      </trkpt>
      <trkpt lat="44.49916" lon="1.58466">
        <ele>194.6</ele>
        <time>2026-03-22T08:30:08Z</time>
      </trkpt>
      <trkpt lat="44.4992" lon="1.58464">
        <ele>194.6</ele>
        <time>2026-03-22T08:30:09Z</time>
      </trkpt>
      <trkpt lat="44.49923" lon="1.58463">
        <ele>194.8</ele>
        <time>2026-03-22T08:30:10Z</time>
      </trkpt>
      <trkpt lat="44.49927" lon="1.58463">
        <ele>194.8</ele>
        <time>2026-03-22T08:30:11Z</time>
      </trkpt>
      <trkpt lat="44.49931" lon="1.58461">
        <ele>194.8</ele>
        <time>2026-03-22T08:30:12Z</time>
      </trkpt>
      <trkpt lat="44.49934" lon="1.58459">
        <ele>195</ele>
        <time>2026-03-22T08:30:13Z</time>
      </trkpt>
      <trkpt lat="44.49939" lon="1.58456">
        <ele>195</ele>
        <time>2026-03-22T08:30:14Z</time>
      </trkpt>
      <trkpt lat="44.49942" lon="1.58453">
        <ele>195.2</ele>
        <time>2026-03-22T08:30:15Z</time>
      </trkpt>
      <trkpt lat="44.49946" lon="1.58449">
        <ele>195.2</ele>
        <time>2026-03-22T08:30:16Z</time>
      </trkpt>
      <trkpt lat="44.4995" lon="1.58444">
        <ele>195.2</ele>
        <time>2026-03-22T08:30:17Z</time>
      </trkpt>
      <trkpt lat="44.49954" lon="1.5844">
        <ele>195.4</ele>
        <time>2026-03-22T08:30:18Z</time>
      </trkpt>
      <trkpt lat="44.49959" lon="1.58435">
        <ele>195.4</ele>
        <time>2026-03-22T08:30:19Z</time>
      </trkpt>
      <trkpt lat="44.49961" lon="1.58431">
        <ele>195.8</ele>
        <time>2026-03-22T08:30:20Z</time>
      </trkpt>
      <trkpt lat="44.49964" lon="1.58427">
        <ele>196.2</ele>
        <time>2026-03-22T08:30:21Z</time>
      </trkpt>
      <trkpt lat="44.49969" lon="1.58423">
        <ele>196.2</ele>
        <time>2026-03-22T08:30:22Z</time>
      </trkpt>
      <trkpt lat="44.49972" lon="1.58421">
        <ele>196.4</ele>
        <time>2026-03-22T08:30:23Z</time>
      </trkpt>
      <trkpt lat="44.49975" lon="1.58419">
        <ele>196.6</ele>
        <time>2026-03-22T08:30:24Z</time>
      </trkpt>
      <trkpt lat="44.49979" lon="1.58418">
        <ele>196.6</ele>
        <time>2026-03-22T08:30:25Z</time>
      </trkpt>
      <trkpt lat="44.49983" lon="1.58418">
        <ele>196.6</ele>
        <time>2026-03-22T08:30:26Z</time>
      </trkpt>
      <trkpt lat="44.49986" lon="1.58418">
        <ele>196.8</ele>
        <time>2026-03-22T08:30:27Z</time>
      </trkpt>
      <trkpt lat="44.49991" lon="1.58419">
        <ele>197.2</ele>
        <time>2026-03-22T08:30:28Z</time>
      </trkpt>
      <trkpt lat="44.49994" lon="1.58421">
        <ele>197.4</ele>
        <time>2026-03-22T08:30:29Z</time>
      </trkpt>
      <trkpt lat="44.49997" lon="1.58422">
        <ele>197.6</ele>
        <time>2026-03-22T08:30:30Z</time>
      </trkpt>
      <trkpt lat="44.50001" lon="1.58424">
        <ele>198</ele>
        <time>2026-03-22T08:30:31Z</time>
      </trkpt>
      <trkpt lat="44.50003" lon="1.58426">
        <ele>198.2</ele>
        <time>2026-03-22T08:30:32Z</time>
      </trkpt>
      <trkpt lat="44.50007" lon="1.58427">
        <ele>198.4</ele>
        <time>2026-03-22T08:30:33Z</time>
      </trkpt>
      <trkpt lat="44.50011" lon="1.58428">
        <ele>198.6</ele>
        <time>2026-03-22T08:30:34Z</time>
      </trkpt>
      <trkpt lat="44.50015" lon="1.5843">
        <ele>198.8</ele>
        <time>2026-03-22T08:30:35Z</time>
      </trkpt>
      <trkpt lat="44.5002" lon="1.58431">
        <ele>199</ele>
        <time>2026-03-22T08:30:36Z</time>
      </trkpt>
      <trkpt lat="44.50024" lon="1.58433">
        <ele>199.2</ele>
        <time>2026-03-22T08:30:37Z</time>
      </trkpt>
      <trkpt lat="44.50028" lon="1.58435">
        <ele>199.2</ele>
        <time>2026-03-22T08:30:38Z</time>
      </trkpt>
      <trkpt lat="44.50032" lon="1.58436">
        <ele>199.4</ele>
        <time>2026-03-22T08:30:39Z</time>
      </trkpt>
      <trkpt lat="44.50036" lon="1.58438">
        <ele>199.6</ele>
        <time>2026-03-22T08:30:40Z</time>
      </trkpt>
      <trkpt lat="44.5004" lon="1.5844">
        <ele>199.8</ele>
        <time>2026-03-22T08:30:41Z</time>
      </trkpt>
      <trkpt lat="44.50044" lon="1.58441">
        <ele>199.8</ele>
        <time>2026-03-22T08:30:42Z</time>
      </trkpt>
      <trkpt lat="44.50049" lon="1.58443">
        <ele>199.8</ele>
        <time>2026-03-22T08:30:43Z</time>
      </trkpt>
      <trkpt lat="44.50053" lon="1.58444">
        <ele>200</ele>
        <time>2026-03-22T08:30:44Z</time>
      </trkpt>
      <trkpt lat="44.50058" lon="1.58445">
        <ele>200</ele>
        <time>2026-03-22T08:30:45Z</time>
      </trkpt>
      <trkpt lat="44.50062" lon="1.58446">
        <ele>200</ele>
        <time>2026-03-22T08:30:46Z</time>
      </trkpt>
      <trkpt lat="44.50066" lon="1.58448">
        <ele>200.2</ele>
        <time>2026-03-22T08:30:47Z</time>
      </trkpt>
      <trkpt lat="44.5007" lon="1.5845">
        <ele>200.2</ele>
        <time>2026-03-22T08:30:48Z</time>
      </trkpt>
      <trkpt lat="44.50074" lon="1.58451">
        <ele>200.2</ele>
        <time>2026-03-22T08:30:49Z</time>
      </trkpt>
      <trkpt lat="44.50078" lon="1.58453">
        <ele>200.4</ele>
        <time>2026-03-22T08:30:50Z</time>
      </trkpt>
      <trkpt lat="44.50082" lon="1.58454">
        <ele>200.6</ele>
        <time>2026-03-22T08:30:51Z</time>
      </trkpt>
      <trkpt lat="44.50086" lon="1.58456">
        <ele>200.8</ele>
        <time>2026-03-22T08:30:52Z</time>
      </trkpt>
      <trkpt lat="44.50091" lon="1.58457">
        <ele>201</ele>
        <time>2026-03-22T08:30:53Z</time>
      </trkpt>
      <trkpt lat="44.50095" lon="1.58458">
        <ele>201</ele>
        <time>2026-03-22T08:30:54Z</time>
      </trkpt>
      <trkpt lat="44.50099" lon="1.58459">
        <ele>201.2</ele>
        <time>2026-03-22T08:30:55Z</time>
      </trkpt>
      <trkpt lat="44.50103" lon="1.58459">
        <ele>201.4</ele>
        <time>2026-03-22T08:30:56Z</time>
      </trkpt>
      <trkpt lat="44.50109" lon="1.5846">
        <ele>201.4</ele>
        <time>2026-03-22T08:30:57Z</time>
      </trkpt>
      <trkpt lat="44.50112" lon="1.58461">
        <ele>201.4</ele>
        <time>2026-03-22T08:30:58Z</time>
      </trkpt>
      <trkpt lat="44.50116" lon="1.58463">
        <ele>201.6</ele>
        <time>2026-03-22T08:30:59Z</time>
      </trkpt>
      <trkpt lat="44.50121" lon="1.58465">
        <ele>201.6</ele>
        <time>2026-03-22T08:31:00Z</time>
      </trkpt>
      <trkpt lat="44.50124" lon="1.58468">
        <ele>201.8</ele>
        <time>2026-03-22T08:31:01Z</time>
      </trkpt>
      <trkpt lat="44.50129" lon="1.58469">
        <ele>201.8</ele>
        <time>2026-03-22T08:31:02Z</time>
      </trkpt>
      <trkpt lat="44.50133" lon="1.5847">
        <ele>202</ele>
        <time>2026-03-22T08:31:03Z</time>
      </trkpt>
      <trkpt lat="44.50136" lon="1.58471">
        <ele>202</ele>
        <time>2026-03-22T08:31:04Z</time>
      </trkpt>
      <trkpt lat="44.5014" lon="1.58472">
        <ele>202.2</ele>
        <time>2026-03-22T08:31:05Z</time>
      </trkpt>
      <trkpt lat="44.50145" lon="1.58472">
        <ele>202.4</ele>
        <time>2026-03-22T08:31:06Z</time>
      </trkpt>
      <trkpt lat="44.5015" lon="1.58473">
        <ele>202.8</ele>
        <time>2026-03-22T08:31:07Z</time>
      </trkpt>
      <trkpt lat="44.50154" lon="1.58472">
        <ele>203</ele>
        <time>2026-03-22T08:31:08Z</time>
      </trkpt>
      <trkpt lat="44.50159" lon="1.58472">
        <ele>203.2</ele>
        <time>2026-03-22T08:31:09Z</time>
      </trkpt>
      <trkpt lat="44.50163" lon="1.58472">
        <ele>203.2</ele>
        <time>2026-03-22T08:31:10Z</time>
      </trkpt>
      <trkpt lat="44.50167" lon="1.58472">
        <ele>203.2</ele>
        <time>2026-03-22T08:31:11Z</time>
      </trkpt>
      <trkpt lat="44.50171" lon="1.58472">
        <ele>203.4</ele>
        <time>2026-03-22T08:31:12Z</time>
      </trkpt>
      <trkpt lat="44.50175" lon="1.58472">
        <ele>203.4</ele>
        <time>2026-03-22T08:31:13Z</time>
      </trkpt>
      <trkpt lat="44.50179" lon="1.58473">
        <ele>203.6</ele>
        <time>2026-03-22T08:31:14Z</time>
      </trkpt>
      <trkpt lat="44.50183" lon="1.58474">
        <ele>203.8</ele>
        <time>2026-03-22T08:31:15Z</time>
      </trkpt>
      <trkpt lat="44.50186" lon="1.58476">
        <ele>204</ele>
        <time>2026-03-22T08:31:16Z</time>
      </trkpt>
      <trkpt lat="44.5019" lon="1.58478">
        <ele>204.2</ele>
        <time>2026-03-22T08:31:17Z</time>
      </trkpt>
      <trkpt lat="44.50194" lon="1.5848">
        <ele>204.2</ele>
        <time>2026-03-22T08:31:18Z</time>
      </trkpt>
      <trkpt lat="44.50198" lon="1.58483">
        <ele>204.4</ele>
        <time>2026-03-22T08:31:19Z</time>
      </trkpt>
      <trkpt lat="44.50201" lon="1.58487">
        <ele>204.8</ele>
        <time>2026-03-22T08:31:20Z</time>
      </trkpt>
      <trkpt lat="44.50205" lon="1.58491">
        <ele>205.2</ele>
        <time>2026-03-22T08:31:21Z</time>
      </trkpt>
      <trkpt lat="44.50207" lon="1.58496">
        <ele>205.4</ele>
        <time>2026-03-22T08:31:22Z</time>
      </trkpt>
      <trkpt lat="44.50209" lon="1.58499">
        <ele>205.8</ele>
        <time>2026-03-22T08:31:23Z</time>
      </trkpt>
      <trkpt lat="44.50212" lon="1.58504">
        <ele>206</ele>
        <time>2026-03-22T08:31:24Z</time>
      </trkpt>
      <trkpt lat="44.50215" lon="1.58508">
        <ele>206</ele>
        <time>2026-03-22T08:31:25Z</time>
      </trkpt>
      <trkpt lat="44.50217" lon="1.58512">
        <ele>206.2</ele>
        <time>2026-03-22T08:31:26Z</time>
      </trkpt>
      <trkpt lat="44.5022" lon="1.58516">
        <ele>206.2</ele>
        <time>2026-03-22T08:31:27Z</time>
      </trkpt>
      <trkpt lat="44.50222" lon="1.5852">
        <ele>206.4</ele>
        <time>2026-03-22T08:31:28Z</time>
      </trkpt>
      <trkpt lat="44.50223" lon="1.58525">
        <ele>206.6</ele>
        <time>2026-03-22T08:31:29Z</time>
      </trkpt>
      <trkpt lat="44.50224" lon="1.58529">
        <ele>206.6</ele>
        <time>2026-03-22T08:31:30Z</time>
      </trkpt>
      <trkpt lat="44.50225" lon="1.58534">
        <ele>206.6</ele>
        <time>2026-03-22T08:31:31Z</time>
      </trkpt>
      <trkpt lat="44.50226" lon="1.58538">
        <ele>206.8</ele>
        <time>2026-03-22T08:31:32Z</time>
      </trkpt>
      <trkpt lat="44.50227" lon="1.58542">
        <ele>207.4</ele>
        <time>2026-03-22T08:31:33Z</time>
      </trkpt>
      <trkpt lat="44.50229" lon="1.58545">
        <ele>207.6</ele>
        <time>2026-03-22T08:31:34Z</time>
      </trkpt>
      <trkpt lat="44.50231" lon="1.58548">
        <ele>207.8</ele>
        <time>2026-03-22T08:31:35Z</time>
      </trkpt>
      <trkpt lat="44.50232" lon="1.58551">
        <ele>208.2</ele>
        <time>2026-03-22T08:31:36Z</time>
      </trkpt>
      <trkpt lat="44.50234" lon="1.58554">
        <ele>208.4</ele>
        <time>2026-03-22T08:31:37Z</time>
      </trkpt>
      <trkpt lat="44.50235" lon="1.58555">
        <ele>209</ele>
        <time>2026-03-22T08:31:38Z</time>
      </trkpt>
      <trkpt lat="44.50236" lon="1.58558">
        <ele>209.4</ele>
        <time>2026-03-22T08:31:39Z</time>
      </trkpt>
      <trkpt lat="44.50238" lon="1.58561">
        <ele>209.8</ele>
        <time>2026-03-22T08:31:40Z</time>
      </trkpt>
      <trkpt lat="44.5024" lon="1.58564">
        <ele>210.2</ele>
        <time>2026-03-22T08:31:41Z</time>
      </trkpt>
      <trkpt lat="44.50243" lon="1.58566">
        <ele>210.6</ele>
        <time>2026-03-22T08:31:42Z</time>
      </trkpt>
      <trkpt lat="44.50245" lon="1.58568">
        <ele>211</ele>
        <time>2026-03-22T08:31:43Z</time>
      </trkpt>
      <trkpt lat="44.50248" lon="1.5857">
        <ele>211.2</ele>
        <time>2026-03-22T08:31:44Z</time>
      </trkpt>
      <trkpt lat="44.50251" lon="1.58572">
        <ele>211.4</ele>
        <time>2026-03-22T08:31:45Z</time>
      </trkpt>
      <trkpt lat="44.50253" lon="1.58574">
        <ele>211.8</ele>
        <time>2026-03-22T08:31:46Z</time>
      </trkpt>
      <trkpt lat="44.50255" lon="1.58576">
        <ele>212.2</ele>
        <time>2026-03-22T08:31:47Z</time>
      </trkpt>
      <trkpt lat="44.50258" lon="1.58577">
        <ele>212.2</ele>
        <time>2026-03-22T08:31:48Z</time>
      </trkpt>
      <trkpt lat="44.50261" lon="1.58578">
        <ele>212.4</ele>
        <time>2026-03-22T08:31:49Z</time>
      </trkpt>
      <trkpt lat="44.50264" lon="1.58579">
        <ele>212.4</ele>
        <time>2026-03-22T08:31:50Z</time>
      </trkpt>
      <trkpt lat="44.50267" lon="1.5858">
        <ele>212.6</ele>
        <time>2026-03-22T08:31:51Z</time>
      </trkpt>
      <trkpt lat="44.50271" lon="1.58582">
        <ele>212.6</ele>
        <time>2026-03-22T08:31:52Z</time>
      </trkpt>
      <trkpt lat="44.50274" lon="1.58583">
        <ele>212.8</ele>
        <time>2026-03-22T08:31:53Z</time>
      </trkpt>
      <trkpt lat="44.50277" lon="1.58585">
        <ele>213</ele>
        <time>2026-03-22T08:31:54Z</time>
      </trkpt>
      <trkpt lat="44.50281" lon="1.58586">
        <ele>213.2</ele>
        <time>2026-03-22T08:31:55Z</time>
      </trkpt>
      <trkpt lat="44.50283" lon="1.58587">
        <ele>213.4</ele>
        <time>2026-03-22T08:31:56Z</time>
      </trkpt>
      <trkpt lat="44.50286" lon="1.58588">
        <ele>213.6</ele>
        <time>2026-03-22T08:31:57Z</time>
      </trkpt>
      <trkpt lat="44.5029" lon="1.5859">
        <ele>213.8</ele>
        <time>2026-03-22T08:31:58Z</time>
      </trkpt>
      <trkpt lat="44.50292" lon="1.58591">
        <ele>214.2</ele>
        <time>2026-03-22T08:31:59Z</time>
      </trkpt>
      <trkpt lat="44.50296" lon="1.58593">
        <ele>214.4</ele>
        <time>2026-03-22T08:32:00Z</time>
      </trkpt>
      <trkpt lat="44.50299" lon="1.58595">
        <ele>214.6</ele>
        <time>2026-03-22T08:32:01Z</time>
      </trkpt>
      <trkpt lat="44.50302" lon="1.58596">
        <ele>214.6</ele>
        <time>2026-03-22T08:32:02Z</time>
      </trkpt>
      <trkpt lat="44.50306" lon="1.58598">
        <ele>214.8</ele>
        <time>2026-03-22T08:32:03Z</time>
      </trkpt>
      <trkpt lat="44.50308" lon="1.586">
        <ele>215.2</ele>
        <time>2026-03-22T08:32:04Z</time>
      </trkpt>
      <trkpt lat="44.50312" lon="1.58602">
        <ele>215.2</ele>
        <time>2026-03-22T08:32:05Z</time>
      </trkpt>
      <trkpt lat="44.50315" lon="1.58604">
        <ele>215.4</ele>
        <time>2026-03-22T08:32:06Z</time>
      </trkpt>
      <trkpt lat="44.50318" lon="1.58605">
        <ele>215.6</ele>
        <time>2026-03-22T08:32:07Z</time>
      </trkpt>
      <trkpt lat="44.50321" lon="1.58607">
        <ele>215.6</ele>
        <time>2026-03-22T08:32:08Z</time>
      </trkpt>
      <trkpt lat="44.50324" lon="1.58609">
        <ele>215.8</ele>
        <time>2026-03-22T08:32:09Z</time>
      </trkpt>
      <trkpt lat="44.50328" lon="1.58611">
        <ele>216</ele>
        <time>2026-03-22T08:32:10Z</time>
      </trkpt>
      <trkpt lat="44.50331" lon="1.58613">
        <ele>216.2</ele>
        <time>2026-03-22T08:32:11Z</time>
      </trkpt>
      <trkpt lat="44.50334" lon="1.58615">
        <ele>216.4</ele>
        <time>2026-03-22T08:32:12Z</time>
      </trkpt>
      <trkpt lat="44.50337" lon="1.58617">
        <ele>216.6</ele>
        <time>2026-03-22T08:32:13Z</time>
      </trkpt>
      <trkpt lat="44.5034" lon="1.58619">
        <ele>216.6</ele>
        <time>2026-03-22T08:32:14Z</time>
      </trkpt>
      <trkpt lat="44.50344" lon="1.58621">
        <ele>217</ele>
        <time>2026-03-22T08:32:15Z</time>
      </trkpt>
      <trkpt lat="44.50348" lon="1.58624">
        <ele>217</ele>
        <time>2026-03-22T08:32:16Z</time>
      </trkpt>
      <trkpt lat="44.50351" lon="1.58627">
        <ele>217.2</ele>
        <time>2026-03-22T08:32:17Z</time>
      </trkpt>
      <trkpt lat="44.50354" lon="1.58631">
        <ele>217.4</ele>
        <time>2026-03-22T08:32:18Z</time>
      </trkpt>
      <trkpt lat="44.50356" lon="1.58635">
        <ele>217.6</ele>
        <time>2026-03-22T08:32:19Z</time>
      </trkpt>
      <trkpt lat="44.50357" lon="1.58638">
        <ele>217.8</ele>
        <time>2026-03-22T08:32:20Z</time>
      </trkpt>
      <trkpt lat="44.50359" lon="1.58643">
        <ele>218</ele>
        <time>2026-03-22T08:32:21Z</time>
      </trkpt>
      <trkpt lat="44.50361" lon="1.58647">
        <ele>218</ele>
        <time>2026-03-22T08:32:22Z</time>
      </trkpt>
      <trkpt lat="44.50362" lon="1.58652">
        <ele>218.2</ele>
        <time>2026-03-22T08:32:23Z</time>
      </trkpt>
      <trkpt lat="44.50364" lon="1.58656">
        <ele>218.4</ele>
        <time>2026-03-22T08:32:24Z</time>
      </trkpt>
      <trkpt lat="44.50365" lon="1.5866">
        <ele>218.4</ele>
        <time>2026-03-22T08:32:25Z</time>
      </trkpt>
      <trkpt lat="44.50366" lon="1.58664">
        <ele>218.8</ele>
        <time>2026-03-22T08:32:26Z</time>
      </trkpt>
      <trkpt lat="44.50366" lon="1.58669">
        <ele>219</ele>
        <time>2026-03-22T08:32:27Z</time>
      </trkpt>
      <trkpt lat="44.50367" lon="1.58673">
        <ele>219.2</ele>
        <time>2026-03-22T08:32:28Z</time>
      </trkpt>
      <trkpt lat="44.50368" lon="1.58678">
        <ele>219.4</ele>
        <time>2026-03-22T08:32:29Z</time>
      </trkpt>
      <trkpt lat="44.50368" lon="1.58681">
        <ele>219.8</ele>
        <time>2026-03-22T08:32:30Z</time>
      </trkpt>
      <trkpt lat="44.50367" lon="1.58685">
        <ele>220.2</ele>
        <time>2026-03-22T08:32:31Z</time>
      </trkpt>
      <trkpt lat="44.50366" lon="1.58689">
        <ele>220.6</ele>
        <time>2026-03-22T08:32:32Z</time>
      </trkpt>
      <trkpt lat="44.50364" lon="1.58692">
        <ele>220.8</ele>
        <time>2026-03-22T08:32:33Z</time>
      </trkpt>
      <trkpt lat="44.50362" lon="1.58696">
        <ele>221.4</ele>
        <time>2026-03-22T08:32:34Z</time>
      </trkpt>
      <trkpt lat="44.50361" lon="1.58699">
        <ele>221.6</ele>
        <time>2026-03-22T08:32:35Z</time>
      </trkpt>
      <trkpt lat="44.50359" lon="1.58703">
        <ele>222.2</ele>
        <time>2026-03-22T08:32:36Z</time>
      </trkpt>
      <trkpt lat="44.50359" lon="1.58708">
        <ele>222.4</ele>
        <time>2026-03-22T08:32:37Z</time>
      </trkpt>
      <trkpt lat="44.50358" lon="1.58712">
        <ele>222.6</ele>
        <time>2026-03-22T08:32:38Z</time>
      </trkpt>
      <trkpt lat="44.50358" lon="1.58716">
        <ele>222.8</ele>
        <time>2026-03-22T08:32:39Z</time>
      </trkpt>
      <trkpt lat="44.50358" lon="1.5872">
        <ele>222.8</ele>
        <time>2026-03-22T08:32:40Z</time>
      </trkpt>
      <trkpt lat="44.50358" lon="1.58724">
        <ele>223</ele>
        <time>2026-03-22T08:32:41Z</time>
      </trkpt>
      <trkpt lat="44.50358" lon="1.58727">
        <ele>223.2</ele>
        <time>2026-03-22T08:32:42Z</time>
      </trkpt>
      <trkpt lat="44.50358" lon="1.58731">
        <ele>223.6</ele>
        <time>2026-03-22T08:32:43Z</time>
      </trkpt>
      <trkpt lat="44.50358" lon="1.58735">
        <ele>224</ele>
        <time>2026-03-22T08:32:44Z</time>
      </trkpt>
      <trkpt lat="44.50358" lon="1.58738">
        <ele>224.4</ele>
        <time>2026-03-22T08:32:45Z</time>
      </trkpt>
      <trkpt lat="44.50357" lon="1.58741">
        <ele>224.8</ele>
        <time>2026-03-22T08:32:46Z</time>
      </trkpt>
      <trkpt lat="44.50356" lon="1.58745">
        <ele>225.2</ele>
        <time>2026-03-22T08:32:47Z</time>
      </trkpt>
      <trkpt lat="44.50356" lon="1.58747">
        <ele>225.8</ele>
        <time>2026-03-22T08:32:48Z</time>
      </trkpt>
      <trkpt lat="44.50354" lon="1.5875">
        <ele>226.2</ele>
        <time>2026-03-22T08:32:49Z</time>
      </trkpt>
      <trkpt lat="44.50354" lon="1.58753">
        <ele>226.6</ele>
        <time>2026-03-22T08:32:50Z</time>
      </trkpt>
      <trkpt lat="44.50354" lon="1.58755">
        <ele>226.6</ele>
        <time>2026-03-22T08:32:51Z</time>
      </trkpt>
      <trkpt lat="44.50354" lon="1.58758">
        <ele>227</ele>
        <time>2026-03-22T08:32:52Z</time>
      </trkpt>
      <trkpt lat="44.50354" lon="1.58762">
        <ele>227.4</ele>
        <time>2026-03-22T08:32:53Z</time>
      </trkpt>
      <trkpt lat="44.50354" lon="1.58766">
        <ele>227.8</ele>
        <time>2026-03-22T08:32:54Z</time>
      </trkpt>
      <trkpt lat="44.50354" lon="1.58769">
        <ele>228.4</ele>
        <time>2026-03-22T08:32:55Z</time>
      </trkpt>
      <trkpt lat="44.50355" lon="1.58773">
        <ele>228.6</ele>
        <time>2026-03-22T08:32:56Z</time>
      </trkpt>
      <trkpt lat="44.50356" lon="1.58777">
        <ele>229</ele>
        <time>2026-03-22T08:32:57Z</time>
      </trkpt>
      <trkpt lat="44.50357" lon="1.5878">
        <ele>229.8</ele>
        <time>2026-03-22T08:32:58Z</time>
      </trkpt>
      <trkpt lat="44.50358" lon="1.58783">
        <ele>230.2</ele>
        <time>2026-03-22T08:32:59Z</time>
      </trkpt>
      <trkpt lat="44.50359" lon="1.58786">
        <ele>230.6</ele>
        <time>2026-03-22T08:33:00Z</time>
      </trkpt>
      <trkpt lat="44.5036" lon="1.5879">
        <ele>231</ele>
        <time>2026-03-22T08:33:01Z</time>
      </trkpt>
      <trkpt lat="44.5036" lon="1.58793">
        <ele>231.4</ele>
        <time>2026-03-22T08:33:02Z</time>
      </trkpt>
      <trkpt lat="44.50362" lon="1.58798">
        <ele>231.8</ele>
        <time>2026-03-22T08:33:03Z</time>
      </trkpt>
      <trkpt lat="44.50362" lon="1.58801">
        <ele>232.2</ele>
        <time>2026-03-22T08:33:04Z</time>
      </trkpt>
      <trkpt lat="44.50363" lon="1.58805">
        <ele>232.6</ele>
        <time>2026-03-22T08:33:05Z</time>
      </trkpt>
      <trkpt lat="44.50364" lon="1.58809">
        <ele>233</ele>
        <time>2026-03-22T08:33:06Z</time>
      </trkpt>
      <trkpt lat="44.50365" lon="1.58813">
        <ele>233.4</ele>
        <time>2026-03-22T08:33:07Z</time>
      </trkpt>
      <trkpt lat="44.50366" lon="1.58816">
        <ele>234</ele>
        <time>2026-03-22T08:33:08Z</time>
      </trkpt>
      <trkpt lat="44.50367" lon="1.5882">
        <ele>234.4</ele>
        <time>2026-03-22T08:33:09Z</time>
      </trkpt>
      <trkpt lat="44.50369" lon="1.58824">
        <ele>234.8</ele>
        <time>2026-03-22T08:33:10Z</time>
      </trkpt>
      <trkpt lat="44.50371" lon="1.58828">
        <ele>235.4</ele>
        <time>2026-03-22T08:33:11Z</time>
      </trkpt>
      <trkpt lat="44.50373" lon="1.58831">
        <ele>235.8</ele>
        <time>2026-03-22T08:33:12Z</time>
      </trkpt>
      <trkpt lat="44.50375" lon="1.58834">
        <ele>237</ele>
        <time>2026-03-22T08:33:13Z</time>
      </trkpt>
      <trkpt lat="44.50377" lon="1.58836">
        <ele>237.6</ele>
        <time>2026-03-22T08:33:14Z</time>
      </trkpt>
      <trkpt lat="44.50379" lon="1.58836">
        <ele>238</ele>
        <time>2026-03-22T08:33:15Z</time>
      </trkpt>
      <trkpt lat="44.50382" lon="1.58834">
        <ele>238.4</ele>
        <time>2026-03-22T08:33:16Z</time>
      </trkpt>
      <trkpt lat="44.50384" lon="1.5883">
        <ele>239</ele>
        <time>2026-03-22T08:33:17Z</time>
      </trkpt>
      <trkpt lat="44.50384" lon="1.58825">
        <ele>239.6</ele>
        <time>2026-03-22T08:33:18Z</time>
      </trkpt>
      <trkpt lat="44.50385" lon="1.5882">
        <ele>239.8</ele>
        <time>2026-03-22T08:33:19Z</time>
      </trkpt>
      <trkpt lat="44.50383" lon="1.58815">
        <ele>240.4</ele>
        <time>2026-03-22T08:33:20Z</time>
      </trkpt>
      <trkpt lat="44.50384" lon="1.5881">
        <ele>240.6</ele>
        <time>2026-03-22T08:33:21Z</time>
      </trkpt>
      <trkpt lat="44.50384" lon="1.58805">
        <ele>241</ele>
        <time>2026-03-22T08:33:22Z</time>
      </trkpt>
      <trkpt lat="44.50385" lon="1.58801">
        <ele>241.6</ele>
        <time>2026-03-22T08:33:23Z</time>
      </trkpt>
      <trkpt lat="44.50385" lon="1.58797">
        <ele>242</ele>
        <time>2026-03-22T08:33:24Z</time>
      </trkpt>
      <trkpt lat="44.50387" lon="1.58792">
        <ele>242.2</ele>
        <time>2026-03-22T08:33:25Z</time>
      </trkpt>
      <trkpt lat="44.50388" lon="1.58788">
        <ele>242.6</ele>
        <time>2026-03-22T08:33:26Z</time>
      </trkpt>
      <trkpt lat="44.50391" lon="1.58783">
        <ele>242.8</ele>
        <time>2026-03-22T08:33:27Z</time>
      </trkpt>
      <trkpt lat="44.50393" lon="1.58779">
        <ele>243</ele>
        <time>2026-03-22T08:33:28Z</time>
      </trkpt>
      <trkpt lat="44.50395" lon="1.58775">
        <ele>243.2</ele>
        <time>2026-03-22T08:33:29Z</time>
      </trkpt>
      <trkpt lat="44.50398" lon="1.58771">
        <ele>244</ele>
        <time>2026-03-22T08:33:30Z</time>
      </trkpt>
      <trkpt lat="44.504" lon="1.58768">
        <ele>244.4</ele>
        <time>2026-03-22T08:33:31Z</time>
      </trkpt>
      <trkpt lat="44.50402" lon="1.58765">
        <ele>244.8</ele>
        <time>2026-03-22T08:33:32Z</time>
      </trkpt>
      <trkpt lat="44.50405" lon="1.58761">
        <ele>245.4</ele>
        <time>2026-03-22T08:33:33Z</time>
      </trkpt>
      <trkpt lat="44.50408" lon="1.58758">
        <ele>245.8</ele>
        <time>2026-03-22T08:33:34Z</time>
      </trkpt>
      <trkpt lat="44.5041" lon="1.58755">
        <ele>246</ele>
        <time>2026-03-22T08:33:35Z</time>
      </trkpt>
      <trkpt lat="44.50412" lon="1.58753">
        <ele>246.6</ele>
        <time>2026-03-22T08:33:36Z</time>
      </trkpt>
      <trkpt lat="44.50415" lon="1.58751">
        <ele>247.2</ele>
        <time>2026-03-22T08:33:37Z</time>
      </trkpt>
      <trkpt lat="44.50417" lon="1.58748">
        <ele>247.6</ele>
        <time>2026-03-22T08:33:38Z</time>
      </trkpt>
      <trkpt lat="44.5042" lon="1.58746">
        <ele>248</ele>
        <time>2026-03-22T08:33:39Z</time>
      </trkpt>
      <trkpt lat="44.50422" lon="1.58744">
        <ele>248.6</ele>
        <time>2026-03-22T08:33:40Z</time>
      </trkpt>
      <trkpt lat="44.50425" lon="1.58741">
        <ele>249</ele>
        <time>2026-03-22T08:33:41Z</time>
      </trkpt>
      <trkpt lat="44.50428" lon="1.58739">
        <ele>249.4</ele>
        <time>2026-03-22T08:33:42Z</time>
      </trkpt>
      <trkpt lat="44.50431" lon="1.58736">
        <ele>250</ele>
        <time>2026-03-22T08:33:43Z</time>
      </trkpt>
      <trkpt lat="44.50433" lon="1.58733">
        <ele>250.4</ele>
        <time>2026-03-22T08:33:44Z</time>
      </trkpt>
      <trkpt lat="44.50436" lon="1.5873">
        <ele>250.6</ele>
        <time>2026-03-22T08:33:45Z</time>
      </trkpt>
      <trkpt lat="44.5044" lon="1.58726">
        <ele>251.4</ele>
        <time>2026-03-22T08:33:46Z</time>
      </trkpt>
      <trkpt lat="44.50443" lon="1.58723">
        <ele>252</ele>
        <time>2026-03-22T08:33:47Z</time>
      </trkpt>
      <trkpt lat="44.50445" lon="1.5872">
        <ele>252.4</ele>
        <time>2026-03-22T08:33:48Z</time>
      </trkpt>
      <trkpt lat="44.50448" lon="1.58718">
        <ele>252.8</ele>
        <time>2026-03-22T08:33:49Z</time>
      </trkpt>
      <trkpt lat="44.50451" lon="1.58715">
        <ele>253.2</ele>
        <time>2026-03-22T08:33:50Z</time>
      </trkpt>
      <trkpt lat="44.50454" lon="1.58713">
        <ele>253.6</ele>
        <time>2026-03-22T08:33:51Z</time>
      </trkpt>
      <trkpt lat="44.50457" lon="1.58712">
        <ele>254</ele>
        <time>2026-03-22T08:33:52Z</time>
      </trkpt>
      <trkpt lat="44.50459" lon="1.58711">
        <ele>254.4</ele>
        <time>2026-03-22T08:33:53Z</time>
      </trkpt>
      <trkpt lat="44.50462" lon="1.5871">
        <ele>255</ele>
        <time>2026-03-22T08:33:54Z</time>
      </trkpt>
      <trkpt lat="44.50465" lon="1.58708">
        <ele>255.2</ele>
        <time>2026-03-22T08:33:55Z</time>
      </trkpt>
      <trkpt lat="44.50468" lon="1.58707">
        <ele>255.6</ele>
        <time>2026-03-22T08:33:56Z</time>
      </trkpt>
      <trkpt lat="44.50471" lon="1.58707">
        <ele>256.2</ele>
        <time>2026-03-22T08:33:57Z</time>
      </trkpt>
      <trkpt lat="44.50474" lon="1.58706">
        <ele>256.8</ele>
        <time>2026-03-22T08:33:58Z</time>
      </trkpt>
      <trkpt lat="44.50476" lon="1.58706">
        <ele>257.4</ele>
        <time>2026-03-22T08:33:59Z</time>
      </trkpt>
      <trkpt lat="44.50478" lon="1.58707">
        <ele>258</ele>
        <time>2026-03-22T08:34:00Z</time>
      </trkpt>
      <trkpt lat="44.5048" lon="1.58709">
        <ele>258.6</ele>
        <time>2026-03-22T08:34:01Z</time>
      </trkpt>
      <trkpt lat="44.50483" lon="1.5871">
        <ele>259</ele>
        <time>2026-03-22T08:34:02Z</time>
      </trkpt>
      <trkpt lat="44.50486" lon="1.58711">
        <ele>259.6</ele>
        <time>2026-03-22T08:34:03Z</time>
      </trkpt>
      <trkpt lat="44.50488" lon="1.58713">
        <ele>260.2</ele>
        <time>2026-03-22T08:34:04Z</time>
      </trkpt>
      <trkpt lat="44.50491" lon="1.58714">
        <ele>261</ele>
        <time>2026-03-22T08:34:05Z</time>
      </trkpt>
      <trkpt lat="44.50493" lon="1.58715">
        <ele>261.6</ele>
        <time>2026-03-22T08:34:06Z</time>
      </trkpt>
      <trkpt lat="44.50497" lon="1.58717">
        <ele>262.2</ele>
        <time>2026-03-22T08:34:07Z</time>
      </trkpt>
      <trkpt lat="44.50499" lon="1.58719">
        <ele>262.6</ele>
        <time>2026-03-22T08:34:08Z</time>
      </trkpt>
      <trkpt lat="44.50501" lon="1.58721">
        <ele>263.2</ele>
        <time>2026-03-22T08:34:09Z</time>
      </trkpt>
      <trkpt lat="44.50504" lon="1.58723">
        <ele>264</ele>
        <time>2026-03-22T08:34:10Z</time>
      </trkpt>
      <trkpt lat="44.50506" lon="1.58725">
        <ele>264.6</ele>
        <time>2026-03-22T08:34:11Z</time>
      </trkpt>
      <trkpt lat="44.50509" lon="1.58727">
        <ele>265</ele>
        <time>2026-03-22T08:34:12Z</time>
      </trkpt>
      <trkpt lat="44.50511" lon="1.58729">
        <ele>265.6</ele>
        <time>2026-03-22T08:34:13Z</time>
      </trkpt>
      <trkpt lat="44.50514" lon="1.5873">
        <ele>266</ele>
        <time>2026-03-22T08:34:14Z</time>
      </trkpt>
      <trkpt lat="44.50516" lon="1.58731">
        <ele>266.6</ele>
        <time>2026-03-22T08:34:15Z</time>
      </trkpt>
      <trkpt lat="44.50518" lon="1.58732">
        <ele>267.2</ele>
        <time>2026-03-22T08:34:16Z</time>
      </trkpt>
      <trkpt lat="44.50522" lon="1.58734">
        <ele>267.6</ele>
        <time>2026-03-22T08:34:17Z</time>
      </trkpt>
      <trkpt lat="44.50524" lon="1.58735">
        <ele>268</ele>
        <time>2026-03-22T08:34:18Z</time>
      </trkpt>
      <trkpt lat="44.50527" lon="1.58737">
        <ele>268.6</ele>
        <time>2026-03-22T08:34:19Z</time>
      </trkpt>
      <trkpt lat="44.50529" lon="1.58738">
        <ele>269.2</ele>
        <time>2026-03-22T08:34:20Z</time>
      </trkpt>
      <trkpt lat="44.50531" lon="1.58739">
        <ele>269.8</ele>
        <time>2026-03-22T08:34:21Z</time>
      </trkpt>
      <trkpt lat="44.50534" lon="1.5874">
        <ele>270.2</ele>
        <time>2026-03-22T08:34:22Z</time>
      </trkpt>
      <trkpt lat="44.50535" lon="1.58741">
        <ele>270.8</ele>
        <time>2026-03-22T08:34:23Z</time>
      </trkpt>
      <trkpt lat="44.50539" lon="1.58741">
        <ele>271.4</ele>
        <time>2026-03-22T08:34:24Z</time>
      </trkpt>
      <trkpt lat="44.50542" lon="1.58742">
        <ele>272</ele>
        <time>2026-03-22T08:34:25Z</time>
      </trkpt>
      <trkpt lat="44.50544" lon="1.58742">
        <ele>272.4</ele>
        <time>2026-03-22T08:34:26Z</time>
      </trkpt>
      <trkpt lat="44.50547" lon="1.58742">
        <ele>273</ele>
        <time>2026-03-22T08:34:27Z</time>
      </trkpt>
      <trkpt lat="44.50549" lon="1.58743">
        <ele>273.6</ele>
        <time>2026-03-22T08:34:28Z</time>
      </trkpt>
      <trkpt lat="44.50552" lon="1.58744">
        <ele>274</ele>
        <time>2026-03-22T08:34:29Z</time>
      </trkpt>
      <trkpt lat="44.50554" lon="1.58745">
        <ele>274.6</ele>
        <time>2026-03-22T08:34:30Z</time>
      </trkpt>
      <trkpt lat="44.50557" lon="1.58746">
        <ele>275</ele>
        <time>2026-03-22T08:34:31Z</time>
      </trkpt>
      <trkpt lat="44.50559" lon="1.58746">
        <ele>275.2</ele>
        <time>2026-03-22T08:34:32Z</time>
      </trkpt>
      <trkpt lat="44.50562" lon="1.58747">
        <ele>275.6</ele>
        <time>2026-03-22T08:34:33Z</time>
      </trkpt>
      <trkpt lat="44.50564" lon="1.58747">
        <ele>276</ele>
        <time>2026-03-22T08:34:34Z</time>
      </trkpt>
      <trkpt lat="44.50566" lon="1.58747">
        <ele>276.4</ele>
        <time>2026-03-22T08:34:35Z</time>
      </trkpt>
      <trkpt lat="44.50569" lon="1.58747">
        <ele>276.8</ele>
        <time>2026-03-22T08:34:36Z</time>
      </trkpt>
      <trkpt lat="44.50572" lon="1.58746">
        <ele>277.2</ele>
        <time>2026-03-22T08:34:37Z</time>
      </trkpt>
      <trkpt lat="44.50575" lon="1.58746">
        <ele>277.4</ele>
        <time>2026-03-22T08:34:38Z</time>
      </trkpt>
      <trkpt lat="44.50578" lon="1.58745">
        <ele>277.8</ele>
        <time>2026-03-22T08:34:39Z</time>
      </trkpt>
      <trkpt lat="44.50581" lon="1.58745">
        <ele>278</ele>
        <time>2026-03-22T08:34:40Z</time>
      </trkpt>
      <trkpt lat="44.50584" lon="1.58744">
        <ele>278.4</ele>
        <time>2026-03-22T08:34:41Z</time>
      </trkpt>
      <trkpt lat="44.50587" lon="1.58743">
        <ele>278.6</ele>
        <time>2026-03-22T08:34:42Z</time>
      </trkpt>
      <trkpt lat="44.50591" lon="1.58742">
        <ele>279</ele>
        <time>2026-03-22T08:34:43Z</time>
      </trkpt>
      <trkpt lat="44.50594" lon="1.58741">
        <ele>279.2</ele>
        <time>2026-03-22T08:34:44Z</time>
      </trkpt>
      <trkpt lat="44.50597" lon="1.5874">
        <ele>279.6</ele>
        <time>2026-03-22T08:34:45Z</time>
      </trkpt>
      <trkpt lat="44.506" lon="1.58739">
        <ele>279.8</ele>
        <time>2026-03-22T08:34:46Z</time>
      </trkpt>
      <trkpt lat="44.50603" lon="1.58738">
        <ele>280</ele>
        <time>2026-03-22T08:34:47Z</time>
      </trkpt>
      <trkpt lat="44.50605" lon="1.58737">
        <ele>280.6</ele>
        <time>2026-03-22T08:34:48Z</time>
      </trkpt>
      <trkpt lat="44.50608" lon="1.58736">
        <ele>280.8</ele>
        <time>2026-03-22T08:34:49Z</time>
      </trkpt>
      <trkpt lat="44.50612" lon="1.58735">
        <ele>281.4</ele>
        <time>2026-03-22T08:34:50Z</time>
      </trkpt>
      <trkpt lat="44.50615" lon="1.58734">
        <ele>281.6</ele>
        <time>2026-03-22T08:34:51Z</time>
      </trkpt>
      <trkpt lat="44.50618" lon="1.58734">
        <ele>282</ele>
        <time>2026-03-22T08:34:52Z</time>
      </trkpt>
      <trkpt lat="44.50622" lon="1.58734">
        <ele>282.4</ele>
        <time>2026-03-22T08:34:53Z</time>
      </trkpt>
      <trkpt lat="44.50625" lon="1.58735">
        <ele>282.8</ele>
        <time>2026-03-22T08:34:54Z</time>
      </trkpt>
      <trkpt lat="44.50629" lon="1.58736">
        <ele>283</ele>
        <time>2026-03-22T08:34:55Z</time>
      </trkpt>
      <trkpt lat="44.50632" lon="1.58736">
        <ele>283.4</ele>
        <time>2026-03-22T08:34:56Z</time>
      </trkpt>
      <trkpt lat="44.50636" lon="1.58737">
        <ele>283.6</ele>
        <time>2026-03-22T08:34:57Z</time>
      </trkpt>
      <trkpt lat="44.50639" lon="1.58738">
        <ele>283.8</ele>
        <time>2026-03-22T08:34:58Z</time>
      </trkpt>
      <trkpt lat="44.50642" lon="1.58739">
        <ele>284.4</ele>
        <time>2026-03-22T08:34:59Z</time>
      </trkpt>
      <trkpt lat="44.50645" lon="1.5874">
        <ele>284.6</ele>
        <time>2026-03-22T08:35:00Z</time>
      </trkpt>
      <trkpt lat="44.50648" lon="1.58741">
        <ele>285</ele>
        <time>2026-03-22T08:35:01Z</time>
      </trkpt>
      <trkpt lat="44.50651" lon="1.58742">
        <ele>285.2</ele>
        <time>2026-03-22T08:35:02Z</time>
      </trkpt>
      <trkpt lat="44.50654" lon="1.58743">
        <ele>285.4</ele>
        <time>2026-03-22T08:35:03Z</time>
      </trkpt>
      <trkpt lat="44.50657" lon="1.58743">
        <ele>285.8</ele>
        <time>2026-03-22T08:35:04Z</time>
      </trkpt>
      <trkpt lat="44.5066" lon="1.58744">
        <ele>286.4</ele>
        <time>2026-03-22T08:35:05Z</time>
      </trkpt>
      <trkpt lat="44.50664" lon="1.58745">
        <ele>286.8</ele>
        <time>2026-03-22T08:35:06Z</time>
      </trkpt>
      <trkpt lat="44.50668" lon="1.58745">
        <ele>287</ele>
        <time>2026-03-22T08:35:07Z</time>
      </trkpt>
      <trkpt lat="44.50671" lon="1.58746">
        <ele>287.2</ele>
        <time>2026-03-22T08:35:08Z</time>
      </trkpt>
      <trkpt lat="44.50675" lon="1.58746">
        <ele>287.8</ele>
        <time>2026-03-22T08:35:09Z</time>
      </trkpt>
      <trkpt lat="44.50678" lon="1.58747">
        <ele>288.2</ele>
        <time>2026-03-22T08:35:10Z</time>
      </trkpt>
      <trkpt lat="44.50682" lon="1.58748">
        <ele>288.4</ele>
        <time>2026-03-22T08:35:11Z</time>
      </trkpt>
      <trkpt lat="44.50685" lon="1.58749">
        <ele>288.8</ele>
        <time>2026-03-22T08:35:12Z</time>
      </trkpt>
      <trkpt lat="44.50689" lon="1.5875">
        <ele>289.2</ele>
        <time>2026-03-22T08:35:13Z</time>
      </trkpt>
      <trkpt lat="44.50692" lon="1.5875">
        <ele>289.6</ele>
        <time>2026-03-22T08:35:14Z</time>
      </trkpt>
      <trkpt lat="44.50695" lon="1.5875">
        <ele>290</ele>
        <time>2026-03-22T08:35:15Z</time>
      </trkpt>
      <trkpt lat="44.507" lon="1.58751">
        <ele>290.2</ele>
        <time>2026-03-22T08:35:16Z</time>
      </trkpt>
      <trkpt lat="44.50702" lon="1.58752">
        <ele>290.4</ele>
        <time>2026-03-22T08:35:17Z</time>
      </trkpt>
      <trkpt lat="44.50706" lon="1.58753">
        <ele>290.6</ele>
        <time>2026-03-22T08:35:18Z</time>
      </trkpt>
      <trkpt lat="44.5071" lon="1.58754">
        <ele>291</ele>
        <time>2026-03-22T08:35:19Z</time>
      </trkpt>
      <trkpt lat="44.50714" lon="1.58755">
        <ele>291.4</ele>
        <time>2026-03-22T08:35:20Z</time>
      </trkpt>
      <trkpt lat="44.50716" lon="1.58756">
        <ele>291.8</ele>
        <time>2026-03-22T08:35:21Z</time>
      </trkpt>
      <trkpt lat="44.5072" lon="1.58758">
        <ele>292</ele>
        <time>2026-03-22T08:35:22Z</time>
      </trkpt>
      <trkpt lat="44.50723" lon="1.58759">
        <ele>292</ele>
        <time>2026-03-22T08:35:23Z</time>
      </trkpt>
      <trkpt lat="44.50726" lon="1.5876">
        <ele>292.2</ele>
        <time>2026-03-22T08:35:24Z</time>
      </trkpt>
      <trkpt lat="44.50729" lon="1.58761">
        <ele>292.4</ele>
        <time>2026-03-22T08:35:25Z</time>
      </trkpt>
      <trkpt lat="44.50732" lon="1.58761">
        <ele>292.8</ele>
        <time>2026-03-22T08:35:26Z</time>
      </trkpt>
      <trkpt lat="44.50736" lon="1.58761">
        <ele>293.2</ele>
        <time>2026-03-22T08:35:27Z</time>
      </trkpt>
      <trkpt lat="44.50739" lon="1.58761">
        <ele>293.4</ele>
        <time>2026-03-22T08:35:28Z</time>
      </trkpt>
      <trkpt lat="44.50742" lon="1.58761">
        <ele>293.6</ele>
        <time>2026-03-22T08:35:29Z</time>
      </trkpt>
      <trkpt lat="44.50745" lon="1.58761">
        <ele>293.8</ele>
        <time>2026-03-22T08:35:30Z</time>
      </trkpt>
      <trkpt lat="44.50748" lon="1.58761">
        <ele>294</ele>
        <time>2026-03-22T08:35:31Z</time>
      </trkpt>
      <trkpt lat="44.50752" lon="1.58762">
        <ele>294.4</ele>
        <time>2026-03-22T08:35:32Z</time>
      </trkpt>
      <trkpt lat="44.50756" lon="1.58763">
        <ele>294.6</ele>
        <time>2026-03-22T08:35:33Z</time>
      </trkpt>
      <trkpt lat="44.50759" lon="1.58764">
        <ele>295</ele>
        <time>2026-03-22T08:35:34Z</time>
      </trkpt>
      <trkpt lat="44.50763" lon="1.58766">
        <ele>295.2</ele>
        <time>2026-03-22T08:35:35Z</time>
      </trkpt>
      <trkpt lat="44.50766" lon="1.58767">
        <ele>295.4</ele>
        <time>2026-03-22T08:35:36Z</time>
      </trkpt>
      <trkpt lat="44.50769" lon="1.58768">
        <ele>295.6</ele>
        <time>2026-03-22T08:35:37Z</time>
      </trkpt>
      <trkpt lat="44.50773" lon="1.58769">
        <ele>295.8</ele>
        <time>2026-03-22T08:35:38Z</time>
      </trkpt>
      <trkpt lat="44.50777" lon="1.5877">
        <ele>295.8</ele>
        <time>2026-03-22T08:35:39Z</time>
      </trkpt>
      <trkpt lat="44.50781" lon="1.58771">
        <ele>296</ele>
        <time>2026-03-22T08:35:40Z</time>
      </trkpt>
      <trkpt lat="44.50786" lon="1.58772">
        <ele>296.2</ele>
        <time>2026-03-22T08:35:41Z</time>
      </trkpt>
      <trkpt lat="44.50789" lon="1.58773">
        <ele>296.2</ele>
        <time>2026-03-22T08:35:42Z</time>
      </trkpt>
      <trkpt lat="44.50793" lon="1.58775">
        <ele>296.4</ele>
        <time>2026-03-22T08:35:43Z</time>
      </trkpt>
      <trkpt lat="44.50798" lon="1.58776">
        <ele>296.4</ele>
        <time>2026-03-22T08:35:44Z</time>
      </trkpt>
      <trkpt lat="44.50801" lon="1.58778">
        <ele>296.6</ele>
        <time>2026-03-22T08:35:45Z</time>
      </trkpt>
      <trkpt lat="44.50805" lon="1.58779">
        <ele>296.6</ele>
        <time>2026-03-22T08:35:46Z</time>
      </trkpt>
      <trkpt lat="44.50809" lon="1.58781">
        <ele>296.6</ele>
        <time>2026-03-22T08:35:47Z</time>
      </trkpt>
      <trkpt lat="44.50812" lon="1.58783">
        <ele>296.6</ele>
        <time>2026-03-22T08:35:48Z</time>
      </trkpt>
      <trkpt lat="44.50816" lon="1.58784">
        <ele>296.8</ele>
        <time>2026-03-22T08:35:49Z</time>
      </trkpt>
      <trkpt lat="44.5082" lon="1.58786">
        <ele>296.8</ele>
        <time>2026-03-22T08:35:50Z</time>
      </trkpt>
      <trkpt lat="44.50824" lon="1.58787">
        <ele>296.8</ele>
        <time>2026-03-22T08:35:51Z</time>
      </trkpt>
      <trkpt lat="44.50828" lon="1.58789">
        <ele>297</ele>
        <time>2026-03-22T08:35:52Z</time>
      </trkpt>
      <trkpt lat="44.50831" lon="1.58791">
        <ele>297</ele>
        <time>2026-03-22T08:35:53Z</time>
      </trkpt>
      <trkpt lat="44.50835" lon="1.58793">
        <ele>297.2</ele>
        <time>2026-03-22T08:35:54Z</time>
      </trkpt>
      <trkpt lat="44.50838" lon="1.58796">
        <ele>297.4</ele>
        <time>2026-03-22T08:35:55Z</time>
      </trkpt>
      <trkpt lat="44.50842" lon="1.58798">
        <ele>297.6</ele>
        <time>2026-03-22T08:35:56Z</time>
      </trkpt>
      <trkpt lat="44.50845" lon="1.588">
        <ele>297.8</ele>
        <time>2026-03-22T08:35:57Z</time>
      </trkpt>
      <trkpt lat="44.50849" lon="1.58803">
        <ele>298.2</ele>
        <time>2026-03-22T08:35:58Z</time>
      </trkpt>
      <trkpt lat="44.50852" lon="1.58807">
        <ele>298.4</ele>
        <time>2026-03-22T08:35:59Z</time>
      </trkpt>
      <trkpt lat="44.50855" lon="1.5881">
        <ele>298.6</ele>
        <time>2026-03-22T08:36:00Z</time>
      </trkpt>
      <trkpt lat="44.50857" lon="1.58813">
        <ele>298.8</ele>
        <time>2026-03-22T08:36:01Z</time>
      </trkpt>
      <trkpt lat="44.50859" lon="1.58818">
        <ele>299</ele>
        <time>2026-03-22T08:36:02Z</time>
      </trkpt>
      <trkpt lat="44.50861" lon="1.58822">
        <ele>299.8</ele>
        <time>2026-03-22T08:36:03Z</time>
      </trkpt>
      <trkpt lat="44.50862" lon="1.58825">
        <ele>300.2</ele>
        <time>2026-03-22T08:36:04Z</time>
      </trkpt>
      <trkpt lat="44.50864" lon="1.58826">
        <ele>300.6</ele>
        <time>2026-03-22T08:36:05Z</time>
      </trkpt>
      <trkpt lat="44.50866" lon="1.58824">
        <ele>300.6</ele>
        <time>2026-03-22T08:36:06Z</time>
      </trkpt>
      <trkpt lat="44.50868" lon="1.58821">
        <ele>300.8</ele>
        <time>2026-03-22T08:36:07Z</time>
      </trkpt>
      <trkpt lat="44.50871" lon="1.58816">
        <ele>301</ele>
        <time>2026-03-22T08:36:08Z</time>
      </trkpt>
      <trkpt lat="44.50875" lon="1.58811">
        <ele>301.2</ele>
        <time>2026-03-22T08:36:09Z</time>
      </trkpt>
      <trkpt lat="44.50878" lon="1.58806">
        <ele>301.2</ele>
        <time>2026-03-22T08:36:10Z</time>
      </trkpt>
      <trkpt lat="44.50882" lon="1.58801">
        <ele>301.2</ele>
        <time>2026-03-22T08:36:11Z</time>
      </trkpt>
      <trkpt lat="44.50887" lon="1.58796">
        <ele>301.2</ele>
        <time>2026-03-22T08:36:12Z</time>
      </trkpt>
      <trkpt lat="44.50891" lon="1.58791">
        <ele>301.2</ele>
        <time>2026-03-22T08:36:13Z</time>
      </trkpt>
      <trkpt lat="44.50897" lon="1.58787">
        <ele>301.2</ele>
        <time>2026-03-22T08:36:14Z</time>
      </trkpt>
      <trkpt lat="44.50902" lon="1.58782">
        <ele>301.2</ele>
        <time>2026-03-22T08:36:15Z</time>
      </trkpt>
      <trkpt lat="44.50907" lon="1.58777">
        <ele>301.2</ele>
        <time>2026-03-22T08:36:16Z</time>
      </trkpt>
      <trkpt lat="44.50911" lon="1.58771">
        <ele>301.2</ele>
        <time>2026-03-22T08:36:17Z</time>
      </trkpt>
      <trkpt lat="44.50916" lon="1.58765">
        <ele>301.2</ele>
        <time>2026-03-22T08:36:18Z</time>
      </trkpt>
      <trkpt lat="44.50921" lon="1.58759">
        <ele>301</ele>
        <time>2026-03-22T08:36:19Z</time>
      </trkpt>
      <trkpt lat="44.50925" lon="1.58752">
        <ele>300.8</ele>
        <time>2026-03-22T08:36:20Z</time>
      </trkpt>
      <trkpt lat="44.5093" lon="1.58745">
        <ele>300.6</ele>
        <time>2026-03-22T08:36:21Z</time>
      </trkpt>
      <trkpt lat="44.50934" lon="1.58738">
        <ele>300.4</ele>
        <time>2026-03-22T08:36:22Z</time>
      </trkpt>
      <trkpt lat="44.50938" lon="1.5873">
        <ele>300.2</ele>
        <time>2026-03-22T08:36:23Z</time>
      </trkpt>
      <trkpt lat="44.5094" lon="1.58722">
        <ele>299.4</ele>
        <time>2026-03-22T08:36:24Z</time>
      </trkpt>
      <trkpt lat="44.50941" lon="1.58714">
        <ele>299</ele>
        <time>2026-03-22T08:36:25Z</time>
      </trkpt>
      <trkpt lat="44.50939" lon="1.58707">
        <ele>298.8</ele>
        <time>2026-03-22T08:36:26Z</time>
      </trkpt>
      <trkpt lat="44.50936" lon="1.587">
        <ele>298.4</ele>
        <time>2026-03-22T08:36:27Z</time>
      </trkpt>
      <trkpt lat="44.50933" lon="1.58693">
        <ele>298.2</ele>
        <time>2026-03-22T08:36:28Z</time>
      </trkpt>
      <trkpt lat="44.50929" lon="1.58687">
        <ele>298</ele>
        <time>2026-03-22T08:36:29Z</time>
      </trkpt>
      <trkpt lat="44.50925" lon="1.5868">
        <ele>297.8</ele>
        <time>2026-03-22T08:36:30Z</time>
      </trkpt>
      <trkpt lat="44.50921" lon="1.58674">
        <ele>297.4</ele>
        <time>2026-03-22T08:36:31Z</time>
      </trkpt>
      <trkpt lat="44.50917" lon="1.58667">
        <ele>297.2</ele>
        <time>2026-03-22T08:36:32Z</time>
      </trkpt>
      <trkpt lat="44.50893" lon="1.58631">
        <ele>296.4</ele>
        <time>2026-03-22T08:36:38Z</time>
      </trkpt>
      <trkpt lat="44.50888" lon="1.58625">
        <ele>296.2</ele>
        <time>2026-03-22T08:36:39Z</time>
      </trkpt>
      <trkpt lat="44.50879" lon="1.58614">
        <ele>296</ele>
        <time>2026-03-22T08:36:41Z</time>
      </trkpt>
      <trkpt lat="44.50872" lon="1.58599">
        <ele>295.8</ele>
        <time>2026-03-22T08:36:43Z</time>
      </trkpt>
      <trkpt lat="44.50862" lon="1.58578">
        <ele>295.6</ele>
        <time>2026-03-22T08:36:46Z</time>
      </trkpt>
      <trkpt lat="44.50859" lon="1.58562">
        <ele>295</ele>
        <time>2026-03-22T08:36:48Z</time>
      </trkpt>
      <trkpt lat="44.50859" lon="1.58554">
        <ele>294.6</ele>
        <time>2026-03-22T08:36:49Z</time>
      </trkpt>
      <trkpt lat="44.50859" lon="1.58545">
        <ele>294.4</ele>
        <time>2026-03-22T08:36:50Z</time>
      </trkpt>
      <trkpt lat="44.50858" lon="1.58537">
        <ele>294.2</ele>
        <time>2026-03-22T08:36:51Z</time>
      </trkpt>
      <trkpt lat="44.50855" lon="1.58522">
        <ele>294</ele>
        <time>2026-03-22T08:36:53Z</time>
      </trkpt>
      <trkpt lat="44.50852" lon="1.58515">
        <ele>293.8</ele>
        <time>2026-03-22T08:36:54Z</time>
      </trkpt>
      <trkpt lat="44.50846" lon="1.58501">
        <ele>293.8</ele>
        <time>2026-03-22T08:36:56Z</time>
      </trkpt>
      <trkpt lat="44.50842" lon="1.58494">
        <ele>293.8</ele>
        <time>2026-03-22T08:36:57Z</time>
      </trkpt>
      <trkpt lat="44.50839" lon="1.58488">
        <ele>293.8</ele>
        <time>2026-03-22T08:36:58Z</time>
      </trkpt>
      <trkpt lat="44.50835" lon="1.58482">
        <ele>293.8</ele>
        <time>2026-03-22T08:36:59Z</time>
      </trkpt>
      <trkpt lat="44.50831" lon="1.58477">
        <ele>293.8</ele>
        <time>2026-03-22T08:37:00Z</time>
      </trkpt>
      <trkpt lat="44.50827" lon="1.58471">
        <ele>293.8</ele>
        <time>2026-03-22T08:37:01Z</time>
      </trkpt>
      <trkpt lat="44.50817" lon="1.58452">
        <ele>294.2</ele>
        <time>2026-03-22T08:37:04Z</time>
      </trkpt>
      <trkpt lat="44.50813" lon="1.58447">
        <ele>294.2</ele>
        <time>2026-03-22T08:37:05Z</time>
      </trkpt>
      <trkpt lat="44.5081" lon="1.5844">
        <ele>294.2</ele>
        <time>2026-03-22T08:37:06Z</time>
      </trkpt>
      <trkpt lat="44.50804" lon="1.58429">
        <ele>294.8</ele>
        <time>2026-03-22T08:37:08Z</time>
      </trkpt>
      <trkpt lat="44.50801" lon="1.58424">
        <ele>295.2</ele>
        <time>2026-03-22T08:37:09Z</time>
      </trkpt>
      <trkpt lat="44.50798" lon="1.5842">
        <ele>295.4</ele>
        <time>2026-03-22T08:37:10Z</time>
      </trkpt>
      <trkpt lat="44.50795" lon="1.58415">
        <ele>295.4</ele>
        <time>2026-03-22T08:37:11Z</time>
      </trkpt>
      <trkpt lat="44.50791" lon="1.58411">
        <ele>295.6</ele>
        <time>2026-03-22T08:37:12Z</time>
      </trkpt>
      <trkpt lat="44.50788" lon="1.58407">
        <ele>295.8</ele>
        <time>2026-03-22T08:37:13Z</time>
      </trkpt>
      <trkpt lat="44.50783" lon="1.58398">
        <ele>296.4</ele>
        <time>2026-03-22T08:37:15Z</time>
      </trkpt>
      <trkpt lat="44.5078" lon="1.58394">
        <ele>296.6</ele>
        <time>2026-03-22T08:37:16Z</time>
      </trkpt>
      <trkpt lat="44.50777" lon="1.5839">
        <ele>296.8</ele>
        <time>2026-03-22T08:37:17Z</time>
      </trkpt>
      <trkpt lat="44.50774" lon="1.58385">
        <ele>296.8</ele>
        <time>2026-03-22T08:37:18Z</time>
      </trkpt>
      <trkpt lat="44.50771" lon="1.58382">
        <ele>297.4</ele>
        <time>2026-03-22T08:37:19Z</time>
      </trkpt>
      <trkpt lat="44.50768" lon="1.58379">
        <ele>297.6</ele>
        <time>2026-03-22T08:37:20Z</time>
      </trkpt>
      <trkpt lat="44.50759" lon="1.58373">
        <ele>298.6</ele>
        <time>2026-03-22T08:37:22Z</time>
      </trkpt>
      <trkpt lat="44.50754" lon="1.58371">
        <ele>298.8</ele>
        <time>2026-03-22T08:37:23Z</time>
      </trkpt>
      <trkpt lat="44.50749" lon="1.58367">
        <ele>299</ele>
        <time>2026-03-22T08:37:24Z</time>
      </trkpt>
      <trkpt lat="44.50745" lon="1.58364">
        <ele>299.4</ele>
        <time>2026-03-22T08:37:25Z</time>
      </trkpt>
      <trkpt lat="44.50741" lon="1.5836">
        <ele>299.8</ele>
        <time>2026-03-22T08:37:26Z</time>
      </trkpt>
      <trkpt lat="44.50736" lon="1.58356">
        <ele>300</ele>
        <time>2026-03-22T08:37:27Z</time>
      </trkpt>
      <trkpt lat="44.50731" lon="1.58352">
        <ele>300.2</ele>
        <time>2026-03-22T08:37:28Z</time>
      </trkpt>
      <trkpt lat="44.50726" lon="1.58348">
        <ele>300.4</ele>
        <time>2026-03-22T08:37:29Z</time>
      </trkpt>
      <trkpt lat="44.50721" lon="1.58344">
        <ele>300.4</ele>
        <time>2026-03-22T08:37:30Z</time>
      </trkpt>
      <trkpt lat="44.50716" lon="1.5834">
        <ele>300.4</ele>
        <time>2026-03-22T08:37:31Z</time>
      </trkpt>
      <trkpt lat="44.50711" lon="1.58337">
        <ele>300.4</ele>
        <time>2026-03-22T08:37:32Z</time>
      </trkpt>
      <trkpt lat="44.50706" lon="1.58333">
        <ele>300.4</ele>
        <time>2026-03-22T08:37:33Z</time>
      </trkpt>
      <trkpt lat="44.50701" lon="1.5833">
        <ele>300.6</ele>
        <time>2026-03-22T08:37:34Z</time>
      </trkpt>
      <trkpt lat="44.50697" lon="1.58327">
        <ele>300.6</ele>
        <time>2026-03-22T08:37:35Z</time>
      </trkpt>
      <trkpt lat="44.50692" lon="1.58324">
        <ele>300.6</ele>
        <time>2026-03-22T08:37:36Z</time>
      </trkpt>
      <trkpt lat="44.50687" lon="1.58322">
        <ele>300.6</ele>
        <time>2026-03-22T08:37:37Z</time>
      </trkpt>
      <trkpt lat="44.50682" lon="1.58319">
        <ele>300.6</ele>
        <time>2026-03-22T08:37:38Z</time>
      </trkpt>
      <trkpt lat="44.50677" lon="1.58317">
        <ele>300.6</ele>
        <time>2026-03-22T08:37:39Z</time>
      </trkpt>
      <trkpt lat="44.50672" lon="1.58314">
        <ele>300.4</ele>
        <time>2026-03-22T08:37:40Z</time>
      </trkpt>
      <trkpt lat="44.50667" lon="1.58311">
        <ele>300.4</ele>
        <time>2026-03-22T08:37:41Z</time>
      </trkpt>
      <trkpt lat="44.50662" lon="1.58309">
        <ele>300.4</ele>
        <time>2026-03-22T08:37:42Z</time>
      </trkpt>
      <trkpt lat="44.50657" lon="1.58305">
        <ele>300.4</ele>
        <time>2026-03-22T08:37:43Z</time>
      </trkpt>
      <trkpt lat="44.50653" lon="1.58301">
        <ele>300.4</ele>
        <time>2026-03-22T08:37:44Z</time>
      </trkpt>
      <trkpt lat="44.50648" lon="1.58297">
        <ele>300.2</ele>
        <time>2026-03-22T08:37:45Z</time>
      </trkpt>
      <trkpt lat="44.50643" lon="1.58292">
        <ele>300.2</ele>
        <time>2026-03-22T08:37:46Z</time>
      </trkpt>
      <trkpt lat="44.50638" lon="1.58288">
        <ele>299.8</ele>
        <time>2026-03-22T08:37:47Z</time>
      </trkpt>
      <trkpt lat="44.50625" lon="1.58284">
        <ele>299.6</ele>
        <time>2026-03-22T08:37:49Z</time>
      </trkpt>
      <trkpt lat="44.50602" lon="1.58277">
        <ele>298.4</ele>
        <time>2026-03-22T08:37:52Z</time>
      </trkpt>
      <trkpt lat="44.50579" lon="1.58269">
        <ele>297.2</ele>
        <time>2026-03-22T08:37:55Z</time>
      </trkpt>
      <trkpt lat="44.50566" lon="1.58262">
        <ele>296</ele>
        <time>2026-03-22T08:37:57Z</time>
      </trkpt>
      <trkpt lat="44.50553" lon="1.5825">
        <ele>294.8</ele>
        <time>2026-03-22T08:37:59Z</time>
      </trkpt>
      <trkpt lat="44.50539" lon="1.58234">
        <ele>294</ele>
        <time>2026-03-22T08:38:01Z</time>
      </trkpt>
      <trkpt lat="44.50532" lon="1.58224">
        <ele>293.4</ele>
        <time>2026-03-22T08:38:02Z</time>
      </trkpt>
      <trkpt lat="44.50526" lon="1.58213">
        <ele>292.4</ele>
        <time>2026-03-22T08:38:03Z</time>
      </trkpt>
      <trkpt lat="44.5052" lon="1.58201">
        <ele>291.6</ele>
        <time>2026-03-22T08:38:04Z</time>
      </trkpt>
      <trkpt lat="44.50513" lon="1.5819">
        <ele>291.2</ele>
        <time>2026-03-22T08:38:05Z</time>
      </trkpt>
      <trkpt lat="44.50505" lon="1.5818">
        <ele>290</ele>
        <time>2026-03-22T08:38:06Z</time>
      </trkpt>
      <trkpt lat="44.50498" lon="1.5817">
        <ele>288.8</ele>
        <time>2026-03-22T08:38:07Z</time>
      </trkpt>
      <trkpt lat="44.50489" lon="1.5816">
        <ele>287.2</ele>
        <time>2026-03-22T08:38:08Z</time>
      </trkpt>
      <trkpt lat="44.50481" lon="1.58151">
        <ele>285.8</ele>
        <time>2026-03-22T08:38:09Z</time>
      </trkpt>
      <trkpt lat="44.50472" lon="1.58143">
        <ele>284.2</ele>
        <time>2026-03-22T08:38:10Z</time>
      </trkpt>
      <trkpt lat="44.50465" lon="1.58133">
        <ele>281.8</ele>
        <time>2026-03-22T08:38:11Z</time>
      </trkpt>
      <trkpt lat="44.50457" lon="1.58124">
        <ele>280.6</ele>
        <time>2026-03-22T08:38:12Z</time>
      </trkpt>
      <trkpt lat="44.5045" lon="1.58116">
        <ele>279</ele>
        <time>2026-03-22T08:38:13Z</time>
      </trkpt>
      <trkpt lat="44.50442" lon="1.58109">
        <ele>278.2</ele>
        <time>2026-03-22T08:38:14Z</time>
      </trkpt>
      <trkpt lat="44.50432" lon="1.58104">
        <ele>277.4</ele>
        <time>2026-03-22T08:38:15Z</time>
      </trkpt>
      <trkpt lat="44.50424" lon="1.58099">
        <ele>276.8</ele>
        <time>2026-03-22T08:38:16Z</time>
      </trkpt>
      <trkpt lat="44.50417" lon="1.58095">
        <ele>275.8</ele>
        <time>2026-03-22T08:38:17Z</time>
      </trkpt>
      <trkpt lat="44.50411" lon="1.58089">
        <ele>273.8</ele>
        <time>2026-03-22T08:38:18Z</time>
      </trkpt>
      <trkpt lat="44.50405" lon="1.58085">
        <ele>272.4</ele>
        <time>2026-03-22T08:38:19Z</time>
      </trkpt>
      <trkpt lat="44.50401" lon="1.58082">
        <ele>271.6</ele>
        <time>2026-03-22T08:38:20Z</time>
      </trkpt>
      <trkpt lat="44.50399" lon="1.58079">
        <ele>271</ele>
        <time>2026-03-22T08:38:21Z</time>
      </trkpt>
      <trkpt lat="44.50396" lon="1.58077">
        <ele>270.8</ele>
        <time>2026-03-22T08:38:22Z</time>
      </trkpt>
      <trkpt lat="44.50394" lon="1.58075">
        <ele>270.8</ele>
        <time>2026-03-22T08:38:23Z</time>
      </trkpt>
      <trkpt lat="44.50391" lon="1.58073">
        <ele>270.6</ele>
        <time>2026-03-22T08:38:24Z</time>
      </trkpt>
      <trkpt lat="44.50388" lon="1.58072">
        <ele>270.6</ele>
        <time>2026-03-22T08:38:25Z</time>
      </trkpt>
      <trkpt lat="44.50384" lon="1.58071">
        <ele>270.6</ele>
        <time>2026-03-22T08:38:26Z</time>
      </trkpt>
      <trkpt lat="44.50381" lon="1.58072">
        <ele>270.6</ele>
        <time>2026-03-22T08:38:27Z</time>
      </trkpt>
      <trkpt lat="44.50377" lon="1.58071">
        <ele>270.6</ele>
        <time>2026-03-22T08:38:28Z</time>
      </trkpt>
      <trkpt lat="44.50374" lon="1.5807">
        <ele>270.6</ele>
        <time>2026-03-22T08:38:29Z</time>
      </trkpt>
      <trkpt lat="44.5037" lon="1.58068">
        <ele>270.8</ele>
        <time>2026-03-22T08:38:30Z</time>
      </trkpt>
      <trkpt lat="44.50367" lon="1.58067">
        <ele>271.2</ele>
        <time>2026-03-22T08:38:31Z</time>
      </trkpt>
      <trkpt lat="44.50352" lon="1.5806">
        <ele>272.6</ele>
        <time>2026-03-22T08:38:35Z</time>
      </trkpt>
      <trkpt lat="44.50348" lon="1.58058">
        <ele>272.8</ele>
        <time>2026-03-22T08:38:36Z</time>
      </trkpt>
      <trkpt lat="44.50341" lon="1.58054">
        <ele>274.2</ele>
        <time>2026-03-22T08:38:38Z</time>
      </trkpt>
      <trkpt lat="44.50331" lon="1.58047">
        <ele>275.2</ele>
        <time>2026-03-22T08:38:41Z</time>
      </trkpt>
      <trkpt lat="44.50315" lon="1.58037">
        <ele>276.6</ele>
        <time>2026-03-22T08:38:45Z</time>
      </trkpt>
      <trkpt lat="44.50296" lon="1.58025">
        <ele>277.6</ele>
        <time>2026-03-22T08:38:50Z</time>
      </trkpt>
      <trkpt lat="44.50292" lon="1.58022">
        <ele>277.8</ele>
        <time>2026-03-22T08:38:51Z</time>
      </trkpt>
      <trkpt lat="44.50288" lon="1.58018">
        <ele>278.2</ele>
        <time>2026-03-22T08:38:52Z</time>
      </trkpt>
      <trkpt lat="44.50283" lon="1.58014">
        <ele>278.4</ele>
        <time>2026-03-22T08:38:53Z</time>
      </trkpt>
      <trkpt lat="44.50279" lon="1.58009">
        <ele>278.8</ele>
        <time>2026-03-22T08:38:54Z</time>
      </trkpt>
      <trkpt lat="44.50275" lon="1.58004">
        <ele>279</ele>
        <time>2026-03-22T08:38:55Z</time>
      </trkpt>
      <trkpt lat="44.50271" lon="1.58">
        <ele>279.2</ele>
        <time>2026-03-22T08:38:56Z</time>
      </trkpt>
      <trkpt lat="44.50266" lon="1.57995">
        <ele>279.4</ele>
        <time>2026-03-22T08:38:57Z</time>
      </trkpt>
      <trkpt lat="44.50261" lon="1.57991">
        <ele>279.4</ele>
        <time>2026-03-22T08:38:58Z</time>
      </trkpt>
      <trkpt lat="44.50256" lon="1.57987">
        <ele>279.6</ele>
        <time>2026-03-22T08:38:59Z</time>
      </trkpt>
      <trkpt lat="44.50252" lon="1.57983">
        <ele>279.6</ele>
        <time>2026-03-22T08:39:00Z</time>
      </trkpt>
      <trkpt lat="44.50247" lon="1.5798">
        <ele>279.8</ele>
        <time>2026-03-22T08:39:01Z</time>
      </trkpt>
      <trkpt lat="44.50242" lon="1.57977">
        <ele>280.2</ele>
        <time>2026-03-22T08:39:02Z</time>
      </trkpt>
      <trkpt lat="44.50237" lon="1.57976">
        <ele>280.2</ele>
        <time>2026-03-22T08:39:03Z</time>
      </trkpt>
      <trkpt lat="44.50232" lon="1.57975">
        <ele>280.4</ele>
        <time>2026-03-22T08:39:04Z</time>
      </trkpt>
      <trkpt lat="44.50226" lon="1.57974">
        <ele>280.6</ele>
        <time>2026-03-22T08:39:05Z</time>
      </trkpt>
      <trkpt lat="44.5022" lon="1.57972">
        <ele>280.6</ele>
        <time>2026-03-22T08:39:06Z</time>
      </trkpt>
      <trkpt lat="44.50215" lon="1.5797">
        <ele>280.6</ele>
        <time>2026-03-22T08:39:07Z</time>
      </trkpt>
      <trkpt lat="44.50209" lon="1.57968">
        <ele>280.8</ele>
        <time>2026-03-22T08:39:08Z</time>
      </trkpt>
      <trkpt lat="44.50204" lon="1.57966">
        <ele>281</ele>
        <time>2026-03-22T08:39:09Z</time>
      </trkpt>
      <trkpt lat="44.50198" lon="1.57963">
        <ele>281.2</ele>
        <time>2026-03-22T08:39:10Z</time>
      </trkpt>
      <trkpt lat="44.50193" lon="1.5796">
        <ele>281.4</ele>
        <time>2026-03-22T08:39:11Z</time>
      </trkpt>
      <trkpt lat="44.50188" lon="1.57955">
        <ele>281.4</ele>
        <time>2026-03-22T08:39:12Z</time>
      </trkpt>
      <trkpt lat="44.50183" lon="1.57951">
        <ele>281.6</ele>
        <time>2026-03-22T08:39:13Z</time>
      </trkpt>
      <trkpt lat="44.50179" lon="1.57946">
        <ele>281.6</ele>
        <time>2026-03-22T08:39:14Z</time>
      </trkpt>
      <trkpt lat="44.50174" lon="1.57942">
        <ele>281.8</ele>
        <time>2026-03-22T08:39:15Z</time>
      </trkpt>
      <trkpt lat="44.50171" lon="1.57937">
        <ele>282</ele>
        <time>2026-03-22T08:39:16Z</time>
      </trkpt>
      <trkpt lat="44.50167" lon="1.57932">
        <ele>282.4</ele>
        <time>2026-03-22T08:39:17Z</time>
      </trkpt>
      <trkpt lat="44.50164" lon="1.57928">
        <ele>282.6</ele>
        <time>2026-03-22T08:39:18Z</time>
      </trkpt>
      <trkpt lat="44.5016" lon="1.57924">
        <ele>283</ele>
        <time>2026-03-22T08:39:19Z</time>
      </trkpt>
      <trkpt lat="44.50156" lon="1.57919">
        <ele>283.2</ele>
        <time>2026-03-22T08:39:20Z</time>
      </trkpt>
      <trkpt lat="44.50153" lon="1.57914">
        <ele>283.4</ele>
        <time>2026-03-22T08:39:21Z</time>
      </trkpt>
      <trkpt lat="44.5015" lon="1.5791">
        <ele>283.8</ele>
        <time>2026-03-22T08:39:22Z</time>
      </trkpt>
      <trkpt lat="44.50147" lon="1.57905">
        <ele>284.2</ele>
        <time>2026-03-22T08:39:23Z</time>
      </trkpt>
      <trkpt lat="44.50143" lon="1.57899">
        <ele>284.6</ele>
        <time>2026-03-22T08:39:24Z</time>
      </trkpt>
      <trkpt lat="44.50141" lon="1.57895">
        <ele>285.2</ele>
        <time>2026-03-22T08:39:25Z</time>
      </trkpt>
      <trkpt lat="44.50138" lon="1.5789">
        <ele>285.6</ele>
        <time>2026-03-22T08:39:26Z</time>
      </trkpt>
      <trkpt lat="44.50135" lon="1.57885">
        <ele>286</ele>
        <time>2026-03-22T08:39:27Z</time>
      </trkpt>
      <trkpt lat="44.50133" lon="1.5788">
        <ele>287</ele>
        <time>2026-03-22T08:39:28Z</time>
      </trkpt>
      <trkpt lat="44.50131" lon="1.57874">
        <ele>287.6</ele>
        <time>2026-03-22T08:39:29Z</time>
      </trkpt>
      <trkpt lat="44.50128" lon="1.57869">
        <ele>288.2</ele>
        <time>2026-03-22T08:39:30Z</time>
      </trkpt>
      <trkpt lat="44.50126" lon="1.57864">
        <ele>288.6</ele>
        <time>2026-03-22T08:39:31Z</time>
      </trkpt>
      <trkpt lat="44.50123" lon="1.5786">
        <ele>289</ele>
        <time>2026-03-22T08:39:32Z</time>
      </trkpt>
      <trkpt lat="44.5012" lon="1.57855">
        <ele>289.2</ele>
        <time>2026-03-22T08:39:33Z</time>
      </trkpt>
      <trkpt lat="44.50117" lon="1.57851">
        <ele>289.8</ele>
        <time>2026-03-22T08:39:34Z</time>
      </trkpt>
      <trkpt lat="44.50114" lon="1.57846">
        <ele>290</ele>
        <time>2026-03-22T08:39:35Z</time>
      </trkpt>
      <trkpt lat="44.50111" lon="1.57842">
        <ele>290.4</ele>
        <time>2026-03-22T08:39:36Z</time>
      </trkpt>
      <trkpt lat="44.50107" lon="1.57838">
        <ele>290.6</ele>
        <time>2026-03-22T08:39:37Z</time>
      </trkpt>
      <trkpt lat="44.50104" lon="1.57834">
        <ele>291.2</ele>
        <time>2026-03-22T08:39:38Z</time>
      </trkpt>
      <trkpt lat="44.501" lon="1.5783">
        <ele>291.8</ele>
        <time>2026-03-22T08:39:39Z</time>
      </trkpt>
      <trkpt lat="44.50096" lon="1.57826">
        <ele>292</ele>
        <time>2026-03-22T08:39:40Z</time>
      </trkpt>
      <trkpt lat="44.50092" lon="1.57821">
        <ele>292.2</ele>
        <time>2026-03-22T08:39:41Z</time>
      </trkpt>
      <trkpt lat="44.50088" lon="1.57817">
        <ele>292.2</ele>
        <time>2026-03-22T08:39:42Z</time>
      </trkpt>
      <trkpt lat="44.50084" lon="1.57811">
        <ele>292.6</ele>
        <time>2026-03-22T08:39:43Z</time>
      </trkpt>
      <trkpt lat="44.50081" lon="1.57806">
        <ele>292.8</ele>
        <time>2026-03-22T08:39:44Z</time>
      </trkpt>
      <trkpt lat="44.50077" lon="1.57801">
        <ele>293.2</ele>
        <time>2026-03-22T08:39:45Z</time>
      </trkpt>
      <trkpt lat="44.50074" lon="1.57796">
        <ele>293.4</ele>
        <time>2026-03-22T08:39:46Z</time>
      </trkpt>
      <trkpt lat="44.50071" lon="1.57791">
        <ele>293.6</ele>
        <time>2026-03-22T08:39:47Z</time>
      </trkpt>
      <trkpt lat="44.50068" lon="1.57786">
        <ele>293.6</ele>
        <time>2026-03-22T08:39:48Z</time>
      </trkpt>
      <trkpt lat="44.50065" lon="1.57781">
        <ele>293.6</ele>
        <time>2026-03-22T08:39:49Z</time>
      </trkpt>
      <trkpt lat="44.50062" lon="1.57776">
        <ele>293.8</ele>
        <time>2026-03-22T08:39:50Z</time>
      </trkpt>
      <trkpt lat="44.50058" lon="1.57772">
        <ele>293.8</ele>
        <time>2026-03-22T08:39:51Z</time>
      </trkpt>
      <trkpt lat="44.50055" lon="1.57768">
        <ele>294</ele>
        <time>2026-03-22T08:39:52Z</time>
      </trkpt>
      <trkpt lat="44.50051" lon="1.57764">
        <ele>294.2</ele>
        <time>2026-03-22T08:39:53Z</time>
      </trkpt>
      <trkpt lat="44.50047" lon="1.5776">
        <ele>294.4</ele>
        <time>2026-03-22T08:39:54Z</time>
      </trkpt>
      <trkpt lat="44.50043" lon="1.57756">
        <ele>294.6</ele>
        <time>2026-03-22T08:39:55Z</time>
      </trkpt>
      <trkpt lat="44.50039" lon="1.57752">
        <ele>294.8</ele>
        <time>2026-03-22T08:39:56Z</time>
      </trkpt>
      <trkpt lat="44.50036" lon="1.57748">
        <ele>295</ele>
        <time>2026-03-22T08:39:57Z</time>
      </trkpt>
      <trkpt lat="44.50031" lon="1.57744">
        <ele>295.2</ele>
        <time>2026-03-22T08:39:58Z</time>
      </trkpt>
      <trkpt lat="44.50028" lon="1.57741">
        <ele>295.4</ele>
        <time>2026-03-22T08:39:59Z</time>
      </trkpt>
      <trkpt lat="44.50024" lon="1.57737">
        <ele>295.6</ele>
        <time>2026-03-22T08:40:00Z</time>
      </trkpt>
      <trkpt lat="44.5002" lon="1.57734">
        <ele>295.6</ele>
        <time>2026-03-22T08:40:01Z</time>
      </trkpt>
      <trkpt lat="44.50016" lon="1.57731">
        <ele>295.8</ele>
        <time>2026-03-22T08:40:02Z</time>
      </trkpt>
      <trkpt lat="44.50012" lon="1.57728">
        <ele>295.8</ele>
        <time>2026-03-22T08:40:03Z</time>
      </trkpt>
      <trkpt lat="44.50007" lon="1.57725">
        <ele>296</ele>
        <time>2026-03-22T08:40:04Z</time>
      </trkpt>
      <trkpt lat="44.50003" lon="1.57722">
        <ele>296.2</ele>
        <time>2026-03-22T08:40:05Z</time>
      </trkpt>
      <trkpt lat="44.49998" lon="1.57719">
        <ele>296.4</ele>
        <time>2026-03-22T08:40:06Z</time>
      </trkpt>
      <trkpt lat="44.49993" lon="1.57716">
        <ele>296.6</ele>
        <time>2026-03-22T08:40:07Z</time>
      </trkpt>
      <trkpt lat="44.49988" lon="1.57713">
        <ele>296.6</ele>
        <time>2026-03-22T08:40:08Z</time>
      </trkpt>
      <trkpt lat="44.49983" lon="1.5771">
        <ele>296.8</ele>
        <time>2026-03-22T08:40:09Z</time>
      </trkpt>
      <trkpt lat="44.49978" lon="1.57707">
        <ele>297</ele>
        <time>2026-03-22T08:40:10Z</time>
      </trkpt>
      <trkpt lat="44.49973" lon="1.57704">
        <ele>297.2</ele>
        <time>2026-03-22T08:40:11Z</time>
      </trkpt>
      <trkpt lat="44.49968" lon="1.57701">
        <ele>297.2</ele>
        <time>2026-03-22T08:40:12Z</time>
      </trkpt>
      <trkpt lat="44.49964" lon="1.57697">
        <ele>297.4</ele>
        <time>2026-03-22T08:40:13Z</time>
      </trkpt>
      <trkpt lat="44.49959" lon="1.57694">
        <ele>297.4</ele>
        <time>2026-03-22T08:40:14Z</time>
      </trkpt>
      <trkpt lat="44.49954" lon="1.5769">
        <ele>297.4</ele>
        <time>2026-03-22T08:40:15Z</time>
      </trkpt>
      <trkpt lat="44.49949" lon="1.57687">
        <ele>297.4</ele>
        <time>2026-03-22T08:40:16Z</time>
      </trkpt>
      <trkpt lat="44.49943" lon="1.57684">
        <ele>297.6</ele>
        <time>2026-03-22T08:40:17Z</time>
      </trkpt>
      <trkpt lat="44.49938" lon="1.57682">
        <ele>297.6</ele>
        <time>2026-03-22T08:40:18Z</time>
      </trkpt>
      <trkpt lat="44.49933" lon="1.57679">
        <ele>297.6</ele>
        <time>2026-03-22T08:40:19Z</time>
      </trkpt>
      <trkpt lat="44.49928" lon="1.57677">
        <ele>297.8</ele>
        <time>2026-03-22T08:40:20Z</time>
      </trkpt>
      <trkpt lat="44.49923" lon="1.57674">
        <ele>298</ele>
        <time>2026-03-22T08:40:21Z</time>
      </trkpt>
      <trkpt lat="44.49917" lon="1.57672">
        <ele>298</ele>
        <time>2026-03-22T08:40:22Z</time>
      </trkpt>
      <trkpt lat="44.49912" lon="1.5767">
        <ele>298.2</ele>
        <time>2026-03-22T08:40:23Z</time>
      </trkpt>
      <trkpt lat="44.49907" lon="1.57668">
        <ele>298.2</ele>
        <time>2026-03-22T08:40:24Z</time>
      </trkpt>
      <trkpt lat="44.49903" lon="1.57666">
        <ele>298.4</ele>
        <time>2026-03-22T08:40:25Z</time>
      </trkpt>
      <trkpt lat="44.49897" lon="1.57664">
        <ele>298.4</ele>
        <time>2026-03-22T08:40:26Z</time>
      </trkpt>
      <trkpt lat="44.49892" lon="1.57663">
        <ele>298.4</ele>
        <time>2026-03-22T08:40:27Z</time>
      </trkpt>
      <trkpt lat="44.49888" lon="1.57662">
        <ele>298.4</ele>
        <time>2026-03-22T08:40:28Z</time>
      </trkpt>
      <trkpt lat="44.49883" lon="1.5766">
        <ele>298.4</ele>
        <time>2026-03-22T08:40:29Z</time>
      </trkpt>
      <trkpt lat="44.49878" lon="1.57657">
        <ele>298.8</ele>
        <time>2026-03-22T08:40:30Z</time>
      </trkpt>
      <trkpt lat="44.49873" lon="1.57655">
        <ele>298.8</ele>
        <time>2026-03-22T08:40:31Z</time>
      </trkpt>
      <trkpt lat="44.49868" lon="1.57653">
        <ele>299</ele>
        <time>2026-03-22T08:40:32Z</time>
      </trkpt>
      <trkpt lat="44.49863" lon="1.57651">
        <ele>299.2</ele>
        <time>2026-03-22T08:40:33Z</time>
      </trkpt>
      <trkpt lat="44.49858" lon="1.57648">
        <ele>299.4</ele>
        <time>2026-03-22T08:40:34Z</time>
      </trkpt>
      <trkpt lat="44.49854" lon="1.57646">
        <ele>300</ele>
        <time>2026-03-22T08:40:35Z</time>
      </trkpt>
      <trkpt lat="44.49849" lon="1.57643">
        <ele>300.4</ele>
        <time>2026-03-22T08:40:36Z</time>
      </trkpt>
      <trkpt lat="44.49844" lon="1.5764">
        <ele>300.6</ele>
        <time>2026-03-22T08:40:37Z</time>
      </trkpt>
      <trkpt lat="44.49839" lon="1.57636">
        <ele>300.8</ele>
        <time>2026-03-22T08:40:38Z</time>
      </trkpt>
      <trkpt lat="44.49835" lon="1.57633">
        <ele>301.2</ele>
        <time>2026-03-22T08:40:39Z</time>
      </trkpt>
      <trkpt lat="44.4983" lon="1.57629">
        <ele>301.6</ele>
        <time>2026-03-22T08:40:40Z</time>
      </trkpt>
      <trkpt lat="44.49826" lon="1.57624">
        <ele>301.8</ele>
        <time>2026-03-22T08:40:41Z</time>
      </trkpt>
      <trkpt lat="44.49822" lon="1.5762">
        <ele>302.4</ele>
        <time>2026-03-22T08:40:42Z</time>
      </trkpt>
      <trkpt lat="44.49818" lon="1.57614">
        <ele>302.8</ele>
        <time>2026-03-22T08:40:43Z</time>
      </trkpt>
      <trkpt lat="44.49815" lon="1.57609">
        <ele>303</ele>
        <time>2026-03-22T08:40:44Z</time>
      </trkpt>
      <trkpt lat="44.49813" lon="1.57602">
        <ele>303.2</ele>
        <time>2026-03-22T08:40:45Z</time>
      </trkpt>
      <trkpt lat="44.49811" lon="1.57595">
        <ele>303.2</ele>
        <time>2026-03-22T08:40:46Z</time>
      </trkpt>
      <trkpt lat="44.4981" lon="1.57588">
        <ele>303.2</ele>
        <time>2026-03-22T08:40:47Z</time>
      </trkpt>
      <trkpt lat="44.49809" lon="1.57582">
        <ele>303.4</ele>
        <time>2026-03-22T08:40:48Z</time>
      </trkpt>
      <trkpt lat="44.49808" lon="1.57576">
        <ele>303.4</ele>
        <time>2026-03-22T08:40:49Z</time>
      </trkpt>
      <trkpt lat="44.49808" lon="1.57572">
        <ele>303.4</ele>
        <time>2026-03-22T08:40:50Z</time>
      </trkpt>
      <trkpt lat="44.49809" lon="1.57569">
        <ele>303.4</ele>
        <time>2026-03-22T08:40:51Z</time>
      </trkpt>
      <trkpt lat="44.49808" lon="1.57567">
        <ele>303.4</ele>
        <time>2026-03-22T08:40:52Z</time>
      </trkpt>
      <trkpt lat="44.49808" lon="1.57565">
        <ele>303.4</ele>
        <time>2026-03-22T08:40:53Z</time>
      </trkpt>
      <trkpt lat="44.49807" lon="1.57563">
        <ele>303.4</ele>
        <time>2026-03-22T08:40:54Z</time>
      </trkpt>
      <trkpt lat="44.49806" lon="1.5756">
        <ele>303.4</ele>
        <time>2026-03-22T08:40:55Z</time>
      </trkpt>
      <trkpt lat="44.49805" lon="1.57556">
        <ele>303.4</ele>
        <time>2026-03-22T08:40:56Z</time>
      </trkpt>
      <trkpt lat="44.49804" lon="1.57553">
        <ele>303.2</ele>
        <time>2026-03-22T08:40:57Z</time>
      </trkpt>
      <trkpt lat="44.49803" lon="1.57548">
        <ele>303.2</ele>
        <time>2026-03-22T08:40:58Z</time>
      </trkpt>
      <trkpt lat="44.49801" lon="1.57543">
        <ele>303.2</ele>
        <time>2026-03-22T08:40:59Z</time>
      </trkpt>
      <trkpt lat="44.498" lon="1.57538">
        <ele>303.2</ele>
        <time>2026-03-22T08:41:00Z</time>
      </trkpt>
      <trkpt lat="44.49799" lon="1.57532">
        <ele>303.2</ele>
        <time>2026-03-22T08:41:01Z</time>
      </trkpt>
      <trkpt lat="44.49798" lon="1.57528">
        <ele>303.2</ele>
        <time>2026-03-22T08:41:02Z</time>
      </trkpt>
      <trkpt lat="44.49797" lon="1.57523">
        <ele>303.2</ele>
        <time>2026-03-22T08:41:03Z</time>
      </trkpt>
      <trkpt lat="44.49795" lon="1.57519">
        <ele>303</ele>
        <time>2026-03-22T08:41:04Z</time>
      </trkpt>
      <trkpt lat="44.49794" lon="1.57515">
        <ele>303</ele>
        <time>2026-03-22T08:41:05Z</time>
      </trkpt>
      <trkpt lat="44.49786" lon="1.57491">
        <ele>303</ele>
        <time>2026-03-22T08:41:10Z</time>
      </trkpt>
      <trkpt lat="44.49772" lon="1.57463">
        <ele>303</ele>
        <time>2026-03-22T08:41:15Z</time>
      </trkpt>
      <trkpt lat="44.4977" lon="1.57457">
        <ele>303.2</ele>
        <time>2026-03-22T08:41:16Z</time>
      </trkpt>
      <trkpt lat="44.49759" lon="1.57429">
        <ele>303.2</ele>
        <time>2026-03-22T08:41:20Z</time>
      </trkpt>
      <trkpt lat="44.49756" lon="1.57422">
        <ele>303.2</ele>
        <time>2026-03-22T08:41:21Z</time>
      </trkpt>
      <trkpt lat="44.49746" lon="1.57403">
        <ele>303.2</ele>
        <time>2026-03-22T08:41:24Z</time>
      </trkpt>
      <trkpt lat="44.49737" lon="1.57381">
        <ele>303.2</ele>
        <time>2026-03-22T08:41:27Z</time>
      </trkpt>
      <trkpt lat="44.49711" lon="1.57345">
        <ele>303</ele>
        <time>2026-03-22T08:41:33Z</time>
      </trkpt>
      <trkpt lat="44.49706" lon="1.57338">
        <ele>302.8</ele>
        <time>2026-03-22T08:41:34Z</time>
      </trkpt>
      <trkpt lat="44.49689" lon="1.57306">
        <ele>302</ele>
        <time>2026-03-22T08:41:38Z</time>
      </trkpt>
      <trkpt lat="44.49684" lon="1.57298">
        <ele>301.6</ele>
        <time>2026-03-22T08:41:39Z</time>
      </trkpt>
      <trkpt lat="44.49675" lon="1.5728">
        <ele>301.2</ele>
        <time>2026-03-22T08:41:41Z</time>
      </trkpt>
      <trkpt lat="44.49665" lon="1.57262">
        <ele>300.6</ele>
        <time>2026-03-22T08:41:43Z</time>
      </trkpt>
      <trkpt lat="44.4966" lon="1.57253">
        <ele>300.2</ele>
        <time>2026-03-22T08:41:44Z</time>
      </trkpt>
      <trkpt lat="44.49648" lon="1.57235">
        <ele>299.4</ele>
        <time>2026-03-22T08:41:46Z</time>
      </trkpt>
      <trkpt lat="44.49629" lon="1.57206">
        <ele>297.8</ele>
        <time>2026-03-22T08:41:49Z</time>
      </trkpt>
      <trkpt lat="44.49622" lon="1.57196">
        <ele>296.8</ele>
        <time>2026-03-22T08:41:50Z</time>
      </trkpt>
      <trkpt lat="44.49616" lon="1.57186">
        <ele>296</ele>
        <time>2026-03-22T08:41:51Z</time>
      </trkpt>
      <trkpt lat="44.49609" lon="1.57176">
        <ele>295.4</ele>
        <time>2026-03-22T08:41:52Z</time>
      </trkpt>
      <trkpt lat="44.49599" lon="1.57157">
        <ele>293.6</ele>
        <time>2026-03-22T08:41:54Z</time>
      </trkpt>
      <trkpt lat="44.49594" lon="1.5715">
        <ele>292.4</ele>
        <time>2026-03-22T08:41:55Z</time>
      </trkpt>
      <trkpt lat="44.49592" lon="1.57142">
        <ele>291.6</ele>
        <time>2026-03-22T08:41:56Z</time>
      </trkpt>
      <trkpt lat="44.4959" lon="1.57135">
        <ele>291.2</ele>
        <time>2026-03-22T08:41:57Z</time>
      </trkpt>
      <trkpt lat="44.49589" lon="1.57128">
        <ele>290</ele>
        <time>2026-03-22T08:41:58Z</time>
      </trkpt>
      <trkpt lat="44.49587" lon="1.5712">
        <ele>289.4</ele>
        <time>2026-03-22T08:41:59Z</time>
      </trkpt>
      <trkpt lat="44.49585" lon="1.57111">
        <ele>288.6</ele>
        <time>2026-03-22T08:42:00Z</time>
      </trkpt>
      <trkpt lat="44.49579" lon="1.57092">
        <ele>287</ele>
        <time>2026-03-22T08:42:02Z</time>
      </trkpt>
      <trkpt lat="44.49569" lon="1.57062">
        <ele>285.6</ele>
        <time>2026-03-22T08:42:05Z</time>
      </trkpt>
      <trkpt lat="44.49562" lon="1.57043">
        <ele>284.4</ele>
        <time>2026-03-22T08:42:07Z</time>
      </trkpt>
      <trkpt lat="44.49559" lon="1.57034">
        <ele>284.2</ele>
        <time>2026-03-22T08:42:08Z</time>
      </trkpt>
      <trkpt lat="44.49556" lon="1.57025">
        <ele>283.8</ele>
        <time>2026-03-22T08:42:09Z</time>
      </trkpt>
      <trkpt lat="44.49554" lon="1.57016">
        <ele>283.6</ele>
        <time>2026-03-22T08:42:10Z</time>
      </trkpt>
      <trkpt lat="44.49551" lon="1.57007">
        <ele>283.2</ele>
        <time>2026-03-22T08:42:11Z</time>
      </trkpt>
      <trkpt lat="44.49548" lon="1.56999">
        <ele>282.8</ele>
        <time>2026-03-22T08:42:12Z</time>
      </trkpt>
      <trkpt lat="44.49545" lon="1.56991">
        <ele>282.2</ele>
        <time>2026-03-22T08:42:13Z</time>
      </trkpt>
      <trkpt lat="44.49542" lon="1.56984">
        <ele>281.6</ele>
        <time>2026-03-22T08:42:14Z</time>
      </trkpt>
      <trkpt lat="44.49539" lon="1.56978">
        <ele>281.2</ele>
        <time>2026-03-22T08:42:15Z</time>
      </trkpt>
      <trkpt lat="44.49536" lon="1.56972">
        <ele>280.6</ele>
        <time>2026-03-22T08:42:16Z</time>
      </trkpt>
      <trkpt lat="44.49532" lon="1.56966">
        <ele>280.2</ele>
        <time>2026-03-22T08:42:17Z</time>
      </trkpt>
      <trkpt lat="44.49529" lon="1.56961">
        <ele>279.8</ele>
        <time>2026-03-22T08:42:18Z</time>
      </trkpt>
      <trkpt lat="44.49525" lon="1.56956">
        <ele>279.4</ele>
        <time>2026-03-22T08:42:19Z</time>
      </trkpt>
      <trkpt lat="44.49522" lon="1.56951">
        <ele>279</ele>
        <time>2026-03-22T08:42:20Z</time>
      </trkpt>
      <trkpt lat="44.49518" lon="1.56946">
        <ele>278.4</ele>
        <time>2026-03-22T08:42:21Z</time>
      </trkpt>
      <trkpt lat="44.49515" lon="1.5694">
        <ele>278</ele>
        <time>2026-03-22T08:42:22Z</time>
      </trkpt>
      <trkpt lat="44.49511" lon="1.56935">
        <ele>277.6</ele>
        <time>2026-03-22T08:42:23Z</time>
      </trkpt>
      <trkpt lat="44.49497" lon="1.56914">
        <ele>276.8</ele>
        <time>2026-03-22T08:42:27Z</time>
      </trkpt>
      <trkpt lat="44.49484" lon="1.56895">
        <ele>276.4</ele>
        <time>2026-03-22T08:42:31Z</time>
      </trkpt>
      <trkpt lat="44.49481" lon="1.56891">
        <ele>276.2</ele>
        <time>2026-03-22T08:42:32Z</time>
      </trkpt>
      <trkpt lat="44.49479" lon="1.56887">
        <ele>276</ele>
        <time>2026-03-22T08:42:33Z</time>
      </trkpt>
      <trkpt lat="44.49478" lon="1.56884">
        <ele>275.8</ele>
        <time>2026-03-22T08:42:34Z</time>
      </trkpt>
      <trkpt lat="44.49479" lon="1.5688">
        <ele>275.8</ele>
        <time>2026-03-22T08:42:35Z</time>
      </trkpt>
      <trkpt lat="44.4948" lon="1.56877">
        <ele>275.8</ele>
        <time>2026-03-22T08:42:36Z</time>
      </trkpt>
      <trkpt lat="44.49483" lon="1.56872">
        <ele>275.6</ele>
        <time>2026-03-22T08:42:37Z</time>
      </trkpt>
      <trkpt lat="44.49486" lon="1.56868">
        <ele>275.6</ele>
        <time>2026-03-22T08:42:38Z</time>
      </trkpt>
      <trkpt lat="44.49489" lon="1.56865">
        <ele>275.6</ele>
        <time>2026-03-22T08:42:39Z</time>
      </trkpt>
      <trkpt lat="44.49506" lon="1.56845">
        <ele>275.4</ele>
        <time>2026-03-22T08:42:44Z</time>
      </trkpt>
      <trkpt lat="44.49509" lon="1.56841">
        <ele>275.4</ele>
        <time>2026-03-22T08:42:45Z</time>
      </trkpt>
      <trkpt lat="44.49514" lon="1.56832">
        <ele>275.6</ele>
        <time>2026-03-22T08:42:47Z</time>
      </trkpt>
      <trkpt lat="44.49516" lon="1.56827">
        <ele>276</ele>
        <time>2026-03-22T08:42:48Z</time>
      </trkpt>
      <trkpt lat="44.49517" lon="1.56822">
        <ele>276.2</ele>
        <time>2026-03-22T08:42:49Z</time>
      </trkpt>
      <trkpt lat="44.49517" lon="1.56817">
        <ele>276.4</ele>
        <time>2026-03-22T08:42:50Z</time>
      </trkpt>
      <trkpt lat="44.49517" lon="1.56813">
        <ele>276.6</ele>
        <time>2026-03-22T08:42:51Z</time>
      </trkpt>
      <trkpt lat="44.49516" lon="1.5681">
        <ele>277</ele>
        <time>2026-03-22T08:42:52Z</time>
      </trkpt>
      <trkpt lat="44.49516" lon="1.56808">
        <ele>277.4</ele>
        <time>2026-03-22T08:42:53Z</time>
      </trkpt>
      <trkpt lat="44.49516" lon="1.56805">
        <ele>277.8</ele>
        <time>2026-03-22T08:42:54Z</time>
      </trkpt>
      <trkpt lat="44.49516" lon="1.56797">
        <ele>278.4</ele>
        <time>2026-03-22T08:42:56Z</time>
      </trkpt>
      <trkpt lat="44.49515" lon="1.56793">
        <ele>279.2</ele>
        <time>2026-03-22T08:42:57Z</time>
      </trkpt>
      <trkpt lat="44.49514" lon="1.56789">
        <ele>279.8</ele>
        <time>2026-03-22T08:42:58Z</time>
      </trkpt>
      <trkpt lat="44.49512" lon="1.56785">
        <ele>280.2</ele>
        <time>2026-03-22T08:42:59Z</time>
      </trkpt>
      <trkpt lat="44.49511" lon="1.56782">
        <ele>280.6</ele>
        <time>2026-03-22T08:43:00Z</time>
      </trkpt>
      <trkpt lat="44.49509" lon="1.56779">
        <ele>281</ele>
        <time>2026-03-22T08:43:01Z</time>
      </trkpt>
      <trkpt lat="44.49507" lon="1.56775">
        <ele>281.4</ele>
        <time>2026-03-22T08:43:02Z</time>
      </trkpt>
      <trkpt lat="44.49505" lon="1.56771">
        <ele>281.6</ele>
        <time>2026-03-22T08:43:03Z</time>
      </trkpt>
      <trkpt lat="44.49503" lon="1.56768">
        <ele>282.6</ele>
        <time>2026-03-22T08:43:04Z</time>
      </trkpt>
      <trkpt lat="44.495" lon="1.56764">
        <ele>283.4</ele>
        <time>2026-03-22T08:43:05Z</time>
      </trkpt>
      <trkpt lat="44.49499" lon="1.56761">
        <ele>283.8</ele>
        <time>2026-03-22T08:43:06Z</time>
      </trkpt>
      <trkpt lat="44.49497" lon="1.56757">
        <ele>284.2</ele>
        <time>2026-03-22T08:43:07Z</time>
      </trkpt>
      <trkpt lat="44.49495" lon="1.56753">
        <ele>285</ele>
        <time>2026-03-22T08:43:08Z</time>
      </trkpt>
      <trkpt lat="44.49492" lon="1.56749">
        <ele>285.6</ele>
        <time>2026-03-22T08:43:09Z</time>
      </trkpt>
      <trkpt lat="44.4949" lon="1.56745">
        <ele>286</ele>
        <time>2026-03-22T08:43:10Z</time>
      </trkpt>
      <trkpt lat="44.49488" lon="1.56741">
        <ele>286.4</ele>
        <time>2026-03-22T08:43:11Z</time>
      </trkpt>
      <trkpt lat="44.49486" lon="1.56737">
        <ele>286.8</ele>
        <time>2026-03-22T08:43:12Z</time>
      </trkpt>
      <trkpt lat="44.49486" lon="1.56733">
        <ele>287</ele>
        <time>2026-03-22T08:43:13Z</time>
      </trkpt>
      <trkpt lat="44.49486" lon="1.56728">
        <ele>287.8</ele>
        <time>2026-03-22T08:43:14Z</time>
      </trkpt>
      <trkpt lat="44.49487" lon="1.56724">
        <ele>288.4</ele>
        <time>2026-03-22T08:43:15Z</time>
      </trkpt>
      <trkpt lat="44.49488" lon="1.5672">
        <ele>288.8</ele>
        <time>2026-03-22T08:43:16Z</time>
      </trkpt>
      <trkpt lat="44.49489" lon="1.56717">
        <ele>289.2</ele>
        <time>2026-03-22T08:43:17Z</time>
      </trkpt>
      <trkpt lat="44.49492" lon="1.56714">
        <ele>289.2</ele>
        <time>2026-03-22T08:43:18Z</time>
      </trkpt>
      <trkpt lat="44.49494" lon="1.5671">
        <ele>289.4</ele>
        <time>2026-03-22T08:43:19Z</time>
      </trkpt>
      <trkpt lat="44.49495" lon="1.56707">
        <ele>289.8</ele>
        <time>2026-03-22T08:43:20Z</time>
      </trkpt>
      <trkpt lat="44.49496" lon="1.56703">
        <ele>290.2</ele>
        <time>2026-03-22T08:43:21Z</time>
      </trkpt>
      <trkpt lat="44.49497" lon="1.56698">
        <ele>290.8</ele>
        <time>2026-03-22T08:43:22Z</time>
      </trkpt>
      <trkpt lat="44.49498" lon="1.56693">
        <ele>291.2</ele>
        <time>2026-03-22T08:43:23Z</time>
      </trkpt>
      <trkpt lat="44.49498" lon="1.56689">
        <ele>291.8</ele>
        <time>2026-03-22T08:43:24Z</time>
      </trkpt>
      <trkpt lat="44.49498" lon="1.56685">
        <ele>292.2</ele>
        <time>2026-03-22T08:43:25Z</time>
      </trkpt>
      <trkpt lat="44.49499" lon="1.56679">
        <ele>292.8</ele>
        <time>2026-03-22T08:43:26Z</time>
      </trkpt>
      <trkpt lat="44.49498" lon="1.56674">
        <ele>293.4</ele>
        <time>2026-03-22T08:43:27Z</time>
      </trkpt>
      <trkpt lat="44.49498" lon="1.56669">
        <ele>293.8</ele>
        <time>2026-03-22T08:43:28Z</time>
      </trkpt>
      <trkpt lat="44.49497" lon="1.56663">
        <ele>294.4</ele>
        <time>2026-03-22T08:43:29Z</time>
      </trkpt>
      <trkpt lat="44.49496" lon="1.56657">
        <ele>294.6</ele>
        <time>2026-03-22T08:43:30Z</time>
      </trkpt>
      <trkpt lat="44.49495" lon="1.56651">
        <ele>295</ele>
        <time>2026-03-22T08:43:31Z</time>
      </trkpt>
      <trkpt lat="44.49495" lon="1.56645">
        <ele>295.4</ele>
        <time>2026-03-22T08:43:32Z</time>
      </trkpt>
      <trkpt lat="44.49495" lon="1.56639">
        <ele>295.6</ele>
        <time>2026-03-22T08:43:33Z</time>
      </trkpt>
      <trkpt lat="44.49494" lon="1.56633">
        <ele>295.8</ele>
        <time>2026-03-22T08:43:34Z</time>
      </trkpt>
      <trkpt lat="44.49494" lon="1.56627">
        <ele>296</ele>
        <time>2026-03-22T08:43:35Z</time>
      </trkpt>
      <trkpt lat="44.49494" lon="1.5662">
        <ele>296.2</ele>
        <time>2026-03-22T08:43:36Z</time>
      </trkpt>
      <trkpt lat="44.49495" lon="1.56613">
        <ele>296.6</ele>
        <time>2026-03-22T08:43:37Z</time>
      </trkpt>
      <trkpt lat="44.49494" lon="1.56606">
        <ele>296.6</ele>
        <time>2026-03-22T08:43:38Z</time>
      </trkpt>
      <trkpt lat="44.49492" lon="1.56598">
        <ele>296.8</ele>
        <time>2026-03-22T08:43:39Z</time>
      </trkpt>
      <trkpt lat="44.4949" lon="1.56591">
        <ele>296.8</ele>
        <time>2026-03-22T08:43:40Z</time>
      </trkpt>
      <trkpt lat="44.49487" lon="1.56584">
        <ele>297</ele>
        <time>2026-03-22T08:43:41Z</time>
      </trkpt>
      <trkpt lat="44.49485" lon="1.56576">
        <ele>297</ele>
        <time>2026-03-22T08:43:42Z</time>
      </trkpt>
      <trkpt lat="44.49483" lon="1.56568">
        <ele>297</ele>
        <time>2026-03-22T08:43:43Z</time>
      </trkpt>
      <trkpt lat="44.49479" lon="1.56562">
        <ele>297</ele>
        <time>2026-03-22T08:43:44Z</time>
      </trkpt>
      <trkpt lat="44.49474" lon="1.56558">
        <ele>297</ele>
        <time>2026-03-22T08:43:45Z</time>
      </trkpt>
      <trkpt lat="44.49469" lon="1.56553">
        <ele>297</ele>
        <time>2026-03-22T08:43:46Z</time>
      </trkpt>
      <trkpt lat="44.49466" lon="1.56546">
        <ele>297</ele>
        <time>2026-03-22T08:43:47Z</time>
      </trkpt>
      <trkpt lat="44.49464" lon="1.56537">
        <ele>296.8</ele>
        <time>2026-03-22T08:43:48Z</time>
      </trkpt>
      <trkpt lat="44.49462" lon="1.56528">
        <ele>296.6</ele>
        <time>2026-03-22T08:43:49Z</time>
      </trkpt>
      <trkpt lat="44.49459" lon="1.56519">
        <ele>296.2</ele>
        <time>2026-03-22T08:43:50Z</time>
      </trkpt>
      <trkpt lat="44.49458" lon="1.56508">
        <ele>295.8</ele>
        <time>2026-03-22T08:43:51Z</time>
      </trkpt>
      <trkpt lat="44.49456" lon="1.56497">
        <ele>295.4</ele>
        <time>2026-03-22T08:43:52Z</time>
      </trkpt>
      <trkpt lat="44.49454" lon="1.56486">
        <ele>294.8</ele>
        <time>2026-03-22T08:43:53Z</time>
      </trkpt>
      <trkpt lat="44.49451" lon="1.56474">
        <ele>294.2</ele>
        <time>2026-03-22T08:43:54Z</time>
      </trkpt>
      <trkpt lat="44.49448" lon="1.56461">
        <ele>293.4</ele>
        <time>2026-03-22T08:43:55Z</time>
      </trkpt>
      <trkpt lat="44.49445" lon="1.56448">
        <ele>293</ele>
        <time>2026-03-22T08:43:56Z</time>
      </trkpt>
      <trkpt lat="44.49435" lon="1.56412">
        <ele>291.4</ele>
        <time>2026-03-22T08:43:59Z</time>
      </trkpt>
      <trkpt lat="44.49431" lon="1.56401">
        <ele>290.4</ele>
        <time>2026-03-22T08:44:00Z</time>
      </trkpt>
      <trkpt lat="44.49426" lon="1.56392">
        <ele>289</ele>
        <time>2026-03-22T08:44:01Z</time>
      </trkpt>
      <trkpt lat="44.49421" lon="1.56387">
        <ele>287.6</ele>
        <time>2026-03-22T08:44:02Z</time>
      </trkpt>
      <trkpt lat="44.49414" lon="1.56382">
        <ele>286.2</ele>
        <time>2026-03-22T08:44:03Z</time>
      </trkpt>
      <trkpt lat="44.49408" lon="1.56377">
        <ele>285.6</ele>
        <time>2026-03-22T08:44:04Z</time>
      </trkpt>
      <trkpt lat="44.49403" lon="1.5637">
        <ele>285</ele>
        <time>2026-03-22T08:44:05Z</time>
      </trkpt>
      <trkpt lat="44.49398" lon="1.56362">
        <ele>284</ele>
        <time>2026-03-22T08:44:06Z</time>
      </trkpt>
      <trkpt lat="44.49393" lon="1.56353">
        <ele>282.6</ele>
        <time>2026-03-22T08:44:07Z</time>
      </trkpt>
      <trkpt lat="44.49389" lon="1.56343">
        <ele>281.2</ele>
        <time>2026-03-22T08:44:08Z</time>
      </trkpt>
      <trkpt lat="44.49382" lon="1.56321">
        <ele>280</ele>
        <time>2026-03-22T08:44:10Z</time>
      </trkpt>
      <trkpt lat="44.4938" lon="1.5631">
        <ele>278</ele>
        <time>2026-03-22T08:44:11Z</time>
      </trkpt>
      <trkpt lat="44.49378" lon="1.56298">
        <ele>277.2</ele>
        <time>2026-03-22T08:44:12Z</time>
      </trkpt>
      <trkpt lat="44.49376" lon="1.56286">
        <ele>276</ele>
        <time>2026-03-22T08:44:13Z</time>
      </trkpt>
      <trkpt lat="44.49374" lon="1.56274">
        <ele>275.2</ele>
        <time>2026-03-22T08:44:14Z</time>
      </trkpt>
      <trkpt lat="44.49373" lon="1.56262">
        <ele>274.6</ele>
        <time>2026-03-22T08:44:15Z</time>
      </trkpt>
      <trkpt lat="44.49371" lon="1.56251">
        <ele>273.2</ele>
        <time>2026-03-22T08:44:16Z</time>
      </trkpt>
      <trkpt lat="44.49369" lon="1.56241">
        <ele>272.2</ele>
        <time>2026-03-22T08:44:17Z</time>
      </trkpt>
      <trkpt lat="44.49366" lon="1.56232">
        <ele>271.4</ele>
        <time>2026-03-22T08:44:18Z</time>
      </trkpt>
      <trkpt lat="44.49364" lon="1.56225">
        <ele>270.4</ele>
        <time>2026-03-22T08:44:19Z</time>
      </trkpt>
      <trkpt lat="44.49364" lon="1.56219">
        <ele>269.8</ele>
        <time>2026-03-22T08:44:20Z</time>
      </trkpt>
      <trkpt lat="44.49367" lon="1.56216">
        <ele>269</ele>
        <time>2026-03-22T08:44:21Z</time>
      </trkpt>
      <trkpt lat="44.49371" lon="1.56212">
        <ele>268.8</ele>
        <time>2026-03-22T08:44:22Z</time>
      </trkpt>
      <trkpt lat="44.49376" lon="1.56207">
        <ele>268.2</ele>
        <time>2026-03-22T08:44:23Z</time>
      </trkpt>
      <trkpt lat="44.49384" lon="1.56192">
        <ele>267.4</ele>
        <time>2026-03-22T08:44:25Z</time>
      </trkpt>
      <trkpt lat="44.49388" lon="1.56185">
        <ele>267</ele>
        <time>2026-03-22T08:44:26Z</time>
      </trkpt>
      <trkpt lat="44.49393" lon="1.5617">
        <ele>266.8</ele>
        <time>2026-03-22T08:44:28Z</time>
      </trkpt>
      <trkpt lat="44.49396" lon="1.56163">
        <ele>266.8</ele>
        <time>2026-03-22T08:44:29Z</time>
      </trkpt>
      <trkpt lat="44.494" lon="1.56156">
        <ele>266.6</ele>
        <time>2026-03-22T08:44:30Z</time>
      </trkpt>
      <trkpt lat="44.49408" lon="1.56144">
        <ele>266.6</ele>
        <time>2026-03-22T08:44:32Z</time>
      </trkpt>
      <trkpt lat="44.4942" lon="1.56126">
        <ele>266.6</ele>
        <time>2026-03-22T08:44:35Z</time>
      </trkpt>
      <trkpt lat="44.49424" lon="1.5612">
        <ele>266.6</ele>
        <time>2026-03-22T08:44:36Z</time>
      </trkpt>
      <trkpt lat="44.49428" lon="1.56115">
        <ele>266.6</ele>
        <time>2026-03-22T08:44:37Z</time>
      </trkpt>
      <trkpt lat="44.49433" lon="1.56111">
        <ele>266.6</ele>
        <time>2026-03-22T08:44:38Z</time>
      </trkpt>
      <trkpt lat="44.49438" lon="1.56108">
        <ele>266.6</ele>
        <time>2026-03-22T08:44:39Z</time>
      </trkpt>
      <trkpt lat="44.49444" lon="1.56105">
        <ele>266.6</ele>
        <time>2026-03-22T08:44:40Z</time>
      </trkpt>
      <trkpt lat="44.49449" lon="1.56103">
        <ele>266.6</ele>
        <time>2026-03-22T08:44:41Z</time>
      </trkpt>
      <trkpt lat="44.49455" lon="1.56103">
        <ele>266.8</ele>
        <time>2026-03-22T08:44:42Z</time>
      </trkpt>
      <trkpt lat="44.49461" lon="1.56103">
        <ele>266.8</ele>
        <time>2026-03-22T08:44:43Z</time>
      </trkpt>
      <trkpt lat="44.49467" lon="1.56104">
        <ele>267.2</ele>
        <time>2026-03-22T08:44:44Z</time>
      </trkpt>
      <trkpt lat="44.49471" lon="1.56106">
        <ele>267.4</ele>
        <time>2026-03-22T08:44:45Z</time>
      </trkpt>
      <trkpt lat="44.49478" lon="1.56109">
        <ele>267.6</ele>
        <time>2026-03-22T08:44:46Z</time>
      </trkpt>
      <trkpt lat="44.49485" lon="1.56112">
        <ele>267.8</ele>
        <time>2026-03-22T08:44:47Z</time>
      </trkpt>
      <trkpt lat="44.49501" lon="1.56125">
        <ele>268</ele>
        <time>2026-03-22T08:44:50Z</time>
      </trkpt>
      <trkpt lat="44.49506" lon="1.56126">
        <ele>268</ele>
        <time>2026-03-22T08:44:51Z</time>
      </trkpt>
      <trkpt lat="44.49514" lon="1.56128">
        <ele>268</ele>
        <time>2026-03-22T08:44:52Z</time>
      </trkpt>
      <trkpt lat="44.49522" lon="1.56129">
        <ele>268</ele>
        <time>2026-03-22T08:44:53Z</time>
      </trkpt>
      <trkpt lat="44.49539" lon="1.56135">
        <ele>268</ele>
        <time>2026-03-22T08:44:56Z</time>
      </trkpt>
      <trkpt lat="44.49561" lon="1.56141">
        <ele>266.2</ele>
        <time>2026-03-22T08:44:59Z</time>
      </trkpt>
      <trkpt lat="44.49567" lon="1.56146">
        <ele>266</ele>
        <time>2026-03-22T08:45:00Z</time>
      </trkpt>
      <trkpt lat="44.49572" lon="1.56151">
        <ele>265.8</ele>
        <time>2026-03-22T08:45:01Z</time>
      </trkpt>
      <trkpt lat="44.49577" lon="1.56157">
        <ele>265.6</ele>
        <time>2026-03-22T08:45:02Z</time>
      </trkpt>
      <trkpt lat="44.49582" lon="1.56162">
        <ele>265.4</ele>
        <time>2026-03-22T08:45:03Z</time>
      </trkpt>
      <trkpt lat="44.49588" lon="1.56166">
        <ele>265.2</ele>
        <time>2026-03-22T08:45:04Z</time>
      </trkpt>
      <trkpt lat="44.49593" lon="1.56172">
        <ele>265</ele>
        <time>2026-03-22T08:45:05Z</time>
      </trkpt>
      <trkpt lat="44.49598" lon="1.56178">
        <ele>264.2</ele>
        <time>2026-03-22T08:45:06Z</time>
      </trkpt>
      <trkpt lat="44.49602" lon="1.56184">
        <ele>263.6</ele>
        <time>2026-03-22T08:45:07Z</time>
      </trkpt>
      <trkpt lat="44.49606" lon="1.56191">
        <ele>263.4</ele>
        <time>2026-03-22T08:45:08Z</time>
      </trkpt>
      <trkpt lat="44.49609" lon="1.56198">
        <ele>263.2</ele>
        <time>2026-03-22T08:45:09Z</time>
      </trkpt>
      <trkpt lat="44.49613" lon="1.56215">
        <ele>263</ele>
        <time>2026-03-22T08:45:11Z</time>
      </trkpt>
      <trkpt lat="44.49614" lon="1.56224">
        <ele>263</ele>
        <time>2026-03-22T08:45:12Z</time>
      </trkpt>
      <trkpt lat="44.49615" lon="1.56232">
        <ele>262.8</ele>
        <time>2026-03-22T08:45:13Z</time>
      </trkpt>
      <trkpt lat="44.49616" lon="1.56241">
        <ele>262.8</ele>
        <time>2026-03-22T08:45:14Z</time>
      </trkpt>
      <trkpt lat="44.49619" lon="1.56257">
        <ele>262.8</ele>
        <time>2026-03-22T08:45:16Z</time>
      </trkpt>
      <trkpt lat="44.49621" lon="1.56268">
        <ele>262.2</ele>
        <time>2026-03-22T08:45:17Z</time>
      </trkpt>
      <trkpt lat="44.49624" lon="1.56276">
        <ele>262</ele>
        <time>2026-03-22T08:45:18Z</time>
      </trkpt>
      <trkpt lat="44.49627" lon="1.56284">
        <ele>261.6</ele>
        <time>2026-03-22T08:45:19Z</time>
      </trkpt>
      <trkpt lat="44.4963" lon="1.56293">
        <ele>261.4</ele>
        <time>2026-03-22T08:45:20Z</time>
      </trkpt>
      <trkpt lat="44.49642" lon="1.56315">
        <ele>260.8</ele>
        <time>2026-03-22T08:45:23Z</time>
      </trkpt>
      <trkpt lat="44.49645" lon="1.56321">
        <ele>260.4</ele>
        <time>2026-03-22T08:45:24Z</time>
      </trkpt>
      <trkpt lat="44.49647" lon="1.56325">
        <ele>260.2</ele>
        <time>2026-03-22T08:45:25Z</time>
      </trkpt>
      <trkpt lat="44.4965" lon="1.56328">
        <ele>260</ele>
        <time>2026-03-22T08:45:26Z</time>
      </trkpt>
      <trkpt lat="44.49654" lon="1.56332">
        <ele>259.8</ele>
        <time>2026-03-22T08:45:27Z</time>
      </trkpt>
      <trkpt lat="44.49662" lon="1.56344">
        <ele>259</ele>
        <time>2026-03-22T08:45:29Z</time>
      </trkpt>
      <trkpt lat="44.49666" lon="1.56351">
        <ele>257.8</ele>
        <time>2026-03-22T08:45:30Z</time>
      </trkpt>
      <trkpt lat="44.49669" lon="1.56358">
        <ele>257.2</ele>
        <time>2026-03-22T08:45:31Z</time>
      </trkpt>
      <trkpt lat="44.49673" lon="1.56364">
        <ele>256.8</ele>
        <time>2026-03-22T08:45:32Z</time>
      </trkpt>
      <trkpt lat="44.4968" lon="1.56375">
        <ele>255.6</ele>
        <time>2026-03-22T08:45:34Z</time>
      </trkpt>
      <trkpt lat="44.49682" lon="1.5638">
        <ele>255</ele>
        <time>2026-03-22T08:45:35Z</time>
      </trkpt>
      <trkpt lat="44.49684" lon="1.56385">
        <ele>254.4</ele>
        <time>2026-03-22T08:45:36Z</time>
      </trkpt>
      <trkpt lat="44.49692" lon="1.564">
        <ele>252.6</ele>
        <time>2026-03-22T08:45:38Z</time>
      </trkpt>
      <trkpt lat="44.49695" lon="1.56407">
        <ele>252</ele>
        <time>2026-03-22T08:45:39Z</time>
      </trkpt>
      <trkpt lat="44.49699" lon="1.56415">
        <ele>251</ele>
        <time>2026-03-22T08:45:40Z</time>
      </trkpt>
      <trkpt lat="44.49703" lon="1.56422">
        <ele>249.8</ele>
        <time>2026-03-22T08:45:41Z</time>
      </trkpt>
      <trkpt lat="44.49706" lon="1.5643">
        <ele>249.2</ele>
        <time>2026-03-22T08:45:42Z</time>
      </trkpt>
      <trkpt lat="44.4971" lon="1.56437">
        <ele>248.4</ele>
        <time>2026-03-22T08:45:43Z</time>
      </trkpt>
      <trkpt lat="44.49717" lon="1.5645">
        <ele>246.6</ele>
        <time>2026-03-22T08:45:45Z</time>
      </trkpt>
      <trkpt lat="44.49721" lon="1.56456">
        <ele>245.4</ele>
        <time>2026-03-22T08:45:46Z</time>
      </trkpt>
      <trkpt lat="44.49724" lon="1.56462">
        <ele>244.2</ele>
        <time>2026-03-22T08:45:47Z</time>
      </trkpt>
      <trkpt lat="44.49728" lon="1.56468">
        <ele>243</ele>
        <time>2026-03-22T08:45:48Z</time>
      </trkpt>
      <trkpt lat="44.4973" lon="1.56475">
        <ele>241.2</ele>
        <time>2026-03-22T08:45:49Z</time>
      </trkpt>
      <trkpt lat="44.49734" lon="1.56481">
        <ele>240.2</ele>
        <time>2026-03-22T08:45:50Z</time>
      </trkpt>
      <trkpt lat="44.49736" lon="1.56488">
        <ele>239.4</ele>
        <time>2026-03-22T08:45:51Z</time>
      </trkpt>
      <trkpt lat="44.49738" lon="1.56494">
        <ele>238.2</ele>
        <time>2026-03-22T08:45:52Z</time>
      </trkpt>
      <trkpt lat="44.49741" lon="1.56499">
        <ele>236.8</ele>
        <time>2026-03-22T08:45:53Z</time>
      </trkpt>
      <trkpt lat="44.49744" lon="1.56505">
        <ele>235.4</ele>
        <time>2026-03-22T08:45:54Z</time>
      </trkpt>
      <trkpt lat="44.49747" lon="1.56511">
        <ele>234.4</ele>
        <time>2026-03-22T08:45:55Z</time>
      </trkpt>
      <trkpt lat="44.49749" lon="1.56516">
        <ele>233.4</ele>
        <time>2026-03-22T08:45:56Z</time>
      </trkpt>
      <trkpt lat="44.49751" lon="1.56522">
        <ele>232.2</ele>
        <time>2026-03-22T08:45:57Z</time>
      </trkpt>
      <trkpt lat="44.49752" lon="1.56528">
        <ele>231</ele>
        <time>2026-03-22T08:45:58Z</time>
      </trkpt>
      <trkpt lat="44.49753" lon="1.56535">
        <ele>229.6</ele>
        <time>2026-03-22T08:45:59Z</time>
      </trkpt>
      <trkpt lat="44.49755" lon="1.56541">
        <ele>228.8</ele>
        <time>2026-03-22T08:46:00Z</time>
      </trkpt>
      <trkpt lat="44.49756" lon="1.56546">
        <ele>227.4</ele>
        <time>2026-03-22T08:46:01Z</time>
      </trkpt>
      <trkpt lat="44.49757" lon="1.56551">
        <ele>226.2</ele>
        <time>2026-03-22T08:46:02Z</time>
      </trkpt>
      <trkpt lat="44.49758" lon="1.56555">
        <ele>225.2</ele>
        <time>2026-03-22T08:46:03Z</time>
      </trkpt>
      <trkpt lat="44.49759" lon="1.56559">
        <ele>224.4</ele>
        <time>2026-03-22T08:46:04Z</time>
      </trkpt>
      <trkpt lat="44.49759" lon="1.56563">
        <ele>223.2</ele>
        <time>2026-03-22T08:46:05Z</time>
      </trkpt>
      <trkpt lat="44.4976" lon="1.56568">
        <ele>222.2</ele>
        <time>2026-03-22T08:46:06Z</time>
      </trkpt>
      <trkpt lat="44.49762" lon="1.56574">
        <ele>219.8</ele>
        <time>2026-03-22T08:46:07Z</time>
      </trkpt>
      <trkpt lat="44.49762" lon="1.5658">
        <ele>218.6</ele>
        <time>2026-03-22T08:46:08Z</time>
      </trkpt>
      <trkpt lat="44.49763" lon="1.56585">
        <ele>217.4</ele>
        <time>2026-03-22T08:46:09Z</time>
      </trkpt>
      <trkpt lat="44.49764" lon="1.56589">
        <ele>216.4</ele>
        <time>2026-03-22T08:46:10Z</time>
      </trkpt>
      <trkpt lat="44.49766" lon="1.56594">
        <ele>215.6</ele>
        <time>2026-03-22T08:46:11Z</time>
      </trkpt>
      <trkpt lat="44.49766" lon="1.56595">
        <ele>214.4</ele>
        <time>2026-03-22T08:46:12Z</time>
      </trkpt>
      <trkpt lat="44.49766" lon="1.56595">
        <ele>213.6</ele>
        <time>2026-03-22T08:46:13Z</time>
      </trkpt>
      <trkpt lat="44.49767" lon="1.56592">
        <ele>212.4</ele>
        <time>2026-03-22T08:46:14Z</time>
      </trkpt>
      <trkpt lat="44.4977" lon="1.56588">
        <ele>211.4</ele>
        <time>2026-03-22T08:46:15Z</time>
      </trkpt>
      <trkpt lat="44.49772" lon="1.56584">
        <ele>210.4</ele>
        <time>2026-03-22T08:46:16Z</time>
      </trkpt>
      <trkpt lat="44.49774" lon="1.5658">
        <ele>209.6</ele>
        <time>2026-03-22T08:46:17Z</time>
      </trkpt>
      <trkpt lat="44.49777" lon="1.56574">
        <ele>208.8</ele>
        <time>2026-03-22T08:46:18Z</time>
      </trkpt>
      <trkpt lat="44.49784" lon="1.56559">
        <ele>207.6</ele>
        <time>2026-03-22T08:46:20Z</time>
      </trkpt>
      <trkpt lat="44.49801" lon="1.56535">
        <ele>206</ele>
        <time>2026-03-22T08:46:23Z</time>
      </trkpt>
      <trkpt lat="44.49816" lon="1.56515">
        <ele>205.2</ele>
        <time>2026-03-22T08:46:25Z</time>
      </trkpt>
      <trkpt lat="44.49821" lon="1.56504">
        <ele>204.6</ele>
        <time>2026-03-22T08:46:26Z</time>
      </trkpt>
      <trkpt lat="44.49827" lon="1.56481">
        <ele>204</ele>
        <time>2026-03-22T08:46:28Z</time>
      </trkpt>
      <trkpt lat="44.49827" lon="1.56469">
        <ele>202.8</ele>
        <time>2026-03-22T08:46:29Z</time>
      </trkpt>
      <trkpt lat="44.49824" lon="1.56458">
        <ele>201.6</ele>
        <time>2026-03-22T08:46:30Z</time>
      </trkpt>
      <trkpt lat="44.4982" lon="1.56447">
        <ele>200.2</ele>
        <time>2026-03-22T08:46:31Z</time>
      </trkpt>
      <trkpt lat="44.49816" lon="1.56436">
        <ele>199</ele>
        <time>2026-03-22T08:46:32Z</time>
      </trkpt>
      <trkpt lat="44.49814" lon="1.56427">
        <ele>197</ele>
        <time>2026-03-22T08:46:33Z</time>
      </trkpt>
      <trkpt lat="44.49814" lon="1.56416">
        <ele>195.8</ele>
        <time>2026-03-22T08:46:34Z</time>
      </trkpt>
      <trkpt lat="44.49815" lon="1.56405">
        <ele>194.6</ele>
        <time>2026-03-22T08:46:35Z</time>
      </trkpt>
      <trkpt lat="44.49815" lon="1.56393">
        <ele>193.6</ele>
        <time>2026-03-22T08:46:36Z</time>
      </trkpt>
      <trkpt lat="44.49816" lon="1.56381">
        <ele>192.6</ele>
        <time>2026-03-22T08:46:37Z</time>
      </trkpt>
      <trkpt lat="44.49816" lon="1.56358">
        <ele>190.2</ele>
        <time>2026-03-22T08:46:39Z</time>
      </trkpt>
      <trkpt lat="44.49817" lon="1.56346">
        <ele>189.6</ele>
        <time>2026-03-22T08:46:40Z</time>
      </trkpt>
      <trkpt lat="44.49818" lon="1.56333">
        <ele>188.4</ele>
        <time>2026-03-22T08:46:41Z</time>
      </trkpt>
      <trkpt lat="44.49821" lon="1.5632">
        <ele>186.4</ele>
        <time>2026-03-22T08:46:42Z</time>
      </trkpt>
      <trkpt lat="44.49831" lon="1.56295">
        <ele>185</ele>
        <time>2026-03-22T08:46:44Z</time>
      </trkpt>
      <trkpt lat="44.49837" lon="1.56282">
        <ele>184.4</ele>
        <time>2026-03-22T08:46:45Z</time>
      </trkpt>
      <trkpt lat="44.49843" lon="1.5627">
        <ele>183.8</ele>
        <time>2026-03-22T08:46:46Z</time>
      </trkpt>
      <trkpt lat="44.49848" lon="1.56257">
        <ele>183</ele>
        <time>2026-03-22T08:46:47Z</time>
      </trkpt>
      <trkpt lat="44.49853" lon="1.56245">
        <ele>181.8</ele>
        <time>2026-03-22T08:46:48Z</time>
      </trkpt>
      <trkpt lat="44.49864" lon="1.5622">
        <ele>180.6</ele>
        <time>2026-03-22T08:46:50Z</time>
      </trkpt>
      <trkpt lat="44.4987" lon="1.56209">
        <ele>179.4</ele>
        <time>2026-03-22T08:46:51Z</time>
      </trkpt>
      <trkpt lat="44.49872" lon="1.56198">
        <ele>178.6</ele>
        <time>2026-03-22T08:46:52Z</time>
      </trkpt>
      <trkpt lat="44.49872" lon="1.56185">
        <ele>177.2</ele>
        <time>2026-03-22T08:46:53Z</time>
      </trkpt>
      <trkpt lat="44.49872" lon="1.56173">
        <ele>175.6</ele>
        <time>2026-03-22T08:46:54Z</time>
      </trkpt>
      <trkpt lat="44.49873" lon="1.56161">
        <ele>174.4</ele>
        <time>2026-03-22T08:46:55Z</time>
      </trkpt>
      <trkpt lat="44.49873" lon="1.56149">
        <ele>173.6</ele>
        <time>2026-03-22T08:46:56Z</time>
      </trkpt>
      <trkpt lat="44.49873" lon="1.56136">
        <ele>173</ele>
        <time>2026-03-22T08:46:57Z</time>
      </trkpt>
      <trkpt lat="44.49872" lon="1.56124">
        <ele>170.6</ele>
        <time>2026-03-22T08:46:58Z</time>
      </trkpt>
      <trkpt lat="44.4987" lon="1.56111">
        <ele>169.6</ele>
        <time>2026-03-22T08:46:59Z</time>
      </trkpt>
      <trkpt lat="44.49868" lon="1.56099">
        <ele>169</ele>
        <time>2026-03-22T08:47:00Z</time>
      </trkpt>
      <trkpt lat="44.49865" lon="1.56087">
        <ele>168</ele>
        <time>2026-03-22T08:47:01Z</time>
      </trkpt>
      <trkpt lat="44.49856" lon="1.56069">
        <ele>166</ele>
        <time>2026-03-22T08:47:03Z</time>
      </trkpt>
      <trkpt lat="44.49853" lon="1.56062">
        <ele>165.2</ele>
        <time>2026-03-22T08:47:04Z</time>
      </trkpt>
      <trkpt lat="44.49854" lon="1.56053">
        <ele>164.2</ele>
        <time>2026-03-22T08:47:05Z</time>
      </trkpt>
      <trkpt lat="44.49854" lon="1.56045">
        <ele>163.6</ele>
        <time>2026-03-22T08:47:06Z</time>
      </trkpt>
      <trkpt lat="44.49855" lon="1.56037">
        <ele>162.8</ele>
        <time>2026-03-22T08:47:07Z</time>
      </trkpt>
      <trkpt lat="44.49857" lon="1.56029">
        <ele>161.8</ele>
        <time>2026-03-22T08:47:08Z</time>
      </trkpt>
      <trkpt lat="44.49858" lon="1.56021">
        <ele>161</ele>
        <time>2026-03-22T08:47:09Z</time>
      </trkpt>
      <trkpt lat="44.49858" lon="1.56014">
        <ele>159.6</ele>
        <time>2026-03-22T08:47:10Z</time>
      </trkpt>
      <trkpt lat="44.49856" lon="1.56007">
        <ele>159</ele>
        <time>2026-03-22T08:47:11Z</time>
      </trkpt>
      <trkpt lat="44.49855" lon="1.56001">
        <ele>158.4</ele>
        <time>2026-03-22T08:47:12Z</time>
      </trkpt>
      <trkpt lat="44.49853" lon="1.55993">
        <ele>157.6</ele>
        <time>2026-03-22T08:47:13Z</time>
      </trkpt>
      <trkpt lat="44.4985" lon="1.55984">
        <ele>157</ele>
        <time>2026-03-22T08:47:14Z</time>
      </trkpt>
      <trkpt lat="44.49849" lon="1.55976">
        <ele>156.2</ele>
        <time>2026-03-22T08:47:15Z</time>
      </trkpt>
      <trkpt lat="44.4985" lon="1.55968">
        <ele>155.4</ele>
        <time>2026-03-22T08:47:16Z</time>
      </trkpt>
      <trkpt lat="44.49854" lon="1.55962">
        <ele>154.6</ele>
        <time>2026-03-22T08:47:17Z</time>
      </trkpt>
      <trkpt lat="44.49858" lon="1.55954">
        <ele>153.8</ele>
        <time>2026-03-22T08:47:18Z</time>
      </trkpt>
      <trkpt lat="44.49864" lon="1.55947">
        <ele>153</ele>
        <time>2026-03-22T08:47:19Z</time>
      </trkpt>
      <trkpt lat="44.49869" lon="1.55939">
        <ele>152.8</ele>
        <time>2026-03-22T08:47:20Z</time>
      </trkpt>
      <trkpt lat="44.4988" lon="1.55922">
        <ele>151.6</ele>
        <time>2026-03-22T08:47:22Z</time>
      </trkpt>
      <trkpt lat="44.49886" lon="1.55914">
        <ele>151.2</ele>
        <time>2026-03-22T08:47:23Z</time>
      </trkpt>
      <trkpt lat="44.49891" lon="1.55909">
        <ele>150.8</ele>
        <time>2026-03-22T08:47:24Z</time>
      </trkpt>
      <trkpt lat="44.49893" lon="1.55905">
        <ele>150.2</ele>
        <time>2026-03-22T08:47:25Z</time>
      </trkpt>
      <trkpt lat="44.49893" lon="1.559">
        <ele>149.8</ele>
        <time>2026-03-22T08:47:26Z</time>
      </trkpt>
      <trkpt lat="44.49893" lon="1.55897">
        <ele>148.8</ele>
        <time>2026-03-22T08:47:27Z</time>
      </trkpt>
      <trkpt lat="44.49888" lon="1.55895">
        <ele>148.2</ele>
        <time>2026-03-22T08:47:28Z</time>
      </trkpt>
      <trkpt lat="44.49883" lon="1.55894">
        <ele>147.2</ele>
        <time>2026-03-22T08:47:29Z</time>
      </trkpt>
      <trkpt lat="44.49875" lon="1.55891">
        <ele>145.6</ele>
        <time>2026-03-22T08:47:31Z</time>
      </trkpt>
      <trkpt lat="44.49871" lon="1.5589">
        <ele>145</ele>
        <time>2026-03-22T08:47:32Z</time>
      </trkpt>
      <trkpt lat="44.49867" lon="1.55889">
        <ele>144.6</ele>
        <time>2026-03-22T08:47:33Z</time>
      </trkpt>
      <trkpt lat="44.49864" lon="1.55888">
        <ele>144.2</ele>
        <time>2026-03-22T08:47:34Z</time>
      </trkpt>
      <trkpt lat="44.49861" lon="1.55887">
        <ele>144</ele>
        <time>2026-03-22T08:47:35Z</time>
      </trkpt>
      <trkpt lat="44.49858" lon="1.55887">
        <ele>144</ele>
        <time>2026-03-22T08:47:36Z</time>
      </trkpt>
      <trkpt lat="44.49856" lon="1.55886">
        <ele>143.8</ele>
        <time>2026-03-22T08:47:37Z</time>
      </trkpt>
      <trkpt lat="44.49854" lon="1.55885">
        <ele>143.8</ele>
        <time>2026-03-22T08:47:38Z</time>
      </trkpt>
      <trkpt lat="44.49852" lon="1.55885">
        <ele>143.6</ele>
        <time>2026-03-22T08:47:39Z</time>
      </trkpt>
      <trkpt lat="44.4985" lon="1.55885">
        <ele>143.6</ele>
        <time>2026-03-22T08:47:40Z</time>
      </trkpt>
      <trkpt lat="44.49848" lon="1.55886">
        <ele>143.6</ele>
        <time>2026-03-22T08:47:41Z</time>
      </trkpt>
      <trkpt lat="44.49839" lon="1.55882">
        <ele>143.6</ele>
        <time>2026-03-22T08:47:44Z</time>
      </trkpt>
      <trkpt lat="44.49836" lon="1.55881">
        <ele>143.6</ele>
        <time>2026-03-22T08:47:45Z</time>
      </trkpt>
      <trkpt lat="44.49815" lon="1.55873">
        <ele>143.4</ele>
        <time>2026-03-22T08:47:50Z</time>
      </trkpt>
      <trkpt lat="44.49806" lon="1.55864">
        <ele>143.4</ele>
        <time>2026-03-22T08:47:52Z</time>
      </trkpt>
      <trkpt lat="44.49797" lon="1.55855">
        <ele>143.4</ele>
        <time>2026-03-22T08:47:54Z</time>
      </trkpt>
      <trkpt lat="44.49792" lon="1.5585">
        <ele>143.4</ele>
        <time>2026-03-22T08:47:55Z</time>
      </trkpt>
      <trkpt lat="44.49777" lon="1.55831">
        <ele>143</ele>
        <time>2026-03-22T08:47:58Z</time>
      </trkpt>
      <trkpt lat="44.49764" lon="1.55812">
        <ele>142.4</ele>
        <time>2026-03-22T08:48:01Z</time>
      </trkpt>
      <trkpt lat="44.4976" lon="1.55806">
        <ele>142.6</ele>
        <time>2026-03-22T08:48:02Z</time>
      </trkpt>
      <trkpt lat="44.49758" lon="1.55799">
        <ele>142.4</ele>
        <time>2026-03-22T08:48:03Z</time>
      </trkpt>
      <trkpt lat="44.49752" lon="1.55791">
        <ele>142.4</ele>
        <time>2026-03-22T08:48:04Z</time>
      </trkpt>
      <trkpt lat="44.49741" lon="1.55773">
        <ele>142.2</ele>
        <time>2026-03-22T08:48:07Z</time>
      </trkpt>
      <trkpt lat="44.4973" lon="1.55756">
        <ele>142.2</ele>
        <time>2026-03-22T08:48:10Z</time>
      </trkpt>
      <trkpt lat="44.49727" lon="1.55751">
        <ele>142.2</ele>
        <time>2026-03-22T08:48:11Z</time>
      </trkpt>
      <trkpt lat="44.49724" lon="1.55745">
        <ele>142.2</ele>
        <time>2026-03-22T08:48:12Z</time>
      </trkpt>
      <trkpt lat="44.49722" lon="1.5574">
        <ele>142.2</ele>
        <time>2026-03-22T08:48:13Z</time>
      </trkpt>
      <trkpt lat="44.49719" lon="1.55735">
        <ele>142.4</ele>
        <time>2026-03-22T08:48:14Z</time>
      </trkpt>
      <trkpt lat="44.49713" lon="1.5572">
        <ele>142.8</ele>
        <time>2026-03-22T08:48:17Z</time>
      </trkpt>
      <trkpt lat="44.49709" lon="1.55712">
        <ele>143.4</ele>
        <time>2026-03-22T08:48:19Z</time>
      </trkpt>
      <trkpt lat="44.49707" lon="1.55707">
        <ele>143.6</ele>
        <time>2026-03-22T08:48:20Z</time>
      </trkpt>
      <trkpt lat="44.49705" lon="1.55703">
        <ele>144.2</ele>
        <time>2026-03-22T08:48:21Z</time>
      </trkpt>
      <trkpt lat="44.49702" lon="1.55699">
        <ele>144.6</ele>
        <time>2026-03-22T08:48:22Z</time>
      </trkpt>
      <trkpt lat="44.49701" lon="1.55695">
        <ele>145</ele>
        <time>2026-03-22T08:48:23Z</time>
      </trkpt>
      <trkpt lat="44.49699" lon="1.55691">
        <ele>145.4</ele>
        <time>2026-03-22T08:48:24Z</time>
      </trkpt>
      <trkpt lat="44.49696" lon="1.55687">
        <ele>145.8</ele>
        <time>2026-03-22T08:48:25Z</time>
      </trkpt>
      <trkpt lat="44.49696" lon="1.55683">
        <ele>146.4</ele>
        <time>2026-03-22T08:48:26Z</time>
      </trkpt>
      <trkpt lat="44.49697" lon="1.55678">
        <ele>147</ele>
        <time>2026-03-22T08:48:27Z</time>
      </trkpt>
      <trkpt lat="44.49698" lon="1.55675">
        <ele>147.8</ele>
        <time>2026-03-22T08:48:28Z</time>
      </trkpt>
      <trkpt lat="44.497" lon="1.5567">
        <ele>148.4</ele>
        <time>2026-03-22T08:48:29Z</time>
      </trkpt>
      <trkpt lat="44.49701" lon="1.55666">
        <ele>148.6</ele>
        <time>2026-03-22T08:48:30Z</time>
      </trkpt>
      <trkpt lat="44.49702" lon="1.55662">
        <ele>149.2</ele>
        <time>2026-03-22T08:48:31Z</time>
      </trkpt>
      <trkpt lat="44.49704" lon="1.55656">
        <ele>150</ele>
        <time>2026-03-22T08:48:32Z</time>
      </trkpt>
      <trkpt lat="44.49706" lon="1.5565">
        <ele>150.6</ele>
        <time>2026-03-22T08:48:33Z</time>
      </trkpt>
      <trkpt lat="44.49708" lon="1.55643">
        <ele>151.2</ele>
        <time>2026-03-22T08:48:34Z</time>
      </trkpt>
      <trkpt lat="44.4971" lon="1.55637">
        <ele>151.8</ele>
        <time>2026-03-22T08:48:35Z</time>
      </trkpt>
      <trkpt lat="44.49711" lon="1.55632">
        <ele>152.4</ele>
        <time>2026-03-22T08:48:36Z</time>
      </trkpt>
      <trkpt lat="44.49711" lon="1.55626">
        <ele>153</ele>
        <time>2026-03-22T08:48:37Z</time>
      </trkpt>
      <trkpt lat="44.49712" lon="1.55619">
        <ele>153.4</ele>
        <time>2026-03-22T08:48:38Z</time>
      </trkpt>
      <trkpt lat="44.49712" lon="1.55613">
        <ele>153.6</ele>
        <time>2026-03-22T08:48:39Z</time>
      </trkpt>
      <trkpt lat="44.49713" lon="1.55606">
        <ele>153.8</ele>
        <time>2026-03-22T08:48:40Z</time>
      </trkpt>
      <trkpt lat="44.49712" lon="1.556">
        <ele>153.8</ele>
        <time>2026-03-22T08:48:41Z</time>
      </trkpt>
      <trkpt lat="44.4971" lon="1.55594">
        <ele>153.8</ele>
        <time>2026-03-22T08:48:42Z</time>
      </trkpt>
      <trkpt lat="44.49709" lon="1.55588">
        <ele>154</ele>
        <time>2026-03-22T08:48:43Z</time>
      </trkpt>
      <trkpt lat="44.49707" lon="1.55583">
        <ele>154</ele>
        <time>2026-03-22T08:48:44Z</time>
      </trkpt>
      <trkpt lat="44.49705" lon="1.55577">
        <ele>154</ele>
        <time>2026-03-22T08:48:45Z</time>
      </trkpt>
      <trkpt lat="44.49701" lon="1.55572">
        <ele>154</ele>
        <time>2026-03-22T08:48:46Z</time>
      </trkpt>
      <trkpt lat="44.49697" lon="1.55568">
        <ele>154</ele>
        <time>2026-03-22T08:48:47Z</time>
      </trkpt>
      <trkpt lat="44.49693" lon="1.55565">
        <ele>154</ele>
        <time>2026-03-22T08:48:48Z</time>
      </trkpt>
      <trkpt lat="44.49688" lon="1.55563">
        <ele>154</ele>
        <time>2026-03-22T08:48:49Z</time>
      </trkpt>
      <trkpt lat="44.49684" lon="1.55561">
        <ele>154</ele>
        <time>2026-03-22T08:48:50Z</time>
      </trkpt>
      <trkpt lat="44.49679" lon="1.5556">
        <ele>154</ele>
        <time>2026-03-22T08:48:51Z</time>
      </trkpt>
      <trkpt lat="44.49675" lon="1.55561">
        <ele>154</ele>
        <time>2026-03-22T08:48:52Z</time>
      </trkpt>
      <trkpt lat="44.49672" lon="1.55564">
        <ele>154</ele>
        <time>2026-03-22T08:48:53Z</time>
      </trkpt>
      <trkpt lat="44.49671" lon="1.55567">
        <ele>154</ele>
        <time>2026-03-22T08:48:54Z</time>
      </trkpt>
      <trkpt lat="44.4967" lon="1.5557">
        <ele>154</ele>
        <time>2026-03-22T08:48:55Z</time>
      </trkpt>
      <trkpt lat="44.4967" lon="1.55572">
        <ele>154</ele>
        <time>2026-03-22T08:48:56Z</time>
      </trkpt>
      <trkpt lat="44.4967" lon="1.55575">
        <ele>154.2</ele>
        <time>2026-03-22T08:48:57Z</time>
      </trkpt>
      <trkpt lat="44.4967" lon="1.55578">
        <ele>154.2</ele>
        <time>2026-03-22T08:48:58Z</time>
      </trkpt>
      <trkpt lat="44.4967" lon="1.5558">
        <ele>154</ele>
        <time>2026-03-22T08:48:59Z</time>
      </trkpt>
      <trkpt lat="44.4967" lon="1.55583">
        <ele>154</ele>
        <time>2026-03-22T08:49:00Z</time>
      </trkpt>
      <trkpt lat="44.4967" lon="1.55586">
        <ele>154</ele>
        <time>2026-03-22T08:49:01Z</time>
      </trkpt>
      <trkpt lat="44.4967" lon="1.55589">
        <ele>154.4</ele>
        <time>2026-03-22T08:49:02Z</time>
      </trkpt>
      <trkpt lat="44.4967" lon="1.55593">
        <ele>155</ele>
        <time>2026-03-22T08:49:03Z</time>
      </trkpt>
      <trkpt lat="44.4967" lon="1.55596">
        <ele>155.4</ele>
        <time>2026-03-22T08:49:04Z</time>
      </trkpt>
      <trkpt lat="44.4967" lon="1.556">
        <ele>155.8</ele>
        <time>2026-03-22T08:49:05Z</time>
      </trkpt>
      <trkpt lat="44.4967" lon="1.55603">
        <ele>156.4</ele>
        <time>2026-03-22T08:49:06Z</time>
      </trkpt>
      <trkpt lat="44.49671" lon="1.55606">
        <ele>157</ele>
        <time>2026-03-22T08:49:07Z</time>
      </trkpt>
      <trkpt lat="44.49673" lon="1.55609">
        <ele>157.6</ele>
        <time>2026-03-22T08:49:08Z</time>
      </trkpt>
      <trkpt lat="44.49674" lon="1.55611">
        <ele>158.2</ele>
        <time>2026-03-22T08:49:09Z</time>
      </trkpt>
      <trkpt lat="44.49674" lon="1.55615">
        <ele>159</ele>
        <time>2026-03-22T08:49:10Z</time>
      </trkpt>
      <trkpt lat="44.49673" lon="1.55618">
        <ele>159.6</ele>
        <time>2026-03-22T08:49:11Z</time>
      </trkpt>
      <trkpt lat="44.49674" lon="1.55622">
        <ele>160</ele>
        <time>2026-03-22T08:49:12Z</time>
      </trkpt>
      <trkpt lat="44.49674" lon="1.55625">
        <ele>160.6</ele>
        <time>2026-03-22T08:49:13Z</time>
      </trkpt>
      <trkpt lat="44.49675" lon="1.55629">
        <ele>161.2</ele>
        <time>2026-03-22T08:49:14Z</time>
      </trkpt>
      <trkpt lat="44.49676" lon="1.55632">
        <ele>162</ele>
        <time>2026-03-22T08:49:15Z</time>
      </trkpt>
      <trkpt lat="44.49677" lon="1.55635">
        <ele>162.6</ele>
        <time>2026-03-22T08:49:16Z</time>
      </trkpt>
      <trkpt lat="44.49677" lon="1.55638">
        <ele>163</ele>
        <time>2026-03-22T08:49:17Z</time>
      </trkpt>
      <trkpt lat="44.49678" lon="1.55642">
        <ele>163.6</ele>
        <time>2026-03-22T08:49:18Z</time>
      </trkpt>
      <trkpt lat="44.49678" lon="1.55646">
        <ele>164.2</ele>
        <time>2026-03-22T08:49:19Z</time>
      </trkpt>
      <trkpt lat="44.49677" lon="1.55649">
        <ele>164.6</ele>
        <time>2026-03-22T08:49:20Z</time>
      </trkpt>
      <trkpt lat="44.49676" lon="1.55652">
        <ele>165</ele>
        <time>2026-03-22T08:49:21Z</time>
      </trkpt>
      <trkpt lat="44.49674" lon="1.55655">
        <ele>165.4</ele>
        <time>2026-03-22T08:49:22Z</time>
      </trkpt>
      <trkpt lat="44.49672" lon="1.55656">
        <ele>166</ele>
        <time>2026-03-22T08:49:23Z</time>
      </trkpt>
      <trkpt lat="44.4967" lon="1.55657">
        <ele>166.4</ele>
        <time>2026-03-22T08:49:24Z</time>
      </trkpt>
      <trkpt lat="44.49667" lon="1.55657">
        <ele>166.6</ele>
        <time>2026-03-22T08:49:25Z</time>
      </trkpt>
      <trkpt lat="44.49664" lon="1.55656">
        <ele>166.8</ele>
        <time>2026-03-22T08:49:26Z</time>
      </trkpt>
      <trkpt lat="44.49662" lon="1.55656">
        <ele>167.2</ele>
        <time>2026-03-22T08:49:27Z</time>
      </trkpt>
      <trkpt lat="44.49659" lon="1.55655">
        <ele>167.6</ele>
        <time>2026-03-22T08:49:28Z</time>
      </trkpt>
      <trkpt lat="44.49657" lon="1.55654">
        <ele>168</ele>
        <time>2026-03-22T08:49:29Z</time>
      </trkpt>
      <trkpt lat="44.49655" lon="1.55654">
        <ele>168.6</ele>
        <time>2026-03-22T08:49:30Z</time>
      </trkpt>
      <trkpt lat="44.49653" lon="1.55653">
        <ele>169</ele>
        <time>2026-03-22T08:49:31Z</time>
      </trkpt>
      <trkpt lat="44.4965" lon="1.55653">
        <ele>169.6</ele>
        <time>2026-03-22T08:49:32Z</time>
      </trkpt>
      <trkpt lat="44.49648" lon="1.55652">
        <ele>170</ele>
        <time>2026-03-22T08:49:33Z</time>
      </trkpt>
      <trkpt lat="44.49646" lon="1.55652">
        <ele>170.6</ele>
        <time>2026-03-22T08:49:34Z</time>
      </trkpt>
      <trkpt lat="44.49643" lon="1.55651">
        <ele>171</ele>
        <time>2026-03-22T08:49:35Z</time>
      </trkpt>
      <trkpt lat="44.49641" lon="1.55651">
        <ele>171.8</ele>
        <time>2026-03-22T08:49:36Z</time>
      </trkpt>
      <trkpt lat="44.49639" lon="1.55651">
        <ele>172.4</ele>
        <time>2026-03-22T08:49:37Z</time>
      </trkpt>
      <trkpt lat="44.49636" lon="1.55651">
        <ele>172.8</ele>
        <time>2026-03-22T08:49:38Z</time>
      </trkpt>
      <trkpt lat="44.49634" lon="1.5565">
        <ele>173.4</ele>
        <time>2026-03-22T08:49:39Z</time>
      </trkpt>
      <trkpt lat="44.49632" lon="1.5565">
        <ele>173.8</ele>
        <time>2026-03-22T08:49:40Z</time>
      </trkpt>
      <trkpt lat="44.4963" lon="1.5565">
        <ele>174.2</ele>
        <time>2026-03-22T08:49:41Z</time>
      </trkpt>
      <trkpt lat="44.49628" lon="1.55651">
        <ele>174.8</ele>
        <time>2026-03-22T08:49:42Z</time>
      </trkpt>
      <trkpt lat="44.49625" lon="1.55652">
        <ele>175.4</ele>
        <time>2026-03-22T08:49:43Z</time>
      </trkpt>
      <trkpt lat="44.49623" lon="1.55653">
        <ele>175.8</ele>
        <time>2026-03-22T08:49:44Z</time>
      </trkpt>
      <trkpt lat="44.49621" lon="1.55654">
        <ele>176.4</ele>
        <time>2026-03-22T08:49:45Z</time>
      </trkpt>
      <trkpt lat="44.49619" lon="1.55655">
        <ele>177</ele>
        <time>2026-03-22T08:49:46Z</time>
      </trkpt>
      <trkpt lat="44.49617" lon="1.55656">
        <ele>177.4</ele>
        <time>2026-03-22T08:49:47Z</time>
      </trkpt>
      <trkpt lat="44.49615" lon="1.55658">
        <ele>178.2</ele>
        <time>2026-03-22T08:49:48Z</time>
      </trkpt>
      <trkpt lat="44.49613" lon="1.55659">
        <ele>178.6</ele>
        <time>2026-03-22T08:49:49Z</time>
      </trkpt>
      <trkpt lat="44.49611" lon="1.55661">
        <ele>179.2</ele>
        <time>2026-03-22T08:49:50Z</time>
      </trkpt>
      <trkpt lat="44.49609" lon="1.55663">
        <ele>179.6</ele>
        <time>2026-03-22T08:49:51Z</time>
      </trkpt>
      <trkpt lat="44.49607" lon="1.55664">
        <ele>180.2</ele>
        <time>2026-03-22T08:49:52Z</time>
      </trkpt>
      <trkpt lat="44.49604" lon="1.55666">
        <ele>180.6</ele>
        <time>2026-03-22T08:49:53Z</time>
      </trkpt>
      <trkpt lat="44.49602" lon="1.55668">
        <ele>181.2</ele>
        <time>2026-03-22T08:49:54Z</time>
      </trkpt>
      <trkpt lat="44.49601" lon="1.55669">
        <ele>181.6</ele>
        <time>2026-03-22T08:49:55Z</time>
      </trkpt>
      <trkpt lat="44.49599" lon="1.55671">
        <ele>182</ele>
        <time>2026-03-22T08:49:56Z</time>
      </trkpt>
      <trkpt lat="44.49598" lon="1.55672">
        <ele>182.4</ele>
        <time>2026-03-22T08:49:57Z</time>
      </trkpt>
      <trkpt lat="44.49596" lon="1.55674">
        <ele>183</ele>
        <time>2026-03-22T08:49:58Z</time>
      </trkpt>
      <trkpt lat="44.49595" lon="1.55675">
        <ele>183.4</ele>
        <time>2026-03-22T08:49:59Z</time>
      </trkpt>
      <trkpt lat="44.49593" lon="1.55676">
        <ele>184</ele>
        <time>2026-03-22T08:50:00Z</time>
      </trkpt>
      <trkpt lat="44.49592" lon="1.55677">
        <ele>184.4</ele>
        <time>2026-03-22T08:50:01Z</time>
      </trkpt>
      <trkpt lat="44.4959" lon="1.55679">
        <ele>185.2</ele>
        <time>2026-03-22T08:50:02Z</time>
      </trkpt>
      <trkpt lat="44.49588" lon="1.5568">
        <ele>185.6</ele>
        <time>2026-03-22T08:50:03Z</time>
      </trkpt>
      <trkpt lat="44.49586" lon="1.55681">
        <ele>186.2</ele>
        <time>2026-03-22T08:50:04Z</time>
      </trkpt>
      <trkpt lat="44.49584" lon="1.55682">
        <ele>186.6</ele>
        <time>2026-03-22T08:50:05Z</time>
      </trkpt>
      <trkpt lat="44.49582" lon="1.55683">
        <ele>187</ele>
        <time>2026-03-22T08:50:06Z</time>
      </trkpt>
      <trkpt lat="44.4958" lon="1.55684">
        <ele>187.6</ele>
        <time>2026-03-22T08:50:07Z</time>
      </trkpt>
      <trkpt lat="44.49578" lon="1.55685">
        <ele>188</ele>
        <time>2026-03-22T08:50:08Z</time>
      </trkpt>
      <trkpt lat="44.49576" lon="1.55686">
        <ele>188.6</ele>
        <time>2026-03-22T08:50:09Z</time>
      </trkpt>
      <trkpt lat="44.49575" lon="1.55687">
        <ele>189</ele>
        <time>2026-03-22T08:50:10Z</time>
      </trkpt>
      <trkpt lat="44.49573" lon="1.55688">
        <ele>189.4</ele>
        <time>2026-03-22T08:50:11Z</time>
      </trkpt>
      <trkpt lat="44.49571" lon="1.55689">
        <ele>189.8</ele>
        <time>2026-03-22T08:50:12Z</time>
      </trkpt>
      <trkpt lat="44.4957" lon="1.5569">
        <ele>190.4</ele>
        <time>2026-03-22T08:50:13Z</time>
      </trkpt>
      <trkpt lat="44.49568" lon="1.55691">
        <ele>190.8</ele>
        <time>2026-03-22T08:50:14Z</time>
      </trkpt>
      <trkpt lat="44.49566" lon="1.55692">
        <ele>191.4</ele>
        <time>2026-03-22T08:50:15Z</time>
      </trkpt>
      <trkpt lat="44.49564" lon="1.55693">
        <ele>191.8</ele>
        <time>2026-03-22T08:50:16Z</time>
      </trkpt>
      <trkpt lat="44.49562" lon="1.55693">
        <ele>192.4</ele>
        <time>2026-03-22T08:50:17Z</time>
      </trkpt>
      <trkpt lat="44.4956" lon="1.55694">
        <ele>192.6</ele>
        <time>2026-03-22T08:50:18Z</time>
      </trkpt>
      <trkpt lat="44.49557" lon="1.55695">
        <ele>193</ele>
        <time>2026-03-22T08:50:19Z</time>
      </trkpt>
      <trkpt lat="44.49555" lon="1.55695">
        <ele>193.6</ele>
        <time>2026-03-22T08:50:20Z</time>
      </trkpt>
      <trkpt lat="44.49553" lon="1.55696">
        <ele>194.2</ele>
        <time>2026-03-22T08:50:21Z</time>
      </trkpt>
      <trkpt lat="44.49551" lon="1.55696">
        <ele>194.6</ele>
        <time>2026-03-22T08:50:22Z</time>
      </trkpt>
      <trkpt lat="44.49549" lon="1.55697">
        <ele>195.2</ele>
        <time>2026-03-22T08:50:23Z</time>
      </trkpt>
      <trkpt lat="44.49546" lon="1.55698">
        <ele>195.6</ele>
        <time>2026-03-22T08:50:24Z</time>
      </trkpt>
      <trkpt lat="44.49544" lon="1.55699">
        <ele>196.2</ele>
        <time>2026-03-22T08:50:25Z</time>
      </trkpt>
      <trkpt lat="44.49542" lon="1.55699">
        <ele>196.8</ele>
        <time>2026-03-22T08:50:26Z</time>
      </trkpt>
      <trkpt lat="44.4954" lon="1.55699">
        <ele>197.4</ele>
        <time>2026-03-22T08:50:27Z</time>
      </trkpt>
      <trkpt lat="44.49538" lon="1.557">
        <ele>198</ele>
        <time>2026-03-22T08:50:28Z</time>
      </trkpt>
      <trkpt lat="44.49535" lon="1.55701">
        <ele>198.6</ele>
        <time>2026-03-22T08:50:29Z</time>
      </trkpt>
      <trkpt lat="44.49534" lon="1.55702">
        <ele>199.4</ele>
        <time>2026-03-22T08:50:30Z</time>
      </trkpt>
      <trkpt lat="44.49531" lon="1.55702">
        <ele>200</ele>
        <time>2026-03-22T08:50:31Z</time>
      </trkpt>
      <trkpt lat="44.4953" lon="1.55703">
        <ele>200.4</ele>
        <time>2026-03-22T08:50:32Z</time>
      </trkpt>
      <trkpt lat="44.49528" lon="1.55704">
        <ele>200.8</ele>
        <time>2026-03-22T08:50:33Z</time>
      </trkpt>
      <trkpt lat="44.49525" lon="1.55705">
        <ele>201.4</ele>
        <time>2026-03-22T08:50:34Z</time>
      </trkpt>
      <trkpt lat="44.49523" lon="1.55706">
        <ele>201.8</ele>
        <time>2026-03-22T08:50:35Z</time>
      </trkpt>
      <trkpt lat="44.4952" lon="1.55707">
        <ele>202.2</ele>
        <time>2026-03-22T08:50:36Z</time>
      </trkpt>
      <trkpt lat="44.49517" lon="1.55708">
        <ele>202.8</ele>
        <time>2026-03-22T08:50:37Z</time>
      </trkpt>
      <trkpt lat="44.49515" lon="1.55709">
        <ele>203.4</ele>
        <time>2026-03-22T08:50:38Z</time>
      </trkpt>
      <trkpt lat="44.49512" lon="1.5571">
        <ele>203.8</ele>
        <time>2026-03-22T08:50:39Z</time>
      </trkpt>
      <trkpt lat="44.4951" lon="1.55711">
        <ele>204</ele>
        <time>2026-03-22T08:50:40Z</time>
      </trkpt>
      <trkpt lat="44.49508" lon="1.55712">
        <ele>204.4</ele>
        <time>2026-03-22T08:50:41Z</time>
      </trkpt>
      <trkpt lat="44.49505" lon="1.55714">
        <ele>204.8</ele>
        <time>2026-03-22T08:50:42Z</time>
      </trkpt>
      <trkpt lat="44.49503" lon="1.55715">
        <ele>205.2</ele>
        <time>2026-03-22T08:50:43Z</time>
      </trkpt>
      <trkpt lat="44.495" lon="1.55716">
        <ele>205.4</ele>
        <time>2026-03-22T08:50:44Z</time>
      </trkpt>
      <trkpt lat="44.49498" lon="1.55718">
        <ele>206</ele>
        <time>2026-03-22T08:50:45Z</time>
      </trkpt>
      <trkpt lat="44.49495" lon="1.5572">
        <ele>206.4</ele>
        <time>2026-03-22T08:50:46Z</time>
      </trkpt>
      <trkpt lat="44.49492" lon="1.55722">
        <ele>206.8</ele>
        <time>2026-03-22T08:50:47Z</time>
      </trkpt>
      <trkpt lat="44.49489" lon="1.55724">
        <ele>207.4</ele>
        <time>2026-03-22T08:50:48Z</time>
      </trkpt>
      <trkpt lat="44.49487" lon="1.55726">
        <ele>207.8</ele>
        <time>2026-03-22T08:50:49Z</time>
      </trkpt>
      <trkpt lat="44.49484" lon="1.55729">
        <ele>208.4</ele>
        <time>2026-03-22T08:50:50Z</time>
      </trkpt>
      <trkpt lat="44.49481" lon="1.55732">
        <ele>208.8</ele>
        <time>2026-03-22T08:50:51Z</time>
      </trkpt>
      <trkpt lat="44.49478" lon="1.55735">
        <ele>209.2</ele>
        <time>2026-03-22T08:50:52Z</time>
      </trkpt>
      <trkpt lat="44.49476" lon="1.55738">
        <ele>209.4</ele>
        <time>2026-03-22T08:50:53Z</time>
      </trkpt>
      <trkpt lat="44.49474" lon="1.55741">
        <ele>209.6</ele>
        <time>2026-03-22T08:50:54Z</time>
      </trkpt>
      <trkpt lat="44.49471" lon="1.55745">
        <ele>209.8</ele>
        <time>2026-03-22T08:50:55Z</time>
      </trkpt>
      <trkpt lat="44.49469" lon="1.55748">
        <ele>210.2</ele>
        <time>2026-03-22T08:50:56Z</time>
      </trkpt>
      <trkpt lat="44.49468" lon="1.55752">
        <ele>210.4</ele>
        <time>2026-03-22T08:50:57Z</time>
      </trkpt>
      <trkpt lat="44.49466" lon="1.55756">
        <ele>210.8</ele>
        <time>2026-03-22T08:50:58Z</time>
      </trkpt>
      <trkpt lat="44.49464" lon="1.55759">
        <ele>211</ele>
        <time>2026-03-22T08:50:59Z</time>
      </trkpt>
      <trkpt lat="44.49462" lon="1.55763">
        <ele>211.2</ele>
        <time>2026-03-22T08:51:00Z</time>
      </trkpt>
      <trkpt lat="44.49459" lon="1.55766">
        <ele>211.6</ele>
        <time>2026-03-22T08:51:01Z</time>
      </trkpt>
      <trkpt lat="44.49457" lon="1.5577">
        <ele>211.6</ele>
        <time>2026-03-22T08:51:02Z</time>
      </trkpt>
      <trkpt lat="44.49455" lon="1.55773">
        <ele>212.2</ele>
        <time>2026-03-22T08:51:03Z</time>
      </trkpt>
      <trkpt lat="44.49452" lon="1.55776">
        <ele>212.6</ele>
        <time>2026-03-22T08:51:04Z</time>
      </trkpt>
      <trkpt lat="44.4945" lon="1.55779">
        <ele>213</ele>
        <time>2026-03-22T08:51:05Z</time>
      </trkpt>
      <trkpt lat="44.49447" lon="1.55783">
        <ele>213.6</ele>
        <time>2026-03-22T08:51:06Z</time>
      </trkpt>
      <trkpt lat="44.49443" lon="1.55787">
        <ele>214</ele>
        <time>2026-03-22T08:51:07Z</time>
      </trkpt>
      <trkpt lat="44.4944" lon="1.55791">
        <ele>214.4</ele>
        <time>2026-03-22T08:51:08Z</time>
      </trkpt>
      <trkpt lat="44.49436" lon="1.55795">
        <ele>214.8</ele>
        <time>2026-03-22T08:51:09Z</time>
      </trkpt>
      <trkpt lat="44.49433" lon="1.55799">
        <ele>215.2</ele>
        <time>2026-03-22T08:51:10Z</time>
      </trkpt>
      <trkpt lat="44.4943" lon="1.55803">
        <ele>215.6</ele>
        <time>2026-03-22T08:51:11Z</time>
      </trkpt>
      <trkpt lat="44.49426" lon="1.55807">
        <ele>215.6</ele>
        <time>2026-03-22T08:51:12Z</time>
      </trkpt>
      <trkpt lat="44.49423" lon="1.5581">
        <ele>216</ele>
        <time>2026-03-22T08:51:13Z</time>
      </trkpt>
      <trkpt lat="44.49419" lon="1.55814">
        <ele>216.2</ele>
        <time>2026-03-22T08:51:14Z</time>
      </trkpt>
      <trkpt lat="44.49415" lon="1.55817">
        <ele>216.2</ele>
        <time>2026-03-22T08:51:15Z</time>
      </trkpt>
      <trkpt lat="44.49411" lon="1.55819">
        <ele>216.4</ele>
        <time>2026-03-22T08:51:16Z</time>
      </trkpt>
      <trkpt lat="44.49406" lon="1.55823">
        <ele>216.6</ele>
        <time>2026-03-22T08:51:17Z</time>
      </trkpt>
      <trkpt lat="44.49402" lon="1.55826">
        <ele>216.8</ele>
        <time>2026-03-22T08:51:18Z</time>
      </trkpt>
      <trkpt lat="44.49398" lon="1.55828">
        <ele>217</ele>
        <time>2026-03-22T08:51:19Z</time>
      </trkpt>
      <trkpt lat="44.49394" lon="1.5583">
        <ele>217.2</ele>
        <time>2026-03-22T08:51:20Z</time>
      </trkpt>
      <trkpt lat="44.49389" lon="1.55832">
        <ele>217.6</ele>
        <time>2026-03-22T08:51:21Z</time>
      </trkpt>
      <trkpt lat="44.49386" lon="1.55835">
        <ele>218</ele>
        <time>2026-03-22T08:51:22Z</time>
      </trkpt>
      <trkpt lat="44.49382" lon="1.55837">
        <ele>218.2</ele>
        <time>2026-03-22T08:51:23Z</time>
      </trkpt>
      <trkpt lat="44.49378" lon="1.55839">
        <ele>218.6</ele>
        <time>2026-03-22T08:51:24Z</time>
      </trkpt>
      <trkpt lat="44.49374" lon="1.55842">
        <ele>219</ele>
        <time>2026-03-22T08:51:25Z</time>
      </trkpt>
      <trkpt lat="44.49371" lon="1.55844">
        <ele>219.2</ele>
        <time>2026-03-22T08:51:26Z</time>
      </trkpt>
      <trkpt lat="44.49367" lon="1.55846">
        <ele>219.4</ele>
        <time>2026-03-22T08:51:27Z</time>
      </trkpt>
      <trkpt lat="44.49363" lon="1.55848">
        <ele>219.8</ele>
        <time>2026-03-22T08:51:28Z</time>
      </trkpt>
      <trkpt lat="44.49359" lon="1.55849">
        <ele>220</ele>
        <time>2026-03-22T08:51:29Z</time>
      </trkpt>
      <trkpt lat="44.49355" lon="1.55852">
        <ele>220.6</ele>
        <time>2026-03-22T08:51:30Z</time>
      </trkpt>
      <trkpt lat="44.49351" lon="1.55853">
        <ele>221</ele>
        <time>2026-03-22T08:51:31Z</time>
      </trkpt>
      <trkpt lat="44.49348" lon="1.55855">
        <ele>221.4</ele>
        <time>2026-03-22T08:51:32Z</time>
      </trkpt>
      <trkpt lat="44.49344" lon="1.55857">
        <ele>221.8</ele>
        <time>2026-03-22T08:51:33Z</time>
      </trkpt>
      <trkpt lat="44.49341" lon="1.55859">
        <ele>222.4</ele>
        <time>2026-03-22T08:51:34Z</time>
      </trkpt>
      <trkpt lat="44.49338" lon="1.55861">
        <ele>222.6</ele>
        <time>2026-03-22T08:51:35Z</time>
      </trkpt>
      <trkpt lat="44.49336" lon="1.55864">
        <ele>222.8</ele>
        <time>2026-03-22T08:51:36Z</time>
      </trkpt>
      <trkpt lat="44.49334" lon="1.55867">
        <ele>223.4</ele>
        <time>2026-03-22T08:51:37Z</time>
      </trkpt>
      <trkpt lat="44.49331" lon="1.55869">
        <ele>223.8</ele>
        <time>2026-03-22T08:51:38Z</time>
      </trkpt>
      <trkpt lat="44.49329" lon="1.55872">
        <ele>224.2</ele>
        <time>2026-03-22T08:51:39Z</time>
      </trkpt>
      <trkpt lat="44.49327" lon="1.55874">
        <ele>224.6</ele>
        <time>2026-03-22T08:51:40Z</time>
      </trkpt>
      <trkpt lat="44.49324" lon="1.55877">
        <ele>225.2</ele>
        <time>2026-03-22T08:51:41Z</time>
      </trkpt>
      <trkpt lat="44.49321" lon="1.55879">
        <ele>225.6</ele>
        <time>2026-03-22T08:51:42Z</time>
      </trkpt>
      <trkpt lat="44.49319" lon="1.55882">
        <ele>226.2</ele>
        <time>2026-03-22T08:51:43Z</time>
      </trkpt>
      <trkpt lat="44.49317" lon="1.55884">
        <ele>227</ele>
        <time>2026-03-22T08:51:44Z</time>
      </trkpt>
      <trkpt lat="44.49314" lon="1.55886">
        <ele>227.4</ele>
        <time>2026-03-22T08:51:45Z</time>
      </trkpt>
      <trkpt lat="44.49312" lon="1.55888">
        <ele>227.8</ele>
        <time>2026-03-22T08:51:46Z</time>
      </trkpt>
      <trkpt lat="44.49309" lon="1.55891">
        <ele>228.6</ele>
        <time>2026-03-22T08:51:47Z</time>
      </trkpt>
      <trkpt lat="44.49306" lon="1.55893">
        <ele>229.2</ele>
        <time>2026-03-22T08:51:48Z</time>
      </trkpt>
      <trkpt lat="44.49303" lon="1.55896">
        <ele>229.8</ele>
        <time>2026-03-22T08:51:49Z</time>
      </trkpt>
      <trkpt lat="44.493" lon="1.55899">
        <ele>230.2</ele>
        <time>2026-03-22T08:51:50Z</time>
      </trkpt>
      <trkpt lat="44.49297" lon="1.55902">
        <ele>230.8</ele>
        <time>2026-03-22T08:51:51Z</time>
      </trkpt>
      <trkpt lat="44.49295" lon="1.55905">
        <ele>231</ele>
        <time>2026-03-22T08:51:52Z</time>
      </trkpt>
      <trkpt lat="44.49291" lon="1.55909">
        <ele>231.4</ele>
        <time>2026-03-22T08:51:53Z</time>
      </trkpt>
      <trkpt lat="44.49288" lon="1.55912">
        <ele>231.8</ele>
        <time>2026-03-22T08:51:54Z</time>
      </trkpt>
      <trkpt lat="44.49284" lon="1.55915">
        <ele>232</ele>
        <time>2026-03-22T08:51:55Z</time>
      </trkpt>
      <trkpt lat="44.4928" lon="1.55918">
        <ele>232.4</ele>
        <time>2026-03-22T08:51:56Z</time>
      </trkpt>
      <trkpt lat="44.49277" lon="1.55921">
        <ele>232.8</ele>
        <time>2026-03-22T08:51:57Z</time>
      </trkpt>
      <trkpt lat="44.49273" lon="1.55925">
        <ele>233</ele>
        <time>2026-03-22T08:51:58Z</time>
      </trkpt>
      <trkpt lat="44.49269" lon="1.55928">
        <ele>233.2</ele>
        <time>2026-03-22T08:51:59Z</time>
      </trkpt>
      <trkpt lat="44.49265" lon="1.55932">
        <ele>233.4</ele>
        <time>2026-03-22T08:52:00Z</time>
      </trkpt>
      <trkpt lat="44.4926" lon="1.55936">
        <ele>233.8</ele>
        <time>2026-03-22T08:52:01Z</time>
      </trkpt>
      <trkpt lat="44.49256" lon="1.55939">
        <ele>233.8</ele>
        <time>2026-03-22T08:52:02Z</time>
      </trkpt>
      <trkpt lat="44.49252" lon="1.55943">
        <ele>234.2</ele>
        <time>2026-03-22T08:52:03Z</time>
      </trkpt>
      <trkpt lat="44.49248" lon="1.55948">
        <ele>234.4</ele>
        <time>2026-03-22T08:52:04Z</time>
      </trkpt>
      <trkpt lat="44.49243" lon="1.55952">
        <ele>234.6</ele>
        <time>2026-03-22T08:52:05Z</time>
      </trkpt>
      <trkpt lat="44.49239" lon="1.55957">
        <ele>234.8</ele>
        <time>2026-03-22T08:52:06Z</time>
      </trkpt>
      <trkpt lat="44.49234" lon="1.55961">
        <ele>234.8</ele>
        <time>2026-03-22T08:52:07Z</time>
      </trkpt>
      <trkpt lat="44.49229" lon="1.55965">
        <ele>235</ele>
        <time>2026-03-22T08:52:08Z</time>
      </trkpt>
      <trkpt lat="44.49223" lon="1.55967">
        <ele>235</ele>
        <time>2026-03-22T08:52:09Z</time>
      </trkpt>
      <trkpt lat="44.49216" lon="1.55968">
        <ele>235</ele>
        <time>2026-03-22T08:52:10Z</time>
      </trkpt>
      <trkpt lat="44.4921" lon="1.55967">
        <ele>235</ele>
        <time>2026-03-22T08:52:11Z</time>
      </trkpt>
      <trkpt lat="44.49204" lon="1.55966">
        <ele>235</ele>
        <time>2026-03-22T08:52:12Z</time>
      </trkpt>
      <trkpt lat="44.49199" lon="1.55966">
        <ele>235</ele>
        <time>2026-03-22T08:52:13Z</time>
      </trkpt>
      <trkpt lat="44.49193" lon="1.55965">
        <ele>235</ele>
        <time>2026-03-22T08:52:14Z</time>
      </trkpt>
      <trkpt lat="44.49188" lon="1.55965">
        <ele>235</ele>
        <time>2026-03-22T08:52:15Z</time>
      </trkpt>
      <trkpt lat="44.49183" lon="1.55964">
        <ele>235</ele>
        <time>2026-03-22T08:52:16Z</time>
      </trkpt>
      <trkpt lat="44.49178" lon="1.55963">
        <ele>235</ele>
        <time>2026-03-22T08:52:17Z</time>
      </trkpt>
      <trkpt lat="44.49172" lon="1.55963">
        <ele>235</ele>
        <time>2026-03-22T08:52:18Z</time>
      </trkpt>
      <trkpt lat="44.49167" lon="1.55962">
        <ele>235</ele>
        <time>2026-03-22T08:52:19Z</time>
      </trkpt>
      <trkpt lat="44.49162" lon="1.55962">
        <ele>235</ele>
        <time>2026-03-22T08:52:20Z</time>
      </trkpt>
      <trkpt lat="44.49156" lon="1.55962">
        <ele>235</ele>
        <time>2026-03-22T08:52:21Z</time>
      </trkpt>
      <trkpt lat="44.49151" lon="1.55962">
        <ele>235.2</ele>
        <time>2026-03-22T08:52:22Z</time>
      </trkpt>
      <trkpt lat="44.49145" lon="1.55962">
        <ele>235.2</ele>
        <time>2026-03-22T08:52:23Z</time>
      </trkpt>
      <trkpt lat="44.4914" lon="1.55963">
        <ele>235.2</ele>
        <time>2026-03-22T08:52:24Z</time>
      </trkpt>
      <trkpt lat="44.49134" lon="1.55963">
        <ele>235.4</ele>
        <time>2026-03-22T08:52:25Z</time>
      </trkpt>
      <trkpt lat="44.49129" lon="1.55964">
        <ele>235.6</ele>
        <time>2026-03-22T08:52:26Z</time>
      </trkpt>
      <trkpt lat="44.49125" lon="1.55965">
        <ele>236</ele>
        <time>2026-03-22T08:52:27Z</time>
      </trkpt>
      <trkpt lat="44.4912" lon="1.55966">
        <ele>236.2</ele>
        <time>2026-03-22T08:52:28Z</time>
      </trkpt>
      <trkpt lat="44.49115" lon="1.55966">
        <ele>236.4</ele>
        <time>2026-03-22T08:52:29Z</time>
      </trkpt>
      <trkpt lat="44.4911" lon="1.55967">
        <ele>236.6</ele>
        <time>2026-03-22T08:52:30Z</time>
      </trkpt>
      <trkpt lat="44.49105" lon="1.55967">
        <ele>236.8</ele>
        <time>2026-03-22T08:52:31Z</time>
      </trkpt>
      <trkpt lat="44.491" lon="1.55967">
        <ele>237</ele>
        <time>2026-03-22T08:52:32Z</time>
      </trkpt>
      <trkpt lat="44.49095" lon="1.55968">
        <ele>237</ele>
        <time>2026-03-22T08:52:33Z</time>
      </trkpt>
      <trkpt lat="44.49089" lon="1.55968">
        <ele>237.2</ele>
        <time>2026-03-22T08:52:34Z</time>
      </trkpt>
      <trkpt lat="44.49084" lon="1.55968">
        <ele>237.4</ele>
        <time>2026-03-22T08:52:35Z</time>
      </trkpt>
      <trkpt lat="44.49079" lon="1.55967">
        <ele>237.6</ele>
        <time>2026-03-22T08:52:36Z</time>
      </trkpt>
      <trkpt lat="44.49073" lon="1.55967">
        <ele>238</ele>
        <time>2026-03-22T08:52:37Z</time>
      </trkpt>
      <trkpt lat="44.49068" lon="1.55968">
        <ele>238.4</ele>
        <time>2026-03-22T08:52:38Z</time>
      </trkpt>
      <trkpt lat="44.49063" lon="1.55967">
        <ele>238.6</ele>
        <time>2026-03-22T08:52:39Z</time>
      </trkpt>
      <trkpt lat="44.49058" lon="1.55967">
        <ele>238.6</ele>
        <time>2026-03-22T08:52:40Z</time>
      </trkpt>
      <trkpt lat="44.49053" lon="1.55966">
        <ele>238.8</ele>
        <time>2026-03-22T08:52:41Z</time>
      </trkpt>
      <trkpt lat="44.49048" lon="1.55966">
        <ele>238.8</ele>
        <time>2026-03-22T08:52:42Z</time>
      </trkpt>
      <trkpt lat="44.49043" lon="1.55965">
        <ele>238.8</ele>
        <time>2026-03-22T08:52:43Z</time>
      </trkpt>
      <trkpt lat="44.49038" lon="1.55965">
        <ele>239</ele>
        <time>2026-03-22T08:52:44Z</time>
      </trkpt>
      <trkpt lat="44.49034" lon="1.55964">
        <ele>239</ele>
        <time>2026-03-22T08:52:45Z</time>
      </trkpt>
      <trkpt lat="44.4903" lon="1.55964">
        <ele>239.2</ele>
        <time>2026-03-22T08:52:46Z</time>
      </trkpt>
      <trkpt lat="44.49026" lon="1.55963">
        <ele>239.4</ele>
        <time>2026-03-22T08:52:47Z</time>
      </trkpt>
      <trkpt lat="44.49022" lon="1.55964">
        <ele>239.6</ele>
        <time>2026-03-22T08:52:48Z</time>
      </trkpt>
      <trkpt lat="44.49018" lon="1.55963">
        <ele>239.8</ele>
        <time>2026-03-22T08:52:49Z</time>
      </trkpt>
      <trkpt lat="44.49013" lon="1.55963">
        <ele>240</ele>
        <time>2026-03-22T08:52:50Z</time>
      </trkpt>
      <trkpt lat="44.49008" lon="1.55963">
        <ele>240</ele>
        <time>2026-03-22T08:52:51Z</time>
      </trkpt>
      <trkpt lat="44.49003" lon="1.55963">
        <ele>240</ele>
        <time>2026-03-22T08:52:52Z</time>
      </trkpt>
      <trkpt lat="44.48998" lon="1.55963">
        <ele>240</ele>
        <time>2026-03-22T08:52:53Z</time>
      </trkpt>
      <trkpt lat="44.48993" lon="1.55963">
        <ele>240</ele>
        <time>2026-03-22T08:52:54Z</time>
      </trkpt>
      <trkpt lat="44.48988" lon="1.55962">
        <ele>240.2</ele>
        <time>2026-03-22T08:52:55Z</time>
      </trkpt>
      <trkpt lat="44.48983" lon="1.55961">
        <ele>240.2</ele>
        <time>2026-03-22T08:52:56Z</time>
      </trkpt>
      <trkpt lat="44.48977" lon="1.55961">
        <ele>240.2</ele>
        <time>2026-03-22T08:52:57Z</time>
      </trkpt>
      <trkpt lat="44.48972" lon="1.55961">
        <ele>240.2</ele>
        <time>2026-03-22T08:52:58Z</time>
      </trkpt>
      <trkpt lat="44.48967" lon="1.55962">
        <ele>240.2</ele>
        <time>2026-03-22T08:52:59Z</time>
      </trkpt>
      <trkpt lat="44.48962" lon="1.55963">
        <ele>240.2</ele>
        <time>2026-03-22T08:53:00Z</time>
      </trkpt>
      <trkpt lat="44.48958" lon="1.55962">
        <ele>240.2</ele>
        <time>2026-03-22T08:53:01Z</time>
      </trkpt>
      <trkpt lat="44.48955" lon="1.55958">
        <ele>240.2</ele>
        <time>2026-03-22T08:53:02Z</time>
      </trkpt>
      <trkpt lat="44.48952" lon="1.55951">
        <ele>240.2</ele>
        <time>2026-03-22T08:53:03Z</time>
      </trkpt>
      <trkpt lat="44.4895" lon="1.55943">
        <ele>240</ele>
        <time>2026-03-22T08:53:04Z</time>
      </trkpt>
      <trkpt lat="44.48946" lon="1.55934">
        <ele>240</ele>
        <time>2026-03-22T08:53:05Z</time>
      </trkpt>
      <trkpt lat="44.48943" lon="1.55925">
        <ele>240</ele>
        <time>2026-03-22T08:53:06Z</time>
      </trkpt>
      <trkpt lat="44.48941" lon="1.55916">
        <ele>240</ele>
        <time>2026-03-22T08:53:07Z</time>
      </trkpt>
      <trkpt lat="44.48942" lon="1.55908">
        <ele>239.8</ele>
        <time>2026-03-22T08:53:08Z</time>
      </trkpt>
      <trkpt lat="44.48944" lon="1.55902">
        <ele>239.8</ele>
        <time>2026-03-22T08:53:09Z</time>
      </trkpt>
      <trkpt lat="44.48949" lon="1.55897">
        <ele>239.4</ele>
        <time>2026-03-22T08:53:10Z</time>
      </trkpt>
      <trkpt lat="44.48953" lon="1.55891">
        <ele>238.6</ele>
        <time>2026-03-22T08:53:11Z</time>
      </trkpt>
      <trkpt lat="44.48955" lon="1.55885">
        <ele>237.8</ele>
        <time>2026-03-22T08:53:12Z</time>
      </trkpt>
      <trkpt lat="44.48954" lon="1.55879">
        <ele>237.2</ele>
        <time>2026-03-22T08:53:13Z</time>
      </trkpt>
      <trkpt lat="44.48951" lon="1.55873">
        <ele>236.4</ele>
        <time>2026-03-22T08:53:14Z</time>
      </trkpt>
      <trkpt lat="44.48946" lon="1.55867">
        <ele>235.2</ele>
        <time>2026-03-22T08:53:15Z</time>
      </trkpt>
      <trkpt lat="44.48941" lon="1.5586">
        <ele>233.8</ele>
        <time>2026-03-22T08:53:16Z</time>
      </trkpt>
      <trkpt lat="44.48929" lon="1.55844">
        <ele>232.2</ele>
        <time>2026-03-22T08:53:18Z</time>
      </trkpt>
      <trkpt lat="44.48923" lon="1.55837">
        <ele>231</ele>
        <time>2026-03-22T08:53:19Z</time>
      </trkpt>
      <trkpt lat="44.48911" lon="1.55823">
        <ele>229.6</ele>
        <time>2026-03-22T08:53:21Z</time>
      </trkpt>
      <trkpt lat="44.48906" lon="1.55816">
        <ele>228.8</ele>
        <time>2026-03-22T08:53:22Z</time>
      </trkpt>
      <trkpt lat="44.48901" lon="1.55808">
        <ele>228.2</ele>
        <time>2026-03-22T08:53:23Z</time>
      </trkpt>
      <trkpt lat="44.48896" lon="1.55801">
        <ele>226.6</ele>
        <time>2026-03-22T08:53:24Z</time>
      </trkpt>
      <trkpt lat="44.48886" lon="1.55788">
        <ele>224</ele>
        <time>2026-03-22T08:53:26Z</time>
      </trkpt>
      <trkpt lat="44.48881" lon="1.55782">
        <ele>223</ele>
        <time>2026-03-22T08:53:27Z</time>
      </trkpt>
      <trkpt lat="44.48876" lon="1.55777">
        <ele>222.2</ele>
        <time>2026-03-22T08:53:28Z</time>
      </trkpt>
      <trkpt lat="44.48872" lon="1.55771">
        <ele>221.6</ele>
        <time>2026-03-22T08:53:29Z</time>
      </trkpt>
      <trkpt lat="44.4887" lon="1.55764">
        <ele>221</ele>
        <time>2026-03-22T08:53:30Z</time>
      </trkpt>
      <trkpt lat="44.48867" lon="1.55758">
        <ele>219.8</ele>
        <time>2026-03-22T08:53:31Z</time>
      </trkpt>
      <trkpt lat="44.48866" lon="1.55751">
        <ele>218</ele>
        <time>2026-03-22T08:53:32Z</time>
      </trkpt>
      <trkpt lat="44.48864" lon="1.55747">
        <ele>216.8</ele>
        <time>2026-03-22T08:53:33Z</time>
      </trkpt>
      <trkpt lat="44.48862" lon="1.55743">
        <ele>215.4</ele>
        <time>2026-03-22T08:53:34Z</time>
      </trkpt>
      <trkpt lat="44.4886" lon="1.55737">
        <ele>214.8</ele>
        <time>2026-03-22T08:53:35Z</time>
      </trkpt>
      <trkpt lat="44.4886" lon="1.55732">
        <ele>213.6</ele>
        <time>2026-03-22T08:53:36Z</time>
      </trkpt>
      <trkpt lat="44.48859" lon="1.55726">
        <ele>212.6</ele>
        <time>2026-03-22T08:53:37Z</time>
      </trkpt>
      <trkpt lat="44.48858" lon="1.55719">
        <ele>211.8</ele>
        <time>2026-03-22T08:53:38Z</time>
      </trkpt>
      <trkpt lat="44.48856" lon="1.55713">
        <ele>211</ele>
        <time>2026-03-22T08:53:39Z</time>
      </trkpt>
      <trkpt lat="44.48854" lon="1.55706">
        <ele>210.2</ele>
        <time>2026-03-22T08:53:40Z</time>
      </trkpt>
      <trkpt lat="44.48852" lon="1.557">
        <ele>209</ele>
        <time>2026-03-22T08:53:41Z</time>
      </trkpt>
      <trkpt lat="44.4885" lon="1.55694">
        <ele>208.4</ele>
        <time>2026-03-22T08:53:42Z</time>
      </trkpt>
      <trkpt lat="44.48848" lon="1.55687">
        <ele>207.8</ele>
        <time>2026-03-22T08:53:43Z</time>
      </trkpt>
      <trkpt lat="44.48846" lon="1.55681">
        <ele>207.4</ele>
        <time>2026-03-22T08:53:44Z</time>
      </trkpt>
      <trkpt lat="44.48844" lon="1.55675">
        <ele>206.8</ele>
        <time>2026-03-22T08:53:45Z</time>
      </trkpt>
      <trkpt lat="44.48843" lon="1.55668">
        <ele>206.2</ele>
        <time>2026-03-22T08:53:46Z</time>
      </trkpt>
      <trkpt lat="44.4884" lon="1.55652">
        <ele>205</ele>
        <time>2026-03-22T08:53:48Z</time>
      </trkpt>
      <trkpt lat="44.4884" lon="1.55645">
        <ele>203.8</ele>
        <time>2026-03-22T08:53:49Z</time>
      </trkpt>
      <trkpt lat="44.48839" lon="1.55637">
        <ele>202.6</ele>
        <time>2026-03-22T08:53:50Z</time>
      </trkpt>
      <trkpt lat="44.48837" lon="1.55629">
        <ele>201.4</ele>
        <time>2026-03-22T08:53:51Z</time>
      </trkpt>
      <trkpt lat="44.48835" lon="1.55621">
        <ele>200.6</ele>
        <time>2026-03-22T08:53:52Z</time>
      </trkpt>
      <trkpt lat="44.48833" lon="1.55613">
        <ele>200.2</ele>
        <time>2026-03-22T08:53:53Z</time>
      </trkpt>
      <trkpt lat="44.48828" lon="1.5559">
        <ele>198.6</ele>
        <time>2026-03-22T08:53:56Z</time>
      </trkpt>
      <trkpt lat="44.48827" lon="1.55583">
        <ele>198.2</ele>
        <time>2026-03-22T08:53:57Z</time>
      </trkpt>
      <trkpt lat="44.48826" lon="1.55577">
        <ele>197.8</ele>
        <time>2026-03-22T08:53:58Z</time>
      </trkpt>
      <trkpt lat="44.48825" lon="1.55571">
        <ele>197.2</ele>
        <time>2026-03-22T08:53:59Z</time>
      </trkpt>
      <trkpt lat="44.48823" lon="1.55567">
        <ele>196.4</ele>
        <time>2026-03-22T08:54:00Z</time>
      </trkpt>
      <trkpt lat="44.48822" lon="1.55563">
        <ele>195.6</ele>
        <time>2026-03-22T08:54:01Z</time>
      </trkpt>
      <trkpt lat="44.4882" lon="1.55558">
        <ele>194.6</ele>
        <time>2026-03-22T08:54:02Z</time>
      </trkpt>
      <trkpt lat="44.48819" lon="1.55553">
        <ele>194.2</ele>
        <time>2026-03-22T08:54:03Z</time>
      </trkpt>
      <trkpt lat="44.48817" lon="1.5555">
        <ele>193</ele>
        <time>2026-03-22T08:54:04Z</time>
      </trkpt>
      <trkpt lat="44.48814" lon="1.55545">
        <ele>192.4</ele>
        <time>2026-03-22T08:54:05Z</time>
      </trkpt>
      <trkpt lat="44.48812" lon="1.55541">
        <ele>191.6</ele>
        <time>2026-03-22T08:54:06Z</time>
      </trkpt>
      <trkpt lat="44.48811" lon="1.55538">
        <ele>190.8</ele>
        <time>2026-03-22T08:54:07Z</time>
      </trkpt>
      <trkpt lat="44.48809" lon="1.55536">
        <ele>190.4</ele>
        <time>2026-03-22T08:54:08Z</time>
      </trkpt>
      <trkpt lat="44.48808" lon="1.55535">
        <ele>190.2</ele>
        <time>2026-03-22T08:54:09Z</time>
      </trkpt>
      <trkpt lat="44.48807" lon="1.55534">
        <ele>189.6</ele>
        <time>2026-03-22T08:54:10Z</time>
      </trkpt>
      <trkpt lat="44.48806" lon="1.55534">
        <ele>189.2</ele>
        <time>2026-03-22T08:54:11Z</time>
      </trkpt>
      <trkpt lat="44.48805" lon="1.55532">
        <ele>189</ele>
        <time>2026-03-22T08:54:12Z</time>
      </trkpt>
      <trkpt lat="44.48804" lon="1.5553">
        <ele>188.2</ele>
        <time>2026-03-22T08:54:13Z</time>
      </trkpt>
      <trkpt lat="44.48802" lon="1.55528">
        <ele>187.8</ele>
        <time>2026-03-22T08:54:14Z</time>
      </trkpt>
      <trkpt lat="44.48798" lon="1.55522">
        <ele>187</ele>
        <time>2026-03-22T08:54:17Z</time>
      </trkpt>
      <trkpt lat="44.48799" lon="1.5552">
        <ele>186.8</ele>
        <time>2026-03-22T08:54:18Z</time>
      </trkpt>
      <trkpt lat="44.488" lon="1.55519">
        <ele>186.6</ele>
        <time>2026-03-22T08:54:19Z</time>
      </trkpt>
      <trkpt lat="44.48806" lon="1.55515">
        <ele>185.8</ele>
        <time>2026-03-22T08:54:22Z</time>
      </trkpt>
      <trkpt lat="44.48806" lon="1.55513">
        <ele>185.4</ele>
        <time>2026-03-22T08:54:23Z</time>
      </trkpt>
      <trkpt lat="44.48797" lon="1.5551">
        <ele>184.4</ele>
        <time>2026-03-22T08:54:26Z</time>
      </trkpt>
      <trkpt lat="44.48792" lon="1.55508">
        <ele>183.8</ele>
        <time>2026-03-22T08:54:27Z</time>
      </trkpt>
      <trkpt lat="44.48787" lon="1.55507">
        <ele>183.2</ele>
        <time>2026-03-22T08:54:28Z</time>
      </trkpt>
      <trkpt lat="44.48778" lon="1.55504">
        <ele>182.2</ele>
        <time>2026-03-22T08:54:30Z</time>
      </trkpt>
      <trkpt lat="44.48775" lon="1.55503">
        <ele>182</ele>
        <time>2026-03-22T08:54:31Z</time>
      </trkpt>
      <trkpt lat="44.48771" lon="1.55502">
        <ele>181.8</ele>
        <time>2026-03-22T08:54:32Z</time>
      </trkpt>
      <trkpt lat="44.48763" lon="1.55501">
        <ele>181</ele>
        <time>2026-03-22T08:54:34Z</time>
      </trkpt>
      <trkpt lat="44.48758" lon="1.55501">
        <ele>180.6</ele>
        <time>2026-03-22T08:54:35Z</time>
      </trkpt>
      <trkpt lat="44.48741" lon="1.555">
        <ele>179</ele>
        <time>2026-03-22T08:54:38Z</time>
      </trkpt>
      <trkpt lat="44.48734" lon="1.555">
        <ele>178.8</ele>
        <time>2026-03-22T08:54:39Z</time>
      </trkpt>
      <trkpt lat="44.48712" lon="1.55501">
        <ele>178</ele>
        <time>2026-03-22T08:54:42Z</time>
      </trkpt>
      <trkpt lat="44.48696" lon="1.55501">
        <ele>177.2</ele>
        <time>2026-03-22T08:54:44Z</time>
      </trkpt>
      <trkpt lat="44.48689" lon="1.55502">
        <ele>176.6</ele>
        <time>2026-03-22T08:54:45Z</time>
      </trkpt>
      <trkpt lat="44.48683" lon="1.55503">
        <ele>176.2</ele>
        <time>2026-03-22T08:54:46Z</time>
      </trkpt>
      <trkpt lat="44.48678" lon="1.55503">
        <ele>175.8</ele>
        <time>2026-03-22T08:54:47Z</time>
      </trkpt>
      <trkpt lat="44.48673" lon="1.55502">
        <ele>175.2</ele>
        <time>2026-03-22T08:54:48Z</time>
      </trkpt>
      <trkpt lat="44.48672" lon="1.55498">
        <ele>174.4</ele>
        <time>2026-03-22T08:54:49Z</time>
      </trkpt>
      <trkpt lat="44.48672" lon="1.55494">
        <ele>173.8</ele>
        <time>2026-03-22T08:54:50Z</time>
      </trkpt>
      <trkpt lat="44.48675" lon="1.5549">
        <ele>173.2</ele>
        <time>2026-03-22T08:54:51Z</time>
      </trkpt>
      <trkpt lat="44.4868" lon="1.55489">
        <ele>172.4</ele>
        <time>2026-03-22T08:54:52Z</time>
      </trkpt>
      <trkpt lat="44.48692" lon="1.55489">
        <ele>171</ele>
        <time>2026-03-22T08:54:54Z</time>
      </trkpt>
      <trkpt lat="44.48698" lon="1.55487">
        <ele>170.4</ele>
        <time>2026-03-22T08:54:55Z</time>
      </trkpt>
      <trkpt lat="44.48704" lon="1.55486">
        <ele>169.8</ele>
        <time>2026-03-22T08:54:56Z</time>
      </trkpt>
      <trkpt lat="44.48709" lon="1.55484">
        <ele>169.2</ele>
        <time>2026-03-22T08:54:57Z</time>
      </trkpt>
      <trkpt lat="44.48714" lon="1.55483">
        <ele>168.8</ele>
        <time>2026-03-22T08:54:58Z</time>
      </trkpt>
      <trkpt lat="44.48716" lon="1.5548">
        <ele>168</ele>
        <time>2026-03-22T08:54:59Z</time>
      </trkpt>
      <trkpt lat="44.48716" lon="1.55478">
        <ele>167.6</ele>
        <time>2026-03-22T08:55:00Z</time>
      </trkpt>
      <trkpt lat="44.48715" lon="1.55476">
        <ele>167</ele>
        <time>2026-03-22T08:55:01Z</time>
      </trkpt>
      <trkpt lat="44.48712" lon="1.55476">
        <ele>166.4</ele>
        <time>2026-03-22T08:55:02Z</time>
      </trkpt>
      <trkpt lat="44.48703" lon="1.55474">
        <ele>165.2</ele>
        <time>2026-03-22T08:55:04Z</time>
      </trkpt>
      <trkpt lat="44.48697" lon="1.55471">
        <ele>164.8</ele>
        <time>2026-03-22T08:55:05Z</time>
      </trkpt>
      <trkpt lat="44.48691" lon="1.5547">
        <ele>164.2</ele>
        <time>2026-03-22T08:55:06Z</time>
      </trkpt>
      <trkpt lat="44.48684" lon="1.55467">
        <ele>163.6</ele>
        <time>2026-03-22T08:55:08Z</time>
      </trkpt>
      <trkpt lat="44.48684" lon="1.55464">
        <ele>163.4</ele>
        <time>2026-03-22T08:55:09Z</time>
      </trkpt>
      <trkpt lat="44.48686" lon="1.55461">
        <ele>162.4</ele>
        <time>2026-03-22T08:55:10Z</time>
      </trkpt>
      <trkpt lat="44.48692" lon="1.55455">
        <ele>161</ele>
        <time>2026-03-22T08:55:12Z</time>
      </trkpt>
      <trkpt lat="44.48694" lon="1.55453">
        <ele>160.2</ele>
        <time>2026-03-22T08:55:13Z</time>
      </trkpt>
      <trkpt lat="44.48693" lon="1.5545">
        <ele>158.8</ele>
        <time>2026-03-22T08:55:14Z</time>
      </trkpt>
      <trkpt lat="44.48691" lon="1.55447">
        <ele>158</ele>
        <time>2026-03-22T08:55:15Z</time>
      </trkpt>
      <trkpt lat="44.48688" lon="1.55444">
        <ele>157</ele>
        <time>2026-03-22T08:55:16Z</time>
      </trkpt>
      <trkpt lat="44.48678" lon="1.55442">
        <ele>155.6</ele>
        <time>2026-03-22T08:55:18Z</time>
      </trkpt>
      <trkpt lat="44.48672" lon="1.55443">
        <ele>154.8</ele>
        <time>2026-03-22T08:55:19Z</time>
      </trkpt>
      <trkpt lat="44.48665" lon="1.55444">
        <ele>153.8</ele>
        <time>2026-03-22T08:55:20Z</time>
      </trkpt>
      <trkpt lat="44.48651" lon="1.55447">
        <ele>152.8</ele>
        <time>2026-03-22T08:55:22Z</time>
      </trkpt>
      <trkpt lat="44.48645" lon="1.55449">
        <ele>152</ele>
        <time>2026-03-22T08:55:23Z</time>
      </trkpt>
      <trkpt lat="44.48639" lon="1.55451">
        <ele>151</ele>
        <time>2026-03-22T08:55:24Z</time>
      </trkpt>
      <trkpt lat="44.48634" lon="1.55453">
        <ele>150</ele>
        <time>2026-03-22T08:55:25Z</time>
      </trkpt>
      <trkpt lat="44.48629" lon="1.55456">
        <ele>149.2</ele>
        <time>2026-03-22T08:55:26Z</time>
      </trkpt>
      <trkpt lat="44.48625" lon="1.55458">
        <ele>148</ele>
        <time>2026-03-22T08:55:27Z</time>
      </trkpt>
      <trkpt lat="44.48621" lon="1.55459">
        <ele>146.8</ele>
        <time>2026-03-22T08:55:28Z</time>
      </trkpt>
      <trkpt lat="44.48619" lon="1.55459">
        <ele>145.6</ele>
        <time>2026-03-22T08:55:29Z</time>
      </trkpt>
      <trkpt lat="44.48618" lon="1.55457">
        <ele>144.6</ele>
        <time>2026-03-22T08:55:30Z</time>
      </trkpt>
      <trkpt lat="44.48617" lon="1.55452">
        <ele>143.2</ele>
        <time>2026-03-22T08:55:31Z</time>
      </trkpt>
      <trkpt lat="44.48615" lon="1.55447">
        <ele>142.4</ele>
        <time>2026-03-22T08:55:32Z</time>
      </trkpt>
      <trkpt lat="44.48613" lon="1.55443">
        <ele>141.2</ele>
        <time>2026-03-22T08:55:33Z</time>
      </trkpt>
      <trkpt lat="44.48611" lon="1.55442">
        <ele>139.6</ele>
        <time>2026-03-22T08:55:34Z</time>
      </trkpt>
      <trkpt lat="44.4861" lon="1.55442">
        <ele>138.6</ele>
        <time>2026-03-22T08:55:35Z</time>
      </trkpt>
      <trkpt lat="44.48608" lon="1.55441">
        <ele>137.6</ele>
        <time>2026-03-22T08:55:36Z</time>
      </trkpt>
      <trkpt lat="44.48606" lon="1.55441">
        <ele>136.6</ele>
        <time>2026-03-22T08:55:37Z</time>
      </trkpt>
      <trkpt lat="44.48603" lon="1.55441">
        <ele>135.8</ele>
        <time>2026-03-22T08:55:38Z</time>
      </trkpt>
      <trkpt lat="44.486" lon="1.55442">
        <ele>135</ele>
        <time>2026-03-22T08:55:39Z</time>
      </trkpt>
      <trkpt lat="44.48595" lon="1.55441">
        <ele>134.4</ele>
        <time>2026-03-22T08:55:40Z</time>
      </trkpt>
      <trkpt lat="44.4858" lon="1.55438">
        <ele>133.2</ele>
        <time>2026-03-22T08:55:43Z</time>
      </trkpt>
      <trkpt lat="44.48577" lon="1.55438">
        <ele>133</ele>
        <time>2026-03-22T08:55:44Z</time>
      </trkpt>
      <trkpt lat="44.48573" lon="1.55436">
        <ele>132.8</ele>
        <time>2026-03-22T08:55:45Z</time>
      </trkpt>
      <trkpt lat="44.48571" lon="1.55432">
        <ele>132.6</ele>
        <time>2026-03-22T08:55:46Z</time>
      </trkpt>
      <trkpt lat="44.48569" lon="1.55421">
        <ele>132</ele>
        <time>2026-03-22T08:55:48Z</time>
      </trkpt>
      <trkpt lat="44.48567" lon="1.55414">
        <ele>131.4</ele>
        <time>2026-03-22T08:55:49Z</time>
      </trkpt>
      <trkpt lat="44.48566" lon="1.55407">
        <ele>130.6</ele>
        <time>2026-03-22T08:55:50Z</time>
      </trkpt>
      <trkpt lat="44.48566" lon="1.55403">
        <ele>130</ele>
        <time>2026-03-22T08:55:51Z</time>
      </trkpt>
      <trkpt lat="44.48564" lon="1.55398">
        <ele>129.4</ele>
        <time>2026-03-22T08:55:52Z</time>
      </trkpt>
      <trkpt lat="44.4856" lon="1.55396">
        <ele>129</ele>
        <time>2026-03-22T08:55:53Z</time>
      </trkpt>
      <trkpt lat="44.48553" lon="1.55394">
        <ele>128.8</ele>
        <time>2026-03-22T08:55:54Z</time>
      </trkpt>
      <trkpt lat="44.48543" lon="1.55394">
        <ele>128.4</ele>
        <time>2026-03-22T08:55:56Z</time>
      </trkpt>
      <trkpt lat="44.48537" lon="1.55397">
        <ele>128</ele>
        <time>2026-03-22T08:55:57Z</time>
      </trkpt>
      <trkpt lat="44.48534" lon="1.55402">
        <ele>127.4</ele>
        <time>2026-03-22T08:55:58Z</time>
      </trkpt>
      <trkpt lat="44.4853" lon="1.55404">
        <ele>126.8</ele>
        <time>2026-03-22T08:55:59Z</time>
      </trkpt>
      <trkpt lat="44.48526" lon="1.55404">
        <ele>126.4</ele>
        <time>2026-03-22T08:56:00Z</time>
      </trkpt>
      <trkpt lat="44.48522" lon="1.55403">
        <ele>125.8</ele>
        <time>2026-03-22T08:56:01Z</time>
      </trkpt>
      <trkpt lat="44.48514" lon="1.55395">
        <ele>125</ele>
        <time>2026-03-22T08:56:03Z</time>
      </trkpt>
      <trkpt lat="44.4851" lon="1.5539">
        <ele>124.8</ele>
        <time>2026-03-22T08:56:04Z</time>
      </trkpt>
      <trkpt lat="44.48507" lon="1.55385">
        <ele>124.6</ele>
        <time>2026-03-22T08:56:05Z</time>
      </trkpt>
      <trkpt lat="44.48504" lon="1.55378">
        <ele>124.4</ele>
        <time>2026-03-22T08:56:06Z</time>
      </trkpt>
      <trkpt lat="44.48501" lon="1.55371">
        <ele>124.2</ele>
        <time>2026-03-22T08:56:07Z</time>
      </trkpt>
      <trkpt lat="44.48493" lon="1.55358">
        <ele>123.6</ele>
        <time>2026-03-22T08:56:09Z</time>
      </trkpt>
      <trkpt lat="44.48486" lon="1.55349">
        <ele>123.2</ele>
        <time>2026-03-22T08:56:11Z</time>
      </trkpt>
      <trkpt lat="44.48484" lon="1.55346">
        <ele>122.8</ele>
        <time>2026-03-22T08:56:12Z</time>
      </trkpt>
      <trkpt lat="44.48479" lon="1.55344">
        <ele>122.8</ele>
        <time>2026-03-22T08:56:13Z</time>
      </trkpt>
      <trkpt lat="44.48474" lon="1.55341">
        <ele>122.6</ele>
        <time>2026-03-22T08:56:14Z</time>
      </trkpt>
      <trkpt lat="44.4847" lon="1.5534">
        <ele>122.2</ele>
        <time>2026-03-22T08:56:15Z</time>
      </trkpt>
      <trkpt lat="44.48466" lon="1.55338">
        <ele>122</ele>
        <time>2026-03-22T08:56:16Z</time>
      </trkpt>
      <trkpt lat="44.4846" lon="1.55335">
        <ele>121.8</ele>
        <time>2026-03-22T08:56:18Z</time>
      </trkpt>
      <trkpt lat="44.48458" lon="1.55333">
        <ele>121.8</ele>
        <time>2026-03-22T08:56:19Z</time>
      </trkpt>
      <trkpt lat="44.48457" lon="1.55332">
        <ele>121.8</ele>
        <time>2026-03-22T08:56:20Z</time>
      </trkpt>
      <trkpt lat="44.48457" lon="1.55332">
        <ele>121.6</ele>
        <time>2026-03-22T08:56:22Z</time>
      </trkpt>
      <trkpt lat="44.48456" lon="1.55332">
        <ele>121.6</ele>
        <time>2026-03-22T08:56:23Z</time>
      </trkpt>
      <trkpt lat="44.48456" lon="1.55331">
        <ele>121.6</ele>
        <time>2026-03-22T08:56:24Z</time>
      </trkpt>
      <trkpt lat="44.48456" lon="1.55331">
        <ele>121.6</ele>
        <time>2026-03-22T08:56:25Z</time>
      </trkpt>
      <trkpt lat="44.48455" lon="1.55329">
        <ele>121.4</ele>
        <time>2026-03-22T08:56:27Z</time>
      </trkpt>
      <trkpt lat="44.48455" lon="1.55329">
        <ele>121.4</ele>
        <time>2026-03-22T08:56:28Z</time>
      </trkpt>
      <trkpt lat="44.48455" lon="1.55329">
        <ele>121.6</ele>
        <time>2026-03-22T08:56:29Z</time>
      </trkpt>
      <trkpt lat="44.48455" lon="1.55328">
        <ele>121.6</ele>
        <time>2026-03-22T08:56:30Z</time>
      </trkpt>
      <trkpt lat="44.48455" lon="1.55327">
        <ele>121.6</ele>
        <time>2026-03-22T08:56:32Z</time>
      </trkpt>
      <trkpt lat="44.48454" lon="1.55327">
        <ele>121.6</ele>
        <time>2026-03-22T08:56:33Z</time>
      </trkpt>
      <trkpt lat="44.48453" lon="1.55325">
        <ele>121.6</ele>
        <time>2026-03-22T08:56:34Z</time>
      </trkpt>
      <trkpt lat="44.48451" lon="1.55321">
        <ele>122</ele>
        <time>2026-03-22T08:56:36Z</time>
      </trkpt>
      <trkpt lat="44.48446" lon="1.5531">
        <ele>122.2</ele>
        <time>2026-03-22T08:56:40Z</time>
      </trkpt>
      <trkpt lat="44.48445" lon="1.55306">
        <ele>122.2</ele>
        <time>2026-03-22T08:56:41Z</time>
      </trkpt>
      <trkpt lat="44.4844" lon="1.55297">
        <ele>122.2</ele>
        <time>2026-03-22T08:56:43Z</time>
      </trkpt>
      <trkpt lat="44.48437" lon="1.55293">
        <ele>122.2</ele>
        <time>2026-03-22T08:56:44Z</time>
      </trkpt>
      <trkpt lat="44.48434" lon="1.55289">
        <ele>122.2</ele>
        <time>2026-03-22T08:56:45Z</time>
      </trkpt>
      <trkpt lat="44.4842" lon="1.55269">
        <ele>122.2</ele>
        <time>2026-03-22T08:56:49Z</time>
      </trkpt>
      <trkpt lat="44.48409" lon="1.55254">
        <ele>122.2</ele>
        <time>2026-03-22T08:56:52Z</time>
      </trkpt>
      <trkpt lat="44.48405" lon="1.55248">
        <ele>122.2</ele>
        <time>2026-03-22T08:56:53Z</time>
      </trkpt>
      <trkpt lat="44.48402" lon="1.55243">
        <ele>122.2</ele>
        <time>2026-03-22T08:56:54Z</time>
      </trkpt>
      <trkpt lat="44.48392" lon="1.55234">
        <ele>122.2</ele>
        <time>2026-03-22T08:56:56Z</time>
      </trkpt>
      <trkpt lat="44.48387" lon="1.5523">
        <ele>122.2</ele>
        <time>2026-03-22T08:56:57Z</time>
      </trkpt>
      <trkpt lat="44.48383" lon="1.55226">
        <ele>122.4</ele>
        <time>2026-03-22T08:56:58Z</time>
      </trkpt>
      <trkpt lat="44.48371" lon="1.55216">
        <ele>122.6</ele>
        <time>2026-03-22T08:57:01Z</time>
      </trkpt>
      <trkpt lat="44.48366" lon="1.55212">
        <ele>122.6</ele>
        <time>2026-03-22T08:57:02Z</time>
      </trkpt>
      <trkpt lat="44.48359" lon="1.55204">
        <ele>122.8</ele>
        <time>2026-03-22T08:57:04Z</time>
      </trkpt>
      <trkpt lat="44.48356" lon="1.552">
        <ele>122.8</ele>
        <time>2026-03-22T08:57:05Z</time>
      </trkpt>
      <trkpt lat="44.48354" lon="1.55196">
        <ele>123</ele>
        <time>2026-03-22T08:57:06Z</time>
      </trkpt>
      <trkpt lat="44.48354" lon="1.55192">
        <ele>123.2</ele>
        <time>2026-03-22T08:57:07Z</time>
      </trkpt>
      <trkpt lat="44.48354" lon="1.55187">
        <ele>123.2</ele>
        <time>2026-03-22T08:57:08Z</time>
      </trkpt>
      <trkpt lat="44.48358" lon="1.55177">
        <ele>123.6</ele>
        <time>2026-03-22T08:57:10Z</time>
      </trkpt>
      <trkpt lat="44.48364" lon="1.5517">
        <ele>124.4</ele>
        <time>2026-03-22T08:57:12Z</time>
      </trkpt>
      <trkpt lat="44.48368" lon="1.55168">
        <ele>125</ele>
        <time>2026-03-22T08:57:13Z</time>
      </trkpt>
      <trkpt lat="44.48371" lon="1.55166">
        <ele>125.8</ele>
        <time>2026-03-22T08:57:14Z</time>
      </trkpt>
      <trkpt lat="44.48375" lon="1.55165">
        <ele>126.2</ele>
        <time>2026-03-22T08:57:15Z</time>
      </trkpt>
      <trkpt lat="44.48378" lon="1.55163">
        <ele>126.6</ele>
        <time>2026-03-22T08:57:16Z</time>
      </trkpt>
      <trkpt lat="44.48382" lon="1.55163">
        <ele>127</ele>
        <time>2026-03-22T08:57:17Z</time>
      </trkpt>
      <trkpt lat="44.48386" lon="1.55162">
        <ele>127.2</ele>
        <time>2026-03-22T08:57:18Z</time>
      </trkpt>
      <trkpt lat="44.4839" lon="1.55161">
        <ele>127.4</ele>
        <time>2026-03-22T08:57:19Z</time>
      </trkpt>
      <trkpt lat="44.48394" lon="1.5516">
        <ele>127.6</ele>
        <time>2026-03-22T08:57:20Z</time>
      </trkpt>
      <trkpt lat="44.48398" lon="1.5516">
        <ele>127.8</ele>
        <time>2026-03-22T08:57:21Z</time>
      </trkpt>
      <trkpt lat="44.48402" lon="1.55159">
        <ele>128</ele>
        <time>2026-03-22T08:57:22Z</time>
      </trkpt>
      <trkpt lat="44.48405" lon="1.55158">
        <ele>128.2</ele>
        <time>2026-03-22T08:57:23Z</time>
      </trkpt>
      <trkpt lat="44.48406" lon="1.55155">
        <ele>128.6</ele>
        <time>2026-03-22T08:57:24Z</time>
      </trkpt>
      <trkpt lat="44.48406" lon="1.55152">
        <ele>129</ele>
        <time>2026-03-22T08:57:25Z</time>
      </trkpt>
      <trkpt lat="44.48404" lon="1.55149">
        <ele>129.2</ele>
        <time>2026-03-22T08:57:26Z</time>
      </trkpt>
      <trkpt lat="44.48401" lon="1.55148">
        <ele>129.4</ele>
        <time>2026-03-22T08:57:27Z</time>
      </trkpt>
      <trkpt lat="44.48397" lon="1.55147">
        <ele>129.8</ele>
        <time>2026-03-22T08:57:28Z</time>
      </trkpt>
      <trkpt lat="44.48392" lon="1.55147">
        <ele>130</ele>
        <time>2026-03-22T08:57:29Z</time>
      </trkpt>
      <trkpt lat="44.48388" lon="1.55148">
        <ele>130</ele>
        <time>2026-03-22T08:57:30Z</time>
      </trkpt>
      <trkpt lat="44.48384" lon="1.55148">
        <ele>130.2</ele>
        <time>2026-03-22T08:57:31Z</time>
      </trkpt>
      <trkpt lat="44.48379" lon="1.55148">
        <ele>130.2</ele>
        <time>2026-03-22T08:57:32Z</time>
      </trkpt>
      <trkpt lat="44.48375" lon="1.55149">
        <ele>130.4</ele>
        <time>2026-03-22T08:57:33Z</time>
      </trkpt>
      <trkpt lat="44.48371" lon="1.55149">
        <ele>130.6</ele>
        <time>2026-03-22T08:57:34Z</time>
      </trkpt>
      <trkpt lat="44.48366" lon="1.5515">
        <ele>130.8</ele>
        <time>2026-03-22T08:57:35Z</time>
      </trkpt>
      <trkpt lat="44.48361" lon="1.55151">
        <ele>131</ele>
        <time>2026-03-22T08:57:36Z</time>
      </trkpt>
      <trkpt lat="44.48356" lon="1.55153">
        <ele>131.2</ele>
        <time>2026-03-22T08:57:37Z</time>
      </trkpt>
      <trkpt lat="44.48351" lon="1.55154">
        <ele>131.4</ele>
        <time>2026-03-22T08:57:38Z</time>
      </trkpt>
      <trkpt lat="44.48345" lon="1.55156">
        <ele>131.6</ele>
        <time>2026-03-22T08:57:39Z</time>
      </trkpt>
      <trkpt lat="44.4834" lon="1.55158">
        <ele>131.8</ele>
        <time>2026-03-22T08:57:40Z</time>
      </trkpt>
      <trkpt lat="44.48335" lon="1.5516">
        <ele>132</ele>
        <time>2026-03-22T08:57:41Z</time>
      </trkpt>
      <trkpt lat="44.4833" lon="1.55161">
        <ele>132.4</ele>
        <time>2026-03-22T08:57:42Z</time>
      </trkpt>
      <trkpt lat="44.48325" lon="1.55162">
        <ele>132.6</ele>
        <time>2026-03-22T08:57:43Z</time>
      </trkpt>
      <trkpt lat="44.48321" lon="1.55167">
        <ele>133</ele>
        <time>2026-03-22T08:57:44Z</time>
      </trkpt>
      <trkpt lat="44.48318" lon="1.55173">
        <ele>133.2</ele>
        <time>2026-03-22T08:57:45Z</time>
      </trkpt>
      <trkpt lat="44.48315" lon="1.55181">
        <ele>133.6</ele>
        <time>2026-03-22T08:57:46Z</time>
      </trkpt>
      <trkpt lat="44.48313" lon="1.55188">
        <ele>133.8</ele>
        <time>2026-03-22T08:57:47Z</time>
      </trkpt>
      <trkpt lat="44.48311" lon="1.55195">
        <ele>134</ele>
        <time>2026-03-22T08:57:48Z</time>
      </trkpt>
      <trkpt lat="44.48308" lon="1.55202">
        <ele>134.4</ele>
        <time>2026-03-22T08:57:49Z</time>
      </trkpt>
      <trkpt lat="44.48304" lon="1.55209">
        <ele>134.6</ele>
        <time>2026-03-22T08:57:50Z</time>
      </trkpt>
      <trkpt lat="44.483" lon="1.55216">
        <ele>134.8</ele>
        <time>2026-03-22T08:57:51Z</time>
      </trkpt>
      <trkpt lat="44.48296" lon="1.55223">
        <ele>134.8</ele>
        <time>2026-03-22T08:57:52Z</time>
      </trkpt>
      <trkpt lat="44.48292" lon="1.5523">
        <ele>134.8</ele>
        <time>2026-03-22T08:57:53Z</time>
      </trkpt>
      <trkpt lat="44.48288" lon="1.55237">
        <ele>134.8</ele>
        <time>2026-03-22T08:57:54Z</time>
      </trkpt>
      <trkpt lat="44.48284" lon="1.55244">
        <ele>134.8</ele>
        <time>2026-03-22T08:57:55Z</time>
      </trkpt>
      <trkpt lat="44.4828" lon="1.55251">
        <ele>134.8</ele>
        <time>2026-03-22T08:57:56Z</time>
      </trkpt>
      <trkpt lat="44.48276" lon="1.55259">
        <ele>134.8</ele>
        <time>2026-03-22T08:57:57Z</time>
      </trkpt>
      <trkpt lat="44.48272" lon="1.55266">
        <ele>134.8</ele>
        <time>2026-03-22T08:57:58Z</time>
      </trkpt>
      <trkpt lat="44.48268" lon="1.55274">
        <ele>134.8</ele>
        <time>2026-03-22T08:57:59Z</time>
      </trkpt>
      <trkpt lat="44.48264" lon="1.55281">
        <ele>134.8</ele>
        <time>2026-03-22T08:58:00Z</time>
      </trkpt>
      <trkpt lat="44.4826" lon="1.55289">
        <ele>134.8</ele>
        <time>2026-03-22T08:58:01Z</time>
      </trkpt>
      <trkpt lat="44.48256" lon="1.55296">
        <ele>134.6</ele>
        <time>2026-03-22T08:58:02Z</time>
      </trkpt>
      <trkpt lat="44.48252" lon="1.55303">
        <ele>134.4</ele>
        <time>2026-03-22T08:58:03Z</time>
      </trkpt>
      <trkpt lat="44.48248" lon="1.55311">
        <ele>134.2</ele>
        <time>2026-03-22T08:58:04Z</time>
      </trkpt>
      <trkpt lat="44.48244" lon="1.55319">
        <ele>134.2</ele>
        <time>2026-03-22T08:58:05Z</time>
      </trkpt>
      <trkpt lat="44.4824" lon="1.55327">
        <ele>134</ele>
        <time>2026-03-22T08:58:06Z</time>
      </trkpt>
      <trkpt lat="44.48236" lon="1.55334">
        <ele>133.8</ele>
        <time>2026-03-22T08:58:07Z</time>
      </trkpt>
      <trkpt lat="44.48228" lon="1.5535">
        <ele>133.4</ele>
        <time>2026-03-22T08:58:09Z</time>
      </trkpt>
      <trkpt lat="44.48224" lon="1.55357">
        <ele>133.4</ele>
        <time>2026-03-22T08:58:10Z</time>
      </trkpt>
      <trkpt lat="44.48212" lon="1.55377">
        <ele>132.6</ele>
        <time>2026-03-22T08:58:13Z</time>
      </trkpt>
      <trkpt lat="44.48209" lon="1.55383">
        <ele>132.4</ele>
        <time>2026-03-22T08:58:14Z</time>
      </trkpt>
      <trkpt lat="44.48205" lon="1.5539">
        <ele>132.4</ele>
        <time>2026-03-22T08:58:15Z</time>
      </trkpt>
      <trkpt lat="44.48202" lon="1.55396">
        <ele>132.4</ele>
        <time>2026-03-22T08:58:16Z</time>
      </trkpt>
      <trkpt lat="44.48196" lon="1.55408">
        <ele>132.4</ele>
        <time>2026-03-22T08:58:18Z</time>
      </trkpt>
      <trkpt lat="44.48193" lon="1.55413">
        <ele>132.4</ele>
        <time>2026-03-22T08:58:19Z</time>
      </trkpt>
      <trkpt lat="44.4819" lon="1.55418">
        <ele>132.4</ele>
        <time>2026-03-22T08:58:20Z</time>
      </trkpt>
      <trkpt lat="44.48178" lon="1.55441">
        <ele>132.4</ele>
        <time>2026-03-22T08:58:24Z</time>
      </trkpt>
      <trkpt lat="44.48175" lon="1.55446">
        <ele>132.6</ele>
        <time>2026-03-22T08:58:25Z</time>
      </trkpt>
      <trkpt lat="44.48172" lon="1.55451">
        <ele>132.8</ele>
        <time>2026-03-22T08:58:26Z</time>
      </trkpt>
      <trkpt lat="44.4817" lon="1.55456">
        <ele>133</ele>
        <time>2026-03-22T08:58:27Z</time>
      </trkpt>
      <trkpt lat="44.48167" lon="1.55461">
        <ele>133.2</ele>
        <time>2026-03-22T08:58:28Z</time>
      </trkpt>
      <trkpt lat="44.48164" lon="1.55467">
        <ele>133.6</ele>
        <time>2026-03-22T08:58:29Z</time>
      </trkpt>
      <trkpt lat="44.48162" lon="1.55472">
        <ele>133.8</ele>
        <time>2026-03-22T08:58:30Z</time>
      </trkpt>
      <trkpt lat="44.48159" lon="1.55477">
        <ele>134.2</ele>
        <time>2026-03-22T08:58:31Z</time>
      </trkpt>
      <trkpt lat="44.48157" lon="1.55482">
        <ele>134.4</ele>
        <time>2026-03-22T08:58:32Z</time>
      </trkpt>
      <trkpt lat="44.48154" lon="1.55487">
        <ele>134.6</ele>
        <time>2026-03-22T08:58:33Z</time>
      </trkpt>
      <trkpt lat="44.48152" lon="1.55492">
        <ele>135</ele>
        <time>2026-03-22T08:58:34Z</time>
      </trkpt>
      <trkpt lat="44.48149" lon="1.55497">
        <ele>135.2</ele>
        <time>2026-03-22T08:58:35Z</time>
      </trkpt>
      <trkpt lat="44.48147" lon="1.55501">
        <ele>135.6</ele>
        <time>2026-03-22T08:58:36Z</time>
      </trkpt>
      <trkpt lat="44.48144" lon="1.55506">
        <ele>135.8</ele>
        <time>2026-03-22T08:58:37Z</time>
      </trkpt>
      <trkpt lat="44.48142" lon="1.5551">
        <ele>136</ele>
        <time>2026-03-22T08:58:38Z</time>
      </trkpt>
      <trkpt lat="44.48139" lon="1.55514">
        <ele>136</ele>
        <time>2026-03-22T08:58:39Z</time>
      </trkpt>
      <trkpt lat="44.48136" lon="1.55516">
        <ele>136.2</ele>
        <time>2026-03-22T08:58:40Z</time>
      </trkpt>
      <trkpt lat="44.48132" lon="1.55519">
        <ele>136.6</ele>
        <time>2026-03-22T08:58:41Z</time>
      </trkpt>
      <trkpt lat="44.48128" lon="1.55519">
        <ele>136.8</ele>
        <time>2026-03-22T08:58:42Z</time>
      </trkpt>
      <trkpt lat="44.48124" lon="1.55519">
        <ele>137</ele>
        <time>2026-03-22T08:58:43Z</time>
      </trkpt>
      <trkpt lat="44.48119" lon="1.55516">
        <ele>137.2</ele>
        <time>2026-03-22T08:58:44Z</time>
      </trkpt>
      <trkpt lat="44.48115" lon="1.55511">
        <ele>137.6</ele>
        <time>2026-03-22T08:58:45Z</time>
      </trkpt>
      <trkpt lat="44.48112" lon="1.55506">
        <ele>138</ele>
        <time>2026-03-22T08:58:46Z</time>
      </trkpt>
      <trkpt lat="44.48107" lon="1.55499">
        <ele>138</ele>
        <time>2026-03-22T08:58:47Z</time>
      </trkpt>
      <trkpt lat="44.48102" lon="1.55492">
        <ele>138.2</ele>
        <time>2026-03-22T08:58:48Z</time>
      </trkpt>
      <trkpt lat="44.48096" lon="1.55485">
        <ele>138.2</ele>
        <time>2026-03-22T08:58:49Z</time>
      </trkpt>
      <trkpt lat="44.48089" lon="1.55477">
        <ele>138.2</ele>
        <time>2026-03-22T08:58:50Z</time>
      </trkpt>
      <trkpt lat="44.48082" lon="1.55469">
        <ele>138.2</ele>
        <time>2026-03-22T08:58:51Z</time>
      </trkpt>
      <trkpt lat="44.48075" lon="1.55461">
        <ele>138.2</ele>
        <time>2026-03-22T08:58:52Z</time>
      </trkpt>
      <trkpt lat="44.48067" lon="1.55454">
        <ele>138.2</ele>
        <time>2026-03-22T08:58:53Z</time>
      </trkpt>
      <trkpt lat="44.48058" lon="1.55446">
        <ele>138.2</ele>
        <time>2026-03-22T08:58:54Z</time>
      </trkpt>
      <trkpt lat="44.48051" lon="1.5544">
        <ele>137.6</ele>
        <time>2026-03-22T08:58:55Z</time>
      </trkpt>
      <trkpt lat="44.48041" lon="1.55434">
        <ele>136.8</ele>
        <time>2026-03-22T08:58:56Z</time>
      </trkpt>
      <trkpt lat="44.48031" lon="1.55431">
        <ele>136</ele>
        <time>2026-03-22T08:58:57Z</time>
      </trkpt>
      <trkpt lat="44.48021" lon="1.5543">
        <ele>135</ele>
        <time>2026-03-22T08:58:58Z</time>
      </trkpt>
      <trkpt lat="44.48012" lon="1.55431">
        <ele>133.8</ele>
        <time>2026-03-22T08:58:59Z</time>
      </trkpt>
      <trkpt lat="44.48003" lon="1.55432">
        <ele>132.8</ele>
        <time>2026-03-22T08:59:00Z</time>
      </trkpt>
      <trkpt lat="44.47996" lon="1.55432">
        <ele>131.2</ele>
        <time>2026-03-22T08:59:01Z</time>
      </trkpt>
      <trkpt lat="44.47986" lon="1.55433">
        <ele>129.8</ele>
        <time>2026-03-22T08:59:02Z</time>
      </trkpt>
      <trkpt lat="44.4798" lon="1.55433">
        <ele>128.8</ele>
        <time>2026-03-22T08:59:03Z</time>
      </trkpt>
      <trkpt lat="44.47972" lon="1.55434">
        <ele>127.8</ele>
        <time>2026-03-22T08:59:04Z</time>
      </trkpt>
      <trkpt lat="44.47965" lon="1.55434">
        <ele>127.2</ele>
        <time>2026-03-22T08:59:05Z</time>
      </trkpt>
      <trkpt lat="44.47956" lon="1.55436">
        <ele>126.8</ele>
        <time>2026-03-22T08:59:06Z</time>
      </trkpt>
      <trkpt lat="44.47949" lon="1.55439">
        <ele>126.6</ele>
        <time>2026-03-22T08:59:07Z</time>
      </trkpt>
      <trkpt lat="44.47943" lon="1.55442">
        <ele>126.4</ele>
        <time>2026-03-22T08:59:08Z</time>
      </trkpt>
      <trkpt lat="44.47937" lon="1.55444">
        <ele>126.4</ele>
        <time>2026-03-22T08:59:09Z</time>
      </trkpt>
      <trkpt lat="44.4793" lon="1.55448">
        <ele>126.2</ele>
        <time>2026-03-22T08:59:10Z</time>
      </trkpt>
      <trkpt lat="44.47924" lon="1.55451">
        <ele>126.2</ele>
        <time>2026-03-22T08:59:11Z</time>
      </trkpt>
      <trkpt lat="44.47918" lon="1.55453">
        <ele>126.2</ele>
        <time>2026-03-22T08:59:12Z</time>
      </trkpt>
      <trkpt lat="44.47913" lon="1.55456">
        <ele>126.2</ele>
        <time>2026-03-22T08:59:13Z</time>
      </trkpt>
      <trkpt lat="44.47908" lon="1.55458">
        <ele>126.2</ele>
        <time>2026-03-22T08:59:14Z</time>
      </trkpt>
      <trkpt lat="44.47895" lon="1.55464">
        <ele>126.2</ele>
        <time>2026-03-22T08:59:16Z</time>
      </trkpt>
      <trkpt lat="44.47891" lon="1.55465">
        <ele>126</ele>
        <time>2026-03-22T08:59:17Z</time>
      </trkpt>
      <trkpt lat="44.47883" lon="1.55467">
        <ele>126</ele>
        <time>2026-03-22T08:59:18Z</time>
      </trkpt>
      <trkpt lat="44.47877" lon="1.55468">
        <ele>126</ele>
        <time>2026-03-22T08:59:19Z</time>
      </trkpt>
      <trkpt lat="44.47854" lon="1.55467">
        <ele>126</ele>
        <time>2026-03-22T08:59:23Z</time>
      </trkpt>
      <trkpt lat="44.47838" lon="1.55466">
        <ele>126</ele>
        <time>2026-03-22T08:59:26Z</time>
      </trkpt>
      <trkpt lat="44.47825" lon="1.55467">
        <ele>126</ele>
        <time>2026-03-22T08:59:28Z</time>
      </trkpt>
      <trkpt lat="44.47819" lon="1.55466">
        <ele>126</ele>
        <time>2026-03-22T08:59:29Z</time>
      </trkpt>
      <trkpt lat="44.47791" lon="1.55466">
        <ele>126</ele>
        <time>2026-03-22T08:59:34Z</time>
      </trkpt>
      <trkpt lat="44.47763" lon="1.55468">
        <ele>126</ele>
        <time>2026-03-22T08:59:39Z</time>
      </trkpt>
      <trkpt lat="44.47737" lon="1.55471">
        <ele>125.8</ele>
        <time>2026-03-22T08:59:44Z</time>
      </trkpt>
      <trkpt lat="44.47733" lon="1.55472">
        <ele>125.8</ele>
        <time>2026-03-22T08:59:45Z</time>
      </trkpt>
      <trkpt lat="44.47728" lon="1.55472">
        <ele>126</ele>
        <time>2026-03-22T08:59:46Z</time>
      </trkpt>
      <trkpt lat="44.47723" lon="1.55473">
        <ele>126</ele>
        <time>2026-03-22T08:59:47Z</time>
      </trkpt>
      <trkpt lat="44.47719" lon="1.55473">
        <ele>126</ele>
        <time>2026-03-22T08:59:48Z</time>
      </trkpt>
      <trkpt lat="44.47715" lon="1.55475">
        <ele>126.2</ele>
        <time>2026-03-22T08:59:49Z</time>
      </trkpt>
      <trkpt lat="44.47711" lon="1.55478">
        <ele>126.2</ele>
        <time>2026-03-22T08:59:50Z</time>
      </trkpt>
      <trkpt lat="44.47709" lon="1.55484">
        <ele>126.2</ele>
        <time>2026-03-22T08:59:51Z</time>
      </trkpt>
      <trkpt lat="44.47707" lon="1.55488">
        <ele>126.6</ele>
        <time>2026-03-22T08:59:52Z</time>
      </trkpt>
      <trkpt lat="44.47706" lon="1.55493">
        <ele>127</ele>
        <time>2026-03-22T08:59:53Z</time>
      </trkpt>
      <trkpt lat="44.47706" lon="1.55497">
        <ele>127.2</ele>
        <time>2026-03-22T08:59:54Z</time>
      </trkpt>
      <trkpt lat="44.47705" lon="1.555">
        <ele>127.2</ele>
        <time>2026-03-22T08:59:55Z</time>
      </trkpt>
      <trkpt lat="44.47705" lon="1.55505">
        <ele>127.4</ele>
        <time>2026-03-22T08:59:56Z</time>
      </trkpt>
      <trkpt lat="44.47704" lon="1.55513">
        <ele>127.6</ele>
        <time>2026-03-22T08:59:58Z</time>
      </trkpt>
      <trkpt lat="44.47703" lon="1.55517">
        <ele>128.4</ele>
        <time>2026-03-22T08:59:59Z</time>
      </trkpt>
      <trkpt lat="44.47703" lon="1.55521">
        <ele>129</ele>
        <time>2026-03-22T09:00:00Z</time>
      </trkpt>
      <trkpt lat="44.47703" lon="1.55524">
        <ele>129.8</ele>
        <time>2026-03-22T09:00:01Z</time>
      </trkpt>
      <trkpt lat="44.47702" lon="1.55528">
        <ele>130.6</ele>
        <time>2026-03-22T09:00:02Z</time>
      </trkpt>
      <trkpt lat="44.47701" lon="1.55533">
        <ele>131.2</ele>
        <time>2026-03-22T09:00:03Z</time>
      </trkpt>
      <trkpt lat="44.477" lon="1.55537">
        <ele>132</ele>
        <time>2026-03-22T09:00:04Z</time>
      </trkpt>
      <trkpt lat="44.47699" lon="1.5554">
        <ele>132.6</ele>
        <time>2026-03-22T09:00:05Z</time>
      </trkpt>
      <trkpt lat="44.47698" lon="1.55544">
        <ele>133.2</ele>
        <time>2026-03-22T09:00:06Z</time>
      </trkpt>
      <trkpt lat="44.47698" lon="1.55547">
        <ele>133.8</ele>
        <time>2026-03-22T09:00:07Z</time>
      </trkpt>
      <trkpt lat="44.47697" lon="1.55553">
        <ele>134.4</ele>
        <time>2026-03-22T09:00:08Z</time>
      </trkpt>
      <trkpt lat="44.47697" lon="1.55556">
        <ele>135</ele>
        <time>2026-03-22T09:00:09Z</time>
      </trkpt>
      <trkpt lat="44.47699" lon="1.55561">
        <ele>135.4</ele>
        <time>2026-03-22T09:00:10Z</time>
      </trkpt>
      <trkpt lat="44.47701" lon="1.55565">
        <ele>136</ele>
        <time>2026-03-22T09:00:11Z</time>
      </trkpt>
      <trkpt lat="44.47704" lon="1.55568">
        <ele>136.6</ele>
        <time>2026-03-22T09:00:12Z</time>
      </trkpt>
      <trkpt lat="44.47706" lon="1.55571">
        <ele>137</ele>
        <time>2026-03-22T09:00:13Z</time>
      </trkpt>
      <trkpt lat="44.47709" lon="1.55574">
        <ele>137.4</ele>
        <time>2026-03-22T09:00:14Z</time>
      </trkpt>
      <trkpt lat="44.47713" lon="1.55577">
        <ele>137.8</ele>
        <time>2026-03-22T09:00:15Z</time>
      </trkpt>
      <trkpt lat="44.47716" lon="1.55579">
        <ele>138.4</ele>
        <time>2026-03-22T09:00:16Z</time>
      </trkpt>
      <trkpt lat="44.47719" lon="1.55581">
        <ele>138.8</ele>
        <time>2026-03-22T09:00:17Z</time>
      </trkpt>
      <trkpt lat="44.47723" lon="1.55583">
        <ele>139</ele>
        <time>2026-03-22T09:00:18Z</time>
      </trkpt>
      <trkpt lat="44.47726" lon="1.55585">
        <ele>139.4</ele>
        <time>2026-03-22T09:00:19Z</time>
      </trkpt>
      <trkpt lat="44.4773" lon="1.55586">
        <ele>139.6</ele>
        <time>2026-03-22T09:00:20Z</time>
      </trkpt>
      <trkpt lat="44.47733" lon="1.55588">
        <ele>139.8</ele>
        <time>2026-03-22T09:00:21Z</time>
      </trkpt>
      <trkpt lat="44.47736" lon="1.55591">
        <ele>140.2</ele>
        <time>2026-03-22T09:00:22Z</time>
      </trkpt>
      <trkpt lat="44.47739" lon="1.55593">
        <ele>140.4</ele>
        <time>2026-03-22T09:00:23Z</time>
      </trkpt>
      <trkpt lat="44.47741" lon="1.55596">
        <ele>140.6</ele>
        <time>2026-03-22T09:00:24Z</time>
      </trkpt>
      <trkpt lat="44.47743" lon="1.55599">
        <ele>140.8</ele>
        <time>2026-03-22T09:00:25Z</time>
      </trkpt>
      <trkpt lat="44.47745" lon="1.55602">
        <ele>141.2</ele>
        <time>2026-03-22T09:00:26Z</time>
      </trkpt>
      <trkpt lat="44.47746" lon="1.55605">
        <ele>141.4</ele>
        <time>2026-03-22T09:00:27Z</time>
      </trkpt>
      <trkpt lat="44.47747" lon="1.55608">
        <ele>141.6</ele>
        <time>2026-03-22T09:00:28Z</time>
      </trkpt>
      <trkpt lat="44.47747" lon="1.55612">
        <ele>142</ele>
        <time>2026-03-22T09:00:29Z</time>
      </trkpt>
      <trkpt lat="44.47747" lon="1.55616">
        <ele>142.4</ele>
        <time>2026-03-22T09:00:30Z</time>
      </trkpt>
      <trkpt lat="44.47748" lon="1.55621">
        <ele>143</ele>
        <time>2026-03-22T09:00:31Z</time>
      </trkpt>
      <trkpt lat="44.47748" lon="1.55624">
        <ele>143.4</ele>
        <time>2026-03-22T09:00:32Z</time>
      </trkpt>
      <trkpt lat="44.47748" lon="1.55628">
        <ele>143.8</ele>
        <time>2026-03-22T09:00:33Z</time>
      </trkpt>
      <trkpt lat="44.47748" lon="1.55632">
        <ele>144.6</ele>
        <time>2026-03-22T09:00:34Z</time>
      </trkpt>
      <trkpt lat="44.47749" lon="1.55637">
        <ele>145.2</ele>
        <time>2026-03-22T09:00:35Z</time>
      </trkpt>
      <trkpt lat="44.47749" lon="1.55642">
        <ele>145.8</ele>
        <time>2026-03-22T09:00:36Z</time>
      </trkpt>
      <trkpt lat="44.47749" lon="1.55646">
        <ele>146.4</ele>
        <time>2026-03-22T09:00:37Z</time>
      </trkpt>
      <trkpt lat="44.47749" lon="1.5565">
        <ele>146.8</ele>
        <time>2026-03-22T09:00:38Z</time>
      </trkpt>
      <trkpt lat="44.47749" lon="1.55654">
        <ele>147.4</ele>
        <time>2026-03-22T09:00:39Z</time>
      </trkpt>
      <trkpt lat="44.47749" lon="1.5566">
        <ele>148.4</ele>
        <time>2026-03-22T09:00:40Z</time>
      </trkpt>
      <trkpt lat="44.47748" lon="1.55665">
        <ele>149</ele>
        <time>2026-03-22T09:00:41Z</time>
      </trkpt>
      <trkpt lat="44.47748" lon="1.55669">
        <ele>149.4</ele>
        <time>2026-03-22T09:00:42Z</time>
      </trkpt>
      <trkpt lat="44.47747" lon="1.55675">
        <ele>149.8</ele>
        <time>2026-03-22T09:00:43Z</time>
      </trkpt>
      <trkpt lat="44.47746" lon="1.5568">
        <ele>150.2</ele>
        <time>2026-03-22T09:00:44Z</time>
      </trkpt>
      <trkpt lat="44.47744" lon="1.55685">
        <ele>150.4</ele>
        <time>2026-03-22T09:00:45Z</time>
      </trkpt>
      <trkpt lat="44.47742" lon="1.5569">
        <ele>150.8</ele>
        <time>2026-03-22T09:00:46Z</time>
      </trkpt>
      <trkpt lat="44.47739" lon="1.55694">
        <ele>151</ele>
        <time>2026-03-22T09:00:47Z</time>
      </trkpt>
      <trkpt lat="44.47737" lon="1.55699">
        <ele>151.4</ele>
        <time>2026-03-22T09:00:48Z</time>
      </trkpt>
      <trkpt lat="44.47735" lon="1.55703">
        <ele>151.6</ele>
        <time>2026-03-22T09:00:49Z</time>
      </trkpt>
      <trkpt lat="44.47733" lon="1.55709">
        <ele>152</ele>
        <time>2026-03-22T09:00:50Z</time>
      </trkpt>
      <trkpt lat="44.47732" lon="1.55717">
        <ele>152</ele>
        <time>2026-03-22T09:00:51Z</time>
      </trkpt>
      <trkpt lat="44.47731" lon="1.55724">
        <ele>152.2</ele>
        <time>2026-03-22T09:00:52Z</time>
      </trkpt>
      <trkpt lat="44.47731" lon="1.55731">
        <ele>152.2</ele>
        <time>2026-03-22T09:00:53Z</time>
      </trkpt>
      <trkpt lat="44.47731" lon="1.55739">
        <ele>152.4</ele>
        <time>2026-03-22T09:00:54Z</time>
      </trkpt>
      <trkpt lat="44.4773" lon="1.55747">
        <ele>152.4</ele>
        <time>2026-03-22T09:00:55Z</time>
      </trkpt>
      <trkpt lat="44.4773" lon="1.55754">
        <ele>152.6</ele>
        <time>2026-03-22T09:00:56Z</time>
      </trkpt>
      <trkpt lat="44.47729" lon="1.55761">
        <ele>152.6</ele>
        <time>2026-03-22T09:00:57Z</time>
      </trkpt>
      <trkpt lat="44.47729" lon="1.55767">
        <ele>152.6</ele>
        <time>2026-03-22T09:00:58Z</time>
      </trkpt>
      <trkpt lat="44.47728" lon="1.55774">
        <ele>152.8</ele>
        <time>2026-03-22T09:00:59Z</time>
      </trkpt>
      <trkpt lat="44.47728" lon="1.55782">
        <ele>152.8</ele>
        <time>2026-03-22T09:01:00Z</time>
      </trkpt>
      <trkpt lat="44.47728" lon="1.55789">
        <ele>153</ele>
        <time>2026-03-22T09:01:01Z</time>
      </trkpt>
      <trkpt lat="44.47727" lon="1.55794">
        <ele>153</ele>
        <time>2026-03-22T09:01:02Z</time>
      </trkpt>
      <trkpt lat="44.47727" lon="1.55802">
        <ele>153</ele>
        <time>2026-03-22T09:01:03Z</time>
      </trkpt>
      <trkpt lat="44.47727" lon="1.55809">
        <ele>153.2</ele>
        <time>2026-03-22T09:01:04Z</time>
      </trkpt>
      <trkpt lat="44.47726" lon="1.55815">
        <ele>153.2</ele>
        <time>2026-03-22T09:01:05Z</time>
      </trkpt>
      <trkpt lat="44.47726" lon="1.55821">
        <ele>153.2</ele>
        <time>2026-03-22T09:01:06Z</time>
      </trkpt>
      <trkpt lat="44.47725" lon="1.55827">
        <ele>153.2</ele>
        <time>2026-03-22T09:01:07Z</time>
      </trkpt>
      <trkpt lat="44.47724" lon="1.55833">
        <ele>153.2</ele>
        <time>2026-03-22T09:01:08Z</time>
      </trkpt>
      <trkpt lat="44.47722" lon="1.55839">
        <ele>153.2</ele>
        <time>2026-03-22T09:01:09Z</time>
      </trkpt>
      <trkpt lat="44.47718" lon="1.55844">
        <ele>153.2</ele>
        <time>2026-03-22T09:01:10Z</time>
      </trkpt>
      <trkpt lat="44.47714" lon="1.55846">
        <ele>153</ele>
        <time>2026-03-22T09:01:11Z</time>
      </trkpt>
      <trkpt lat="44.4771" lon="1.55848">
        <ele>153</ele>
        <time>2026-03-22T09:01:12Z</time>
      </trkpt>
      <trkpt lat="44.47705" lon="1.55848">
        <ele>153</ele>
        <time>2026-03-22T09:01:13Z</time>
      </trkpt>
      <trkpt lat="44.47701" lon="1.55847">
        <ele>153</ele>
        <time>2026-03-22T09:01:14Z</time>
      </trkpt>
      <trkpt lat="44.47697" lon="1.55846">
        <ele>153</ele>
        <time>2026-03-22T09:01:15Z</time>
      </trkpt>
      <trkpt lat="44.47692" lon="1.55844">
        <ele>153</ele>
        <time>2026-03-22T09:01:16Z</time>
      </trkpt>
      <trkpt lat="44.47688" lon="1.55843">
        <ele>153.2</ele>
        <time>2026-03-22T09:01:17Z</time>
      </trkpt>
      <trkpt lat="44.47684" lon="1.55842">
        <ele>153.2</ele>
        <time>2026-03-22T09:01:18Z</time>
      </trkpt>
      <trkpt lat="44.47681" lon="1.55841">
        <ele>153.2</ele>
        <time>2026-03-22T09:01:19Z</time>
      </trkpt>
      <trkpt lat="44.47677" lon="1.5584">
        <ele>153.2</ele>
        <time>2026-03-22T09:01:20Z</time>
      </trkpt>
      <trkpt lat="44.47674" lon="1.55839">
        <ele>153.4</ele>
        <time>2026-03-22T09:01:21Z</time>
      </trkpt>
      <trkpt lat="44.47671" lon="1.55838">
        <ele>153.4</ele>
        <time>2026-03-22T09:01:22Z</time>
      </trkpt>
      <trkpt lat="44.47668" lon="1.55837">
        <ele>153.8</ele>
        <time>2026-03-22T09:01:23Z</time>
      </trkpt>
      <trkpt lat="44.47665" lon="1.55836">
        <ele>154.4</ele>
        <time>2026-03-22T09:01:24Z</time>
      </trkpt>
      <trkpt lat="44.47663" lon="1.55835">
        <ele>154.6</ele>
        <time>2026-03-22T09:01:25Z</time>
      </trkpt>
      <trkpt lat="44.47661" lon="1.55833">
        <ele>155</ele>
        <time>2026-03-22T09:01:26Z</time>
      </trkpt>
      <trkpt lat="44.47658" lon="1.5583">
        <ele>155.4</ele>
        <time>2026-03-22T09:01:27Z</time>
      </trkpt>
      <trkpt lat="44.47656" lon="1.55828">
        <ele>155.8</ele>
        <time>2026-03-22T09:01:28Z</time>
      </trkpt>
      <trkpt lat="44.47652" lon="1.55824">
        <ele>156.4</ele>
        <time>2026-03-22T09:01:30Z</time>
      </trkpt>
      <trkpt lat="44.4765" lon="1.55822">
        <ele>156.8</ele>
        <time>2026-03-22T09:01:31Z</time>
      </trkpt>
      <trkpt lat="44.47648" lon="1.5582">
        <ele>157.4</ele>
        <time>2026-03-22T09:01:32Z</time>
      </trkpt>
      <trkpt lat="44.47646" lon="1.55818">
        <ele>158</ele>
        <time>2026-03-22T09:01:33Z</time>
      </trkpt>
      <trkpt lat="44.47644" lon="1.55816">
        <ele>159</ele>
        <time>2026-03-22T09:01:34Z</time>
      </trkpt>
      <trkpt lat="44.47642" lon="1.55813">
        <ele>159.8</ele>
        <time>2026-03-22T09:01:35Z</time>
      </trkpt>
      <trkpt lat="44.4764" lon="1.5581">
        <ele>160.2</ele>
        <time>2026-03-22T09:01:36Z</time>
      </trkpt>
      <trkpt lat="44.47638" lon="1.55809">
        <ele>160.6</ele>
        <time>2026-03-22T09:01:37Z</time>
      </trkpt>
      <trkpt lat="44.47637" lon="1.55806">
        <ele>161.2</ele>
        <time>2026-03-22T09:01:38Z</time>
      </trkpt>
      <trkpt lat="44.47635" lon="1.55803">
        <ele>161.6</ele>
        <time>2026-03-22T09:01:39Z</time>
      </trkpt>
      <trkpt lat="44.47633" lon="1.55801">
        <ele>162</ele>
        <time>2026-03-22T09:01:40Z</time>
      </trkpt>
      <trkpt lat="44.4763" lon="1.55798">
        <ele>162.4</ele>
        <time>2026-03-22T09:01:41Z</time>
      </trkpt>
      <trkpt lat="44.47628" lon="1.55795">
        <ele>163</ele>
        <time>2026-03-22T09:01:42Z</time>
      </trkpt>
      <trkpt lat="44.47626" lon="1.55792">
        <ele>163.4</ele>
        <time>2026-03-22T09:01:43Z</time>
      </trkpt>
      <trkpt lat="44.47625" lon="1.55789">
        <ele>163.8</ele>
        <time>2026-03-22T09:01:44Z</time>
      </trkpt>
      <trkpt lat="44.47624" lon="1.55786">
        <ele>164.4</ele>
        <time>2026-03-22T09:01:45Z</time>
      </trkpt>
      <trkpt lat="44.47623" lon="1.55783">
        <ele>165</ele>
        <time>2026-03-22T09:01:46Z</time>
      </trkpt>
      <trkpt lat="44.4762" lon="1.55779">
        <ele>165.4</ele>
        <time>2026-03-22T09:01:47Z</time>
      </trkpt>
      <trkpt lat="44.47618" lon="1.55775">
        <ele>166</ele>
        <time>2026-03-22T09:01:48Z</time>
      </trkpt>
      <trkpt lat="44.47616" lon="1.5577">
        <ele>166.6</ele>
        <time>2026-03-22T09:01:49Z</time>
      </trkpt>
      <trkpt lat="44.47615" lon="1.55767">
        <ele>167</ele>
        <time>2026-03-22T09:01:50Z</time>
      </trkpt>
      <trkpt lat="44.47616" lon="1.55764">
        <ele>167.4</ele>
        <time>2026-03-22T09:01:51Z</time>
      </trkpt>
      <trkpt lat="44.47616" lon="1.5576">
        <ele>168</ele>
        <time>2026-03-22T09:01:52Z</time>
      </trkpt>
      <trkpt lat="44.47614" lon="1.55756">
        <ele>168.6</ele>
        <time>2026-03-22T09:01:53Z</time>
      </trkpt>
      <trkpt lat="44.47612" lon="1.55753">
        <ele>169</ele>
        <time>2026-03-22T09:01:54Z</time>
      </trkpt>
      <trkpt lat="44.47609" lon="1.5575">
        <ele>169.4</ele>
        <time>2026-03-22T09:01:55Z</time>
      </trkpt>
      <trkpt lat="44.47605" lon="1.55745">
        <ele>169.8</ele>
        <time>2026-03-22T09:01:56Z</time>
      </trkpt>
      <trkpt lat="44.47604" lon="1.55741">
        <ele>170.2</ele>
        <time>2026-03-22T09:01:57Z</time>
      </trkpt>
      <trkpt lat="44.47602" lon="1.55738">
        <ele>170.8</ele>
        <time>2026-03-22T09:01:58Z</time>
      </trkpt>
      <trkpt lat="44.47599" lon="1.55735">
        <ele>171.2</ele>
        <time>2026-03-22T09:01:59Z</time>
      </trkpt>
      <trkpt lat="44.47597" lon="1.55732">
        <ele>171.6</ele>
        <time>2026-03-22T09:02:00Z</time>
      </trkpt>
      <trkpt lat="44.47596" lon="1.55728">
        <ele>172.2</ele>
        <time>2026-03-22T09:02:01Z</time>
      </trkpt>
      <trkpt lat="44.47596" lon="1.55724">
        <ele>172.6</ele>
        <time>2026-03-22T09:02:02Z</time>
      </trkpt>
      <trkpt lat="44.47595" lon="1.55721">
        <ele>173</ele>
        <time>2026-03-22T09:02:03Z</time>
      </trkpt>
      <trkpt lat="44.47594" lon="1.55718">
        <ele>173.4</ele>
        <time>2026-03-22T09:02:04Z</time>
      </trkpt>
      <trkpt lat="44.47593" lon="1.55716">
        <ele>173.6</ele>
        <time>2026-03-22T09:02:05Z</time>
      </trkpt>
      <trkpt lat="44.47592" lon="1.55713">
        <ele>174.4</ele>
        <time>2026-03-22T09:02:06Z</time>
      </trkpt>
      <trkpt lat="44.47591" lon="1.55709">
        <ele>174.8</ele>
        <time>2026-03-22T09:02:07Z</time>
      </trkpt>
      <trkpt lat="44.47589" lon="1.55705">
        <ele>175.2</ele>
        <time>2026-03-22T09:02:08Z</time>
      </trkpt>
      <trkpt lat="44.47588" lon="1.55704">
        <ele>175.6</ele>
        <time>2026-03-22T09:02:09Z</time>
      </trkpt>
      <trkpt lat="44.47586" lon="1.55702">
        <ele>176.2</ele>
        <time>2026-03-22T09:02:10Z</time>
      </trkpt>
      <trkpt lat="44.47585" lon="1.55699">
        <ele>176.6</ele>
        <time>2026-03-22T09:02:11Z</time>
      </trkpt>
      <trkpt lat="44.47584" lon="1.55697">
        <ele>177</ele>
        <time>2026-03-22T09:02:12Z</time>
      </trkpt>
      <trkpt lat="44.47584" lon="1.55694">
        <ele>177.4</ele>
        <time>2026-03-22T09:02:13Z</time>
      </trkpt>
      <trkpt lat="44.47584" lon="1.55692">
        <ele>177.8</ele>
        <time>2026-03-22T09:02:14Z</time>
      </trkpt>
      <trkpt lat="44.47584" lon="1.55689">
        <ele>178.4</ele>
        <time>2026-03-22T09:02:15Z</time>
      </trkpt>
      <trkpt lat="44.47584" lon="1.55686">
        <ele>178.6</ele>
        <time>2026-03-22T09:02:16Z</time>
      </trkpt>
      <trkpt lat="44.47582" lon="1.55683">
        <ele>179</ele>
        <time>2026-03-22T09:02:17Z</time>
      </trkpt>
      <trkpt lat="44.47582" lon="1.5568">
        <ele>179.4</ele>
        <time>2026-03-22T09:02:18Z</time>
      </trkpt>
      <trkpt lat="44.47581" lon="1.55677">
        <ele>179.8</ele>
        <time>2026-03-22T09:02:19Z</time>
      </trkpt>
      <trkpt lat="44.4758" lon="1.55675">
        <ele>180</ele>
        <time>2026-03-22T09:02:20Z</time>
      </trkpt>
      <trkpt lat="44.47578" lon="1.55672">
        <ele>180.4</ele>
        <time>2026-03-22T09:02:21Z</time>
      </trkpt>
      <trkpt lat="44.47576" lon="1.55669">
        <ele>180.6</ele>
        <time>2026-03-22T09:02:22Z</time>
      </trkpt>
      <trkpt lat="44.47575" lon="1.55666">
        <ele>180.8</ele>
        <time>2026-03-22T09:02:23Z</time>
      </trkpt>
      <trkpt lat="44.47575" lon="1.55664">
        <ele>181.2</ele>
        <time>2026-03-22T09:02:24Z</time>
      </trkpt>
      <trkpt lat="44.47575" lon="1.5566">
        <ele>181.6</ele>
        <time>2026-03-22T09:02:25Z</time>
      </trkpt>
      <trkpt lat="44.47573" lon="1.55657">
        <ele>182</ele>
        <time>2026-03-22T09:02:26Z</time>
      </trkpt>
      <trkpt lat="44.47572" lon="1.55654">
        <ele>182.4</ele>
        <time>2026-03-22T09:02:27Z</time>
      </trkpt>
      <trkpt lat="44.4757" lon="1.5565">
        <ele>182.8</ele>
        <time>2026-03-22T09:02:28Z</time>
      </trkpt>
      <trkpt lat="44.47567" lon="1.55646">
        <ele>183</ele>
        <time>2026-03-22T09:02:29Z</time>
      </trkpt>
      <trkpt lat="44.47565" lon="1.55643">
        <ele>183.2</ele>
        <time>2026-03-22T09:02:30Z</time>
      </trkpt>
      <trkpt lat="44.47563" lon="1.5564">
        <ele>183.6</ele>
        <time>2026-03-22T09:02:31Z</time>
      </trkpt>
      <trkpt lat="44.47561" lon="1.55636">
        <ele>184</ele>
        <time>2026-03-22T09:02:32Z</time>
      </trkpt>
      <trkpt lat="44.47559" lon="1.55634">
        <ele>184.2</ele>
        <time>2026-03-22T09:02:33Z</time>
      </trkpt>
      <trkpt lat="44.47557" lon="1.55633">
        <ele>184.6</ele>
        <time>2026-03-22T09:02:34Z</time>
      </trkpt>
      <trkpt lat="44.47555" lon="1.55634">
        <ele>185</ele>
        <time>2026-03-22T09:02:35Z</time>
      </trkpt>
      <trkpt lat="44.47556" lon="1.55638">
        <ele>185.4</ele>
        <time>2026-03-22T09:02:36Z</time>
      </trkpt>
      <trkpt lat="44.47557" lon="1.55642">
        <ele>185.8</ele>
        <time>2026-03-22T09:02:37Z</time>
      </trkpt>
      <trkpt lat="44.47558" lon="1.55646">
        <ele>186.2</ele>
        <time>2026-03-22T09:02:38Z</time>
      </trkpt>
      <trkpt lat="44.47559" lon="1.55651">
        <ele>186.6</ele>
        <time>2026-03-22T09:02:39Z</time>
      </trkpt>
      <trkpt lat="44.47561" lon="1.55656">
        <ele>186.6</ele>
        <time>2026-03-22T09:02:40Z</time>
      </trkpt>
      <trkpt lat="44.47563" lon="1.5566">
        <ele>187</ele>
        <time>2026-03-22T09:02:41Z</time>
      </trkpt>
      <trkpt lat="44.47564" lon="1.55666">
        <ele>187.6</ele>
        <time>2026-03-22T09:02:42Z</time>
      </trkpt>
      <trkpt lat="44.47564" lon="1.55671">
        <ele>187.8</ele>
        <time>2026-03-22T09:02:43Z</time>
      </trkpt>
      <trkpt lat="44.47565" lon="1.55676">
        <ele>188.2</ele>
        <time>2026-03-22T09:02:44Z</time>
      </trkpt>
      <trkpt lat="44.47565" lon="1.55681">
        <ele>188.4</ele>
        <time>2026-03-22T09:02:45Z</time>
      </trkpt>
      <trkpt lat="44.47567" lon="1.55687">
        <ele>188.6</ele>
        <time>2026-03-22T09:02:46Z</time>
      </trkpt>
      <trkpt lat="44.47568" lon="1.55692">
        <ele>188.8</ele>
        <time>2026-03-22T09:02:47Z</time>
      </trkpt>
      <trkpt lat="44.47568" lon="1.55698">
        <ele>189</ele>
        <time>2026-03-22T09:02:48Z</time>
      </trkpt>
      <trkpt lat="44.47569" lon="1.55703">
        <ele>189.2</ele>
        <time>2026-03-22T09:02:49Z</time>
      </trkpt>
      <trkpt lat="44.4757" lon="1.55707">
        <ele>189.4</ele>
        <time>2026-03-22T09:02:50Z</time>
      </trkpt>
      <trkpt lat="44.4757" lon="1.55712">
        <ele>189.6</ele>
        <time>2026-03-22T09:02:51Z</time>
      </trkpt>
      <trkpt lat="44.4757" lon="1.55716">
        <ele>189.6</ele>
        <time>2026-03-22T09:02:52Z</time>
      </trkpt>
      <trkpt lat="44.47568" lon="1.55719">
        <ele>190.2</ele>
        <time>2026-03-22T09:02:53Z</time>
      </trkpt>
      <trkpt lat="44.47567" lon="1.55722">
        <ele>190.4</ele>
        <time>2026-03-22T09:02:54Z</time>
      </trkpt>
      <trkpt lat="44.47565" lon="1.55723">
        <ele>190.6</ele>
        <time>2026-03-22T09:02:55Z</time>
      </trkpt>
      <trkpt lat="44.47565" lon="1.55721">
        <ele>190.8</ele>
        <time>2026-03-22T09:02:56Z</time>
      </trkpt>
      <trkpt lat="44.47566" lon="1.55718">
        <ele>191.2</ele>
        <time>2026-03-22T09:02:57Z</time>
      </trkpt>
      <trkpt lat="44.47565" lon="1.55714">
        <ele>191.4</ele>
        <time>2026-03-22T09:02:58Z</time>
      </trkpt>
      <trkpt lat="44.47563" lon="1.5571">
        <ele>192</ele>
        <time>2026-03-22T09:02:59Z</time>
      </trkpt>
      <trkpt lat="44.4756" lon="1.55705">
        <ele>192.2</ele>
        <time>2026-03-22T09:03:00Z</time>
      </trkpt>
      <trkpt lat="44.47557" lon="1.557">
        <ele>192.6</ele>
        <time>2026-03-22T09:03:01Z</time>
      </trkpt>
      <trkpt lat="44.47553" lon="1.55696">
        <ele>193</ele>
        <time>2026-03-22T09:03:02Z</time>
      </trkpt>
      <trkpt lat="44.4755" lon="1.55691">
        <ele>193.6</ele>
        <time>2026-03-22T09:03:03Z</time>
      </trkpt>
      <trkpt lat="44.47548" lon="1.55686">
        <ele>194</ele>
        <time>2026-03-22T09:03:04Z</time>
      </trkpt>
      <trkpt lat="44.47546" lon="1.55682">
        <ele>194.2</ele>
        <time>2026-03-22T09:03:05Z</time>
      </trkpt>
      <trkpt lat="44.47543" lon="1.55678">
        <ele>194.8</ele>
        <time>2026-03-22T09:03:06Z</time>
      </trkpt>
      <trkpt lat="44.47542" lon="1.55674">
        <ele>195.2</ele>
        <time>2026-03-22T09:03:07Z</time>
      </trkpt>
      <trkpt lat="44.47539" lon="1.5567">
        <ele>195.8</ele>
        <time>2026-03-22T09:03:08Z</time>
      </trkpt>
      <trkpt lat="44.47535" lon="1.55666">
        <ele>196.6</ele>
        <time>2026-03-22T09:03:09Z</time>
      </trkpt>
      <trkpt lat="44.47535" lon="1.55664">
        <ele>196.8</ele>
        <time>2026-03-22T09:03:10Z</time>
      </trkpt>
      <trkpt lat="44.47532" lon="1.55661">
        <ele>197.2</ele>
        <time>2026-03-22T09:03:11Z</time>
      </trkpt>
      <trkpt lat="44.4753" lon="1.55658">
        <ele>197.8</ele>
        <time>2026-03-22T09:03:12Z</time>
      </trkpt>
      <trkpt lat="44.47528" lon="1.55654">
        <ele>198.2</ele>
        <time>2026-03-22T09:03:13Z</time>
      </trkpt>
      <trkpt lat="44.47527" lon="1.5565">
        <ele>198.8</ele>
        <time>2026-03-22T09:03:14Z</time>
      </trkpt>
      <trkpt lat="44.47526" lon="1.55647">
        <ele>199</ele>
        <time>2026-03-22T09:03:15Z</time>
      </trkpt>
      <trkpt lat="44.47524" lon="1.55642">
        <ele>199.4</ele>
        <time>2026-03-22T09:03:16Z</time>
      </trkpt>
      <trkpt lat="44.47524" lon="1.55638">
        <ele>199.6</ele>
        <time>2026-03-22T09:03:17Z</time>
      </trkpt>
      <trkpt lat="44.47523" lon="1.55633">
        <ele>200</ele>
        <time>2026-03-22T09:03:18Z</time>
      </trkpt>
      <trkpt lat="44.47522" lon="1.55629">
        <ele>200.4</ele>
        <time>2026-03-22T09:03:19Z</time>
      </trkpt>
      <trkpt lat="44.47521" lon="1.55624">
        <ele>200.6</ele>
        <time>2026-03-22T09:03:20Z</time>
      </trkpt>
      <trkpt lat="44.4752" lon="1.5562">
        <ele>201</ele>
        <time>2026-03-22T09:03:21Z</time>
      </trkpt>
      <trkpt lat="44.47518" lon="1.55615">
        <ele>201.2</ele>
        <time>2026-03-22T09:03:22Z</time>
      </trkpt>
      <trkpt lat="44.47516" lon="1.55611">
        <ele>201.6</ele>
        <time>2026-03-22T09:03:23Z</time>
      </trkpt>
      <trkpt lat="44.47514" lon="1.55607">
        <ele>202</ele>
        <time>2026-03-22T09:03:24Z</time>
      </trkpt>
      <trkpt lat="44.47513" lon="1.55603">
        <ele>202.6</ele>
        <time>2026-03-22T09:03:25Z</time>
      </trkpt>
      <trkpt lat="44.47511" lon="1.55599">
        <ele>202.8</ele>
        <time>2026-03-22T09:03:26Z</time>
      </trkpt>
      <trkpt lat="44.4751" lon="1.55595">
        <ele>203.6</ele>
        <time>2026-03-22T09:03:27Z</time>
      </trkpt>
      <trkpt lat="44.47508" lon="1.5559">
        <ele>204.4</ele>
        <time>2026-03-22T09:03:28Z</time>
      </trkpt>
      <trkpt lat="44.47507" lon="1.55586">
        <ele>205.2</ele>
        <time>2026-03-22T09:03:29Z</time>
      </trkpt>
      <trkpt lat="44.47505" lon="1.55582">
        <ele>205.4</ele>
        <time>2026-03-22T09:03:30Z</time>
      </trkpt>
      <trkpt lat="44.47504" lon="1.55578">
        <ele>205.6</ele>
        <time>2026-03-22T09:03:31Z</time>
      </trkpt>
      <trkpt lat="44.47503" lon="1.55574">
        <ele>206.2</ele>
        <time>2026-03-22T09:03:32Z</time>
      </trkpt>
      <trkpt lat="44.47502" lon="1.5557">
        <ele>206.6</ele>
        <time>2026-03-22T09:03:33Z</time>
      </trkpt>
      <trkpt lat="44.47501" lon="1.55566">
        <ele>207</ele>
        <time>2026-03-22T09:03:34Z</time>
      </trkpt>
      <trkpt lat="44.475" lon="1.55563">
        <ele>207.6</ele>
        <time>2026-03-22T09:03:35Z</time>
      </trkpt>
      <trkpt lat="44.475" lon="1.55559">
        <ele>207.8</ele>
        <time>2026-03-22T09:03:36Z</time>
      </trkpt>
      <trkpt lat="44.47499" lon="1.55555">
        <ele>208.2</ele>
        <time>2026-03-22T09:03:37Z</time>
      </trkpt>
      <trkpt lat="44.47499" lon="1.55553">
        <ele>208.4</ele>
        <time>2026-03-22T09:03:38Z</time>
      </trkpt>
      <trkpt lat="44.47498" lon="1.55551">
        <ele>208.8</ele>
        <time>2026-03-22T09:03:39Z</time>
      </trkpt>
      <trkpt lat="44.47498" lon="1.55548">
        <ele>209.2</ele>
        <time>2026-03-22T09:03:40Z</time>
      </trkpt>
      <trkpt lat="44.47498" lon="1.55544">
        <ele>209.6</ele>
        <time>2026-03-22T09:03:41Z</time>
      </trkpt>
      <trkpt lat="44.47498" lon="1.5554">
        <ele>209.8</ele>
        <time>2026-03-22T09:03:42Z</time>
      </trkpt>
      <trkpt lat="44.47497" lon="1.55534">
        <ele>210</ele>
        <time>2026-03-22T09:03:43Z</time>
      </trkpt>
      <trkpt lat="44.47494" lon="1.55528">
        <ele>210.4</ele>
        <time>2026-03-22T09:03:44Z</time>
      </trkpt>
      <trkpt lat="44.47493" lon="1.55523">
        <ele>210.6</ele>
        <time>2026-03-22T09:03:45Z</time>
      </trkpt>
      <trkpt lat="44.47492" lon="1.55517">
        <ele>211</ele>
        <time>2026-03-22T09:03:46Z</time>
      </trkpt>
      <trkpt lat="44.4749" lon="1.55512">
        <ele>211.2</ele>
        <time>2026-03-22T09:03:47Z</time>
      </trkpt>
      <trkpt lat="44.47489" lon="1.55508">
        <ele>211.4</ele>
        <time>2026-03-22T09:03:48Z</time>
      </trkpt>
      <trkpt lat="44.47487" lon="1.55504">
        <ele>211.6</ele>
        <time>2026-03-22T09:03:49Z</time>
      </trkpt>
      <trkpt lat="44.47487" lon="1.55501">
        <ele>212</ele>
        <time>2026-03-22T09:03:50Z</time>
      </trkpt>
      <trkpt lat="44.47485" lon="1.55498">
        <ele>212.2</ele>
        <time>2026-03-22T09:03:51Z</time>
      </trkpt>
      <trkpt lat="44.47484" lon="1.55496">
        <ele>212.6</ele>
        <time>2026-03-22T09:03:52Z</time>
      </trkpt>
      <trkpt lat="44.47481" lon="1.55494">
        <ele>212.8</ele>
        <time>2026-03-22T09:03:53Z</time>
      </trkpt>
      <trkpt lat="44.4748" lon="1.55491">
        <ele>213.4</ele>
        <time>2026-03-22T09:03:54Z</time>
      </trkpt>
      <trkpt lat="44.47479" lon="1.55489">
        <ele>213.8</ele>
        <time>2026-03-22T09:03:55Z</time>
      </trkpt>
      <trkpt lat="44.47477" lon="1.55485">
        <ele>214.6</ele>
        <time>2026-03-22T09:03:56Z</time>
      </trkpt>
      <trkpt lat="44.47476" lon="1.55483">
        <ele>215</ele>
        <time>2026-03-22T09:03:57Z</time>
      </trkpt>
      <trkpt lat="44.47474" lon="1.55481">
        <ele>215.4</ele>
        <time>2026-03-22T09:03:58Z</time>
      </trkpt>
      <trkpt lat="44.47471" lon="1.55477">
        <ele>215.6</ele>
        <time>2026-03-22T09:03:59Z</time>
      </trkpt>
      <trkpt lat="44.47469" lon="1.55475">
        <ele>216</ele>
        <time>2026-03-22T09:04:00Z</time>
      </trkpt>
      <trkpt lat="44.47466" lon="1.55472">
        <ele>216.2</ele>
        <time>2026-03-22T09:04:01Z</time>
      </trkpt>
      <trkpt lat="44.47464" lon="1.5547">
        <ele>216.8</ele>
        <time>2026-03-22T09:04:02Z</time>
      </trkpt>
      <trkpt lat="44.4746" lon="1.55468">
        <ele>217.4</ele>
        <time>2026-03-22T09:04:03Z</time>
      </trkpt>
      <trkpt lat="44.47457" lon="1.55466">
        <ele>217.6</ele>
        <time>2026-03-22T09:04:04Z</time>
      </trkpt>
      <trkpt lat="44.47454" lon="1.55465">
        <ele>218.2</ele>
        <time>2026-03-22T09:04:05Z</time>
      </trkpt>
      <trkpt lat="44.47451" lon="1.55466">
        <ele>218.4</ele>
        <time>2026-03-22T09:04:06Z</time>
      </trkpt>
      <trkpt lat="44.47448" lon="1.55466">
        <ele>219</ele>
        <time>2026-03-22T09:04:07Z</time>
      </trkpt>
      <trkpt lat="44.47444" lon="1.55466">
        <ele>219.2</ele>
        <time>2026-03-22T09:04:08Z</time>
      </trkpt>
      <trkpt lat="44.47441" lon="1.55467">
        <ele>219.8</ele>
        <time>2026-03-22T09:04:09Z</time>
      </trkpt>
      <trkpt lat="44.47439" lon="1.55467">
        <ele>220.4</ele>
        <time>2026-03-22T09:04:10Z</time>
      </trkpt>
      <trkpt lat="44.47436" lon="1.55467">
        <ele>220.8</ele>
        <time>2026-03-22T09:04:11Z</time>
      </trkpt>
      <trkpt lat="44.47434" lon="1.55467">
        <ele>221.2</ele>
        <time>2026-03-22T09:04:12Z</time>
      </trkpt>
      <trkpt lat="44.47431" lon="1.55467">
        <ele>221.8</ele>
        <time>2026-03-22T09:04:13Z</time>
      </trkpt>
      <trkpt lat="44.47428" lon="1.55467">
        <ele>222</ele>
        <time>2026-03-22T09:04:14Z</time>
      </trkpt>
      <trkpt lat="44.47426" lon="1.55467">
        <ele>222.6</ele>
        <time>2026-03-22T09:04:15Z</time>
      </trkpt>
      <trkpt lat="44.47423" lon="1.55468">
        <ele>222.8</ele>
        <time>2026-03-22T09:04:16Z</time>
      </trkpt>
      <trkpt lat="44.4742" lon="1.55469">
        <ele>223.2</ele>
        <time>2026-03-22T09:04:17Z</time>
      </trkpt>
      <trkpt lat="44.47417" lon="1.55471">
        <ele>223.4</ele>
        <time>2026-03-22T09:04:18Z</time>
      </trkpt>
      <trkpt lat="44.47415" lon="1.55473">
        <ele>223.8</ele>
        <time>2026-03-22T09:04:19Z</time>
      </trkpt>
      <trkpt lat="44.47413" lon="1.55476">
        <ele>224.4</ele>
        <time>2026-03-22T09:04:20Z</time>
      </trkpt>
      <trkpt lat="44.47411" lon="1.55479">
        <ele>224.6</ele>
        <time>2026-03-22T09:04:21Z</time>
      </trkpt>
      <trkpt lat="44.4741" lon="1.55481">
        <ele>224.8</ele>
        <time>2026-03-22T09:04:22Z</time>
      </trkpt>
      <trkpt lat="44.47408" lon="1.55483">
        <ele>225</ele>
        <time>2026-03-22T09:04:23Z</time>
      </trkpt>
      <trkpt lat="44.47406" lon="1.55486">
        <ele>225.4</ele>
        <time>2026-03-22T09:04:24Z</time>
      </trkpt>
      <trkpt lat="44.47405" lon="1.55489">
        <ele>225.6</ele>
        <time>2026-03-22T09:04:25Z</time>
      </trkpt>
      <trkpt lat="44.47403" lon="1.55491">
        <ele>225.8</ele>
        <time>2026-03-22T09:04:26Z</time>
      </trkpt>
      <trkpt lat="44.47401" lon="1.55493">
        <ele>226</ele>
        <time>2026-03-22T09:04:27Z</time>
      </trkpt>
      <trkpt lat="44.47399" lon="1.55495">
        <ele>226.6</ele>
        <time>2026-03-22T09:04:28Z</time>
      </trkpt>
      <trkpt lat="44.47397" lon="1.55497">
        <ele>227.2</ele>
        <time>2026-03-22T09:04:29Z</time>
      </trkpt>
      <trkpt lat="44.47395" lon="1.555">
        <ele>227.8</ele>
        <time>2026-03-22T09:04:30Z</time>
      </trkpt>
      <trkpt lat="44.47394" lon="1.55503">
        <ele>228.4</ele>
        <time>2026-03-22T09:04:31Z</time>
      </trkpt>
      <trkpt lat="44.47392" lon="1.55506">
        <ele>228.6</ele>
        <time>2026-03-22T09:04:32Z</time>
      </trkpt>
      <trkpt lat="44.4739" lon="1.55508">
        <ele>229.2</ele>
        <time>2026-03-22T09:04:33Z</time>
      </trkpt>
      <trkpt lat="44.47388" lon="1.5551">
        <ele>229.8</ele>
        <time>2026-03-22T09:04:34Z</time>
      </trkpt>
      <trkpt lat="44.47386" lon="1.55512">
        <ele>230.2</ele>
        <time>2026-03-22T09:04:35Z</time>
      </trkpt>
      <trkpt lat="44.47384" lon="1.55515">
        <ele>230.8</ele>
        <time>2026-03-22T09:04:36Z</time>
      </trkpt>
      <trkpt lat="44.47382" lon="1.55518">
        <ele>231.4</ele>
        <time>2026-03-22T09:04:37Z</time>
      </trkpt>
      <trkpt lat="44.4738" lon="1.55521">
        <ele>231.6</ele>
        <time>2026-03-22T09:04:38Z</time>
      </trkpt>
      <trkpt lat="44.47379" lon="1.55524">
        <ele>232</ele>
        <time>2026-03-22T09:04:39Z</time>
      </trkpt>
      <trkpt lat="44.47377" lon="1.55526">
        <ele>232.2</ele>
        <time>2026-03-22T09:04:40Z</time>
      </trkpt>
      <trkpt lat="44.47375" lon="1.55529">
        <ele>233</ele>
        <time>2026-03-22T09:04:41Z</time>
      </trkpt>
      <trkpt lat="44.47372" lon="1.55532">
        <ele>233.4</ele>
        <time>2026-03-22T09:04:42Z</time>
      </trkpt>
      <trkpt lat="44.4737" lon="1.55535">
        <ele>234</ele>
        <time>2026-03-22T09:04:43Z</time>
      </trkpt>
      <trkpt lat="44.47367" lon="1.55538">
        <ele>234.4</ele>
        <time>2026-03-22T09:04:44Z</time>
      </trkpt>
      <trkpt lat="44.47365" lon="1.55541">
        <ele>234.8</ele>
        <time>2026-03-22T09:04:45Z</time>
      </trkpt>
      <trkpt lat="44.47363" lon="1.55544">
        <ele>235.2</ele>
        <time>2026-03-22T09:04:46Z</time>
      </trkpt>
      <trkpt lat="44.47361" lon="1.55546">
        <ele>235.4</ele>
        <time>2026-03-22T09:04:47Z</time>
      </trkpt>
      <trkpt lat="44.47359" lon="1.55549">
        <ele>236</ele>
        <time>2026-03-22T09:04:48Z</time>
      </trkpt>
      <trkpt lat="44.47357" lon="1.55552">
        <ele>236.4</ele>
        <time>2026-03-22T09:04:49Z</time>
      </trkpt>
      <trkpt lat="44.47355" lon="1.55555">
        <ele>236.8</ele>
        <time>2026-03-22T09:04:50Z</time>
      </trkpt>
      <trkpt lat="44.47353" lon="1.55558">
        <ele>237</ele>
        <time>2026-03-22T09:04:51Z</time>
      </trkpt>
      <trkpt lat="44.47352" lon="1.55561">
        <ele>237.6</ele>
        <time>2026-03-22T09:04:52Z</time>
      </trkpt>
      <trkpt lat="44.4735" lon="1.55563">
        <ele>238</ele>
        <time>2026-03-22T09:04:53Z</time>
      </trkpt>
      <trkpt lat="44.47348" lon="1.55566">
        <ele>238.4</ele>
        <time>2026-03-22T09:04:54Z</time>
      </trkpt>
      <trkpt lat="44.47347" lon="1.55569">
        <ele>239</ele>
        <time>2026-03-22T09:04:55Z</time>
      </trkpt>
      <trkpt lat="44.47344" lon="1.55572">
        <ele>239.4</ele>
        <time>2026-03-22T09:04:56Z</time>
      </trkpt>
      <trkpt lat="44.47342" lon="1.55574">
        <ele>239.8</ele>
        <time>2026-03-22T09:04:57Z</time>
      </trkpt>
      <trkpt lat="44.4734" lon="1.55577">
        <ele>240.4</ele>
        <time>2026-03-22T09:04:58Z</time>
      </trkpt>
      <trkpt lat="44.47338" lon="1.55579">
        <ele>240.8</ele>
        <time>2026-03-22T09:04:59Z</time>
      </trkpt>
      <trkpt lat="44.47336" lon="1.55582">
        <ele>241.2</ele>
        <time>2026-03-22T09:05:00Z</time>
      </trkpt>
      <trkpt lat="44.47333" lon="1.55585">
        <ele>241.8</ele>
        <time>2026-03-22T09:05:01Z</time>
      </trkpt>
      <trkpt lat="44.47331" lon="1.55587">
        <ele>242.2</ele>
        <time>2026-03-22T09:05:02Z</time>
      </trkpt>
      <trkpt lat="44.47329" lon="1.5559">
        <ele>242.6</ele>
        <time>2026-03-22T09:05:03Z</time>
      </trkpt>
      <trkpt lat="44.47327" lon="1.55594">
        <ele>243</ele>
        <time>2026-03-22T09:05:04Z</time>
      </trkpt>
      <trkpt lat="44.47325" lon="1.55597">
        <ele>243.6</ele>
        <time>2026-03-22T09:05:05Z</time>
      </trkpt>
      <trkpt lat="44.47324" lon="1.556">
        <ele>244</ele>
        <time>2026-03-22T09:05:06Z</time>
      </trkpt>
      <trkpt lat="44.47323" lon="1.55603">
        <ele>244.4</ele>
        <time>2026-03-22T09:05:07Z</time>
      </trkpt>
      <trkpt lat="44.47322" lon="1.55607">
        <ele>244.8</ele>
        <time>2026-03-22T09:05:08Z</time>
      </trkpt>
      <trkpt lat="44.47322" lon="1.5561">
        <ele>245</ele>
        <time>2026-03-22T09:05:09Z</time>
      </trkpt>
      <trkpt lat="44.47322" lon="1.55614">
        <ele>245.4</ele>
        <time>2026-03-22T09:05:10Z</time>
      </trkpt>
      <trkpt lat="44.47322" lon="1.55618">
        <ele>245.6</ele>
        <time>2026-03-22T09:05:11Z</time>
      </trkpt>
      <trkpt lat="44.47323" lon="1.55622">
        <ele>246</ele>
        <time>2026-03-22T09:05:12Z</time>
      </trkpt>
      <trkpt lat="44.47323" lon="1.55625">
        <ele>246.6</ele>
        <time>2026-03-22T09:05:13Z</time>
      </trkpt>
      <trkpt lat="44.47324" lon="1.55629">
        <ele>247.2</ele>
        <time>2026-03-22T09:05:14Z</time>
      </trkpt>
      <trkpt lat="44.47324" lon="1.55633">
        <ele>247.6</ele>
        <time>2026-03-22T09:05:15Z</time>
      </trkpt>
      <trkpt lat="44.47325" lon="1.55636">
        <ele>248</ele>
        <time>2026-03-22T09:05:16Z</time>
      </trkpt>
      <trkpt lat="44.47326" lon="1.55639">
        <ele>248.6</ele>
        <time>2026-03-22T09:05:17Z</time>
      </trkpt>
      <trkpt lat="44.47326" lon="1.55642">
        <ele>249</ele>
        <time>2026-03-22T09:05:18Z</time>
      </trkpt>
      <trkpt lat="44.47326" lon="1.55645">
        <ele>249.4</ele>
        <time>2026-03-22T09:05:19Z</time>
      </trkpt>
      <trkpt lat="44.47326" lon="1.55649">
        <ele>249.8</ele>
        <time>2026-03-22T09:05:20Z</time>
      </trkpt>
      <trkpt lat="44.47325" lon="1.55652">
        <ele>250.2</ele>
        <time>2026-03-22T09:05:21Z</time>
      </trkpt>
      <trkpt lat="44.47324" lon="1.55655">
        <ele>250.6</ele>
        <time>2026-03-22T09:05:22Z</time>
      </trkpt>
      <trkpt lat="44.47323" lon="1.55659">
        <ele>250.8</ele>
        <time>2026-03-22T09:05:23Z</time>
      </trkpt>
      <trkpt lat="44.47322" lon="1.55662">
        <ele>251.2</ele>
        <time>2026-03-22T09:05:24Z</time>
      </trkpt>
      <trkpt lat="44.47321" lon="1.55665">
        <ele>251.6</ele>
        <time>2026-03-22T09:05:25Z</time>
      </trkpt>
      <trkpt lat="44.47319" lon="1.55668">
        <ele>252</ele>
        <time>2026-03-22T09:05:26Z</time>
      </trkpt>
      <trkpt lat="44.47318" lon="1.55671">
        <ele>252.4</ele>
        <time>2026-03-22T09:05:27Z</time>
      </trkpt>
      <trkpt lat="44.47317" lon="1.55674">
        <ele>252.8</ele>
        <time>2026-03-22T09:05:28Z</time>
      </trkpt>
      <trkpt lat="44.47315" lon="1.55677">
        <ele>253.2</ele>
        <time>2026-03-22T09:05:29Z</time>
      </trkpt>
      <trkpt lat="44.47314" lon="1.5568">
        <ele>253.6</ele>
        <time>2026-03-22T09:05:30Z</time>
      </trkpt>
      <trkpt lat="44.47313" lon="1.55684">
        <ele>253.8</ele>
        <time>2026-03-22T09:05:31Z</time>
      </trkpt>
      <trkpt lat="44.47312" lon="1.55687">
        <ele>254</ele>
        <time>2026-03-22T09:05:32Z</time>
      </trkpt>
      <trkpt lat="44.47311" lon="1.5569">
        <ele>254.4</ele>
        <time>2026-03-22T09:05:33Z</time>
      </trkpt>
      <trkpt lat="44.47311" lon="1.55694">
        <ele>254.8</ele>
        <time>2026-03-22T09:05:34Z</time>
      </trkpt>
      <trkpt lat="44.47311" lon="1.55698">
        <ele>255.2</ele>
        <time>2026-03-22T09:05:35Z</time>
      </trkpt>
      <trkpt lat="44.47312" lon="1.55701">
        <ele>255.6</ele>
        <time>2026-03-22T09:05:36Z</time>
      </trkpt>
      <trkpt lat="44.47312" lon="1.55705">
        <ele>256</ele>
        <time>2026-03-22T09:05:37Z</time>
      </trkpt>
      <trkpt lat="44.47313" lon="1.55708">
        <ele>256.6</ele>
        <time>2026-03-22T09:05:38Z</time>
      </trkpt>
      <trkpt lat="44.47314" lon="1.55712">
        <ele>257</ele>
        <time>2026-03-22T09:05:39Z</time>
      </trkpt>
      <trkpt lat="44.47314" lon="1.55715">
        <ele>257.4</ele>
        <time>2026-03-22T09:05:40Z</time>
      </trkpt>
      <trkpt lat="44.47314" lon="1.55719">
        <ele>257.8</ele>
        <time>2026-03-22T09:05:41Z</time>
      </trkpt>
      <trkpt lat="44.47314" lon="1.55722">
        <ele>258</ele>
        <time>2026-03-22T09:05:42Z</time>
      </trkpt>
      <trkpt lat="44.47313" lon="1.55725">
        <ele>258.4</ele>
        <time>2026-03-22T09:05:43Z</time>
      </trkpt>
      <trkpt lat="44.47312" lon="1.55727">
        <ele>258.8</ele>
        <time>2026-03-22T09:05:44Z</time>
      </trkpt>
      <trkpt lat="44.4731" lon="1.55729">
        <ele>259.2</ele>
        <time>2026-03-22T09:05:45Z</time>
      </trkpt>
      <trkpt lat="44.47309" lon="1.55731">
        <ele>259.4</ele>
        <time>2026-03-22T09:05:46Z</time>
      </trkpt>
      <trkpt lat="44.47307" lon="1.55732">
        <ele>259.6</ele>
        <time>2026-03-22T09:05:47Z</time>
      </trkpt>
      <trkpt lat="44.47306" lon="1.55734">
        <ele>259.8</ele>
        <time>2026-03-22T09:05:48Z</time>
      </trkpt>
      <trkpt lat="44.47305" lon="1.55736">
        <ele>260</ele>
        <time>2026-03-22T09:05:49Z</time>
      </trkpt>
      <trkpt lat="44.47303" lon="1.55739">
        <ele>260.4</ele>
        <time>2026-03-22T09:05:50Z</time>
      </trkpt>
      <trkpt lat="44.47302" lon="1.55742">
        <ele>260.6</ele>
        <time>2026-03-22T09:05:51Z</time>
      </trkpt>
      <trkpt lat="44.473" lon="1.55743">
        <ele>261</ele>
        <time>2026-03-22T09:05:52Z</time>
      </trkpt>
      <trkpt lat="44.47298" lon="1.55744">
        <ele>261.2</ele>
        <time>2026-03-22T09:05:53Z</time>
      </trkpt>
      <trkpt lat="44.47295" lon="1.55745">
        <ele>261.4</ele>
        <time>2026-03-22T09:05:54Z</time>
      </trkpt>
      <trkpt lat="44.47293" lon="1.55746">
        <ele>261.8</ele>
        <time>2026-03-22T09:05:55Z</time>
      </trkpt>
      <trkpt lat="44.47291" lon="1.55749">
        <ele>262</ele>
        <time>2026-03-22T09:05:56Z</time>
      </trkpt>
      <trkpt lat="44.47289" lon="1.55751">
        <ele>262.4</ele>
        <time>2026-03-22T09:05:57Z</time>
      </trkpt>
      <trkpt lat="44.47287" lon="1.55753">
        <ele>262.8</ele>
        <time>2026-03-22T09:05:58Z</time>
      </trkpt>
      <trkpt lat="44.47284" lon="1.55755">
        <ele>262.8</ele>
        <time>2026-03-22T09:05:59Z</time>
      </trkpt>
      <trkpt lat="44.47282" lon="1.55756">
        <ele>263</ele>
        <time>2026-03-22T09:06:00Z</time>
      </trkpt>
      <trkpt lat="44.4728" lon="1.55757">
        <ele>263.2</ele>
        <time>2026-03-22T09:06:01Z</time>
      </trkpt>
      <trkpt lat="44.47278" lon="1.55759">
        <ele>263.4</ele>
        <time>2026-03-22T09:06:02Z</time>
      </trkpt>
      <trkpt lat="44.47276" lon="1.55759">
        <ele>263.6</ele>
        <time>2026-03-22T09:06:03Z</time>
      </trkpt>
      <trkpt lat="44.47273" lon="1.55758">
        <ele>263.6</ele>
        <time>2026-03-22T09:06:04Z</time>
      </trkpt>
      <trkpt lat="44.4727" lon="1.55758">
        <ele>264</ele>
        <time>2026-03-22T09:06:05Z</time>
      </trkpt>
      <trkpt lat="44.47267" lon="1.55759">
        <ele>264.4</ele>
        <time>2026-03-22T09:06:06Z</time>
      </trkpt>
      <trkpt lat="44.47263" lon="1.5576">
        <ele>264.4</ele>
        <time>2026-03-22T09:06:07Z</time>
      </trkpt>
      <trkpt lat="44.47259" lon="1.55762">
        <ele>264.6</ele>
        <time>2026-03-22T09:06:08Z</time>
      </trkpt>
      <trkpt lat="44.47255" lon="1.55764">
        <ele>264.6</ele>
        <time>2026-03-22T09:06:09Z</time>
      </trkpt>
      <trkpt lat="44.47251" lon="1.55766">
        <ele>264.8</ele>
        <time>2026-03-22T09:06:10Z</time>
      </trkpt>
      <trkpt lat="44.47247" lon="1.55768">
        <ele>265</ele>
        <time>2026-03-22T09:06:11Z</time>
      </trkpt>
      <trkpt lat="44.47243" lon="1.55771">
        <ele>265.2</ele>
        <time>2026-03-22T09:06:12Z</time>
      </trkpt>
      <trkpt lat="44.47238" lon="1.55774">
        <ele>265.2</ele>
        <time>2026-03-22T09:06:13Z</time>
      </trkpt>
      <trkpt lat="44.47234" lon="1.55776">
        <ele>265.4</ele>
        <time>2026-03-22T09:06:14Z</time>
      </trkpt>
      <trkpt lat="44.4723" lon="1.5578">
        <ele>265.4</ele>
        <time>2026-03-22T09:06:15Z</time>
      </trkpt>
      <trkpt lat="44.47227" lon="1.55784">
        <ele>265.6</ele>
        <time>2026-03-22T09:06:16Z</time>
      </trkpt>
      <trkpt lat="44.47224" lon="1.55787">
        <ele>265.8</ele>
        <time>2026-03-22T09:06:17Z</time>
      </trkpt>
      <trkpt lat="44.4722" lon="1.55789">
        <ele>266</ele>
        <time>2026-03-22T09:06:18Z</time>
      </trkpt>
      <trkpt lat="44.47216" lon="1.55789">
        <ele>266</ele>
        <time>2026-03-22T09:06:19Z</time>
      </trkpt>
      <trkpt lat="44.47212" lon="1.55788">
        <ele>266</ele>
        <time>2026-03-22T09:06:20Z</time>
      </trkpt>
      <trkpt lat="44.47207" lon="1.55787">
        <ele>266</ele>
        <time>2026-03-22T09:06:21Z</time>
      </trkpt>
      <trkpt lat="44.47203" lon="1.55784">
        <ele>266</ele>
        <time>2026-03-22T09:06:22Z</time>
      </trkpt>
      <trkpt lat="44.472" lon="1.5578">
        <ele>266</ele>
        <time>2026-03-22T09:06:23Z</time>
      </trkpt>
      <trkpt lat="44.47196" lon="1.55776">
        <ele>266</ele>
        <time>2026-03-22T09:06:24Z</time>
      </trkpt>
      <trkpt lat="44.47191" lon="1.55773">
        <ele>266</ele>
        <time>2026-03-22T09:06:25Z</time>
      </trkpt>
      <trkpt lat="44.47185" lon="1.55773">
        <ele>266</ele>
        <time>2026-03-22T09:06:26Z</time>
      </trkpt>
      <trkpt lat="44.4718" lon="1.55774">
        <ele>265.8</ele>
        <time>2026-03-22T09:06:27Z</time>
      </trkpt>
      <trkpt lat="44.47175" lon="1.55778">
        <ele>265.6</ele>
        <time>2026-03-22T09:06:28Z</time>
      </trkpt>
      <trkpt lat="44.47171" lon="1.55781">
        <ele>265.2</ele>
        <time>2026-03-22T09:06:29Z</time>
      </trkpt>
      <trkpt lat="44.47167" lon="1.55784">
        <ele>265</ele>
        <time>2026-03-22T09:06:30Z</time>
      </trkpt>
      <trkpt lat="44.47163" lon="1.55786">
        <ele>264.4</ele>
        <time>2026-03-22T09:06:31Z</time>
      </trkpt>
      <trkpt lat="44.4716" lon="1.55787">
        <ele>263.4</ele>
        <time>2026-03-22T09:06:32Z</time>
      </trkpt>
      <trkpt lat="44.47157" lon="1.55788">
        <ele>263</ele>
        <time>2026-03-22T09:06:33Z</time>
      </trkpt>
      <trkpt lat="44.47155" lon="1.55789">
        <ele>262.8</ele>
        <time>2026-03-22T09:06:34Z</time>
      </trkpt>
      <trkpt lat="44.47153" lon="1.5579">
        <ele>262.6</ele>
        <time>2026-03-22T09:06:35Z</time>
      </trkpt>
      <trkpt lat="44.47151" lon="1.55791">
        <ele>262.6</ele>
        <time>2026-03-22T09:06:36Z</time>
      </trkpt>
      <trkpt lat="44.47149" lon="1.55792">
        <ele>262.6</ele>
        <time>2026-03-22T09:06:37Z</time>
      </trkpt>
      <trkpt lat="44.47146" lon="1.55793">
        <ele>262.6</ele>
        <time>2026-03-22T09:06:38Z</time>
      </trkpt>
      <trkpt lat="44.47144" lon="1.55793">
        <ele>262.6</ele>
        <time>2026-03-22T09:06:39Z</time>
      </trkpt>
      <trkpt lat="44.47142" lon="1.55794">
        <ele>262.6</ele>
        <time>2026-03-22T09:06:40Z</time>
      </trkpt>
      <trkpt lat="44.47138" lon="1.55795">
        <ele>262.6</ele>
        <time>2026-03-22T09:06:42Z</time>
      </trkpt>
      <trkpt lat="44.47137" lon="1.55795">
        <ele>262.6</ele>
        <time>2026-03-22T09:06:43Z</time>
      </trkpt>
      <trkpt lat="44.47136" lon="1.55796">
        <ele>263.2</ele>
        <time>2026-03-22T09:06:44Z</time>
      </trkpt>
      <trkpt lat="44.47134" lon="1.55798">
        <ele>263.6</ele>
        <time>2026-03-22T09:06:45Z</time>
      </trkpt>
      <trkpt lat="44.47131" lon="1.55799">
        <ele>264.4</ele>
        <time>2026-03-22T09:06:47Z</time>
      </trkpt>
      <trkpt lat="44.47129" lon="1.55798">
        <ele>265</ele>
        <time>2026-03-22T09:06:48Z</time>
      </trkpt>
      <trkpt lat="44.47127" lon="1.55798">
        <ele>265.6</ele>
        <time>2026-03-22T09:06:49Z</time>
      </trkpt>
      <trkpt lat="44.47125" lon="1.55798">
        <ele>266</ele>
        <time>2026-03-22T09:06:50Z</time>
      </trkpt>
      <trkpt lat="44.47125" lon="1.55799">
        <ele>266.6</ele>
        <time>2026-03-22T09:06:51Z</time>
      </trkpt>
      <trkpt lat="44.47124" lon="1.558">
        <ele>267.2</ele>
        <time>2026-03-22T09:06:52Z</time>
      </trkpt>
      <trkpt lat="44.47124" lon="1.558">
        <ele>267.6</ele>
        <time>2026-03-22T09:06:53Z</time>
      </trkpt>
      <trkpt lat="44.47124" lon="1.558">
        <ele>268</ele>
        <time>2026-03-22T09:06:54Z</time>
      </trkpt>
      <trkpt lat="44.47124" lon="1.558">
        <ele>268.6</ele>
        <time>2026-03-22T09:06:55Z</time>
      </trkpt>
      <trkpt lat="44.47123" lon="1.55801">
        <ele>269.4</ele>
        <time>2026-03-22T09:06:56Z</time>
      </trkpt>
      <trkpt lat="44.47123" lon="1.55801">
        <ele>269.8</ele>
        <time>2026-03-22T09:06:57Z</time>
      </trkpt>
      <trkpt lat="44.47123" lon="1.55801">
        <ele>270.8</ele>
        <time>2026-03-22T09:06:58Z</time>
      </trkpt>
      <trkpt lat="44.47123" lon="1.55801">
        <ele>271.2</ele>
        <time>2026-03-22T09:06:59Z</time>
      </trkpt>
      <trkpt lat="44.47122" lon="1.55804">
        <ele>271.4</ele>
        <time>2026-03-22T09:07:01Z</time>
      </trkpt>
      <trkpt lat="44.47121" lon="1.55805">
        <ele>271.4</ele>
        <time>2026-03-22T09:07:02Z</time>
      </trkpt>
      <trkpt lat="44.47119" lon="1.55806">
        <ele>271.6</ele>
        <time>2026-03-22T09:07:03Z</time>
      </trkpt>
      <trkpt lat="44.47118" lon="1.55807">
        <ele>271.6</ele>
        <time>2026-03-22T09:07:04Z</time>
      </trkpt>
      <trkpt lat="44.47115" lon="1.55807">
        <ele>271.6</ele>
        <time>2026-03-22T09:07:05Z</time>
      </trkpt>
      <trkpt lat="44.47113" lon="1.55808">
        <ele>271.8</ele>
        <time>2026-03-22T09:07:06Z</time>
      </trkpt>
      <trkpt lat="44.47111" lon="1.55809">
        <ele>271.8</ele>
        <time>2026-03-22T09:07:07Z</time>
      </trkpt>
      <trkpt lat="44.47109" lon="1.55809">
        <ele>272</ele>
        <time>2026-03-22T09:07:08Z</time>
      </trkpt>
      <trkpt lat="44.47107" lon="1.5581">
        <ele>272.4</ele>
        <time>2026-03-22T09:07:09Z</time>
      </trkpt>
      <trkpt lat="44.47106" lon="1.55812">
        <ele>272.6</ele>
        <time>2026-03-22T09:07:10Z</time>
      </trkpt>
      <trkpt lat="44.47105" lon="1.55813">
        <ele>273</ele>
        <time>2026-03-22T09:07:11Z</time>
      </trkpt>
      <trkpt lat="44.47103" lon="1.55814">
        <ele>273.6</ele>
        <time>2026-03-22T09:07:12Z</time>
      </trkpt>
      <trkpt lat="44.47102" lon="1.55816">
        <ele>274.2</ele>
        <time>2026-03-22T09:07:13Z</time>
      </trkpt>
      <trkpt lat="44.47099" lon="1.55816">
        <ele>274.8</ele>
        <time>2026-03-22T09:07:14Z</time>
      </trkpt>
      <trkpt lat="44.47097" lon="1.55817">
        <ele>275.4</ele>
        <time>2026-03-22T09:07:15Z</time>
      </trkpt>
      <trkpt lat="44.47096" lon="1.55817">
        <ele>276</ele>
        <time>2026-03-22T09:07:16Z</time>
      </trkpt>
      <trkpt lat="44.47094" lon="1.55818">
        <ele>276.4</ele>
        <time>2026-03-22T09:07:17Z</time>
      </trkpt>
      <trkpt lat="44.47091" lon="1.5582">
        <ele>277</ele>
        <time>2026-03-22T09:07:18Z</time>
      </trkpt>
      <trkpt lat="44.47089" lon="1.55821">
        <ele>277.2</ele>
        <time>2026-03-22T09:07:19Z</time>
      </trkpt>
      <trkpt lat="44.47087" lon="1.55824">
        <ele>277.8</ele>
        <time>2026-03-22T09:07:20Z</time>
      </trkpt>
      <trkpt lat="44.47085" lon="1.55826">
        <ele>278.2</ele>
        <time>2026-03-22T09:07:21Z</time>
      </trkpt>
      <trkpt lat="44.4708" lon="1.55827">
        <ele>278.6</ele>
        <time>2026-03-22T09:07:22Z</time>
      </trkpt>
      <trkpt lat="44.47078" lon="1.55829">
        <ele>279</ele>
        <time>2026-03-22T09:07:23Z</time>
      </trkpt>
      <trkpt lat="44.47075" lon="1.55831">
        <ele>279.6</ele>
        <time>2026-03-22T09:07:24Z</time>
      </trkpt>
      <trkpt lat="44.47073" lon="1.55832">
        <ele>280</ele>
        <time>2026-03-22T09:07:25Z</time>
      </trkpt>
      <trkpt lat="44.4707" lon="1.55833">
        <ele>280.4</ele>
        <time>2026-03-22T09:07:26Z</time>
      </trkpt>
      <trkpt lat="44.47068" lon="1.55833">
        <ele>281</ele>
        <time>2026-03-22T09:07:27Z</time>
      </trkpt>
      <trkpt lat="44.47066" lon="1.55835">
        <ele>281.4</ele>
        <time>2026-03-22T09:07:28Z</time>
      </trkpt>
      <trkpt lat="44.47062" lon="1.55837">
        <ele>282</ele>
        <time>2026-03-22T09:07:29Z</time>
      </trkpt>
      <trkpt lat="44.47059" lon="1.55839">
        <ele>282.4</ele>
        <time>2026-03-22T09:07:30Z</time>
      </trkpt>
      <trkpt lat="44.47056" lon="1.55841">
        <ele>282.8</ele>
        <time>2026-03-22T09:07:31Z</time>
      </trkpt>
      <trkpt lat="44.47054" lon="1.55842">
        <ele>283.2</ele>
        <time>2026-03-22T09:07:32Z</time>
      </trkpt>
      <trkpt lat="44.47051" lon="1.55843">
        <ele>283.4</ele>
        <time>2026-03-22T09:07:33Z</time>
      </trkpt>
      <trkpt lat="44.47047" lon="1.55845">
        <ele>283.6</ele>
        <time>2026-03-22T09:07:34Z</time>
      </trkpt>
      <trkpt lat="44.47045" lon="1.55847">
        <ele>284.2</ele>
        <time>2026-03-22T09:07:35Z</time>
      </trkpt>
      <trkpt lat="44.47042" lon="1.55848">
        <ele>284.6</ele>
        <time>2026-03-22T09:07:36Z</time>
      </trkpt>
      <trkpt lat="44.47039" lon="1.5585">
        <ele>285.2</ele>
        <time>2026-03-22T09:07:37Z</time>
      </trkpt>
      <trkpt lat="44.47036" lon="1.55852">
        <ele>285.6</ele>
        <time>2026-03-22T09:07:38Z</time>
      </trkpt>
      <trkpt lat="44.47034" lon="1.55854">
        <ele>286</ele>
        <time>2026-03-22T09:07:39Z</time>
      </trkpt>
      <trkpt lat="44.47031" lon="1.55857">
        <ele>286.4</ele>
        <time>2026-03-22T09:07:40Z</time>
      </trkpt>
      <trkpt lat="44.47028" lon="1.5586">
        <ele>286.6</ele>
        <time>2026-03-22T09:07:41Z</time>
      </trkpt>
      <trkpt lat="44.47026" lon="1.55863">
        <ele>286.8</ele>
        <time>2026-03-22T09:07:42Z</time>
      </trkpt>
      <trkpt lat="44.47023" lon="1.55866">
        <ele>287.4</ele>
        <time>2026-03-22T09:07:43Z</time>
      </trkpt>
      <trkpt lat="44.4702" lon="1.55868">
        <ele>287.8</ele>
        <time>2026-03-22T09:07:44Z</time>
      </trkpt>
      <trkpt lat="44.47017" lon="1.5587">
        <ele>288.4</ele>
        <time>2026-03-22T09:07:45Z</time>
      </trkpt>
      <trkpt lat="44.47014" lon="1.55871">
        <ele>288.8</ele>
        <time>2026-03-22T09:07:46Z</time>
      </trkpt>
      <trkpt lat="44.47011" lon="1.55871">
        <ele>289.2</ele>
        <time>2026-03-22T09:07:47Z</time>
      </trkpt>
      <trkpt lat="44.47008" lon="1.55871">
        <ele>289.4</ele>
        <time>2026-03-22T09:07:48Z</time>
      </trkpt>
      <trkpt lat="44.47006" lon="1.55872">
        <ele>289.8</ele>
        <time>2026-03-22T09:07:49Z</time>
      </trkpt>
      <trkpt lat="44.47003" lon="1.55873">
        <ele>290</ele>
        <time>2026-03-22T09:07:50Z</time>
      </trkpt>
      <trkpt lat="44.47001" lon="1.55875">
        <ele>290.2</ele>
        <time>2026-03-22T09:07:51Z</time>
      </trkpt>
      <trkpt lat="44.46998" lon="1.55877">
        <ele>290.6</ele>
        <time>2026-03-22T09:07:52Z</time>
      </trkpt>
      <trkpt lat="44.46994" lon="1.55877">
        <ele>290.8</ele>
        <time>2026-03-22T09:07:53Z</time>
      </trkpt>
      <trkpt lat="44.46991" lon="1.55878">
        <ele>291</ele>
        <time>2026-03-22T09:07:54Z</time>
      </trkpt>
      <trkpt lat="44.46987" lon="1.55878">
        <ele>291.2</ele>
        <time>2026-03-22T09:07:55Z</time>
      </trkpt>
      <trkpt lat="44.46984" lon="1.55878">
        <ele>291.4</ele>
        <time>2026-03-22T09:07:56Z</time>
      </trkpt>
      <trkpt lat="44.4698" lon="1.55877">
        <ele>291.6</ele>
        <time>2026-03-22T09:07:57Z</time>
      </trkpt>
      <trkpt lat="44.46976" lon="1.55878">
        <ele>291.8</ele>
        <time>2026-03-22T09:07:58Z</time>
      </trkpt>
      <trkpt lat="44.46973" lon="1.55878">
        <ele>292</ele>
        <time>2026-03-22T09:07:59Z</time>
      </trkpt>
      <trkpt lat="44.46969" lon="1.55879">
        <ele>292.2</ele>
        <time>2026-03-22T09:08:00Z</time>
      </trkpt>
      <trkpt lat="44.46967" lon="1.55881">
        <ele>292.4</ele>
        <time>2026-03-22T09:08:01Z</time>
      </trkpt>
      <trkpt lat="44.46963" lon="1.55883">
        <ele>292.6</ele>
        <time>2026-03-22T09:08:02Z</time>
      </trkpt>
      <trkpt lat="44.4696" lon="1.55885">
        <ele>292.8</ele>
        <time>2026-03-22T09:08:03Z</time>
      </trkpt>
      <trkpt lat="44.46956" lon="1.55887">
        <ele>292.8</ele>
        <time>2026-03-22T09:08:04Z</time>
      </trkpt>
      <trkpt lat="44.46953" lon="1.55889">
        <ele>293.2</ele>
        <time>2026-03-22T09:08:05Z</time>
      </trkpt>
      <trkpt lat="44.46949" lon="1.55891">
        <ele>293.4</ele>
        <time>2026-03-22T09:08:06Z</time>
      </trkpt>
      <trkpt lat="44.46945" lon="1.55894">
        <ele>293.6</ele>
        <time>2026-03-22T09:08:07Z</time>
      </trkpt>
      <trkpt lat="44.46941" lon="1.55898">
        <ele>293.8</ele>
        <time>2026-03-22T09:08:08Z</time>
      </trkpt>
      <trkpt lat="44.46937" lon="1.559">
        <ele>294</ele>
        <time>2026-03-22T09:08:09Z</time>
      </trkpt>
      <trkpt lat="44.46934" lon="1.55903">
        <ele>294.2</ele>
        <time>2026-03-22T09:08:10Z</time>
      </trkpt>
      <trkpt lat="44.4693" lon="1.55904">
        <ele>294.4</ele>
        <time>2026-03-22T09:08:11Z</time>
      </trkpt>
      <trkpt lat="44.46926" lon="1.55906">
        <ele>294.6</ele>
        <time>2026-03-22T09:08:12Z</time>
      </trkpt>
      <trkpt lat="44.46922" lon="1.55908">
        <ele>294.8</ele>
        <time>2026-03-22T09:08:13Z</time>
      </trkpt>
      <trkpt lat="44.46918" lon="1.55909">
        <ele>295</ele>
        <time>2026-03-22T09:08:14Z</time>
      </trkpt>
      <trkpt lat="44.46914" lon="1.5591">
        <ele>295</ele>
        <time>2026-03-22T09:08:15Z</time>
      </trkpt>
      <trkpt lat="44.4691" lon="1.55912">
        <ele>295.2</ele>
        <time>2026-03-22T09:08:16Z</time>
      </trkpt>
      <trkpt lat="44.46906" lon="1.55913">
        <ele>295.2</ele>
        <time>2026-03-22T09:08:17Z</time>
      </trkpt>
      <trkpt lat="44.46903" lon="1.55915">
        <ele>295.6</ele>
        <time>2026-03-22T09:08:18Z</time>
      </trkpt>
      <trkpt lat="44.469" lon="1.55917">
        <ele>295.8</ele>
        <time>2026-03-22T09:08:19Z</time>
      </trkpt>
      <trkpt lat="44.46896" lon="1.5592">
        <ele>296.2</ele>
        <time>2026-03-22T09:08:20Z</time>
      </trkpt>
      <trkpt lat="44.46892" lon="1.55922">
        <ele>296.6</ele>
        <time>2026-03-22T09:08:21Z</time>
      </trkpt>
      <trkpt lat="44.46889" lon="1.55925">
        <ele>297</ele>
        <time>2026-03-22T09:08:22Z</time>
      </trkpt>
      <trkpt lat="44.46885" lon="1.55927">
        <ele>297.4</ele>
        <time>2026-03-22T09:08:23Z</time>
      </trkpt>
      <trkpt lat="44.46881" lon="1.55929">
        <ele>298</ele>
        <time>2026-03-22T09:08:24Z</time>
      </trkpt>
      <trkpt lat="44.46877" lon="1.5593">
        <ele>298.4</ele>
        <time>2026-03-22T09:08:25Z</time>
      </trkpt>
      <trkpt lat="44.46873" lon="1.55931">
        <ele>298.8</ele>
        <time>2026-03-22T09:08:26Z</time>
      </trkpt>
      <trkpt lat="44.4687" lon="1.55933">
        <ele>299</ele>
        <time>2026-03-22T09:08:27Z</time>
      </trkpt>
      <trkpt lat="44.46866" lon="1.55935">
        <ele>299.4</ele>
        <time>2026-03-22T09:08:28Z</time>
      </trkpt>
      <trkpt lat="44.46862" lon="1.55938">
        <ele>299.6</ele>
        <time>2026-03-22T09:08:29Z</time>
      </trkpt>
      <trkpt lat="44.46859" lon="1.55941">
        <ele>299.8</ele>
        <time>2026-03-22T09:08:30Z</time>
      </trkpt>
      <trkpt lat="44.46856" lon="1.55944">
        <ele>299.8</ele>
        <time>2026-03-22T09:08:31Z</time>
      </trkpt>
      <trkpt lat="44.46852" lon="1.55947">
        <ele>300</ele>
        <time>2026-03-22T09:08:32Z</time>
      </trkpt>
      <trkpt lat="44.46849" lon="1.55949">
        <ele>300.6</ele>
        <time>2026-03-22T09:08:33Z</time>
      </trkpt>
      <trkpt lat="44.46845" lon="1.55951">
        <ele>300.8</ele>
        <time>2026-03-22T09:08:34Z</time>
      </trkpt>
      <trkpt lat="44.46842" lon="1.55953">
        <ele>301.2</ele>
        <time>2026-03-22T09:08:35Z</time>
      </trkpt>
      <trkpt lat="44.46838" lon="1.55954">
        <ele>302</ele>
        <time>2026-03-22T09:08:36Z</time>
      </trkpt>
      <trkpt lat="44.46834" lon="1.55956">
        <ele>302.4</ele>
        <time>2026-03-22T09:08:37Z</time>
      </trkpt>
      <trkpt lat="44.46831" lon="1.55958">
        <ele>302.8</ele>
        <time>2026-03-22T09:08:38Z</time>
      </trkpt>
      <trkpt lat="44.46827" lon="1.55959">
        <ele>303</ele>
        <time>2026-03-22T09:08:39Z</time>
      </trkpt>
      <trkpt lat="44.46823" lon="1.5596">
        <ele>303.2</ele>
        <time>2026-03-22T09:08:40Z</time>
      </trkpt>
      <trkpt lat="44.46819" lon="1.55962">
        <ele>303.6</ele>
        <time>2026-03-22T09:08:41Z</time>
      </trkpt>
      <trkpt lat="44.46815" lon="1.55964">
        <ele>304.2</ele>
        <time>2026-03-22T09:08:42Z</time>
      </trkpt>
      <trkpt lat="44.46812" lon="1.55968">
        <ele>304.4</ele>
        <time>2026-03-22T09:08:43Z</time>
      </trkpt>
      <trkpt lat="44.46809" lon="1.55971">
        <ele>305</ele>
        <time>2026-03-22T09:08:44Z</time>
      </trkpt>
      <trkpt lat="44.46805" lon="1.55974">
        <ele>305.4</ele>
        <time>2026-03-22T09:08:45Z</time>
      </trkpt>
      <trkpt lat="44.468" lon="1.55975">
        <ele>305.8</ele>
        <time>2026-03-22T09:08:46Z</time>
      </trkpt>
      <trkpt lat="44.46796" lon="1.55977">
        <ele>306</ele>
        <time>2026-03-22T09:08:47Z</time>
      </trkpt>
      <trkpt lat="44.46792" lon="1.55978">
        <ele>306.4</ele>
        <time>2026-03-22T09:08:48Z</time>
      </trkpt>
      <trkpt lat="44.46788" lon="1.5598">
        <ele>306.8</ele>
        <time>2026-03-22T09:08:49Z</time>
      </trkpt>
      <trkpt lat="44.46784" lon="1.55983">
        <ele>307.4</ele>
        <time>2026-03-22T09:08:50Z</time>
      </trkpt>
      <trkpt lat="44.4678" lon="1.55986">
        <ele>308</ele>
        <time>2026-03-22T09:08:51Z</time>
      </trkpt>
      <trkpt lat="44.46777" lon="1.55989">
        <ele>308.4</ele>
        <time>2026-03-22T09:08:52Z</time>
      </trkpt>
      <trkpt lat="44.46773" lon="1.55992">
        <ele>308.6</ele>
        <time>2026-03-22T09:08:53Z</time>
      </trkpt>
      <trkpt lat="44.46769" lon="1.55995">
        <ele>308.8</ele>
        <time>2026-03-22T09:08:54Z</time>
      </trkpt>
      <trkpt lat="44.46765" lon="1.55998">
        <ele>309.2</ele>
        <time>2026-03-22T09:08:55Z</time>
      </trkpt>
      <trkpt lat="44.46761" lon="1.56002">
        <ele>309.6</ele>
        <time>2026-03-22T09:08:56Z</time>
      </trkpt>
      <trkpt lat="44.46756" lon="1.56006">
        <ele>309.8</ele>
        <time>2026-03-22T09:08:57Z</time>
      </trkpt>
      <trkpt lat="44.46751" lon="1.56011">
        <ele>309.8</ele>
        <time>2026-03-22T09:08:58Z</time>
      </trkpt>
      <trkpt lat="44.46746" lon="1.56015">
        <ele>310.2</ele>
        <time>2026-03-22T09:08:59Z</time>
      </trkpt>
      <trkpt lat="44.46741" lon="1.56018">
        <ele>310.4</ele>
        <time>2026-03-22T09:09:00Z</time>
      </trkpt>
      <trkpt lat="44.46736" lon="1.56022">
        <ele>310.4</ele>
        <time>2026-03-22T09:09:01Z</time>
      </trkpt>
      <trkpt lat="44.46732" lon="1.56026">
        <ele>310.6</ele>
        <time>2026-03-22T09:09:02Z</time>
      </trkpt>
      <trkpt lat="44.46727" lon="1.5603">
        <ele>310.6</ele>
        <time>2026-03-22T09:09:03Z</time>
      </trkpt>
      <trkpt lat="44.46722" lon="1.56034">
        <ele>310.8</ele>
        <time>2026-03-22T09:09:04Z</time>
      </trkpt>
      <trkpt lat="44.46718" lon="1.56039">
        <ele>310.8</ele>
        <time>2026-03-22T09:09:05Z</time>
      </trkpt>
      <trkpt lat="44.46714" lon="1.56043">
        <ele>311</ele>
        <time>2026-03-22T09:09:06Z</time>
      </trkpt>
      <trkpt lat="44.4671" lon="1.56048">
        <ele>311</ele>
        <time>2026-03-22T09:09:07Z</time>
      </trkpt>
      <trkpt lat="44.46706" lon="1.56052">
        <ele>311</ele>
        <time>2026-03-22T09:09:08Z</time>
      </trkpt>
      <trkpt lat="44.46701" lon="1.56055">
        <ele>311</ele>
        <time>2026-03-22T09:09:09Z</time>
      </trkpt>
      <trkpt lat="44.46697" lon="1.56059">
        <ele>311</ele>
        <time>2026-03-22T09:09:10Z</time>
      </trkpt>
      <trkpt lat="44.46693" lon="1.56061">
        <ele>311.2</ele>
        <time>2026-03-22T09:09:11Z</time>
      </trkpt>
      <trkpt lat="44.4669" lon="1.56063">
        <ele>311.2</ele>
        <time>2026-03-22T09:09:12Z</time>
      </trkpt>
      <trkpt lat="44.46685" lon="1.56066">
        <ele>311.4</ele>
        <time>2026-03-22T09:09:13Z</time>
      </trkpt>
      <trkpt lat="44.46682" lon="1.56069">
        <ele>311.6</ele>
        <time>2026-03-22T09:09:14Z</time>
      </trkpt>
      <trkpt lat="44.46678" lon="1.56073">
        <ele>311.8</ele>
        <time>2026-03-22T09:09:15Z</time>
      </trkpt>
      <trkpt lat="44.46675" lon="1.56078">
        <ele>312</ele>
        <time>2026-03-22T09:09:16Z</time>
      </trkpt>
      <trkpt lat="44.46672" lon="1.56083">
        <ele>312.2</ele>
        <time>2026-03-22T09:09:17Z</time>
      </trkpt>
      <trkpt lat="44.46669" lon="1.56087">
        <ele>312.4</ele>
        <time>2026-03-22T09:09:18Z</time>
      </trkpt>
      <trkpt lat="44.46667" lon="1.56092">
        <ele>312.4</ele>
        <time>2026-03-22T09:09:19Z</time>
      </trkpt>
      <trkpt lat="44.46665" lon="1.56097">
        <ele>312.8</ele>
        <time>2026-03-22T09:09:20Z</time>
      </trkpt>
      <trkpt lat="44.46662" lon="1.56101">
        <ele>312.8</ele>
        <time>2026-03-22T09:09:21Z</time>
      </trkpt>
      <trkpt lat="44.4666" lon="1.56106">
        <ele>313.2</ele>
        <time>2026-03-22T09:09:22Z</time>
      </trkpt>
      <trkpt lat="44.46657" lon="1.5611">
        <ele>313.2</ele>
        <time>2026-03-22T09:09:23Z</time>
      </trkpt>
      <trkpt lat="44.46654" lon="1.56114">
        <ele>313.4</ele>
        <time>2026-03-22T09:09:24Z</time>
      </trkpt>
      <trkpt lat="44.46652" lon="1.56118">
        <ele>313.6</ele>
        <time>2026-03-22T09:09:25Z</time>
      </trkpt>
      <trkpt lat="44.46649" lon="1.56122">
        <ele>313.8</ele>
        <time>2026-03-22T09:09:26Z</time>
      </trkpt>
      <trkpt lat="44.46646" lon="1.56125">
        <ele>314</ele>
        <time>2026-03-22T09:09:27Z</time>
      </trkpt>
      <trkpt lat="44.46644" lon="1.56129">
        <ele>314.2</ele>
        <time>2026-03-22T09:09:28Z</time>
      </trkpt>
      <trkpt lat="44.46641" lon="1.56132">
        <ele>314.4</ele>
        <time>2026-03-22T09:09:29Z</time>
      </trkpt>
      <trkpt lat="44.46638" lon="1.56136">
        <ele>314.6</ele>
        <time>2026-03-22T09:09:30Z</time>
      </trkpt>
      <trkpt lat="44.46636" lon="1.5614">
        <ele>315</ele>
        <time>2026-03-22T09:09:31Z</time>
      </trkpt>
      <trkpt lat="44.46633" lon="1.56144">
        <ele>315.2</ele>
        <time>2026-03-22T09:09:32Z</time>
      </trkpt>
      <trkpt lat="44.46631" lon="1.56149">
        <ele>315.4</ele>
        <time>2026-03-22T09:09:33Z</time>
      </trkpt>
      <trkpt lat="44.46629" lon="1.56154">
        <ele>315.6</ele>
        <time>2026-03-22T09:09:34Z</time>
      </trkpt>
      <trkpt lat="44.46627" lon="1.56158">
        <ele>315.8</ele>
        <time>2026-03-22T09:09:35Z</time>
      </trkpt>
      <trkpt lat="44.46625" lon="1.56163">
        <ele>315.8</ele>
        <time>2026-03-22T09:09:36Z</time>
      </trkpt>
      <trkpt lat="44.46624" lon="1.56168">
        <ele>316</ele>
        <time>2026-03-22T09:09:37Z</time>
      </trkpt>
      <trkpt lat="44.46622" lon="1.56172">
        <ele>316.2</ele>
        <time>2026-03-22T09:09:38Z</time>
      </trkpt>
      <trkpt lat="44.4662" lon="1.56175">
        <ele>316.4</ele>
        <time>2026-03-22T09:09:39Z</time>
      </trkpt>
      <trkpt lat="44.46617" lon="1.56179">
        <ele>316.4</ele>
        <time>2026-03-22T09:09:40Z</time>
      </trkpt>
      <trkpt lat="44.46613" lon="1.56182">
        <ele>316.8</ele>
        <time>2026-03-22T09:09:41Z</time>
      </trkpt>
      <trkpt lat="44.4661" lon="1.56185">
        <ele>317</ele>
        <time>2026-03-22T09:09:42Z</time>
      </trkpt>
      <trkpt lat="44.46606" lon="1.56189">
        <ele>317.4</ele>
        <time>2026-03-22T09:09:43Z</time>
      </trkpt>
      <trkpt lat="44.46603" lon="1.56193">
        <ele>317.6</ele>
        <time>2026-03-22T09:09:44Z</time>
      </trkpt>
      <trkpt lat="44.46601" lon="1.56196">
        <ele>317.6</ele>
        <time>2026-03-22T09:09:45Z</time>
      </trkpt>
      <trkpt lat="44.46598" lon="1.56199">
        <ele>317.8</ele>
        <time>2026-03-22T09:09:46Z</time>
      </trkpt>
      <trkpt lat="44.46595" lon="1.56202">
        <ele>317.8</ele>
        <time>2026-03-22T09:09:47Z</time>
      </trkpt>
      <trkpt lat="44.46592" lon="1.56206">
        <ele>318</ele>
        <time>2026-03-22T09:09:48Z</time>
      </trkpt>
      <trkpt lat="44.46589" lon="1.56209">
        <ele>318.2</ele>
        <time>2026-03-22T09:09:49Z</time>
      </trkpt>
      <trkpt lat="44.46586" lon="1.56212">
        <ele>318.4</ele>
        <time>2026-03-22T09:09:50Z</time>
      </trkpt>
      <trkpt lat="44.46582" lon="1.56216">
        <ele>318.4</ele>
        <time>2026-03-22T09:09:51Z</time>
      </trkpt>
      <trkpt lat="44.46579" lon="1.56219">
        <ele>318.8</ele>
        <time>2026-03-22T09:09:52Z</time>
      </trkpt>
      <trkpt lat="44.46576" lon="1.56223">
        <ele>319.2</ele>
        <time>2026-03-22T09:09:53Z</time>
      </trkpt>
      <trkpt lat="44.46572" lon="1.56228">
        <ele>319.8</ele>
        <time>2026-03-22T09:09:54Z</time>
      </trkpt>
      <trkpt lat="44.46569" lon="1.56232">
        <ele>320</ele>
        <time>2026-03-22T09:09:55Z</time>
      </trkpt>
      <trkpt lat="44.46565" lon="1.56236">
        <ele>320.4</ele>
        <time>2026-03-22T09:09:56Z</time>
      </trkpt>
      <trkpt lat="44.4656" lon="1.56239">
        <ele>320.6</ele>
        <time>2026-03-22T09:09:57Z</time>
      </trkpt>
      <trkpt lat="44.46555" lon="1.56241">
        <ele>320.6</ele>
        <time>2026-03-22T09:09:58Z</time>
      </trkpt>
      <trkpt lat="44.4655" lon="1.56241">
        <ele>320.6</ele>
        <time>2026-03-22T09:09:59Z</time>
      </trkpt>
      <trkpt lat="44.46545" lon="1.56239">
        <ele>320.6</ele>
        <time>2026-03-22T09:10:00Z</time>
      </trkpt>
      <trkpt lat="44.4654" lon="1.56238">
        <ele>320.6</ele>
        <time>2026-03-22T09:10:01Z</time>
      </trkpt>
      <trkpt lat="44.46534" lon="1.5624">
        <ele>320.6</ele>
        <time>2026-03-22T09:10:02Z</time>
      </trkpt>
      <trkpt lat="44.4653" lon="1.56245">
        <ele>320.6</ele>
        <time>2026-03-22T09:10:03Z</time>
      </trkpt>
      <trkpt lat="44.46525" lon="1.5625">
        <ele>320.4</ele>
        <time>2026-03-22T09:10:04Z</time>
      </trkpt>
      <trkpt lat="44.46521" lon="1.56256">
        <ele>320.4</ele>
        <time>2026-03-22T09:10:05Z</time>
      </trkpt>
      <trkpt lat="44.46518" lon="1.56263">
        <ele>320.2</ele>
        <time>2026-03-22T09:10:06Z</time>
      </trkpt>
      <trkpt lat="44.46514" lon="1.56269">
        <ele>320</ele>
        <time>2026-03-22T09:10:07Z</time>
      </trkpt>
      <trkpt lat="44.46509" lon="1.56271">
        <ele>319.6</ele>
        <time>2026-03-22T09:10:08Z</time>
      </trkpt>
      <trkpt lat="44.46502" lon="1.56274">
        <ele>319.4</ele>
        <time>2026-03-22T09:10:09Z</time>
      </trkpt>
      <trkpt lat="44.46495" lon="1.56277">
        <ele>319.2</ele>
        <time>2026-03-22T09:10:10Z</time>
      </trkpt>
      <trkpt lat="44.46488" lon="1.5628">
        <ele>318.6</ele>
        <time>2026-03-22T09:10:11Z</time>
      </trkpt>
      <trkpt lat="44.46481" lon="1.56285">
        <ele>318.4</ele>
        <time>2026-03-22T09:10:12Z</time>
      </trkpt>
      <trkpt lat="44.46474" lon="1.56292">
        <ele>318</ele>
        <time>2026-03-22T09:10:13Z</time>
      </trkpt>
      <trkpt lat="44.46467" lon="1.56301">
        <ele>317.4</ele>
        <time>2026-03-22T09:10:14Z</time>
      </trkpt>
      <trkpt lat="44.46463" lon="1.56312">
        <ele>317</ele>
        <time>2026-03-22T09:10:15Z</time>
      </trkpt>
      <trkpt lat="44.4646" lon="1.56324">
        <ele>316.4</ele>
        <time>2026-03-22T09:10:16Z</time>
      </trkpt>
      <trkpt lat="44.46456" lon="1.56337">
        <ele>315.8</ele>
        <time>2026-03-22T09:10:17Z</time>
      </trkpt>
      <trkpt lat="44.46452" lon="1.56349">
        <ele>315.4</ele>
        <time>2026-03-22T09:10:18Z</time>
      </trkpt>
      <trkpt lat="44.46446" lon="1.56359">
        <ele>315</ele>
        <time>2026-03-22T09:10:19Z</time>
      </trkpt>
      <trkpt lat="44.46439" lon="1.5637">
        <ele>314.4</ele>
        <time>2026-03-22T09:10:20Z</time>
      </trkpt>
      <trkpt lat="44.46431" lon="1.56379">
        <ele>313.2</ele>
        <time>2026-03-22T09:10:21Z</time>
      </trkpt>
      <trkpt lat="44.46422" lon="1.56388">
        <ele>311.4</ele>
        <time>2026-03-22T09:10:22Z</time>
      </trkpt>
      <trkpt lat="44.46413" lon="1.56397">
        <ele>310.4</ele>
        <time>2026-03-22T09:10:23Z</time>
      </trkpt>
      <trkpt lat="44.46404" lon="1.56406">
        <ele>309.2</ele>
        <time>2026-03-22T09:10:24Z</time>
      </trkpt>
      <trkpt lat="44.46387" lon="1.56423">
        <ele>308</ele>
        <time>2026-03-22T09:10:26Z</time>
      </trkpt>
      <trkpt lat="44.46379" lon="1.56432">
        <ele>306.6</ele>
        <time>2026-03-22T09:10:27Z</time>
      </trkpt>
      <trkpt lat="44.46371" lon="1.5644">
        <ele>305.6</ele>
        <time>2026-03-22T09:10:28Z</time>
      </trkpt>
      <trkpt lat="44.46362" lon="1.56448">
        <ele>304.2</ele>
        <time>2026-03-22T09:10:29Z</time>
      </trkpt>
      <trkpt lat="44.46354" lon="1.56457">
        <ele>303.4</ele>
        <time>2026-03-22T09:10:30Z</time>
      </trkpt>
      <trkpt lat="44.46347" lon="1.56465">
        <ele>302.6</ele>
        <time>2026-03-22T09:10:31Z</time>
      </trkpt>
      <trkpt lat="44.4634" lon="1.56474">
        <ele>301.4</ele>
        <time>2026-03-22T09:10:32Z</time>
      </trkpt>
      <trkpt lat="44.46333" lon="1.56482">
        <ele>300.6</ele>
        <time>2026-03-22T09:10:33Z</time>
      </trkpt>
      <trkpt lat="44.46327" lon="1.56489">
        <ele>299.6</ele>
        <time>2026-03-22T09:10:34Z</time>
      </trkpt>
      <trkpt lat="44.4632" lon="1.56496">
        <ele>298.6</ele>
        <time>2026-03-22T09:10:35Z</time>
      </trkpt>
      <trkpt lat="44.46314" lon="1.56503">
        <ele>297.8</ele>
        <time>2026-03-22T09:10:36Z</time>
      </trkpt>
      <trkpt lat="44.46308" lon="1.56509">
        <ele>297.4</ele>
        <time>2026-03-22T09:10:37Z</time>
      </trkpt>
      <trkpt lat="44.46302" lon="1.56514">
        <ele>297</ele>
        <time>2026-03-22T09:10:38Z</time>
      </trkpt>
      <trkpt lat="44.46296" lon="1.56518">
        <ele>296.8</ele>
        <time>2026-03-22T09:10:39Z</time>
      </trkpt>
      <trkpt lat="44.4629" lon="1.56521">
        <ele>296.6</ele>
        <time>2026-03-22T09:10:40Z</time>
      </trkpt>
      <trkpt lat="44.46286" lon="1.56523">
        <ele>296.4</ele>
        <time>2026-03-22T09:10:41Z</time>
      </trkpt>
      <trkpt lat="44.46279" lon="1.56527">
        <ele>296.2</ele>
        <time>2026-03-22T09:10:42Z</time>
      </trkpt>
      <trkpt lat="44.46274" lon="1.5653">
        <ele>296.2</ele>
        <time>2026-03-22T09:10:43Z</time>
      </trkpt>
      <trkpt lat="44.46269" lon="1.56533">
        <ele>296.2</ele>
        <time>2026-03-22T09:10:44Z</time>
      </trkpt>
      <trkpt lat="44.46264" lon="1.56536">
        <ele>296.2</ele>
        <time>2026-03-22T09:10:45Z</time>
      </trkpt>
      <trkpt lat="44.46244" lon="1.56552">
        <ele>296.2</ele>
        <time>2026-03-22T09:10:49Z</time>
      </trkpt>
      <trkpt lat="44.46234" lon="1.5656">
        <ele>296.4</ele>
        <time>2026-03-22T09:10:51Z</time>
      </trkpt>
      <trkpt lat="44.4623" lon="1.56564">
        <ele>296.6</ele>
        <time>2026-03-22T09:10:52Z</time>
      </trkpt>
      <trkpt lat="44.46225" lon="1.56569">
        <ele>296.8</ele>
        <time>2026-03-22T09:10:53Z</time>
      </trkpt>
      <trkpt lat="44.46221" lon="1.56573">
        <ele>296.8</ele>
        <time>2026-03-22T09:10:54Z</time>
      </trkpt>
      <trkpt lat="44.46207" lon="1.56585">
        <ele>297</ele>
        <time>2026-03-22T09:10:57Z</time>
      </trkpt>
      <trkpt lat="44.46202" lon="1.56589">
        <ele>297</ele>
        <time>2026-03-22T09:10:58Z</time>
      </trkpt>
      <trkpt lat="44.46198" lon="1.56592">
        <ele>297.2</ele>
        <time>2026-03-22T09:10:59Z</time>
      </trkpt>
      <trkpt lat="44.46194" lon="1.56594">
        <ele>297.2</ele>
        <time>2026-03-22T09:11:00Z</time>
      </trkpt>
      <trkpt lat="44.46191" lon="1.56597">
        <ele>297.2</ele>
        <time>2026-03-22T09:11:01Z</time>
      </trkpt>
      <trkpt lat="44.46188" lon="1.566">
        <ele>297.2</ele>
        <time>2026-03-22T09:11:02Z</time>
      </trkpt>
      <trkpt lat="44.46185" lon="1.56602">
        <ele>297.4</ele>
        <time>2026-03-22T09:11:03Z</time>
      </trkpt>
      <trkpt lat="44.46182" lon="1.56603">
        <ele>297.4</ele>
        <time>2026-03-22T09:11:04Z</time>
      </trkpt>
      <trkpt lat="44.46179" lon="1.56605">
        <ele>297.4</ele>
        <time>2026-03-22T09:11:05Z</time>
      </trkpt>
      <trkpt lat="44.46176" lon="1.56607">
        <ele>297.4</ele>
        <time>2026-03-22T09:11:06Z</time>
      </trkpt>
      <trkpt lat="44.4616" lon="1.56618">
        <ele>297.6</ele>
        <time>2026-03-22T09:11:10Z</time>
      </trkpt>
      <trkpt lat="44.46152" lon="1.56624">
        <ele>297.6</ele>
        <time>2026-03-22T09:11:12Z</time>
      </trkpt>
      <trkpt lat="44.46147" lon="1.56626">
        <ele>297.8</ele>
        <time>2026-03-22T09:11:13Z</time>
      </trkpt>
      <trkpt lat="44.46144" lon="1.56628">
        <ele>297.8</ele>
        <time>2026-03-22T09:11:14Z</time>
      </trkpt>
      <trkpt lat="44.46136" lon="1.56632">
        <ele>298</ele>
        <time>2026-03-22T09:11:16Z</time>
      </trkpt>
      <trkpt lat="44.46132" lon="1.56635">
        <ele>298</ele>
        <time>2026-03-22T09:11:17Z</time>
      </trkpt>
      <trkpt lat="44.46125" lon="1.56639">
        <ele>298.4</ele>
        <time>2026-03-22T09:11:19Z</time>
      </trkpt>
      <trkpt lat="44.46121" lon="1.56641">
        <ele>298.6</ele>
        <time>2026-03-22T09:11:20Z</time>
      </trkpt>
      <trkpt lat="44.46118" lon="1.56644">
        <ele>298.6</ele>
        <time>2026-03-22T09:11:21Z</time>
      </trkpt>
      <trkpt lat="44.46114" lon="1.56646">
        <ele>299</ele>
        <time>2026-03-22T09:11:22Z</time>
      </trkpt>
      <trkpt lat="44.46111" lon="1.56648">
        <ele>299.4</ele>
        <time>2026-03-22T09:11:23Z</time>
      </trkpt>
      <trkpt lat="44.46107" lon="1.56651">
        <ele>299.8</ele>
        <time>2026-03-22T09:11:24Z</time>
      </trkpt>
      <trkpt lat="44.46104" lon="1.56654">
        <ele>300</ele>
        <time>2026-03-22T09:11:25Z</time>
      </trkpt>
      <trkpt lat="44.46097" lon="1.5666">
        <ele>300.6</ele>
        <time>2026-03-22T09:11:27Z</time>
      </trkpt>
      <trkpt lat="44.46094" lon="1.56663">
        <ele>300.8</ele>
        <time>2026-03-22T09:11:28Z</time>
      </trkpt>
      <trkpt lat="44.46091" lon="1.56665">
        <ele>301.4</ele>
        <time>2026-03-22T09:11:29Z</time>
      </trkpt>
      <trkpt lat="44.46088" lon="1.56668">
        <ele>301.8</ele>
        <time>2026-03-22T09:11:30Z</time>
      </trkpt>
      <trkpt lat="44.46086" lon="1.56671">
        <ele>302</ele>
        <time>2026-03-22T09:11:31Z</time>
      </trkpt>
      <trkpt lat="44.46084" lon="1.56675">
        <ele>302.2</ele>
        <time>2026-03-22T09:11:32Z</time>
      </trkpt>
      <trkpt lat="44.46082" lon="1.56678">
        <ele>302.6</ele>
        <time>2026-03-22T09:11:33Z</time>
      </trkpt>
      <trkpt lat="44.46079" lon="1.56682">
        <ele>302.8</ele>
        <time>2026-03-22T09:11:34Z</time>
      </trkpt>
      <trkpt lat="44.46076" lon="1.56685">
        <ele>303</ele>
        <time>2026-03-22T09:11:35Z</time>
      </trkpt>
      <trkpt lat="44.46073" lon="1.56689">
        <ele>303.6</ele>
        <time>2026-03-22T09:11:36Z</time>
      </trkpt>
      <trkpt lat="44.4607" lon="1.56692">
        <ele>304</ele>
        <time>2026-03-22T09:11:37Z</time>
      </trkpt>
      <trkpt lat="44.46067" lon="1.56695">
        <ele>304.4</ele>
        <time>2026-03-22T09:11:38Z</time>
      </trkpt>
      <trkpt lat="44.46063" lon="1.56698">
        <ele>304.8</ele>
        <time>2026-03-22T09:11:39Z</time>
      </trkpt>
      <trkpt lat="44.4606" lon="1.56701">
        <ele>305</ele>
        <time>2026-03-22T09:11:40Z</time>
      </trkpt>
      <trkpt lat="44.46056" lon="1.56703">
        <ele>305</ele>
        <time>2026-03-22T09:11:41Z</time>
      </trkpt>
      <trkpt lat="44.46053" lon="1.56705">
        <ele>305.4</ele>
        <time>2026-03-22T09:11:42Z</time>
      </trkpt>
      <trkpt lat="44.4605" lon="1.56707">
        <ele>305.6</ele>
        <time>2026-03-22T09:11:43Z</time>
      </trkpt>
      <trkpt lat="44.46046" lon="1.5671">
        <ele>305.8</ele>
        <time>2026-03-22T09:11:44Z</time>
      </trkpt>
      <trkpt lat="44.46043" lon="1.56712">
        <ele>306</ele>
        <time>2026-03-22T09:11:45Z</time>
      </trkpt>
      <trkpt lat="44.4604" lon="1.56715">
        <ele>306.4</ele>
        <time>2026-03-22T09:11:46Z</time>
      </trkpt>
      <trkpt lat="44.46037" lon="1.56718">
        <ele>306.6</ele>
        <time>2026-03-22T09:11:47Z</time>
      </trkpt>
      <trkpt lat="44.46034" lon="1.56721">
        <ele>307</ele>
        <time>2026-03-22T09:11:48Z</time>
      </trkpt>
      <trkpt lat="44.46031" lon="1.56724">
        <ele>307.2</ele>
        <time>2026-03-22T09:11:49Z</time>
      </trkpt>
      <trkpt lat="44.46028" lon="1.56727">
        <ele>307.6</ele>
        <time>2026-03-22T09:11:50Z</time>
      </trkpt>
      <trkpt lat="44.46025" lon="1.56731">
        <ele>307.8</ele>
        <time>2026-03-22T09:11:51Z</time>
      </trkpt>
      <trkpt lat="44.46022" lon="1.56734">
        <ele>308</ele>
        <time>2026-03-22T09:11:52Z</time>
      </trkpt>
      <trkpt lat="44.46019" lon="1.56737">
        <ele>308.2</ele>
        <time>2026-03-22T09:11:53Z</time>
      </trkpt>
      <trkpt lat="44.46016" lon="1.56741">
        <ele>308.4</ele>
        <time>2026-03-22T09:11:54Z</time>
      </trkpt>
      <trkpt lat="44.46013" lon="1.56745">
        <ele>308.6</ele>
        <time>2026-03-22T09:11:55Z</time>
      </trkpt>
      <trkpt lat="44.4601" lon="1.56749">
        <ele>309.2</ele>
        <time>2026-03-22T09:11:56Z</time>
      </trkpt>
      <trkpt lat="44.46007" lon="1.56753">
        <ele>309.4</ele>
        <time>2026-03-22T09:11:57Z</time>
      </trkpt>
      <trkpt lat="44.46004" lon="1.56757">
        <ele>309.8</ele>
        <time>2026-03-22T09:11:58Z</time>
      </trkpt>
      <trkpt lat="44.46001" lon="1.56762">
        <ele>309.8</ele>
        <time>2026-03-22T09:11:59Z</time>
      </trkpt>
      <trkpt lat="44.45997" lon="1.56766">
        <ele>309.8</ele>
        <time>2026-03-22T09:12:00Z</time>
      </trkpt>
      <trkpt lat="44.45994" lon="1.5677">
        <ele>310</ele>
        <time>2026-03-22T09:12:01Z</time>
      </trkpt>
      <trkpt lat="44.45991" lon="1.56775">
        <ele>310</ele>
        <time>2026-03-22T09:12:02Z</time>
      </trkpt>
      <trkpt lat="44.45988" lon="1.56779">
        <ele>310</ele>
        <time>2026-03-22T09:12:03Z</time>
      </trkpt>
      <trkpt lat="44.45984" lon="1.56784">
        <ele>310</ele>
        <time>2026-03-22T09:12:04Z</time>
      </trkpt>
      <trkpt lat="44.4598" lon="1.56788">
        <ele>310</ele>
        <time>2026-03-22T09:12:05Z</time>
      </trkpt>
      <trkpt lat="44.45977" lon="1.56792">
        <ele>310</ele>
        <time>2026-03-22T09:12:06Z</time>
      </trkpt>
      <trkpt lat="44.45972" lon="1.56796">
        <ele>310</ele>
        <time>2026-03-22T09:12:07Z</time>
      </trkpt>
      <trkpt lat="44.45968" lon="1.568">
        <ele>310</ele>
        <time>2026-03-22T09:12:08Z</time>
      </trkpt>
      <trkpt lat="44.45963" lon="1.56804">
        <ele>310</ele>
        <time>2026-03-22T09:12:09Z</time>
      </trkpt>
      <trkpt lat="44.45957" lon="1.56808">
        <ele>310</ele>
        <time>2026-03-22T09:12:10Z</time>
      </trkpt>
      <trkpt lat="44.45952" lon="1.56811">
        <ele>310</ele>
        <time>2026-03-22T09:12:11Z</time>
      </trkpt>
      <trkpt lat="44.45946" lon="1.56814">
        <ele>310</ele>
        <time>2026-03-22T09:12:12Z</time>
      </trkpt>
      <trkpt lat="44.4594" lon="1.56816">
        <ele>310</ele>
        <time>2026-03-22T09:12:13Z</time>
      </trkpt>
      <trkpt lat="44.45935" lon="1.56818">
        <ele>309.8</ele>
        <time>2026-03-22T09:12:14Z</time>
      </trkpt>
      <trkpt lat="44.45929" lon="1.56819">
        <ele>309.8</ele>
        <time>2026-03-22T09:12:15Z</time>
      </trkpt>
      <trkpt lat="44.45924" lon="1.56821">
        <ele>309.8</ele>
        <time>2026-03-22T09:12:16Z</time>
      </trkpt>
      <trkpt lat="44.45918" lon="1.56822">
        <ele>309.8</ele>
        <time>2026-03-22T09:12:17Z</time>
      </trkpt>
      <trkpt lat="44.45912" lon="1.56824">
        <ele>309.6</ele>
        <time>2026-03-22T09:12:18Z</time>
      </trkpt>
      <trkpt lat="44.45907" lon="1.56826">
        <ele>309.4</ele>
        <time>2026-03-22T09:12:19Z</time>
      </trkpt>
      <trkpt lat="44.45902" lon="1.56829">
        <ele>309</ele>
        <time>2026-03-22T09:12:20Z</time>
      </trkpt>
      <trkpt lat="44.45897" lon="1.56832">
        <ele>308.8</ele>
        <time>2026-03-22T09:12:21Z</time>
      </trkpt>
      <trkpt lat="44.45892" lon="1.56834">
        <ele>308.8</ele>
        <time>2026-03-22T09:12:22Z</time>
      </trkpt>
      <trkpt lat="44.45888" lon="1.56837">
        <ele>308.6</ele>
        <time>2026-03-22T09:12:23Z</time>
      </trkpt>
      <trkpt lat="44.45884" lon="1.56838">
        <ele>308.4</ele>
        <time>2026-03-22T09:12:24Z</time>
      </trkpt>
      <trkpt lat="44.4588" lon="1.56838">
        <ele>308.4</ele>
        <time>2026-03-22T09:12:25Z</time>
      </trkpt>
      <trkpt lat="44.45877" lon="1.56839">
        <ele>308.2</ele>
        <time>2026-03-22T09:12:26Z</time>
      </trkpt>
      <trkpt lat="44.45875" lon="1.56841">
        <ele>308.2</ele>
        <time>2026-03-22T09:12:27Z</time>
      </trkpt>
      <trkpt lat="44.45872" lon="1.56841">
        <ele>308</ele>
        <time>2026-03-22T09:12:28Z</time>
      </trkpt>
      <trkpt lat="44.45869" lon="1.56839">
        <ele>308</ele>
        <time>2026-03-22T09:12:29Z</time>
      </trkpt>
      <trkpt lat="44.45867" lon="1.56836">
        <ele>308</ele>
        <time>2026-03-22T09:12:30Z</time>
      </trkpt>
      <trkpt lat="44.45866" lon="1.56835">
        <ele>307.8</ele>
        <time>2026-03-22T09:12:31Z</time>
      </trkpt>
      <trkpt lat="44.45865" lon="1.56834">
        <ele>307.8</ele>
        <time>2026-03-22T09:12:32Z</time>
      </trkpt>
      <trkpt lat="44.45865" lon="1.56834">
        <ele>307.6</ele>
        <time>2026-03-22T09:12:34Z</time>
      </trkpt>
      <trkpt lat="44.4586" lon="1.56821">
        <ele>306</ele>
        <time>2026-03-22T09:18:09Z</time>
      </trkpt>
      <trkpt lat="44.45857" lon="1.56814">
        <ele>306</ele>
        <time>2026-03-22T09:18:11Z</time>
      </trkpt>
      <trkpt lat="44.45844" lon="1.56787">
        <ele>305.6</ele>
        <time>2026-03-22T09:18:15Z</time>
      </trkpt>
      <trkpt lat="44.45832" lon="1.56759">
        <ele>305</ele>
        <time>2026-03-22T09:18:18Z</time>
      </trkpt>
      <trkpt lat="44.45824" lon="1.56739">
        <ele>304</ele>
        <time>2026-03-22T09:18:20Z</time>
      </trkpt>
      <trkpt lat="44.45815" lon="1.5672">
        <ele>302.6</ele>
        <time>2026-03-22T09:18:22Z</time>
      </trkpt>
      <trkpt lat="44.45811" lon="1.5671">
        <ele>301.8</ele>
        <time>2026-03-22T09:18:23Z</time>
      </trkpt>
      <trkpt lat="44.45808" lon="1.56699">
        <ele>301.2</ele>
        <time>2026-03-22T09:18:24Z</time>
      </trkpt>
      <trkpt lat="44.45803" lon="1.5668">
        <ele>299.8</ele>
        <time>2026-03-22T09:18:26Z</time>
      </trkpt>
      <trkpt lat="44.45801" lon="1.56671">
        <ele>299.2</ele>
        <time>2026-03-22T09:18:27Z</time>
      </trkpt>
      <trkpt lat="44.45799" lon="1.56662">
        <ele>298.8</ele>
        <time>2026-03-22T09:18:28Z</time>
      </trkpt>
      <trkpt lat="44.45796" lon="1.56653">
        <ele>298.2</ele>
        <time>2026-03-22T09:18:29Z</time>
      </trkpt>
      <trkpt lat="44.45791" lon="1.56635">
        <ele>297.8</ele>
        <time>2026-03-22T09:18:31Z</time>
      </trkpt>
      <trkpt lat="44.45788" lon="1.56627">
        <ele>297.4</ele>
        <time>2026-03-22T09:18:32Z</time>
      </trkpt>
      <trkpt lat="44.45773" lon="1.56582">
        <ele>296.4</ele>
        <time>2026-03-22T09:18:37Z</time>
      </trkpt>
      <trkpt lat="44.45763" lon="1.56557">
        <ele>295.6</ele>
        <time>2026-03-22T09:18:40Z</time>
      </trkpt>
      <trkpt lat="44.45759" lon="1.5655">
        <ele>295.2</ele>
        <time>2026-03-22T09:18:41Z</time>
      </trkpt>
      <trkpt lat="44.45754" lon="1.56543">
        <ele>295.2</ele>
        <time>2026-03-22T09:18:42Z</time>
      </trkpt>
      <trkpt lat="44.45744" lon="1.56531">
        <ele>294.8</ele>
        <time>2026-03-22T09:18:44Z</time>
      </trkpt>
      <trkpt lat="44.45738" lon="1.56526">
        <ele>294.6</ele>
        <time>2026-03-22T09:18:45Z</time>
      </trkpt>
      <trkpt lat="44.45725" lon="1.56516">
        <ele>294.2</ele>
        <time>2026-03-22T09:18:47Z</time>
      </trkpt>
      <trkpt lat="44.45713" lon="1.56507">
        <ele>293.8</ele>
        <time>2026-03-22T09:18:49Z</time>
      </trkpt>
      <trkpt lat="44.45688" lon="1.56485">
        <ele>293</ele>
        <time>2026-03-22T09:18:53Z</time>
      </trkpt>
      <trkpt lat="44.4567" lon="1.56465">
        <ele>292</ele>
        <time>2026-03-22T09:18:56Z</time>
      </trkpt>
      <trkpt lat="44.45665" lon="1.56458">
        <ele>291.8</ele>
        <time>2026-03-22T09:18:57Z</time>
      </trkpt>
      <trkpt lat="44.45644" lon="1.56428">
        <ele>290.6</ele>
        <time>2026-03-22T09:19:01Z</time>
      </trkpt>
      <trkpt lat="44.45639" lon="1.56422">
        <ele>290.2</ele>
        <time>2026-03-22T09:19:02Z</time>
      </trkpt>
      <trkpt lat="44.45623" lon="1.56398">
        <ele>289.4</ele>
        <time>2026-03-22T09:19:05Z</time>
      </trkpt>
      <trkpt lat="44.45603" lon="1.56369">
        <ele>288.2</ele>
        <time>2026-03-22T09:19:09Z</time>
      </trkpt>
      <trkpt lat="44.45599" lon="1.56361">
        <ele>288</ele>
        <time>2026-03-22T09:19:10Z</time>
      </trkpt>
      <trkpt lat="44.45595" lon="1.56353">
        <ele>287.8</ele>
        <time>2026-03-22T09:19:11Z</time>
      </trkpt>
      <trkpt lat="44.45589" lon="1.56337">
        <ele>287.2</ele>
        <time>2026-03-22T09:19:13Z</time>
      </trkpt>
      <trkpt lat="44.45585" lon="1.5633">
        <ele>287.2</ele>
        <time>2026-03-22T09:19:14Z</time>
      </trkpt>
      <trkpt lat="44.45582" lon="1.56323">
        <ele>286.8</ele>
        <time>2026-03-22T09:19:15Z</time>
      </trkpt>
      <trkpt lat="44.45579" lon="1.56316">
        <ele>286.6</ele>
        <time>2026-03-22T09:19:16Z</time>
      </trkpt>
      <trkpt lat="44.45577" lon="1.56308">
        <ele>286.4</ele>
        <time>2026-03-22T09:19:17Z</time>
      </trkpt>
      <trkpt lat="44.45576" lon="1.56301">
        <ele>286.4</ele>
        <time>2026-03-22T09:19:18Z</time>
      </trkpt>
      <trkpt lat="44.45577" lon="1.56293">
        <ele>286.4</ele>
        <time>2026-03-22T09:19:19Z</time>
      </trkpt>
      <trkpt lat="44.45579" lon="1.56288">
        <ele>286.2</ele>
        <time>2026-03-22T09:19:20Z</time>
      </trkpt>
      <trkpt lat="44.45582" lon="1.56282">
        <ele>286.2</ele>
        <time>2026-03-22T09:19:21Z</time>
      </trkpt>
      <trkpt lat="44.45587" lon="1.56277">
        <ele>286.2</ele>
        <time>2026-03-22T09:19:22Z</time>
      </trkpt>
      <trkpt lat="44.4559" lon="1.56271">
        <ele>286.2</ele>
        <time>2026-03-22T09:19:23Z</time>
      </trkpt>
      <trkpt lat="44.45593" lon="1.56264">
        <ele>286.2</ele>
        <time>2026-03-22T09:19:24Z</time>
      </trkpt>
      <trkpt lat="44.45612" lon="1.56216">
        <ele>287.4</ele>
        <time>2026-03-22T09:19:31Z</time>
      </trkpt>
      <trkpt lat="44.45619" lon="1.56195">
        <ele>288.2</ele>
        <time>2026-03-22T09:19:34Z</time>
      </trkpt>
      <trkpt lat="44.45626" lon="1.56173">
        <ele>289</ele>
        <time>2026-03-22T09:19:37Z</time>
      </trkpt>
      <trkpt lat="44.45628" lon="1.56166">
        <ele>289.2</ele>
        <time>2026-03-22T09:19:38Z</time>
      </trkpt>
      <trkpt lat="44.4563" lon="1.56159">
        <ele>289.6</ele>
        <time>2026-03-22T09:19:39Z</time>
      </trkpt>
      <trkpt lat="44.45632" lon="1.56152">
        <ele>289.8</ele>
        <time>2026-03-22T09:19:40Z</time>
      </trkpt>
      <trkpt lat="44.45634" lon="1.56145">
        <ele>290</ele>
        <time>2026-03-22T09:19:41Z</time>
      </trkpt>
      <trkpt lat="44.45642" lon="1.56116">
        <ele>290.4</ele>
        <time>2026-03-22T09:19:45Z</time>
      </trkpt>
      <trkpt lat="44.45644" lon="1.56109">
        <ele>290.6</ele>
        <time>2026-03-22T09:19:46Z</time>
      </trkpt>
      <trkpt lat="44.45646" lon="1.56102">
        <ele>290.6</ele>
        <time>2026-03-22T09:19:47Z</time>
      </trkpt>
      <trkpt lat="44.45648" lon="1.56095">
        <ele>290.8</ele>
        <time>2026-03-22T09:19:48Z</time>
      </trkpt>
      <trkpt lat="44.4565" lon="1.56088">
        <ele>290.8</ele>
        <time>2026-03-22T09:19:49Z</time>
      </trkpt>
      <trkpt lat="44.45652" lon="1.56081">
        <ele>290.8</ele>
        <time>2026-03-22T09:19:50Z</time>
      </trkpt>
      <trkpt lat="44.45654" lon="1.56074">
        <ele>290.8</ele>
        <time>2026-03-22T09:19:51Z</time>
      </trkpt>
      <trkpt lat="44.45656" lon="1.56067">
        <ele>291</ele>
        <time>2026-03-22T09:19:52Z</time>
      </trkpt>
      <trkpt lat="44.45659" lon="1.5606">
        <ele>291</ele>
        <time>2026-03-22T09:19:53Z</time>
      </trkpt>
      <trkpt lat="44.45661" lon="1.56053">
        <ele>291</ele>
        <time>2026-03-22T09:19:54Z</time>
      </trkpt>
      <trkpt lat="44.45664" lon="1.56046">
        <ele>291</ele>
        <time>2026-03-22T09:19:55Z</time>
      </trkpt>
      <trkpt lat="44.45666" lon="1.56039">
        <ele>291</ele>
        <time>2026-03-22T09:19:56Z</time>
      </trkpt>
      <trkpt lat="44.45668" lon="1.56033">
        <ele>291</ele>
        <time>2026-03-22T09:19:57Z</time>
      </trkpt>
      <trkpt lat="44.4567" lon="1.56026">
        <ele>291.2</ele>
        <time>2026-03-22T09:19:58Z</time>
      </trkpt>
      <trkpt lat="44.45672" lon="1.56019">
        <ele>291.2</ele>
        <time>2026-03-22T09:19:59Z</time>
      </trkpt>
      <trkpt lat="44.45674" lon="1.56013">
        <ele>291.2</ele>
        <time>2026-03-22T09:20:00Z</time>
      </trkpt>
      <trkpt lat="44.45676" lon="1.56006">
        <ele>291.2</ele>
        <time>2026-03-22T09:20:01Z</time>
      </trkpt>
      <trkpt lat="44.45678" lon="1.56">
        <ele>291.4</ele>
        <time>2026-03-22T09:20:02Z</time>
      </trkpt>
      <trkpt lat="44.4568" lon="1.55994">
        <ele>291.4</ele>
        <time>2026-03-22T09:20:03Z</time>
      </trkpt>
      <trkpt lat="44.45682" lon="1.55987">
        <ele>291.6</ele>
        <time>2026-03-22T09:20:04Z</time>
      </trkpt>
      <trkpt lat="44.45684" lon="1.55981">
        <ele>291.6</ele>
        <time>2026-03-22T09:20:05Z</time>
      </trkpt>
      <trkpt lat="44.45686" lon="1.55975">
        <ele>291.6</ele>
        <time>2026-03-22T09:20:06Z</time>
      </trkpt>
      <trkpt lat="44.45689" lon="1.55969">
        <ele>291.8</ele>
        <time>2026-03-22T09:20:07Z</time>
      </trkpt>
      <trkpt lat="44.45691" lon="1.55963">
        <ele>292</ele>
        <time>2026-03-22T09:20:08Z</time>
      </trkpt>
      <trkpt lat="44.45693" lon="1.55957">
        <ele>292.2</ele>
        <time>2026-03-22T09:20:09Z</time>
      </trkpt>
      <trkpt lat="44.45701" lon="1.55932">
        <ele>292.8</ele>
        <time>2026-03-22T09:20:13Z</time>
      </trkpt>
      <trkpt lat="44.45709" lon="1.55915">
        <ele>293.6</ele>
        <time>2026-03-22T09:20:16Z</time>
      </trkpt>
      <trkpt lat="44.45712" lon="1.55909">
        <ele>293.8</ele>
        <time>2026-03-22T09:20:17Z</time>
      </trkpt>
      <trkpt lat="44.45714" lon="1.55903">
        <ele>294</ele>
        <time>2026-03-22T09:20:18Z</time>
      </trkpt>
      <trkpt lat="44.45717" lon="1.55898">
        <ele>294.4</ele>
        <time>2026-03-22T09:20:19Z</time>
      </trkpt>
      <trkpt lat="44.4572" lon="1.55892">
        <ele>294.6</ele>
        <time>2026-03-22T09:20:20Z</time>
      </trkpt>
      <trkpt lat="44.45723" lon="1.55887">
        <ele>294.8</ele>
        <time>2026-03-22T09:20:21Z</time>
      </trkpt>
      <trkpt lat="44.45726" lon="1.55882">
        <ele>295</ele>
        <time>2026-03-22T09:20:22Z</time>
      </trkpt>
      <trkpt lat="44.45729" lon="1.55876">
        <ele>295.2</ele>
        <time>2026-03-22T09:20:23Z</time>
      </trkpt>
      <trkpt lat="44.45732" lon="1.55871">
        <ele>295.4</ele>
        <time>2026-03-22T09:20:24Z</time>
      </trkpt>
      <trkpt lat="44.45735" lon="1.55866">
        <ele>295.8</ele>
        <time>2026-03-22T09:20:25Z</time>
      </trkpt>
      <trkpt lat="44.45738" lon="1.55861">
        <ele>296</ele>
        <time>2026-03-22T09:20:26Z</time>
      </trkpt>
      <trkpt lat="44.45741" lon="1.55857">
        <ele>296.2</ele>
        <time>2026-03-22T09:20:27Z</time>
      </trkpt>
      <trkpt lat="44.45745" lon="1.55851">
        <ele>296.4</ele>
        <time>2026-03-22T09:20:28Z</time>
      </trkpt>
      <trkpt lat="44.45748" lon="1.55845">
        <ele>296.6</ele>
        <time>2026-03-22T09:20:29Z</time>
      </trkpt>
      <trkpt lat="44.4575" lon="1.55839">
        <ele>296.6</ele>
        <time>2026-03-22T09:20:30Z</time>
      </trkpt>
      <trkpt lat="44.45753" lon="1.55832">
        <ele>296.6</ele>
        <time>2026-03-22T09:20:31Z</time>
      </trkpt>
      <trkpt lat="44.45756" lon="1.55826">
        <ele>296.6</ele>
        <time>2026-03-22T09:20:32Z</time>
      </trkpt>
      <trkpt lat="44.45759" lon="1.5582">
        <ele>296.6</ele>
        <time>2026-03-22T09:20:33Z</time>
      </trkpt>
      <trkpt lat="44.45762" lon="1.55813">
        <ele>296.6</ele>
        <time>2026-03-22T09:20:34Z</time>
      </trkpt>
      <trkpt lat="44.45766" lon="1.55806">
        <ele>296.6</ele>
        <time>2026-03-22T09:20:35Z</time>
      </trkpt>
      <trkpt lat="44.4577" lon="1.55799">
        <ele>296.6</ele>
        <time>2026-03-22T09:20:36Z</time>
      </trkpt>
      <trkpt lat="44.45774" lon="1.55792">
        <ele>296.6</ele>
        <time>2026-03-22T09:20:37Z</time>
      </trkpt>
      <trkpt lat="44.45778" lon="1.55786">
        <ele>296.6</ele>
        <time>2026-03-22T09:20:38Z</time>
      </trkpt>
      <trkpt lat="44.45781" lon="1.55779">
        <ele>296.6</ele>
        <time>2026-03-22T09:20:39Z</time>
      </trkpt>
      <trkpt lat="44.45785" lon="1.55772">
        <ele>296.6</ele>
        <time>2026-03-22T09:20:40Z</time>
      </trkpt>
      <trkpt lat="44.45789" lon="1.55765">
        <ele>296.6</ele>
        <time>2026-03-22T09:20:41Z</time>
      </trkpt>
      <trkpt lat="44.45793" lon="1.55757">
        <ele>296.4</ele>
        <time>2026-03-22T09:20:42Z</time>
      </trkpt>
      <trkpt lat="44.45797" lon="1.55749">
        <ele>296.4</ele>
        <time>2026-03-22T09:20:43Z</time>
      </trkpt>
      <trkpt lat="44.45801" lon="1.55742">
        <ele>296.2</ele>
        <time>2026-03-22T09:20:44Z</time>
      </trkpt>
      <trkpt lat="44.45806" lon="1.55734">
        <ele>296.2</ele>
        <time>2026-03-22T09:20:45Z</time>
      </trkpt>
      <trkpt lat="44.45823" lon="1.55705">
        <ele>295.2</ele>
        <time>2026-03-22T09:20:49Z</time>
      </trkpt>
      <trkpt lat="44.45829" lon="1.55699">
        <ele>295</ele>
        <time>2026-03-22T09:20:50Z</time>
      </trkpt>
      <trkpt lat="44.4584" lon="1.55689">
        <ele>294.2</ele>
        <time>2026-03-22T09:20:52Z</time>
      </trkpt>
      <trkpt lat="44.45851" lon="1.5568">
        <ele>293.6</ele>
        <time>2026-03-22T09:20:54Z</time>
      </trkpt>
      <trkpt lat="44.45857" lon="1.55677">
        <ele>293.2</ele>
        <time>2026-03-22T09:20:55Z</time>
      </trkpt>
      <trkpt lat="44.45875" lon="1.55669">
        <ele>292.4</ele>
        <time>2026-03-22T09:20:58Z</time>
      </trkpt>
      <trkpt lat="44.45881" lon="1.55666">
        <ele>292</ele>
        <time>2026-03-22T09:20:59Z</time>
      </trkpt>
      <trkpt lat="44.45886" lon="1.55662">
        <ele>291.8</ele>
        <time>2026-03-22T09:21:00Z</time>
      </trkpt>
      <trkpt lat="44.45892" lon="1.55657">
        <ele>291.6</ele>
        <time>2026-03-22T09:21:01Z</time>
      </trkpt>
      <trkpt lat="44.45898" lon="1.55653">
        <ele>291.6</ele>
        <time>2026-03-22T09:21:02Z</time>
      </trkpt>
      <trkpt lat="44.4591" lon="1.55643">
        <ele>291.4</ele>
        <time>2026-03-22T09:21:04Z</time>
      </trkpt>
      <trkpt lat="44.45916" lon="1.55637">
        <ele>291</ele>
        <time>2026-03-22T09:21:05Z</time>
      </trkpt>
      <trkpt lat="44.45921" lon="1.5563">
        <ele>290.6</ele>
        <time>2026-03-22T09:21:06Z</time>
      </trkpt>
      <trkpt lat="44.45938" lon="1.55607">
        <ele>289.6</ele>
        <time>2026-03-22T09:21:09Z</time>
      </trkpt>
      <trkpt lat="44.4595" lon="1.55593">
        <ele>288.6</ele>
        <time>2026-03-22T09:21:11Z</time>
      </trkpt>
      <trkpt lat="44.45963" lon="1.5558">
        <ele>287</ele>
        <time>2026-03-22T09:21:13Z</time>
      </trkpt>
      <trkpt lat="44.45977" lon="1.55566">
        <ele>286.2</ele>
        <time>2026-03-22T09:21:15Z</time>
      </trkpt>
      <trkpt lat="44.45983" lon="1.55558">
        <ele>285.2</ele>
        <time>2026-03-22T09:21:16Z</time>
      </trkpt>
      <trkpt lat="44.45995" lon="1.55541">
        <ele>284.2</ele>
        <time>2026-03-22T09:21:18Z</time>
      </trkpt>
      <trkpt lat="44.46" lon="1.55532">
        <ele>283.8</ele>
        <time>2026-03-22T09:21:19Z</time>
      </trkpt>
      <trkpt lat="44.46006" lon="1.55523">
        <ele>283.4</ele>
        <time>2026-03-22T09:21:20Z</time>
      </trkpt>
      <trkpt lat="44.46019" lon="1.5551">
        <ele>282</ele>
        <time>2026-03-22T09:21:22Z</time>
      </trkpt>
      <trkpt lat="44.46027" lon="1.55506">
        <ele>281.4</ele>
        <time>2026-03-22T09:21:23Z</time>
      </trkpt>
      <trkpt lat="44.46034" lon="1.55504">
        <ele>281</ele>
        <time>2026-03-22T09:21:24Z</time>
      </trkpt>
      <trkpt lat="44.46042" lon="1.555">
        <ele>280</ele>
        <time>2026-03-22T09:21:25Z</time>
      </trkpt>
      <trkpt lat="44.46058" lon="1.55493">
        <ele>279.2</ele>
        <time>2026-03-22T09:21:27Z</time>
      </trkpt>
      <trkpt lat="44.46064" lon="1.55487">
        <ele>278.4</ele>
        <time>2026-03-22T09:21:28Z</time>
      </trkpt>
      <trkpt lat="44.46066" lon="1.5548">
        <ele>278</ele>
        <time>2026-03-22T09:21:29Z</time>
      </trkpt>
      <trkpt lat="44.46066" lon="1.55471">
        <ele>277.6</ele>
        <time>2026-03-22T09:21:30Z</time>
      </trkpt>
      <trkpt lat="44.46066" lon="1.55463">
        <ele>277.2</ele>
        <time>2026-03-22T09:21:31Z</time>
      </trkpt>
      <trkpt lat="44.46068" lon="1.55455">
        <ele>276.8</ele>
        <time>2026-03-22T09:21:32Z</time>
      </trkpt>
      <trkpt lat="44.46071" lon="1.55449">
        <ele>276.6</ele>
        <time>2026-03-22T09:21:33Z</time>
      </trkpt>
      <trkpt lat="44.46076" lon="1.55445">
        <ele>275.8</ele>
        <time>2026-03-22T09:21:34Z</time>
      </trkpt>
      <trkpt lat="44.46081" lon="1.5544">
        <ele>275</ele>
        <time>2026-03-22T09:21:35Z</time>
      </trkpt>
      <trkpt lat="44.46086" lon="1.55432">
        <ele>274.6</ele>
        <time>2026-03-22T09:21:36Z</time>
      </trkpt>
      <trkpt lat="44.46097" lon="1.55405">
        <ele>273.8</ele>
        <time>2026-03-22T09:21:39Z</time>
      </trkpt>
      <trkpt lat="44.461" lon="1.55394">
        <ele>273.6</ele>
        <time>2026-03-22T09:21:40Z</time>
      </trkpt>
      <trkpt lat="44.46109" lon="1.55362">
        <ele>272.4</ele>
        <time>2026-03-22T09:21:43Z</time>
      </trkpt>
      <trkpt lat="44.46113" lon="1.55354">
        <ele>272</ele>
        <time>2026-03-22T09:21:44Z</time>
      </trkpt>
      <trkpt lat="44.46118" lon="1.55347">
        <ele>271.8</ele>
        <time>2026-03-22T09:21:45Z</time>
      </trkpt>
      <trkpt lat="44.46123" lon="1.55342">
        <ele>271.4</ele>
        <time>2026-03-22T09:21:46Z</time>
      </trkpt>
      <trkpt lat="44.46128" lon="1.55335">
        <ele>270.8</ele>
        <time>2026-03-22T09:21:47Z</time>
      </trkpt>
      <trkpt lat="44.46132" lon="1.55328">
        <ele>270.2</ele>
        <time>2026-03-22T09:21:48Z</time>
      </trkpt>
      <trkpt lat="44.46137" lon="1.55319">
        <ele>269.6</ele>
        <time>2026-03-22T09:21:49Z</time>
      </trkpt>
      <trkpt lat="44.46141" lon="1.5531">
        <ele>268.2</ele>
        <time>2026-03-22T09:21:50Z</time>
      </trkpt>
      <trkpt lat="44.46145" lon="1.55288">
        <ele>266.8</ele>
        <time>2026-03-22T09:21:52Z</time>
      </trkpt>
      <trkpt lat="44.46148" lon="1.55278">
        <ele>266.4</ele>
        <time>2026-03-22T09:21:53Z</time>
      </trkpt>
      <trkpt lat="44.4615" lon="1.55269">
        <ele>265</ele>
        <time>2026-03-22T09:21:54Z</time>
      </trkpt>
      <trkpt lat="44.46152" lon="1.5526">
        <ele>264.2</ele>
        <time>2026-03-22T09:21:55Z</time>
      </trkpt>
      <trkpt lat="44.46154" lon="1.55251">
        <ele>264</ele>
        <time>2026-03-22T09:21:56Z</time>
      </trkpt>
      <trkpt lat="44.46157" lon="1.55243">
        <ele>263.6</ele>
        <time>2026-03-22T09:21:57Z</time>
      </trkpt>
      <trkpt lat="44.46158" lon="1.55234">
        <ele>263.2</ele>
        <time>2026-03-22T09:21:58Z</time>
      </trkpt>
      <trkpt lat="44.46159" lon="1.55224">
        <ele>261</ele>
        <time>2026-03-22T09:21:59Z</time>
      </trkpt>
      <trkpt lat="44.4616" lon="1.55214">
        <ele>259.8</ele>
        <time>2026-03-22T09:22:00Z</time>
      </trkpt>
      <trkpt lat="44.46161" lon="1.55205">
        <ele>258</ele>
        <time>2026-03-22T09:22:01Z</time>
      </trkpt>
      <trkpt lat="44.46163" lon="1.55196">
        <ele>256.4</ele>
        <time>2026-03-22T09:22:02Z</time>
      </trkpt>
      <trkpt lat="44.46165" lon="1.55188">
        <ele>255.2</ele>
        <time>2026-03-22T09:22:03Z</time>
      </trkpt>
      <trkpt lat="44.46169" lon="1.55182">
        <ele>254.2</ele>
        <time>2026-03-22T09:22:04Z</time>
      </trkpt>
      <trkpt lat="44.46173" lon="1.5518">
        <ele>253.6</ele>
        <time>2026-03-22T09:22:05Z</time>
      </trkpt>
      <trkpt lat="44.46177" lon="1.55181">
        <ele>251.8</ele>
        <time>2026-03-22T09:22:06Z</time>
      </trkpt>
      <trkpt lat="44.46182" lon="1.55186">
        <ele>250.2</ele>
        <time>2026-03-22T09:22:07Z</time>
      </trkpt>
      <trkpt lat="44.46194" lon="1.55195">
        <ele>246.6</ele>
        <time>2026-03-22T09:22:09Z</time>
      </trkpt>
      <trkpt lat="44.46201" lon="1.55199">
        <ele>244.4</ele>
        <time>2026-03-22T09:22:10Z</time>
      </trkpt>
      <trkpt lat="44.46208" lon="1.55203">
        <ele>243</ele>
        <time>2026-03-22T09:22:11Z</time>
      </trkpt>
      <trkpt lat="44.46215" lon="1.55206">
        <ele>241.4</ele>
        <time>2026-03-22T09:22:12Z</time>
      </trkpt>
      <trkpt lat="44.46222" lon="1.55211">
        <ele>240</ele>
        <time>2026-03-22T09:22:13Z</time>
      </trkpt>
      <trkpt lat="44.46229" lon="1.55216">
        <ele>239.2</ele>
        <time>2026-03-22T09:22:14Z</time>
      </trkpt>
      <trkpt lat="44.46236" lon="1.5522">
        <ele>238.4</ele>
        <time>2026-03-22T09:22:15Z</time>
      </trkpt>
      <trkpt lat="44.46242" lon="1.55223">
        <ele>238</ele>
        <time>2026-03-22T09:22:16Z</time>
      </trkpt>
      <trkpt lat="44.46248" lon="1.55225">
        <ele>236.8</ele>
        <time>2026-03-22T09:22:17Z</time>
      </trkpt>
      <trkpt lat="44.46254" lon="1.55226">
        <ele>235.8</ele>
        <time>2026-03-22T09:22:18Z</time>
      </trkpt>
      <trkpt lat="44.46262" lon="1.55228">
        <ele>235.2</ele>
        <time>2026-03-22T09:22:19Z</time>
      </trkpt>
      <trkpt lat="44.46269" lon="1.55229">
        <ele>233.6</ele>
        <time>2026-03-22T09:22:20Z</time>
      </trkpt>
      <trkpt lat="44.46277" lon="1.55232">
        <ele>232.6</ele>
        <time>2026-03-22T09:22:21Z</time>
      </trkpt>
      <trkpt lat="44.46284" lon="1.55232">
        <ele>231.2</ele>
        <time>2026-03-22T09:22:22Z</time>
      </trkpt>
      <trkpt lat="44.46289" lon="1.55232">
        <ele>230.2</ele>
        <time>2026-03-22T09:22:23Z</time>
      </trkpt>
      <trkpt lat="44.46294" lon="1.55232">
        <ele>229.2</ele>
        <time>2026-03-22T09:22:24Z</time>
      </trkpt>
      <trkpt lat="44.46298" lon="1.5523">
        <ele>228.2</ele>
        <time>2026-03-22T09:22:25Z</time>
      </trkpt>
      <trkpt lat="44.46302" lon="1.5523">
        <ele>227.4</ele>
        <time>2026-03-22T09:22:26Z</time>
      </trkpt>
      <trkpt lat="44.46307" lon="1.5523">
        <ele>226.4</ele>
        <time>2026-03-22T09:22:27Z</time>
      </trkpt>
      <trkpt lat="44.46312" lon="1.55231">
        <ele>224</ele>
        <time>2026-03-22T09:22:28Z</time>
      </trkpt>
      <trkpt lat="44.46317" lon="1.5523">
        <ele>222.6</ele>
        <time>2026-03-22T09:22:29Z</time>
      </trkpt>
      <trkpt lat="44.46322" lon="1.5523">
        <ele>221.4</ele>
        <time>2026-03-22T09:22:30Z</time>
      </trkpt>
      <trkpt lat="44.46327" lon="1.55228">
        <ele>220.8</ele>
        <time>2026-03-22T09:22:31Z</time>
      </trkpt>
      <trkpt lat="44.46331" lon="1.55226">
        <ele>219.2</ele>
        <time>2026-03-22T09:22:32Z</time>
      </trkpt>
      <trkpt lat="44.46337" lon="1.55224">
        <ele>218</ele>
        <time>2026-03-22T09:22:33Z</time>
      </trkpt>
      <trkpt lat="44.46342" lon="1.55223">
        <ele>216.8</ele>
        <time>2026-03-22T09:22:34Z</time>
      </trkpt>
      <trkpt lat="44.46348" lon="1.55224">
        <ele>214.8</ele>
        <time>2026-03-22T09:22:35Z</time>
      </trkpt>
      <trkpt lat="44.46355" lon="1.55225">
        <ele>213.8</ele>
        <time>2026-03-22T09:22:36Z</time>
      </trkpt>
      <trkpt lat="44.46373" lon="1.5523">
        <ele>211.6</ele>
        <time>2026-03-22T09:22:38Z</time>
      </trkpt>
      <trkpt lat="44.46379" lon="1.55233">
        <ele>210</ele>
        <time>2026-03-22T09:22:39Z</time>
      </trkpt>
      <trkpt lat="44.46384" lon="1.55234">
        <ele>208.8</ele>
        <time>2026-03-22T09:22:40Z</time>
      </trkpt>
      <trkpt lat="44.46389" lon="1.55233">
        <ele>207.2</ele>
        <time>2026-03-22T09:22:41Z</time>
      </trkpt>
      <trkpt lat="44.46393" lon="1.55231">
        <ele>206</ele>
        <time>2026-03-22T09:22:42Z</time>
      </trkpt>
      <trkpt lat="44.46397" lon="1.55229">
        <ele>204.4</ele>
        <time>2026-03-22T09:22:43Z</time>
      </trkpt>
      <trkpt lat="44.464" lon="1.55227">
        <ele>203.2</ele>
        <time>2026-03-22T09:22:44Z</time>
      </trkpt>
      <trkpt lat="44.46402" lon="1.55226">
        <ele>201</ele>
        <time>2026-03-22T09:22:45Z</time>
      </trkpt>
      <trkpt lat="44.46402" lon="1.55226">
        <ele>200</ele>
        <time>2026-03-22T09:22:46Z</time>
      </trkpt>
      <trkpt lat="44.46402" lon="1.55226">
        <ele>199.2</ele>
        <time>2026-03-22T09:22:47Z</time>
      </trkpt>
      <trkpt lat="44.46402" lon="1.55226">
        <ele>198.4</ele>
        <time>2026-03-22T09:22:48Z</time>
      </trkpt>
      <trkpt lat="44.46402" lon="1.55226">
        <ele>198</ele>
        <time>2026-03-22T09:22:49Z</time>
      </trkpt>
      <trkpt lat="44.46393" lon="1.55216">
        <ele>193.6</ele>
        <time>2026-03-22T09:23:00Z</time>
      </trkpt>
      <trkpt lat="44.46391" lon="1.55214">
        <ele>193.6</ele>
        <time>2026-03-22T09:23:01Z</time>
      </trkpt>
      <trkpt lat="44.46375" lon="1.55195">
        <ele>193.6</ele>
        <time>2026-03-22T09:23:06Z</time>
      </trkpt>
      <trkpt lat="44.46372" lon="1.55192">
        <ele>193.6</ele>
        <time>2026-03-22T09:23:07Z</time>
      </trkpt>
      <trkpt lat="44.46369" lon="1.55189">
        <ele>193.6</ele>
        <time>2026-03-22T09:23:08Z</time>
      </trkpt>
      <trkpt lat="44.46366" lon="1.55186">
        <ele>193.6</ele>
        <time>2026-03-22T09:23:09Z</time>
      </trkpt>
      <trkpt lat="44.46359" lon="1.55178">
        <ele>193.2</ele>
        <time>2026-03-22T09:23:11Z</time>
      </trkpt>
      <trkpt lat="44.46351" lon="1.55169">
        <ele>192.8</ele>
        <time>2026-03-22T09:23:13Z</time>
      </trkpt>
      <trkpt lat="44.46344" lon="1.55162">
        <ele>192.8</ele>
        <time>2026-03-22T09:23:15Z</time>
      </trkpt>
      <trkpt lat="44.4634" lon="1.55159">
        <ele>192.6</ele>
        <time>2026-03-22T09:23:16Z</time>
      </trkpt>
      <trkpt lat="44.46337" lon="1.55156">
        <ele>192.6</ele>
        <time>2026-03-22T09:23:17Z</time>
      </trkpt>
      <trkpt lat="44.46333" lon="1.55153">
        <ele>192.6</ele>
        <time>2026-03-22T09:23:18Z</time>
      </trkpt>
      <trkpt lat="44.4633" lon="1.55151">
        <ele>192.4</ele>
        <time>2026-03-22T09:23:19Z</time>
      </trkpt>
      <trkpt lat="44.46327" lon="1.55148">
        <ele>192.2</ele>
        <time>2026-03-22T09:23:20Z</time>
      </trkpt>
      <trkpt lat="44.46324" lon="1.55146">
        <ele>192.2</ele>
        <time>2026-03-22T09:23:21Z</time>
      </trkpt>
      <trkpt lat="44.46322" lon="1.55143">
        <ele>192.2</ele>
        <time>2026-03-22T09:23:22Z</time>
      </trkpt>
      <trkpt lat="44.46319" lon="1.5514">
        <ele>192</ele>
        <time>2026-03-22T09:23:23Z</time>
      </trkpt>
      <trkpt lat="44.46307" lon="1.5513">
        <ele>192</ele>
        <time>2026-03-22T09:23:27Z</time>
      </trkpt>
      <trkpt lat="44.46283" lon="1.55101">
        <ele>192.2</ele>
        <time>2026-03-22T09:23:35Z</time>
      </trkpt>
      <trkpt lat="44.46272" lon="1.55084">
        <ele>192.6</ele>
        <time>2026-03-22T09:23:40Z</time>
      </trkpt>
      <trkpt lat="44.46269" lon="1.5508">
        <ele>192.8</ele>
        <time>2026-03-22T09:23:41Z</time>
      </trkpt>
      <trkpt lat="44.46267" lon="1.55077">
        <ele>193</ele>
        <time>2026-03-22T09:23:42Z</time>
      </trkpt>
      <trkpt lat="44.46263" lon="1.55073">
        <ele>193.2</ele>
        <time>2026-03-22T09:23:43Z</time>
      </trkpt>
      <trkpt lat="44.46261" lon="1.55069">
        <ele>193.4</ele>
        <time>2026-03-22T09:23:44Z</time>
      </trkpt>
      <trkpt lat="44.46256" lon="1.55061">
        <ele>193.8</ele>
        <time>2026-03-22T09:23:46Z</time>
      </trkpt>
      <trkpt lat="44.46245" lon="1.55041">
        <ele>195</ele>
        <time>2026-03-22T09:23:51Z</time>
      </trkpt>
      <trkpt lat="44.46243" lon="1.55038">
        <ele>195.2</ele>
        <time>2026-03-22T09:23:52Z</time>
      </trkpt>
      <trkpt lat="44.46234" lon="1.55027">
        <ele>196</ele>
        <time>2026-03-22T09:23:55Z</time>
      </trkpt>
      <trkpt lat="44.46232" lon="1.55023">
        <ele>196.2</ele>
        <time>2026-03-22T09:23:56Z</time>
      </trkpt>
      <trkpt lat="44.4623" lon="1.5502">
        <ele>196.2</ele>
        <time>2026-03-22T09:23:57Z</time>
      </trkpt>
      <trkpt lat="44.46227" lon="1.55017">
        <ele>196.6</ele>
        <time>2026-03-22T09:23:58Z</time>
      </trkpt>
      <trkpt lat="44.46225" lon="1.55013">
        <ele>197</ele>
        <time>2026-03-22T09:23:59Z</time>
      </trkpt>
      <trkpt lat="44.46223" lon="1.5501">
        <ele>197.4</ele>
        <time>2026-03-22T09:24:00Z</time>
      </trkpt>
      <trkpt lat="44.46221" lon="1.55007">
        <ele>197.6</ele>
        <time>2026-03-22T09:24:01Z</time>
      </trkpt>
      <trkpt lat="44.46219" lon="1.55004">
        <ele>197.8</ele>
        <time>2026-03-22T09:24:02Z</time>
      </trkpt>
      <trkpt lat="44.46216" lon="1.55002">
        <ele>198.2</ele>
        <time>2026-03-22T09:24:03Z</time>
      </trkpt>
      <trkpt lat="44.46213" lon="1.54999">
        <ele>198.4</ele>
        <time>2026-03-22T09:24:04Z</time>
      </trkpt>
      <trkpt lat="44.4621" lon="1.54996">
        <ele>198.6</ele>
        <time>2026-03-22T09:24:05Z</time>
      </trkpt>
      <trkpt lat="44.46208" lon="1.54994">
        <ele>198.8</ele>
        <time>2026-03-22T09:24:06Z</time>
      </trkpt>
      <trkpt lat="44.46205" lon="1.54992">
        <ele>199.2</ele>
        <time>2026-03-22T09:24:07Z</time>
      </trkpt>
      <trkpt lat="44.46202" lon="1.54989">
        <ele>199.4</ele>
        <time>2026-03-22T09:24:08Z</time>
      </trkpt>
      <trkpt lat="44.46199" lon="1.54987">
        <ele>199.8</ele>
        <time>2026-03-22T09:24:09Z</time>
      </trkpt>
      <trkpt lat="44.46195" lon="1.54985">
        <ele>199.8</ele>
        <time>2026-03-22T09:24:10Z</time>
      </trkpt>
      <trkpt lat="44.46192" lon="1.54984">
        <ele>200.2</ele>
        <time>2026-03-22T09:24:11Z</time>
      </trkpt>
      <trkpt lat="44.46188" lon="1.54983">
        <ele>200.4</ele>
        <time>2026-03-22T09:24:12Z</time>
      </trkpt>
      <trkpt lat="44.46184" lon="1.54983">
        <ele>200.6</ele>
        <time>2026-03-22T09:24:13Z</time>
      </trkpt>
      <trkpt lat="44.4618" lon="1.54983">
        <ele>200.8</ele>
        <time>2026-03-22T09:24:14Z</time>
      </trkpt>
      <trkpt lat="44.46175" lon="1.54983">
        <ele>201</ele>
        <time>2026-03-22T09:24:15Z</time>
      </trkpt>
      <trkpt lat="44.46171" lon="1.54983">
        <ele>201</ele>
        <time>2026-03-22T09:24:16Z</time>
      </trkpt>
      <trkpt lat="44.46167" lon="1.54984">
        <ele>201.4</ele>
        <time>2026-03-22T09:24:17Z</time>
      </trkpt>
      <trkpt lat="44.46163" lon="1.54985">
        <ele>201.8</ele>
        <time>2026-03-22T09:24:18Z</time>
      </trkpt>
      <trkpt lat="44.46159" lon="1.54987">
        <ele>202</ele>
        <time>2026-03-22T09:24:19Z</time>
      </trkpt>
      <trkpt lat="44.46155" lon="1.54989">
        <ele>202.2</ele>
        <time>2026-03-22T09:24:20Z</time>
      </trkpt>
      <trkpt lat="44.46151" lon="1.5499">
        <ele>202.6</ele>
        <time>2026-03-22T09:24:21Z</time>
      </trkpt>
      <trkpt lat="44.46147" lon="1.54991">
        <ele>202.8</ele>
        <time>2026-03-22T09:24:22Z</time>
      </trkpt>
      <trkpt lat="44.46144" lon="1.54993">
        <ele>203</ele>
        <time>2026-03-22T09:24:23Z</time>
      </trkpt>
      <trkpt lat="44.4614" lon="1.54994">
        <ele>203.4</ele>
        <time>2026-03-22T09:24:24Z</time>
      </trkpt>
      <trkpt lat="44.46136" lon="1.54996">
        <ele>203.6</ele>
        <time>2026-03-22T09:24:25Z</time>
      </trkpt>
      <trkpt lat="44.46132" lon="1.54997">
        <ele>204</ele>
        <time>2026-03-22T09:24:26Z</time>
      </trkpt>
      <trkpt lat="44.46128" lon="1.54998">
        <ele>204.2</ele>
        <time>2026-03-22T09:24:27Z</time>
      </trkpt>
      <trkpt lat="44.46124" lon="1.54998">
        <ele>204.4</ele>
        <time>2026-03-22T09:24:28Z</time>
      </trkpt>
      <trkpt lat="44.4612" lon="1.55">
        <ele>204.6</ele>
        <time>2026-03-22T09:24:29Z</time>
      </trkpt>
      <trkpt lat="44.46116" lon="1.55001">
        <ele>204.8</ele>
        <time>2026-03-22T09:24:30Z</time>
      </trkpt>
      <trkpt lat="44.46112" lon="1.55003">
        <ele>204.8</ele>
        <time>2026-03-22T09:24:31Z</time>
      </trkpt>
      <trkpt lat="44.46107" lon="1.55003">
        <ele>204.8</ele>
        <time>2026-03-22T09:24:32Z</time>
      </trkpt>
      <trkpt lat="44.46102" lon="1.55002">
        <ele>204.8</ele>
        <time>2026-03-22T09:24:33Z</time>
      </trkpt>
      <trkpt lat="44.46098" lon="1.54998">
        <ele>204.8</ele>
        <time>2026-03-22T09:24:34Z</time>
      </trkpt>
      <trkpt lat="44.46094" lon="1.54993">
        <ele>204.8</ele>
        <time>2026-03-22T09:24:35Z</time>
      </trkpt>
      <trkpt lat="44.46091" lon="1.54987">
        <ele>204.8</ele>
        <time>2026-03-22T09:24:36Z</time>
      </trkpt>
      <trkpt lat="44.46088" lon="1.5498">
        <ele>204.8</ele>
        <time>2026-03-22T09:24:37Z</time>
      </trkpt>
      <trkpt lat="44.46086" lon="1.54973">
        <ele>204.6</ele>
        <time>2026-03-22T09:24:38Z</time>
      </trkpt>
      <trkpt lat="44.46084" lon="1.54968">
        <ele>204.4</ele>
        <time>2026-03-22T09:24:39Z</time>
      </trkpt>
      <trkpt lat="44.46082" lon="1.54963">
        <ele>204.4</ele>
        <time>2026-03-22T09:24:40Z</time>
      </trkpt>
      <trkpt lat="44.4608" lon="1.54957">
        <ele>204.4</ele>
        <time>2026-03-22T09:24:41Z</time>
      </trkpt>
      <trkpt lat="44.46078" lon="1.54952">
        <ele>204.4</ele>
        <time>2026-03-22T09:24:42Z</time>
      </trkpt>
      <trkpt lat="44.46077" lon="1.54947">
        <ele>204.4</ele>
        <time>2026-03-22T09:24:43Z</time>
      </trkpt>
      <trkpt lat="44.46074" lon="1.54943">
        <ele>204.4</ele>
        <time>2026-03-22T09:24:44Z</time>
      </trkpt>
      <trkpt lat="44.46072" lon="1.54941">
        <ele>204.4</ele>
        <time>2026-03-22T09:24:45Z</time>
      </trkpt>
      <trkpt lat="44.46068" lon="1.54939">
        <ele>204.4</ele>
        <time>2026-03-22T09:24:46Z</time>
      </trkpt>
      <trkpt lat="44.46066" lon="1.54938">
        <ele>204.4</ele>
        <time>2026-03-22T09:24:47Z</time>
      </trkpt>
      <trkpt lat="44.46062" lon="1.54936">
        <ele>204.6</ele>
        <time>2026-03-22T09:24:48Z</time>
      </trkpt>
      <trkpt lat="44.46056" lon="1.54934">
        <ele>205.2</ele>
        <time>2026-03-22T09:24:50Z</time>
      </trkpt>
      <trkpt lat="44.46053" lon="1.54932">
        <ele>205.6</ele>
        <time>2026-03-22T09:24:51Z</time>
      </trkpt>
      <trkpt lat="44.4605" lon="1.54931">
        <ele>206.2</ele>
        <time>2026-03-22T09:24:52Z</time>
      </trkpt>
      <trkpt lat="44.46047" lon="1.5493">
        <ele>206.6</ele>
        <time>2026-03-22T09:24:53Z</time>
      </trkpt>
      <trkpt lat="44.4604" lon="1.5493">
        <ele>207.4</ele>
        <time>2026-03-22T09:24:55Z</time>
      </trkpt>
      <trkpt lat="44.46038" lon="1.54932">
        <ele>208</ele>
        <time>2026-03-22T09:24:56Z</time>
      </trkpt>
      <trkpt lat="44.46035" lon="1.54932">
        <ele>208.4</ele>
        <time>2026-03-22T09:24:57Z</time>
      </trkpt>
      <trkpt lat="44.46032" lon="1.54933">
        <ele>209.2</ele>
        <time>2026-03-22T09:24:58Z</time>
      </trkpt>
      <trkpt lat="44.46029" lon="1.54933">
        <ele>209.4</ele>
        <time>2026-03-22T09:24:59Z</time>
      </trkpt>
      <trkpt lat="44.46026" lon="1.54934">
        <ele>209.8</ele>
        <time>2026-03-22T09:25:00Z</time>
      </trkpt>
      <trkpt lat="44.46023" lon="1.54934">
        <ele>210.4</ele>
        <time>2026-03-22T09:25:01Z</time>
      </trkpt>
      <trkpt lat="44.4602" lon="1.54935">
        <ele>210.8</ele>
        <time>2026-03-22T09:25:02Z</time>
      </trkpt>
      <trkpt lat="44.46017" lon="1.54935">
        <ele>211.4</ele>
        <time>2026-03-22T09:25:03Z</time>
      </trkpt>
      <trkpt lat="44.46015" lon="1.54936">
        <ele>211.6</ele>
        <time>2026-03-22T09:25:04Z</time>
      </trkpt>
      <trkpt lat="44.46012" lon="1.54936">
        <ele>211.8</ele>
        <time>2026-03-22T09:25:05Z</time>
      </trkpt>
      <trkpt lat="44.4601" lon="1.54937">
        <ele>212.2</ele>
        <time>2026-03-22T09:25:06Z</time>
      </trkpt>
      <trkpt lat="44.46008" lon="1.54937">
        <ele>213.2</ele>
        <time>2026-03-22T09:25:07Z</time>
      </trkpt>
      <trkpt lat="44.46006" lon="1.54939">
        <ele>213.8</ele>
        <time>2026-03-22T09:25:08Z</time>
      </trkpt>
      <trkpt lat="44.46004" lon="1.5494">
        <ele>214.2</ele>
        <time>2026-03-22T09:25:09Z</time>
      </trkpt>
      <trkpt lat="44.46002" lon="1.5494">
        <ele>214.8</ele>
        <time>2026-03-22T09:25:10Z</time>
      </trkpt>
      <trkpt lat="44.45999" lon="1.54941">
        <ele>215.2</ele>
        <time>2026-03-22T09:25:11Z</time>
      </trkpt>
      <trkpt lat="44.45998" lon="1.54942">
        <ele>215.6</ele>
        <time>2026-03-22T09:25:12Z</time>
      </trkpt>
      <trkpt lat="44.45996" lon="1.54942">
        <ele>216.2</ele>
        <time>2026-03-22T09:25:13Z</time>
      </trkpt>
      <trkpt lat="44.45993" lon="1.54943">
        <ele>216.6</ele>
        <time>2026-03-22T09:25:14Z</time>
      </trkpt>
      <trkpt lat="44.45992" lon="1.54943">
        <ele>216.8</ele>
        <time>2026-03-22T09:25:15Z</time>
      </trkpt>
      <trkpt lat="44.4599" lon="1.54943">
        <ele>217.2</ele>
        <time>2026-03-22T09:25:16Z</time>
      </trkpt>
      <trkpt lat="44.45987" lon="1.54943">
        <ele>217.2</ele>
        <time>2026-03-22T09:25:17Z</time>
      </trkpt>
      <trkpt lat="44.45985" lon="1.54943">
        <ele>218.2</ele>
        <time>2026-03-22T09:25:18Z</time>
      </trkpt>
      <trkpt lat="44.45983" lon="1.54944">
        <ele>218.4</ele>
        <time>2026-03-22T09:25:19Z</time>
      </trkpt>
      <trkpt lat="44.4598" lon="1.54944">
        <ele>218.8</ele>
        <time>2026-03-22T09:25:20Z</time>
      </trkpt>
      <trkpt lat="44.45978" lon="1.54944">
        <ele>219</ele>
        <time>2026-03-22T09:25:21Z</time>
      </trkpt>
      <trkpt lat="44.45975" lon="1.54944">
        <ele>219.6</ele>
        <time>2026-03-22T09:25:22Z</time>
      </trkpt>
      <trkpt lat="44.45971" lon="1.54945">
        <ele>219.8</ele>
        <time>2026-03-22T09:25:23Z</time>
      </trkpt>
      <trkpt lat="44.45969" lon="1.54945">
        <ele>220.2</ele>
        <time>2026-03-22T09:25:24Z</time>
      </trkpt>
      <trkpt lat="44.45966" lon="1.54946">
        <ele>220.6</ele>
        <time>2026-03-22T09:25:25Z</time>
      </trkpt>
      <trkpt lat="44.45963" lon="1.54947">
        <ele>221</ele>
        <time>2026-03-22T09:25:26Z</time>
      </trkpt>
      <trkpt lat="44.45961" lon="1.54947">
        <ele>221.2</ele>
        <time>2026-03-22T09:25:27Z</time>
      </trkpt>
      <trkpt lat="44.45958" lon="1.54947">
        <ele>221.4</ele>
        <time>2026-03-22T09:25:28Z</time>
      </trkpt>
      <trkpt lat="44.45955" lon="1.54947">
        <ele>221.8</ele>
        <time>2026-03-22T09:25:29Z</time>
      </trkpt>
      <trkpt lat="44.45953" lon="1.54948">
        <ele>222</ele>
        <time>2026-03-22T09:25:30Z</time>
      </trkpt>
      <trkpt lat="44.4595" lon="1.54948">
        <ele>222.4</ele>
        <time>2026-03-22T09:25:31Z</time>
      </trkpt>
      <trkpt lat="44.45947" lon="1.54948">
        <ele>222.8</ele>
        <time>2026-03-22T09:25:32Z</time>
      </trkpt>
      <trkpt lat="44.45945" lon="1.54948">
        <ele>223.2</ele>
        <time>2026-03-22T09:25:33Z</time>
      </trkpt>
      <trkpt lat="44.45943" lon="1.54948">
        <ele>223.4</ele>
        <time>2026-03-22T09:25:34Z</time>
      </trkpt>
      <trkpt lat="44.4594" lon="1.54948">
        <ele>224.2</ele>
        <time>2026-03-22T09:25:35Z</time>
      </trkpt>
      <trkpt lat="44.45938" lon="1.54948">
        <ele>224.6</ele>
        <time>2026-03-22T09:25:36Z</time>
      </trkpt>
      <trkpt lat="44.45936" lon="1.54948">
        <ele>225</ele>
        <time>2026-03-22T09:25:37Z</time>
      </trkpt>
      <trkpt lat="44.45933" lon="1.54947">
        <ele>225.4</ele>
        <time>2026-03-22T09:25:38Z</time>
      </trkpt>
      <trkpt lat="44.45931" lon="1.54945">
        <ele>225.6</ele>
        <time>2026-03-22T09:25:39Z</time>
      </trkpt>
      <trkpt lat="44.45929" lon="1.54944">
        <ele>226</ele>
        <time>2026-03-22T09:25:40Z</time>
      </trkpt>
      <trkpt lat="44.45927" lon="1.54943">
        <ele>226.6</ele>
        <time>2026-03-22T09:25:41Z</time>
      </trkpt>
      <trkpt lat="44.45924" lon="1.54942">
        <ele>227</ele>
        <time>2026-03-22T09:25:42Z</time>
      </trkpt>
      <trkpt lat="44.4592" lon="1.54941">
        <ele>227.6</ele>
        <time>2026-03-22T09:25:43Z</time>
      </trkpt>
      <trkpt lat="44.45918" lon="1.5494">
        <ele>227.8</ele>
        <time>2026-03-22T09:25:44Z</time>
      </trkpt>
      <trkpt lat="44.45915" lon="1.54938">
        <ele>228.2</ele>
        <time>2026-03-22T09:25:45Z</time>
      </trkpt>
      <trkpt lat="44.45913" lon="1.54937">
        <ele>228.6</ele>
        <time>2026-03-22T09:25:46Z</time>
      </trkpt>
      <trkpt lat="44.4591" lon="1.54936">
        <ele>229</ele>
        <time>2026-03-22T09:25:47Z</time>
      </trkpt>
      <trkpt lat="44.45908" lon="1.54935">
        <ele>229.6</ele>
        <time>2026-03-22T09:25:48Z</time>
      </trkpt>
      <trkpt lat="44.45905" lon="1.54934">
        <ele>230</ele>
        <time>2026-03-22T09:25:49Z</time>
      </trkpt>
      <trkpt lat="44.45902" lon="1.54933">
        <ele>230.4</ele>
        <time>2026-03-22T09:25:50Z</time>
      </trkpt>
      <trkpt lat="44.45899" lon="1.54931">
        <ele>230.8</ele>
        <time>2026-03-22T09:25:51Z</time>
      </trkpt>
      <trkpt lat="44.45898" lon="1.54931">
        <ele>231.2</ele>
        <time>2026-03-22T09:25:52Z</time>
      </trkpt>
      <trkpt lat="44.45897" lon="1.5493">
        <ele>231.6</ele>
        <time>2026-03-22T09:25:53Z</time>
      </trkpt>
      <trkpt lat="44.45895" lon="1.5493">
        <ele>232</ele>
        <time>2026-03-22T09:25:54Z</time>
      </trkpt>
      <trkpt lat="44.45893" lon="1.54929">
        <ele>232.4</ele>
        <time>2026-03-22T09:25:55Z</time>
      </trkpt>
      <trkpt lat="44.45892" lon="1.54929">
        <ele>232.8</ele>
        <time>2026-03-22T09:25:56Z</time>
      </trkpt>
      <trkpt lat="44.45889" lon="1.54927">
        <ele>233.2</ele>
        <time>2026-03-22T09:25:57Z</time>
      </trkpt>
      <trkpt lat="44.45887" lon="1.54926">
        <ele>233.4</ele>
        <time>2026-03-22T09:25:58Z</time>
      </trkpt>
      <trkpt lat="44.45885" lon="1.54926">
        <ele>233.8</ele>
        <time>2026-03-22T09:25:59Z</time>
      </trkpt>
      <trkpt lat="44.45882" lon="1.54924">
        <ele>234.2</ele>
        <time>2026-03-22T09:26:00Z</time>
      </trkpt>
      <trkpt lat="44.45879" lon="1.54923">
        <ele>234.4</ele>
        <time>2026-03-22T09:26:01Z</time>
      </trkpt>
      <trkpt lat="44.45877" lon="1.54922">
        <ele>234.6</ele>
        <time>2026-03-22T09:26:02Z</time>
      </trkpt>
      <trkpt lat="44.45874" lon="1.54921">
        <ele>235</ele>
        <time>2026-03-22T09:26:03Z</time>
      </trkpt>
      <trkpt lat="44.45872" lon="1.5492">
        <ele>235.2</ele>
        <time>2026-03-22T09:26:04Z</time>
      </trkpt>
      <trkpt lat="44.45869" lon="1.54918">
        <ele>235.2</ele>
        <time>2026-03-22T09:26:05Z</time>
      </trkpt>
      <trkpt lat="44.45866" lon="1.54917">
        <ele>236</ele>
        <time>2026-03-22T09:26:06Z</time>
      </trkpt>
      <trkpt lat="44.45864" lon="1.54916">
        <ele>236.4</ele>
        <time>2026-03-22T09:26:07Z</time>
      </trkpt>
      <trkpt lat="44.45861" lon="1.54915">
        <ele>236.6</ele>
        <time>2026-03-22T09:26:08Z</time>
      </trkpt>
      <trkpt lat="44.45858" lon="1.54914">
        <ele>236.8</ele>
        <time>2026-03-22T09:26:09Z</time>
      </trkpt>
      <trkpt lat="44.45855" lon="1.54913">
        <ele>237.2</ele>
        <time>2026-03-22T09:26:10Z</time>
      </trkpt>
      <trkpt lat="44.45852" lon="1.54912">
        <ele>237.4</ele>
        <time>2026-03-22T09:26:11Z</time>
      </trkpt>
      <trkpt lat="44.45849" lon="1.54911">
        <ele>237.8</ele>
        <time>2026-03-22T09:26:12Z</time>
      </trkpt>
      <trkpt lat="44.45846" lon="1.5491">
        <ele>238.2</ele>
        <time>2026-03-22T09:26:13Z</time>
      </trkpt>
      <trkpt lat="44.45843" lon="1.54909">
        <ele>238.4</ele>
        <time>2026-03-22T09:26:14Z</time>
      </trkpt>
      <trkpt lat="44.4584" lon="1.54908">
        <ele>238.6</ele>
        <time>2026-03-22T09:26:15Z</time>
      </trkpt>
      <trkpt lat="44.45837" lon="1.54907">
        <ele>238.8</ele>
        <time>2026-03-22T09:26:16Z</time>
      </trkpt>
      <trkpt lat="44.45834" lon="1.54905">
        <ele>239.2</ele>
        <time>2026-03-22T09:26:17Z</time>
      </trkpt>
      <trkpt lat="44.45832" lon="1.54904">
        <ele>239.6</ele>
        <time>2026-03-22T09:26:18Z</time>
      </trkpt>
      <trkpt lat="44.45829" lon="1.54903">
        <ele>239.8</ele>
        <time>2026-03-22T09:26:19Z</time>
      </trkpt>
      <trkpt lat="44.45826" lon="1.54902">
        <ele>240.2</ele>
        <time>2026-03-22T09:26:20Z</time>
      </trkpt>
      <trkpt lat="44.45824" lon="1.54901">
        <ele>240.6</ele>
        <time>2026-03-22T09:26:21Z</time>
      </trkpt>
      <trkpt lat="44.45821" lon="1.549">
        <ele>240.8</ele>
        <time>2026-03-22T09:26:22Z</time>
      </trkpt>
      <trkpt lat="44.45819" lon="1.54899">
        <ele>241.2</ele>
        <time>2026-03-22T09:26:23Z</time>
      </trkpt>
      <trkpt lat="44.45816" lon="1.54898">
        <ele>241.8</ele>
        <time>2026-03-22T09:26:24Z</time>
      </trkpt>
      <trkpt lat="44.45814" lon="1.54897">
        <ele>242</ele>
        <time>2026-03-22T09:26:25Z</time>
      </trkpt>
      <trkpt lat="44.45812" lon="1.54896">
        <ele>242.4</ele>
        <time>2026-03-22T09:26:26Z</time>
      </trkpt>
      <trkpt lat="44.45809" lon="1.54895">
        <ele>242.8</ele>
        <time>2026-03-22T09:26:27Z</time>
      </trkpt>
      <trkpt lat="44.45807" lon="1.54895">
        <ele>243.2</ele>
        <time>2026-03-22T09:26:28Z</time>
      </trkpt>
      <trkpt lat="44.45805" lon="1.54894">
        <ele>243.4</ele>
        <time>2026-03-22T09:26:29Z</time>
      </trkpt>
      <trkpt lat="44.45802" lon="1.54893">
        <ele>243.4</ele>
        <time>2026-03-22T09:26:30Z</time>
      </trkpt>
      <trkpt lat="44.458" lon="1.54892">
        <ele>244</ele>
        <time>2026-03-22T09:26:31Z</time>
      </trkpt>
      <trkpt lat="44.45798" lon="1.54891">
        <ele>244.4</ele>
        <time>2026-03-22T09:26:32Z</time>
      </trkpt>
      <trkpt lat="44.45795" lon="1.54891">
        <ele>244.6</ele>
        <time>2026-03-22T09:26:33Z</time>
      </trkpt>
      <trkpt lat="44.45793" lon="1.5489">
        <ele>245.2</ele>
        <time>2026-03-22T09:26:34Z</time>
      </trkpt>
      <trkpt lat="44.45791" lon="1.54889">
        <ele>245.6</ele>
        <time>2026-03-22T09:26:35Z</time>
      </trkpt>
      <trkpt lat="44.45789" lon="1.54888">
        <ele>245.8</ele>
        <time>2026-03-22T09:26:36Z</time>
      </trkpt>
      <trkpt lat="44.45787" lon="1.54888">
        <ele>246.2</ele>
        <time>2026-03-22T09:26:37Z</time>
      </trkpt>
      <trkpt lat="44.45784" lon="1.54887">
        <ele>246.6</ele>
        <time>2026-03-22T09:26:38Z</time>
      </trkpt>
      <trkpt lat="44.45782" lon="1.54887">
        <ele>246.8</ele>
        <time>2026-03-22T09:26:39Z</time>
      </trkpt>
      <trkpt lat="44.4578" lon="1.54886">
        <ele>247.2</ele>
        <time>2026-03-22T09:26:40Z</time>
      </trkpt>
      <trkpt lat="44.45777" lon="1.54885">
        <ele>247.4</ele>
        <time>2026-03-22T09:26:41Z</time>
      </trkpt>
      <trkpt lat="44.45775" lon="1.54884">
        <ele>247.8</ele>
        <time>2026-03-22T09:26:42Z</time>
      </trkpt>
      <trkpt lat="44.45772" lon="1.54884">
        <ele>248</ele>
        <time>2026-03-22T09:26:43Z</time>
      </trkpt>
      <trkpt lat="44.4577" lon="1.54883">
        <ele>248.4</ele>
        <time>2026-03-22T09:26:44Z</time>
      </trkpt>
      <trkpt lat="44.45768" lon="1.54883">
        <ele>248.6</ele>
        <time>2026-03-22T09:26:45Z</time>
      </trkpt>
      <trkpt lat="44.45766" lon="1.54882">
        <ele>249.2</ele>
        <time>2026-03-22T09:26:46Z</time>
      </trkpt>
      <trkpt lat="44.45764" lon="1.54881">
        <ele>249.4</ele>
        <time>2026-03-22T09:26:47Z</time>
      </trkpt>
      <trkpt lat="44.45761" lon="1.54881">
        <ele>249.6</ele>
        <time>2026-03-22T09:26:48Z</time>
      </trkpt>
      <trkpt lat="44.45759" lon="1.54881">
        <ele>250</ele>
        <time>2026-03-22T09:26:49Z</time>
      </trkpt>
      <trkpt lat="44.45756" lon="1.5488">
        <ele>250.2</ele>
        <time>2026-03-22T09:26:50Z</time>
      </trkpt>
      <trkpt lat="44.45754" lon="1.54879">
        <ele>250.8</ele>
        <time>2026-03-22T09:26:51Z</time>
      </trkpt>
      <trkpt lat="44.45751" lon="1.54879">
        <ele>251.2</ele>
        <time>2026-03-22T09:26:52Z</time>
      </trkpt>
      <trkpt lat="44.45749" lon="1.54878">
        <ele>251.8</ele>
        <time>2026-03-22T09:26:53Z</time>
      </trkpt>
      <trkpt lat="44.45746" lon="1.54877">
        <ele>252.2</ele>
        <time>2026-03-22T09:26:54Z</time>
      </trkpt>
      <trkpt lat="44.45744" lon="1.54877">
        <ele>252.6</ele>
        <time>2026-03-22T09:26:55Z</time>
      </trkpt>
      <trkpt lat="44.45742" lon="1.54876">
        <ele>253</ele>
        <time>2026-03-22T09:26:56Z</time>
      </trkpt>
      <trkpt lat="44.45739" lon="1.54876">
        <ele>253.6</ele>
        <time>2026-03-22T09:26:57Z</time>
      </trkpt>
      <trkpt lat="44.45737" lon="1.54876">
        <ele>254.2</ele>
        <time>2026-03-22T09:26:58Z</time>
      </trkpt>
      <trkpt lat="44.45734" lon="1.54876">
        <ele>254.8</ele>
        <time>2026-03-22T09:26:59Z</time>
      </trkpt>
      <trkpt lat="44.45732" lon="1.54875">
        <ele>255.2</ele>
        <time>2026-03-22T09:27:00Z</time>
      </trkpt>
      <trkpt lat="44.4573" lon="1.54874">
        <ele>255.6</ele>
        <time>2026-03-22T09:27:01Z</time>
      </trkpt>
      <trkpt lat="44.45727" lon="1.54873">
        <ele>256</ele>
        <time>2026-03-22T09:27:02Z</time>
      </trkpt>
      <trkpt lat="44.45725" lon="1.54872">
        <ele>256.4</ele>
        <time>2026-03-22T09:27:03Z</time>
      </trkpt>
      <trkpt lat="44.45722" lon="1.54872">
        <ele>256.8</ele>
        <time>2026-03-22T09:27:04Z</time>
      </trkpt>
      <trkpt lat="44.4572" lon="1.54871">
        <ele>257.2</ele>
        <time>2026-03-22T09:27:05Z</time>
      </trkpt>
      <trkpt lat="44.45718" lon="1.54871">
        <ele>257.6</ele>
        <time>2026-03-22T09:27:06Z</time>
      </trkpt>
      <trkpt lat="44.45715" lon="1.5487">
        <ele>258.2</ele>
        <time>2026-03-22T09:27:07Z</time>
      </trkpt>
      <trkpt lat="44.45713" lon="1.5487">
        <ele>258.6</ele>
        <time>2026-03-22T09:27:08Z</time>
      </trkpt>
      <trkpt lat="44.4571" lon="1.54869">
        <ele>259</ele>
        <time>2026-03-22T09:27:09Z</time>
      </trkpt>
      <trkpt lat="44.45708" lon="1.54868">
        <ele>259.2</ele>
        <time>2026-03-22T09:27:10Z</time>
      </trkpt>
      <trkpt lat="44.45706" lon="1.54868">
        <ele>259.6</ele>
        <time>2026-03-22T09:27:11Z</time>
      </trkpt>
      <trkpt lat="44.45703" lon="1.54867">
        <ele>260.2</ele>
        <time>2026-03-22T09:27:12Z</time>
      </trkpt>
      <trkpt lat="44.457" lon="1.54867">
        <ele>260.8</ele>
        <time>2026-03-22T09:27:13Z</time>
      </trkpt>
      <trkpt lat="44.45698" lon="1.54867">
        <ele>261.2</ele>
        <time>2026-03-22T09:27:14Z</time>
      </trkpt>
      <trkpt lat="44.45696" lon="1.54866">
        <ele>261.8</ele>
        <time>2026-03-22T09:27:15Z</time>
      </trkpt>
      <trkpt lat="44.45694" lon="1.54866">
        <ele>262.4</ele>
        <time>2026-03-22T09:27:16Z</time>
      </trkpt>
      <trkpt lat="44.45692" lon="1.54866">
        <ele>262.8</ele>
        <time>2026-03-22T09:27:17Z</time>
      </trkpt>
      <trkpt lat="44.4569" lon="1.54865">
        <ele>263.2</ele>
        <time>2026-03-22T09:27:18Z</time>
      </trkpt>
      <trkpt lat="44.45688" lon="1.54864">
        <ele>263.6</ele>
        <time>2026-03-22T09:27:19Z</time>
      </trkpt>
      <trkpt lat="44.45686" lon="1.54864">
        <ele>264</ele>
        <time>2026-03-22T09:27:20Z</time>
      </trkpt>
      <trkpt lat="44.45683" lon="1.54863">
        <ele>264.6</ele>
        <time>2026-03-22T09:27:21Z</time>
      </trkpt>
      <trkpt lat="44.45681" lon="1.54863">
        <ele>265.2</ele>
        <time>2026-03-22T09:27:22Z</time>
      </trkpt>
      <trkpt lat="44.45678" lon="1.54862">
        <ele>265.8</ele>
        <time>2026-03-22T09:27:23Z</time>
      </trkpt>
      <trkpt lat="44.45676" lon="1.54862">
        <ele>266.2</ele>
        <time>2026-03-22T09:27:24Z</time>
      </trkpt>
      <trkpt lat="44.45673" lon="1.54861">
        <ele>266.6</ele>
        <time>2026-03-22T09:27:25Z</time>
      </trkpt>
      <trkpt lat="44.4567" lon="1.54861">
        <ele>267.2</ele>
        <time>2026-03-22T09:27:26Z</time>
      </trkpt>
      <trkpt lat="44.45668" lon="1.54861">
        <ele>267.6</ele>
        <time>2026-03-22T09:27:27Z</time>
      </trkpt>
      <trkpt lat="44.45665" lon="1.54861">
        <ele>268</ele>
        <time>2026-03-22T09:27:28Z</time>
      </trkpt>
      <trkpt lat="44.45663" lon="1.54861">
        <ele>268.6</ele>
        <time>2026-03-22T09:27:29Z</time>
      </trkpt>
      <trkpt lat="44.45661" lon="1.5486">
        <ele>269</ele>
        <time>2026-03-22T09:27:30Z</time>
      </trkpt>
      <trkpt lat="44.45658" lon="1.5486">
        <ele>269.6</ele>
        <time>2026-03-22T09:27:31Z</time>
      </trkpt>
      <trkpt lat="44.45656" lon="1.54859">
        <ele>270</ele>
        <time>2026-03-22T09:27:32Z</time>
      </trkpt>
      <trkpt lat="44.45653" lon="1.54859">
        <ele>270.4</ele>
        <time>2026-03-22T09:27:33Z</time>
      </trkpt>
      <trkpt lat="44.4565" lon="1.54857">
        <ele>271</ele>
        <time>2026-03-22T09:27:34Z</time>
      </trkpt>
      <trkpt lat="44.45648" lon="1.54857">
        <ele>271.6</ele>
        <time>2026-03-22T09:27:35Z</time>
      </trkpt>
      <trkpt lat="44.45645" lon="1.54855">
        <ele>271.8</ele>
        <time>2026-03-22T09:27:36Z</time>
      </trkpt>
      <trkpt lat="44.45642" lon="1.54854">
        <ele>272.4</ele>
        <time>2026-03-22T09:27:37Z</time>
      </trkpt>
      <trkpt lat="44.45639" lon="1.54853">
        <ele>273</ele>
        <time>2026-03-22T09:27:38Z</time>
      </trkpt>
      <trkpt lat="44.45636" lon="1.54852">
        <ele>273.2</ele>
        <time>2026-03-22T09:27:39Z</time>
      </trkpt>
      <trkpt lat="44.45634" lon="1.54851">
        <ele>273.8</ele>
        <time>2026-03-22T09:27:40Z</time>
      </trkpt>
      <trkpt lat="44.45632" lon="1.54849">
        <ele>274.2</ele>
        <time>2026-03-22T09:27:41Z</time>
      </trkpt>
      <trkpt lat="44.45629" lon="1.54848">
        <ele>274.6</ele>
        <time>2026-03-22T09:27:42Z</time>
      </trkpt>
      <trkpt lat="44.45626" lon="1.54846">
        <ele>275</ele>
        <time>2026-03-22T09:27:43Z</time>
      </trkpt>
      <trkpt lat="44.45623" lon="1.54845">
        <ele>275.2</ele>
        <time>2026-03-22T09:27:44Z</time>
      </trkpt>
      <trkpt lat="44.45621" lon="1.54844">
        <ele>276</ele>
        <time>2026-03-22T09:27:45Z</time>
      </trkpt>
      <trkpt lat="44.45618" lon="1.54843">
        <ele>276.4</ele>
        <time>2026-03-22T09:27:46Z</time>
      </trkpt>
      <trkpt lat="44.45616" lon="1.54842">
        <ele>276.8</ele>
        <time>2026-03-22T09:27:47Z</time>
      </trkpt>
      <trkpt lat="44.45613" lon="1.54842">
        <ele>277.4</ele>
        <time>2026-03-22T09:27:48Z</time>
      </trkpt>
      <trkpt lat="44.4561" lon="1.5484">
        <ele>278.2</ele>
        <time>2026-03-22T09:27:49Z</time>
      </trkpt>
      <trkpt lat="44.45608" lon="1.54839">
        <ele>278.8</ele>
        <time>2026-03-22T09:27:50Z</time>
      </trkpt>
      <trkpt lat="44.45605" lon="1.54838">
        <ele>279.2</ele>
        <time>2026-03-22T09:27:51Z</time>
      </trkpt>
      <trkpt lat="44.45603" lon="1.54836">
        <ele>279.6</ele>
        <time>2026-03-22T09:27:52Z</time>
      </trkpt>
      <trkpt lat="44.456" lon="1.54834">
        <ele>280</ele>
        <time>2026-03-22T09:27:53Z</time>
      </trkpt>
      <trkpt lat="44.45597" lon="1.54832">
        <ele>280.6</ele>
        <time>2026-03-22T09:27:54Z</time>
      </trkpt>
      <trkpt lat="44.45594" lon="1.5483">
        <ele>281</ele>
        <time>2026-03-22T09:27:55Z</time>
      </trkpt>
      <trkpt lat="44.45592" lon="1.54828">
        <ele>281.4</ele>
        <time>2026-03-22T09:27:56Z</time>
      </trkpt>
      <trkpt lat="44.45589" lon="1.54827">
        <ele>281.8</ele>
        <time>2026-03-22T09:27:57Z</time>
      </trkpt>
      <trkpt lat="44.45587" lon="1.54825">
        <ele>282.2</ele>
        <time>2026-03-22T09:27:58Z</time>
      </trkpt>
      <trkpt lat="44.45584" lon="1.54823">
        <ele>282.8</ele>
        <time>2026-03-22T09:27:59Z</time>
      </trkpt>
      <trkpt lat="44.45582" lon="1.54821">
        <ele>283.4</ele>
        <time>2026-03-22T09:28:00Z</time>
      </trkpt>
      <trkpt lat="44.4558" lon="1.54819">
        <ele>283.8</ele>
        <time>2026-03-22T09:28:01Z</time>
      </trkpt>
      <trkpt lat="44.45578" lon="1.54817">
        <ele>284</ele>
        <time>2026-03-22T09:28:02Z</time>
      </trkpt>
      <trkpt lat="44.45576" lon="1.54816">
        <ele>284.6</ele>
        <time>2026-03-22T09:28:03Z</time>
      </trkpt>
      <trkpt lat="44.45575" lon="1.54815">
        <ele>285</ele>
        <time>2026-03-22T09:28:04Z</time>
      </trkpt>
      <trkpt lat="44.45573" lon="1.54813">
        <ele>285.4</ele>
        <time>2026-03-22T09:28:05Z</time>
      </trkpt>
      <trkpt lat="44.45572" lon="1.54812">
        <ele>286</ele>
        <time>2026-03-22T09:28:06Z</time>
      </trkpt>
      <trkpt lat="44.4557" lon="1.54811">
        <ele>286.4</ele>
        <time>2026-03-22T09:28:07Z</time>
      </trkpt>
      <trkpt lat="44.45569" lon="1.54809">
        <ele>287</ele>
        <time>2026-03-22T09:28:08Z</time>
      </trkpt>
      <trkpt lat="44.45568" lon="1.54808">
        <ele>287.4</ele>
        <time>2026-03-22T09:28:09Z</time>
      </trkpt>
      <trkpt lat="44.45566" lon="1.54807">
        <ele>287.8</ele>
        <time>2026-03-22T09:28:10Z</time>
      </trkpt>
      <trkpt lat="44.45564" lon="1.54806">
        <ele>288.2</ele>
        <time>2026-03-22T09:28:11Z</time>
      </trkpt>
      <trkpt lat="44.45563" lon="1.54805">
        <ele>288.8</ele>
        <time>2026-03-22T09:28:12Z</time>
      </trkpt>
      <trkpt lat="44.45562" lon="1.54804">
        <ele>289</ele>
        <time>2026-03-22T09:28:13Z</time>
      </trkpt>
      <trkpt lat="44.45561" lon="1.54803">
        <ele>289.2</ele>
        <time>2026-03-22T09:28:14Z</time>
      </trkpt>
      <trkpt lat="44.4556" lon="1.54802">
        <ele>289.6</ele>
        <time>2026-03-22T09:28:15Z</time>
      </trkpt>
      <trkpt lat="44.45558" lon="1.54802">
        <ele>289.8</ele>
        <time>2026-03-22T09:28:16Z</time>
      </trkpt>
      <trkpt lat="44.45558" lon="1.54801">
        <ele>290</ele>
        <time>2026-03-22T09:28:17Z</time>
      </trkpt>
      <trkpt lat="44.45556" lon="1.54801">
        <ele>290.2</ele>
        <time>2026-03-22T09:28:18Z</time>
      </trkpt>
      <trkpt lat="44.45555" lon="1.548">
        <ele>290.6</ele>
        <time>2026-03-22T09:28:19Z</time>
      </trkpt>
      <trkpt lat="44.45553" lon="1.54799">
        <ele>290.8</ele>
        <time>2026-03-22T09:28:20Z</time>
      </trkpt>
      <trkpt lat="44.45552" lon="1.54799">
        <ele>291</ele>
        <time>2026-03-22T09:28:21Z</time>
      </trkpt>
      <trkpt lat="44.4555" lon="1.54799">
        <ele>291.2</ele>
        <time>2026-03-22T09:28:22Z</time>
      </trkpt>
      <trkpt lat="44.45549" lon="1.54799">
        <ele>291.4</ele>
        <time>2026-03-22T09:28:23Z</time>
      </trkpt>
      <trkpt lat="44.45547" lon="1.54799">
        <ele>291.6</ele>
        <time>2026-03-22T09:28:24Z</time>
      </trkpt>
      <trkpt lat="44.45546" lon="1.548">
        <ele>291.8</ele>
        <time>2026-03-22T09:28:25Z</time>
      </trkpt>
      <trkpt lat="44.45545" lon="1.548">
        <ele>292</ele>
        <time>2026-03-22T09:28:26Z</time>
      </trkpt>
      <trkpt lat="44.45542" lon="1.548">
        <ele>292.2</ele>
        <time>2026-03-22T09:28:27Z</time>
      </trkpt>
      <trkpt lat="44.45541" lon="1.548">
        <ele>292.4</ele>
        <time>2026-03-22T09:28:28Z</time>
      </trkpt>
      <trkpt lat="44.45539" lon="1.548">
        <ele>292.6</ele>
        <time>2026-03-22T09:28:29Z</time>
      </trkpt>
      <trkpt lat="44.45538" lon="1.548">
        <ele>292.8</ele>
        <time>2026-03-22T09:28:30Z</time>
      </trkpt>
      <trkpt lat="44.45536" lon="1.548">
        <ele>293.2</ele>
        <time>2026-03-22T09:28:31Z</time>
      </trkpt>
      <trkpt lat="44.45535" lon="1.54801">
        <ele>293.2</ele>
        <time>2026-03-22T09:28:32Z</time>
      </trkpt>
      <trkpt lat="44.45533" lon="1.548">
        <ele>293.4</ele>
        <time>2026-03-22T09:28:33Z</time>
      </trkpt>
      <trkpt lat="44.45531" lon="1.548">
        <ele>293.6</ele>
        <time>2026-03-22T09:28:34Z</time>
      </trkpt>
      <trkpt lat="44.4553" lon="1.548">
        <ele>293.8</ele>
        <time>2026-03-22T09:28:35Z</time>
      </trkpt>
      <trkpt lat="44.45527" lon="1.54799">
        <ele>293.8</ele>
        <time>2026-03-22T09:28:36Z</time>
      </trkpt>
      <trkpt lat="44.45525" lon="1.54799">
        <ele>294.2</ele>
        <time>2026-03-22T09:28:37Z</time>
      </trkpt>
      <trkpt lat="44.45523" lon="1.54799">
        <ele>294.4</ele>
        <time>2026-03-22T09:28:38Z</time>
      </trkpt>
      <trkpt lat="44.4552" lon="1.54799">
        <ele>294.4</ele>
        <time>2026-03-22T09:28:39Z</time>
      </trkpt>
      <trkpt lat="44.45519" lon="1.54798">
        <ele>294.6</ele>
        <time>2026-03-22T09:28:40Z</time>
      </trkpt>
      <trkpt lat="44.45518" lon="1.54795">
        <ele>294.6</ele>
        <time>2026-03-22T09:28:41Z</time>
      </trkpt>
      <trkpt lat="44.45518" lon="1.54792">
        <ele>294.8</ele>
        <time>2026-03-22T09:28:42Z</time>
      </trkpt>
      <trkpt lat="44.45519" lon="1.54789">
        <ele>294.8</ele>
        <time>2026-03-22T09:28:43Z</time>
      </trkpt>
      <trkpt lat="44.4552" lon="1.54785">
        <ele>294.8</ele>
        <time>2026-03-22T09:28:44Z</time>
      </trkpt>
      <trkpt lat="44.45522" lon="1.5478">
        <ele>294.8</ele>
        <time>2026-03-22T09:28:45Z</time>
      </trkpt>
      <trkpt lat="44.45525" lon="1.54775">
        <ele>294.8</ele>
        <time>2026-03-22T09:28:46Z</time>
      </trkpt>
      <trkpt lat="44.45527" lon="1.54769">
        <ele>294.8</ele>
        <time>2026-03-22T09:28:47Z</time>
      </trkpt>
      <trkpt lat="44.45529" lon="1.54762">
        <ele>295</ele>
        <time>2026-03-22T09:28:48Z</time>
      </trkpt>
      <trkpt lat="44.45532" lon="1.54755">
        <ele>295</ele>
        <time>2026-03-22T09:28:49Z</time>
      </trkpt>
      <trkpt lat="44.45536" lon="1.54748">
        <ele>295</ele>
        <time>2026-03-22T09:28:50Z</time>
      </trkpt>
      <trkpt lat="44.45539" lon="1.54742">
        <ele>295.2</ele>
        <time>2026-03-22T09:28:51Z</time>
      </trkpt>
      <trkpt lat="44.45542" lon="1.54735">
        <ele>295.2</ele>
        <time>2026-03-22T09:28:52Z</time>
      </trkpt>
      <trkpt lat="44.45546" lon="1.54726">
        <ele>295.4</ele>
        <time>2026-03-22T09:28:53Z</time>
      </trkpt>
      <trkpt lat="44.45549" lon="1.54721">
        <ele>295.4</ele>
        <time>2026-03-22T09:28:54Z</time>
      </trkpt>
      <trkpt lat="44.45553" lon="1.54714">
        <ele>295.4</ele>
        <time>2026-03-22T09:28:55Z</time>
      </trkpt>
      <trkpt lat="44.45557" lon="1.54706">
        <ele>295.4</ele>
        <time>2026-03-22T09:28:56Z</time>
      </trkpt>
      <trkpt lat="44.45561" lon="1.54699">
        <ele>295.4</ele>
        <time>2026-03-22T09:28:57Z</time>
      </trkpt>
      <trkpt lat="44.45564" lon="1.54692">
        <ele>295.4</ele>
        <time>2026-03-22T09:28:58Z</time>
      </trkpt>
      <trkpt lat="44.45569" lon="1.54685">
        <ele>295.4</ele>
        <time>2026-03-22T09:28:59Z</time>
      </trkpt>
      <trkpt lat="44.45573" lon="1.54678">
        <ele>295.4</ele>
        <time>2026-03-22T09:29:00Z</time>
      </trkpt>
      <trkpt lat="44.45578" lon="1.54671">
        <ele>295.4</ele>
        <time>2026-03-22T09:29:01Z</time>
      </trkpt>
      <trkpt lat="44.45609" lon="1.54629">
        <ele>294.6</ele>
        <time>2026-03-22T09:29:08Z</time>
      </trkpt>
      <trkpt lat="44.45614" lon="1.54623">
        <ele>294.4</ele>
        <time>2026-03-22T09:29:09Z</time>
      </trkpt>
      <trkpt lat="44.45619" lon="1.54618">
        <ele>294.2</ele>
        <time>2026-03-22T09:29:10Z</time>
      </trkpt>
      <trkpt lat="44.45623" lon="1.54612">
        <ele>294</ele>
        <time>2026-03-22T09:29:11Z</time>
      </trkpt>
      <trkpt lat="44.45628" lon="1.54607">
        <ele>294</ele>
        <time>2026-03-22T09:29:12Z</time>
      </trkpt>
      <trkpt lat="44.45632" lon="1.54602">
        <ele>294</ele>
        <time>2026-03-22T09:29:13Z</time>
      </trkpt>
      <trkpt lat="44.45636" lon="1.54596">
        <ele>293.8</ele>
        <time>2026-03-22T09:29:14Z</time>
      </trkpt>
      <trkpt lat="44.4564" lon="1.54591">
        <ele>293.8</ele>
        <time>2026-03-22T09:29:15Z</time>
      </trkpt>
      <trkpt lat="44.45644" lon="1.54586">
        <ele>293.8</ele>
        <time>2026-03-22T09:29:16Z</time>
      </trkpt>
      <trkpt lat="44.45649" lon="1.54581">
        <ele>293.8</ele>
        <time>2026-03-22T09:29:17Z</time>
      </trkpt>
      <trkpt lat="44.45653" lon="1.54575">
        <ele>293.8</ele>
        <time>2026-03-22T09:29:18Z</time>
      </trkpt>
      <trkpt lat="44.45657" lon="1.5457">
        <ele>293.8</ele>
        <time>2026-03-22T09:29:19Z</time>
      </trkpt>
      <trkpt lat="44.45693" lon="1.54536">
        <ele>294.2</ele>
        <time>2026-03-22T09:29:26Z</time>
      </trkpt>
      <trkpt lat="44.45728" lon="1.54504">
        <ele>294.4</ele>
        <time>2026-03-22T09:29:33Z</time>
      </trkpt>
      <trkpt lat="44.45766" lon="1.54474">
        <ele>293.8</ele>
        <time>2026-03-22T09:29:39Z</time>
      </trkpt>
      <trkpt lat="44.45787" lon="1.54457">
        <ele>292.8</ele>
        <time>2026-03-22T09:29:42Z</time>
      </trkpt>
      <trkpt lat="44.45793" lon="1.54451">
        <ele>292.6</ele>
        <time>2026-03-22T09:29:43Z</time>
      </trkpt>
      <trkpt lat="44.458" lon="1.54445">
        <ele>292</ele>
        <time>2026-03-22T09:29:44Z</time>
      </trkpt>
      <trkpt lat="44.45807" lon="1.54439">
        <ele>291.8</ele>
        <time>2026-03-22T09:29:45Z</time>
      </trkpt>
      <trkpt lat="44.45813" lon="1.54433">
        <ele>291.6</ele>
        <time>2026-03-22T09:29:46Z</time>
      </trkpt>
      <trkpt lat="44.45821" lon="1.54428">
        <ele>291.2</ele>
        <time>2026-03-22T09:29:47Z</time>
      </trkpt>
      <trkpt lat="44.45829" lon="1.54426">
        <ele>290.8</ele>
        <time>2026-03-22T09:29:48Z</time>
      </trkpt>
      <trkpt lat="44.45837" lon="1.54427">
        <ele>290.6</ele>
        <time>2026-03-22T09:29:49Z</time>
      </trkpt>
      <trkpt lat="44.45844" lon="1.54429">
        <ele>290.4</ele>
        <time>2026-03-22T09:29:50Z</time>
      </trkpt>
      <trkpt lat="44.45851" lon="1.5443">
        <ele>290</ele>
        <time>2026-03-22T09:29:51Z</time>
      </trkpt>
      <trkpt lat="44.45857" lon="1.54431">
        <ele>289.6</ele>
        <time>2026-03-22T09:29:52Z</time>
      </trkpt>
      <trkpt lat="44.45863" lon="1.54433">
        <ele>289.4</ele>
        <time>2026-03-22T09:29:53Z</time>
      </trkpt>
      <trkpt lat="44.45869" lon="1.54435">
        <ele>289.2</ele>
        <time>2026-03-22T09:29:54Z</time>
      </trkpt>
      <trkpt lat="44.45874" lon="1.54439">
        <ele>289.2</ele>
        <time>2026-03-22T09:29:55Z</time>
      </trkpt>
      <trkpt lat="44.45879" lon="1.54444">
        <ele>289.2</ele>
        <time>2026-03-22T09:29:56Z</time>
      </trkpt>
      <trkpt lat="44.45884" lon="1.54447">
        <ele>289.2</ele>
        <time>2026-03-22T09:29:57Z</time>
      </trkpt>
      <trkpt lat="44.45889" lon="1.54448">
        <ele>289.2</ele>
        <time>2026-03-22T09:29:58Z</time>
      </trkpt>
      <trkpt lat="44.45896" lon="1.54447">
        <ele>289.2</ele>
        <time>2026-03-22T09:29:59Z</time>
      </trkpt>
      <trkpt lat="44.45901" lon="1.54445">
        <ele>289.2</ele>
        <time>2026-03-22T09:30:00Z</time>
      </trkpt>
      <trkpt lat="44.45906" lon="1.54442">
        <ele>289.2</ele>
        <time>2026-03-22T09:30:01Z</time>
      </trkpt>
      <trkpt lat="44.45911" lon="1.5444">
        <ele>289.2</ele>
        <time>2026-03-22T09:30:02Z</time>
      </trkpt>
      <trkpt lat="44.4592" lon="1.54435">
        <ele>289.6</ele>
        <time>2026-03-22T09:30:04Z</time>
      </trkpt>
      <trkpt lat="44.45925" lon="1.54432">
        <ele>289.8</ele>
        <time>2026-03-22T09:30:05Z</time>
      </trkpt>
      <trkpt lat="44.45936" lon="1.54427">
        <ele>290</ele>
        <time>2026-03-22T09:30:07Z</time>
      </trkpt>
      <trkpt lat="44.45962" lon="1.54415">
        <ele>291.2</ele>
        <time>2026-03-22T09:30:12Z</time>
      </trkpt>
      <trkpt lat="44.45981" lon="1.54402">
        <ele>292.2</ele>
        <time>2026-03-22T09:30:16Z</time>
      </trkpt>
      <trkpt lat="44.45985" lon="1.54399">
        <ele>292.4</ele>
        <time>2026-03-22T09:30:17Z</time>
      </trkpt>
      <trkpt lat="44.45993" lon="1.54393">
        <ele>292.6</ele>
        <time>2026-03-22T09:30:19Z</time>
      </trkpt>
      <trkpt lat="44.45997" lon="1.54389">
        <ele>292.8</ele>
        <time>2026-03-22T09:30:20Z</time>
      </trkpt>
      <trkpt lat="44.46001" lon="1.54387">
        <ele>293</ele>
        <time>2026-03-22T09:30:21Z</time>
      </trkpt>
      <trkpt lat="44.46006" lon="1.54384">
        <ele>293</ele>
        <time>2026-03-22T09:30:22Z</time>
      </trkpt>
      <trkpt lat="44.46011" lon="1.54382">
        <ele>293.2</ele>
        <time>2026-03-22T09:30:23Z</time>
      </trkpt>
      <trkpt lat="44.46015" lon="1.5438">
        <ele>293.4</ele>
        <time>2026-03-22T09:30:24Z</time>
      </trkpt>
      <trkpt lat="44.4602" lon="1.54378">
        <ele>293.6</ele>
        <time>2026-03-22T09:30:25Z</time>
      </trkpt>
      <trkpt lat="44.46025" lon="1.54376">
        <ele>293.8</ele>
        <time>2026-03-22T09:30:26Z</time>
      </trkpt>
      <trkpt lat="44.4603" lon="1.54374">
        <ele>294</ele>
        <time>2026-03-22T09:30:27Z</time>
      </trkpt>
      <trkpt lat="44.46034" lon="1.54371">
        <ele>294.2</ele>
        <time>2026-03-22T09:30:28Z</time>
      </trkpt>
      <trkpt lat="44.46039" lon="1.54369">
        <ele>294.2</ele>
        <time>2026-03-22T09:30:29Z</time>
      </trkpt>
      <trkpt lat="44.46044" lon="1.54366">
        <ele>294.4</ele>
        <time>2026-03-22T09:30:30Z</time>
      </trkpt>
      <trkpt lat="44.46049" lon="1.54363">
        <ele>294.4</ele>
        <time>2026-03-22T09:30:31Z</time>
      </trkpt>
      <trkpt lat="44.46054" lon="1.5436">
        <ele>294.4</ele>
        <time>2026-03-22T09:30:32Z</time>
      </trkpt>
      <trkpt lat="44.46059" lon="1.54356">
        <ele>294.6</ele>
        <time>2026-03-22T09:30:33Z</time>
      </trkpt>
      <trkpt lat="44.46063" lon="1.54351">
        <ele>294.8</ele>
        <time>2026-03-22T09:30:34Z</time>
      </trkpt>
      <trkpt lat="44.46067" lon="1.54347">
        <ele>294.8</ele>
        <time>2026-03-22T09:30:35Z</time>
      </trkpt>
      <trkpt lat="44.46072" lon="1.54343">
        <ele>295</ele>
        <time>2026-03-22T09:30:36Z</time>
      </trkpt>
      <trkpt lat="44.46076" lon="1.54339">
        <ele>295</ele>
        <time>2026-03-22T09:30:37Z</time>
      </trkpt>
      <trkpt lat="44.4608" lon="1.54335">
        <ele>295.2</ele>
        <time>2026-03-22T09:30:38Z</time>
      </trkpt>
      <trkpt lat="44.46085" lon="1.54332">
        <ele>295.2</ele>
        <time>2026-03-22T09:30:39Z</time>
      </trkpt>
      <trkpt lat="44.46089" lon="1.54329">
        <ele>295.4</ele>
        <time>2026-03-22T09:30:40Z</time>
      </trkpt>
      <trkpt lat="44.46094" lon="1.54325">
        <ele>295.4</ele>
        <time>2026-03-22T09:30:41Z</time>
      </trkpt>
      <trkpt lat="44.46099" lon="1.54321">
        <ele>295.4</ele>
        <time>2026-03-22T09:30:42Z</time>
      </trkpt>
      <trkpt lat="44.46104" lon="1.54317">
        <ele>295.8</ele>
        <time>2026-03-22T09:30:43Z</time>
      </trkpt>
      <trkpt lat="44.46109" lon="1.54313">
        <ele>296</ele>
        <time>2026-03-22T09:30:44Z</time>
      </trkpt>
      <trkpt lat="44.46113" lon="1.54309">
        <ele>296</ele>
        <time>2026-03-22T09:30:45Z</time>
      </trkpt>
      <trkpt lat="44.46118" lon="1.54305">
        <ele>296.2</ele>
        <time>2026-03-22T09:30:46Z</time>
      </trkpt>
      <trkpt lat="44.46123" lon="1.54301">
        <ele>296.6</ele>
        <time>2026-03-22T09:30:47Z</time>
      </trkpt>
      <trkpt lat="44.46126" lon="1.54298">
        <ele>296.6</ele>
        <time>2026-03-22T09:30:48Z</time>
      </trkpt>
      <trkpt lat="44.46131" lon="1.54294">
        <ele>296.6</ele>
        <time>2026-03-22T09:30:49Z</time>
      </trkpt>
      <trkpt lat="44.46134" lon="1.54291">
        <ele>296.8</ele>
        <time>2026-03-22T09:30:50Z</time>
      </trkpt>
      <trkpt lat="44.46137" lon="1.54288">
        <ele>296.8</ele>
        <time>2026-03-22T09:30:51Z</time>
      </trkpt>
      <trkpt lat="44.46142" lon="1.54284">
        <ele>296.8</ele>
        <time>2026-03-22T09:30:52Z</time>
      </trkpt>
      <trkpt lat="44.46146" lon="1.5428">
        <ele>296.8</ele>
        <time>2026-03-22T09:30:53Z</time>
      </trkpt>
      <trkpt lat="44.46151" lon="1.54276">
        <ele>296.8</ele>
        <time>2026-03-22T09:30:54Z</time>
      </trkpt>
      <trkpt lat="44.46156" lon="1.54271">
        <ele>296.8</ele>
        <time>2026-03-22T09:30:55Z</time>
      </trkpt>
      <trkpt lat="44.46161" lon="1.54267">
        <ele>296.8</ele>
        <time>2026-03-22T09:30:56Z</time>
      </trkpt>
      <trkpt lat="44.46167" lon="1.54263">
        <ele>296.6</ele>
        <time>2026-03-22T09:30:57Z</time>
      </trkpt>
      <trkpt lat="44.46173" lon="1.54257">
        <ele>296.6</ele>
        <time>2026-03-22T09:30:58Z</time>
      </trkpt>
      <trkpt lat="44.46179" lon="1.54251">
        <ele>296.6</ele>
        <time>2026-03-22T09:30:59Z</time>
      </trkpt>
      <trkpt lat="44.46185" lon="1.54244">
        <ele>296.4</ele>
        <time>2026-03-22T09:31:00Z</time>
      </trkpt>
      <trkpt lat="44.46191" lon="1.54237">
        <ele>296.2</ele>
        <time>2026-03-22T09:31:01Z</time>
      </trkpt>
      <trkpt lat="44.46205" lon="1.54222">
        <ele>295.6</ele>
        <time>2026-03-22T09:31:03Z</time>
      </trkpt>
      <trkpt lat="44.46227" lon="1.542">
        <ele>294.8</ele>
        <time>2026-03-22T09:31:06Z</time>
      </trkpt>
      <trkpt lat="44.46234" lon="1.54193">
        <ele>293.6</ele>
        <time>2026-03-22T09:31:07Z</time>
      </trkpt>
      <trkpt lat="44.46242" lon="1.54185">
        <ele>293</ele>
        <time>2026-03-22T09:31:08Z</time>
      </trkpt>
      <trkpt lat="44.46249" lon="1.54178">
        <ele>291.6</ele>
        <time>2026-03-22T09:31:09Z</time>
      </trkpt>
      <trkpt lat="44.46264" lon="1.54166">
        <ele>289.8</ele>
        <time>2026-03-22T09:31:11Z</time>
      </trkpt>
      <trkpt lat="44.46271" lon="1.5416">
        <ele>289</ele>
        <time>2026-03-22T09:31:12Z</time>
      </trkpt>
      <trkpt lat="44.46276" lon="1.54152">
        <ele>288.2</ele>
        <time>2026-03-22T09:31:13Z</time>
      </trkpt>
      <trkpt lat="44.46279" lon="1.54143">
        <ele>287</ele>
        <time>2026-03-22T09:31:14Z</time>
      </trkpt>
      <trkpt lat="44.4628" lon="1.54133">
        <ele>285.6</ele>
        <time>2026-03-22T09:31:15Z</time>
      </trkpt>
      <trkpt lat="44.46281" lon="1.54122">
        <ele>284.6</ele>
        <time>2026-03-22T09:31:16Z</time>
      </trkpt>
      <trkpt lat="44.4628" lon="1.54112">
        <ele>283.8</ele>
        <time>2026-03-22T09:31:17Z</time>
      </trkpt>
      <trkpt lat="44.4628" lon="1.54102">
        <ele>283.2</ele>
        <time>2026-03-22T09:31:18Z</time>
      </trkpt>
      <trkpt lat="44.46278" lon="1.54093">
        <ele>282</ele>
        <time>2026-03-22T09:31:19Z</time>
      </trkpt>
      <trkpt lat="44.46275" lon="1.54084">
        <ele>280.2</ele>
        <time>2026-03-22T09:31:20Z</time>
      </trkpt>
      <trkpt lat="44.46272" lon="1.54075">
        <ele>278.6</ele>
        <time>2026-03-22T09:31:21Z</time>
      </trkpt>
      <trkpt lat="44.46269" lon="1.54067">
        <ele>277.6</ele>
        <time>2026-03-22T09:31:22Z</time>
      </trkpt>
      <trkpt lat="44.46266" lon="1.54058">
        <ele>277</ele>
        <time>2026-03-22T09:31:23Z</time>
      </trkpt>
      <trkpt lat="44.46264" lon="1.54048">
        <ele>275.6</ele>
        <time>2026-03-22T09:31:24Z</time>
      </trkpt>
      <trkpt lat="44.46261" lon="1.54037">
        <ele>274.6</ele>
        <time>2026-03-22T09:31:25Z</time>
      </trkpt>
      <trkpt lat="44.46253" lon="1.53997">
        <ele>273.2</ele>
        <time>2026-03-22T09:31:28Z</time>
      </trkpt>
      <trkpt lat="44.46248" lon="1.53972">
        <ele>272.2</ele>
        <time>2026-03-22T09:31:30Z</time>
      </trkpt>
      <trkpt lat="44.46246" lon="1.53945">
        <ele>270.4</ele>
        <time>2026-03-22T09:31:32Z</time>
      </trkpt>
      <trkpt lat="44.46245" lon="1.5393">
        <ele>268.8</ele>
        <time>2026-03-22T09:31:33Z</time>
      </trkpt>
      <trkpt lat="44.46243" lon="1.53913">
        <ele>267.6</ele>
        <time>2026-03-22T09:31:34Z</time>
      </trkpt>
      <trkpt lat="44.46243" lon="1.53902">
        <ele>266.8</ele>
        <time>2026-03-22T09:31:35Z</time>
      </trkpt>
      <trkpt lat="44.46243" lon="1.53885">
        <ele>265.8</ele>
        <time>2026-03-22T09:31:36Z</time>
      </trkpt>
      <trkpt lat="44.46243" lon="1.53875">
        <ele>264.8</ele>
        <time>2026-03-22T09:31:37Z</time>
      </trkpt>
      <trkpt lat="44.46242" lon="1.53863">
        <ele>264</ele>
        <time>2026-03-22T09:31:38Z</time>
      </trkpt>
      <trkpt lat="44.46242" lon="1.5385">
        <ele>262</ele>
        <time>2026-03-22T09:31:39Z</time>
      </trkpt>
      <trkpt lat="44.46242" lon="1.53842">
        <ele>261</ele>
        <time>2026-03-22T09:31:40Z</time>
      </trkpt>
      <trkpt lat="44.46242" lon="1.5383">
        <ele>259.8</ele>
        <time>2026-03-22T09:31:41Z</time>
      </trkpt>
      <trkpt lat="44.46243" lon="1.53822">
        <ele>258.4</ele>
        <time>2026-03-22T09:31:42Z</time>
      </trkpt>
      <trkpt lat="44.46243" lon="1.5381">
        <ele>256.8</ele>
        <time>2026-03-22T09:31:43Z</time>
      </trkpt>
      <trkpt lat="44.46244" lon="1.53797">
        <ele>253.8</ele>
        <time>2026-03-22T09:31:44Z</time>
      </trkpt>
      <trkpt lat="44.46245" lon="1.53784">
        <ele>252.4</ele>
        <time>2026-03-22T09:31:45Z</time>
      </trkpt>
      <trkpt lat="44.46247" lon="1.53759">
        <ele>249.8</ele>
        <time>2026-03-22T09:31:47Z</time>
      </trkpt>
      <trkpt lat="44.46249" lon="1.53747">
        <ele>248.2</ele>
        <time>2026-03-22T09:31:48Z</time>
      </trkpt>
      <trkpt lat="44.46251" lon="1.53735">
        <ele>247.2</ele>
        <time>2026-03-22T09:31:49Z</time>
      </trkpt>
      <trkpt lat="44.46254" lon="1.53722">
        <ele>246</ele>
        <time>2026-03-22T09:31:50Z</time>
      </trkpt>
      <trkpt lat="44.46257" lon="1.5371">
        <ele>244.4</ele>
        <time>2026-03-22T09:31:51Z</time>
      </trkpt>
      <trkpt lat="44.4626" lon="1.53698">
        <ele>242.8</ele>
        <time>2026-03-22T09:31:52Z</time>
      </trkpt>
      <trkpt lat="44.46263" lon="1.53687">
        <ele>240.6</ele>
        <time>2026-03-22T09:31:53Z</time>
      </trkpt>
      <trkpt lat="44.46266" lon="1.53677">
        <ele>239.2</ele>
        <time>2026-03-22T09:31:54Z</time>
      </trkpt>
      <trkpt lat="44.46271" lon="1.53668">
        <ele>238</ele>
        <time>2026-03-22T09:31:55Z</time>
      </trkpt>
      <trkpt lat="44.46275" lon="1.5366">
        <ele>237</ele>
        <time>2026-03-22T09:31:56Z</time>
      </trkpt>
      <trkpt lat="44.4628" lon="1.5365">
        <ele>236.2</ele>
        <time>2026-03-22T09:31:57Z</time>
      </trkpt>
      <trkpt lat="44.46284" lon="1.53642">
        <ele>235.2</ele>
        <time>2026-03-22T09:31:58Z</time>
      </trkpt>
      <trkpt lat="44.46287" lon="1.53634">
        <ele>234.2</ele>
        <time>2026-03-22T09:31:59Z</time>
      </trkpt>
      <trkpt lat="44.46289" lon="1.53626">
        <ele>233</ele>
        <time>2026-03-22T09:32:00Z</time>
      </trkpt>
      <trkpt lat="44.46291" lon="1.53618">
        <ele>232.4</ele>
        <time>2026-03-22T09:32:01Z</time>
      </trkpt>
      <trkpt lat="44.46294" lon="1.53611">
        <ele>231.8</ele>
        <time>2026-03-22T09:32:02Z</time>
      </trkpt>
      <trkpt lat="44.46296" lon="1.53605">
        <ele>231.2</ele>
        <time>2026-03-22T09:32:03Z</time>
      </trkpt>
      <trkpt lat="44.46298" lon="1.536">
        <ele>230.8</ele>
        <time>2026-03-22T09:32:04Z</time>
      </trkpt>
      <trkpt lat="44.46301" lon="1.53593">
        <ele>229.6</ele>
        <time>2026-03-22T09:32:05Z</time>
      </trkpt>
      <trkpt lat="44.46306" lon="1.53581">
        <ele>227.8</ele>
        <time>2026-03-22T09:32:07Z</time>
      </trkpt>
      <trkpt lat="44.4631" lon="1.53574">
        <ele>227</ele>
        <time>2026-03-22T09:32:08Z</time>
      </trkpt>
      <trkpt lat="44.46312" lon="1.5357">
        <ele>226</ele>
        <time>2026-03-22T09:32:09Z</time>
      </trkpt>
      <trkpt lat="44.46315" lon="1.53565">
        <ele>225</ele>
        <time>2026-03-22T09:32:10Z</time>
      </trkpt>
      <trkpt lat="44.46318" lon="1.5356">
        <ele>224.2</ele>
        <time>2026-03-22T09:32:11Z</time>
      </trkpt>
      <trkpt lat="44.4632" lon="1.53556">
        <ele>223.2</ele>
        <time>2026-03-22T09:32:12Z</time>
      </trkpt>
      <trkpt lat="44.46323" lon="1.53553">
        <ele>222.4</ele>
        <time>2026-03-22T09:32:13Z</time>
      </trkpt>
      <trkpt lat="44.46327" lon="1.53548">
        <ele>221.8</ele>
        <time>2026-03-22T09:32:14Z</time>
      </trkpt>
      <trkpt lat="44.46332" lon="1.53542">
        <ele>221.2</ele>
        <time>2026-03-22T09:32:15Z</time>
      </trkpt>
      <trkpt lat="44.46336" lon="1.53534">
        <ele>220.2</ele>
        <time>2026-03-22T09:32:16Z</time>
      </trkpt>
      <trkpt lat="44.4634" lon="1.53527">
        <ele>219.2</ele>
        <time>2026-03-22T09:32:17Z</time>
      </trkpt>
      <trkpt lat="44.46343" lon="1.53521">
        <ele>218.4</ele>
        <time>2026-03-22T09:32:18Z</time>
      </trkpt>
      <trkpt lat="44.46346" lon="1.53515">
        <ele>218</ele>
        <time>2026-03-22T09:32:19Z</time>
      </trkpt>
      <trkpt lat="44.46349" lon="1.5351">
        <ele>217.4</ele>
        <time>2026-03-22T09:32:20Z</time>
      </trkpt>
      <trkpt lat="44.46352" lon="1.53504">
        <ele>217.2</ele>
        <time>2026-03-22T09:32:21Z</time>
      </trkpt>
      <trkpt lat="44.46354" lon="1.53498">
        <ele>216.8</ele>
        <time>2026-03-22T09:32:22Z</time>
      </trkpt>
      <trkpt lat="44.46358" lon="1.53492">
        <ele>216.2</ele>
        <time>2026-03-22T09:32:23Z</time>
      </trkpt>
      <trkpt lat="44.46365" lon="1.5348">
        <ele>214.8</ele>
        <time>2026-03-22T09:32:25Z</time>
      </trkpt>
      <trkpt lat="44.46368" lon="1.53474">
        <ele>213.6</ele>
        <time>2026-03-22T09:32:26Z</time>
      </trkpt>
      <trkpt lat="44.46375" lon="1.53462">
        <ele>211.8</ele>
        <time>2026-03-22T09:32:28Z</time>
      </trkpt>
      <trkpt lat="44.46383" lon="1.53449">
        <ele>208.8</ele>
        <time>2026-03-22T09:32:30Z</time>
      </trkpt>
      <trkpt lat="44.46391" lon="1.53435">
        <ele>206.6</ele>
        <time>2026-03-22T09:32:32Z</time>
      </trkpt>
      <trkpt lat="44.46395" lon="1.53428">
        <ele>206</ele>
        <time>2026-03-22T09:32:33Z</time>
      </trkpt>
      <trkpt lat="44.46399" lon="1.53422">
        <ele>205.4</ele>
        <time>2026-03-22T09:32:34Z</time>
      </trkpt>
      <trkpt lat="44.46404" lon="1.53416">
        <ele>204.4</ele>
        <time>2026-03-22T09:32:35Z</time>
      </trkpt>
      <trkpt lat="44.46409" lon="1.53411">
        <ele>203</ele>
        <time>2026-03-22T09:32:36Z</time>
      </trkpt>
      <trkpt lat="44.46414" lon="1.53406">
        <ele>202</ele>
        <time>2026-03-22T09:32:37Z</time>
      </trkpt>
      <trkpt lat="44.46418" lon="1.534">
        <ele>201.4</ele>
        <time>2026-03-22T09:32:38Z</time>
      </trkpt>
      <trkpt lat="44.46422" lon="1.53395">
        <ele>199.6</ele>
        <time>2026-03-22T09:32:39Z</time>
      </trkpt>
      <trkpt lat="44.46426" lon="1.53389">
        <ele>198.6</ele>
        <time>2026-03-22T09:32:40Z</time>
      </trkpt>
      <trkpt lat="44.46431" lon="1.53384">
        <ele>197.4</ele>
        <time>2026-03-22T09:32:41Z</time>
      </trkpt>
      <trkpt lat="44.46435" lon="1.53378">
        <ele>196.2</ele>
        <time>2026-03-22T09:32:42Z</time>
      </trkpt>
      <trkpt lat="44.4644" lon="1.53373">
        <ele>195</ele>
        <time>2026-03-22T09:32:43Z</time>
      </trkpt>
      <trkpt lat="44.46444" lon="1.53367">
        <ele>194.2</ele>
        <time>2026-03-22T09:32:44Z</time>
      </trkpt>
      <trkpt lat="44.46448" lon="1.53361">
        <ele>193</ele>
        <time>2026-03-22T09:32:45Z</time>
      </trkpt>
      <trkpt lat="44.46451" lon="1.53355">
        <ele>192.2</ele>
        <time>2026-03-22T09:32:46Z</time>
      </trkpt>
      <trkpt lat="44.46455" lon="1.53349">
        <ele>191.2</ele>
        <time>2026-03-22T09:32:47Z</time>
      </trkpt>
      <trkpt lat="44.46458" lon="1.53343">
        <ele>190</ele>
        <time>2026-03-22T09:32:48Z</time>
      </trkpt>
      <trkpt lat="44.46465" lon="1.53328">
        <ele>187.8</ele>
        <time>2026-03-22T09:32:50Z</time>
      </trkpt>
      <trkpt lat="44.46471" lon="1.53312">
        <ele>186.4</ele>
        <time>2026-03-22T09:32:52Z</time>
      </trkpt>
      <trkpt lat="44.46474" lon="1.53304">
        <ele>185</ele>
        <time>2026-03-22T09:32:53Z</time>
      </trkpt>
      <trkpt lat="44.46478" lon="1.53297">
        <ele>184.2</ele>
        <time>2026-03-22T09:32:54Z</time>
      </trkpt>
      <trkpt lat="44.46483" lon="1.53293">
        <ele>183.4</ele>
        <time>2026-03-22T09:32:55Z</time>
      </trkpt>
      <trkpt lat="44.46489" lon="1.53291">
        <ele>182.8</ele>
        <time>2026-03-22T09:32:56Z</time>
      </trkpt>
      <trkpt lat="44.46496" lon="1.53294">
        <ele>181.6</ele>
        <time>2026-03-22T09:32:57Z</time>
      </trkpt>
      <trkpt lat="44.46503" lon="1.53298">
        <ele>180</ele>
        <time>2026-03-22T09:32:58Z</time>
      </trkpt>
      <trkpt lat="44.46511" lon="1.53304">
        <ele>179.2</ele>
        <time>2026-03-22T09:32:59Z</time>
      </trkpt>
      <trkpt lat="44.46519" lon="1.53312">
        <ele>178.4</ele>
        <time>2026-03-22T09:33:00Z</time>
      </trkpt>
      <trkpt lat="44.46527" lon="1.53322">
        <ele>177.2</ele>
        <time>2026-03-22T09:33:01Z</time>
      </trkpt>
      <trkpt lat="44.46536" lon="1.53333">
        <ele>176</ele>
        <time>2026-03-22T09:33:02Z</time>
      </trkpt>
      <trkpt lat="44.46552" lon="1.53356">
        <ele>174</ele>
        <time>2026-03-22T09:33:04Z</time>
      </trkpt>
      <trkpt lat="44.4656" lon="1.53368">
        <ele>172.8</ele>
        <time>2026-03-22T09:33:05Z</time>
      </trkpt>
      <trkpt lat="44.46576" lon="1.53392">
        <ele>171</ele>
        <time>2026-03-22T09:33:07Z</time>
      </trkpt>
      <trkpt lat="44.46585" lon="1.53404">
        <ele>169.6</ele>
        <time>2026-03-22T09:33:08Z</time>
      </trkpt>
      <trkpt lat="44.46594" lon="1.53415">
        <ele>167.8</ele>
        <time>2026-03-22T09:33:09Z</time>
      </trkpt>
      <trkpt lat="44.46602" lon="1.53427">
        <ele>166.2</ele>
        <time>2026-03-22T09:33:10Z</time>
      </trkpt>
      <trkpt lat="44.4661" lon="1.5344">
        <ele>164.8</ele>
        <time>2026-03-22T09:33:11Z</time>
      </trkpt>
      <trkpt lat="44.46618" lon="1.53453">
        <ele>163.2</ele>
        <time>2026-03-22T09:33:12Z</time>
      </trkpt>
      <trkpt lat="44.46624" lon="1.53466">
        <ele>162.2</ele>
        <time>2026-03-22T09:33:13Z</time>
      </trkpt>
      <trkpt lat="44.46631" lon="1.5348">
        <ele>160.8</ele>
        <time>2026-03-22T09:33:14Z</time>
      </trkpt>
      <trkpt lat="44.46635" lon="1.53488">
        <ele>159.8</ele>
        <time>2026-03-22T09:33:15Z</time>
      </trkpt>
      <trkpt lat="44.46642" lon="1.53495">
        <ele>157.6</ele>
        <time>2026-03-22T09:33:16Z</time>
      </trkpt>
      <trkpt lat="44.4665" lon="1.535">
        <ele>156.8</ele>
        <time>2026-03-22T09:33:17Z</time>
      </trkpt>
      <trkpt lat="44.46658" lon="1.53501">
        <ele>156.4</ele>
        <time>2026-03-22T09:33:18Z</time>
      </trkpt>
      <trkpt lat="44.46666" lon="1.53499">
        <ele>156.2</ele>
        <time>2026-03-22T09:33:19Z</time>
      </trkpt>
      <trkpt lat="44.46672" lon="1.53494">
        <ele>155</ele>
        <time>2026-03-22T09:33:20Z</time>
      </trkpt>
      <trkpt lat="44.46679" lon="1.53487">
        <ele>154</ele>
        <time>2026-03-22T09:33:21Z</time>
      </trkpt>
      <trkpt lat="44.46684" lon="1.53479">
        <ele>153.6</ele>
        <time>2026-03-22T09:33:22Z</time>
      </trkpt>
      <trkpt lat="44.46689" lon="1.5347">
        <ele>152.8</ele>
        <time>2026-03-22T09:33:23Z</time>
      </trkpt>
      <trkpt lat="44.46693" lon="1.53461">
        <ele>152.4</ele>
        <time>2026-03-22T09:33:24Z</time>
      </trkpt>
      <trkpt lat="44.46701" lon="1.5344">
        <ele>151.8</ele>
        <time>2026-03-22T09:33:26Z</time>
      </trkpt>
      <trkpt lat="44.46704" lon="1.5343">
        <ele>151.4</ele>
        <time>2026-03-22T09:33:27Z</time>
      </trkpt>
      <trkpt lat="44.46707" lon="1.53418">
        <ele>151.2</ele>
        <time>2026-03-22T09:33:28Z</time>
      </trkpt>
      <trkpt lat="44.46715" lon="1.53384">
        <ele>150.4</ele>
        <time>2026-03-22T09:33:31Z</time>
      </trkpt>
      <trkpt lat="44.46717" lon="1.53371">
        <ele>150</ele>
        <time>2026-03-22T09:33:32Z</time>
      </trkpt>
      <trkpt lat="44.46723" lon="1.53332">
        <ele>149.2</ele>
        <time>2026-03-22T09:33:35Z</time>
      </trkpt>
      <trkpt lat="44.46721" lon="1.53318">
        <ele>148.6</ele>
        <time>2026-03-22T09:33:36Z</time>
      </trkpt>
      <trkpt lat="44.46719" lon="1.53305">
        <ele>148</ele>
        <time>2026-03-22T09:33:37Z</time>
      </trkpt>
      <trkpt lat="44.46716" lon="1.53292">
        <ele>147.6</ele>
        <time>2026-03-22T09:33:38Z</time>
      </trkpt>
      <trkpt lat="44.46715" lon="1.53277">
        <ele>146.6</ele>
        <time>2026-03-22T09:33:39Z</time>
      </trkpt>
      <trkpt lat="44.46713" lon="1.53262">
        <ele>145.8</ele>
        <time>2026-03-22T09:33:40Z</time>
      </trkpt>
      <trkpt lat="44.46711" lon="1.53235">
        <ele>144.2</ele>
        <time>2026-03-22T09:33:42Z</time>
      </trkpt>
      <trkpt lat="44.46706" lon="1.53208">
        <ele>142.4</ele>
        <time>2026-03-22T09:33:44Z</time>
      </trkpt>
      <trkpt lat="44.46697" lon="1.53183">
        <ele>141.4</ele>
        <time>2026-03-22T09:33:46Z</time>
      </trkpt>
      <trkpt lat="44.46686" lon="1.53159">
        <ele>140</ele>
        <time>2026-03-22T09:33:48Z</time>
      </trkpt>
      <trkpt lat="44.46674" lon="1.53136">
        <ele>138.6</ele>
        <time>2026-03-22T09:33:50Z</time>
      </trkpt>
      <trkpt lat="44.46664" lon="1.53114">
        <ele>137.2</ele>
        <time>2026-03-22T09:33:52Z</time>
      </trkpt>
      <trkpt lat="44.4666" lon="1.53106">
        <ele>136.4</ele>
        <time>2026-03-22T09:33:53Z</time>
      </trkpt>
      <trkpt lat="44.46656" lon="1.531">
        <ele>135.8</ele>
        <time>2026-03-22T09:33:54Z</time>
      </trkpt>
      <trkpt lat="44.46651" lon="1.53098">
        <ele>135.4</ele>
        <time>2026-03-22T09:33:55Z</time>
      </trkpt>
      <trkpt lat="44.46647" lon="1.53098">
        <ele>134.8</ele>
        <time>2026-03-22T09:33:56Z</time>
      </trkpt>
      <trkpt lat="44.46644" lon="1.53102">
        <ele>134.4</ele>
        <time>2026-03-22T09:33:57Z</time>
      </trkpt>
      <trkpt lat="44.4664" lon="1.53105">
        <ele>134.2</ele>
        <time>2026-03-22T09:33:58Z</time>
      </trkpt>
      <trkpt lat="44.46637" lon="1.53108">
        <ele>134</ele>
        <time>2026-03-22T09:33:59Z</time>
      </trkpt>
      <trkpt lat="44.46634" lon="1.5311">
        <ele>134</ele>
        <time>2026-03-22T09:34:00Z</time>
      </trkpt>
      <trkpt lat="44.4663" lon="1.53112">
        <ele>134</ele>
        <time>2026-03-22T09:34:01Z</time>
      </trkpt>
      <trkpt lat="44.46626" lon="1.53113">
        <ele>134</ele>
        <time>2026-03-22T09:34:02Z</time>
      </trkpt>
      <trkpt lat="44.46622" lon="1.53112">
        <ele>134</ele>
        <time>2026-03-22T09:34:03Z</time>
      </trkpt>
      <trkpt lat="44.46619" lon="1.53111">
        <ele>134</ele>
        <time>2026-03-22T09:34:04Z</time>
      </trkpt>
      <trkpt lat="44.46615" lon="1.53109">
        <ele>134</ele>
        <time>2026-03-22T09:34:05Z</time>
      </trkpt>
      <trkpt lat="44.46612" lon="1.53108">
        <ele>134</ele>
        <time>2026-03-22T09:34:06Z</time>
      </trkpt>
      <trkpt lat="44.46585" lon="1.53101">
        <ele>136</ele>
        <time>2026-03-22T09:34:13Z</time>
      </trkpt>
      <trkpt lat="44.46576" lon="1.53101">
        <ele>136.4</ele>
        <time>2026-03-22T09:34:15Z</time>
      </trkpt>
      <trkpt lat="44.46558" lon="1.53103">
        <ele>137.2</ele>
        <time>2026-03-22T09:34:19Z</time>
      </trkpt>
      <trkpt lat="44.46535" lon="1.53106">
        <ele>138.2</ele>
        <time>2026-03-22T09:34:24Z</time>
      </trkpt>
      <trkpt lat="44.46522" lon="1.53112">
        <ele>139.4</ele>
        <time>2026-03-22T09:34:27Z</time>
      </trkpt>
      <trkpt lat="44.46518" lon="1.53115">
        <ele>139.8</ele>
        <time>2026-03-22T09:34:28Z</time>
      </trkpt>
      <trkpt lat="44.46514" lon="1.53117">
        <ele>140</ele>
        <time>2026-03-22T09:34:29Z</time>
      </trkpt>
      <trkpt lat="44.4651" lon="1.5312">
        <ele>140</ele>
        <time>2026-03-22T09:34:30Z</time>
      </trkpt>
      <trkpt lat="44.46506" lon="1.53122">
        <ele>140.4</ele>
        <time>2026-03-22T09:34:31Z</time>
      </trkpt>
      <trkpt lat="44.46502" lon="1.53124">
        <ele>140.6</ele>
        <time>2026-03-22T09:34:32Z</time>
      </trkpt>
      <trkpt lat="44.46499" lon="1.53127">
        <ele>140.8</ele>
        <time>2026-03-22T09:34:33Z</time>
      </trkpt>
      <trkpt lat="44.46495" lon="1.5313">
        <ele>141</ele>
        <time>2026-03-22T09:34:34Z</time>
      </trkpt>
      <trkpt lat="44.46492" lon="1.53131">
        <ele>141.2</ele>
        <time>2026-03-22T09:34:35Z</time>
      </trkpt>
      <trkpt lat="44.46488" lon="1.53133">
        <ele>141.6</ele>
        <time>2026-03-22T09:34:36Z</time>
      </trkpt>
      <trkpt lat="44.46485" lon="1.53135">
        <ele>141.8</ele>
        <time>2026-03-22T09:34:37Z</time>
      </trkpt>
      <trkpt lat="44.46482" lon="1.53136">
        <ele>142</ele>
        <time>2026-03-22T09:34:38Z</time>
      </trkpt>
      <trkpt lat="44.46478" lon="1.53138">
        <ele>142.2</ele>
        <time>2026-03-22T09:34:39Z</time>
      </trkpt>
      <trkpt lat="44.46475" lon="1.53139">
        <ele>142.4</ele>
        <time>2026-03-22T09:34:40Z</time>
      </trkpt>
      <trkpt lat="44.46472" lon="1.53141">
        <ele>142.6</ele>
        <time>2026-03-22T09:34:41Z</time>
      </trkpt>
      <trkpt lat="44.46469" lon="1.53142">
        <ele>143</ele>
        <time>2026-03-22T09:34:42Z</time>
      </trkpt>
      <trkpt lat="44.46465" lon="1.53143">
        <ele>143.2</ele>
        <time>2026-03-22T09:34:43Z</time>
      </trkpt>
      <trkpt lat="44.46462" lon="1.53144">
        <ele>143.6</ele>
        <time>2026-03-22T09:34:44Z</time>
      </trkpt>
      <trkpt lat="44.4646" lon="1.53145">
        <ele>143.8</ele>
        <time>2026-03-22T09:34:45Z</time>
      </trkpt>
      <trkpt lat="44.46457" lon="1.53146">
        <ele>144</ele>
        <time>2026-03-22T09:34:46Z</time>
      </trkpt>
      <trkpt lat="44.46454" lon="1.53146">
        <ele>144.2</ele>
        <time>2026-03-22T09:34:47Z</time>
      </trkpt>
      <trkpt lat="44.46451" lon="1.53149">
        <ele>144.4</ele>
        <time>2026-03-22T09:34:48Z</time>
      </trkpt>
      <trkpt lat="44.46449" lon="1.53151">
        <ele>144.8</ele>
        <time>2026-03-22T09:34:49Z</time>
      </trkpt>
      <trkpt lat="44.46448" lon="1.53154">
        <ele>145.2</ele>
        <time>2026-03-22T09:34:50Z</time>
      </trkpt>
      <trkpt lat="44.46448" lon="1.53158">
        <ele>145.4</ele>
        <time>2026-03-22T09:34:51Z</time>
      </trkpt>
      <trkpt lat="44.46447" lon="1.53161">
        <ele>145.6</ele>
        <time>2026-03-22T09:34:52Z</time>
      </trkpt>
      <trkpt lat="44.46446" lon="1.53165">
        <ele>145.8</ele>
        <time>2026-03-22T09:34:53Z</time>
      </trkpt>
      <trkpt lat="44.46445" lon="1.53168">
        <ele>146.2</ele>
        <time>2026-03-22T09:34:54Z</time>
      </trkpt>
      <trkpt lat="44.46443" lon="1.5317">
        <ele>146.6</ele>
        <time>2026-03-22T09:34:55Z</time>
      </trkpt>
      <trkpt lat="44.4644" lon="1.53172">
        <ele>146.8</ele>
        <time>2026-03-22T09:34:56Z</time>
      </trkpt>
      <trkpt lat="44.46438" lon="1.53173">
        <ele>147</ele>
        <time>2026-03-22T09:34:57Z</time>
      </trkpt>
      <trkpt lat="44.46435" lon="1.53175">
        <ele>147.4</ele>
        <time>2026-03-22T09:34:58Z</time>
      </trkpt>
      <trkpt lat="44.46432" lon="1.53178">
        <ele>147.6</ele>
        <time>2026-03-22T09:34:59Z</time>
      </trkpt>
      <trkpt lat="44.46429" lon="1.53181">
        <ele>147.8</ele>
        <time>2026-03-22T09:35:00Z</time>
      </trkpt>
      <trkpt lat="44.46427" lon="1.53184">
        <ele>148</ele>
        <time>2026-03-22T09:35:01Z</time>
      </trkpt>
      <trkpt lat="44.46424" lon="1.53188">
        <ele>148.4</ele>
        <time>2026-03-22T09:35:02Z</time>
      </trkpt>
      <trkpt lat="44.46422" lon="1.53192">
        <ele>148.6</ele>
        <time>2026-03-22T09:35:03Z</time>
      </trkpt>
      <trkpt lat="44.4642" lon="1.53195">
        <ele>149</ele>
        <time>2026-03-22T09:35:04Z</time>
      </trkpt>
      <trkpt lat="44.46417" lon="1.53199">
        <ele>149.4</ele>
        <time>2026-03-22T09:35:05Z</time>
      </trkpt>
      <trkpt lat="44.46415" lon="1.53201">
        <ele>149.8</ele>
        <time>2026-03-22T09:35:06Z</time>
      </trkpt>
      <trkpt lat="44.46414" lon="1.53205">
        <ele>150</ele>
        <time>2026-03-22T09:35:07Z</time>
      </trkpt>
      <trkpt lat="44.46413" lon="1.53208">
        <ele>150.4</ele>
        <time>2026-03-22T09:35:08Z</time>
      </trkpt>
      <trkpt lat="44.46411" lon="1.53211">
        <ele>150.8</ele>
        <time>2026-03-22T09:35:09Z</time>
      </trkpt>
      <trkpt lat="44.46407" lon="1.53214">
        <ele>151</ele>
        <time>2026-03-22T09:35:10Z</time>
      </trkpt>
      <trkpt lat="44.46405" lon="1.53217">
        <ele>151.2</ele>
        <time>2026-03-22T09:35:11Z</time>
      </trkpt>
      <trkpt lat="44.46403" lon="1.53221">
        <ele>151.4</ele>
        <time>2026-03-22T09:35:12Z</time>
      </trkpt>
      <trkpt lat="44.464" lon="1.53225">
        <ele>152</ele>
        <time>2026-03-22T09:35:13Z</time>
      </trkpt>
      <trkpt lat="44.46399" lon="1.53228">
        <ele>152.2</ele>
        <time>2026-03-22T09:35:14Z</time>
      </trkpt>
      <trkpt lat="44.46396" lon="1.5323">
        <ele>152.8</ele>
        <time>2026-03-22T09:35:15Z</time>
      </trkpt>
      <trkpt lat="44.46394" lon="1.53232">
        <ele>153.2</ele>
        <time>2026-03-22T09:35:16Z</time>
      </trkpt>
      <trkpt lat="44.46392" lon="1.53234">
        <ele>153.6</ele>
        <time>2026-03-22T09:35:17Z</time>
      </trkpt>
      <trkpt lat="44.46391" lon="1.53236">
        <ele>154</ele>
        <time>2026-03-22T09:35:18Z</time>
      </trkpt>
      <trkpt lat="44.46388" lon="1.53238">
        <ele>154.4</ele>
        <time>2026-03-22T09:35:19Z</time>
      </trkpt>
      <trkpt lat="44.46385" lon="1.53241">
        <ele>155</ele>
        <time>2026-03-22T09:35:20Z</time>
      </trkpt>
      <trkpt lat="44.46383" lon="1.53243">
        <ele>155.4</ele>
        <time>2026-03-22T09:35:21Z</time>
      </trkpt>
      <trkpt lat="44.46382" lon="1.53246">
        <ele>155.6</ele>
        <time>2026-03-22T09:35:22Z</time>
      </trkpt>
      <trkpt lat="44.4638" lon="1.53248">
        <ele>156</ele>
        <time>2026-03-22T09:35:23Z</time>
      </trkpt>
      <trkpt lat="44.46378" lon="1.53251">
        <ele>156.4</ele>
        <time>2026-03-22T09:35:24Z</time>
      </trkpt>
      <trkpt lat="44.46377" lon="1.53254">
        <ele>156.8</ele>
        <time>2026-03-22T09:35:25Z</time>
      </trkpt>
      <trkpt lat="44.46375" lon="1.53257">
        <ele>157</ele>
        <time>2026-03-22T09:35:26Z</time>
      </trkpt>
      <trkpt lat="44.46373" lon="1.5326">
        <ele>157.2</ele>
        <time>2026-03-22T09:35:27Z</time>
      </trkpt>
      <trkpt lat="44.46372" lon="1.53262">
        <ele>157.8</ele>
        <time>2026-03-22T09:35:28Z</time>
      </trkpt>
      <trkpt lat="44.46369" lon="1.53265">
        <ele>158.2</ele>
        <time>2026-03-22T09:35:29Z</time>
      </trkpt>
      <trkpt lat="44.46367" lon="1.53267">
        <ele>158.8</ele>
        <time>2026-03-22T09:35:30Z</time>
      </trkpt>
      <trkpt lat="44.46365" lon="1.53269">
        <ele>159</ele>
        <time>2026-03-22T09:35:31Z</time>
      </trkpt>
      <trkpt lat="44.46363" lon="1.53272">
        <ele>159.2</ele>
        <time>2026-03-22T09:35:32Z</time>
      </trkpt>
      <trkpt lat="44.46361" lon="1.53274">
        <ele>159.8</ele>
        <time>2026-03-22T09:35:33Z</time>
      </trkpt>
      <trkpt lat="44.46359" lon="1.53276">
        <ele>160</ele>
        <time>2026-03-22T09:35:34Z</time>
      </trkpt>
      <trkpt lat="44.46357" lon="1.53278">
        <ele>160.2</ele>
        <time>2026-03-22T09:35:35Z</time>
      </trkpt>
      <trkpt lat="44.46354" lon="1.5328">
        <ele>160.6</ele>
        <time>2026-03-22T09:35:36Z</time>
      </trkpt>
      <trkpt lat="44.46352" lon="1.53283">
        <ele>161</ele>
        <time>2026-03-22T09:35:37Z</time>
      </trkpt>
      <trkpt lat="44.4635" lon="1.53285">
        <ele>161.4</ele>
        <time>2026-03-22T09:35:38Z</time>
      </trkpt>
      <trkpt lat="44.46348" lon="1.53287">
        <ele>161.4</ele>
        <time>2026-03-22T09:35:39Z</time>
      </trkpt>
      <trkpt lat="44.46345" lon="1.53289">
        <ele>161.6</ele>
        <time>2026-03-22T09:35:40Z</time>
      </trkpt>
      <trkpt lat="44.46344" lon="1.53292">
        <ele>161.8</ele>
        <time>2026-03-22T09:35:41Z</time>
      </trkpt>
      <trkpt lat="44.46342" lon="1.53294">
        <ele>162</ele>
        <time>2026-03-22T09:35:42Z</time>
      </trkpt>
      <trkpt lat="44.4634" lon="1.53298">
        <ele>162.4</ele>
        <time>2026-03-22T09:35:43Z</time>
      </trkpt>
      <trkpt lat="44.46338" lon="1.53301">
        <ele>162.8</ele>
        <time>2026-03-22T09:35:44Z</time>
      </trkpt>
      <trkpt lat="44.46337" lon="1.53304">
        <ele>163</ele>
        <time>2026-03-22T09:35:45Z</time>
      </trkpt>
      <trkpt lat="44.46335" lon="1.53306">
        <ele>163.2</ele>
        <time>2026-03-22T09:35:46Z</time>
      </trkpt>
      <trkpt lat="44.46333" lon="1.53308">
        <ele>163.4</ele>
        <time>2026-03-22T09:35:47Z</time>
      </trkpt>
      <trkpt lat="44.46331" lon="1.5331">
        <ele>163.6</ele>
        <time>2026-03-22T09:35:48Z</time>
      </trkpt>
      <trkpt lat="44.46329" lon="1.53313">
        <ele>163.6</ele>
        <time>2026-03-22T09:35:49Z</time>
      </trkpt>
      <trkpt lat="44.46328" lon="1.53316">
        <ele>163.8</ele>
        <time>2026-03-22T09:35:50Z</time>
      </trkpt>
      <trkpt lat="44.46325" lon="1.53319">
        <ele>164</ele>
        <time>2026-03-22T09:35:51Z</time>
      </trkpt>
      <trkpt lat="44.46323" lon="1.53321">
        <ele>164.2</ele>
        <time>2026-03-22T09:35:52Z</time>
      </trkpt>
      <trkpt lat="44.4632" lon="1.53324">
        <ele>164.6</ele>
        <time>2026-03-22T09:35:53Z</time>
      </trkpt>
      <trkpt lat="44.46318" lon="1.53327">
        <ele>164.8</ele>
        <time>2026-03-22T09:35:54Z</time>
      </trkpt>
      <trkpt lat="44.46315" lon="1.5333">
        <ele>165</ele>
        <time>2026-03-22T09:35:55Z</time>
      </trkpt>
      <trkpt lat="44.46313" lon="1.53332">
        <ele>165.2</ele>
        <time>2026-03-22T09:35:56Z</time>
      </trkpt>
      <trkpt lat="44.46311" lon="1.53336">
        <ele>165.4</ele>
        <time>2026-03-22T09:35:57Z</time>
      </trkpt>
      <trkpt lat="44.46308" lon="1.53338">
        <ele>165.6</ele>
        <time>2026-03-22T09:35:58Z</time>
      </trkpt>
      <trkpt lat="44.46306" lon="1.53341">
        <ele>165.8</ele>
        <time>2026-03-22T09:35:59Z</time>
      </trkpt>
      <trkpt lat="44.46304" lon="1.53343">
        <ele>166</ele>
        <time>2026-03-22T09:36:00Z</time>
      </trkpt>
      <trkpt lat="44.46301" lon="1.53345">
        <ele>166.4</ele>
        <time>2026-03-22T09:36:01Z</time>
      </trkpt>
      <trkpt lat="44.46298" lon="1.53348">
        <ele>166.6</ele>
        <time>2026-03-22T09:36:02Z</time>
      </trkpt>
      <trkpt lat="44.46296" lon="1.5335">
        <ele>167</ele>
        <time>2026-03-22T09:36:03Z</time>
      </trkpt>
      <trkpt lat="44.46293" lon="1.53352">
        <ele>167.2</ele>
        <time>2026-03-22T09:36:04Z</time>
      </trkpt>
      <trkpt lat="44.46291" lon="1.53355">
        <ele>167.2</ele>
        <time>2026-03-22T09:36:05Z</time>
      </trkpt>
      <trkpt lat="44.46289" lon="1.53357">
        <ele>167.4</ele>
        <time>2026-03-22T09:36:06Z</time>
      </trkpt>
      <trkpt lat="44.46287" lon="1.5336">
        <ele>167.6</ele>
        <time>2026-03-22T09:36:07Z</time>
      </trkpt>
      <trkpt lat="44.46285" lon="1.53362">
        <ele>167.8</ele>
        <time>2026-03-22T09:36:08Z</time>
      </trkpt>
      <trkpt lat="44.46282" lon="1.53364">
        <ele>168</ele>
        <time>2026-03-22T09:36:09Z</time>
      </trkpt>
      <trkpt lat="44.46279" lon="1.53367">
        <ele>168.2</ele>
        <time>2026-03-22T09:36:10Z</time>
      </trkpt>
      <trkpt lat="44.46277" lon="1.53368">
        <ele>168.4</ele>
        <time>2026-03-22T09:36:11Z</time>
      </trkpt>
      <trkpt lat="44.46274" lon="1.53371">
        <ele>168.6</ele>
        <time>2026-03-22T09:36:12Z</time>
      </trkpt>
      <trkpt lat="44.46271" lon="1.53373">
        <ele>169</ele>
        <time>2026-03-22T09:36:13Z</time>
      </trkpt>
      <trkpt lat="44.46268" lon="1.53374">
        <ele>169.2</ele>
        <time>2026-03-22T09:36:14Z</time>
      </trkpt>
      <trkpt lat="44.46266" lon="1.53376">
        <ele>169.6</ele>
        <time>2026-03-22T09:36:15Z</time>
      </trkpt>
      <trkpt lat="44.46264" lon="1.53379">
        <ele>169.6</ele>
        <time>2026-03-22T09:36:16Z</time>
      </trkpt>
      <trkpt lat="44.46261" lon="1.53382">
        <ele>170.2</ele>
        <time>2026-03-22T09:36:17Z</time>
      </trkpt>
      <trkpt lat="44.46259" lon="1.53383">
        <ele>170.6</ele>
        <time>2026-03-22T09:36:18Z</time>
      </trkpt>
      <trkpt lat="44.46257" lon="1.53386">
        <ele>170.8</ele>
        <time>2026-03-22T09:36:19Z</time>
      </trkpt>
      <trkpt lat="44.46255" lon="1.53388">
        <ele>171</ele>
        <time>2026-03-22T09:36:20Z</time>
      </trkpt>
      <trkpt lat="44.46253" lon="1.53391">
        <ele>171.2</ele>
        <time>2026-03-22T09:36:21Z</time>
      </trkpt>
      <trkpt lat="44.4625" lon="1.53394">
        <ele>171.4</ele>
        <time>2026-03-22T09:36:22Z</time>
      </trkpt>
      <trkpt lat="44.46248" lon="1.53396">
        <ele>171.6</ele>
        <time>2026-03-22T09:36:23Z</time>
      </trkpt>
      <trkpt lat="44.46245" lon="1.53399">
        <ele>172.2</ele>
        <time>2026-03-22T09:36:24Z</time>
      </trkpt>
      <trkpt lat="44.46243" lon="1.53401">
        <ele>172.4</ele>
        <time>2026-03-22T09:36:25Z</time>
      </trkpt>
      <trkpt lat="44.46241" lon="1.53404">
        <ele>172.8</ele>
        <time>2026-03-22T09:36:26Z</time>
      </trkpt>
      <trkpt lat="44.46238" lon="1.53406">
        <ele>173</ele>
        <time>2026-03-22T09:36:27Z</time>
      </trkpt>
      <trkpt lat="44.46236" lon="1.53409">
        <ele>173.2</ele>
        <time>2026-03-22T09:36:28Z</time>
      </trkpt>
      <trkpt lat="44.46234" lon="1.53411">
        <ele>173.4</ele>
        <time>2026-03-22T09:36:29Z</time>
      </trkpt>
      <trkpt lat="44.46231" lon="1.53414">
        <ele>173.6</ele>
        <time>2026-03-22T09:36:30Z</time>
      </trkpt>
      <trkpt lat="44.46228" lon="1.53416">
        <ele>174</ele>
        <time>2026-03-22T09:36:31Z</time>
      </trkpt>
      <trkpt lat="44.46226" lon="1.53419">
        <ele>174.2</ele>
        <time>2026-03-22T09:36:32Z</time>
      </trkpt>
      <trkpt lat="44.46223" lon="1.53421">
        <ele>174.4</ele>
        <time>2026-03-22T09:36:33Z</time>
      </trkpt>
      <trkpt lat="44.4622" lon="1.53423">
        <ele>174.6</ele>
        <time>2026-03-22T09:36:34Z</time>
      </trkpt>
      <trkpt lat="44.46218" lon="1.53426">
        <ele>175</ele>
        <time>2026-03-22T09:36:35Z</time>
      </trkpt>
      <trkpt lat="44.46216" lon="1.53428">
        <ele>175.2</ele>
        <time>2026-03-22T09:36:36Z</time>
      </trkpt>
      <trkpt lat="44.46214" lon="1.53431">
        <ele>175.6</ele>
        <time>2026-03-22T09:36:37Z</time>
      </trkpt>
      <trkpt lat="44.46212" lon="1.53433">
        <ele>175.8</ele>
        <time>2026-03-22T09:36:38Z</time>
      </trkpt>
      <trkpt lat="44.4621" lon="1.53436">
        <ele>176</ele>
        <time>2026-03-22T09:36:39Z</time>
      </trkpt>
      <trkpt lat="44.46206" lon="1.53439">
        <ele>176.4</ele>
        <time>2026-03-22T09:36:40Z</time>
      </trkpt>
      <trkpt lat="44.46204" lon="1.53441">
        <ele>176.6</ele>
        <time>2026-03-22T09:36:41Z</time>
      </trkpt>
      <trkpt lat="44.46202" lon="1.53443">
        <ele>176.8</ele>
        <time>2026-03-22T09:36:42Z</time>
      </trkpt>
      <trkpt lat="44.46199" lon="1.53446">
        <ele>177.2</ele>
        <time>2026-03-22T09:36:43Z</time>
      </trkpt>
      <trkpt lat="44.46196" lon="1.53449">
        <ele>177.4</ele>
        <time>2026-03-22T09:36:44Z</time>
      </trkpt>
      <trkpt lat="44.46194" lon="1.53451">
        <ele>177.6</ele>
        <time>2026-03-22T09:36:45Z</time>
      </trkpt>
      <trkpt lat="44.46191" lon="1.53453">
        <ele>178</ele>
        <time>2026-03-22T09:36:46Z</time>
      </trkpt>
      <trkpt lat="44.46189" lon="1.53455">
        <ele>178.2</ele>
        <time>2026-03-22T09:36:47Z</time>
      </trkpt>
      <trkpt lat="44.46186" lon="1.53458">
        <ele>178.6</ele>
        <time>2026-03-22T09:36:48Z</time>
      </trkpt>
      <trkpt lat="44.46184" lon="1.53461">
        <ele>178.8</ele>
        <time>2026-03-22T09:36:49Z</time>
      </trkpt>
      <trkpt lat="44.4618" lon="1.53464">
        <ele>179.2</ele>
        <time>2026-03-22T09:36:50Z</time>
      </trkpt>
      <trkpt lat="44.46178" lon="1.53467">
        <ele>179.2</ele>
        <time>2026-03-22T09:36:51Z</time>
      </trkpt>
      <trkpt lat="44.46176" lon="1.5347">
        <ele>179.4</ele>
        <time>2026-03-22T09:36:52Z</time>
      </trkpt>
      <trkpt lat="44.46173" lon="1.53473">
        <ele>179.8</ele>
        <time>2026-03-22T09:36:53Z</time>
      </trkpt>
      <trkpt lat="44.4617" lon="1.53475">
        <ele>180</ele>
        <time>2026-03-22T09:36:54Z</time>
      </trkpt>
      <trkpt lat="44.46168" lon="1.53478">
        <ele>180.2</ele>
        <time>2026-03-22T09:36:55Z</time>
      </trkpt>
      <trkpt lat="44.46166" lon="1.53481">
        <ele>180.6</ele>
        <time>2026-03-22T09:36:56Z</time>
      </trkpt>
      <trkpt lat="44.46164" lon="1.53485">
        <ele>180.8</ele>
        <time>2026-03-22T09:36:57Z</time>
      </trkpt>
      <trkpt lat="44.46162" lon="1.53488">
        <ele>181.2</ele>
        <time>2026-03-22T09:36:58Z</time>
      </trkpt>
      <trkpt lat="44.4616" lon="1.5349">
        <ele>181.6</ele>
        <time>2026-03-22T09:36:59Z</time>
      </trkpt>
      <trkpt lat="44.46157" lon="1.53494">
        <ele>182</ele>
        <time>2026-03-22T09:37:00Z</time>
      </trkpt>
      <trkpt lat="44.46155" lon="1.53496">
        <ele>182.2</ele>
        <time>2026-03-22T09:37:01Z</time>
      </trkpt>
      <trkpt lat="44.46152" lon="1.535">
        <ele>182.4</ele>
        <time>2026-03-22T09:37:02Z</time>
      </trkpt>
      <trkpt lat="44.4615" lon="1.53502">
        <ele>183</ele>
        <time>2026-03-22T09:37:03Z</time>
      </trkpt>
      <trkpt lat="44.46148" lon="1.53506">
        <ele>183.4</ele>
        <time>2026-03-22T09:37:04Z</time>
      </trkpt>
      <trkpt lat="44.46147" lon="1.53509">
        <ele>183.8</ele>
        <time>2026-03-22T09:37:05Z</time>
      </trkpt>
      <trkpt lat="44.46145" lon="1.53514">
        <ele>184</ele>
        <time>2026-03-22T09:37:06Z</time>
      </trkpt>
      <trkpt lat="44.46143" lon="1.53516">
        <ele>184.2</ele>
        <time>2026-03-22T09:37:07Z</time>
      </trkpt>
      <trkpt lat="44.46142" lon="1.5352">
        <ele>184.4</ele>
        <time>2026-03-22T09:37:08Z</time>
      </trkpt>
      <trkpt lat="44.4614" lon="1.53523">
        <ele>184.4</ele>
        <time>2026-03-22T09:37:09Z</time>
      </trkpt>
      <trkpt lat="44.46138" lon="1.53526">
        <ele>184.6</ele>
        <time>2026-03-22T09:37:10Z</time>
      </trkpt>
      <trkpt lat="44.46136" lon="1.53529">
        <ele>185</ele>
        <time>2026-03-22T09:37:11Z</time>
      </trkpt>
      <trkpt lat="44.46134" lon="1.5353">
        <ele>185.2</ele>
        <time>2026-03-22T09:37:12Z</time>
      </trkpt>
      <trkpt lat="44.46131" lon="1.53532">
        <ele>186</ele>
        <time>2026-03-22T09:37:13Z</time>
      </trkpt>
      <trkpt lat="44.46128" lon="1.53531">
        <ele>186.4</ele>
        <time>2026-03-22T09:37:14Z</time>
      </trkpt>
      <trkpt lat="44.46125" lon="1.5353">
        <ele>187</ele>
        <time>2026-03-22T09:37:15Z</time>
      </trkpt>
      <trkpt lat="44.46122" lon="1.53528">
        <ele>187.4</ele>
        <time>2026-03-22T09:37:16Z</time>
      </trkpt>
      <trkpt lat="44.46118" lon="1.53526">
        <ele>187.8</ele>
        <time>2026-03-22T09:37:17Z</time>
      </trkpt>
      <trkpt lat="44.46116" lon="1.53525">
        <ele>188.4</ele>
        <time>2026-03-22T09:37:18Z</time>
      </trkpt>
      <trkpt lat="44.46113" lon="1.53524">
        <ele>189</ele>
        <time>2026-03-22T09:37:19Z</time>
      </trkpt>
      <trkpt lat="44.46111" lon="1.53522">
        <ele>189.6</ele>
        <time>2026-03-22T09:37:20Z</time>
      </trkpt>
      <trkpt lat="44.46108" lon="1.5352">
        <ele>190.2</ele>
        <time>2026-03-22T09:37:21Z</time>
      </trkpt>
      <trkpt lat="44.46105" lon="1.53519">
        <ele>190.6</ele>
        <time>2026-03-22T09:37:22Z</time>
      </trkpt>
      <trkpt lat="44.46102" lon="1.53517">
        <ele>190.8</ele>
        <time>2026-03-22T09:37:23Z</time>
      </trkpt>
      <trkpt lat="44.461" lon="1.53515">
        <ele>191</ele>
        <time>2026-03-22T09:37:24Z</time>
      </trkpt>
      <trkpt lat="44.46098" lon="1.53514">
        <ele>191.2</ele>
        <time>2026-03-22T09:37:25Z</time>
      </trkpt>
      <trkpt lat="44.46095" lon="1.53512">
        <ele>191.4</ele>
        <time>2026-03-22T09:37:26Z</time>
      </trkpt>
      <trkpt lat="44.46092" lon="1.5351">
        <ele>191.6</ele>
        <time>2026-03-22T09:37:27Z</time>
      </trkpt>
      <trkpt lat="44.4609" lon="1.53508">
        <ele>191.8</ele>
        <time>2026-03-22T09:37:28Z</time>
      </trkpt>
      <trkpt lat="44.46088" lon="1.53507">
        <ele>192.2</ele>
        <time>2026-03-22T09:37:29Z</time>
      </trkpt>
      <trkpt lat="44.46086" lon="1.53505">
        <ele>192.4</ele>
        <time>2026-03-22T09:37:30Z</time>
      </trkpt>
      <trkpt lat="44.46083" lon="1.53502">
        <ele>192.8</ele>
        <time>2026-03-22T09:37:31Z</time>
      </trkpt>
      <trkpt lat="44.4608" lon="1.53501">
        <ele>193.2</ele>
        <time>2026-03-22T09:37:32Z</time>
      </trkpt>
      <trkpt lat="44.46078" lon="1.53499">
        <ele>193.4</ele>
        <time>2026-03-22T09:37:33Z</time>
      </trkpt>
      <trkpt lat="44.46076" lon="1.53498">
        <ele>193.8</ele>
        <time>2026-03-22T09:37:34Z</time>
      </trkpt>
      <trkpt lat="44.46075" lon="1.53496">
        <ele>194.2</ele>
        <time>2026-03-22T09:37:35Z</time>
      </trkpt>
      <trkpt lat="44.46073" lon="1.53494">
        <ele>194.6</ele>
        <time>2026-03-22T09:37:36Z</time>
      </trkpt>
      <trkpt lat="44.4607" lon="1.53493">
        <ele>195.2</ele>
        <time>2026-03-22T09:37:37Z</time>
      </trkpt>
      <trkpt lat="44.46068" lon="1.53492">
        <ele>195.6</ele>
        <time>2026-03-22T09:37:38Z</time>
      </trkpt>
      <trkpt lat="44.46066" lon="1.5349">
        <ele>196</ele>
        <time>2026-03-22T09:37:39Z</time>
      </trkpt>
      <trkpt lat="44.46063" lon="1.53488">
        <ele>196.8</ele>
        <time>2026-03-22T09:37:40Z</time>
      </trkpt>
      <trkpt lat="44.46061" lon="1.53487">
        <ele>197.2</ele>
        <time>2026-03-22T09:37:41Z</time>
      </trkpt>
      <trkpt lat="44.46058" lon="1.53484">
        <ele>197.6</ele>
        <time>2026-03-22T09:37:42Z</time>
      </trkpt>
      <trkpt lat="44.46055" lon="1.53482">
        <ele>198.2</ele>
        <time>2026-03-22T09:37:43Z</time>
      </trkpt>
      <trkpt lat="44.46053" lon="1.5348">
        <ele>198.6</ele>
        <time>2026-03-22T09:37:44Z</time>
      </trkpt>
      <trkpt lat="44.46051" lon="1.53478">
        <ele>199</ele>
        <time>2026-03-22T09:37:45Z</time>
      </trkpt>
      <trkpt lat="44.46049" lon="1.53475">
        <ele>199.4</ele>
        <time>2026-03-22T09:37:46Z</time>
      </trkpt>
      <trkpt lat="44.46045" lon="1.53473">
        <ele>199.8</ele>
        <time>2026-03-22T09:37:47Z</time>
      </trkpt>
      <trkpt lat="44.46043" lon="1.53471">
        <ele>200.4</ele>
        <time>2026-03-22T09:37:48Z</time>
      </trkpt>
      <trkpt lat="44.4604" lon="1.53468">
        <ele>201</ele>
        <time>2026-03-22T09:37:49Z</time>
      </trkpt>
      <trkpt lat="44.46039" lon="1.53464">
        <ele>201.4</ele>
        <time>2026-03-22T09:37:50Z</time>
      </trkpt>
      <trkpt lat="44.46038" lon="1.5346">
        <ele>202</ele>
        <time>2026-03-22T09:37:51Z</time>
      </trkpt>
      <trkpt lat="44.46039" lon="1.53455">
        <ele>202.2</ele>
        <time>2026-03-22T09:37:52Z</time>
      </trkpt>
      <trkpt lat="44.46039" lon="1.53449">
        <ele>202.8</ele>
        <time>2026-03-22T09:37:53Z</time>
      </trkpt>
      <trkpt lat="44.4604" lon="1.53443">
        <ele>203</ele>
        <time>2026-03-22T09:37:54Z</time>
      </trkpt>
      <trkpt lat="44.46041" lon="1.53437">
        <ele>203.4</ele>
        <time>2026-03-22T09:37:55Z</time>
      </trkpt>
      <trkpt lat="44.46041" lon="1.5343">
        <ele>203.6</ele>
        <time>2026-03-22T09:37:56Z</time>
      </trkpt>
      <trkpt lat="44.46041" lon="1.53423">
        <ele>204</ele>
        <time>2026-03-22T09:37:57Z</time>
      </trkpt>
      <trkpt lat="44.46041" lon="1.53417">
        <ele>204.2</ele>
        <time>2026-03-22T09:37:58Z</time>
      </trkpt>
      <trkpt lat="44.46041" lon="1.5341">
        <ele>204.8</ele>
        <time>2026-03-22T09:37:59Z</time>
      </trkpt>
      <trkpt lat="44.4604" lon="1.53403">
        <ele>205</ele>
        <time>2026-03-22T09:38:00Z</time>
      </trkpt>
      <trkpt lat="44.4604" lon="1.53396">
        <ele>205</ele>
        <time>2026-03-22T09:38:01Z</time>
      </trkpt>
      <trkpt lat="44.46039" lon="1.53389">
        <ele>205.2</ele>
        <time>2026-03-22T09:38:02Z</time>
      </trkpt>
      <trkpt lat="44.46038" lon="1.53381">
        <ele>205.2</ele>
        <time>2026-03-22T09:38:03Z</time>
      </trkpt>
      <trkpt lat="44.46038" lon="1.53374">
        <ele>205.4</ele>
        <time>2026-03-22T09:38:04Z</time>
      </trkpt>
      <trkpt lat="44.46037" lon="1.53367">
        <ele>205.6</ele>
        <time>2026-03-22T09:38:05Z</time>
      </trkpt>
      <trkpt lat="44.46036" lon="1.53359">
        <ele>205.8</ele>
        <time>2026-03-22T09:38:06Z</time>
      </trkpt>
      <trkpt lat="44.46036" lon="1.53352">
        <ele>206</ele>
        <time>2026-03-22T09:38:07Z</time>
      </trkpt>
      <trkpt lat="44.46036" lon="1.53346">
        <ele>206</ele>
        <time>2026-03-22T09:38:08Z</time>
      </trkpt>
      <trkpt lat="44.46037" lon="1.53338">
        <ele>206.4</ele>
        <time>2026-03-22T09:38:09Z</time>
      </trkpt>
      <trkpt lat="44.46038" lon="1.53332">
        <ele>206.4</ele>
        <time>2026-03-22T09:38:10Z</time>
      </trkpt>
      <trkpt lat="44.46038" lon="1.53324">
        <ele>206.6</ele>
        <time>2026-03-22T09:38:11Z</time>
      </trkpt>
      <trkpt lat="44.4604" lon="1.53317">
        <ele>207</ele>
        <time>2026-03-22T09:38:12Z</time>
      </trkpt>
      <trkpt lat="44.46042" lon="1.53309">
        <ele>207.2</ele>
        <time>2026-03-22T09:38:13Z</time>
      </trkpt>
      <trkpt lat="44.46045" lon="1.533">
        <ele>207.4</ele>
        <time>2026-03-22T09:38:14Z</time>
      </trkpt>
      <trkpt lat="44.46047" lon="1.53294">
        <ele>207.6</ele>
        <time>2026-03-22T09:38:15Z</time>
      </trkpt>
      <trkpt lat="44.46049" lon="1.53287">
        <ele>207.6</ele>
        <time>2026-03-22T09:38:16Z</time>
      </trkpt>
      <trkpt lat="44.46051" lon="1.53279">
        <ele>207.6</ele>
        <time>2026-03-22T09:38:17Z</time>
      </trkpt>
      <trkpt lat="44.46052" lon="1.53272">
        <ele>207.6</ele>
        <time>2026-03-22T09:38:18Z</time>
      </trkpt>
      <trkpt lat="44.46053" lon="1.53264">
        <ele>207.6</ele>
        <time>2026-03-22T09:38:19Z</time>
      </trkpt>
      <trkpt lat="44.46054" lon="1.53256">
        <ele>207.6</ele>
        <time>2026-03-22T09:38:20Z</time>
      </trkpt>
      <trkpt lat="44.46055" lon="1.53248">
        <ele>207.8</ele>
        <time>2026-03-22T09:38:21Z</time>
      </trkpt>
      <trkpt lat="44.46056" lon="1.53241">
        <ele>207.8</ele>
        <time>2026-03-22T09:38:22Z</time>
      </trkpt>
      <trkpt lat="44.46056" lon="1.53234">
        <ele>207.8</ele>
        <time>2026-03-22T09:38:23Z</time>
      </trkpt>
      <trkpt lat="44.46056" lon="1.53227">
        <ele>207.8</ele>
        <time>2026-03-22T09:38:24Z</time>
      </trkpt>
      <trkpt lat="44.46055" lon="1.53219">
        <ele>207.8</ele>
        <time>2026-03-22T09:38:25Z</time>
      </trkpt>
      <trkpt lat="44.46053" lon="1.53212">
        <ele>207.8</ele>
        <time>2026-03-22T09:38:26Z</time>
      </trkpt>
      <trkpt lat="44.46052" lon="1.53203">
        <ele>207.8</ele>
        <time>2026-03-22T09:38:27Z</time>
      </trkpt>
      <trkpt lat="44.46051" lon="1.53197">
        <ele>208</ele>
        <time>2026-03-22T09:38:28Z</time>
      </trkpt>
      <trkpt lat="44.4605" lon="1.5319">
        <ele>208</ele>
        <time>2026-03-22T09:38:29Z</time>
      </trkpt>
      <trkpt lat="44.46049" lon="1.53182">
        <ele>208.2</ele>
        <time>2026-03-22T09:38:30Z</time>
      </trkpt>
      <trkpt lat="44.46048" lon="1.53174">
        <ele>208.2</ele>
        <time>2026-03-22T09:38:31Z</time>
      </trkpt>
      <trkpt lat="44.46047" lon="1.53166">
        <ele>208.2</ele>
        <time>2026-03-22T09:38:32Z</time>
      </trkpt>
      <trkpt lat="44.46046" lon="1.53158">
        <ele>208.2</ele>
        <time>2026-03-22T09:38:33Z</time>
      </trkpt>
      <trkpt lat="44.46046" lon="1.53149">
        <ele>208.4</ele>
        <time>2026-03-22T09:38:34Z</time>
      </trkpt>
      <trkpt lat="44.46046" lon="1.53141">
        <ele>208.4</ele>
        <time>2026-03-22T09:38:35Z</time>
      </trkpt>
      <trkpt lat="44.46046" lon="1.53133">
        <ele>208.6</ele>
        <time>2026-03-22T09:38:36Z</time>
      </trkpt>
      <trkpt lat="44.46045" lon="1.53125">
        <ele>208.6</ele>
        <time>2026-03-22T09:38:37Z</time>
      </trkpt>
      <trkpt lat="44.46045" lon="1.53117">
        <ele>208.6</ele>
        <time>2026-03-22T09:38:38Z</time>
      </trkpt>
      <trkpt lat="44.46044" lon="1.53099">
        <ele>208.6</ele>
        <time>2026-03-22T09:38:40Z</time>
      </trkpt>
      <trkpt lat="44.46035" lon="1.53033">
        <ele>207.6</ele>
        <time>2026-03-22T09:38:48Z</time>
      </trkpt>
      <trkpt lat="44.46034" lon="1.53025">
        <ele>207.4</ele>
        <time>2026-03-22T09:38:49Z</time>
      </trkpt>
      <trkpt lat="44.46029" lon="1.53">
        <ele>207.2</ele>
        <time>2026-03-22T09:38:52Z</time>
      </trkpt>
      <trkpt lat="44.46027" lon="1.52994">
        <ele>207</ele>
        <time>2026-03-22T09:38:53Z</time>
      </trkpt>
      <trkpt lat="44.46008" lon="1.52953">
        <ele>206.6</ele>
        <time>2026-03-22T09:38:59Z</time>
      </trkpt>
      <trkpt lat="44.45981" lon="1.5291">
        <ele>206.2</ele>
        <time>2026-03-22T09:39:06Z</time>
      </trkpt>
      <trkpt lat="44.45967" lon="1.52893">
        <ele>206.2</ele>
        <time>2026-03-22T09:39:09Z</time>
      </trkpt>
      <trkpt lat="44.45958" lon="1.52879">
        <ele>206.2</ele>
        <time>2026-03-22T09:39:11Z</time>
      </trkpt>
      <trkpt lat="44.45936" lon="1.52847">
        <ele>206</ele>
        <time>2026-03-22T09:39:16Z</time>
      </trkpt>
      <trkpt lat="44.45927" lon="1.52833">
        <ele>205.6</ele>
        <time>2026-03-22T09:39:18Z</time>
      </trkpt>
      <trkpt lat="44.45923" lon="1.52824">
        <ele>205.2</ele>
        <time>2026-03-22T09:39:19Z</time>
      </trkpt>
      <trkpt lat="44.45914" lon="1.52805">
        <ele>204.8</ele>
        <time>2026-03-22T09:39:21Z</time>
      </trkpt>
      <trkpt lat="44.45903" lon="1.52785">
        <ele>204</ele>
        <time>2026-03-22T09:39:23Z</time>
      </trkpt>
      <trkpt lat="44.45897" lon="1.52776">
        <ele>203.8</ele>
        <time>2026-03-22T09:39:24Z</time>
      </trkpt>
      <trkpt lat="44.45886" lon="1.5276">
        <ele>202.4</ele>
        <time>2026-03-22T09:39:26Z</time>
      </trkpt>
      <trkpt lat="44.45876" lon="1.5274">
        <ele>201.2</ele>
        <time>2026-03-22T09:39:28Z</time>
      </trkpt>
      <trkpt lat="44.45873" lon="1.52729">
        <ele>200.4</ele>
        <time>2026-03-22T09:39:29Z</time>
      </trkpt>
      <trkpt lat="44.4587" lon="1.52722">
        <ele>200.4</ele>
        <time>2026-03-22T09:39:30Z</time>
      </trkpt>
      <trkpt lat="44.45867" lon="1.52719">
        <ele>198.8</ele>
        <time>2026-03-22T09:39:31Z</time>
      </trkpt>
      <trkpt lat="44.45863" lon="1.52717">
        <ele>197</ele>
        <time>2026-03-22T09:39:32Z</time>
      </trkpt>
      <trkpt lat="44.45859" lon="1.52718">
        <ele>196</ele>
        <time>2026-03-22T09:39:33Z</time>
      </trkpt>
      <trkpt lat="44.45856" lon="1.52721">
        <ele>194.4</ele>
        <time>2026-03-22T09:39:34Z</time>
      </trkpt>
      <trkpt lat="44.45852" lon="1.52726">
        <ele>193</ele>
        <time>2026-03-22T09:39:35Z</time>
      </trkpt>
      <trkpt lat="44.45846" lon="1.52731">
        <ele>191.6</ele>
        <time>2026-03-22T09:39:36Z</time>
      </trkpt>
      <trkpt lat="44.45843" lon="1.52735">
        <ele>190.4</ele>
        <time>2026-03-22T09:39:37Z</time>
      </trkpt>
      <trkpt lat="44.45839" lon="1.52739">
        <ele>189.4</ele>
        <time>2026-03-22T09:39:38Z</time>
      </trkpt>
      <trkpt lat="44.45836" lon="1.5274">
        <ele>188.6</ele>
        <time>2026-03-22T09:39:39Z</time>
      </trkpt>
      <trkpt lat="44.45834" lon="1.52738">
        <ele>188</ele>
        <time>2026-03-22T09:39:40Z</time>
      </trkpt>
      <trkpt lat="44.45831" lon="1.52733">
        <ele>187.4</ele>
        <time>2026-03-22T09:39:41Z</time>
      </trkpt>
      <trkpt lat="44.45824" lon="1.52719">
        <ele>186.8</ele>
        <time>2026-03-22T09:39:43Z</time>
      </trkpt>
      <trkpt lat="44.45821" lon="1.5271">
        <ele>186.6</ele>
        <time>2026-03-22T09:39:44Z</time>
      </trkpt>
      <trkpt lat="44.45811" lon="1.52689">
        <ele>186</ele>
        <time>2026-03-22T09:39:46Z</time>
      </trkpt>
      <trkpt lat="44.45801" lon="1.52669">
        <ele>185.4</ele>
        <time>2026-03-22T09:39:48Z</time>
      </trkpt>
      <trkpt lat="44.45795" lon="1.52661">
        <ele>184.8</ele>
        <time>2026-03-22T09:39:49Z</time>
      </trkpt>
      <trkpt lat="44.45783" lon="1.52647">
        <ele>183.8</ele>
        <time>2026-03-22T09:39:51Z</time>
      </trkpt>
      <trkpt lat="44.45779" lon="1.52643">
        <ele>182.2</ele>
        <time>2026-03-22T09:39:52Z</time>
      </trkpt>
      <trkpt lat="44.45773" lon="1.52638">
        <ele>181.2</ele>
        <time>2026-03-22T09:39:53Z</time>
      </trkpt>
      <trkpt lat="44.45766" lon="1.52633">
        <ele>180.2</ele>
        <time>2026-03-22T09:39:54Z</time>
      </trkpt>
      <trkpt lat="44.45761" lon="1.52628">
        <ele>179</ele>
        <time>2026-03-22T09:39:55Z</time>
      </trkpt>
      <trkpt lat="44.45756" lon="1.52623">
        <ele>177.8</ele>
        <time>2026-03-22T09:39:56Z</time>
      </trkpt>
      <trkpt lat="44.45753" lon="1.52619">
        <ele>177.2</ele>
        <time>2026-03-22T09:39:57Z</time>
      </trkpt>
      <trkpt lat="44.4575" lon="1.52618">
        <ele>176.4</ele>
        <time>2026-03-22T09:39:58Z</time>
      </trkpt>
      <trkpt lat="44.45749" lon="1.52621">
        <ele>175.6</ele>
        <time>2026-03-22T09:39:59Z</time>
      </trkpt>
      <trkpt lat="44.45749" lon="1.52625">
        <ele>174.6</ele>
        <time>2026-03-22T09:40:00Z</time>
      </trkpt>
      <trkpt lat="44.45754" lon="1.52638">
        <ele>173.4</ele>
        <time>2026-03-22T09:40:02Z</time>
      </trkpt>
      <trkpt lat="44.45757" lon="1.52646">
        <ele>173</ele>
        <time>2026-03-22T09:40:03Z</time>
      </trkpt>
      <trkpt lat="44.45762" lon="1.5266">
        <ele>172</ele>
        <time>2026-03-22T09:40:05Z</time>
      </trkpt>
      <trkpt lat="44.45765" lon="1.52668">
        <ele>171.4</ele>
        <time>2026-03-22T09:40:06Z</time>
      </trkpt>
      <trkpt lat="44.4577" lon="1.52686">
        <ele>171</ele>
        <time>2026-03-22T09:40:08Z</time>
      </trkpt>
      <trkpt lat="44.45779" lon="1.52719">
        <ele>170.2</ele>
        <time>2026-03-22T09:40:11Z</time>
      </trkpt>
      <trkpt lat="44.4578" lon="1.52731">
        <ele>170</ele>
        <time>2026-03-22T09:40:12Z</time>
      </trkpt>
      <trkpt lat="44.45778" lon="1.52738">
        <ele>170</ele>
        <time>2026-03-22T09:40:13Z</time>
      </trkpt>
      <trkpt lat="44.45774" lon="1.52746">
        <ele>169.6</ele>
        <time>2026-03-22T09:40:14Z</time>
      </trkpt>
      <trkpt lat="44.45769" lon="1.52753">
        <ele>169</ele>
        <time>2026-03-22T09:40:15Z</time>
      </trkpt>
      <trkpt lat="44.45762" lon="1.52758">
        <ele>168.2</ele>
        <time>2026-03-22T09:40:16Z</time>
      </trkpt>
      <trkpt lat="44.45756" lon="1.5276">
        <ele>166.4</ele>
        <time>2026-03-22T09:40:17Z</time>
      </trkpt>
      <trkpt lat="44.45748" lon="1.52761">
        <ele>165.8</ele>
        <time>2026-03-22T09:40:18Z</time>
      </trkpt>
      <trkpt lat="44.45743" lon="1.52759">
        <ele>165.2</ele>
        <time>2026-03-22T09:40:19Z</time>
      </trkpt>
      <trkpt lat="44.45738" lon="1.52756">
        <ele>164.8</ele>
        <time>2026-03-22T09:40:20Z</time>
      </trkpt>
      <trkpt lat="44.45733" lon="1.52752">
        <ele>164.8</ele>
        <time>2026-03-22T09:40:21Z</time>
      </trkpt>
      <trkpt lat="44.45727" lon="1.52747">
        <ele>164.6</ele>
        <time>2026-03-22T09:40:22Z</time>
      </trkpt>
      <trkpt lat="44.45724" lon="1.52741">
        <ele>164.6</ele>
        <time>2026-03-22T09:40:23Z</time>
      </trkpt>
      <trkpt lat="44.4572" lon="1.52734">
        <ele>164.4</ele>
        <time>2026-03-22T09:40:24Z</time>
      </trkpt>
      <trkpt lat="44.45706" lon="1.52713">
        <ele>164.2</ele>
        <time>2026-03-22T09:40:27Z</time>
      </trkpt>
      <trkpt lat="44.45702" lon="1.52706">
        <ele>164.2</ele>
        <time>2026-03-22T09:40:28Z</time>
      </trkpt>
      <trkpt lat="44.45694" lon="1.52692">
        <ele>164</ele>
        <time>2026-03-22T09:40:30Z</time>
      </trkpt>
      <trkpt lat="44.4569" lon="1.52684">
        <ele>164</ele>
        <time>2026-03-22T09:40:31Z</time>
      </trkpt>
      <trkpt lat="44.45687" lon="1.52678">
        <ele>163.8</ele>
        <time>2026-03-22T09:40:32Z</time>
      </trkpt>
      <trkpt lat="44.45679" lon="1.52665">
        <ele>163.6</ele>
        <time>2026-03-22T09:40:34Z</time>
      </trkpt>
      <trkpt lat="44.45674" lon="1.5266">
        <ele>163.4</ele>
        <time>2026-03-22T09:40:35Z</time>
      </trkpt>
      <trkpt lat="44.45666" lon="1.52654">
        <ele>163</ele>
        <time>2026-03-22T09:40:36Z</time>
      </trkpt>
      <trkpt lat="44.4566" lon="1.52649">
        <ele>162.4</ele>
        <time>2026-03-22T09:40:37Z</time>
      </trkpt>
      <trkpt lat="44.45655" lon="1.52645">
        <ele>161.8</ele>
        <time>2026-03-22T09:40:38Z</time>
      </trkpt>
      <trkpt lat="44.4565" lon="1.5264">
        <ele>160.4</ele>
        <time>2026-03-22T09:40:39Z</time>
      </trkpt>
      <trkpt lat="44.45645" lon="1.52634">
        <ele>159</ele>
        <time>2026-03-22T09:40:40Z</time>
      </trkpt>
      <trkpt lat="44.45642" lon="1.52632">
        <ele>157.8</ele>
        <time>2026-03-22T09:40:41Z</time>
      </trkpt>
      <trkpt lat="44.45637" lon="1.52631">
        <ele>157.2</ele>
        <time>2026-03-22T09:40:42Z</time>
      </trkpt>
      <trkpt lat="44.45632" lon="1.52631">
        <ele>156.6</ele>
        <time>2026-03-22T09:40:43Z</time>
      </trkpt>
      <trkpt lat="44.45627" lon="1.52632">
        <ele>156.4</ele>
        <time>2026-03-22T09:40:44Z</time>
      </trkpt>
      <trkpt lat="44.45619" lon="1.52634">
        <ele>155.8</ele>
        <time>2026-03-22T09:40:45Z</time>
      </trkpt>
      <trkpt lat="44.45612" lon="1.52634">
        <ele>154.8</ele>
        <time>2026-03-22T09:40:46Z</time>
      </trkpt>
      <trkpt lat="44.45605" lon="1.52635">
        <ele>153.2</ele>
        <time>2026-03-22T09:40:47Z</time>
      </trkpt>
      <trkpt lat="44.45599" lon="1.52638">
        <ele>152</ele>
        <time>2026-03-22T09:40:48Z</time>
      </trkpt>
      <trkpt lat="44.45593" lon="1.52643">
        <ele>151.2</ele>
        <time>2026-03-22T09:40:49Z</time>
      </trkpt>
      <trkpt lat="44.45588" lon="1.52647">
        <ele>150.8</ele>
        <time>2026-03-22T09:40:50Z</time>
      </trkpt>
      <trkpt lat="44.45582" lon="1.52654">
        <ele>150.4</ele>
        <time>2026-03-22T09:40:51Z</time>
      </trkpt>
      <trkpt lat="44.45578" lon="1.52661">
        <ele>150</ele>
        <time>2026-03-22T09:40:52Z</time>
      </trkpt>
      <trkpt lat="44.45575" lon="1.52668">
        <ele>149.8</ele>
        <time>2026-03-22T09:40:53Z</time>
      </trkpt>
      <trkpt lat="44.45571" lon="1.52675">
        <ele>149.6</ele>
        <time>2026-03-22T09:40:54Z</time>
      </trkpt>
      <trkpt lat="44.45566" lon="1.52679">
        <ele>149.6</ele>
        <time>2026-03-22T09:40:55Z</time>
      </trkpt>
      <trkpt lat="44.45562" lon="1.52681">
        <ele>149.4</ele>
        <time>2026-03-22T09:40:56Z</time>
      </trkpt>
      <trkpt lat="44.45557" lon="1.52679">
        <ele>149.4</ele>
        <time>2026-03-22T09:40:57Z</time>
      </trkpt>
      <trkpt lat="44.45546" lon="1.52674">
        <ele>149.2</ele>
        <time>2026-03-22T09:40:59Z</time>
      </trkpt>
      <trkpt lat="44.45542" lon="1.52672">
        <ele>149.2</ele>
        <time>2026-03-22T09:41:00Z</time>
      </trkpt>
      <trkpt lat="44.45537" lon="1.52667">
        <ele>149</ele>
        <time>2026-03-22T09:41:01Z</time>
      </trkpt>
      <trkpt lat="44.45533" lon="1.52664">
        <ele>149</ele>
        <time>2026-03-22T09:41:02Z</time>
      </trkpt>
      <trkpt lat="44.45528" lon="1.5266">
        <ele>149</ele>
        <time>2026-03-22T09:41:03Z</time>
      </trkpt>
      <trkpt lat="44.45523" lon="1.52659">
        <ele>149</ele>
        <time>2026-03-22T09:41:04Z</time>
      </trkpt>
      <trkpt lat="44.45518" lon="1.52659">
        <ele>149.2</ele>
        <time>2026-03-22T09:41:05Z</time>
      </trkpt>
      <trkpt lat="44.45513" lon="1.52659">
        <ele>149.2</ele>
        <time>2026-03-22T09:41:06Z</time>
      </trkpt>
      <trkpt lat="44.45509" lon="1.52659">
        <ele>149.2</ele>
        <time>2026-03-22T09:41:07Z</time>
      </trkpt>
      <trkpt lat="44.45504" lon="1.52659">
        <ele>149.8</ele>
        <time>2026-03-22T09:41:08Z</time>
      </trkpt>
      <trkpt lat="44.45499" lon="1.52656">
        <ele>150.2</ele>
        <time>2026-03-22T09:41:09Z</time>
      </trkpt>
      <trkpt lat="44.45496" lon="1.52652">
        <ele>150.6</ele>
        <time>2026-03-22T09:41:10Z</time>
      </trkpt>
      <trkpt lat="44.45494" lon="1.52646">
        <ele>150.8</ele>
        <time>2026-03-22T09:41:11Z</time>
      </trkpt>
      <trkpt lat="44.45492" lon="1.5264">
        <ele>150.8</ele>
        <time>2026-03-22T09:41:12Z</time>
      </trkpt>
      <trkpt lat="44.4549" lon="1.52633">
        <ele>151</ele>
        <time>2026-03-22T09:41:13Z</time>
      </trkpt>
      <trkpt lat="44.45487" lon="1.52627">
        <ele>151.4</ele>
        <time>2026-03-22T09:41:14Z</time>
      </trkpt>
      <trkpt lat="44.45481" lon="1.52615">
        <ele>151.6</ele>
        <time>2026-03-22T09:41:16Z</time>
      </trkpt>
      <trkpt lat="44.45477" lon="1.526">
        <ele>151.6</ele>
        <time>2026-03-22T09:41:18Z</time>
      </trkpt>
      <trkpt lat="44.45477" lon="1.52589">
        <ele>151.6</ele>
        <time>2026-03-22T09:41:19Z</time>
      </trkpt>
      <trkpt lat="44.45477" lon="1.52579">
        <ele>151.8</ele>
        <time>2026-03-22T09:41:20Z</time>
      </trkpt>
      <trkpt lat="44.45476" lon="1.5257">
        <ele>151.6</ele>
        <time>2026-03-22T09:41:21Z</time>
      </trkpt>
      <trkpt lat="44.45473" lon="1.52556">
        <ele>151.6</ele>
        <time>2026-03-22T09:41:22Z</time>
      </trkpt>
      <trkpt lat="44.45471" lon="1.52544">
        <ele>151.4</ele>
        <time>2026-03-22T09:41:23Z</time>
      </trkpt>
      <trkpt lat="44.45466" lon="1.52521">
        <ele>151</ele>
        <time>2026-03-22T09:41:25Z</time>
      </trkpt>
      <trkpt lat="44.45464" lon="1.52511">
        <ele>150.6</ele>
        <time>2026-03-22T09:41:26Z</time>
      </trkpt>
      <trkpt lat="44.45463" lon="1.52499">
        <ele>149.8</ele>
        <time>2026-03-22T09:41:27Z</time>
      </trkpt>
      <trkpt lat="44.45463" lon="1.52492">
        <ele>148.6</ele>
        <time>2026-03-22T09:41:28Z</time>
      </trkpt>
      <trkpt lat="44.45463" lon="1.52484">
        <ele>147</ele>
        <time>2026-03-22T09:41:29Z</time>
      </trkpt>
      <trkpt lat="44.45461" lon="1.52479">
        <ele>145.8</ele>
        <time>2026-03-22T09:41:30Z</time>
      </trkpt>
      <trkpt lat="44.45458" lon="1.52478">
        <ele>144.8</ele>
        <time>2026-03-22T09:41:31Z</time>
      </trkpt>
      <trkpt lat="44.45454" lon="1.52477">
        <ele>143</ele>
        <time>2026-03-22T09:41:32Z</time>
      </trkpt>
      <trkpt lat="44.45449" lon="1.52477">
        <ele>141.4</ele>
        <time>2026-03-22T09:41:33Z</time>
      </trkpt>
      <trkpt lat="44.45444" lon="1.52477">
        <ele>140.2</ele>
        <time>2026-03-22T09:41:34Z</time>
      </trkpt>
      <trkpt lat="44.45439" lon="1.52477">
        <ele>139.4</ele>
        <time>2026-03-22T09:41:35Z</time>
      </trkpt>
      <trkpt lat="44.45434" lon="1.52476">
        <ele>139</ele>
        <time>2026-03-22T09:41:36Z</time>
      </trkpt>
      <trkpt lat="44.45407" lon="1.5247">
        <ele>138</ele>
        <time>2026-03-22T09:41:41Z</time>
      </trkpt>
      <trkpt lat="44.45398" lon="1.52467">
        <ele>137.8</ele>
        <time>2026-03-22T09:41:43Z</time>
      </trkpt>
      <trkpt lat="44.45394" lon="1.52464">
        <ele>137.6</ele>
        <time>2026-03-22T09:41:44Z</time>
      </trkpt>
      <trkpt lat="44.45382" lon="1.52458">
        <ele>137.2</ele>
        <time>2026-03-22T09:41:46Z</time>
      </trkpt>
      <trkpt lat="44.45376" lon="1.52456">
        <ele>137.2</ele>
        <time>2026-03-22T09:41:47Z</time>
      </trkpt>
      <trkpt lat="44.4537" lon="1.52453">
        <ele>136.8</ele>
        <time>2026-03-22T09:41:48Z</time>
      </trkpt>
      <trkpt lat="44.45358" lon="1.52448">
        <ele>136.6</ele>
        <time>2026-03-22T09:41:50Z</time>
      </trkpt>
      <trkpt lat="44.45352" lon="1.52447">
        <ele>136.6</ele>
        <time>2026-03-22T09:41:51Z</time>
      </trkpt>
      <trkpt lat="44.45347" lon="1.52445">
        <ele>136.4</ele>
        <time>2026-03-22T09:41:52Z</time>
      </trkpt>
      <trkpt lat="44.45342" lon="1.52444">
        <ele>136.2</ele>
        <time>2026-03-22T09:41:53Z</time>
      </trkpt>
      <trkpt lat="44.45337" lon="1.52442">
        <ele>136.2</ele>
        <time>2026-03-22T09:41:54Z</time>
      </trkpt>
      <trkpt lat="44.45334" lon="1.5244">
        <ele>136</ele>
        <time>2026-03-22T09:41:55Z</time>
      </trkpt>
      <trkpt lat="44.45331" lon="1.52439">
        <ele>135.6</ele>
        <time>2026-03-22T09:41:56Z</time>
      </trkpt>
      <trkpt lat="44.45328" lon="1.52438">
        <ele>135.4</ele>
        <time>2026-03-22T09:41:57Z</time>
      </trkpt>
      <trkpt lat="44.45326" lon="1.52437">
        <ele>135.2</ele>
        <time>2026-03-22T09:41:58Z</time>
      </trkpt>
      <trkpt lat="44.45324" lon="1.52436">
        <ele>134.8</ele>
        <time>2026-03-22T09:41:59Z</time>
      </trkpt>
      <trkpt lat="44.4532" lon="1.52438">
        <ele>134.4</ele>
        <time>2026-03-22T09:42:00Z</time>
      </trkpt>
      <trkpt lat="44.45315" lon="1.52444">
        <ele>133.8</ele>
        <time>2026-03-22T09:42:02Z</time>
      </trkpt>
      <trkpt lat="44.45311" lon="1.52444">
        <ele>133.6</ele>
        <time>2026-03-22T09:42:03Z</time>
      </trkpt>
      <trkpt lat="44.45308" lon="1.5244">
        <ele>133.6</ele>
        <time>2026-03-22T09:42:04Z</time>
      </trkpt>
      <trkpt lat="44.45305" lon="1.52437">
        <ele>133.4</ele>
        <time>2026-03-22T09:42:05Z</time>
      </trkpt>
      <trkpt lat="44.45301" lon="1.52433">
        <ele>133.4</ele>
        <time>2026-03-22T09:42:06Z</time>
      </trkpt>
      <trkpt lat="44.45297" lon="1.52429">
        <ele>133.2</ele>
        <time>2026-03-22T09:42:07Z</time>
      </trkpt>
      <trkpt lat="44.45295" lon="1.52426">
        <ele>132.6</ele>
        <time>2026-03-22T09:42:08Z</time>
      </trkpt>
      <trkpt lat="44.45291" lon="1.52423">
        <ele>132.2</ele>
        <time>2026-03-22T09:42:09Z</time>
      </trkpt>
      <trkpt lat="44.45287" lon="1.52419">
        <ele>132</ele>
        <time>2026-03-22T09:42:10Z</time>
      </trkpt>
      <trkpt lat="44.45279" lon="1.52412">
        <ele>131.6</ele>
        <time>2026-03-22T09:42:12Z</time>
      </trkpt>
      <trkpt lat="44.45269" lon="1.52406">
        <ele>131.2</ele>
        <time>2026-03-22T09:42:14Z</time>
      </trkpt>
      <trkpt lat="44.45264" lon="1.52404">
        <ele>131</ele>
        <time>2026-03-22T09:42:15Z</time>
      </trkpt>
      <trkpt lat="44.45259" lon="1.52402">
        <ele>131</ele>
        <time>2026-03-22T09:42:16Z</time>
      </trkpt>
      <trkpt lat="44.4524" lon="1.52394">
        <ele>130.8</ele>
        <time>2026-03-22T09:42:20Z</time>
      </trkpt>
      <trkpt lat="44.45236" lon="1.52392">
        <ele>130.6</ele>
        <time>2026-03-22T09:42:21Z</time>
      </trkpt>
      <trkpt lat="44.45233" lon="1.52388">
        <ele>130.6</ele>
        <time>2026-03-22T09:42:22Z</time>
      </trkpt>
      <trkpt lat="44.4523" lon="1.52384">
        <ele>130.6</ele>
        <time>2026-03-22T09:42:23Z</time>
      </trkpt>
      <trkpt lat="44.45227" lon="1.52383">
        <ele>130.6</ele>
        <time>2026-03-22T09:42:24Z</time>
      </trkpt>
      <trkpt lat="44.45223" lon="1.52382">
        <ele>130.6</ele>
        <time>2026-03-22T09:42:25Z</time>
      </trkpt>
      <trkpt lat="44.4522" lon="1.52384">
        <ele>130.8</ele>
        <time>2026-03-22T09:42:26Z</time>
      </trkpt>
      <trkpt lat="44.45218" lon="1.52385">
        <ele>130.8</ele>
        <time>2026-03-22T09:42:27Z</time>
      </trkpt>
      <trkpt lat="44.45216" lon="1.52388">
        <ele>130.8</ele>
        <time>2026-03-22T09:42:28Z</time>
      </trkpt>
      <trkpt lat="44.45213" lon="1.5239">
        <ele>131</ele>
        <time>2026-03-22T09:42:29Z</time>
      </trkpt>
      <trkpt lat="44.45211" lon="1.52394">
        <ele>131</ele>
        <time>2026-03-22T09:42:30Z</time>
      </trkpt>
      <trkpt lat="44.45209" lon="1.52397">
        <ele>131</ele>
        <time>2026-03-22T09:42:31Z</time>
      </trkpt>
      <trkpt lat="44.45207" lon="1.524">
        <ele>131</ele>
        <time>2026-03-22T09:42:32Z</time>
      </trkpt>
      <trkpt lat="44.45204" lon="1.52403">
        <ele>131.4</ele>
        <time>2026-03-22T09:42:33Z</time>
      </trkpt>
      <trkpt lat="44.45202" lon="1.52404">
        <ele>132.2</ele>
        <time>2026-03-22T09:42:34Z</time>
      </trkpt>
      <trkpt lat="44.45199" lon="1.52404">
        <ele>132.6</ele>
        <time>2026-03-22T09:42:35Z</time>
      </trkpt>
      <trkpt lat="44.45196" lon="1.52403">
        <ele>133</ele>
        <time>2026-03-22T09:42:36Z</time>
      </trkpt>
      <trkpt lat="44.45194" lon="1.52403">
        <ele>133.6</ele>
        <time>2026-03-22T09:42:37Z</time>
      </trkpt>
      <trkpt lat="44.45191" lon="1.52403">
        <ele>134.6</ele>
        <time>2026-03-22T09:42:38Z</time>
      </trkpt>
      <trkpt lat="44.45189" lon="1.52404">
        <ele>135</ele>
        <time>2026-03-22T09:42:39Z</time>
      </trkpt>
      <trkpt lat="44.45187" lon="1.52405">
        <ele>135.4</ele>
        <time>2026-03-22T09:42:40Z</time>
      </trkpt>
      <trkpt lat="44.45185" lon="1.52407">
        <ele>136</ele>
        <time>2026-03-22T09:42:41Z</time>
      </trkpt>
      <trkpt lat="44.45183" lon="1.52409">
        <ele>136.6</ele>
        <time>2026-03-22T09:42:42Z</time>
      </trkpt>
      <trkpt lat="44.45181" lon="1.52411">
        <ele>137</ele>
        <time>2026-03-22T09:42:43Z</time>
      </trkpt>
      <trkpt lat="44.45179" lon="1.52413">
        <ele>137.2</ele>
        <time>2026-03-22T09:42:44Z</time>
      </trkpt>
      <trkpt lat="44.45176" lon="1.52415">
        <ele>137.8</ele>
        <time>2026-03-22T09:42:45Z</time>
      </trkpt>
      <trkpt lat="44.45174" lon="1.52415">
        <ele>138.6</ele>
        <time>2026-03-22T09:42:46Z</time>
      </trkpt>
      <trkpt lat="44.45172" lon="1.52416">
        <ele>139.2</ele>
        <time>2026-03-22T09:42:47Z</time>
      </trkpt>
      <trkpt lat="44.4517" lon="1.52417">
        <ele>139.6</ele>
        <time>2026-03-22T09:42:48Z</time>
      </trkpt>
      <trkpt lat="44.45167" lon="1.52418">
        <ele>140</ele>
        <time>2026-03-22T09:42:49Z</time>
      </trkpt>
      <trkpt lat="44.45165" lon="1.52419">
        <ele>140.4</ele>
        <time>2026-03-22T09:42:50Z</time>
      </trkpt>
      <trkpt lat="44.45163" lon="1.52421">
        <ele>140.8</ele>
        <time>2026-03-22T09:42:51Z</time>
      </trkpt>
      <trkpt lat="44.45162" lon="1.52422">
        <ele>141</ele>
        <time>2026-03-22T09:42:52Z</time>
      </trkpt>
      <trkpt lat="44.4516" lon="1.52424">
        <ele>141.4</ele>
        <time>2026-03-22T09:42:53Z</time>
      </trkpt>
      <trkpt lat="44.45158" lon="1.52425">
        <ele>142</ele>
        <time>2026-03-22T09:42:54Z</time>
      </trkpt>
      <trkpt lat="44.45155" lon="1.52427">
        <ele>142.6</ele>
        <time>2026-03-22T09:42:55Z</time>
      </trkpt>
      <trkpt lat="44.45153" lon="1.52428">
        <ele>143.2</ele>
        <time>2026-03-22T09:42:56Z</time>
      </trkpt>
      <trkpt lat="44.45151" lon="1.52429">
        <ele>143.8</ele>
        <time>2026-03-22T09:42:57Z</time>
      </trkpt>
      <trkpt lat="44.45149" lon="1.5243">
        <ele>144.4</ele>
        <time>2026-03-22T09:42:58Z</time>
      </trkpt>
      <trkpt lat="44.45147" lon="1.52431">
        <ele>144.8</ele>
        <time>2026-03-22T09:42:59Z</time>
      </trkpt>
      <trkpt lat="44.45144" lon="1.52432">
        <ele>145.2</ele>
        <time>2026-03-22T09:43:00Z</time>
      </trkpt>
      <trkpt lat="44.45142" lon="1.52434">
        <ele>145.8</ele>
        <time>2026-03-22T09:43:01Z</time>
      </trkpt>
      <trkpt lat="44.45141" lon="1.52434">
        <ele>146.2</ele>
        <time>2026-03-22T09:43:02Z</time>
      </trkpt>
      <trkpt lat="44.45138" lon="1.52434">
        <ele>146.6</ele>
        <time>2026-03-22T09:43:03Z</time>
      </trkpt>
      <trkpt lat="44.45135" lon="1.52435">
        <ele>147</ele>
        <time>2026-03-22T09:43:04Z</time>
      </trkpt>
      <trkpt lat="44.45133" lon="1.52435">
        <ele>147.8</ele>
        <time>2026-03-22T09:43:05Z</time>
      </trkpt>
      <trkpt lat="44.4513" lon="1.52435">
        <ele>148.2</ele>
        <time>2026-03-22T09:43:06Z</time>
      </trkpt>
      <trkpt lat="44.45127" lon="1.52436">
        <ele>148.6</ele>
        <time>2026-03-22T09:43:07Z</time>
      </trkpt>
      <trkpt lat="44.45125" lon="1.52436">
        <ele>149.2</ele>
        <time>2026-03-22T09:43:08Z</time>
      </trkpt>
      <trkpt lat="44.45122" lon="1.52436">
        <ele>149.6</ele>
        <time>2026-03-22T09:43:09Z</time>
      </trkpt>
      <trkpt lat="44.4512" lon="1.52436">
        <ele>150.2</ele>
        <time>2026-03-22T09:43:10Z</time>
      </trkpt>
      <trkpt lat="44.45118" lon="1.52438">
        <ele>150.6</ele>
        <time>2026-03-22T09:43:11Z</time>
      </trkpt>
      <trkpt lat="44.45116" lon="1.5244">
        <ele>151.2</ele>
        <time>2026-03-22T09:43:12Z</time>
      </trkpt>
      <trkpt lat="44.45113" lon="1.52442">
        <ele>151.6</ele>
        <time>2026-03-22T09:43:13Z</time>
      </trkpt>
      <trkpt lat="44.45111" lon="1.52444">
        <ele>152.2</ele>
        <time>2026-03-22T09:43:14Z</time>
      </trkpt>
      <trkpt lat="44.4511" lon="1.52446">
        <ele>152.6</ele>
        <time>2026-03-22T09:43:15Z</time>
      </trkpt>
      <trkpt lat="44.45108" lon="1.52448">
        <ele>153.2</ele>
        <time>2026-03-22T09:43:16Z</time>
      </trkpt>
      <trkpt lat="44.45105" lon="1.52451">
        <ele>153.6</ele>
        <time>2026-03-22T09:43:17Z</time>
      </trkpt>
      <trkpt lat="44.45104" lon="1.52453">
        <ele>154</ele>
        <time>2026-03-22T09:43:18Z</time>
      </trkpt>
      <trkpt lat="44.45102" lon="1.52455">
        <ele>154.4</ele>
        <time>2026-03-22T09:43:19Z</time>
      </trkpt>
      <trkpt lat="44.451" lon="1.52458">
        <ele>154.8</ele>
        <time>2026-03-22T09:43:20Z</time>
      </trkpt>
      <trkpt lat="44.45098" lon="1.5246">
        <ele>155.2</ele>
        <time>2026-03-22T09:43:21Z</time>
      </trkpt>
      <trkpt lat="44.45096" lon="1.52462">
        <ele>155.6</ele>
        <time>2026-03-22T09:43:22Z</time>
      </trkpt>
      <trkpt lat="44.45094" lon="1.52464">
        <ele>156</ele>
        <time>2026-03-22T09:43:23Z</time>
      </trkpt>
      <trkpt lat="44.45092" lon="1.52466">
        <ele>157.2</ele>
        <time>2026-03-22T09:43:24Z</time>
      </trkpt>
      <trkpt lat="44.4509" lon="1.52467">
        <ele>157.4</ele>
        <time>2026-03-22T09:43:25Z</time>
      </trkpt>
      <trkpt lat="44.45088" lon="1.52468">
        <ele>157.8</ele>
        <time>2026-03-22T09:43:26Z</time>
      </trkpt>
      <trkpt lat="44.45086" lon="1.52467">
        <ele>158</ele>
        <time>2026-03-22T09:43:27Z</time>
      </trkpt>
      <trkpt lat="44.45083" lon="1.52467">
        <ele>158.4</ele>
        <time>2026-03-22T09:43:28Z</time>
      </trkpt>
      <trkpt lat="44.45081" lon="1.52467">
        <ele>158.6</ele>
        <time>2026-03-22T09:43:29Z</time>
      </trkpt>
      <trkpt lat="44.45079" lon="1.52467">
        <ele>159</ele>
        <time>2026-03-22T09:43:30Z</time>
      </trkpt>
      <trkpt lat="44.45077" lon="1.52466">
        <ele>159.2</ele>
        <time>2026-03-22T09:43:31Z</time>
      </trkpt>
      <trkpt lat="44.45075" lon="1.52466">
        <ele>159.8</ele>
        <time>2026-03-22T09:43:32Z</time>
      </trkpt>
      <trkpt lat="44.45073" lon="1.52466">
        <ele>160.4</ele>
        <time>2026-03-22T09:43:33Z</time>
      </trkpt>
      <trkpt lat="44.4507" lon="1.52466">
        <ele>161</ele>
        <time>2026-03-22T09:43:34Z</time>
      </trkpt>
      <trkpt lat="44.45068" lon="1.52465">
        <ele>161.4</ele>
        <time>2026-03-22T09:43:35Z</time>
      </trkpt>
      <trkpt lat="44.45066" lon="1.52464">
        <ele>161.8</ele>
        <time>2026-03-22T09:43:36Z</time>
      </trkpt>
      <trkpt lat="44.45063" lon="1.52463">
        <ele>162.2</ele>
        <time>2026-03-22T09:43:37Z</time>
      </trkpt>
      <trkpt lat="44.45061" lon="1.52462">
        <ele>163</ele>
        <time>2026-03-22T09:43:38Z</time>
      </trkpt>
      <trkpt lat="44.45059" lon="1.52462">
        <ele>163.6</ele>
        <time>2026-03-22T09:43:39Z</time>
      </trkpt>
      <trkpt lat="44.45057" lon="1.52461">
        <ele>164</ele>
        <time>2026-03-22T09:43:40Z</time>
      </trkpt>
      <trkpt lat="44.45055" lon="1.5246">
        <ele>164.6</ele>
        <time>2026-03-22T09:43:41Z</time>
      </trkpt>
      <trkpt lat="44.45052" lon="1.52458">
        <ele>165.2</ele>
        <time>2026-03-22T09:43:42Z</time>
      </trkpt>
      <trkpt lat="44.45049" lon="1.52457">
        <ele>165.4</ele>
        <time>2026-03-22T09:43:43Z</time>
      </trkpt>
      <trkpt lat="44.45046" lon="1.52456">
        <ele>166</ele>
        <time>2026-03-22T09:43:44Z</time>
      </trkpt>
      <trkpt lat="44.45044" lon="1.52455">
        <ele>166.6</ele>
        <time>2026-03-22T09:43:45Z</time>
      </trkpt>
      <trkpt lat="44.45041" lon="1.52454">
        <ele>167</ele>
        <time>2026-03-22T09:43:46Z</time>
      </trkpt>
      <trkpt lat="44.45038" lon="1.52454">
        <ele>167.4</ele>
        <time>2026-03-22T09:43:47Z</time>
      </trkpt>
      <trkpt lat="44.45035" lon="1.52454">
        <ele>167.8</ele>
        <time>2026-03-22T09:43:48Z</time>
      </trkpt>
      <trkpt lat="44.45033" lon="1.52454">
        <ele>168.2</ele>
        <time>2026-03-22T09:43:49Z</time>
      </trkpt>
      <trkpt lat="44.4503" lon="1.52452">
        <ele>168.6</ele>
        <time>2026-03-22T09:43:50Z</time>
      </trkpt>
      <trkpt lat="44.45028" lon="1.52451">
        <ele>168.8</ele>
        <time>2026-03-22T09:43:51Z</time>
      </trkpt>
      <trkpt lat="44.45026" lon="1.52448">
        <ele>169.4</ele>
        <time>2026-03-22T09:43:52Z</time>
      </trkpt>
      <trkpt lat="44.45024" lon="1.52446">
        <ele>169.8</ele>
        <time>2026-03-22T09:43:53Z</time>
      </trkpt>
      <trkpt lat="44.45023" lon="1.52442">
        <ele>170</ele>
        <time>2026-03-22T09:43:54Z</time>
      </trkpt>
      <trkpt lat="44.45022" lon="1.52438">
        <ele>170.6</ele>
        <time>2026-03-22T09:43:55Z</time>
      </trkpt>
      <trkpt lat="44.4502" lon="1.52434">
        <ele>171</ele>
        <time>2026-03-22T09:43:56Z</time>
      </trkpt>
      <trkpt lat="44.45016" lon="1.52429">
        <ele>171.6</ele>
        <time>2026-03-22T09:43:57Z</time>
      </trkpt>
      <trkpt lat="44.45014" lon="1.52425">
        <ele>171.8</ele>
        <time>2026-03-22T09:43:58Z</time>
      </trkpt>
      <trkpt lat="44.45012" lon="1.52421">
        <ele>172.2</ele>
        <time>2026-03-22T09:43:59Z</time>
      </trkpt>
      <trkpt lat="44.45009" lon="1.52416">
        <ele>172.4</ele>
        <time>2026-03-22T09:44:00Z</time>
      </trkpt>
      <trkpt lat="44.45006" lon="1.52413">
        <ele>172.8</ele>
        <time>2026-03-22T09:44:01Z</time>
      </trkpt>
      <trkpt lat="44.45002" lon="1.52408">
        <ele>172.8</ele>
        <time>2026-03-22T09:44:02Z</time>
      </trkpt>
      <trkpt lat="44.45" lon="1.52403">
        <ele>173</ele>
        <time>2026-03-22T09:44:03Z</time>
      </trkpt>
      <trkpt lat="44.44997" lon="1.52399">
        <ele>173</ele>
        <time>2026-03-22T09:44:04Z</time>
      </trkpt>
      <trkpt lat="44.44993" lon="1.52394">
        <ele>173</ele>
        <time>2026-03-22T09:44:05Z</time>
      </trkpt>
      <trkpt lat="44.44989" lon="1.52389">
        <ele>173.2</ele>
        <time>2026-03-22T09:44:06Z</time>
      </trkpt>
      <trkpt lat="44.44985" lon="1.52383">
        <ele>173.2</ele>
        <time>2026-03-22T09:44:07Z</time>
      </trkpt>
      <trkpt lat="44.44981" lon="1.52378">
        <ele>173.2</ele>
        <time>2026-03-22T09:44:08Z</time>
      </trkpt>
      <trkpt lat="44.44977" lon="1.52374">
        <ele>173.2</ele>
        <time>2026-03-22T09:44:09Z</time>
      </trkpt>
      <trkpt lat="44.44972" lon="1.52371">
        <ele>173</ele>
        <time>2026-03-22T09:44:10Z</time>
      </trkpt>
      <trkpt lat="44.44968" lon="1.52368">
        <ele>173</ele>
        <time>2026-03-22T09:44:11Z</time>
      </trkpt>
      <trkpt lat="44.44964" lon="1.52364">
        <ele>173</ele>
        <time>2026-03-22T09:44:12Z</time>
      </trkpt>
      <trkpt lat="44.4496" lon="1.5236">
        <ele>173</ele>
        <time>2026-03-22T09:44:13Z</time>
      </trkpt>
      <trkpt lat="44.44956" lon="1.52355">
        <ele>173</ele>
        <time>2026-03-22T09:44:14Z</time>
      </trkpt>
      <trkpt lat="44.44952" lon="1.52351">
        <ele>173</ele>
        <time>2026-03-22T09:44:15Z</time>
      </trkpt>
      <trkpt lat="44.44948" lon="1.52348">
        <ele>172.8</ele>
        <time>2026-03-22T09:44:16Z</time>
      </trkpt>
      <trkpt lat="44.44945" lon="1.52345">
        <ele>172.6</ele>
        <time>2026-03-22T09:44:17Z</time>
      </trkpt>
      <trkpt lat="44.44943" lon="1.52342">
        <ele>172.6</ele>
        <time>2026-03-22T09:44:18Z</time>
      </trkpt>
      <trkpt lat="44.4494" lon="1.52338">
        <ele>172.6</ele>
        <time>2026-03-22T09:44:19Z</time>
      </trkpt>
      <trkpt lat="44.44938" lon="1.52333">
        <ele>172.4</ele>
        <time>2026-03-22T09:44:20Z</time>
      </trkpt>
      <trkpt lat="44.44936" lon="1.52328">
        <ele>172.4</ele>
        <time>2026-03-22T09:44:21Z</time>
      </trkpt>
      <trkpt lat="44.44935" lon="1.52322">
        <ele>172.4</ele>
        <time>2026-03-22T09:44:22Z</time>
      </trkpt>
      <trkpt lat="44.44933" lon="1.52316">
        <ele>172.4</ele>
        <time>2026-03-22T09:44:23Z</time>
      </trkpt>
      <trkpt lat="44.4493" lon="1.52309">
        <ele>172.2</ele>
        <time>2026-03-22T09:44:24Z</time>
      </trkpt>
      <trkpt lat="44.44926" lon="1.52304">
        <ele>172.2</ele>
        <time>2026-03-22T09:44:25Z</time>
      </trkpt>
      <trkpt lat="44.44923" lon="1.52301">
        <ele>172</ele>
        <time>2026-03-22T09:44:26Z</time>
      </trkpt>
      <trkpt lat="44.4492" lon="1.52297">
        <ele>171.6</ele>
        <time>2026-03-22T09:44:27Z</time>
      </trkpt>
      <trkpt lat="44.44918" lon="1.52291">
        <ele>171</ele>
        <time>2026-03-22T09:44:28Z</time>
      </trkpt>
      <trkpt lat="44.44916" lon="1.52284">
        <ele>170.6</ele>
        <time>2026-03-22T09:44:29Z</time>
      </trkpt>
      <trkpt lat="44.44914" lon="1.52279">
        <ele>169.2</ele>
        <time>2026-03-22T09:44:30Z</time>
      </trkpt>
      <trkpt lat="44.44911" lon="1.52273">
        <ele>168.2</ele>
        <time>2026-03-22T09:44:31Z</time>
      </trkpt>
      <trkpt lat="44.44906" lon="1.52267">
        <ele>167.6</ele>
        <time>2026-03-22T09:44:32Z</time>
      </trkpt>
      <trkpt lat="44.44901" lon="1.52258">
        <ele>166.8</ele>
        <time>2026-03-22T09:44:34Z</time>
      </trkpt>
      <trkpt lat="44.44899" lon="1.52254">
        <ele>166.6</ele>
        <time>2026-03-22T09:44:35Z</time>
      </trkpt>
      <trkpt lat="44.44898" lon="1.52249">
        <ele>166</ele>
        <time>2026-03-22T09:44:36Z</time>
      </trkpt>
      <trkpt lat="44.44895" lon="1.52244">
        <ele>164.8</ele>
        <time>2026-03-22T09:44:37Z</time>
      </trkpt>
      <trkpt lat="44.44892" lon="1.52241">
        <ele>164.2</ele>
        <time>2026-03-22T09:44:38Z</time>
      </trkpt>
      <trkpt lat="44.44888" lon="1.5224">
        <ele>163.6</ele>
        <time>2026-03-22T09:44:39Z</time>
      </trkpt>
      <trkpt lat="44.44885" lon="1.52238">
        <ele>163.4</ele>
        <time>2026-03-22T09:44:40Z</time>
      </trkpt>
      <trkpt lat="44.44881" lon="1.52234">
        <ele>163</ele>
        <time>2026-03-22T09:44:41Z</time>
      </trkpt>
      <trkpt lat="44.44876" lon="1.5223">
        <ele>162.2</ele>
        <time>2026-03-22T09:44:42Z</time>
      </trkpt>
      <trkpt lat="44.4487" lon="1.52227">
        <ele>161.8</ele>
        <time>2026-03-22T09:44:43Z</time>
      </trkpt>
      <trkpt lat="44.44865" lon="1.52224">
        <ele>161.2</ele>
        <time>2026-03-22T09:44:44Z</time>
      </trkpt>
      <trkpt lat="44.4486" lon="1.5222">
        <ele>160.8</ele>
        <time>2026-03-22T09:44:45Z</time>
      </trkpt>
      <trkpt lat="44.44855" lon="1.52216">
        <ele>160.2</ele>
        <time>2026-03-22T09:44:46Z</time>
      </trkpt>
      <trkpt lat="44.44849" lon="1.52213">
        <ele>160.2</ele>
        <time>2026-03-22T09:44:47Z</time>
      </trkpt>
      <trkpt lat="44.44837" lon="1.52211">
        <ele>159.8</ele>
        <time>2026-03-22T09:44:49Z</time>
      </trkpt>
      <trkpt lat="44.44829" lon="1.52208">
        <ele>159.8</ele>
        <time>2026-03-22T09:44:50Z</time>
      </trkpt>
      <trkpt lat="44.44823" lon="1.52207">
        <ele>159.8</ele>
        <time>2026-03-22T09:44:51Z</time>
      </trkpt>
      <trkpt lat="44.4481" lon="1.52208">
        <ele>158.8</ele>
        <time>2026-03-22T09:44:53Z</time>
      </trkpt>
      <trkpt lat="44.44799" lon="1.52209">
        <ele>158.2</ele>
        <time>2026-03-22T09:44:55Z</time>
      </trkpt>
      <trkpt lat="44.44793" lon="1.52211">
        <ele>157.8</ele>
        <time>2026-03-22T09:44:56Z</time>
      </trkpt>
      <trkpt lat="44.44787" lon="1.52213">
        <ele>157.4</ele>
        <time>2026-03-22T09:44:57Z</time>
      </trkpt>
      <trkpt lat="44.44775" lon="1.52217">
        <ele>156.6</ele>
        <time>2026-03-22T09:44:59Z</time>
      </trkpt>
      <trkpt lat="44.44769" lon="1.52221">
        <ele>156.2</ele>
        <time>2026-03-22T09:45:00Z</time>
      </trkpt>
      <trkpt lat="44.44759" lon="1.5223">
        <ele>155.8</ele>
        <time>2026-03-22T09:45:02Z</time>
      </trkpt>
      <trkpt lat="44.44754" lon="1.52234">
        <ele>155.6</ele>
        <time>2026-03-22T09:45:03Z</time>
      </trkpt>
      <trkpt lat="44.44748" lon="1.52234">
        <ele>155.4</ele>
        <time>2026-03-22T09:45:04Z</time>
      </trkpt>
      <trkpt lat="44.44743" lon="1.52232">
        <ele>155.2</ele>
        <time>2026-03-22T09:45:05Z</time>
      </trkpt>
      <trkpt lat="44.44737" lon="1.52231">
        <ele>155</ele>
        <time>2026-03-22T09:45:06Z</time>
      </trkpt>
      <trkpt lat="44.44731" lon="1.52232">
        <ele>154.8</ele>
        <time>2026-03-22T09:45:07Z</time>
      </trkpt>
      <trkpt lat="44.44725" lon="1.52234">
        <ele>154.6</ele>
        <time>2026-03-22T09:45:08Z</time>
      </trkpt>
      <trkpt lat="44.4472" lon="1.52238">
        <ele>154.4</ele>
        <time>2026-03-22T09:45:09Z</time>
      </trkpt>
      <trkpt lat="44.44717" lon="1.52244">
        <ele>154.4</ele>
        <time>2026-03-22T09:45:10Z</time>
      </trkpt>
      <trkpt lat="44.44714" lon="1.5225">
        <ele>154.2</ele>
        <time>2026-03-22T09:45:11Z</time>
      </trkpt>
      <trkpt lat="44.44712" lon="1.52256">
        <ele>154</ele>
        <time>2026-03-22T09:45:12Z</time>
      </trkpt>
      <trkpt lat="44.44709" lon="1.52261">
        <ele>154</ele>
        <time>2026-03-22T09:45:13Z</time>
      </trkpt>
      <trkpt lat="44.44705" lon="1.52265">
        <ele>153.8</ele>
        <time>2026-03-22T09:45:14Z</time>
      </trkpt>
      <trkpt lat="44.447" lon="1.52269">
        <ele>154</ele>
        <time>2026-03-22T09:45:15Z</time>
      </trkpt>
      <trkpt lat="44.44695" lon="1.52273">
        <ele>153.8</ele>
        <time>2026-03-22T09:45:16Z</time>
      </trkpt>
      <trkpt lat="44.4469" lon="1.52275">
        <ele>153.8</ele>
        <time>2026-03-22T09:45:17Z</time>
      </trkpt>
      <trkpt lat="44.44684" lon="1.52278">
        <ele>153.8</ele>
        <time>2026-03-22T09:45:18Z</time>
      </trkpt>
      <trkpt lat="44.44653" lon="1.52296">
        <ele>153.4</ele>
        <time>2026-03-22T09:45:23Z</time>
      </trkpt>
      <trkpt lat="44.44638" lon="1.52296">
        <ele>153.2</ele>
        <time>2026-03-22T09:45:25Z</time>
      </trkpt>
      <trkpt lat="44.44631" lon="1.52295">
        <ele>153.2</ele>
        <time>2026-03-22T09:45:26Z</time>
      </trkpt>
      <trkpt lat="44.44625" lon="1.52296">
        <ele>153.2</ele>
        <time>2026-03-22T09:45:27Z</time>
      </trkpt>
      <trkpt lat="44.44619" lon="1.52299">
        <ele>153.2</ele>
        <time>2026-03-22T09:45:28Z</time>
      </trkpt>
      <trkpt lat="44.44615" lon="1.52303">
        <ele>153.2</ele>
        <time>2026-03-22T09:45:29Z</time>
      </trkpt>
      <trkpt lat="44.44611" lon="1.52308">
        <ele>152.6</ele>
        <time>2026-03-22T09:45:30Z</time>
      </trkpt>
      <trkpt lat="44.44607" lon="1.52311">
        <ele>152.2</ele>
        <time>2026-03-22T09:45:31Z</time>
      </trkpt>
      <trkpt lat="44.44603" lon="1.52315">
        <ele>151</ele>
        <time>2026-03-22T09:45:32Z</time>
      </trkpt>
      <trkpt lat="44.44599" lon="1.52317">
        <ele>150.2</ele>
        <time>2026-03-22T09:45:33Z</time>
      </trkpt>
      <trkpt lat="44.44594" lon="1.52317">
        <ele>149.2</ele>
        <time>2026-03-22T09:45:34Z</time>
      </trkpt>
      <trkpt lat="44.44589" lon="1.52316">
        <ele>148</ele>
        <time>2026-03-22T09:45:35Z</time>
      </trkpt>
      <trkpt lat="44.44583" lon="1.52315">
        <ele>147.2</ele>
        <time>2026-03-22T09:45:36Z</time>
      </trkpt>
      <trkpt lat="44.44578" lon="1.52313">
        <ele>146</ele>
        <time>2026-03-22T09:45:37Z</time>
      </trkpt>
      <trkpt lat="44.44573" lon="1.52313">
        <ele>144.8</ele>
        <time>2026-03-22T09:45:38Z</time>
      </trkpt>
      <trkpt lat="44.44571" lon="1.52316">
        <ele>143.6</ele>
        <time>2026-03-22T09:45:39Z</time>
      </trkpt>
      <trkpt lat="44.44572" lon="1.52324">
        <ele>142</ele>
        <time>2026-03-22T09:45:40Z</time>
      </trkpt>
      <trkpt lat="44.44574" lon="1.5233">
        <ele>139.8</ele>
        <time>2026-03-22T09:45:41Z</time>
      </trkpt>
      <trkpt lat="44.44575" lon="1.52338">
        <ele>137.8</ele>
        <time>2026-03-22T09:45:42Z</time>
      </trkpt>
      <trkpt lat="44.44577" lon="1.52345">
        <ele>135.8</ele>
        <time>2026-03-22T09:45:43Z</time>
      </trkpt>
      <trkpt lat="44.4458" lon="1.52353">
        <ele>135</ele>
        <time>2026-03-22T09:45:44Z</time>
      </trkpt>
      <trkpt lat="44.44583" lon="1.5236">
        <ele>134</ele>
        <time>2026-03-22T09:45:45Z</time>
      </trkpt>
      <trkpt lat="44.44588" lon="1.52375">
        <ele>132.6</ele>
        <time>2026-03-22T09:45:47Z</time>
      </trkpt>
      <trkpt lat="44.44589" lon="1.52388">
        <ele>132.2</ele>
        <time>2026-03-22T09:45:49Z</time>
      </trkpt>
      <trkpt lat="44.44585" lon="1.52394">
        <ele>132</ele>
        <time>2026-03-22T09:45:50Z</time>
      </trkpt>
      <trkpt lat="44.44576" lon="1.52403">
        <ele>131.8</ele>
        <time>2026-03-22T09:45:52Z</time>
      </trkpt>
      <trkpt lat="44.44554" lon="1.5243">
        <ele>131.6</ele>
        <time>2026-03-22T09:45:57Z</time>
      </trkpt>
      <trkpt lat="44.4455" lon="1.52435">
        <ele>131.6</ele>
        <time>2026-03-22T09:45:58Z</time>
      </trkpt>
      <trkpt lat="44.44547" lon="1.5244">
        <ele>131.6</ele>
        <time>2026-03-22T09:45:59Z</time>
      </trkpt>
      <trkpt lat="44.44544" lon="1.52446">
        <ele>131.6</ele>
        <time>2026-03-22T09:46:00Z</time>
      </trkpt>
      <trkpt lat="44.44542" lon="1.52451">
        <ele>131.6</ele>
        <time>2026-03-22T09:46:01Z</time>
      </trkpt>
      <trkpt lat="44.4454" lon="1.52457">
        <ele>131.6</ele>
        <time>2026-03-22T09:46:02Z</time>
      </trkpt>
      <trkpt lat="44.44538" lon="1.52463">
        <ele>131.6</ele>
        <time>2026-03-22T09:46:03Z</time>
      </trkpt>
      <trkpt lat="44.44538" lon="1.52469">
        <ele>131.6</ele>
        <time>2026-03-22T09:46:04Z</time>
      </trkpt>
      <trkpt lat="44.44537" lon="1.52475">
        <ele>131.6</ele>
        <time>2026-03-22T09:46:05Z</time>
      </trkpt>
      <trkpt lat="44.44536" lon="1.52481">
        <ele>131.6</ele>
        <time>2026-03-22T09:46:06Z</time>
      </trkpt>
      <trkpt lat="44.44535" lon="1.52487">
        <ele>131.8</ele>
        <time>2026-03-22T09:46:07Z</time>
      </trkpt>
      <trkpt lat="44.44533" lon="1.52492">
        <ele>132.2</ele>
        <time>2026-03-22T09:46:08Z</time>
      </trkpt>
      <trkpt lat="44.44531" lon="1.52497">
        <ele>132.6</ele>
        <time>2026-03-22T09:46:09Z</time>
      </trkpt>
      <trkpt lat="44.44528" lon="1.52502">
        <ele>132.8</ele>
        <time>2026-03-22T09:46:10Z</time>
      </trkpt>
      <trkpt lat="44.44525" lon="1.52507">
        <ele>133.2</ele>
        <time>2026-03-22T09:46:11Z</time>
      </trkpt>
      <trkpt lat="44.44522" lon="1.52511">
        <ele>133.4</ele>
        <time>2026-03-22T09:46:12Z</time>
      </trkpt>
      <trkpt lat="44.44519" lon="1.52515">
        <ele>133.8</ele>
        <time>2026-03-22T09:46:13Z</time>
      </trkpt>
      <trkpt lat="44.44513" lon="1.52524">
        <ele>134.6</ele>
        <time>2026-03-22T09:46:15Z</time>
      </trkpt>
      <trkpt lat="44.44511" lon="1.52529">
        <ele>135</ele>
        <time>2026-03-22T09:46:16Z</time>
      </trkpt>
      <trkpt lat="44.44511" lon="1.52534">
        <ele>135.2</ele>
        <time>2026-03-22T09:46:17Z</time>
      </trkpt>
      <trkpt lat="44.44513" lon="1.52545">
        <ele>135.8</ele>
        <time>2026-03-22T09:46:19Z</time>
      </trkpt>
      <trkpt lat="44.44514" lon="1.5255">
        <ele>136</ele>
        <time>2026-03-22T09:46:20Z</time>
      </trkpt>
      <trkpt lat="44.44516" lon="1.52554">
        <ele>136.2</ele>
        <time>2026-03-22T09:46:21Z</time>
      </trkpt>
      <trkpt lat="44.44517" lon="1.52559">
        <ele>136.4</ele>
        <time>2026-03-22T09:46:22Z</time>
      </trkpt>
      <trkpt lat="44.44517" lon="1.52564">
        <ele>136.6</ele>
        <time>2026-03-22T09:46:23Z</time>
      </trkpt>
      <trkpt lat="44.44517" lon="1.52568">
        <ele>136.8</ele>
        <time>2026-03-22T09:46:24Z</time>
      </trkpt>
      <trkpt lat="44.44515" lon="1.52572">
        <ele>137.2</ele>
        <time>2026-03-22T09:46:25Z</time>
      </trkpt>
      <trkpt lat="44.44514" lon="1.52577">
        <ele>137.6</ele>
        <time>2026-03-22T09:46:26Z</time>
      </trkpt>
      <trkpt lat="44.44515" lon="1.52581">
        <ele>137.8</ele>
        <time>2026-03-22T09:46:27Z</time>
      </trkpt>
      <trkpt lat="44.44516" lon="1.52586">
        <ele>138.4</ele>
        <time>2026-03-22T09:46:28Z</time>
      </trkpt>
      <trkpt lat="44.44517" lon="1.52591">
        <ele>138.8</ele>
        <time>2026-03-22T09:46:29Z</time>
      </trkpt>
      <trkpt lat="44.44517" lon="1.52594">
        <ele>139.2</ele>
        <time>2026-03-22T09:46:30Z</time>
      </trkpt>
      <trkpt lat="44.44518" lon="1.52597">
        <ele>140</ele>
        <time>2026-03-22T09:46:31Z</time>
      </trkpt>
      <trkpt lat="44.44519" lon="1.52601">
        <ele>140.6</ele>
        <time>2026-03-22T09:46:32Z</time>
      </trkpt>
      <trkpt lat="44.44519" lon="1.52605">
        <ele>141.2</ele>
        <time>2026-03-22T09:46:33Z</time>
      </trkpt>
      <trkpt lat="44.44519" lon="1.52609">
        <ele>141.6</ele>
        <time>2026-03-22T09:46:34Z</time>
      </trkpt>
      <trkpt lat="44.44519" lon="1.52613">
        <ele>142</ele>
        <time>2026-03-22T09:46:35Z</time>
      </trkpt>
      <trkpt lat="44.4452" lon="1.52617">
        <ele>142.4</ele>
        <time>2026-03-22T09:46:36Z</time>
      </trkpt>
      <trkpt lat="44.4452" lon="1.5262">
        <ele>143.2</ele>
        <time>2026-03-22T09:46:37Z</time>
      </trkpt>
      <trkpt lat="44.4452" lon="1.52624">
        <ele>143.8</ele>
        <time>2026-03-22T09:46:38Z</time>
      </trkpt>
      <trkpt lat="44.4452" lon="1.52627">
        <ele>144.4</ele>
        <time>2026-03-22T09:46:39Z</time>
      </trkpt>
      <trkpt lat="44.4452" lon="1.52631">
        <ele>144.6</ele>
        <time>2026-03-22T09:46:40Z</time>
      </trkpt>
      <trkpt lat="44.44519" lon="1.52634">
        <ele>145</ele>
        <time>2026-03-22T09:46:41Z</time>
      </trkpt>
      <trkpt lat="44.44519" lon="1.52638">
        <ele>145.6</ele>
        <time>2026-03-22T09:46:42Z</time>
      </trkpt>
      <trkpt lat="44.4452" lon="1.52642">
        <ele>146.2</ele>
        <time>2026-03-22T09:46:43Z</time>
      </trkpt>
      <trkpt lat="44.44521" lon="1.52645">
        <ele>146.6</ele>
        <time>2026-03-22T09:46:44Z</time>
      </trkpt>
      <trkpt lat="44.44521" lon="1.52649">
        <ele>147.2</ele>
        <time>2026-03-22T09:46:45Z</time>
      </trkpt>
      <trkpt lat="44.44522" lon="1.52653">
        <ele>147.8</ele>
        <time>2026-03-22T09:46:46Z</time>
      </trkpt>
      <trkpt lat="44.44523" lon="1.52657">
        <ele>148.2</ele>
        <time>2026-03-22T09:46:47Z</time>
      </trkpt>
      <trkpt lat="44.44524" lon="1.52661">
        <ele>148.6</ele>
        <time>2026-03-22T09:46:48Z</time>
      </trkpt>
      <trkpt lat="44.44524" lon="1.52665">
        <ele>149.2</ele>
        <time>2026-03-22T09:46:49Z</time>
      </trkpt>
      <trkpt lat="44.44525" lon="1.52669">
        <ele>149.6</ele>
        <time>2026-03-22T09:46:50Z</time>
      </trkpt>
      <trkpt lat="44.44525" lon="1.52673">
        <ele>149.8</ele>
        <time>2026-03-22T09:46:51Z</time>
      </trkpt>
      <trkpt lat="44.44526" lon="1.52677">
        <ele>150</ele>
        <time>2026-03-22T09:46:52Z</time>
      </trkpt>
      <trkpt lat="44.44526" lon="1.52681">
        <ele>150.2</ele>
        <time>2026-03-22T09:46:53Z</time>
      </trkpt>
      <trkpt lat="44.44527" lon="1.52685">
        <ele>150.4</ele>
        <time>2026-03-22T09:46:54Z</time>
      </trkpt>
      <trkpt lat="44.44528" lon="1.52689">
        <ele>150.8</ele>
        <time>2026-03-22T09:46:55Z</time>
      </trkpt>
      <trkpt lat="44.44529" lon="1.52694">
        <ele>151</ele>
        <time>2026-03-22T09:46:56Z</time>
      </trkpt>
      <trkpt lat="44.4453" lon="1.52696">
        <ele>151.2</ele>
        <time>2026-03-22T09:46:57Z</time>
      </trkpt>
      <trkpt lat="44.44533" lon="1.527">
        <ele>151.2</ele>
        <time>2026-03-22T09:46:58Z</time>
      </trkpt>
      <trkpt lat="44.44536" lon="1.52705">
        <ele>151.4</ele>
        <time>2026-03-22T09:46:59Z</time>
      </trkpt>
      <trkpt lat="44.44538" lon="1.52708">
        <ele>151.4</ele>
        <time>2026-03-22T09:47:00Z</time>
      </trkpt>
      <trkpt lat="44.44541" lon="1.52712">
        <ele>151.4</ele>
        <time>2026-03-22T09:47:01Z</time>
      </trkpt>
      <trkpt lat="44.44545" lon="1.52718">
        <ele>151.4</ele>
        <time>2026-03-22T09:47:02Z</time>
      </trkpt>
      <trkpt lat="44.44548" lon="1.52723">
        <ele>151.4</ele>
        <time>2026-03-22T09:47:03Z</time>
      </trkpt>
      <trkpt lat="44.4455" lon="1.52729">
        <ele>151.4</ele>
        <time>2026-03-22T09:47:04Z</time>
      </trkpt>
      <trkpt lat="44.44553" lon="1.52734">
        <ele>151.4</ele>
        <time>2026-03-22T09:47:05Z</time>
      </trkpt>
      <trkpt lat="44.44556" lon="1.52739">
        <ele>151.4</ele>
        <time>2026-03-22T09:47:06Z</time>
      </trkpt>
      <trkpt lat="44.44559" lon="1.52744">
        <ele>151.2</ele>
        <time>2026-03-22T09:47:07Z</time>
      </trkpt>
      <trkpt lat="44.44563" lon="1.52749">
        <ele>151</ele>
        <time>2026-03-22T09:47:08Z</time>
      </trkpt>
      <trkpt lat="44.44566" lon="1.52755">
        <ele>150.8</ele>
        <time>2026-03-22T09:47:09Z</time>
      </trkpt>
      <trkpt lat="44.44568" lon="1.52759">
        <ele>150.8</ele>
        <time>2026-03-22T09:47:10Z</time>
      </trkpt>
      <trkpt lat="44.44569" lon="1.52764">
        <ele>150.8</ele>
        <time>2026-03-22T09:47:11Z</time>
      </trkpt>
      <trkpt lat="44.44571" lon="1.52768">
        <ele>150.6</ele>
        <time>2026-03-22T09:47:12Z</time>
      </trkpt>
      <trkpt lat="44.44572" lon="1.52772">
        <ele>150.6</ele>
        <time>2026-03-22T09:47:13Z</time>
      </trkpt>
      <trkpt lat="44.44574" lon="1.52776">
        <ele>150.6</ele>
        <time>2026-03-22T09:47:14Z</time>
      </trkpt>
      <trkpt lat="44.44575" lon="1.52781">
        <ele>150.6</ele>
        <time>2026-03-22T09:47:15Z</time>
      </trkpt>
      <trkpt lat="44.44576" lon="1.52783">
        <ele>150.6</ele>
        <time>2026-03-22T09:47:16Z</time>
      </trkpt>
      <trkpt lat="44.44577" lon="1.52787">
        <ele>150.6</ele>
        <time>2026-03-22T09:47:17Z</time>
      </trkpt>
      <trkpt lat="44.44579" lon="1.5279">
        <ele>151</ele>
        <time>2026-03-22T09:47:18Z</time>
      </trkpt>
      <trkpt lat="44.4458" lon="1.52793">
        <ele>151.2</ele>
        <time>2026-03-22T09:47:19Z</time>
      </trkpt>
      <trkpt lat="44.4459" lon="1.52804">
        <ele>152.6</ele>
        <time>2026-03-22T09:47:23Z</time>
      </trkpt>
      <trkpt lat="44.44596" lon="1.52809">
        <ele>153.8</ele>
        <time>2026-03-22T09:47:25Z</time>
      </trkpt>
      <trkpt lat="44.44602" lon="1.52816">
        <ele>154.8</ele>
        <time>2026-03-22T09:47:27Z</time>
      </trkpt>
      <trkpt lat="44.44605" lon="1.52818">
        <ele>155</ele>
        <time>2026-03-22T09:47:28Z</time>
      </trkpt>
      <trkpt lat="44.44608" lon="1.5282">
        <ele>155</ele>
        <time>2026-03-22T09:47:29Z</time>
      </trkpt>
      <trkpt lat="44.44611" lon="1.52823">
        <ele>155.2</ele>
        <time>2026-03-22T09:47:30Z</time>
      </trkpt>
      <trkpt lat="44.44614" lon="1.52825">
        <ele>155.2</ele>
        <time>2026-03-22T09:47:31Z</time>
      </trkpt>
      <trkpt lat="44.44617" lon="1.52828">
        <ele>155.2</ele>
        <time>2026-03-22T09:47:32Z</time>
      </trkpt>
      <trkpt lat="44.44619" lon="1.52832">
        <ele>155.2</ele>
        <time>2026-03-22T09:47:33Z</time>
      </trkpt>
      <trkpt lat="44.4462" lon="1.52836">
        <ele>155.2</ele>
        <time>2026-03-22T09:47:34Z</time>
      </trkpt>
      <trkpt lat="44.44622" lon="1.52839">
        <ele>155.4</ele>
        <time>2026-03-22T09:47:35Z</time>
      </trkpt>
      <trkpt lat="44.44624" lon="1.52843">
        <ele>155.4</ele>
        <time>2026-03-22T09:47:36Z</time>
      </trkpt>
      <trkpt lat="44.44626" lon="1.52847">
        <ele>155.4</ele>
        <time>2026-03-22T09:47:37Z</time>
      </trkpt>
      <trkpt lat="44.44628" lon="1.52851">
        <ele>155.4</ele>
        <time>2026-03-22T09:47:38Z</time>
      </trkpt>
      <trkpt lat="44.44631" lon="1.52855">
        <ele>155.6</ele>
        <time>2026-03-22T09:47:39Z</time>
      </trkpt>
      <trkpt lat="44.44634" lon="1.52859">
        <ele>155.6</ele>
        <time>2026-03-22T09:47:40Z</time>
      </trkpt>
      <trkpt lat="44.44636" lon="1.52863">
        <ele>155.6</ele>
        <time>2026-03-22T09:47:41Z</time>
      </trkpt>
      <trkpt lat="44.44638" lon="1.52868">
        <ele>155.6</ele>
        <time>2026-03-22T09:47:42Z</time>
      </trkpt>
      <trkpt lat="44.44638" lon="1.52874">
        <ele>155.8</ele>
        <time>2026-03-22T09:47:43Z</time>
      </trkpt>
      <trkpt lat="44.44638" lon="1.52878">
        <ele>155.8</ele>
        <time>2026-03-22T09:47:44Z</time>
      </trkpt>
      <trkpt lat="44.44639" lon="1.52883">
        <ele>155.8</ele>
        <time>2026-03-22T09:47:45Z</time>
      </trkpt>
      <trkpt lat="44.4464" lon="1.52887">
        <ele>155.8</ele>
        <time>2026-03-22T09:47:46Z</time>
      </trkpt>
      <trkpt lat="44.44641" lon="1.52892">
        <ele>156</ele>
        <time>2026-03-22T09:47:47Z</time>
      </trkpt>
      <trkpt lat="44.44643" lon="1.52896">
        <ele>156</ele>
        <time>2026-03-22T09:47:48Z</time>
      </trkpt>
      <trkpt lat="44.44645" lon="1.52901">
        <ele>156</ele>
        <time>2026-03-22T09:47:49Z</time>
      </trkpt>
      <trkpt lat="44.44646" lon="1.52907">
        <ele>156.2</ele>
        <time>2026-03-22T09:47:50Z</time>
      </trkpt>
      <trkpt lat="44.44647" lon="1.52912">
        <ele>156.2</ele>
        <time>2026-03-22T09:47:51Z</time>
      </trkpt>
      <trkpt lat="44.44648" lon="1.52917">
        <ele>156.2</ele>
        <time>2026-03-22T09:47:52Z</time>
      </trkpt>
      <trkpt lat="44.4465" lon="1.52922">
        <ele>156.4</ele>
        <time>2026-03-22T09:47:53Z</time>
      </trkpt>
      <trkpt lat="44.44651" lon="1.52928">
        <ele>156.6</ele>
        <time>2026-03-22T09:47:54Z</time>
      </trkpt>
      <trkpt lat="44.44652" lon="1.52934">
        <ele>156.6</ele>
        <time>2026-03-22T09:47:55Z</time>
      </trkpt>
      <trkpt lat="44.44652" lon="1.5294">
        <ele>156.8</ele>
        <time>2026-03-22T09:47:56Z</time>
      </trkpt>
      <trkpt lat="44.44651" lon="1.52946">
        <ele>156.8</ele>
        <time>2026-03-22T09:47:57Z</time>
      </trkpt>
      <trkpt lat="44.44648" lon="1.52951">
        <ele>156.8</ele>
        <time>2026-03-22T09:47:58Z</time>
      </trkpt>
      <trkpt lat="44.44645" lon="1.52957">
        <ele>156.8</ele>
        <time>2026-03-22T09:47:59Z</time>
      </trkpt>
      <trkpt lat="44.44643" lon="1.5296">
        <ele>157</ele>
        <time>2026-03-22T09:48:00Z</time>
      </trkpt>
      <trkpt lat="44.44641" lon="1.52966">
        <ele>157</ele>
        <time>2026-03-22T09:48:01Z</time>
      </trkpt>
      <trkpt lat="44.44639" lon="1.52978">
        <ele>157.2</ele>
        <time>2026-03-22T09:48:03Z</time>
      </trkpt>
      <trkpt lat="44.44638" lon="1.52985">
        <ele>157.2</ele>
        <time>2026-03-22T09:48:04Z</time>
      </trkpt>
      <trkpt lat="44.44638" lon="1.5299">
        <ele>157.4</ele>
        <time>2026-03-22T09:48:05Z</time>
      </trkpt>
      <trkpt lat="44.44637" lon="1.52997">
        <ele>157.6</ele>
        <time>2026-03-22T09:48:06Z</time>
      </trkpt>
      <trkpt lat="44.44633" lon="1.53008">
        <ele>158.2</ele>
        <time>2026-03-22T09:48:08Z</time>
      </trkpt>
      <trkpt lat="44.44629" lon="1.53019">
        <ele>158.6</ele>
        <time>2026-03-22T09:48:10Z</time>
      </trkpt>
      <trkpt lat="44.44627" lon="1.53025">
        <ele>158.6</ele>
        <time>2026-03-22T09:48:11Z</time>
      </trkpt>
      <trkpt lat="44.44624" lon="1.53038">
        <ele>158.8</ele>
        <time>2026-03-22T09:48:13Z</time>
      </trkpt>
      <trkpt lat="44.44623" lon="1.53044">
        <ele>159</ele>
        <time>2026-03-22T09:48:14Z</time>
      </trkpt>
      <trkpt lat="44.44621" lon="1.5305">
        <ele>159</ele>
        <time>2026-03-22T09:48:15Z</time>
      </trkpt>
      <trkpt lat="44.4462" lon="1.53053">
        <ele>159</ele>
        <time>2026-03-22T09:48:16Z</time>
      </trkpt>
      <trkpt lat="44.4462" lon="1.53057">
        <ele>159</ele>
        <time>2026-03-22T09:48:17Z</time>
      </trkpt>
      <trkpt lat="44.4462" lon="1.53063">
        <ele>159</ele>
        <time>2026-03-22T09:48:18Z</time>
      </trkpt>
      <trkpt lat="44.44619" lon="1.53067">
        <ele>159</ele>
        <time>2026-03-22T09:48:19Z</time>
      </trkpt>
      <trkpt lat="44.44618" lon="1.53071">
        <ele>159</ele>
        <time>2026-03-22T09:48:20Z</time>
      </trkpt>
      <trkpt lat="44.44617" lon="1.53075">
        <ele>159</ele>
        <time>2026-03-22T09:48:21Z</time>
      </trkpt>
      <trkpt lat="44.44617" lon="1.53078">
        <ele>159</ele>
        <time>2026-03-22T09:48:22Z</time>
      </trkpt>
      <trkpt lat="44.44618" lon="1.53081">
        <ele>159</ele>
        <time>2026-03-22T09:48:23Z</time>
      </trkpt>
      <trkpt lat="44.44618" lon="1.53084">
        <ele>159</ele>
        <time>2026-03-22T09:48:24Z</time>
      </trkpt>
      <trkpt lat="44.44618" lon="1.53088">
        <ele>159</ele>
        <time>2026-03-22T09:48:25Z</time>
      </trkpt>
      <trkpt lat="44.44617" lon="1.53093">
        <ele>159</ele>
        <time>2026-03-22T09:48:26Z</time>
      </trkpt>
      <trkpt lat="44.44617" lon="1.53098">
        <ele>158.8</ele>
        <time>2026-03-22T09:48:27Z</time>
      </trkpt>
      <trkpt lat="44.44616" lon="1.53105">
        <ele>158.8</ele>
        <time>2026-03-22T09:48:28Z</time>
      </trkpt>
      <trkpt lat="44.44615" lon="1.53112">
        <ele>158.6</ele>
        <time>2026-03-22T09:48:29Z</time>
      </trkpt>
      <trkpt lat="44.44611" lon="1.53123">
        <ele>158.6</ele>
        <time>2026-03-22T09:48:31Z</time>
      </trkpt>
      <trkpt lat="44.44609" lon="1.53129">
        <ele>157.6</ele>
        <time>2026-03-22T09:48:32Z</time>
      </trkpt>
      <trkpt lat="44.44607" lon="1.53135">
        <ele>157</ele>
        <time>2026-03-22T09:48:33Z</time>
      </trkpt>
      <trkpt lat="44.44605" lon="1.53144">
        <ele>156.4</ele>
        <time>2026-03-22T09:48:35Z</time>
      </trkpt>
      <trkpt lat="44.44605" lon="1.53148">
        <ele>156.2</ele>
        <time>2026-03-22T09:48:36Z</time>
      </trkpt>
      <trkpt lat="44.44606" lon="1.53153">
        <ele>156</ele>
        <time>2026-03-22T09:48:37Z</time>
      </trkpt>
      <trkpt lat="44.44606" lon="1.53161">
        <ele>155.4</ele>
        <time>2026-03-22T09:48:38Z</time>
      </trkpt>
      <trkpt lat="44.44605" lon="1.53175">
        <ele>155</ele>
        <time>2026-03-22T09:48:40Z</time>
      </trkpt>
      <trkpt lat="44.44603" lon="1.53183">
        <ele>155</ele>
        <time>2026-03-22T09:48:41Z</time>
      </trkpt>
      <trkpt lat="44.44602" lon="1.5319">
        <ele>154.8</ele>
        <time>2026-03-22T09:48:42Z</time>
      </trkpt>
      <trkpt lat="44.44599" lon="1.53197">
        <ele>154.4</ele>
        <time>2026-03-22T09:48:43Z</time>
      </trkpt>
      <trkpt lat="44.44597" lon="1.53202">
        <ele>154.4</ele>
        <time>2026-03-22T09:48:44Z</time>
      </trkpt>
      <trkpt lat="44.44595" lon="1.53206">
        <ele>153.8</ele>
        <time>2026-03-22T09:48:45Z</time>
      </trkpt>
      <trkpt lat="44.44593" lon="1.5321">
        <ele>153</ele>
        <time>2026-03-22T09:48:46Z</time>
      </trkpt>
      <trkpt lat="44.44592" lon="1.53213">
        <ele>152.2</ele>
        <time>2026-03-22T09:48:47Z</time>
      </trkpt>
      <trkpt lat="44.4459" lon="1.53216">
        <ele>151.6</ele>
        <time>2026-03-22T09:48:48Z</time>
      </trkpt>
      <trkpt lat="44.44589" lon="1.53219">
        <ele>151</ele>
        <time>2026-03-22T09:48:49Z</time>
      </trkpt>
      <trkpt lat="44.44584" lon="1.5323">
        <ele>149</ele>
        <time>2026-03-22T09:48:51Z</time>
      </trkpt>
      <trkpt lat="44.4458" lon="1.53238">
        <ele>148.2</ele>
        <time>2026-03-22T09:48:52Z</time>
      </trkpt>
      <trkpt lat="44.44579" lon="1.53245">
        <ele>147</ele>
        <time>2026-03-22T09:48:53Z</time>
      </trkpt>
      <trkpt lat="44.44577" lon="1.53258">
        <ele>145.6</ele>
        <time>2026-03-22T09:48:55Z</time>
      </trkpt>
      <trkpt lat="44.44575" lon="1.53262">
        <ele>144.6</ele>
        <time>2026-03-22T09:48:56Z</time>
      </trkpt>
      <trkpt lat="44.44572" lon="1.53263">
        <ele>144</ele>
        <time>2026-03-22T09:48:57Z</time>
      </trkpt>
      <trkpt lat="44.44569" lon="1.53264">
        <ele>143.6</ele>
        <time>2026-03-22T09:48:58Z</time>
      </trkpt>
      <trkpt lat="44.4456" lon="1.53266">
        <ele>143.2</ele>
        <time>2026-03-22T09:49:00Z</time>
      </trkpt>
      <trkpt lat="44.44556" lon="1.53267">
        <ele>143.2</ele>
        <time>2026-03-22T09:49:01Z</time>
      </trkpt>
      <trkpt lat="44.44552" lon="1.53267">
        <ele>143.2</ele>
        <time>2026-03-22T09:49:02Z</time>
      </trkpt>
      <trkpt lat="44.44548" lon="1.53269">
        <ele>143.2</ele>
        <time>2026-03-22T09:49:03Z</time>
      </trkpt>
      <trkpt lat="44.44543" lon="1.5327">
        <ele>143.2</ele>
        <time>2026-03-22T09:49:04Z</time>
      </trkpt>
      <trkpt lat="44.44519" lon="1.53279">
        <ele>143.8</ele>
        <time>2026-03-22T09:49:09Z</time>
      </trkpt>
      <trkpt lat="44.4451" lon="1.5328">
        <ele>144.4</ele>
        <time>2026-03-22T09:49:11Z</time>
      </trkpt>
      <trkpt lat="44.44507" lon="1.5328">
        <ele>144.8</ele>
        <time>2026-03-22T09:49:12Z</time>
      </trkpt>
      <trkpt lat="44.44504" lon="1.5328">
        <ele>145.2</ele>
        <time>2026-03-22T09:49:13Z</time>
      </trkpt>
      <trkpt lat="44.44502" lon="1.5328">
        <ele>145.4</ele>
        <time>2026-03-22T09:49:14Z</time>
      </trkpt>
      <trkpt lat="44.44501" lon="1.53281">
        <ele>145.6</ele>
        <time>2026-03-22T09:49:15Z</time>
      </trkpt>
      <trkpt lat="44.44499" lon="1.53281">
        <ele>146</ele>
        <time>2026-03-22T09:49:16Z</time>
      </trkpt>
      <trkpt lat="44.44497" lon="1.53282">
        <ele>146.4</ele>
        <time>2026-03-22T09:49:17Z</time>
      </trkpt>
      <trkpt lat="44.44493" lon="1.53283">
        <ele>147</ele>
        <time>2026-03-22T09:49:19Z</time>
      </trkpt>
      <trkpt lat="44.44487" lon="1.53282">
        <ele>147.4</ele>
        <time>2026-03-22T09:49:22Z</time>
      </trkpt>
      <trkpt lat="44.44486" lon="1.53282">
        <ele>147.6</ele>
        <time>2026-03-22T09:49:23Z</time>
      </trkpt>
      <trkpt lat="44.44484" lon="1.53283">
        <ele>147.8</ele>
        <time>2026-03-22T09:49:24Z</time>
      </trkpt>
      <trkpt lat="44.44483" lon="1.53283">
        <ele>148</ele>
        <time>2026-03-22T09:49:25Z</time>
      </trkpt>
      <trkpt lat="44.44481" lon="1.53283">
        <ele>148.2</ele>
        <time>2026-03-22T09:49:26Z</time>
      </trkpt>
      <trkpt lat="44.4448" lon="1.53283">
        <ele>148.4</ele>
        <time>2026-03-22T09:49:27Z</time>
      </trkpt>
      <trkpt lat="44.44478" lon="1.53283">
        <ele>148.6</ele>
        <time>2026-03-22T09:49:28Z</time>
      </trkpt>
      <trkpt lat="44.44476" lon="1.53283">
        <ele>148.6</ele>
        <time>2026-03-22T09:49:29Z</time>
      </trkpt>
      <trkpt lat="44.44474" lon="1.53283">
        <ele>148.8</ele>
        <time>2026-03-22T09:49:30Z</time>
      </trkpt>
      <trkpt lat="44.44473" lon="1.53283">
        <ele>148.8</ele>
        <time>2026-03-22T09:49:31Z</time>
      </trkpt>
      <trkpt lat="44.44471" lon="1.53283">
        <ele>149</ele>
        <time>2026-03-22T09:49:32Z</time>
      </trkpt>
      <trkpt lat="44.44469" lon="1.53283">
        <ele>149</ele>
        <time>2026-03-22T09:49:33Z</time>
      </trkpt>
      <trkpt lat="44.44468" lon="1.53284">
        <ele>149.2</ele>
        <time>2026-03-22T09:49:34Z</time>
      </trkpt>
      <trkpt lat="44.44466" lon="1.53285">
        <ele>149.2</ele>
        <time>2026-03-22T09:49:35Z</time>
      </trkpt>
      <trkpt lat="44.44464" lon="1.53285">
        <ele>149.4</ele>
        <time>2026-03-22T09:49:36Z</time>
      </trkpt>
      <trkpt lat="44.44462" lon="1.53285">
        <ele>149.6</ele>
        <time>2026-03-22T09:49:37Z</time>
      </trkpt>
      <trkpt lat="44.4446" lon="1.53285">
        <ele>149.8</ele>
        <time>2026-03-22T09:49:38Z</time>
      </trkpt>
      <trkpt lat="44.44458" lon="1.53287">
        <ele>150</ele>
        <time>2026-03-22T09:49:39Z</time>
      </trkpt>
      <trkpt lat="44.44456" lon="1.53288">
        <ele>150.2</ele>
        <time>2026-03-22T09:49:40Z</time>
      </trkpt>
      <trkpt lat="44.44454" lon="1.53288">
        <ele>150.6</ele>
        <time>2026-03-22T09:49:41Z</time>
      </trkpt>
      <trkpt lat="44.44452" lon="1.53288">
        <ele>150.8</ele>
        <time>2026-03-22T09:49:42Z</time>
      </trkpt>
      <trkpt lat="44.4445" lon="1.53288">
        <ele>151</ele>
        <time>2026-03-22T09:49:43Z</time>
      </trkpt>
      <trkpt lat="44.44447" lon="1.53288">
        <ele>151.2</ele>
        <time>2026-03-22T09:49:44Z</time>
      </trkpt>
      <trkpt lat="44.44445" lon="1.53288">
        <ele>151.2</ele>
        <time>2026-03-22T09:49:45Z</time>
      </trkpt>
      <trkpt lat="44.44443" lon="1.53289">
        <ele>151.4</ele>
        <time>2026-03-22T09:49:46Z</time>
      </trkpt>
      <trkpt lat="44.4444" lon="1.53291">
        <ele>151.8</ele>
        <time>2026-03-22T09:49:47Z</time>
      </trkpt>
      <trkpt lat="44.44437" lon="1.53292">
        <ele>152</ele>
        <time>2026-03-22T09:49:48Z</time>
      </trkpt>
      <trkpt lat="44.44435" lon="1.53293">
        <ele>152.2</ele>
        <time>2026-03-22T09:49:49Z</time>
      </trkpt>
      <trkpt lat="44.44432" lon="1.53294">
        <ele>152.4</ele>
        <time>2026-03-22T09:49:50Z</time>
      </trkpt>
      <trkpt lat="44.4443" lon="1.53295">
        <ele>152.4</ele>
        <time>2026-03-22T09:49:51Z</time>
      </trkpt>
      <trkpt lat="44.44428" lon="1.53296">
        <ele>152.6</ele>
        <time>2026-03-22T09:49:52Z</time>
      </trkpt>
      <trkpt lat="44.44426" lon="1.53296">
        <ele>152.8</ele>
        <time>2026-03-22T09:49:53Z</time>
      </trkpt>
      <trkpt lat="44.44424" lon="1.53298">
        <ele>153</ele>
        <time>2026-03-22T09:49:54Z</time>
      </trkpt>
      <trkpt lat="44.44422" lon="1.533">
        <ele>153.2</ele>
        <time>2026-03-22T09:49:55Z</time>
      </trkpt>
      <trkpt lat="44.44419" lon="1.53301">
        <ele>153.4</ele>
        <time>2026-03-22T09:49:56Z</time>
      </trkpt>
      <trkpt lat="44.44416" lon="1.53303">
        <ele>153.6</ele>
        <time>2026-03-22T09:49:57Z</time>
      </trkpt>
      <trkpt lat="44.44412" lon="1.53306">
        <ele>153.6</ele>
        <time>2026-03-22T09:49:58Z</time>
      </trkpt>
      <trkpt lat="44.44409" lon="1.5331">
        <ele>153.8</ele>
        <time>2026-03-22T09:49:59Z</time>
      </trkpt>
      <trkpt lat="44.44405" lon="1.53312">
        <ele>153.8</ele>
        <time>2026-03-22T09:50:00Z</time>
      </trkpt>
      <trkpt lat="44.44401" lon="1.53315">
        <ele>154</ele>
        <time>2026-03-22T09:50:01Z</time>
      </trkpt>
      <trkpt lat="44.44396" lon="1.53317">
        <ele>154</ele>
        <time>2026-03-22T09:50:02Z</time>
      </trkpt>
      <trkpt lat="44.44391" lon="1.53319">
        <ele>154.2</ele>
        <time>2026-03-22T09:50:03Z</time>
      </trkpt>
      <trkpt lat="44.44387" lon="1.5332">
        <ele>154.2</ele>
        <time>2026-03-22T09:50:04Z</time>
      </trkpt>
      <trkpt lat="44.44383" lon="1.53322">
        <ele>154.4</ele>
        <time>2026-03-22T09:50:05Z</time>
      </trkpt>
      <trkpt lat="44.44379" lon="1.53324">
        <ele>154.6</ele>
        <time>2026-03-22T09:50:06Z</time>
      </trkpt>
      <trkpt lat="44.44375" lon="1.53326">
        <ele>154.6</ele>
        <time>2026-03-22T09:50:07Z</time>
      </trkpt>
      <trkpt lat="44.44371" lon="1.53328">
        <ele>154.8</ele>
        <time>2026-03-22T09:50:08Z</time>
      </trkpt>
      <trkpt lat="44.44368" lon="1.53331">
        <ele>155</ele>
        <time>2026-03-22T09:50:09Z</time>
      </trkpt>
      <trkpt lat="44.44364" lon="1.53333">
        <ele>155.2</ele>
        <time>2026-03-22T09:50:10Z</time>
      </trkpt>
      <trkpt lat="44.44361" lon="1.53337">
        <ele>155.6</ele>
        <time>2026-03-22T09:50:11Z</time>
      </trkpt>
      <trkpt lat="44.44357" lon="1.53339">
        <ele>155.8</ele>
        <time>2026-03-22T09:50:12Z</time>
      </trkpt>
      <trkpt lat="44.44353" lon="1.53342">
        <ele>156</ele>
        <time>2026-03-22T09:50:13Z</time>
      </trkpt>
      <trkpt lat="44.4435" lon="1.53346">
        <ele>156.4</ele>
        <time>2026-03-22T09:50:14Z</time>
      </trkpt>
      <trkpt lat="44.44346" lon="1.5335">
        <ele>156.8</ele>
        <time>2026-03-22T09:50:15Z</time>
      </trkpt>
      <trkpt lat="44.44343" lon="1.53354">
        <ele>157</ele>
        <time>2026-03-22T09:50:16Z</time>
      </trkpt>
      <trkpt lat="44.4434" lon="1.53357">
        <ele>157.2</ele>
        <time>2026-03-22T09:50:17Z</time>
      </trkpt>
      <trkpt lat="44.44336" lon="1.53359">
        <ele>157.2</ele>
        <time>2026-03-22T09:50:18Z</time>
      </trkpt>
      <trkpt lat="44.44332" lon="1.53361">
        <ele>157.4</ele>
        <time>2026-03-22T09:50:19Z</time>
      </trkpt>
      <trkpt lat="44.44327" lon="1.53362">
        <ele>157.8</ele>
        <time>2026-03-22T09:50:20Z</time>
      </trkpt>
      <trkpt lat="44.44323" lon="1.53362">
        <ele>158</ele>
        <time>2026-03-22T09:50:21Z</time>
      </trkpt>
      <trkpt lat="44.44319" lon="1.53363">
        <ele>158.6</ele>
        <time>2026-03-22T09:50:22Z</time>
      </trkpt>
      <trkpt lat="44.44315" lon="1.53364">
        <ele>158.8</ele>
        <time>2026-03-22T09:50:23Z</time>
      </trkpt>
      <trkpt lat="44.44311" lon="1.53367">
        <ele>159</ele>
        <time>2026-03-22T09:50:24Z</time>
      </trkpt>
      <trkpt lat="44.44308" lon="1.53371">
        <ele>159.6</ele>
        <time>2026-03-22T09:50:25Z</time>
      </trkpt>
      <trkpt lat="44.44305" lon="1.53374">
        <ele>159.8</ele>
        <time>2026-03-22T09:50:26Z</time>
      </trkpt>
      <trkpt lat="44.44302" lon="1.53376">
        <ele>160.4</ele>
        <time>2026-03-22T09:50:27Z</time>
      </trkpt>
      <trkpt lat="44.443" lon="1.53378">
        <ele>160.8</ele>
        <time>2026-03-22T09:50:28Z</time>
      </trkpt>
      <trkpt lat="44.44297" lon="1.53379">
        <ele>161</ele>
        <time>2026-03-22T09:50:29Z</time>
      </trkpt>
      <trkpt lat="44.44294" lon="1.53381">
        <ele>161.2</ele>
        <time>2026-03-22T09:50:30Z</time>
      </trkpt>
      <trkpt lat="44.44292" lon="1.53382">
        <ele>161.4</ele>
        <time>2026-03-22T09:50:31Z</time>
      </trkpt>
      <trkpt lat="44.44289" lon="1.53385">
        <ele>161.8</ele>
        <time>2026-03-22T09:50:32Z</time>
      </trkpt>
      <trkpt lat="44.44287" lon="1.53387">
        <ele>162</ele>
        <time>2026-03-22T09:50:33Z</time>
      </trkpt>
      <trkpt lat="44.44286" lon="1.5339">
        <ele>162.6</ele>
        <time>2026-03-22T09:50:34Z</time>
      </trkpt>
      <trkpt lat="44.44284" lon="1.53393">
        <ele>163.2</ele>
        <time>2026-03-22T09:50:35Z</time>
      </trkpt>
      <trkpt lat="44.44282" lon="1.53395">
        <ele>163.8</ele>
        <time>2026-03-22T09:50:36Z</time>
      </trkpt>
      <trkpt lat="44.4428" lon="1.53397">
        <ele>164.2</ele>
        <time>2026-03-22T09:50:37Z</time>
      </trkpt>
      <trkpt lat="44.44278" lon="1.53398">
        <ele>164.8</ele>
        <time>2026-03-22T09:50:38Z</time>
      </trkpt>
      <trkpt lat="44.44275" lon="1.53399">
        <ele>165.4</ele>
        <time>2026-03-22T09:50:39Z</time>
      </trkpt>
      <trkpt lat="44.44272" lon="1.53399">
        <ele>166.2</ele>
        <time>2026-03-22T09:50:40Z</time>
      </trkpt>
      <trkpt lat="44.44268" lon="1.53397">
        <ele>166.6</ele>
        <time>2026-03-22T09:50:41Z</time>
      </trkpt>
      <trkpt lat="44.44265" lon="1.53394">
        <ele>167</ele>
        <time>2026-03-22T09:50:42Z</time>
      </trkpt>
      <trkpt lat="44.44261" lon="1.53391">
        <ele>167.6</ele>
        <time>2026-03-22T09:50:43Z</time>
      </trkpt>
      <trkpt lat="44.44257" lon="1.53389">
        <ele>168.2</ele>
        <time>2026-03-22T09:50:44Z</time>
      </trkpt>
      <trkpt lat="44.44254" lon="1.53387">
        <ele>168.8</ele>
        <time>2026-03-22T09:50:45Z</time>
      </trkpt>
      <trkpt lat="44.4425" lon="1.53384">
        <ele>169.2</ele>
        <time>2026-03-22T09:50:46Z</time>
      </trkpt>
      <trkpt lat="44.44246" lon="1.53383">
        <ele>169.6</ele>
        <time>2026-03-22T09:50:47Z</time>
      </trkpt>
      <trkpt lat="44.44241" lon="1.53381">
        <ele>169.8</ele>
        <time>2026-03-22T09:50:48Z</time>
      </trkpt>
      <trkpt lat="44.44237" lon="1.53379">
        <ele>170</ele>
        <time>2026-03-22T09:50:49Z</time>
      </trkpt>
      <trkpt lat="44.44233" lon="1.53377">
        <ele>170.2</ele>
        <time>2026-03-22T09:50:50Z</time>
      </trkpt>
      <trkpt lat="44.44229" lon="1.53376">
        <ele>170.4</ele>
        <time>2026-03-22T09:50:51Z</time>
      </trkpt>
      <trkpt lat="44.44225" lon="1.53374">
        <ele>170.6</ele>
        <time>2026-03-22T09:50:52Z</time>
      </trkpt>
      <trkpt lat="44.44222" lon="1.53372">
        <ele>170.8</ele>
        <time>2026-03-22T09:50:53Z</time>
      </trkpt>
      <trkpt lat="44.44218" lon="1.5337">
        <ele>170.8</ele>
        <time>2026-03-22T09:50:54Z</time>
      </trkpt>
      <trkpt lat="44.44214" lon="1.53369">
        <ele>170.8</ele>
        <time>2026-03-22T09:50:55Z</time>
      </trkpt>
      <trkpt lat="44.44209" lon="1.53367">
        <ele>171.2</ele>
        <time>2026-03-22T09:50:56Z</time>
      </trkpt>
      <trkpt lat="44.44205" lon="1.53366">
        <ele>171.6</ele>
        <time>2026-03-22T09:50:57Z</time>
      </trkpt>
      <trkpt lat="44.44201" lon="1.53364">
        <ele>172</ele>
        <time>2026-03-22T09:50:58Z</time>
      </trkpt>
      <trkpt lat="44.44196" lon="1.53362">
        <ele>172.4</ele>
        <time>2026-03-22T09:50:59Z</time>
      </trkpt>
      <trkpt lat="44.44192" lon="1.5336">
        <ele>172.6</ele>
        <time>2026-03-22T09:51:00Z</time>
      </trkpt>
      <trkpt lat="44.44187" lon="1.53359">
        <ele>173</ele>
        <time>2026-03-22T09:51:01Z</time>
      </trkpt>
      <trkpt lat="44.44182" lon="1.53357">
        <ele>173.2</ele>
        <time>2026-03-22T09:51:02Z</time>
      </trkpt>
      <trkpt lat="44.44178" lon="1.53356">
        <ele>173.4</ele>
        <time>2026-03-22T09:51:03Z</time>
      </trkpt>
      <trkpt lat="44.44173" lon="1.53355">
        <ele>173.8</ele>
        <time>2026-03-22T09:51:04Z</time>
      </trkpt>
      <trkpt lat="44.44169" lon="1.53354">
        <ele>173.8</ele>
        <time>2026-03-22T09:51:05Z</time>
      </trkpt>
      <trkpt lat="44.44164" lon="1.53353">
        <ele>174</ele>
        <time>2026-03-22T09:51:06Z</time>
      </trkpt>
      <trkpt lat="44.44159" lon="1.53351">
        <ele>174.2</ele>
        <time>2026-03-22T09:51:07Z</time>
      </trkpt>
      <trkpt lat="44.44155" lon="1.5335">
        <ele>174.6</ele>
        <time>2026-03-22T09:51:08Z</time>
      </trkpt>
      <trkpt lat="44.4415" lon="1.53349">
        <ele>175.2</ele>
        <time>2026-03-22T09:51:09Z</time>
      </trkpt>
      <trkpt lat="44.44146" lon="1.53348">
        <ele>175.4</ele>
        <time>2026-03-22T09:51:10Z</time>
      </trkpt>
      <trkpt lat="44.44141" lon="1.53346">
        <ele>175.6</ele>
        <time>2026-03-22T09:51:11Z</time>
      </trkpt>
      <trkpt lat="44.44137" lon="1.53345">
        <ele>175.8</ele>
        <time>2026-03-22T09:51:12Z</time>
      </trkpt>
      <trkpt lat="44.44132" lon="1.53343">
        <ele>176</ele>
        <time>2026-03-22T09:51:13Z</time>
      </trkpt>
      <trkpt lat="44.44127" lon="1.53341">
        <ele>176.2</ele>
        <time>2026-03-22T09:51:14Z</time>
      </trkpt>
      <trkpt lat="44.44122" lon="1.53339">
        <ele>176.4</ele>
        <time>2026-03-22T09:51:15Z</time>
      </trkpt>
      <trkpt lat="44.44118" lon="1.53337">
        <ele>176.6</ele>
        <time>2026-03-22T09:51:16Z</time>
      </trkpt>
      <trkpt lat="44.44113" lon="1.53335">
        <ele>177.4</ele>
        <time>2026-03-22T09:51:17Z</time>
      </trkpt>
      <trkpt lat="44.44108" lon="1.53333">
        <ele>177.8</ele>
        <time>2026-03-22T09:51:18Z</time>
      </trkpt>
      <trkpt lat="44.44103" lon="1.53331">
        <ele>178</ele>
        <time>2026-03-22T09:51:19Z</time>
      </trkpt>
      <trkpt lat="44.44099" lon="1.53329">
        <ele>178.4</ele>
        <time>2026-03-22T09:51:20Z</time>
      </trkpt>
      <trkpt lat="44.44094" lon="1.53328">
        <ele>178.6</ele>
        <time>2026-03-22T09:51:21Z</time>
      </trkpt>
      <trkpt lat="44.4409" lon="1.53327">
        <ele>178.8</ele>
        <time>2026-03-22T09:51:22Z</time>
      </trkpt>
      <trkpt lat="44.44086" lon="1.53327">
        <ele>179</ele>
        <time>2026-03-22T09:51:23Z</time>
      </trkpt>
      <trkpt lat="44.44081" lon="1.53327">
        <ele>179.2</ele>
        <time>2026-03-22T09:51:24Z</time>
      </trkpt>
      <trkpt lat="44.44077" lon="1.53328">
        <ele>179.4</ele>
        <time>2026-03-22T09:51:25Z</time>
      </trkpt>
      <trkpt lat="44.44073" lon="1.53331">
        <ele>179.6</ele>
        <time>2026-03-22T09:51:26Z</time>
      </trkpt>
      <trkpt lat="44.4407" lon="1.53334">
        <ele>179.8</ele>
        <time>2026-03-22T09:51:27Z</time>
      </trkpt>
      <trkpt lat="44.44066" lon="1.53338">
        <ele>180</ele>
        <time>2026-03-22T09:51:28Z</time>
      </trkpt>
      <trkpt lat="44.44063" lon="1.53343">
        <ele>180.4</ele>
        <time>2026-03-22T09:51:29Z</time>
      </trkpt>
      <trkpt lat="44.4406" lon="1.53347">
        <ele>180.8</ele>
        <time>2026-03-22T09:51:30Z</time>
      </trkpt>
      <trkpt lat="44.44056" lon="1.53352">
        <ele>181.4</ele>
        <time>2026-03-22T09:51:31Z</time>
      </trkpt>
      <trkpt lat="44.44053" lon="1.53356">
        <ele>181.8</ele>
        <time>2026-03-22T09:51:32Z</time>
      </trkpt>
      <trkpt lat="44.44049" lon="1.53361">
        <ele>182</ele>
        <time>2026-03-22T09:51:33Z</time>
      </trkpt>
      <trkpt lat="44.44045" lon="1.53365">
        <ele>182.2</ele>
        <time>2026-03-22T09:51:34Z</time>
      </trkpt>
      <trkpt lat="44.44041" lon="1.53369">
        <ele>182.8</ele>
        <time>2026-03-22T09:51:35Z</time>
      </trkpt>
      <trkpt lat="44.44038" lon="1.53374">
        <ele>183.2</ele>
        <time>2026-03-22T09:51:36Z</time>
      </trkpt>
      <trkpt lat="44.44035" lon="1.53378">
        <ele>183.4</ele>
        <time>2026-03-22T09:51:37Z</time>
      </trkpt>
      <trkpt lat="44.44031" lon="1.53382">
        <ele>183.8</ele>
        <time>2026-03-22T09:51:38Z</time>
      </trkpt>
      <trkpt lat="44.44027" lon="1.53386">
        <ele>184.2</ele>
        <time>2026-03-22T09:51:39Z</time>
      </trkpt>
      <trkpt lat="44.44023" lon="1.53389">
        <ele>184.4</ele>
        <time>2026-03-22T09:51:40Z</time>
      </trkpt>
      <trkpt lat="44.44019" lon="1.53393">
        <ele>184.6</ele>
        <time>2026-03-22T09:51:41Z</time>
      </trkpt>
      <trkpt lat="44.44015" lon="1.53395">
        <ele>184.8</ele>
        <time>2026-03-22T09:51:42Z</time>
      </trkpt>
      <trkpt lat="44.4401" lon="1.53398">
        <ele>185</ele>
        <time>2026-03-22T09:51:43Z</time>
      </trkpt>
      <trkpt lat="44.44006" lon="1.53401">
        <ele>185</ele>
        <time>2026-03-22T09:51:44Z</time>
      </trkpt>
      <trkpt lat="44.44002" lon="1.53405">
        <ele>185.2</ele>
        <time>2026-03-22T09:51:45Z</time>
      </trkpt>
      <trkpt lat="44.43997" lon="1.53408">
        <ele>185.4</ele>
        <time>2026-03-22T09:51:46Z</time>
      </trkpt>
      <trkpt lat="44.43993" lon="1.53412">
        <ele>185.4</ele>
        <time>2026-03-22T09:51:47Z</time>
      </trkpt>
      <trkpt lat="44.43989" lon="1.53415">
        <ele>185.6</ele>
        <time>2026-03-22T09:51:48Z</time>
      </trkpt>
      <trkpt lat="44.43985" lon="1.53418">
        <ele>185.8</ele>
        <time>2026-03-22T09:51:49Z</time>
      </trkpt>
      <trkpt lat="44.43981" lon="1.53422">
        <ele>186</ele>
        <time>2026-03-22T09:51:50Z</time>
      </trkpt>
      <trkpt lat="44.43977" lon="1.53426">
        <ele>186</ele>
        <time>2026-03-22T09:51:51Z</time>
      </trkpt>
      <trkpt lat="44.43974" lon="1.53429">
        <ele>186.2</ele>
        <time>2026-03-22T09:51:52Z</time>
      </trkpt>
      <trkpt lat="44.43971" lon="1.53432">
        <ele>186.4</ele>
        <time>2026-03-22T09:51:53Z</time>
      </trkpt>
      <trkpt lat="44.43968" lon="1.53436">
        <ele>186.6</ele>
        <time>2026-03-22T09:51:54Z</time>
      </trkpt>
      <trkpt lat="44.43964" lon="1.53439">
        <ele>186.8</ele>
        <time>2026-03-22T09:51:55Z</time>
      </trkpt>
      <trkpt lat="44.43961" lon="1.53444">
        <ele>187</ele>
        <time>2026-03-22T09:51:56Z</time>
      </trkpt>
      <trkpt lat="44.43958" lon="1.53449">
        <ele>187.4</ele>
        <time>2026-03-22T09:51:57Z</time>
      </trkpt>
      <trkpt lat="44.43956" lon="1.53455">
        <ele>187.6</ele>
        <time>2026-03-22T09:51:58Z</time>
      </trkpt>
      <trkpt lat="44.43954" lon="1.5346">
        <ele>188.2</ele>
        <time>2026-03-22T09:51:59Z</time>
      </trkpt>
      <trkpt lat="44.43951" lon="1.53466">
        <ele>188.6</ele>
        <time>2026-03-22T09:52:00Z</time>
      </trkpt>
      <trkpt lat="44.43949" lon="1.53471">
        <ele>189.2</ele>
        <time>2026-03-22T09:52:01Z</time>
      </trkpt>
      <trkpt lat="44.43947" lon="1.53476">
        <ele>189.4</ele>
        <time>2026-03-22T09:52:02Z</time>
      </trkpt>
      <trkpt lat="44.43944" lon="1.53481">
        <ele>190</ele>
        <time>2026-03-22T09:52:03Z</time>
      </trkpt>
      <trkpt lat="44.43942" lon="1.53486">
        <ele>190.2</ele>
        <time>2026-03-22T09:52:04Z</time>
      </trkpt>
      <trkpt lat="44.4394" lon="1.53491">
        <ele>190.4</ele>
        <time>2026-03-22T09:52:05Z</time>
      </trkpt>
      <trkpt lat="44.43937" lon="1.53495">
        <ele>190.6</ele>
        <time>2026-03-22T09:52:06Z</time>
      </trkpt>
      <trkpt lat="44.43935" lon="1.535">
        <ele>190.6</ele>
        <time>2026-03-22T09:52:07Z</time>
      </trkpt>
      <trkpt lat="44.43932" lon="1.53504">
        <ele>190.8</ele>
        <time>2026-03-22T09:52:08Z</time>
      </trkpt>
      <trkpt lat="44.43928" lon="1.53509">
        <ele>191.4</ele>
        <time>2026-03-22T09:52:09Z</time>
      </trkpt>
      <trkpt lat="44.43925" lon="1.53513">
        <ele>191.6</ele>
        <time>2026-03-22T09:52:10Z</time>
      </trkpt>
      <trkpt lat="44.43922" lon="1.53517">
        <ele>192.2</ele>
        <time>2026-03-22T09:52:11Z</time>
      </trkpt>
      <trkpt lat="44.43918" lon="1.53521">
        <ele>192.6</ele>
        <time>2026-03-22T09:52:12Z</time>
      </trkpt>
      <trkpt lat="44.43915" lon="1.53524">
        <ele>193</ele>
        <time>2026-03-22T09:52:13Z</time>
      </trkpt>
      <trkpt lat="44.43911" lon="1.53528">
        <ele>193.2</ele>
        <time>2026-03-22T09:52:14Z</time>
      </trkpt>
      <trkpt lat="44.43907" lon="1.5353">
        <ele>193.6</ele>
        <time>2026-03-22T09:52:15Z</time>
      </trkpt>
      <trkpt lat="44.43903" lon="1.53533">
        <ele>194</ele>
        <time>2026-03-22T09:52:16Z</time>
      </trkpt>
      <trkpt lat="44.43899" lon="1.53537">
        <ele>194.2</ele>
        <time>2026-03-22T09:52:17Z</time>
      </trkpt>
      <trkpt lat="44.43895" lon="1.5354">
        <ele>194.6</ele>
        <time>2026-03-22T09:52:18Z</time>
      </trkpt>
      <trkpt lat="44.43892" lon="1.53543">
        <ele>194.8</ele>
        <time>2026-03-22T09:52:19Z</time>
      </trkpt>
      <trkpt lat="44.43888" lon="1.53546">
        <ele>195</ele>
        <time>2026-03-22T09:52:20Z</time>
      </trkpt>
      <trkpt lat="44.43884" lon="1.53548">
        <ele>195.4</ele>
        <time>2026-03-22T09:52:21Z</time>
      </trkpt>
      <trkpt lat="44.4388" lon="1.5355">
        <ele>195.6</ele>
        <time>2026-03-22T09:52:22Z</time>
      </trkpt>
      <trkpt lat="44.43877" lon="1.53552">
        <ele>196.2</ele>
        <time>2026-03-22T09:52:23Z</time>
      </trkpt>
      <trkpt lat="44.43873" lon="1.53555">
        <ele>196.4</ele>
        <time>2026-03-22T09:52:24Z</time>
      </trkpt>
      <trkpt lat="44.43869" lon="1.53557">
        <ele>196.8</ele>
        <time>2026-03-22T09:52:25Z</time>
      </trkpt>
      <trkpt lat="44.43866" lon="1.53559">
        <ele>197.2</ele>
        <time>2026-03-22T09:52:26Z</time>
      </trkpt>
      <trkpt lat="44.43862" lon="1.53561">
        <ele>197.6</ele>
        <time>2026-03-22T09:52:27Z</time>
      </trkpt>
      <trkpt lat="44.43857" lon="1.53562">
        <ele>197.8</ele>
        <time>2026-03-22T09:52:28Z</time>
      </trkpt>
      <trkpt lat="44.43853" lon="1.53563">
        <ele>198</ele>
        <time>2026-03-22T09:52:29Z</time>
      </trkpt>
      <trkpt lat="44.43849" lon="1.53564">
        <ele>198.6</ele>
        <time>2026-03-22T09:52:30Z</time>
      </trkpt>
      <trkpt lat="44.43844" lon="1.53565">
        <ele>199.2</ele>
        <time>2026-03-22T09:52:31Z</time>
      </trkpt>
      <trkpt lat="44.4384" lon="1.53565">
        <ele>199.6</ele>
        <time>2026-03-22T09:52:32Z</time>
      </trkpt>
      <trkpt lat="44.43836" lon="1.53567">
        <ele>199.8</ele>
        <time>2026-03-22T09:52:33Z</time>
      </trkpt>
      <trkpt lat="44.43832" lon="1.53567">
        <ele>200.2</ele>
        <time>2026-03-22T09:52:34Z</time>
      </trkpt>
      <trkpt lat="44.43828" lon="1.53569">
        <ele>200.6</ele>
        <time>2026-03-22T09:52:35Z</time>
      </trkpt>
      <trkpt lat="44.43824" lon="1.5357">
        <ele>201</ele>
        <time>2026-03-22T09:52:36Z</time>
      </trkpt>
      <trkpt lat="44.43821" lon="1.53572">
        <ele>201.4</ele>
        <time>2026-03-22T09:52:37Z</time>
      </trkpt>
      <trkpt lat="44.43817" lon="1.53574">
        <ele>201.6</ele>
        <time>2026-03-22T09:52:38Z</time>
      </trkpt>
      <trkpt lat="44.43813" lon="1.53575">
        <ele>202</ele>
        <time>2026-03-22T09:52:39Z</time>
      </trkpt>
      <trkpt lat="44.43809" lon="1.53577">
        <ele>202.4</ele>
        <time>2026-03-22T09:52:40Z</time>
      </trkpt>
      <trkpt lat="44.43805" lon="1.53578">
        <ele>202.8</ele>
        <time>2026-03-22T09:52:41Z</time>
      </trkpt>
      <trkpt lat="44.43801" lon="1.53579">
        <ele>203.2</ele>
        <time>2026-03-22T09:52:42Z</time>
      </trkpt>
      <trkpt lat="44.43798" lon="1.5358">
        <ele>203.8</ele>
        <time>2026-03-22T09:52:43Z</time>
      </trkpt>
      <trkpt lat="44.43794" lon="1.5358">
        <ele>204.4</ele>
        <time>2026-03-22T09:52:44Z</time>
      </trkpt>
      <trkpt lat="44.4379" lon="1.5358">
        <ele>205</ele>
        <time>2026-03-22T09:52:45Z</time>
      </trkpt>
      <trkpt lat="44.43786" lon="1.5358">
        <ele>205</ele>
        <time>2026-03-22T09:52:46Z</time>
      </trkpt>
      <trkpt lat="44.43782" lon="1.5358">
        <ele>205.2</ele>
        <time>2026-03-22T09:52:47Z</time>
      </trkpt>
      <trkpt lat="44.43778" lon="1.53579">
        <ele>205.6</ele>
        <time>2026-03-22T09:52:48Z</time>
      </trkpt>
      <trkpt lat="44.43775" lon="1.53579">
        <ele>206</ele>
        <time>2026-03-22T09:52:49Z</time>
      </trkpt>
      <trkpt lat="44.43771" lon="1.53578">
        <ele>206.4</ele>
        <time>2026-03-22T09:52:50Z</time>
      </trkpt>
      <trkpt lat="44.43767" lon="1.53577">
        <ele>206.8</ele>
        <time>2026-03-22T09:52:51Z</time>
      </trkpt>
      <trkpt lat="44.43764" lon="1.53576">
        <ele>207.2</ele>
        <time>2026-03-22T09:52:52Z</time>
      </trkpt>
      <trkpt lat="44.4376" lon="1.53576">
        <ele>207.6</ele>
        <time>2026-03-22T09:52:53Z</time>
      </trkpt>
      <trkpt lat="44.43758" lon="1.53576">
        <ele>208</ele>
        <time>2026-03-22T09:52:54Z</time>
      </trkpt>
      <trkpt lat="44.43755" lon="1.53575">
        <ele>208.4</ele>
        <time>2026-03-22T09:52:55Z</time>
      </trkpt>
      <trkpt lat="44.43752" lon="1.53574">
        <ele>208.6</ele>
        <time>2026-03-22T09:52:56Z</time>
      </trkpt>
      <trkpt lat="44.43749" lon="1.53573">
        <ele>209.4</ele>
        <time>2026-03-22T09:52:57Z</time>
      </trkpt>
      <trkpt lat="44.43747" lon="1.53572">
        <ele>210</ele>
        <time>2026-03-22T09:52:58Z</time>
      </trkpt>
      <trkpt lat="44.43744" lon="1.53571">
        <ele>210.2</ele>
        <time>2026-03-22T09:52:59Z</time>
      </trkpt>
      <trkpt lat="44.43741" lon="1.5357">
        <ele>210.6</ele>
        <time>2026-03-22T09:53:00Z</time>
      </trkpt>
      <trkpt lat="44.43738" lon="1.5357">
        <ele>211.2</ele>
        <time>2026-03-22T09:53:01Z</time>
      </trkpt>
      <trkpt lat="44.43736" lon="1.53571">
        <ele>211.6</ele>
        <time>2026-03-22T09:53:02Z</time>
      </trkpt>
      <trkpt lat="44.43734" lon="1.53573">
        <ele>212</ele>
        <time>2026-03-22T09:53:03Z</time>
      </trkpt>
      <trkpt lat="44.43732" lon="1.53575">
        <ele>212.4</ele>
        <time>2026-03-22T09:53:04Z</time>
      </trkpt>
      <trkpt lat="44.4373" lon="1.53578">
        <ele>213</ele>
        <time>2026-03-22T09:53:05Z</time>
      </trkpt>
      <trkpt lat="44.43729" lon="1.53581">
        <ele>213.4</ele>
        <time>2026-03-22T09:53:06Z</time>
      </trkpt>
      <trkpt lat="44.43727" lon="1.53583">
        <ele>214</ele>
        <time>2026-03-22T09:53:07Z</time>
      </trkpt>
      <trkpt lat="44.43726" lon="1.53586">
        <ele>214.4</ele>
        <time>2026-03-22T09:53:08Z</time>
      </trkpt>
      <trkpt lat="44.43724" lon="1.53589">
        <ele>215</ele>
        <time>2026-03-22T09:53:09Z</time>
      </trkpt>
      <trkpt lat="44.43722" lon="1.53592">
        <ele>215.8</ele>
        <time>2026-03-22T09:53:10Z</time>
      </trkpt>
      <trkpt lat="44.43721" lon="1.53594">
        <ele>216.2</ele>
        <time>2026-03-22T09:53:11Z</time>
      </trkpt>
      <trkpt lat="44.43719" lon="1.53597">
        <ele>216.8</ele>
        <time>2026-03-22T09:53:12Z</time>
      </trkpt>
      <trkpt lat="44.43717" lon="1.53598">
        <ele>217.4</ele>
        <time>2026-03-22T09:53:13Z</time>
      </trkpt>
      <trkpt lat="44.43715" lon="1.53599">
        <ele>217.8</ele>
        <time>2026-03-22T09:53:14Z</time>
      </trkpt>
      <trkpt lat="44.43713" lon="1.53599">
        <ele>218.2</ele>
        <time>2026-03-22T09:53:15Z</time>
      </trkpt>
      <trkpt lat="44.43711" lon="1.53599">
        <ele>218.6</ele>
        <time>2026-03-22T09:53:16Z</time>
      </trkpt>
      <trkpt lat="44.43709" lon="1.53599">
        <ele>219.2</ele>
        <time>2026-03-22T09:53:17Z</time>
      </trkpt>
      <trkpt lat="44.43706" lon="1.53599">
        <ele>219.6</ele>
        <time>2026-03-22T09:53:18Z</time>
      </trkpt>
      <trkpt lat="44.43704" lon="1.53601">
        <ele>220.2</ele>
        <time>2026-03-22T09:53:19Z</time>
      </trkpt>
      <trkpt lat="44.43702" lon="1.53602">
        <ele>220.6</ele>
        <time>2026-03-22T09:53:20Z</time>
      </trkpt>
      <trkpt lat="44.437" lon="1.53605">
        <ele>221</ele>
        <time>2026-03-22T09:53:21Z</time>
      </trkpt>
      <trkpt lat="44.43697" lon="1.53607">
        <ele>221.6</ele>
        <time>2026-03-22T09:53:22Z</time>
      </trkpt>
      <trkpt lat="44.43695" lon="1.53609">
        <ele>222</ele>
        <time>2026-03-22T09:53:23Z</time>
      </trkpt>
      <trkpt lat="44.43692" lon="1.53611">
        <ele>222.4</ele>
        <time>2026-03-22T09:53:24Z</time>
      </trkpt>
      <trkpt lat="44.4369" lon="1.53613">
        <ele>223</ele>
        <time>2026-03-22T09:53:25Z</time>
      </trkpt>
      <trkpt lat="44.43688" lon="1.53616">
        <ele>223.4</ele>
        <time>2026-03-22T09:53:26Z</time>
      </trkpt>
      <trkpt lat="44.43686" lon="1.53618">
        <ele>223.8</ele>
        <time>2026-03-22T09:53:27Z</time>
      </trkpt>
      <trkpt lat="44.43684" lon="1.53621">
        <ele>224.4</ele>
        <time>2026-03-22T09:53:28Z</time>
      </trkpt>
      <trkpt lat="44.43681" lon="1.53623">
        <ele>224.6</ele>
        <time>2026-03-22T09:53:29Z</time>
      </trkpt>
      <trkpt lat="44.4368" lon="1.53626">
        <ele>225</ele>
        <time>2026-03-22T09:53:30Z</time>
      </trkpt>
      <trkpt lat="44.43677" lon="1.53628">
        <ele>225.6</ele>
        <time>2026-03-22T09:53:31Z</time>
      </trkpt>
      <trkpt lat="44.43675" lon="1.53631">
        <ele>226.2</ele>
        <time>2026-03-22T09:53:32Z</time>
      </trkpt>
      <trkpt lat="44.43673" lon="1.53634">
        <ele>226.6</ele>
        <time>2026-03-22T09:53:33Z</time>
      </trkpt>
      <trkpt lat="44.43671" lon="1.53638">
        <ele>227.2</ele>
        <time>2026-03-22T09:53:34Z</time>
      </trkpt>
      <trkpt lat="44.43669" lon="1.53641">
        <ele>227.8</ele>
        <time>2026-03-22T09:53:35Z</time>
      </trkpt>
      <trkpt lat="44.43666" lon="1.53644">
        <ele>228</ele>
        <time>2026-03-22T09:53:36Z</time>
      </trkpt>
      <trkpt lat="44.43665" lon="1.53648">
        <ele>228.4</ele>
        <time>2026-03-22T09:53:37Z</time>
      </trkpt>
      <trkpt lat="44.43663" lon="1.53651">
        <ele>228.6</ele>
        <time>2026-03-22T09:53:38Z</time>
      </trkpt>
      <trkpt lat="44.43661" lon="1.53654">
        <ele>228.8</ele>
        <time>2026-03-22T09:53:39Z</time>
      </trkpt>
      <trkpt lat="44.43659" lon="1.53657">
        <ele>229</ele>
        <time>2026-03-22T09:53:40Z</time>
      </trkpt>
      <trkpt lat="44.43657" lon="1.5366">
        <ele>229.2</ele>
        <time>2026-03-22T09:53:41Z</time>
      </trkpt>
      <trkpt lat="44.43655" lon="1.53663">
        <ele>229.4</ele>
        <time>2026-03-22T09:53:42Z</time>
      </trkpt>
      <trkpt lat="44.43653" lon="1.53666">
        <ele>229.6</ele>
        <time>2026-03-22T09:53:43Z</time>
      </trkpt>
      <trkpt lat="44.43651" lon="1.53669">
        <ele>230.4</ele>
        <time>2026-03-22T09:53:44Z</time>
      </trkpt>
      <trkpt lat="44.43648" lon="1.53673">
        <ele>230.8</ele>
        <time>2026-03-22T09:53:45Z</time>
      </trkpt>
      <trkpt lat="44.43646" lon="1.53676">
        <ele>231</ele>
        <time>2026-03-22T09:53:46Z</time>
      </trkpt>
      <trkpt lat="44.43644" lon="1.53679">
        <ele>231.4</ele>
        <time>2026-03-22T09:53:47Z</time>
      </trkpt>
      <trkpt lat="44.43642" lon="1.53683">
        <ele>231.4</ele>
        <time>2026-03-22T09:53:48Z</time>
      </trkpt>
      <trkpt lat="44.43639" lon="1.53687">
        <ele>231.6</ele>
        <time>2026-03-22T09:53:49Z</time>
      </trkpt>
      <trkpt lat="44.43637" lon="1.53691">
        <ele>232</ele>
        <time>2026-03-22T09:53:50Z</time>
      </trkpt>
      <trkpt lat="44.43638" lon="1.53695">
        <ele>232.2</ele>
        <time>2026-03-22T09:53:51Z</time>
      </trkpt>
      <trkpt lat="44.4364" lon="1.53699">
        <ele>232.4</ele>
        <time>2026-03-22T09:53:52Z</time>
      </trkpt>
      <trkpt lat="44.43643" lon="1.53701">
        <ele>232.6</ele>
        <time>2026-03-22T09:53:53Z</time>
      </trkpt>
      <trkpt lat="44.43648" lon="1.53702">
        <ele>232.6</ele>
        <time>2026-03-22T09:53:54Z</time>
      </trkpt>
      <trkpt lat="44.43653" lon="1.53703">
        <ele>232.6</ele>
        <time>2026-03-22T09:53:55Z</time>
      </trkpt>
      <trkpt lat="44.43658" lon="1.53705">
        <ele>232.6</ele>
        <time>2026-03-22T09:53:56Z</time>
      </trkpt>
      <trkpt lat="44.43664" lon="1.53707">
        <ele>232.6</ele>
        <time>2026-03-22T09:53:57Z</time>
      </trkpt>
      <trkpt lat="44.4367" lon="1.53709">
        <ele>232.6</ele>
        <time>2026-03-22T09:53:58Z</time>
      </trkpt>
      <trkpt lat="44.43675" lon="1.53711">
        <ele>232.6</ele>
        <time>2026-03-22T09:53:59Z</time>
      </trkpt>
      <trkpt lat="44.43681" lon="1.53714">
        <ele>232.6</ele>
        <time>2026-03-22T09:54:00Z</time>
      </trkpt>
      <trkpt lat="44.43686" lon="1.53716">
        <ele>232.8</ele>
        <time>2026-03-22T09:54:01Z</time>
      </trkpt>
      <trkpt lat="44.43691" lon="1.53719">
        <ele>232.6</ele>
        <time>2026-03-22T09:54:02Z</time>
      </trkpt>
      <trkpt lat="44.43697" lon="1.53722">
        <ele>232.6</ele>
        <time>2026-03-22T09:54:03Z</time>
      </trkpt>
      <trkpt lat="44.43702" lon="1.53725">
        <ele>232.4</ele>
        <time>2026-03-22T09:54:04Z</time>
      </trkpt>
      <trkpt lat="44.43708" lon="1.53728">
        <ele>232.2</ele>
        <time>2026-03-22T09:54:05Z</time>
      </trkpt>
      <trkpt lat="44.43713" lon="1.53731">
        <ele>232</ele>
        <time>2026-03-22T09:54:06Z</time>
      </trkpt>
      <trkpt lat="44.43718" lon="1.53734">
        <ele>231.8</ele>
        <time>2026-03-22T09:54:07Z</time>
      </trkpt>
      <trkpt lat="44.43724" lon="1.53737">
        <ele>231.8</ele>
        <time>2026-03-22T09:54:08Z</time>
      </trkpt>
      <trkpt lat="44.43729" lon="1.5374">
        <ele>231.6</ele>
        <time>2026-03-22T09:54:09Z</time>
      </trkpt>
      <trkpt lat="44.43734" lon="1.53742">
        <ele>231.4</ele>
        <time>2026-03-22T09:54:10Z</time>
      </trkpt>
      <trkpt lat="44.43739" lon="1.53745">
        <ele>231.4</ele>
        <time>2026-03-22T09:54:11Z</time>
      </trkpt>
      <trkpt lat="44.43744" lon="1.53747">
        <ele>231.4</ele>
        <time>2026-03-22T09:54:12Z</time>
      </trkpt>
      <trkpt lat="44.43749" lon="1.5375">
        <ele>231.2</ele>
        <time>2026-03-22T09:54:13Z</time>
      </trkpt>
      <trkpt lat="44.43754" lon="1.53752">
        <ele>231.2</ele>
        <time>2026-03-22T09:54:14Z</time>
      </trkpt>
      <trkpt lat="44.43759" lon="1.53754">
        <ele>231.2</ele>
        <time>2026-03-22T09:54:15Z</time>
      </trkpt>
      <trkpt lat="44.43765" lon="1.53756">
        <ele>231.2</ele>
        <time>2026-03-22T09:54:16Z</time>
      </trkpt>
      <trkpt lat="44.4377" lon="1.53757">
        <ele>231.2</ele>
        <time>2026-03-22T09:54:17Z</time>
      </trkpt>
      <trkpt lat="44.43809" lon="1.53762">
        <ele>232.4</ele>
        <time>2026-03-22T09:54:24Z</time>
      </trkpt>
      <trkpt lat="44.43824" lon="1.53768">
        <ele>233.2</ele>
        <time>2026-03-22T09:54:27Z</time>
      </trkpt>
      <trkpt lat="44.43829" lon="1.53771">
        <ele>233.4</ele>
        <time>2026-03-22T09:54:28Z</time>
      </trkpt>
      <trkpt lat="44.43839" lon="1.53775">
        <ele>234</ele>
        <time>2026-03-22T09:54:30Z</time>
      </trkpt>
      <trkpt lat="44.43844" lon="1.53777">
        <ele>234.4</ele>
        <time>2026-03-22T09:54:31Z</time>
      </trkpt>
      <trkpt lat="44.43849" lon="1.5378">
        <ele>234.6</ele>
        <time>2026-03-22T09:54:32Z</time>
      </trkpt>
      <trkpt lat="44.43853" lon="1.53782">
        <ele>235</ele>
        <time>2026-03-22T09:54:33Z</time>
      </trkpt>
      <trkpt lat="44.43858" lon="1.53784">
        <ele>235.4</ele>
        <time>2026-03-22T09:54:34Z</time>
      </trkpt>
      <trkpt lat="44.43863" lon="1.53786">
        <ele>235.8</ele>
        <time>2026-03-22T09:54:35Z</time>
      </trkpt>
      <trkpt lat="44.43867" lon="1.53788">
        <ele>236.2</ele>
        <time>2026-03-22T09:54:36Z</time>
      </trkpt>
      <trkpt lat="44.43872" lon="1.5379">
        <ele>236.6</ele>
        <time>2026-03-22T09:54:37Z</time>
      </trkpt>
      <trkpt lat="44.43876" lon="1.53792">
        <ele>237</ele>
        <time>2026-03-22T09:54:38Z</time>
      </trkpt>
      <trkpt lat="44.43881" lon="1.53794">
        <ele>237.8</ele>
        <time>2026-03-22T09:54:39Z</time>
      </trkpt>
      <trkpt lat="44.43885" lon="1.53796">
        <ele>238.2</ele>
        <time>2026-03-22T09:54:40Z</time>
      </trkpt>
      <trkpt lat="44.4389" lon="1.53797">
        <ele>238.4</ele>
        <time>2026-03-22T09:54:41Z</time>
      </trkpt>
      <trkpt lat="44.43894" lon="1.53799">
        <ele>239</ele>
        <time>2026-03-22T09:54:42Z</time>
      </trkpt>
      <trkpt lat="44.43898" lon="1.53801">
        <ele>239.4</ele>
        <time>2026-03-22T09:54:43Z</time>
      </trkpt>
      <trkpt lat="44.43903" lon="1.53802">
        <ele>239.8</ele>
        <time>2026-03-22T09:54:44Z</time>
      </trkpt>
      <trkpt lat="44.43908" lon="1.53804">
        <ele>240.2</ele>
        <time>2026-03-22T09:54:45Z</time>
      </trkpt>
      <trkpt lat="44.43912" lon="1.53806">
        <ele>240.6</ele>
        <time>2026-03-22T09:54:46Z</time>
      </trkpt>
      <trkpt lat="44.43917" lon="1.53808">
        <ele>241</ele>
        <time>2026-03-22T09:54:47Z</time>
      </trkpt>
      <trkpt lat="44.43921" lon="1.53809">
        <ele>241.2</ele>
        <time>2026-03-22T09:54:48Z</time>
      </trkpt>
      <trkpt lat="44.43926" lon="1.5381">
        <ele>241.8</ele>
        <time>2026-03-22T09:54:49Z</time>
      </trkpt>
      <trkpt lat="44.43931" lon="1.53812">
        <ele>242.2</ele>
        <time>2026-03-22T09:54:50Z</time>
      </trkpt>
      <trkpt lat="44.43935" lon="1.53812">
        <ele>242.6</ele>
        <time>2026-03-22T09:54:51Z</time>
      </trkpt>
      <trkpt lat="44.43941" lon="1.53813">
        <ele>243</ele>
        <time>2026-03-22T09:54:52Z</time>
      </trkpt>
      <trkpt lat="44.43945" lon="1.53813">
        <ele>243.4</ele>
        <time>2026-03-22T09:54:53Z</time>
      </trkpt>
      <trkpt lat="44.43949" lon="1.53813">
        <ele>243.6</ele>
        <time>2026-03-22T09:54:54Z</time>
      </trkpt>
      <trkpt lat="44.43954" lon="1.53813">
        <ele>244.2</ele>
        <time>2026-03-22T09:54:55Z</time>
      </trkpt>
      <trkpt lat="44.43959" lon="1.53813">
        <ele>244.8</ele>
        <time>2026-03-22T09:54:56Z</time>
      </trkpt>
      <trkpt lat="44.43964" lon="1.53813">
        <ele>245.2</ele>
        <time>2026-03-22T09:54:57Z</time>
      </trkpt>
      <trkpt lat="44.4397" lon="1.53813">
        <ele>245.6</ele>
        <time>2026-03-22T09:54:58Z</time>
      </trkpt>
      <trkpt lat="44.43975" lon="1.53814">
        <ele>246.2</ele>
        <time>2026-03-22T09:54:59Z</time>
      </trkpt>
      <trkpt lat="44.4398" lon="1.53814">
        <ele>246.6</ele>
        <time>2026-03-22T09:55:00Z</time>
      </trkpt>
      <trkpt lat="44.43985" lon="1.53815">
        <ele>247</ele>
        <time>2026-03-22T09:55:01Z</time>
      </trkpt>
      <trkpt lat="44.4399" lon="1.53815">
        <ele>247.2</ele>
        <time>2026-03-22T09:55:02Z</time>
      </trkpt>
      <trkpt lat="44.43994" lon="1.53816">
        <ele>247.6</ele>
        <time>2026-03-22T09:55:03Z</time>
      </trkpt>
      <trkpt lat="44.43999" lon="1.53817">
        <ele>248</ele>
        <time>2026-03-22T09:55:04Z</time>
      </trkpt>
      <trkpt lat="44.44004" lon="1.53818">
        <ele>248.2</ele>
        <time>2026-03-22T09:55:05Z</time>
      </trkpt>
      <trkpt lat="44.44009" lon="1.53819">
        <ele>248.4</ele>
        <time>2026-03-22T09:55:06Z</time>
      </trkpt>
      <trkpt lat="44.44014" lon="1.5382">
        <ele>248.6</ele>
        <time>2026-03-22T09:55:07Z</time>
      </trkpt>
      <trkpt lat="44.44019" lon="1.53821">
        <ele>249</ele>
        <time>2026-03-22T09:55:08Z</time>
      </trkpt>
      <trkpt lat="44.44024" lon="1.53821">
        <ele>249</ele>
        <time>2026-03-22T09:55:09Z</time>
      </trkpt>
      <trkpt lat="44.4403" lon="1.53822">
        <ele>249.2</ele>
        <time>2026-03-22T09:55:10Z</time>
      </trkpt>
      <trkpt lat="44.44034" lon="1.53822">
        <ele>249.2</ele>
        <time>2026-03-22T09:55:11Z</time>
      </trkpt>
      <trkpt lat="44.44039" lon="1.53822">
        <ele>249.4</ele>
        <time>2026-03-22T09:55:12Z</time>
      </trkpt>
      <trkpt lat="44.44046" lon="1.53823">
        <ele>249.4</ele>
        <time>2026-03-22T09:55:13Z</time>
      </trkpt>
      <trkpt lat="44.4405" lon="1.53823">
        <ele>249.4</ele>
        <time>2026-03-22T09:55:14Z</time>
      </trkpt>
      <trkpt lat="44.44056" lon="1.53822">
        <ele>249.4</ele>
        <time>2026-03-22T09:55:15Z</time>
      </trkpt>
      <trkpt lat="44.44061" lon="1.53821">
        <ele>249.4</ele>
        <time>2026-03-22T09:55:16Z</time>
      </trkpt>
      <trkpt lat="44.44067" lon="1.5382">
        <ele>249.4</ele>
        <time>2026-03-22T09:55:17Z</time>
      </trkpt>
      <trkpt lat="44.44072" lon="1.53819">
        <ele>249.4</ele>
        <time>2026-03-22T09:55:18Z</time>
      </trkpt>
      <trkpt lat="44.44078" lon="1.53818">
        <ele>249.4</ele>
        <time>2026-03-22T09:55:19Z</time>
      </trkpt>
      <trkpt lat="44.44084" lon="1.53816">
        <ele>249</ele>
        <time>2026-03-22T09:55:20Z</time>
      </trkpt>
      <trkpt lat="44.4409" lon="1.53813">
        <ele>248.8</ele>
        <time>2026-03-22T09:55:21Z</time>
      </trkpt>
      <trkpt lat="44.44095" lon="1.5381">
        <ele>248.6</ele>
        <time>2026-03-22T09:55:22Z</time>
      </trkpt>
      <trkpt lat="44.44101" lon="1.53806">
        <ele>248.4</ele>
        <time>2026-03-22T09:55:23Z</time>
      </trkpt>
      <trkpt lat="44.44107" lon="1.53802">
        <ele>248.2</ele>
        <time>2026-03-22T09:55:24Z</time>
      </trkpt>
      <trkpt lat="44.44113" lon="1.53797">
        <ele>248</ele>
        <time>2026-03-22T09:55:25Z</time>
      </trkpt>
      <trkpt lat="44.44119" lon="1.53793">
        <ele>247.8</ele>
        <time>2026-03-22T09:55:26Z</time>
      </trkpt>
      <trkpt lat="44.44125" lon="1.53789">
        <ele>247.6</ele>
        <time>2026-03-22T09:55:27Z</time>
      </trkpt>
      <trkpt lat="44.44132" lon="1.53786">
        <ele>247.2</ele>
        <time>2026-03-22T09:55:28Z</time>
      </trkpt>
      <trkpt lat="44.44145" lon="1.53778">
        <ele>246.4</ele>
        <time>2026-03-22T09:55:30Z</time>
      </trkpt>
      <trkpt lat="44.44159" lon="1.5377">
        <ele>246</ele>
        <time>2026-03-22T09:55:32Z</time>
      </trkpt>
      <trkpt lat="44.44175" lon="1.53763">
        <ele>245.2</ele>
        <time>2026-03-22T09:55:34Z</time>
      </trkpt>
      <trkpt lat="44.44182" lon="1.5376">
        <ele>244.6</ele>
        <time>2026-03-22T09:55:35Z</time>
      </trkpt>
      <trkpt lat="44.44189" lon="1.53757">
        <ele>243.8</ele>
        <time>2026-03-22T09:55:36Z</time>
      </trkpt>
      <trkpt lat="44.44195" lon="1.53754">
        <ele>243.4</ele>
        <time>2026-03-22T09:55:37Z</time>
      </trkpt>
      <trkpt lat="44.44201" lon="1.53752">
        <ele>243</ele>
        <time>2026-03-22T09:55:38Z</time>
      </trkpt>
      <trkpt lat="44.44206" lon="1.53749">
        <ele>242.2</ele>
        <time>2026-03-22T09:55:39Z</time>
      </trkpt>
      <trkpt lat="44.44208" lon="1.53749">
        <ele>241.6</ele>
        <time>2026-03-22T09:55:40Z</time>
      </trkpt>
      <trkpt lat="44.4421" lon="1.53751">
        <ele>241</ele>
        <time>2026-03-22T09:55:41Z</time>
      </trkpt>
      <trkpt lat="44.44212" lon="1.53755">
        <ele>240.2</ele>
        <time>2026-03-22T09:55:42Z</time>
      </trkpt>
      <trkpt lat="44.44214" lon="1.5376">
        <ele>239.6</ele>
        <time>2026-03-22T09:55:43Z</time>
      </trkpt>
      <trkpt lat="44.44215" lon="1.53775">
        <ele>238.2</ele>
        <time>2026-03-22T09:55:45Z</time>
      </trkpt>
      <trkpt lat="44.44216" lon="1.53784">
        <ele>237.4</ele>
        <time>2026-03-22T09:55:46Z</time>
      </trkpt>
      <trkpt lat="44.44217" lon="1.53792">
        <ele>237</ele>
        <time>2026-03-22T09:55:47Z</time>
      </trkpt>
      <trkpt lat="44.44219" lon="1.53798">
        <ele>236.4</ele>
        <time>2026-03-22T09:55:48Z</time>
      </trkpt>
      <trkpt lat="44.44219" lon="1.53804">
        <ele>236.2</ele>
        <time>2026-03-22T09:55:49Z</time>
      </trkpt>
      <trkpt lat="44.44218" lon="1.53808">
        <ele>235.8</ele>
        <time>2026-03-22T09:55:50Z</time>
      </trkpt>
      <trkpt lat="44.44216" lon="1.53816">
        <ele>235.6</ele>
        <time>2026-03-22T09:55:51Z</time>
      </trkpt>
      <trkpt lat="44.44217" lon="1.53823">
        <ele>235.4</ele>
        <time>2026-03-22T09:55:52Z</time>
      </trkpt>
      <trkpt lat="44.44218" lon="1.53831">
        <ele>234.8</ele>
        <time>2026-03-22T09:55:53Z</time>
      </trkpt>
      <trkpt lat="44.44219" lon="1.53839">
        <ele>234.2</ele>
        <time>2026-03-22T09:55:54Z</time>
      </trkpt>
      <trkpt lat="44.44219" lon="1.53847">
        <ele>234</ele>
        <time>2026-03-22T09:55:55Z</time>
      </trkpt>
      <trkpt lat="44.44218" lon="1.53854">
        <ele>233.2</ele>
        <time>2026-03-22T09:55:56Z</time>
      </trkpt>
      <trkpt lat="44.44217" lon="1.53862">
        <ele>232.8</ele>
        <time>2026-03-22T09:55:57Z</time>
      </trkpt>
      <trkpt lat="44.44217" lon="1.53871">
        <ele>232.6</ele>
        <time>2026-03-22T09:55:58Z</time>
      </trkpt>
      <trkpt lat="44.44219" lon="1.5389">
        <ele>231.6</ele>
        <time>2026-03-22T09:56:00Z</time>
      </trkpt>
      <trkpt lat="44.44221" lon="1.53895">
        <ele>231</ele>
        <time>2026-03-22T09:56:01Z</time>
      </trkpt>
      <trkpt lat="44.44226" lon="1.53901">
        <ele>230</ele>
        <time>2026-03-22T09:56:02Z</time>
      </trkpt>
      <trkpt lat="44.44229" lon="1.53908">
        <ele>229.4</ele>
        <time>2026-03-22T09:56:03Z</time>
      </trkpt>
      <trkpt lat="44.44231" lon="1.53914">
        <ele>228.6</ele>
        <time>2026-03-22T09:56:04Z</time>
      </trkpt>
      <trkpt lat="44.44233" lon="1.53923">
        <ele>227.6</ele>
        <time>2026-03-22T09:56:05Z</time>
      </trkpt>
      <trkpt lat="44.44237" lon="1.53932">
        <ele>226.2</ele>
        <time>2026-03-22T09:56:06Z</time>
      </trkpt>
      <trkpt lat="44.44241" lon="1.53938">
        <ele>224.4</ele>
        <time>2026-03-22T09:56:07Z</time>
      </trkpt>
      <trkpt lat="44.44245" lon="1.53945">
        <ele>223</ele>
        <time>2026-03-22T09:56:08Z</time>
      </trkpt>
      <trkpt lat="44.44247" lon="1.53951">
        <ele>221.8</ele>
        <time>2026-03-22T09:56:09Z</time>
      </trkpt>
      <trkpt lat="44.44251" lon="1.53957">
        <ele>220.6</ele>
        <time>2026-03-22T09:56:10Z</time>
      </trkpt>
      <trkpt lat="44.44255" lon="1.53961">
        <ele>219.6</ele>
        <time>2026-03-22T09:56:11Z</time>
      </trkpt>
      <trkpt lat="44.4426" lon="1.53965">
        <ele>218.4</ele>
        <time>2026-03-22T09:56:12Z</time>
      </trkpt>
      <trkpt lat="44.44266" lon="1.53977">
        <ele>216.2</ele>
        <time>2026-03-22T09:56:14Z</time>
      </trkpt>
      <trkpt lat="44.44265" lon="1.53983">
        <ele>214.6</ele>
        <time>2026-03-22T09:56:15Z</time>
      </trkpt>
      <trkpt lat="44.44262" lon="1.53988">
        <ele>213.2</ele>
        <time>2026-03-22T09:56:16Z</time>
      </trkpt>
      <trkpt lat="44.44257" lon="1.53991">
        <ele>211.4</ele>
        <time>2026-03-22T09:56:17Z</time>
      </trkpt>
      <trkpt lat="44.44253" lon="1.53997">
        <ele>209.6</ele>
        <time>2026-03-22T09:56:18Z</time>
      </trkpt>
      <trkpt lat="44.44251" lon="1.54004">
        <ele>208.6</ele>
        <time>2026-03-22T09:56:19Z</time>
      </trkpt>
      <trkpt lat="44.44252" lon="1.54011">
        <ele>208</ele>
        <time>2026-03-22T09:56:20Z</time>
      </trkpt>
      <trkpt lat="44.44256" lon="1.54017">
        <ele>206.4</ele>
        <time>2026-03-22T09:56:21Z</time>
      </trkpt>
      <trkpt lat="44.4426" lon="1.54024">
        <ele>205</ele>
        <time>2026-03-22T09:56:22Z</time>
      </trkpt>
      <trkpt lat="44.44263" lon="1.54031">
        <ele>204</ele>
        <time>2026-03-22T09:56:23Z</time>
      </trkpt>
      <trkpt lat="44.44267" lon="1.54037">
        <ele>203.4</ele>
        <time>2026-03-22T09:56:24Z</time>
      </trkpt>
      <trkpt lat="44.44271" lon="1.54042">
        <ele>203</ele>
        <time>2026-03-22T09:56:25Z</time>
      </trkpt>
      <trkpt lat="44.44276" lon="1.54045">
        <ele>202.8</ele>
        <time>2026-03-22T09:56:26Z</time>
      </trkpt>
      <trkpt lat="44.44282" lon="1.5405">
        <ele>202.6</ele>
        <time>2026-03-22T09:56:27Z</time>
      </trkpt>
      <trkpt lat="44.44288" lon="1.54055">
        <ele>202.2</ele>
        <time>2026-03-22T09:56:28Z</time>
      </trkpt>
      <trkpt lat="44.44296" lon="1.54068">
        <ele>200</ele>
        <time>2026-03-22T09:56:30Z</time>
      </trkpt>
      <trkpt lat="44.44297" lon="1.54077">
        <ele>199</ele>
        <time>2026-03-22T09:56:31Z</time>
      </trkpt>
      <trkpt lat="44.44296" lon="1.54087">
        <ele>198.2</ele>
        <time>2026-03-22T09:56:32Z</time>
      </trkpt>
      <trkpt lat="44.44297" lon="1.54095">
        <ele>196.8</ele>
        <time>2026-03-22T09:56:33Z</time>
      </trkpt>
      <trkpt lat="44.44297" lon="1.54104">
        <ele>195.4</ele>
        <time>2026-03-22T09:56:34Z</time>
      </trkpt>
      <trkpt lat="44.44294" lon="1.54111">
        <ele>193.8</ele>
        <time>2026-03-22T09:56:35Z</time>
      </trkpt>
      <trkpt lat="44.44291" lon="1.54119">
        <ele>192.6</ele>
        <time>2026-03-22T09:56:36Z</time>
      </trkpt>
      <trkpt lat="44.44288" lon="1.54126">
        <ele>191.6</ele>
        <time>2026-03-22T09:56:37Z</time>
      </trkpt>
      <trkpt lat="44.44287" lon="1.54135">
        <ele>189.4</ele>
        <time>2026-03-22T09:56:38Z</time>
      </trkpt>
      <trkpt lat="44.44288" lon="1.54143">
        <ele>188.6</ele>
        <time>2026-03-22T09:56:39Z</time>
      </trkpt>
      <trkpt lat="44.44291" lon="1.54151">
        <ele>188.2</ele>
        <time>2026-03-22T09:56:40Z</time>
      </trkpt>
      <trkpt lat="44.44294" lon="1.5416">
        <ele>187.4</ele>
        <time>2026-03-22T09:56:41Z</time>
      </trkpt>
      <trkpt lat="44.44297" lon="1.54169">
        <ele>187</ele>
        <time>2026-03-22T09:56:42Z</time>
      </trkpt>
      <trkpt lat="44.44301" lon="1.54184">
        <ele>185.6</ele>
        <time>2026-03-22T09:56:44Z</time>
      </trkpt>
      <trkpt lat="44.44304" lon="1.5419">
        <ele>185.2</ele>
        <time>2026-03-22T09:56:45Z</time>
      </trkpt>
      <trkpt lat="44.44306" lon="1.54197">
        <ele>184.6</ele>
        <time>2026-03-22T09:56:46Z</time>
      </trkpt>
      <trkpt lat="44.44307" lon="1.54214">
        <ele>182.8</ele>
        <time>2026-03-22T09:56:48Z</time>
      </trkpt>
      <trkpt lat="44.44309" lon="1.54224">
        <ele>181.8</ele>
        <time>2026-03-22T09:56:49Z</time>
      </trkpt>
      <trkpt lat="44.44311" lon="1.54233">
        <ele>180.8</ele>
        <time>2026-03-22T09:56:50Z</time>
      </trkpt>
      <trkpt lat="44.44313" lon="1.54242">
        <ele>180.2</ele>
        <time>2026-03-22T09:56:51Z</time>
      </trkpt>
      <trkpt lat="44.44315" lon="1.54251">
        <ele>179.8</ele>
        <time>2026-03-22T09:56:52Z</time>
      </trkpt>
      <trkpt lat="44.44321" lon="1.5427">
        <ele>179</ele>
        <time>2026-03-22T09:56:54Z</time>
      </trkpt>
      <trkpt lat="44.44322" lon="1.54278">
        <ele>177.4</ele>
        <time>2026-03-22T09:56:55Z</time>
      </trkpt>
      <trkpt lat="44.44323" lon="1.54287">
        <ele>175.6</ele>
        <time>2026-03-22T09:56:56Z</time>
      </trkpt>
      <trkpt lat="44.44325" lon="1.54293">
        <ele>174.6</ele>
        <time>2026-03-22T09:56:57Z</time>
      </trkpt>
      <trkpt lat="44.44327" lon="1.54297">
        <ele>174.2</ele>
        <time>2026-03-22T09:56:58Z</time>
      </trkpt>
      <trkpt lat="44.44325" lon="1.543">
        <ele>173.4</ele>
        <time>2026-03-22T09:56:59Z</time>
      </trkpt>
      <trkpt lat="44.44323" lon="1.543">
        <ele>172.6</ele>
        <time>2026-03-22T09:57:00Z</time>
      </trkpt>
      <trkpt lat="44.44314" lon="1.54298">
        <ele>170.8</ele>
        <time>2026-03-22T09:57:02Z</time>
      </trkpt>
      <trkpt lat="44.4431" lon="1.54299">
        <ele>169.8</ele>
        <time>2026-03-22T09:57:03Z</time>
      </trkpt>
      <trkpt lat="44.44306" lon="1.54302">
        <ele>169.2</ele>
        <time>2026-03-22T09:57:04Z</time>
      </trkpt>
      <trkpt lat="44.44302" lon="1.54307">
        <ele>168</ele>
        <time>2026-03-22T09:57:05Z</time>
      </trkpt>
      <trkpt lat="44.44298" lon="1.54314">
        <ele>167.2</ele>
        <time>2026-03-22T09:57:06Z</time>
      </trkpt>
      <trkpt lat="44.44294" lon="1.54321">
        <ele>166.6</ele>
        <time>2026-03-22T09:57:07Z</time>
      </trkpt>
      <trkpt lat="44.44286" lon="1.54335">
        <ele>165.2</ele>
        <time>2026-03-22T09:57:09Z</time>
      </trkpt>
      <trkpt lat="44.44281" lon="1.54341">
        <ele>164.4</ele>
        <time>2026-03-22T09:57:10Z</time>
      </trkpt>
      <trkpt lat="44.44275" lon="1.54345">
        <ele>163</ele>
        <time>2026-03-22T09:57:11Z</time>
      </trkpt>
      <trkpt lat="44.44269" lon="1.54347">
        <ele>161.4</ele>
        <time>2026-03-22T09:57:12Z</time>
      </trkpt>
      <trkpt lat="44.44262" lon="1.54346">
        <ele>160.2</ele>
        <time>2026-03-22T09:57:13Z</time>
      </trkpt>
      <trkpt lat="44.44257" lon="1.54345">
        <ele>158.4</ele>
        <time>2026-03-22T09:57:14Z</time>
      </trkpt>
      <trkpt lat="44.44253" lon="1.54345">
        <ele>156.8</ele>
        <time>2026-03-22T09:57:15Z</time>
      </trkpt>
      <trkpt lat="44.44251" lon="1.54347">
        <ele>154.2</ele>
        <time>2026-03-22T09:57:16Z</time>
      </trkpt>
      <trkpt lat="44.44249" lon="1.54349">
        <ele>152.2</ele>
        <time>2026-03-22T09:57:17Z</time>
      </trkpt>
      <trkpt lat="44.44248" lon="1.5435">
        <ele>150.2</ele>
        <time>2026-03-22T09:57:18Z</time>
      </trkpt>
      <trkpt lat="44.44246" lon="1.54352">
        <ele>149.2</ele>
        <time>2026-03-22T09:57:19Z</time>
      </trkpt>
      <trkpt lat="44.44245" lon="1.54352">
        <ele>148.8</ele>
        <time>2026-03-22T09:57:20Z</time>
      </trkpt>
      <trkpt lat="44.44239" lon="1.5434">
        <ele>148.4</ele>
        <time>2026-03-22T09:57:24Z</time>
      </trkpt>
      <trkpt lat="44.44237" lon="1.54336">
        <ele>148.4</ele>
        <time>2026-03-22T09:57:25Z</time>
      </trkpt>
      <trkpt lat="44.44229" lon="1.54317">
        <ele>148.8</ele>
        <time>2026-03-22T09:57:29Z</time>
      </trkpt>
      <trkpt lat="44.44227" lon="1.54313">
        <ele>148.8</ele>
        <time>2026-03-22T09:57:30Z</time>
      </trkpt>
      <trkpt lat="44.44224" lon="1.5431">
        <ele>149.2</ele>
        <time>2026-03-22T09:57:31Z</time>
      </trkpt>
      <trkpt lat="44.44221" lon="1.54308">
        <ele>149.8</ele>
        <time>2026-03-22T09:57:32Z</time>
      </trkpt>
      <trkpt lat="44.44218" lon="1.54307">
        <ele>150</ele>
        <time>2026-03-22T09:57:33Z</time>
      </trkpt>
      <trkpt lat="44.44216" lon="1.54308">
        <ele>150.4</ele>
        <time>2026-03-22T09:57:34Z</time>
      </trkpt>
      <trkpt lat="44.44214" lon="1.54309">
        <ele>150.6</ele>
        <time>2026-03-22T09:57:35Z</time>
      </trkpt>
      <trkpt lat="44.44212" lon="1.5431">
        <ele>150.8</ele>
        <time>2026-03-22T09:57:36Z</time>
      </trkpt>
      <trkpt lat="44.4421" lon="1.54311">
        <ele>151</ele>
        <time>2026-03-22T09:57:37Z</time>
      </trkpt>
      <trkpt lat="44.44209" lon="1.54312">
        <ele>151</ele>
        <time>2026-03-22T09:57:38Z</time>
      </trkpt>
      <trkpt lat="44.44207" lon="1.54314">
        <ele>151.4</ele>
        <time>2026-03-22T09:57:39Z</time>
      </trkpt>
      <trkpt lat="44.44206" lon="1.54316">
        <ele>151.6</ele>
        <time>2026-03-22T09:57:40Z</time>
      </trkpt>
      <trkpt lat="44.44204" lon="1.54319">
        <ele>152</ele>
        <time>2026-03-22T09:57:41Z</time>
      </trkpt>
      <trkpt lat="44.44203" lon="1.5432">
        <ele>152.4</ele>
        <time>2026-03-22T09:57:42Z</time>
      </trkpt>
      <trkpt lat="44.44201" lon="1.54322">
        <ele>153</ele>
        <time>2026-03-22T09:57:43Z</time>
      </trkpt>
      <trkpt lat="44.44199" lon="1.54324">
        <ele>153.2</ele>
        <time>2026-03-22T09:57:44Z</time>
      </trkpt>
      <trkpt lat="44.44196" lon="1.54328">
        <ele>154.2</ele>
        <time>2026-03-22T09:57:46Z</time>
      </trkpt>
      <trkpt lat="44.44194" lon="1.5433">
        <ele>154.6</ele>
        <time>2026-03-22T09:57:47Z</time>
      </trkpt>
      <trkpt lat="44.4419" lon="1.54332">
        <ele>155.6</ele>
        <time>2026-03-22T09:57:49Z</time>
      </trkpt>
      <trkpt lat="44.44186" lon="1.54336">
        <ele>156.4</ele>
        <time>2026-03-22T09:57:51Z</time>
      </trkpt>
      <trkpt lat="44.44184" lon="1.54338">
        <ele>156.8</ele>
        <time>2026-03-22T09:57:52Z</time>
      </trkpt>
      <trkpt lat="44.44182" lon="1.5434">
        <ele>157.4</ele>
        <time>2026-03-22T09:57:53Z</time>
      </trkpt>
      <trkpt lat="44.4418" lon="1.54342">
        <ele>158</ele>
        <time>2026-03-22T09:57:54Z</time>
      </trkpt>
      <trkpt lat="44.44178" lon="1.54344">
        <ele>158.4</ele>
        <time>2026-03-22T09:57:55Z</time>
      </trkpt>
      <trkpt lat="44.44176" lon="1.54345">
        <ele>159</ele>
        <time>2026-03-22T09:57:56Z</time>
      </trkpt>
      <trkpt lat="44.44174" lon="1.54346">
        <ele>159.4</ele>
        <time>2026-03-22T09:57:57Z</time>
      </trkpt>
      <trkpt lat="44.44172" lon="1.54348">
        <ele>159.8</ele>
        <time>2026-03-22T09:57:58Z</time>
      </trkpt>
      <trkpt lat="44.4417" lon="1.54348">
        <ele>160.4</ele>
        <time>2026-03-22T09:57:59Z</time>
      </trkpt>
      <trkpt lat="44.44167" lon="1.54349">
        <ele>161</ele>
        <time>2026-03-22T09:58:00Z</time>
      </trkpt>
      <trkpt lat="44.44165" lon="1.54351">
        <ele>161.4</ele>
        <time>2026-03-22T09:58:01Z</time>
      </trkpt>
      <trkpt lat="44.44163" lon="1.54352">
        <ele>162</ele>
        <time>2026-03-22T09:58:02Z</time>
      </trkpt>
      <trkpt lat="44.44161" lon="1.54352">
        <ele>162.8</ele>
        <time>2026-03-22T09:58:03Z</time>
      </trkpt>
      <trkpt lat="44.44159" lon="1.54354">
        <ele>163.2</ele>
        <time>2026-03-22T09:58:04Z</time>
      </trkpt>
      <trkpt lat="44.44156" lon="1.54354">
        <ele>163.6</ele>
        <time>2026-03-22T09:58:05Z</time>
      </trkpt>
      <trkpt lat="44.44154" lon="1.54355">
        <ele>163.8</ele>
        <time>2026-03-22T09:58:06Z</time>
      </trkpt>
      <trkpt lat="44.44152" lon="1.54355">
        <ele>164.4</ele>
        <time>2026-03-22T09:58:07Z</time>
      </trkpt>
      <trkpt lat="44.44149" lon="1.54356">
        <ele>165</ele>
        <time>2026-03-22T09:58:08Z</time>
      </trkpt>
      <trkpt lat="44.44147" lon="1.54357">
        <ele>165.4</ele>
        <time>2026-03-22T09:58:09Z</time>
      </trkpt>
      <trkpt lat="44.44145" lon="1.54358">
        <ele>166</ele>
        <time>2026-03-22T09:58:10Z</time>
      </trkpt>
      <trkpt lat="44.44143" lon="1.54359">
        <ele>166.2</ele>
        <time>2026-03-22T09:58:11Z</time>
      </trkpt>
      <trkpt lat="44.44141" lon="1.5436">
        <ele>167</ele>
        <time>2026-03-22T09:58:12Z</time>
      </trkpt>
      <trkpt lat="44.4414" lon="1.54361">
        <ele>167.4</ele>
        <time>2026-03-22T09:58:13Z</time>
      </trkpt>
      <trkpt lat="44.44138" lon="1.54362">
        <ele>167.8</ele>
        <time>2026-03-22T09:58:14Z</time>
      </trkpt>
      <trkpt lat="44.44136" lon="1.54364">
        <ele>168.4</ele>
        <time>2026-03-22T09:58:15Z</time>
      </trkpt>
      <trkpt lat="44.44135" lon="1.54365">
        <ele>168.8</ele>
        <time>2026-03-22T09:58:16Z</time>
      </trkpt>
      <trkpt lat="44.44133" lon="1.54367">
        <ele>169.4</ele>
        <time>2026-03-22T09:58:17Z</time>
      </trkpt>
      <trkpt lat="44.44131" lon="1.54368">
        <ele>169.8</ele>
        <time>2026-03-22T09:58:18Z</time>
      </trkpt>
      <trkpt lat="44.4413" lon="1.5437">
        <ele>170.2</ele>
        <time>2026-03-22T09:58:19Z</time>
      </trkpt>
      <trkpt lat="44.44129" lon="1.54372">
        <ele>170.6</ele>
        <time>2026-03-22T09:58:20Z</time>
      </trkpt>
      <trkpt lat="44.44127" lon="1.54374">
        <ele>171</ele>
        <time>2026-03-22T09:58:21Z</time>
      </trkpt>
      <trkpt lat="44.44126" lon="1.54376">
        <ele>171.4</ele>
        <time>2026-03-22T09:58:22Z</time>
      </trkpt>
      <trkpt lat="44.44125" lon="1.54379">
        <ele>171.8</ele>
        <time>2026-03-22T09:58:23Z</time>
      </trkpt>
      <trkpt lat="44.44124" lon="1.54381">
        <ele>172.2</ele>
        <time>2026-03-22T09:58:24Z</time>
      </trkpt>
      <trkpt lat="44.44123" lon="1.54383">
        <ele>172.6</ele>
        <time>2026-03-22T09:58:25Z</time>
      </trkpt>
      <trkpt lat="44.44122" lon="1.54384">
        <ele>173.2</ele>
        <time>2026-03-22T09:58:26Z</time>
      </trkpt>
      <trkpt lat="44.4412" lon="1.54386">
        <ele>173.4</ele>
        <time>2026-03-22T09:58:27Z</time>
      </trkpt>
      <trkpt lat="44.44118" lon="1.54386">
        <ele>173.8</ele>
        <time>2026-03-22T09:58:28Z</time>
      </trkpt>
      <trkpt lat="44.44116" lon="1.54387">
        <ele>174.4</ele>
        <time>2026-03-22T09:58:29Z</time>
      </trkpt>
      <trkpt lat="44.44114" lon="1.54388">
        <ele>174.8</ele>
        <time>2026-03-22T09:58:30Z</time>
      </trkpt>
      <trkpt lat="44.44112" lon="1.54389">
        <ele>175.2</ele>
        <time>2026-03-22T09:58:31Z</time>
      </trkpt>
      <trkpt lat="44.44111" lon="1.5439">
        <ele>175.6</ele>
        <time>2026-03-22T09:58:32Z</time>
      </trkpt>
      <trkpt lat="44.44108" lon="1.54391">
        <ele>176.2</ele>
        <time>2026-03-22T09:58:33Z</time>
      </trkpt>
      <trkpt lat="44.44106" lon="1.54392">
        <ele>176.6</ele>
        <time>2026-03-22T09:58:34Z</time>
      </trkpt>
      <trkpt lat="44.44104" lon="1.54393">
        <ele>177</ele>
        <time>2026-03-22T09:58:35Z</time>
      </trkpt>
      <trkpt lat="44.44102" lon="1.54395">
        <ele>177.4</ele>
        <time>2026-03-22T09:58:36Z</time>
      </trkpt>
      <trkpt lat="44.441" lon="1.54396">
        <ele>178</ele>
        <time>2026-03-22T09:58:37Z</time>
      </trkpt>
      <trkpt lat="44.44098" lon="1.54397">
        <ele>178.4</ele>
        <time>2026-03-22T09:58:38Z</time>
      </trkpt>
      <trkpt lat="44.44096" lon="1.54398">
        <ele>179</ele>
        <time>2026-03-22T09:58:39Z</time>
      </trkpt>
      <trkpt lat="44.44095" lon="1.544">
        <ele>179.4</ele>
        <time>2026-03-22T09:58:40Z</time>
      </trkpt>
      <trkpt lat="44.44093" lon="1.54401">
        <ele>179.8</ele>
        <time>2026-03-22T09:58:41Z</time>
      </trkpt>
      <trkpt lat="44.44091" lon="1.54403">
        <ele>180.2</ele>
        <time>2026-03-22T09:58:42Z</time>
      </trkpt>
      <trkpt lat="44.44089" lon="1.54404">
        <ele>180.6</ele>
        <time>2026-03-22T09:58:43Z</time>
      </trkpt>
      <trkpt lat="44.44087" lon="1.54406">
        <ele>181.2</ele>
        <time>2026-03-22T09:58:44Z</time>
      </trkpt>
      <trkpt lat="44.44085" lon="1.54407">
        <ele>181.6</ele>
        <time>2026-03-22T09:58:45Z</time>
      </trkpt>
      <trkpt lat="44.44084" lon="1.54408">
        <ele>182</ele>
        <time>2026-03-22T09:58:46Z</time>
      </trkpt>
      <trkpt lat="44.44082" lon="1.54409">
        <ele>182.4</ele>
        <time>2026-03-22T09:58:47Z</time>
      </trkpt>
      <trkpt lat="44.4408" lon="1.54411">
        <ele>182.8</ele>
        <time>2026-03-22T09:58:48Z</time>
      </trkpt>
      <trkpt lat="44.44078" lon="1.54413">
        <ele>183.2</ele>
        <time>2026-03-22T09:58:49Z</time>
      </trkpt>
      <trkpt lat="44.44076" lon="1.54414">
        <ele>183.6</ele>
        <time>2026-03-22T09:58:50Z</time>
      </trkpt>
      <trkpt lat="44.44074" lon="1.54416">
        <ele>184.8</ele>
        <time>2026-03-22T09:58:51Z</time>
      </trkpt>
      <trkpt lat="44.44072" lon="1.54417">
        <ele>185.2</ele>
        <time>2026-03-22T09:58:52Z</time>
      </trkpt>
      <trkpt lat="44.4407" lon="1.54417">
        <ele>185.6</ele>
        <time>2026-03-22T09:58:53Z</time>
      </trkpt>
      <trkpt lat="44.44068" lon="1.54418">
        <ele>186.2</ele>
        <time>2026-03-22T09:58:54Z</time>
      </trkpt>
      <trkpt lat="44.44066" lon="1.5442">
        <ele>186.8</ele>
        <time>2026-03-22T09:58:55Z</time>
      </trkpt>
      <trkpt lat="44.44064" lon="1.54421">
        <ele>187.2</ele>
        <time>2026-03-22T09:58:56Z</time>
      </trkpt>
      <trkpt lat="44.44062" lon="1.54422">
        <ele>187.6</ele>
        <time>2026-03-22T09:58:57Z</time>
      </trkpt>
      <trkpt lat="44.44061" lon="1.54423">
        <ele>188</ele>
        <time>2026-03-22T09:58:58Z</time>
      </trkpt>
      <trkpt lat="44.44059" lon="1.54424">
        <ele>188.6</ele>
        <time>2026-03-22T09:58:59Z</time>
      </trkpt>
      <trkpt lat="44.44057" lon="1.54426">
        <ele>189</ele>
        <time>2026-03-22T09:59:00Z</time>
      </trkpt>
      <trkpt lat="44.44055" lon="1.54427">
        <ele>189.6</ele>
        <time>2026-03-22T09:59:01Z</time>
      </trkpt>
      <trkpt lat="44.44053" lon="1.54428">
        <ele>189.8</ele>
        <time>2026-03-22T09:59:02Z</time>
      </trkpt>
      <trkpt lat="44.44052" lon="1.54428">
        <ele>190.2</ele>
        <time>2026-03-22T09:59:03Z</time>
      </trkpt>
      <trkpt lat="44.44049" lon="1.54429">
        <ele>190.6</ele>
        <time>2026-03-22T09:59:04Z</time>
      </trkpt>
      <trkpt lat="44.44047" lon="1.54429">
        <ele>191</ele>
        <time>2026-03-22T09:59:05Z</time>
      </trkpt>
      <trkpt lat="44.44045" lon="1.5443">
        <ele>191.6</ele>
        <time>2026-03-22T09:59:06Z</time>
      </trkpt>
      <trkpt lat="44.44043" lon="1.5443">
        <ele>192</ele>
        <time>2026-03-22T09:59:07Z</time>
      </trkpt>
      <trkpt lat="44.44041" lon="1.5443">
        <ele>192.4</ele>
        <time>2026-03-22T09:59:08Z</time>
      </trkpt>
      <trkpt lat="44.44039" lon="1.5443">
        <ele>192.8</ele>
        <time>2026-03-22T09:59:09Z</time>
      </trkpt>
      <trkpt lat="44.44036" lon="1.5443">
        <ele>193.2</ele>
        <time>2026-03-22T09:59:10Z</time>
      </trkpt>
      <trkpt lat="44.44034" lon="1.5443">
        <ele>193.6</ele>
        <time>2026-03-22T09:59:11Z</time>
      </trkpt>
      <trkpt lat="44.44032" lon="1.5443">
        <ele>194</ele>
        <time>2026-03-22T09:59:12Z</time>
      </trkpt>
      <trkpt lat="44.4403" lon="1.5443">
        <ele>194.4</ele>
        <time>2026-03-22T09:59:13Z</time>
      </trkpt>
      <trkpt lat="44.44027" lon="1.5443">
        <ele>195</ele>
        <time>2026-03-22T09:59:14Z</time>
      </trkpt>
      <trkpt lat="44.44024" lon="1.54429">
        <ele>195.4</ele>
        <time>2026-03-22T09:59:15Z</time>
      </trkpt>
      <trkpt lat="44.44022" lon="1.54429">
        <ele>195.8</ele>
        <time>2026-03-22T09:59:16Z</time>
      </trkpt>
      <trkpt lat="44.44019" lon="1.5443">
        <ele>196.2</ele>
        <time>2026-03-22T09:59:17Z</time>
      </trkpt>
      <trkpt lat="44.44016" lon="1.54429">
        <ele>196.6</ele>
        <time>2026-03-22T09:59:18Z</time>
      </trkpt>
      <trkpt lat="44.44013" lon="1.54429">
        <ele>196.8</ele>
        <time>2026-03-22T09:59:19Z</time>
      </trkpt>
      <trkpt lat="44.44011" lon="1.54429">
        <ele>197.4</ele>
        <time>2026-03-22T09:59:20Z</time>
      </trkpt>
      <trkpt lat="44.44008" lon="1.5443">
        <ele>197.6</ele>
        <time>2026-03-22T09:59:21Z</time>
      </trkpt>
      <trkpt lat="44.44006" lon="1.5443">
        <ele>198</ele>
        <time>2026-03-22T09:59:22Z</time>
      </trkpt>
      <trkpt lat="44.44003" lon="1.5443">
        <ele>198.4</ele>
        <time>2026-03-22T09:59:23Z</time>
      </trkpt>
      <trkpt lat="44.44" lon="1.5443">
        <ele>198.8</ele>
        <time>2026-03-22T09:59:24Z</time>
      </trkpt>
      <trkpt lat="44.43998" lon="1.54429">
        <ele>199</ele>
        <time>2026-03-22T09:59:25Z</time>
      </trkpt>
      <trkpt lat="44.43995" lon="1.54429">
        <ele>199.2</ele>
        <time>2026-03-22T09:59:26Z</time>
      </trkpt>
      <trkpt lat="44.43993" lon="1.54429">
        <ele>199.8</ele>
        <time>2026-03-22T09:59:27Z</time>
      </trkpt>
      <trkpt lat="44.43991" lon="1.54429">
        <ele>200.2</ele>
        <time>2026-03-22T09:59:28Z</time>
      </trkpt>
      <trkpt lat="44.43988" lon="1.54428">
        <ele>201</ele>
        <time>2026-03-22T09:59:29Z</time>
      </trkpt>
      <trkpt lat="44.43986" lon="1.54428">
        <ele>201.4</ele>
        <time>2026-03-22T09:59:30Z</time>
      </trkpt>
      <trkpt lat="44.43983" lon="1.54428">
        <ele>202</ele>
        <time>2026-03-22T09:59:31Z</time>
      </trkpt>
      <trkpt lat="44.43981" lon="1.54428">
        <ele>202.2</ele>
        <time>2026-03-22T09:59:32Z</time>
      </trkpt>
      <trkpt lat="44.43978" lon="1.54428">
        <ele>202.6</ele>
        <time>2026-03-22T09:59:33Z</time>
      </trkpt>
      <trkpt lat="44.43976" lon="1.54428">
        <ele>202.8</ele>
        <time>2026-03-22T09:59:34Z</time>
      </trkpt>
      <trkpt lat="44.43973" lon="1.54428">
        <ele>203</ele>
        <time>2026-03-22T09:59:35Z</time>
      </trkpt>
      <trkpt lat="44.43971" lon="1.54428">
        <ele>203.2</ele>
        <time>2026-03-22T09:59:36Z</time>
      </trkpt>
      <trkpt lat="44.43969" lon="1.54428">
        <ele>203.6</ele>
        <time>2026-03-22T09:59:37Z</time>
      </trkpt>
      <trkpt lat="44.43967" lon="1.54429">
        <ele>204.2</ele>
        <time>2026-03-22T09:59:38Z</time>
      </trkpt>
      <trkpt lat="44.43964" lon="1.54429">
        <ele>204.6</ele>
        <time>2026-03-22T09:59:39Z</time>
      </trkpt>
      <trkpt lat="44.43962" lon="1.54428">
        <ele>204.8</ele>
        <time>2026-03-22T09:59:40Z</time>
      </trkpt>
      <trkpt lat="44.4396" lon="1.54429">
        <ele>205.2</ele>
        <time>2026-03-22T09:59:41Z</time>
      </trkpt>
      <trkpt lat="44.43957" lon="1.54429">
        <ele>205.4</ele>
        <time>2026-03-22T09:59:42Z</time>
      </trkpt>
      <trkpt lat="44.43955" lon="1.54429">
        <ele>205.6</ele>
        <time>2026-03-22T09:59:43Z</time>
      </trkpt>
      <trkpt lat="44.43952" lon="1.5443">
        <ele>205.6</ele>
        <time>2026-03-22T09:59:44Z</time>
      </trkpt>
      <trkpt lat="44.4395" lon="1.54429">
        <ele>206</ele>
        <time>2026-03-22T09:59:45Z</time>
      </trkpt>
      <trkpt lat="44.43947" lon="1.54429">
        <ele>206.4</ele>
        <time>2026-03-22T09:59:46Z</time>
      </trkpt>
      <trkpt lat="44.43944" lon="1.54429">
        <ele>206.8</ele>
        <time>2026-03-22T09:59:47Z</time>
      </trkpt>
      <trkpt lat="44.43941" lon="1.54429">
        <ele>207.2</ele>
        <time>2026-03-22T09:59:48Z</time>
      </trkpt>
      <trkpt lat="44.43938" lon="1.54429">
        <ele>208</ele>
        <time>2026-03-22T09:59:49Z</time>
      </trkpt>
      <trkpt lat="44.43935" lon="1.54431">
        <ele>208.4</ele>
        <time>2026-03-22T09:59:50Z</time>
      </trkpt>
      <trkpt lat="44.43933" lon="1.54433">
        <ele>208.8</ele>
        <time>2026-03-22T09:59:51Z</time>
      </trkpt>
      <trkpt lat="44.43931" lon="1.54435">
        <ele>209.2</ele>
        <time>2026-03-22T09:59:52Z</time>
      </trkpt>
      <trkpt lat="44.43929" lon="1.54438">
        <ele>209.6</ele>
        <time>2026-03-22T09:59:53Z</time>
      </trkpt>
      <trkpt lat="44.43927" lon="1.5444">
        <ele>209.8</ele>
        <time>2026-03-22T09:59:54Z</time>
      </trkpt>
      <trkpt lat="44.43924" lon="1.54443">
        <ele>210</ele>
        <time>2026-03-22T09:59:55Z</time>
      </trkpt>
      <trkpt lat="44.43922" lon="1.54445">
        <ele>210.4</ele>
        <time>2026-03-22T09:59:56Z</time>
      </trkpt>
      <trkpt lat="44.4392" lon="1.54448">
        <ele>210.6</ele>
        <time>2026-03-22T09:59:57Z</time>
      </trkpt>
      <trkpt lat="44.43917" lon="1.54452">
        <ele>211</ele>
        <time>2026-03-22T09:59:58Z</time>
      </trkpt>
      <trkpt lat="44.43915" lon="1.54455">
        <ele>211.4</ele>
        <time>2026-03-22T09:59:59Z</time>
      </trkpt>
      <trkpt lat="44.43913" lon="1.54458">
        <ele>212</ele>
        <time>2026-03-22T10:00:00Z</time>
      </trkpt>
      <trkpt lat="44.43911" lon="1.54459">
        <ele>212.4</ele>
        <time>2026-03-22T10:00:01Z</time>
      </trkpt>
      <trkpt lat="44.43908" lon="1.54461">
        <ele>212.8</ele>
        <time>2026-03-22T10:00:02Z</time>
      </trkpt>
      <trkpt lat="44.43906" lon="1.54462">
        <ele>213.4</ele>
        <time>2026-03-22T10:00:03Z</time>
      </trkpt>
      <trkpt lat="44.43903" lon="1.54462">
        <ele>213.8</ele>
        <time>2026-03-22T10:00:04Z</time>
      </trkpt>
      <trkpt lat="44.439" lon="1.54463">
        <ele>214.4</ele>
        <time>2026-03-22T10:00:05Z</time>
      </trkpt>
      <trkpt lat="44.43897" lon="1.54463">
        <ele>214.8</ele>
        <time>2026-03-22T10:00:06Z</time>
      </trkpt>
      <trkpt lat="44.43895" lon="1.54462">
        <ele>215.2</ele>
        <time>2026-03-22T10:00:07Z</time>
      </trkpt>
      <trkpt lat="44.43892" lon="1.54462">
        <ele>215.8</ele>
        <time>2026-03-22T10:00:08Z</time>
      </trkpt>
      <trkpt lat="44.43889" lon="1.54461">
        <ele>216.4</ele>
        <time>2026-03-22T10:00:09Z</time>
      </trkpt>
      <trkpt lat="44.43886" lon="1.54459">
        <ele>217</ele>
        <time>2026-03-22T10:00:10Z</time>
      </trkpt>
      <trkpt lat="44.43884" lon="1.54457">
        <ele>217.6</ele>
        <time>2026-03-22T10:00:11Z</time>
      </trkpt>
      <trkpt lat="44.43881" lon="1.54456">
        <ele>218</ele>
        <time>2026-03-22T10:00:12Z</time>
      </trkpt>
      <trkpt lat="44.43879" lon="1.54455">
        <ele>218.4</ele>
        <time>2026-03-22T10:00:13Z</time>
      </trkpt>
      <trkpt lat="44.43876" lon="1.54453">
        <ele>218.6</ele>
        <time>2026-03-22T10:00:14Z</time>
      </trkpt>
      <trkpt lat="44.43873" lon="1.54452">
        <ele>219</ele>
        <time>2026-03-22T10:00:15Z</time>
      </trkpt>
      <trkpt lat="44.4387" lon="1.5445">
        <ele>219.4</ele>
        <time>2026-03-22T10:00:16Z</time>
      </trkpt>
      <trkpt lat="44.43866" lon="1.54449">
        <ele>220</ele>
        <time>2026-03-22T10:00:17Z</time>
      </trkpt>
      <trkpt lat="44.43863" lon="1.54447">
        <ele>220.6</ele>
        <time>2026-03-22T10:00:18Z</time>
      </trkpt>
      <trkpt lat="44.4386" lon="1.54446">
        <ele>221</ele>
        <time>2026-03-22T10:00:19Z</time>
      </trkpt>
      <trkpt lat="44.43857" lon="1.54445">
        <ele>221.6</ele>
        <time>2026-03-22T10:00:20Z</time>
      </trkpt>
      <trkpt lat="44.43854" lon="1.54443">
        <ele>221.8</ele>
        <time>2026-03-22T10:00:21Z</time>
      </trkpt>
      <trkpt lat="44.43851" lon="1.54442">
        <ele>222.4</ele>
        <time>2026-03-22T10:00:22Z</time>
      </trkpt>
      <trkpt lat="44.43847" lon="1.54441">
        <ele>222.6</ele>
        <time>2026-03-22T10:00:23Z</time>
      </trkpt>
      <trkpt lat="44.43843" lon="1.54439">
        <ele>223</ele>
        <time>2026-03-22T10:00:24Z</time>
      </trkpt>
      <trkpt lat="44.43839" lon="1.54438">
        <ele>223.2</ele>
        <time>2026-03-22T10:00:25Z</time>
      </trkpt>
      <trkpt lat="44.43835" lon="1.54436">
        <ele>223.6</ele>
        <time>2026-03-22T10:00:26Z</time>
      </trkpt>
      <trkpt lat="44.43831" lon="1.54434">
        <ele>223.8</ele>
        <time>2026-03-22T10:00:27Z</time>
      </trkpt>
      <trkpt lat="44.43827" lon="1.54432">
        <ele>224.2</ele>
        <time>2026-03-22T10:00:28Z</time>
      </trkpt>
      <trkpt lat="44.43823" lon="1.5443">
        <ele>224.4</ele>
        <time>2026-03-22T10:00:29Z</time>
      </trkpt>
      <trkpt lat="44.43819" lon="1.54428">
        <ele>224.6</ele>
        <time>2026-03-22T10:00:30Z</time>
      </trkpt>
      <trkpt lat="44.43815" lon="1.54427">
        <ele>225</ele>
        <time>2026-03-22T10:00:31Z</time>
      </trkpt>
      <trkpt lat="44.43811" lon="1.54425">
        <ele>225.4</ele>
        <time>2026-03-22T10:00:32Z</time>
      </trkpt>
      <trkpt lat="44.43807" lon="1.54424">
        <ele>225.4</ele>
        <time>2026-03-22T10:00:33Z</time>
      </trkpt>
      <trkpt lat="44.43804" lon="1.54424">
        <ele>226</ele>
        <time>2026-03-22T10:00:34Z</time>
      </trkpt>
      <trkpt lat="44.43801" lon="1.54423">
        <ele>226.2</ele>
        <time>2026-03-22T10:00:35Z</time>
      </trkpt>
      <trkpt lat="44.43797" lon="1.54422">
        <ele>226.4</ele>
        <time>2026-03-22T10:00:36Z</time>
      </trkpt>
      <trkpt lat="44.43794" lon="1.5442">
        <ele>226.4</ele>
        <time>2026-03-22T10:00:37Z</time>
      </trkpt>
      <trkpt lat="44.4379" lon="1.54419">
        <ele>226.8</ele>
        <time>2026-03-22T10:00:38Z</time>
      </trkpt>
      <trkpt lat="44.43786" lon="1.54418">
        <ele>227</ele>
        <time>2026-03-22T10:00:39Z</time>
      </trkpt>
      <trkpt lat="44.43782" lon="1.54416">
        <ele>227.2</ele>
        <time>2026-03-22T10:00:40Z</time>
      </trkpt>
      <trkpt lat="44.43779" lon="1.54415">
        <ele>227.2</ele>
        <time>2026-03-22T10:00:41Z</time>
      </trkpt>
      <trkpt lat="44.43775" lon="1.54414">
        <ele>227.6</ele>
        <time>2026-03-22T10:00:42Z</time>
      </trkpt>
      <trkpt lat="44.43771" lon="1.54413">
        <ele>227.8</ele>
        <time>2026-03-22T10:00:43Z</time>
      </trkpt>
      <trkpt lat="44.43767" lon="1.54412">
        <ele>228</ele>
        <time>2026-03-22T10:00:44Z</time>
      </trkpt>
      <trkpt lat="44.43763" lon="1.54411">
        <ele>228.4</ele>
        <time>2026-03-22T10:00:45Z</time>
      </trkpt>
      <trkpt lat="44.43759" lon="1.5441">
        <ele>228.8</ele>
        <time>2026-03-22T10:00:46Z</time>
      </trkpt>
      <trkpt lat="44.43755" lon="1.54409">
        <ele>229.2</ele>
        <time>2026-03-22T10:00:47Z</time>
      </trkpt>
      <trkpt lat="44.43751" lon="1.54407">
        <ele>229.4</ele>
        <time>2026-03-22T10:00:48Z</time>
      </trkpt>
      <trkpt lat="44.43747" lon="1.54406">
        <ele>229.6</ele>
        <time>2026-03-22T10:00:49Z</time>
      </trkpt>
      <trkpt lat="44.43743" lon="1.54405">
        <ele>229.6</ele>
        <time>2026-03-22T10:00:50Z</time>
      </trkpt>
      <trkpt lat="44.43739" lon="1.54404">
        <ele>229.8</ele>
        <time>2026-03-22T10:00:51Z</time>
      </trkpt>
      <trkpt lat="44.43735" lon="1.54403">
        <ele>230</ele>
        <time>2026-03-22T10:00:52Z</time>
      </trkpt>
      <trkpt lat="44.43731" lon="1.54402">
        <ele>230.2</ele>
        <time>2026-03-22T10:00:53Z</time>
      </trkpt>
      <trkpt lat="44.43728" lon="1.54401">
        <ele>230.4</ele>
        <time>2026-03-22T10:00:54Z</time>
      </trkpt>
      <trkpt lat="44.43724" lon="1.544">
        <ele>230.8</ele>
        <time>2026-03-22T10:00:55Z</time>
      </trkpt>
      <trkpt lat="44.4372" lon="1.54399">
        <ele>231</ele>
        <time>2026-03-22T10:00:56Z</time>
      </trkpt>
      <trkpt lat="44.43716" lon="1.54398">
        <ele>231.2</ele>
        <time>2026-03-22T10:00:57Z</time>
      </trkpt>
      <trkpt lat="44.43713" lon="1.54397">
        <ele>231.4</ele>
        <time>2026-03-22T10:00:58Z</time>
      </trkpt>
      <trkpt lat="44.43709" lon="1.54396">
        <ele>231.4</ele>
        <time>2026-03-22T10:00:59Z</time>
      </trkpt>
      <trkpt lat="44.43705" lon="1.54396">
        <ele>231.6</ele>
        <time>2026-03-22T10:01:00Z</time>
      </trkpt>
      <trkpt lat="44.43702" lon="1.54395">
        <ele>231.8</ele>
        <time>2026-03-22T10:01:01Z</time>
      </trkpt>
      <trkpt lat="44.43698" lon="1.54394">
        <ele>232</ele>
        <time>2026-03-22T10:01:02Z</time>
      </trkpt>
      <trkpt lat="44.43694" lon="1.54393">
        <ele>232.2</ele>
        <time>2026-03-22T10:01:03Z</time>
      </trkpt>
      <trkpt lat="44.4369" lon="1.54391">
        <ele>232.2</ele>
        <time>2026-03-22T10:01:04Z</time>
      </trkpt>
      <trkpt lat="44.43686" lon="1.5439">
        <ele>232.6</ele>
        <time>2026-03-22T10:01:05Z</time>
      </trkpt>
      <trkpt lat="44.43682" lon="1.54388">
        <ele>232.8</ele>
        <time>2026-03-22T10:01:06Z</time>
      </trkpt>
      <trkpt lat="44.43678" lon="1.54385">
        <ele>233</ele>
        <time>2026-03-22T10:01:07Z</time>
      </trkpt>
      <trkpt lat="44.43675" lon="1.54383">
        <ele>233.2</ele>
        <time>2026-03-22T10:01:08Z</time>
      </trkpt>
      <trkpt lat="44.43671" lon="1.5438">
        <ele>233.2</ele>
        <time>2026-03-22T10:01:09Z</time>
      </trkpt>
      <trkpt lat="44.43667" lon="1.54377">
        <ele>233.2</ele>
        <time>2026-03-22T10:01:10Z</time>
      </trkpt>
      <trkpt lat="44.43663" lon="1.54375">
        <ele>233.4</ele>
        <time>2026-03-22T10:01:11Z</time>
      </trkpt>
      <trkpt lat="44.43659" lon="1.54372">
        <ele>233.4</ele>
        <time>2026-03-22T10:01:12Z</time>
      </trkpt>
      <trkpt lat="44.43654" lon="1.54369">
        <ele>233.4</ele>
        <time>2026-03-22T10:01:13Z</time>
      </trkpt>
      <trkpt lat="44.4365" lon="1.54366">
        <ele>233.4</ele>
        <time>2026-03-22T10:01:14Z</time>
      </trkpt>
      <trkpt lat="44.43645" lon="1.54363">
        <ele>233.4</ele>
        <time>2026-03-22T10:01:15Z</time>
      </trkpt>
      <trkpt lat="44.43641" lon="1.54361">
        <ele>233.4</ele>
        <time>2026-03-22T10:01:16Z</time>
      </trkpt>
      <trkpt lat="44.43636" lon="1.54358">
        <ele>233.4</ele>
        <time>2026-03-22T10:01:17Z</time>
      </trkpt>
      <trkpt lat="44.43632" lon="1.54355">
        <ele>233.4</ele>
        <time>2026-03-22T10:01:18Z</time>
      </trkpt>
      <trkpt lat="44.43627" lon="1.54352">
        <ele>233.4</ele>
        <time>2026-03-22T10:01:19Z</time>
      </trkpt>
      <trkpt lat="44.43623" lon="1.54349">
        <ele>233.4</ele>
        <time>2026-03-22T10:01:20Z</time>
      </trkpt>
      <trkpt lat="44.43618" lon="1.54346">
        <ele>233.4</ele>
        <time>2026-03-22T10:01:21Z</time>
      </trkpt>
      <trkpt lat="44.43614" lon="1.54344">
        <ele>233.4</ele>
        <time>2026-03-22T10:01:22Z</time>
      </trkpt>
      <trkpt lat="44.43609" lon="1.54341">
        <ele>233.4</ele>
        <time>2026-03-22T10:01:23Z</time>
      </trkpt>
      <trkpt lat="44.43605" lon="1.54339">
        <ele>233.4</ele>
        <time>2026-03-22T10:01:24Z</time>
      </trkpt>
      <trkpt lat="44.43601" lon="1.54336">
        <ele>233.4</ele>
        <time>2026-03-22T10:01:25Z</time>
      </trkpt>
      <trkpt lat="44.43597" lon="1.54333">
        <ele>233.4</ele>
        <time>2026-03-22T10:01:26Z</time>
      </trkpt>
      <trkpt lat="44.43593" lon="1.5433">
        <ele>233.4</ele>
        <time>2026-03-22T10:01:27Z</time>
      </trkpt>
      <trkpt lat="44.43565" lon="1.54302">
        <ele>233.2</ele>
        <time>2026-03-22T10:01:34Z</time>
      </trkpt>
      <trkpt lat="44.43536" lon="1.54275">
        <ele>233.6</ele>
        <time>2026-03-22T10:01:41Z</time>
      </trkpt>
      <trkpt lat="44.43532" lon="1.54272">
        <ele>233.6</ele>
        <time>2026-03-22T10:01:42Z</time>
      </trkpt>
      <trkpt lat="44.43519" lon="1.54261">
        <ele>233.8</ele>
        <time>2026-03-22T10:01:45Z</time>
      </trkpt>
      <trkpt lat="44.43515" lon="1.54257">
        <ele>233.8</ele>
        <time>2026-03-22T10:01:46Z</time>
      </trkpt>
      <trkpt lat="44.43502" lon="1.54246">
        <ele>234</ele>
        <time>2026-03-22T10:01:49Z</time>
      </trkpt>
      <trkpt lat="44.43459" lon="1.54221">
        <ele>234.6</ele>
        <time>2026-03-22T10:01:58Z</time>
      </trkpt>
      <trkpt lat="44.43454" lon="1.54219">
        <ele>234.6</ele>
        <time>2026-03-22T10:01:59Z</time>
      </trkpt>
      <trkpt lat="44.4345" lon="1.54217">
        <ele>234.8</ele>
        <time>2026-03-22T10:02:00Z</time>
      </trkpt>
      <trkpt lat="44.43445" lon="1.54215">
        <ele>234.8</ele>
        <time>2026-03-22T10:02:01Z</time>
      </trkpt>
      <trkpt lat="44.43441" lon="1.54213">
        <ele>235</ele>
        <time>2026-03-22T10:02:02Z</time>
      </trkpt>
      <trkpt lat="44.43421" lon="1.54205">
        <ele>235.2</ele>
        <time>2026-03-22T10:02:06Z</time>
      </trkpt>
      <trkpt lat="44.43396" lon="1.54197">
        <ele>235.8</ele>
        <time>2026-03-22T10:02:11Z</time>
      </trkpt>
      <trkpt lat="44.43386" lon="1.54196">
        <ele>236</ele>
        <time>2026-03-22T10:02:13Z</time>
      </trkpt>
      <trkpt lat="44.43367" lon="1.54196">
        <ele>236.2</ele>
        <time>2026-03-22T10:02:17Z</time>
      </trkpt>
      <trkpt lat="44.43362" lon="1.54196">
        <ele>236.4</ele>
        <time>2026-03-22T10:02:18Z</time>
      </trkpt>
      <trkpt lat="44.43358" lon="1.54197">
        <ele>236.4</ele>
        <time>2026-03-22T10:02:19Z</time>
      </trkpt>
      <trkpt lat="44.43353" lon="1.54197">
        <ele>236.4</ele>
        <time>2026-03-22T10:02:20Z</time>
      </trkpt>
      <trkpt lat="44.43348" lon="1.54197">
        <ele>236.6</ele>
        <time>2026-03-22T10:02:21Z</time>
      </trkpt>
      <trkpt lat="44.43343" lon="1.54198">
        <ele>236.8</ele>
        <time>2026-03-22T10:02:22Z</time>
      </trkpt>
      <trkpt lat="44.43339" lon="1.54198">
        <ele>237</ele>
        <time>2026-03-22T10:02:23Z</time>
      </trkpt>
      <trkpt lat="44.43329" lon="1.54198">
        <ele>237.4</ele>
        <time>2026-03-22T10:02:25Z</time>
      </trkpt>
      <trkpt lat="44.43315" lon="1.542">
        <ele>237.8</ele>
        <time>2026-03-22T10:02:28Z</time>
      </trkpt>
      <trkpt lat="44.4331" lon="1.542">
        <ele>238.2</ele>
        <time>2026-03-22T10:02:29Z</time>
      </trkpt>
      <trkpt lat="44.43306" lon="1.54201">
        <ele>238.4</ele>
        <time>2026-03-22T10:02:30Z</time>
      </trkpt>
      <trkpt lat="44.43301" lon="1.54201">
        <ele>238.4</ele>
        <time>2026-03-22T10:02:31Z</time>
      </trkpt>
      <trkpt lat="44.43297" lon="1.54202">
        <ele>238.6</ele>
        <time>2026-03-22T10:02:32Z</time>
      </trkpt>
      <trkpt lat="44.43292" lon="1.54203">
        <ele>238.8</ele>
        <time>2026-03-22T10:02:33Z</time>
      </trkpt>
      <trkpt lat="44.43288" lon="1.54204">
        <ele>239</ele>
        <time>2026-03-22T10:02:34Z</time>
      </trkpt>
      <trkpt lat="44.43284" lon="1.54205">
        <ele>239.2</ele>
        <time>2026-03-22T10:02:35Z</time>
      </trkpt>
      <trkpt lat="44.4328" lon="1.54206">
        <ele>239.6</ele>
        <time>2026-03-22T10:02:36Z</time>
      </trkpt>
      <trkpt lat="44.43277" lon="1.54208">
        <ele>239.8</ele>
        <time>2026-03-22T10:02:37Z</time>
      </trkpt>
      <trkpt lat="44.43274" lon="1.5421">
        <ele>240</ele>
        <time>2026-03-22T10:02:38Z</time>
      </trkpt>
      <trkpt lat="44.43273" lon="1.54211">
        <ele>240.2</ele>
        <time>2026-03-22T10:02:39Z</time>
      </trkpt>
      <trkpt lat="44.43272" lon="1.54213">
        <ele>240.6</ele>
        <time>2026-03-22T10:02:40Z</time>
      </trkpt>
      <trkpt lat="44.43272" lon="1.54214">
        <ele>240.8</ele>
        <time>2026-03-22T10:02:41Z</time>
      </trkpt>
      <trkpt lat="44.43272" lon="1.54214">
        <ele>240.8</ele>
        <time>2026-03-22T10:02:42Z</time>
      </trkpt>
      <trkpt lat="44.43272" lon="1.54214">
        <ele>241</ele>
        <time>2026-03-22T10:02:43Z</time>
      </trkpt>
      <trkpt lat="44.43273" lon="1.54219">
        <ele>241.6</ele>
        <time>2026-03-22T10:02:52Z</time>
      </trkpt>
      <trkpt lat="44.43274" lon="1.54223">
        <ele>241.6</ele>
        <time>2026-03-22T10:02:53Z</time>
      </trkpt>
      <trkpt lat="44.43274" lon="1.54228">
        <ele>241.6</ele>
        <time>2026-03-22T10:02:54Z</time>
      </trkpt>
      <trkpt lat="44.43275" lon="1.54234">
        <ele>241.6</ele>
        <time>2026-03-22T10:02:55Z</time>
      </trkpt>
      <trkpt lat="44.43275" lon="1.5424">
        <ele>241.6</ele>
        <time>2026-03-22T10:02:56Z</time>
      </trkpt>
      <trkpt lat="44.43276" lon="1.54246">
        <ele>241.6</ele>
        <time>2026-03-22T10:02:57Z</time>
      </trkpt>
      <trkpt lat="44.43277" lon="1.54254">
        <ele>241.6</ele>
        <time>2026-03-22T10:02:58Z</time>
      </trkpt>
      <trkpt lat="44.43278" lon="1.54261">
        <ele>241.6</ele>
        <time>2026-03-22T10:02:59Z</time>
      </trkpt>
      <trkpt lat="44.43279" lon="1.54269">
        <ele>241.6</ele>
        <time>2026-03-22T10:03:00Z</time>
      </trkpt>
      <trkpt lat="44.4328" lon="1.54278">
        <ele>241.6</ele>
        <time>2026-03-22T10:03:01Z</time>
      </trkpt>
      <trkpt lat="44.43283" lon="1.54307">
        <ele>241.6</ele>
        <time>2026-03-22T10:03:04Z</time>
      </trkpt>
      <trkpt lat="44.43287" lon="1.54336">
        <ele>240.8</ele>
        <time>2026-03-22T10:03:07Z</time>
      </trkpt>
      <trkpt lat="44.4329" lon="1.54344">
        <ele>240.4</ele>
        <time>2026-03-22T10:03:08Z</time>
      </trkpt>
      <trkpt lat="44.43294" lon="1.5435">
        <ele>239.8</ele>
        <time>2026-03-22T10:03:09Z</time>
      </trkpt>
      <trkpt lat="44.433" lon="1.54354">
        <ele>239.4</ele>
        <time>2026-03-22T10:03:10Z</time>
      </trkpt>
      <trkpt lat="44.43304" lon="1.54359">
        <ele>238.6</ele>
        <time>2026-03-22T10:03:11Z</time>
      </trkpt>
      <trkpt lat="44.43306" lon="1.54365">
        <ele>237.4</ele>
        <time>2026-03-22T10:03:12Z</time>
      </trkpt>
      <trkpt lat="44.43308" lon="1.54374">
        <ele>236.8</ele>
        <time>2026-03-22T10:03:13Z</time>
      </trkpt>
      <trkpt lat="44.43309" lon="1.54385">
        <ele>236</ele>
        <time>2026-03-22T10:03:14Z</time>
      </trkpt>
      <trkpt lat="44.4331" lon="1.54396">
        <ele>234.6</ele>
        <time>2026-03-22T10:03:15Z</time>
      </trkpt>
      <trkpt lat="44.4331" lon="1.54408">
        <ele>234.6</ele>
        <time>2026-03-22T10:03:16Z</time>
      </trkpt>
      <trkpt lat="44.43313" lon="1.54432">
        <ele>232.8</ele>
        <time>2026-03-22T10:03:18Z</time>
      </trkpt>
      <trkpt lat="44.43314" lon="1.54443">
        <ele>232</ele>
        <time>2026-03-22T10:03:19Z</time>
      </trkpt>
      <trkpt lat="44.43315" lon="1.54454">
        <ele>231.2</ele>
        <time>2026-03-22T10:03:20Z</time>
      </trkpt>
      <trkpt lat="44.43316" lon="1.54464">
        <ele>230.8</ele>
        <time>2026-03-22T10:03:21Z</time>
      </trkpt>
      <trkpt lat="44.43317" lon="1.54474">
        <ele>229.6</ele>
        <time>2026-03-22T10:03:22Z</time>
      </trkpt>
      <trkpt lat="44.4332" lon="1.54482">
        <ele>228.2</ele>
        <time>2026-03-22T10:03:23Z</time>
      </trkpt>
      <trkpt lat="44.43325" lon="1.54487">
        <ele>226.6</ele>
        <time>2026-03-22T10:03:24Z</time>
      </trkpt>
      <trkpt lat="44.43331" lon="1.54489">
        <ele>225.6</ele>
        <time>2026-03-22T10:03:25Z</time>
      </trkpt>
      <trkpt lat="44.43339" lon="1.54489">
        <ele>224.2</ele>
        <time>2026-03-22T10:03:26Z</time>
      </trkpt>
      <trkpt lat="44.43347" lon="1.54487">
        <ele>222</ele>
        <time>2026-03-22T10:03:27Z</time>
      </trkpt>
      <trkpt lat="44.43355" lon="1.54486">
        <ele>219.8</ele>
        <time>2026-03-22T10:03:28Z</time>
      </trkpt>
      <trkpt lat="44.43363" lon="1.54487">
        <ele>217.6</ele>
        <time>2026-03-22T10:03:29Z</time>
      </trkpt>
      <trkpt lat="44.43372" lon="1.5449">
        <ele>216</ele>
        <time>2026-03-22T10:03:30Z</time>
      </trkpt>
      <trkpt lat="44.4338" lon="1.54495">
        <ele>215</ele>
        <time>2026-03-22T10:03:31Z</time>
      </trkpt>
      <trkpt lat="44.43387" lon="1.54502">
        <ele>213.4</ele>
        <time>2026-03-22T10:03:32Z</time>
      </trkpt>
      <trkpt lat="44.43395" lon="1.5451">
        <ele>212</ele>
        <time>2026-03-22T10:03:33Z</time>
      </trkpt>
      <trkpt lat="44.43402" lon="1.54518">
        <ele>210.6</ele>
        <time>2026-03-22T10:03:34Z</time>
      </trkpt>
      <trkpt lat="44.43419" lon="1.54533">
        <ele>209.6</ele>
        <time>2026-03-22T10:03:36Z</time>
      </trkpt>
      <trkpt lat="44.43427" lon="1.54542">
        <ele>209.2</ele>
        <time>2026-03-22T10:03:37Z</time>
      </trkpt>
      <trkpt lat="44.43442" lon="1.54562">
        <ele>207.6</ele>
        <time>2026-03-22T10:03:39Z</time>
      </trkpt>
      <trkpt lat="44.4345" lon="1.54572">
        <ele>206.2</ele>
        <time>2026-03-22T10:03:40Z</time>
      </trkpt>
      <trkpt lat="44.43467" lon="1.54591">
        <ele>204.4</ele>
        <time>2026-03-22T10:03:42Z</time>
      </trkpt>
      <trkpt lat="44.43484" lon="1.54611">
        <ele>201.8</ele>
        <time>2026-03-22T10:03:44Z</time>
      </trkpt>
      <trkpt lat="44.43492" lon="1.5462">
        <ele>200.8</ele>
        <time>2026-03-22T10:03:45Z</time>
      </trkpt>
      <trkpt lat="44.43501" lon="1.54628">
        <ele>199.6</ele>
        <time>2026-03-22T10:03:46Z</time>
      </trkpt>
      <trkpt lat="44.43519" lon="1.54646">
        <ele>197.6</ele>
        <time>2026-03-22T10:03:48Z</time>
      </trkpt>
      <trkpt lat="44.43529" lon="1.54654">
        <ele>196.8</ele>
        <time>2026-03-22T10:03:49Z</time>
      </trkpt>
      <trkpt lat="44.4354" lon="1.54663">
        <ele>195.6</ele>
        <time>2026-03-22T10:03:50Z</time>
      </trkpt>
      <trkpt lat="44.4355" lon="1.54672">
        <ele>194.2</ele>
        <time>2026-03-22T10:03:51Z</time>
      </trkpt>
      <trkpt lat="44.4356" lon="1.54682">
        <ele>193</ele>
        <time>2026-03-22T10:03:52Z</time>
      </trkpt>
      <trkpt lat="44.43569" lon="1.54693">
        <ele>190.2</ele>
        <time>2026-03-22T10:03:53Z</time>
      </trkpt>
      <trkpt lat="44.43579" lon="1.54704">
        <ele>189</ele>
        <time>2026-03-22T10:03:54Z</time>
      </trkpt>
      <trkpt lat="44.43587" lon="1.54716">
        <ele>187.2</ele>
        <time>2026-03-22T10:03:55Z</time>
      </trkpt>
      <trkpt lat="44.43604" lon="1.54744">
        <ele>185.2</ele>
        <time>2026-03-22T10:03:57Z</time>
      </trkpt>
      <trkpt lat="44.43611" lon="1.54759">
        <ele>183.4</ele>
        <time>2026-03-22T10:03:58Z</time>
      </trkpt>
      <trkpt lat="44.43618" lon="1.54774">
        <ele>181.8</ele>
        <time>2026-03-22T10:03:59Z</time>
      </trkpt>
      <trkpt lat="44.43625" lon="1.54788">
        <ele>180.6</ele>
        <time>2026-03-22T10:04:00Z</time>
      </trkpt>
      <trkpt lat="44.43632" lon="1.54801">
        <ele>179</ele>
        <time>2026-03-22T10:04:01Z</time>
      </trkpt>
      <trkpt lat="44.43638" lon="1.54813">
        <ele>177.2</ele>
        <time>2026-03-22T10:04:02Z</time>
      </trkpt>
      <trkpt lat="44.43642" lon="1.54823">
        <ele>176</ele>
        <time>2026-03-22T10:04:03Z</time>
      </trkpt>
      <trkpt lat="44.43645" lon="1.54832">
        <ele>174</ele>
        <time>2026-03-22T10:04:04Z</time>
      </trkpt>
      <trkpt lat="44.43646" lon="1.54839">
        <ele>172.6</ele>
        <time>2026-03-22T10:04:05Z</time>
      </trkpt>
      <trkpt lat="44.43645" lon="1.54846">
        <ele>170.8</ele>
        <time>2026-03-22T10:04:06Z</time>
      </trkpt>
      <trkpt lat="44.43642" lon="1.54851">
        <ele>169</ele>
        <time>2026-03-22T10:04:07Z</time>
      </trkpt>
      <trkpt lat="44.43639" lon="1.54855">
        <ele>167.2</ele>
        <time>2026-03-22T10:04:08Z</time>
      </trkpt>
      <trkpt lat="44.43635" lon="1.54858">
        <ele>165.6</ele>
        <time>2026-03-22T10:04:09Z</time>
      </trkpt>
      <trkpt lat="44.43632" lon="1.54861">
        <ele>164.6</ele>
        <time>2026-03-22T10:04:10Z</time>
      </trkpt>
      <trkpt lat="44.43629" lon="1.54864">
        <ele>164</ele>
        <time>2026-03-22T10:04:11Z</time>
      </trkpt>
      <trkpt lat="44.43626" lon="1.54866">
        <ele>163</ele>
        <time>2026-03-22T10:04:12Z</time>
      </trkpt>
      <trkpt lat="44.43623" lon="1.54868">
        <ele>162.2</ele>
        <time>2026-03-22T10:04:13Z</time>
      </trkpt>
      <trkpt lat="44.43613" lon="1.54876">
        <ele>161.4</ele>
        <time>2026-03-22T10:04:16Z</time>
      </trkpt>
      <trkpt lat="44.4361" lon="1.54879">
        <ele>161.4</ele>
        <time>2026-03-22T10:04:17Z</time>
      </trkpt>
      <trkpt lat="44.43607" lon="1.54883">
        <ele>161.4</ele>
        <time>2026-03-22T10:04:18Z</time>
      </trkpt>
      <trkpt lat="44.43604" lon="1.54886">
        <ele>161.4</ele>
        <time>2026-03-22T10:04:19Z</time>
      </trkpt>
      <trkpt lat="44.43601" lon="1.54889">
        <ele>161.4</ele>
        <time>2026-03-22T10:04:20Z</time>
      </trkpt>
      <trkpt lat="44.43599" lon="1.54892">
        <ele>161.4</ele>
        <time>2026-03-22T10:04:21Z</time>
      </trkpt>
      <trkpt lat="44.43594" lon="1.54899">
        <ele>161.4</ele>
        <time>2026-03-22T10:04:23Z</time>
      </trkpt>
      <trkpt lat="44.43586" lon="1.54911">
        <ele>161.4</ele>
        <time>2026-03-22T10:04:26Z</time>
      </trkpt>
      <trkpt lat="44.43584" lon="1.54914">
        <ele>161.6</ele>
        <time>2026-03-22T10:04:27Z</time>
      </trkpt>
      <trkpt lat="44.43579" lon="1.54922">
        <ele>161.8</ele>
        <time>2026-03-22T10:04:29Z</time>
      </trkpt>
      <trkpt lat="44.43575" lon="1.54929">
        <ele>162.2</ele>
        <time>2026-03-22T10:04:31Z</time>
      </trkpt>
      <trkpt lat="44.43573" lon="1.54933">
        <ele>162.4</ele>
        <time>2026-03-22T10:04:32Z</time>
      </trkpt>
      <trkpt lat="44.43565" lon="1.54946">
        <ele>163.2</ele>
        <time>2026-03-22T10:04:36Z</time>
      </trkpt>
      <trkpt lat="44.43562" lon="1.5495">
        <ele>163.4</ele>
        <time>2026-03-22T10:04:37Z</time>
      </trkpt>
      <trkpt lat="44.43547" lon="1.54966">
        <ele>164</ele>
        <time>2026-03-22T10:04:42Z</time>
      </trkpt>
      <trkpt lat="44.43541" lon="1.54969">
        <ele>164.6</ele>
        <time>2026-03-22T10:04:44Z</time>
      </trkpt>
      <trkpt lat="44.43526" lon="1.54974">
        <ele>165.4</ele>
        <time>2026-03-22T10:04:48Z</time>
      </trkpt>
      <trkpt lat="44.43523" lon="1.54974">
        <ele>165.6</ele>
        <time>2026-03-22T10:04:49Z</time>
      </trkpt>
      <trkpt lat="44.43508" lon="1.54979">
        <ele>166.8</ele>
        <time>2026-03-22T10:04:53Z</time>
      </trkpt>
      <trkpt lat="44.43504" lon="1.5498">
        <ele>167</ele>
        <time>2026-03-22T10:04:54Z</time>
      </trkpt>
      <trkpt lat="44.435" lon="1.54981">
        <ele>167.4</ele>
        <time>2026-03-22T10:04:55Z</time>
      </trkpt>
      <trkpt lat="44.43496" lon="1.54982">
        <ele>167.6</ele>
        <time>2026-03-22T10:04:56Z</time>
      </trkpt>
      <trkpt lat="44.43493" lon="1.54983">
        <ele>167.8</ele>
        <time>2026-03-22T10:04:57Z</time>
      </trkpt>
      <trkpt lat="44.43489" lon="1.54984">
        <ele>168</ele>
        <time>2026-03-22T10:04:58Z</time>
      </trkpt>
      <trkpt lat="44.43485" lon="1.54985">
        <ele>168.2</ele>
        <time>2026-03-22T10:04:59Z</time>
      </trkpt>
      <trkpt lat="44.43481" lon="1.54987">
        <ele>168.4</ele>
        <time>2026-03-22T10:05:00Z</time>
      </trkpt>
      <trkpt lat="44.43478" lon="1.54988">
        <ele>168.4</ele>
        <time>2026-03-22T10:05:01Z</time>
      </trkpt>
      <trkpt lat="44.43474" lon="1.54989">
        <ele>168.6</ele>
        <time>2026-03-22T10:05:02Z</time>
      </trkpt>
      <trkpt lat="44.43471" lon="1.5499">
        <ele>168.6</ele>
        <time>2026-03-22T10:05:03Z</time>
      </trkpt>
      <trkpt lat="44.43467" lon="1.54991">
        <ele>168.8</ele>
        <time>2026-03-22T10:05:04Z</time>
      </trkpt>
      <trkpt lat="44.43464" lon="1.54992">
        <ele>168.8</ele>
        <time>2026-03-22T10:05:05Z</time>
      </trkpt>
      <trkpt lat="44.4346" lon="1.54992">
        <ele>169</ele>
        <time>2026-03-22T10:05:06Z</time>
      </trkpt>
      <trkpt lat="44.43456" lon="1.54993">
        <ele>169</ele>
        <time>2026-03-22T10:05:07Z</time>
      </trkpt>
      <trkpt lat="44.43453" lon="1.54994">
        <ele>169.2</ele>
        <time>2026-03-22T10:05:08Z</time>
      </trkpt>
      <trkpt lat="44.43449" lon="1.54994">
        <ele>169.2</ele>
        <time>2026-03-22T10:05:09Z</time>
      </trkpt>
      <trkpt lat="44.43445" lon="1.54993">
        <ele>169.2</ele>
        <time>2026-03-22T10:05:10Z</time>
      </trkpt>
      <trkpt lat="44.43442" lon="1.54994">
        <ele>169.4</ele>
        <time>2026-03-22T10:05:11Z</time>
      </trkpt>
      <trkpt lat="44.43438" lon="1.54993">
        <ele>169.6</ele>
        <time>2026-03-22T10:05:12Z</time>
      </trkpt>
      <trkpt lat="44.43434" lon="1.54993">
        <ele>169.6</ele>
        <time>2026-03-22T10:05:13Z</time>
      </trkpt>
      <trkpt lat="44.43431" lon="1.54993">
        <ele>169.8</ele>
        <time>2026-03-22T10:05:14Z</time>
      </trkpt>
      <trkpt lat="44.43427" lon="1.54992">
        <ele>170</ele>
        <time>2026-03-22T10:05:15Z</time>
      </trkpt>
      <trkpt lat="44.43424" lon="1.54992">
        <ele>170.2</ele>
        <time>2026-03-22T10:05:16Z</time>
      </trkpt>
      <trkpt lat="44.4342" lon="1.54992">
        <ele>170.2</ele>
        <time>2026-03-22T10:05:17Z</time>
      </trkpt>
      <trkpt lat="44.43417" lon="1.54992">
        <ele>170.4</ele>
        <time>2026-03-22T10:05:18Z</time>
      </trkpt>
      <trkpt lat="44.43413" lon="1.54991">
        <ele>170.6</ele>
        <time>2026-03-22T10:05:19Z</time>
      </trkpt>
      <trkpt lat="44.4341" lon="1.54991">
        <ele>170.8</ele>
        <time>2026-03-22T10:05:20Z</time>
      </trkpt>
      <trkpt lat="44.43406" lon="1.5499">
        <ele>171</ele>
        <time>2026-03-22T10:05:21Z</time>
      </trkpt>
      <trkpt lat="44.43403" lon="1.5499">
        <ele>171.2</ele>
        <time>2026-03-22T10:05:22Z</time>
      </trkpt>
      <trkpt lat="44.43399" lon="1.5499">
        <ele>171.4</ele>
        <time>2026-03-22T10:05:23Z</time>
      </trkpt>
      <trkpt lat="44.43396" lon="1.5499">
        <ele>171.6</ele>
        <time>2026-03-22T10:05:24Z</time>
      </trkpt>
      <trkpt lat="44.43392" lon="1.5499">
        <ele>171.8</ele>
        <time>2026-03-22T10:05:25Z</time>
      </trkpt>
      <trkpt lat="44.43389" lon="1.54989">
        <ele>172</ele>
        <time>2026-03-22T10:05:26Z</time>
      </trkpt>
      <trkpt lat="44.43385" lon="1.54989">
        <ele>172.2</ele>
        <time>2026-03-22T10:05:27Z</time>
      </trkpt>
      <trkpt lat="44.43382" lon="1.54989">
        <ele>172.4</ele>
        <time>2026-03-22T10:05:28Z</time>
      </trkpt>
      <trkpt lat="44.43379" lon="1.54989">
        <ele>172.6</ele>
        <time>2026-03-22T10:05:29Z</time>
      </trkpt>
      <trkpt lat="44.43376" lon="1.54989">
        <ele>172.8</ele>
        <time>2026-03-22T10:05:30Z</time>
      </trkpt>
      <trkpt lat="44.43372" lon="1.54989">
        <ele>173</ele>
        <time>2026-03-22T10:05:31Z</time>
      </trkpt>
      <trkpt lat="44.43369" lon="1.5499">
        <ele>173.2</ele>
        <time>2026-03-22T10:05:32Z</time>
      </trkpt>
      <trkpt lat="44.43366" lon="1.5499">
        <ele>173.2</ele>
        <time>2026-03-22T10:05:33Z</time>
      </trkpt>
      <trkpt lat="44.43362" lon="1.5499">
        <ele>173.4</ele>
        <time>2026-03-22T10:05:34Z</time>
      </trkpt>
      <trkpt lat="44.43359" lon="1.5499">
        <ele>173.4</ele>
        <time>2026-03-22T10:05:35Z</time>
      </trkpt>
      <trkpt lat="44.43355" lon="1.54991">
        <ele>173.6</ele>
        <time>2026-03-22T10:05:36Z</time>
      </trkpt>
      <trkpt lat="44.43352" lon="1.5499">
        <ele>173.8</ele>
        <time>2026-03-22T10:05:37Z</time>
      </trkpt>
      <trkpt lat="44.43348" lon="1.54991">
        <ele>174</ele>
        <time>2026-03-22T10:05:38Z</time>
      </trkpt>
      <trkpt lat="44.43345" lon="1.54992">
        <ele>174.2</ele>
        <time>2026-03-22T10:05:39Z</time>
      </trkpt>
      <trkpt lat="44.43341" lon="1.54993">
        <ele>174.4</ele>
        <time>2026-03-22T10:05:40Z</time>
      </trkpt>
      <trkpt lat="44.43337" lon="1.54993">
        <ele>174.4</ele>
        <time>2026-03-22T10:05:41Z</time>
      </trkpt>
      <trkpt lat="44.43333" lon="1.54993">
        <ele>174.8</ele>
        <time>2026-03-22T10:05:42Z</time>
      </trkpt>
      <trkpt lat="44.43329" lon="1.54994">
        <ele>175</ele>
        <time>2026-03-22T10:05:43Z</time>
      </trkpt>
      <trkpt lat="44.43326" lon="1.54995">
        <ele>175.2</ele>
        <time>2026-03-22T10:05:44Z</time>
      </trkpt>
      <trkpt lat="44.43322" lon="1.54996">
        <ele>175.4</ele>
        <time>2026-03-22T10:05:45Z</time>
      </trkpt>
      <trkpt lat="44.43319" lon="1.54996">
        <ele>175.4</ele>
        <time>2026-03-22T10:05:46Z</time>
      </trkpt>
      <trkpt lat="44.43315" lon="1.54998">
        <ele>175.6</ele>
        <time>2026-03-22T10:05:47Z</time>
      </trkpt>
      <trkpt lat="44.43312" lon="1.55">
        <ele>175.8</ele>
        <time>2026-03-22T10:05:48Z</time>
      </trkpt>
      <trkpt lat="44.43308" lon="1.55002">
        <ele>175.8</ele>
        <time>2026-03-22T10:05:49Z</time>
      </trkpt>
      <trkpt lat="44.43304" lon="1.55003">
        <ele>176.2</ele>
        <time>2026-03-22T10:05:50Z</time>
      </trkpt>
      <trkpt lat="44.43301" lon="1.55005">
        <ele>176.4</ele>
        <time>2026-03-22T10:05:51Z</time>
      </trkpt>
      <trkpt lat="44.43298" lon="1.55006">
        <ele>176.8</ele>
        <time>2026-03-22T10:05:52Z</time>
      </trkpt>
      <trkpt lat="44.43295" lon="1.55008">
        <ele>177</ele>
        <time>2026-03-22T10:05:53Z</time>
      </trkpt>
      <trkpt lat="44.43292" lon="1.5501">
        <ele>177.4</ele>
        <time>2026-03-22T10:05:54Z</time>
      </trkpt>
      <trkpt lat="44.43288" lon="1.55011">
        <ele>177.6</ele>
        <time>2026-03-22T10:05:55Z</time>
      </trkpt>
      <trkpt lat="44.43286" lon="1.55013">
        <ele>177.8</ele>
        <time>2026-03-22T10:05:56Z</time>
      </trkpt>
      <trkpt lat="44.43282" lon="1.55014">
        <ele>178</ele>
        <time>2026-03-22T10:05:57Z</time>
      </trkpt>
      <trkpt lat="44.43279" lon="1.55015">
        <ele>178</ele>
        <time>2026-03-22T10:05:58Z</time>
      </trkpt>
      <trkpt lat="44.43275" lon="1.55017">
        <ele>178.4</ele>
        <time>2026-03-22T10:05:59Z</time>
      </trkpt>
      <trkpt lat="44.43271" lon="1.55019">
        <ele>178.6</ele>
        <time>2026-03-22T10:06:00Z</time>
      </trkpt>
      <trkpt lat="44.43269" lon="1.5502">
        <ele>179</ele>
        <time>2026-03-22T10:06:01Z</time>
      </trkpt>
      <trkpt lat="44.43266" lon="1.55022">
        <ele>179.2</ele>
        <time>2026-03-22T10:06:02Z</time>
      </trkpt>
      <trkpt lat="44.43262" lon="1.55024">
        <ele>179.4</ele>
        <time>2026-03-22T10:06:03Z</time>
      </trkpt>
      <trkpt lat="44.43259" lon="1.55025">
        <ele>179.6</ele>
        <time>2026-03-22T10:06:04Z</time>
      </trkpt>
      <trkpt lat="44.43256" lon="1.55027">
        <ele>179.6</ele>
        <time>2026-03-22T10:06:05Z</time>
      </trkpt>
      <trkpt lat="44.43252" lon="1.55029">
        <ele>179.8</ele>
        <time>2026-03-22T10:06:06Z</time>
      </trkpt>
      <trkpt lat="44.43249" lon="1.5503">
        <ele>180</ele>
        <time>2026-03-22T10:06:07Z</time>
      </trkpt>
      <trkpt lat="44.43246" lon="1.55032">
        <ele>180</ele>
        <time>2026-03-22T10:06:08Z</time>
      </trkpt>
      <trkpt lat="44.43243" lon="1.55033">
        <ele>180.4</ele>
        <time>2026-03-22T10:06:09Z</time>
      </trkpt>
      <trkpt lat="44.43239" lon="1.55034">
        <ele>180.4</ele>
        <time>2026-03-22T10:06:10Z</time>
      </trkpt>
      <trkpt lat="44.43236" lon="1.55035">
        <ele>180.6</ele>
        <time>2026-03-22T10:06:11Z</time>
      </trkpt>
      <trkpt lat="44.43234" lon="1.55037">
        <ele>180.8</ele>
        <time>2026-03-22T10:06:12Z</time>
      </trkpt>
      <trkpt lat="44.4323" lon="1.55038">
        <ele>181</ele>
        <time>2026-03-22T10:06:13Z</time>
      </trkpt>
      <trkpt lat="44.43228" lon="1.55039">
        <ele>181.2</ele>
        <time>2026-03-22T10:06:14Z</time>
      </trkpt>
      <trkpt lat="44.43225" lon="1.5504">
        <ele>181.4</ele>
        <time>2026-03-22T10:06:15Z</time>
      </trkpt>
      <trkpt lat="44.43222" lon="1.55042">
        <ele>181.6</ele>
        <time>2026-03-22T10:06:16Z</time>
      </trkpt>
      <trkpt lat="44.43218" lon="1.55043">
        <ele>181.8</ele>
        <time>2026-03-22T10:06:17Z</time>
      </trkpt>
      <trkpt lat="44.43216" lon="1.55044">
        <ele>182.2</ele>
        <time>2026-03-22T10:06:18Z</time>
      </trkpt>
      <trkpt lat="44.43213" lon="1.55045">
        <ele>182.4</ele>
        <time>2026-03-22T10:06:19Z</time>
      </trkpt>
      <trkpt lat="44.43209" lon="1.55045">
        <ele>182.6</ele>
        <time>2026-03-22T10:06:20Z</time>
      </trkpt>
      <trkpt lat="44.43207" lon="1.55046">
        <ele>182.6</ele>
        <time>2026-03-22T10:06:21Z</time>
      </trkpt>
      <trkpt lat="44.43203" lon="1.55047">
        <ele>183</ele>
        <time>2026-03-22T10:06:22Z</time>
      </trkpt>
      <trkpt lat="44.43199" lon="1.55047">
        <ele>183.2</ele>
        <time>2026-03-22T10:06:23Z</time>
      </trkpt>
      <trkpt lat="44.43196" lon="1.55048">
        <ele>183.4</ele>
        <time>2026-03-22T10:06:24Z</time>
      </trkpt>
      <trkpt lat="44.43193" lon="1.55048">
        <ele>183.6</ele>
        <time>2026-03-22T10:06:25Z</time>
      </trkpt>
      <trkpt lat="44.43189" lon="1.55048">
        <ele>183.8</ele>
        <time>2026-03-22T10:06:26Z</time>
      </trkpt>
      <trkpt lat="44.43186" lon="1.55048">
        <ele>184</ele>
        <time>2026-03-22T10:06:27Z</time>
      </trkpt>
      <trkpt lat="44.43182" lon="1.55048">
        <ele>184.4</ele>
        <time>2026-03-22T10:06:28Z</time>
      </trkpt>
      <trkpt lat="44.43179" lon="1.55048">
        <ele>184.8</ele>
        <time>2026-03-22T10:06:29Z</time>
      </trkpt>
      <trkpt lat="44.43176" lon="1.55048">
        <ele>185</ele>
        <time>2026-03-22T10:06:30Z</time>
      </trkpt>
      <trkpt lat="44.43173" lon="1.55048">
        <ele>185.4</ele>
        <time>2026-03-22T10:06:31Z</time>
      </trkpt>
      <trkpt lat="44.4317" lon="1.55047">
        <ele>185.6</ele>
        <time>2026-03-22T10:06:32Z</time>
      </trkpt>
      <trkpt lat="44.43167" lon="1.55046">
        <ele>186</ele>
        <time>2026-03-22T10:06:33Z</time>
      </trkpt>
      <trkpt lat="44.43163" lon="1.55045">
        <ele>186.4</ele>
        <time>2026-03-22T10:06:34Z</time>
      </trkpt>
      <trkpt lat="44.4316" lon="1.55045">
        <ele>186.6</ele>
        <time>2026-03-22T10:06:35Z</time>
      </trkpt>
      <trkpt lat="44.43158" lon="1.55044">
        <ele>186.8</ele>
        <time>2026-03-22T10:06:36Z</time>
      </trkpt>
      <trkpt lat="44.43154" lon="1.55043">
        <ele>187</ele>
        <time>2026-03-22T10:06:37Z</time>
      </trkpt>
      <trkpt lat="44.43151" lon="1.55043">
        <ele>187.4</ele>
        <time>2026-03-22T10:06:38Z</time>
      </trkpt>
      <trkpt lat="44.43148" lon="1.55043">
        <ele>187.6</ele>
        <time>2026-03-22T10:06:39Z</time>
      </trkpt>
      <trkpt lat="44.43145" lon="1.55042">
        <ele>188</ele>
        <time>2026-03-22T10:06:40Z</time>
      </trkpt>
      <trkpt lat="44.43141" lon="1.55042">
        <ele>188.2</ele>
        <time>2026-03-22T10:06:41Z</time>
      </trkpt>
      <trkpt lat="44.43138" lon="1.55042">
        <ele>188.6</ele>
        <time>2026-03-22T10:06:42Z</time>
      </trkpt>
      <trkpt lat="44.43135" lon="1.55042">
        <ele>189</ele>
        <time>2026-03-22T10:06:43Z</time>
      </trkpt>
      <trkpt lat="44.43132" lon="1.55042">
        <ele>189.6</ele>
        <time>2026-03-22T10:06:44Z</time>
      </trkpt>
      <trkpt lat="44.43129" lon="1.55041">
        <ele>189.8</ele>
        <time>2026-03-22T10:06:45Z</time>
      </trkpt>
      <trkpt lat="44.43125" lon="1.5504">
        <ele>190.4</ele>
        <time>2026-03-22T10:06:46Z</time>
      </trkpt>
      <trkpt lat="44.43122" lon="1.5504">
        <ele>190.8</ele>
        <time>2026-03-22T10:06:47Z</time>
      </trkpt>
      <trkpt lat="44.4312" lon="1.55039">
        <ele>191.2</ele>
        <time>2026-03-22T10:06:48Z</time>
      </trkpt>
      <trkpt lat="44.43116" lon="1.55038">
        <ele>191.6</ele>
        <time>2026-03-22T10:06:49Z</time>
      </trkpt>
      <trkpt lat="44.43113" lon="1.55037">
        <ele>191.8</ele>
        <time>2026-03-22T10:06:50Z</time>
      </trkpt>
      <trkpt lat="44.43111" lon="1.55036">
        <ele>192.2</ele>
        <time>2026-03-22T10:06:51Z</time>
      </trkpt>
      <trkpt lat="44.43107" lon="1.55034">
        <ele>192.4</ele>
        <time>2026-03-22T10:06:52Z</time>
      </trkpt>
      <trkpt lat="44.43104" lon="1.55033">
        <ele>192.6</ele>
        <time>2026-03-22T10:06:53Z</time>
      </trkpt>
      <trkpt lat="44.43101" lon="1.55031">
        <ele>192.8</ele>
        <time>2026-03-22T10:06:54Z</time>
      </trkpt>
      <trkpt lat="44.43098" lon="1.55029">
        <ele>193</ele>
        <time>2026-03-22T10:06:55Z</time>
      </trkpt>
      <trkpt lat="44.43095" lon="1.55027">
        <ele>193</ele>
        <time>2026-03-22T10:06:56Z</time>
      </trkpt>
      <trkpt lat="44.43092" lon="1.55025">
        <ele>193.2</ele>
        <time>2026-03-22T10:06:57Z</time>
      </trkpt>
      <trkpt lat="44.43089" lon="1.55024">
        <ele>193.4</ele>
        <time>2026-03-22T10:06:58Z</time>
      </trkpt>
      <trkpt lat="44.43085" lon="1.55023">
        <ele>193.8</ele>
        <time>2026-03-22T10:06:59Z</time>
      </trkpt>
      <trkpt lat="44.43082" lon="1.55024">
        <ele>194</ele>
        <time>2026-03-22T10:07:00Z</time>
      </trkpt>
      <trkpt lat="44.43078" lon="1.55025">
        <ele>194.2</ele>
        <time>2026-03-22T10:07:01Z</time>
      </trkpt>
      <trkpt lat="44.43075" lon="1.55025">
        <ele>194.4</ele>
        <time>2026-03-22T10:07:02Z</time>
      </trkpt>
      <trkpt lat="44.43071" lon="1.55026">
        <ele>194.6</ele>
        <time>2026-03-22T10:07:03Z</time>
      </trkpt>
      <trkpt lat="44.43068" lon="1.55027">
        <ele>194.8</ele>
        <time>2026-03-22T10:07:04Z</time>
      </trkpt>
      <trkpt lat="44.43064" lon="1.55029">
        <ele>195</ele>
        <time>2026-03-22T10:07:05Z</time>
      </trkpt>
      <trkpt lat="44.43061" lon="1.5503">
        <ele>195.4</ele>
        <time>2026-03-22T10:07:06Z</time>
      </trkpt>
      <trkpt lat="44.43058" lon="1.55031">
        <ele>195.6</ele>
        <time>2026-03-22T10:07:07Z</time>
      </trkpt>
      <trkpt lat="44.43055" lon="1.55033">
        <ele>195.8</ele>
        <time>2026-03-22T10:07:08Z</time>
      </trkpt>
      <trkpt lat="44.43052" lon="1.55035">
        <ele>196</ele>
        <time>2026-03-22T10:07:09Z</time>
      </trkpt>
      <trkpt lat="44.43049" lon="1.55037">
        <ele>196.2</ele>
        <time>2026-03-22T10:07:10Z</time>
      </trkpt>
      <trkpt lat="44.43046" lon="1.5504">
        <ele>196.4</ele>
        <time>2026-03-22T10:07:11Z</time>
      </trkpt>
      <trkpt lat="44.43043" lon="1.55042">
        <ele>196.6</ele>
        <time>2026-03-22T10:07:12Z</time>
      </trkpt>
      <trkpt lat="44.4304" lon="1.55045">
        <ele>197</ele>
        <time>2026-03-22T10:07:13Z</time>
      </trkpt>
      <trkpt lat="44.43037" lon="1.55047">
        <ele>197.2</ele>
        <time>2026-03-22T10:07:14Z</time>
      </trkpt>
      <trkpt lat="44.43034" lon="1.55048">
        <ele>197.4</ele>
        <time>2026-03-22T10:07:15Z</time>
      </trkpt>
      <trkpt lat="44.4303" lon="1.5505">
        <ele>197.6</ele>
        <time>2026-03-22T10:07:16Z</time>
      </trkpt>
      <trkpt lat="44.43026" lon="1.5505">
        <ele>197.6</ele>
        <time>2026-03-22T10:07:17Z</time>
      </trkpt>
      <trkpt lat="44.43023" lon="1.5505">
        <ele>198</ele>
        <time>2026-03-22T10:07:18Z</time>
      </trkpt>
      <trkpt lat="44.43019" lon="1.55049">
        <ele>198.2</ele>
        <time>2026-03-22T10:07:19Z</time>
      </trkpt>
      <trkpt lat="44.43016" lon="1.55049">
        <ele>198.4</ele>
        <time>2026-03-22T10:07:20Z</time>
      </trkpt>
      <trkpt lat="44.43013" lon="1.55051">
        <ele>198.6</ele>
        <time>2026-03-22T10:07:21Z</time>
      </trkpt>
      <trkpt lat="44.43011" lon="1.55055">
        <ele>198.8</ele>
        <time>2026-03-22T10:07:22Z</time>
      </trkpt>
      <trkpt lat="44.43011" lon="1.55059">
        <ele>199</ele>
        <time>2026-03-22T10:07:23Z</time>
      </trkpt>
      <trkpt lat="44.4301" lon="1.55065">
        <ele>199.2</ele>
        <time>2026-03-22T10:07:24Z</time>
      </trkpt>
      <trkpt lat="44.4301" lon="1.55071">
        <ele>199.6</ele>
        <time>2026-03-22T10:07:25Z</time>
      </trkpt>
      <trkpt lat="44.4301" lon="1.55076">
        <ele>200</ele>
        <time>2026-03-22T10:07:26Z</time>
      </trkpt>
      <trkpt lat="44.4301" lon="1.55081">
        <ele>200</ele>
        <time>2026-03-22T10:07:27Z</time>
      </trkpt>
      <trkpt lat="44.4301" lon="1.55087">
        <ele>200.4</ele>
        <time>2026-03-22T10:07:28Z</time>
      </trkpt>
      <trkpt lat="44.43009" lon="1.55092">
        <ele>200.6</ele>
        <time>2026-03-22T10:07:29Z</time>
      </trkpt>
      <trkpt lat="44.43009" lon="1.55097">
        <ele>200.8</ele>
        <time>2026-03-22T10:07:30Z</time>
      </trkpt>
      <trkpt lat="44.43008" lon="1.55101">
        <ele>200.8</ele>
        <time>2026-03-22T10:07:31Z</time>
      </trkpt>
      <trkpt lat="44.43007" lon="1.55105">
        <ele>201.2</ele>
        <time>2026-03-22T10:07:32Z</time>
      </trkpt>
      <trkpt lat="44.43006" lon="1.55108">
        <ele>201.2</ele>
        <time>2026-03-22T10:07:33Z</time>
      </trkpt>
      <trkpt lat="44.43006" lon="1.55111">
        <ele>201.4</ele>
        <time>2026-03-22T10:07:34Z</time>
      </trkpt>
      <trkpt lat="44.43006" lon="1.55115">
        <ele>201.6</ele>
        <time>2026-03-22T10:07:35Z</time>
      </trkpt>
      <trkpt lat="44.43006" lon="1.55118">
        <ele>201.8</ele>
        <time>2026-03-22T10:07:36Z</time>
      </trkpt>
      <trkpt lat="44.43006" lon="1.55121">
        <ele>202.2</ele>
        <time>2026-03-22T10:07:37Z</time>
      </trkpt>
      <trkpt lat="44.43006" lon="1.55124">
        <ele>202.4</ele>
        <time>2026-03-22T10:07:38Z</time>
      </trkpt>
      <trkpt lat="44.43006" lon="1.55127">
        <ele>203</ele>
        <time>2026-03-22T10:07:39Z</time>
      </trkpt>
      <trkpt lat="44.43006" lon="1.55131">
        <ele>203.6</ele>
        <time>2026-03-22T10:07:40Z</time>
      </trkpt>
      <trkpt lat="44.43007" lon="1.55134">
        <ele>203.8</ele>
        <time>2026-03-22T10:07:41Z</time>
      </trkpt>
      <trkpt lat="44.43007" lon="1.55137">
        <ele>204.4</ele>
        <time>2026-03-22T10:07:42Z</time>
      </trkpt>
      <trkpt lat="44.43007" lon="1.55141">
        <ele>205.2</ele>
        <time>2026-03-22T10:07:43Z</time>
      </trkpt>
      <trkpt lat="44.43007" lon="1.55144">
        <ele>205.8</ele>
        <time>2026-03-22T10:07:44Z</time>
      </trkpt>
      <trkpt lat="44.43007" lon="1.55148">
        <ele>206.2</ele>
        <time>2026-03-22T10:07:45Z</time>
      </trkpt>
      <trkpt lat="44.43007" lon="1.55152">
        <ele>207</ele>
        <time>2026-03-22T10:07:46Z</time>
      </trkpt>
      <trkpt lat="44.43007" lon="1.55156">
        <ele>207.4</ele>
        <time>2026-03-22T10:07:47Z</time>
      </trkpt>
      <trkpt lat="44.43007" lon="1.55158">
        <ele>207.4</ele>
        <time>2026-03-22T10:07:48Z</time>
      </trkpt>
      <trkpt lat="44.43007" lon="1.55162">
        <ele>208</ele>
        <time>2026-03-22T10:07:49Z</time>
      </trkpt>
      <trkpt lat="44.43008" lon="1.55165">
        <ele>208.4</ele>
        <time>2026-03-22T10:07:50Z</time>
      </trkpt>
      <trkpt lat="44.43009" lon="1.55167">
        <ele>209</ele>
        <time>2026-03-22T10:07:51Z</time>
      </trkpt>
      <trkpt lat="44.4301" lon="1.55171">
        <ele>209.4</ele>
        <time>2026-03-22T10:07:52Z</time>
      </trkpt>
      <trkpt lat="44.43011" lon="1.55174">
        <ele>209.8</ele>
        <time>2026-03-22T10:07:53Z</time>
      </trkpt>
      <trkpt lat="44.43011" lon="1.55176">
        <ele>210.2</ele>
        <time>2026-03-22T10:07:54Z</time>
      </trkpt>
      <trkpt lat="44.43012" lon="1.5518">
        <ele>210.6</ele>
        <time>2026-03-22T10:07:55Z</time>
      </trkpt>
      <trkpt lat="44.43012" lon="1.55182">
        <ele>211.2</ele>
        <time>2026-03-22T10:07:56Z</time>
      </trkpt>
      <trkpt lat="44.43012" lon="1.55185">
        <ele>211.8</ele>
        <time>2026-03-22T10:07:57Z</time>
      </trkpt>
      <trkpt lat="44.43013" lon="1.55189">
        <ele>212.8</ele>
        <time>2026-03-22T10:07:58Z</time>
      </trkpt>
      <trkpt lat="44.43013" lon="1.55192">
        <ele>212.8</ele>
        <time>2026-03-22T10:07:59Z</time>
      </trkpt>
      <trkpt lat="44.43012" lon="1.55195">
        <ele>213.4</ele>
        <time>2026-03-22T10:08:00Z</time>
      </trkpt>
      <trkpt lat="44.43012" lon="1.55198">
        <ele>214</ele>
        <time>2026-03-22T10:08:01Z</time>
      </trkpt>
      <trkpt lat="44.43012" lon="1.55202">
        <ele>215.2</ele>
        <time>2026-03-22T10:08:02Z</time>
      </trkpt>
      <trkpt lat="44.43012" lon="1.55205">
        <ele>215.8</ele>
        <time>2026-03-22T10:08:03Z</time>
      </trkpt>
      <trkpt lat="44.43012" lon="1.55208">
        <ele>216.2</ele>
        <time>2026-03-22T10:08:04Z</time>
      </trkpt>
      <trkpt lat="44.43011" lon="1.55211">
        <ele>216.8</ele>
        <time>2026-03-22T10:08:05Z</time>
      </trkpt>
      <trkpt lat="44.43011" lon="1.55214">
        <ele>217.2</ele>
        <time>2026-03-22T10:08:06Z</time>
      </trkpt>
      <trkpt lat="44.43011" lon="1.55216">
        <ele>217.6</ele>
        <time>2026-03-22T10:08:07Z</time>
      </trkpt>
      <trkpt lat="44.43011" lon="1.55219">
        <ele>217.8</ele>
        <time>2026-03-22T10:08:08Z</time>
      </trkpt>
      <trkpt lat="44.43011" lon="1.55223">
        <ele>218.2</ele>
        <time>2026-03-22T10:08:09Z</time>
      </trkpt>
      <trkpt lat="44.43012" lon="1.55227">
        <ele>218.8</ele>
        <time>2026-03-22T10:08:10Z</time>
      </trkpt>
      <trkpt lat="44.43012" lon="1.5523">
        <ele>219.4</ele>
        <time>2026-03-22T10:08:11Z</time>
      </trkpt>
      <trkpt lat="44.43012" lon="1.55234">
        <ele>219.8</ele>
        <time>2026-03-22T10:08:12Z</time>
      </trkpt>
      <trkpt lat="44.43012" lon="1.55238">
        <ele>220.2</ele>
        <time>2026-03-22T10:08:13Z</time>
      </trkpt>
      <trkpt lat="44.43012" lon="1.55241">
        <ele>220.8</ele>
        <time>2026-03-22T10:08:14Z</time>
      </trkpt>
      <trkpt lat="44.43012" lon="1.55245">
        <ele>221.2</ele>
        <time>2026-03-22T10:08:15Z</time>
      </trkpt>
      <trkpt lat="44.43012" lon="1.55248">
        <ele>221.6</ele>
        <time>2026-03-22T10:08:16Z</time>
      </trkpt>
      <trkpt lat="44.43012" lon="1.55252">
        <ele>222</ele>
        <time>2026-03-22T10:08:17Z</time>
      </trkpt>
      <trkpt lat="44.43012" lon="1.55255">
        <ele>222.4</ele>
        <time>2026-03-22T10:08:18Z</time>
      </trkpt>
      <trkpt lat="44.43012" lon="1.55259">
        <ele>223</ele>
        <time>2026-03-22T10:08:19Z</time>
      </trkpt>
      <trkpt lat="44.43012" lon="1.55262">
        <ele>223.4</ele>
        <time>2026-03-22T10:08:20Z</time>
      </trkpt>
      <trkpt lat="44.43012" lon="1.55265">
        <ele>223.8</ele>
        <time>2026-03-22T10:08:21Z</time>
      </trkpt>
      <trkpt lat="44.43012" lon="1.55268">
        <ele>224.2</ele>
        <time>2026-03-22T10:08:22Z</time>
      </trkpt>
      <trkpt lat="44.43012" lon="1.55272">
        <ele>224.6</ele>
        <time>2026-03-22T10:08:23Z</time>
      </trkpt>
      <trkpt lat="44.43013" lon="1.55276">
        <ele>225</ele>
        <time>2026-03-22T10:08:24Z</time>
      </trkpt>
      <trkpt lat="44.43013" lon="1.5528">
        <ele>225.4</ele>
        <time>2026-03-22T10:08:25Z</time>
      </trkpt>
      <trkpt lat="44.43013" lon="1.55284">
        <ele>225.8</ele>
        <time>2026-03-22T10:08:26Z</time>
      </trkpt>
      <trkpt lat="44.43013" lon="1.55288">
        <ele>226.2</ele>
        <time>2026-03-22T10:08:27Z</time>
      </trkpt>
      <trkpt lat="44.43012" lon="1.55292">
        <ele>226.6</ele>
        <time>2026-03-22T10:08:28Z</time>
      </trkpt>
      <trkpt lat="44.43012" lon="1.55297">
        <ele>227</ele>
        <time>2026-03-22T10:08:29Z</time>
      </trkpt>
      <trkpt lat="44.43012" lon="1.55301">
        <ele>227.4</ele>
        <time>2026-03-22T10:08:30Z</time>
      </trkpt>
      <trkpt lat="44.43012" lon="1.55305">
        <ele>227.6</ele>
        <time>2026-03-22T10:08:31Z</time>
      </trkpt>
      <trkpt lat="44.43013" lon="1.5531">
        <ele>228</ele>
        <time>2026-03-22T10:08:32Z</time>
      </trkpt>
      <trkpt lat="44.43013" lon="1.55314">
        <ele>228.4</ele>
        <time>2026-03-22T10:08:33Z</time>
      </trkpt>
      <trkpt lat="44.43014" lon="1.55318">
        <ele>228.6</ele>
        <time>2026-03-22T10:08:34Z</time>
      </trkpt>
      <trkpt lat="44.43015" lon="1.55322">
        <ele>228.8</ele>
        <time>2026-03-22T10:08:35Z</time>
      </trkpt>
      <trkpt lat="44.43015" lon="1.55326">
        <ele>229.2</ele>
        <time>2026-03-22T10:08:36Z</time>
      </trkpt>
      <trkpt lat="44.43016" lon="1.55329">
        <ele>229.6</ele>
        <time>2026-03-22T10:08:37Z</time>
      </trkpt>
      <trkpt lat="44.43017" lon="1.55334">
        <ele>229.8</ele>
        <time>2026-03-22T10:08:38Z</time>
      </trkpt>
      <trkpt lat="44.43017" lon="1.55339">
        <ele>230</ele>
        <time>2026-03-22T10:08:39Z</time>
      </trkpt>
      <trkpt lat="44.43017" lon="1.55343">
        <ele>230.2</ele>
        <time>2026-03-22T10:08:40Z</time>
      </trkpt>
      <trkpt lat="44.43017" lon="1.55349">
        <ele>230.6</ele>
        <time>2026-03-22T10:08:41Z</time>
      </trkpt>
      <trkpt lat="44.43017" lon="1.55355">
        <ele>230.8</ele>
        <time>2026-03-22T10:08:42Z</time>
      </trkpt>
      <trkpt lat="44.43016" lon="1.55359">
        <ele>230.8</ele>
        <time>2026-03-22T10:08:43Z</time>
      </trkpt>
      <trkpt lat="44.43016" lon="1.55365">
        <ele>231</ele>
        <time>2026-03-22T10:08:44Z</time>
      </trkpt>
      <trkpt lat="44.43017" lon="1.5537">
        <ele>231.2</ele>
        <time>2026-03-22T10:08:45Z</time>
      </trkpt>
      <trkpt lat="44.43017" lon="1.55375">
        <ele>231.4</ele>
        <time>2026-03-22T10:08:46Z</time>
      </trkpt>
      <trkpt lat="44.43017" lon="1.5538">
        <ele>231.6</ele>
        <time>2026-03-22T10:08:47Z</time>
      </trkpt>
      <trkpt lat="44.43017" lon="1.55384">
        <ele>232</ele>
        <time>2026-03-22T10:08:48Z</time>
      </trkpt>
      <trkpt lat="44.43018" lon="1.5539">
        <ele>232</ele>
        <time>2026-03-22T10:08:49Z</time>
      </trkpt>
      <trkpt lat="44.43018" lon="1.55395">
        <ele>232.2</ele>
        <time>2026-03-22T10:08:50Z</time>
      </trkpt>
      <trkpt lat="44.43018" lon="1.554">
        <ele>232.2</ele>
        <time>2026-03-22T10:08:51Z</time>
      </trkpt>
      <trkpt lat="44.43016" lon="1.55403">
        <ele>232.4</ele>
        <time>2026-03-22T10:08:52Z</time>
      </trkpt>
      <trkpt lat="44.43012" lon="1.55406">
        <ele>232.4</ele>
        <time>2026-03-22T10:08:53Z</time>
      </trkpt>
      <trkpt lat="44.43009" lon="1.55407">
        <ele>232.4</ele>
        <time>2026-03-22T10:08:54Z</time>
      </trkpt>
      <trkpt lat="44.43006" lon="1.55409">
        <ele>232.4</ele>
        <time>2026-03-22T10:08:55Z</time>
      </trkpt>
      <trkpt lat="44.43002" lon="1.55412">
        <ele>232.4</ele>
        <time>2026-03-22T10:08:56Z</time>
      </trkpt>
      <trkpt lat="44.42998" lon="1.55413">
        <ele>232.4</ele>
        <time>2026-03-22T10:08:57Z</time>
      </trkpt>
      <trkpt lat="44.42996" lon="1.55415">
        <ele>232.2</ele>
        <time>2026-03-22T10:08:58Z</time>
      </trkpt>
      <trkpt lat="44.42991" lon="1.55417">
        <ele>232.2</ele>
        <time>2026-03-22T10:08:59Z</time>
      </trkpt>
      <trkpt lat="44.42987" lon="1.5542">
        <ele>232.4</ele>
        <time>2026-03-22T10:09:00Z</time>
      </trkpt>
      <trkpt lat="44.42984" lon="1.55422">
        <ele>232.6</ele>
        <time>2026-03-22T10:09:01Z</time>
      </trkpt>
      <trkpt lat="44.4298" lon="1.55426">
        <ele>232.6</ele>
        <time>2026-03-22T10:09:02Z</time>
      </trkpt>
      <trkpt lat="44.42977" lon="1.55429">
        <ele>232.8</ele>
        <time>2026-03-22T10:09:03Z</time>
      </trkpt>
      <trkpt lat="44.42974" lon="1.55431">
        <ele>232.8</ele>
        <time>2026-03-22T10:09:04Z</time>
      </trkpt>
      <trkpt lat="44.4297" lon="1.55435">
        <ele>233</ele>
        <time>2026-03-22T10:09:05Z</time>
      </trkpt>
      <trkpt lat="44.42967" lon="1.55438">
        <ele>233</ele>
        <time>2026-03-22T10:09:06Z</time>
      </trkpt>
      <trkpt lat="44.42964" lon="1.5544">
        <ele>233.2</ele>
        <time>2026-03-22T10:09:07Z</time>
      </trkpt>
      <trkpt lat="44.4296" lon="1.55444">
        <ele>233.2</ele>
        <time>2026-03-22T10:09:08Z</time>
      </trkpt>
      <trkpt lat="44.42957" lon="1.55446">
        <ele>233.2</ele>
        <time>2026-03-22T10:09:09Z</time>
      </trkpt>
      <trkpt lat="44.42953" lon="1.55449">
        <ele>233.6</ele>
        <time>2026-03-22T10:09:10Z</time>
      </trkpt>
      <trkpt lat="44.42949" lon="1.55453">
        <ele>233.8</ele>
        <time>2026-03-22T10:09:11Z</time>
      </trkpt>
      <trkpt lat="44.42945" lon="1.55455">
        <ele>233.8</ele>
        <time>2026-03-22T10:09:12Z</time>
      </trkpt>
      <trkpt lat="44.42942" lon="1.55457">
        <ele>234</ele>
        <time>2026-03-22T10:09:13Z</time>
      </trkpt>
      <trkpt lat="44.42937" lon="1.5546">
        <ele>234.2</ele>
        <time>2026-03-22T10:09:14Z</time>
      </trkpt>
      <trkpt lat="44.42934" lon="1.55463">
        <ele>234.4</ele>
        <time>2026-03-22T10:09:15Z</time>
      </trkpt>
      <trkpt lat="44.42931" lon="1.55465">
        <ele>234.6</ele>
        <time>2026-03-22T10:09:16Z</time>
      </trkpt>
      <trkpt lat="44.42927" lon="1.55469">
        <ele>235</ele>
        <time>2026-03-22T10:09:17Z</time>
      </trkpt>
      <trkpt lat="44.42923" lon="1.55472">
        <ele>235</ele>
        <time>2026-03-22T10:09:18Z</time>
      </trkpt>
      <trkpt lat="44.4292" lon="1.55474">
        <ele>235.2</ele>
        <time>2026-03-22T10:09:19Z</time>
      </trkpt>
      <trkpt lat="44.42916" lon="1.55478">
        <ele>235.2</ele>
        <time>2026-03-22T10:09:20Z</time>
      </trkpt>
      <trkpt lat="44.42912" lon="1.55481">
        <ele>235.2</ele>
        <time>2026-03-22T10:09:21Z</time>
      </trkpt>
      <trkpt lat="44.42908" lon="1.55484">
        <ele>235.4</ele>
        <time>2026-03-22T10:09:22Z</time>
      </trkpt>
      <trkpt lat="44.42904" lon="1.55487">
        <ele>235.4</ele>
        <time>2026-03-22T10:09:23Z</time>
      </trkpt>
      <trkpt lat="44.42901" lon="1.55491">
        <ele>235.4</ele>
        <time>2026-03-22T10:09:24Z</time>
      </trkpt>
      <trkpt lat="44.42898" lon="1.55493">
        <ele>235.6</ele>
        <time>2026-03-22T10:09:25Z</time>
      </trkpt>
      <trkpt lat="44.42893" lon="1.55497">
        <ele>235.6</ele>
        <time>2026-03-22T10:09:26Z</time>
      </trkpt>
      <trkpt lat="44.4289" lon="1.55499">
        <ele>235.6</ele>
        <time>2026-03-22T10:09:27Z</time>
      </trkpt>
      <trkpt lat="44.42887" lon="1.55502">
        <ele>235.8</ele>
        <time>2026-03-22T10:09:28Z</time>
      </trkpt>
      <trkpt lat="44.42882" lon="1.55506">
        <ele>236.2</ele>
        <time>2026-03-22T10:09:29Z</time>
      </trkpt>
      <trkpt lat="44.42879" lon="1.55509">
        <ele>236.6</ele>
        <time>2026-03-22T10:09:30Z</time>
      </trkpt>
      <trkpt lat="44.42876" lon="1.55511">
        <ele>236.8</ele>
        <time>2026-03-22T10:09:31Z</time>
      </trkpt>
      <trkpt lat="44.42872" lon="1.55514">
        <ele>237</ele>
        <time>2026-03-22T10:09:32Z</time>
      </trkpt>
      <trkpt lat="44.42868" lon="1.55518">
        <ele>237.2</ele>
        <time>2026-03-22T10:09:33Z</time>
      </trkpt>
      <trkpt lat="44.42865" lon="1.55521">
        <ele>237.2</ele>
        <time>2026-03-22T10:09:34Z</time>
      </trkpt>
      <trkpt lat="44.42862" lon="1.55524">
        <ele>237.4</ele>
        <time>2026-03-22T10:09:35Z</time>
      </trkpt>
      <trkpt lat="44.42858" lon="1.55528">
        <ele>237.6</ele>
        <time>2026-03-22T10:09:36Z</time>
      </trkpt>
      <trkpt lat="44.42855" lon="1.55531">
        <ele>237.8</ele>
        <time>2026-03-22T10:09:37Z</time>
      </trkpt>
      <trkpt lat="44.42851" lon="1.55534">
        <ele>238</ele>
        <time>2026-03-22T10:09:38Z</time>
      </trkpt>
      <trkpt lat="44.42847" lon="1.55537">
        <ele>238.2</ele>
        <time>2026-03-22T10:09:39Z</time>
      </trkpt>
      <trkpt lat="44.42843" lon="1.55539">
        <ele>238.6</ele>
        <time>2026-03-22T10:09:40Z</time>
      </trkpt>
      <trkpt lat="44.42838" lon="1.55541">
        <ele>239</ele>
        <time>2026-03-22T10:09:41Z</time>
      </trkpt>
      <trkpt lat="44.42834" lon="1.55543">
        <ele>239</ele>
        <time>2026-03-22T10:09:42Z</time>
      </trkpt>
      <trkpt lat="44.42831" lon="1.55544">
        <ele>239.2</ele>
        <time>2026-03-22T10:09:43Z</time>
      </trkpt>
      <trkpt lat="44.42826" lon="1.55546">
        <ele>239.4</ele>
        <time>2026-03-22T10:09:44Z</time>
      </trkpt>
      <trkpt lat="44.42822" lon="1.55549">
        <ele>239.4</ele>
        <time>2026-03-22T10:09:45Z</time>
      </trkpt>
      <trkpt lat="44.42818" lon="1.5555">
        <ele>239.6</ele>
        <time>2026-03-22T10:09:46Z</time>
      </trkpt>
      <trkpt lat="44.42813" lon="1.55552">
        <ele>240</ele>
        <time>2026-03-22T10:09:47Z</time>
      </trkpt>
      <trkpt lat="44.42809" lon="1.55553">
        <ele>240.2</ele>
        <time>2026-03-22T10:09:48Z</time>
      </trkpt>
      <trkpt lat="44.42806" lon="1.55553">
        <ele>240.4</ele>
        <time>2026-03-22T10:09:49Z</time>
      </trkpt>
      <trkpt lat="44.42801" lon="1.55554">
        <ele>240.6</ele>
        <time>2026-03-22T10:09:50Z</time>
      </trkpt>
      <trkpt lat="44.42796" lon="1.55555">
        <ele>240.8</ele>
        <time>2026-03-22T10:09:51Z</time>
      </trkpt>
      <trkpt lat="44.42793" lon="1.55555">
        <ele>241.2</ele>
        <time>2026-03-22T10:09:52Z</time>
      </trkpt>
      <trkpt lat="44.42789" lon="1.55555">
        <ele>241.4</ele>
        <time>2026-03-22T10:09:53Z</time>
      </trkpt>
      <trkpt lat="44.42783" lon="1.55555">
        <ele>241.6</ele>
        <time>2026-03-22T10:09:54Z</time>
      </trkpt>
      <trkpt lat="44.42779" lon="1.55556">
        <ele>241.8</ele>
        <time>2026-03-22T10:09:55Z</time>
      </trkpt>
      <trkpt lat="44.42775" lon="1.55556">
        <ele>242.2</ele>
        <time>2026-03-22T10:09:56Z</time>
      </trkpt>
      <trkpt lat="44.42771" lon="1.55556">
        <ele>242.6</ele>
        <time>2026-03-22T10:09:57Z</time>
      </trkpt>
      <trkpt lat="44.42766" lon="1.55556">
        <ele>242.6</ele>
        <time>2026-03-22T10:09:58Z</time>
      </trkpt>
      <trkpt lat="44.42762" lon="1.55556">
        <ele>243</ele>
        <time>2026-03-22T10:09:59Z</time>
      </trkpt>
      <trkpt lat="44.42757" lon="1.55555">
        <ele>243.2</ele>
        <time>2026-03-22T10:10:00Z</time>
      </trkpt>
      <trkpt lat="44.42753" lon="1.55555">
        <ele>243.4</ele>
        <time>2026-03-22T10:10:01Z</time>
      </trkpt>
      <trkpt lat="44.42749" lon="1.55554">
        <ele>243.4</ele>
        <time>2026-03-22T10:10:02Z</time>
      </trkpt>
      <trkpt lat="44.42745" lon="1.55552">
        <ele>243.8</ele>
        <time>2026-03-22T10:10:03Z</time>
      </trkpt>
      <trkpt lat="44.4274" lon="1.55551">
        <ele>244.2</ele>
        <time>2026-03-22T10:10:04Z</time>
      </trkpt>
      <trkpt lat="44.42736" lon="1.55549">
        <ele>244.4</ele>
        <time>2026-03-22T10:10:05Z</time>
      </trkpt>
      <trkpt lat="44.42732" lon="1.55547">
        <ele>244.6</ele>
        <time>2026-03-22T10:10:06Z</time>
      </trkpt>
      <trkpt lat="44.42728" lon="1.55546">
        <ele>244.8</ele>
        <time>2026-03-22T10:10:07Z</time>
      </trkpt>
      <trkpt lat="44.42723" lon="1.55544">
        <ele>245</ele>
        <time>2026-03-22T10:10:08Z</time>
      </trkpt>
      <trkpt lat="44.42719" lon="1.55543">
        <ele>245.2</ele>
        <time>2026-03-22T10:10:09Z</time>
      </trkpt>
      <trkpt lat="44.42714" lon="1.55541">
        <ele>245.2</ele>
        <time>2026-03-22T10:10:10Z</time>
      </trkpt>
      <trkpt lat="44.4271" lon="1.5554">
        <ele>245.4</ele>
        <time>2026-03-22T10:10:11Z</time>
      </trkpt>
      <trkpt lat="44.42705" lon="1.55538">
        <ele>245.4</ele>
        <time>2026-03-22T10:10:12Z</time>
      </trkpt>
      <trkpt lat="44.427" lon="1.55536">
        <ele>245.4</ele>
        <time>2026-03-22T10:10:13Z</time>
      </trkpt>
      <trkpt lat="44.42696" lon="1.55533">
        <ele>245.6</ele>
        <time>2026-03-22T10:10:14Z</time>
      </trkpt>
      <trkpt lat="44.42692" lon="1.55531">
        <ele>245.8</ele>
        <time>2026-03-22T10:10:15Z</time>
      </trkpt>
      <trkpt lat="44.42687" lon="1.55527">
        <ele>245.8</ele>
        <time>2026-03-22T10:10:16Z</time>
      </trkpt>
      <trkpt lat="44.42683" lon="1.55525">
        <ele>246</ele>
        <time>2026-03-22T10:10:17Z</time>
      </trkpt>
      <trkpt lat="44.42679" lon="1.55521">
        <ele>246.2</ele>
        <time>2026-03-22T10:10:18Z</time>
      </trkpt>
      <trkpt lat="44.42675" lon="1.55518">
        <ele>246.2</ele>
        <time>2026-03-22T10:10:19Z</time>
      </trkpt>
      <trkpt lat="44.42669" lon="1.55514">
        <ele>246.4</ele>
        <time>2026-03-22T10:10:20Z</time>
      </trkpt>
      <trkpt lat="44.42665" lon="1.55512">
        <ele>246.4</ele>
        <time>2026-03-22T10:10:21Z</time>
      </trkpt>
      <trkpt lat="44.42658" lon="1.55509">
        <ele>246.4</ele>
        <time>2026-03-22T10:10:22Z</time>
      </trkpt>
      <trkpt lat="44.42653" lon="1.55507">
        <ele>246.4</ele>
        <time>2026-03-22T10:10:23Z</time>
      </trkpt>
      <trkpt lat="44.42649" lon="1.55505">
        <ele>246.4</ele>
        <time>2026-03-22T10:10:24Z</time>
      </trkpt>
      <trkpt lat="44.42642" lon="1.55503">
        <ele>246.4</ele>
        <time>2026-03-22T10:10:25Z</time>
      </trkpt>
      <trkpt lat="44.42638" lon="1.55501">
        <ele>246.4</ele>
        <time>2026-03-22T10:10:26Z</time>
      </trkpt>
      <trkpt lat="44.42633" lon="1.555">
        <ele>246.4</ele>
        <time>2026-03-22T10:10:27Z</time>
      </trkpt>
      <trkpt lat="44.42627" lon="1.55498">
        <ele>246.6</ele>
        <time>2026-03-22T10:10:28Z</time>
      </trkpt>
      <trkpt lat="44.42622" lon="1.55496">
        <ele>246.6</ele>
        <time>2026-03-22T10:10:29Z</time>
      </trkpt>
      <trkpt lat="44.42616" lon="1.55495">
        <ele>246.6</ele>
        <time>2026-03-22T10:10:30Z</time>
      </trkpt>
      <trkpt lat="44.42611" lon="1.55493">
        <ele>246.6</ele>
        <time>2026-03-22T10:10:31Z</time>
      </trkpt>
      <trkpt lat="44.42606" lon="1.55491">
        <ele>246.6</ele>
        <time>2026-03-22T10:10:32Z</time>
      </trkpt>
      <trkpt lat="44.42601" lon="1.55491">
        <ele>246.6</ele>
        <time>2026-03-22T10:10:33Z</time>
      </trkpt>
      <trkpt lat="44.42595" lon="1.55489">
        <ele>246.6</ele>
        <time>2026-03-22T10:10:34Z</time>
      </trkpt>
      <trkpt lat="44.42585" lon="1.55486">
        <ele>246.6</ele>
        <time>2026-03-22T10:10:36Z</time>
      </trkpt>
      <trkpt lat="44.42575" lon="1.55482">
        <ele>246.8</ele>
        <time>2026-03-22T10:10:38Z</time>
      </trkpt>
      <trkpt lat="44.4257" lon="1.55481">
        <ele>246.8</ele>
        <time>2026-03-22T10:10:39Z</time>
      </trkpt>
      <trkpt lat="44.42565" lon="1.55479">
        <ele>246.8</ele>
        <time>2026-03-22T10:10:40Z</time>
      </trkpt>
      <trkpt lat="44.4256" lon="1.55477">
        <ele>246.8</ele>
        <time>2026-03-22T10:10:41Z</time>
      </trkpt>
      <trkpt lat="44.42555" lon="1.55476">
        <ele>246.8</ele>
        <time>2026-03-22T10:10:42Z</time>
      </trkpt>
      <trkpt lat="44.4255" lon="1.55474">
        <ele>246.8</ele>
        <time>2026-03-22T10:10:43Z</time>
      </trkpt>
      <trkpt lat="44.42545" lon="1.55473">
        <ele>247</ele>
        <time>2026-03-22T10:10:44Z</time>
      </trkpt>
      <trkpt lat="44.4254" lon="1.55472">
        <ele>247</ele>
        <time>2026-03-22T10:10:45Z</time>
      </trkpt>
      <trkpt lat="44.42536" lon="1.5547">
        <ele>247</ele>
        <time>2026-03-22T10:10:46Z</time>
      </trkpt>
      <trkpt lat="44.4253" lon="1.55469">
        <ele>247.2</ele>
        <time>2026-03-22T10:10:47Z</time>
      </trkpt>
      <trkpt lat="44.42526" lon="1.55468">
        <ele>247.2</ele>
        <time>2026-03-22T10:10:48Z</time>
      </trkpt>
      <trkpt lat="44.42517" lon="1.55466">
        <ele>247.4</ele>
        <time>2026-03-22T10:10:50Z</time>
      </trkpt>
      <trkpt lat="44.42512" lon="1.55466">
        <ele>247.4</ele>
        <time>2026-03-22T10:10:51Z</time>
      </trkpt>
      <trkpt lat="44.42507" lon="1.55465">
        <ele>247.6</ele>
        <time>2026-03-22T10:10:52Z</time>
      </trkpt>
      <trkpt lat="44.42502" lon="1.55464">
        <ele>247.6</ele>
        <time>2026-03-22T10:10:53Z</time>
      </trkpt>
      <trkpt lat="44.42498" lon="1.55462">
        <ele>247.8</ele>
        <time>2026-03-22T10:10:54Z</time>
      </trkpt>
      <trkpt lat="44.42478" lon="1.55455">
        <ele>248.4</ele>
        <time>2026-03-22T10:10:58Z</time>
      </trkpt>
      <trkpt lat="44.42463" lon="1.55448">
        <ele>248.6</ele>
        <time>2026-03-22T10:11:01Z</time>
      </trkpt>
      <trkpt lat="44.42417" lon="1.55414">
        <ele>248.6</ele>
        <time>2026-03-22T10:11:10Z</time>
      </trkpt>
      <trkpt lat="44.42393" lon="1.55395">
        <ele>248.2</ele>
        <time>2026-03-22T10:11:14Z</time>
      </trkpt>
      <trkpt lat="44.4238" lon="1.55387">
        <ele>247.6</ele>
        <time>2026-03-22T10:11:16Z</time>
      </trkpt>
      <trkpt lat="44.42375" lon="1.55384">
        <ele>247.2</ele>
        <time>2026-03-22T10:11:17Z</time>
      </trkpt>
      <trkpt lat="44.42343" lon="1.5537">
        <ele>246.2</ele>
        <time>2026-03-22T10:11:22Z</time>
      </trkpt>
      <trkpt lat="44.42335" lon="1.55368">
        <ele>245.6</ele>
        <time>2026-03-22T10:11:23Z</time>
      </trkpt>
      <trkpt lat="44.42315" lon="1.55367">
        <ele>245.2</ele>
        <time>2026-03-22T10:11:26Z</time>
      </trkpt>
      <trkpt lat="44.42297" lon="1.55367">
        <ele>244.6</ele>
        <time>2026-03-22T10:11:29Z</time>
      </trkpt>
      <trkpt lat="44.42291" lon="1.55366">
        <ele>244.4</ele>
        <time>2026-03-22T10:11:30Z</time>
      </trkpt>
      <trkpt lat="44.42285" lon="1.55366">
        <ele>244.2</ele>
        <time>2026-03-22T10:11:31Z</time>
      </trkpt>
      <trkpt lat="44.42278" lon="1.55366">
        <ele>244.2</ele>
        <time>2026-03-22T10:11:32Z</time>
      </trkpt>
      <trkpt lat="44.42272" lon="1.55367">
        <ele>244</ele>
        <time>2026-03-22T10:11:33Z</time>
      </trkpt>
      <trkpt lat="44.42266" lon="1.55367">
        <ele>244</ele>
        <time>2026-03-22T10:11:34Z</time>
      </trkpt>
      <trkpt lat="44.42243" lon="1.55371">
        <ele>243.8</ele>
        <time>2026-03-22T10:11:38Z</time>
      </trkpt>
      <trkpt lat="44.42226" lon="1.55373">
        <ele>243.8</ele>
        <time>2026-03-22T10:11:41Z</time>
      </trkpt>
      <trkpt lat="44.42219" lon="1.55374">
        <ele>243.8</ele>
        <time>2026-03-22T10:11:42Z</time>
      </trkpt>
      <trkpt lat="44.42213" lon="1.55374">
        <ele>243.8</ele>
        <time>2026-03-22T10:11:43Z</time>
      </trkpt>
      <trkpt lat="44.42209" lon="1.55375">
        <ele>243.8</ele>
        <time>2026-03-22T10:11:44Z</time>
      </trkpt>
      <trkpt lat="44.42196" lon="1.55375">
        <ele>243.8</ele>
        <time>2026-03-22T10:11:46Z</time>
      </trkpt>
      <trkpt lat="44.4219" lon="1.55375">
        <ele>243.8</ele>
        <time>2026-03-22T10:11:47Z</time>
      </trkpt>
      <trkpt lat="44.42168" lon="1.55373">
        <ele>243.8</ele>
        <time>2026-03-22T10:11:51Z</time>
      </trkpt>
      <trkpt lat="44.42155" lon="1.55372">
        <ele>243.8</ele>
        <time>2026-03-22T10:11:53Z</time>
      </trkpt>
      <trkpt lat="44.42108" lon="1.55367">
        <ele>243.6</ele>
        <time>2026-03-22T10:12:01Z</time>
      </trkpt>
      <trkpt lat="44.42101" lon="1.55367">
        <ele>243.4</ele>
        <time>2026-03-22T10:12:02Z</time>
      </trkpt>
      <trkpt lat="44.4209" lon="1.55368">
        <ele>243.4</ele>
        <time>2026-03-22T10:12:04Z</time>
      </trkpt>
      <trkpt lat="44.42077" lon="1.55368">
        <ele>243.4</ele>
        <time>2026-03-22T10:12:06Z</time>
      </trkpt>
      <trkpt lat="44.42072" lon="1.55369">
        <ele>243.4</ele>
        <time>2026-03-22T10:12:07Z</time>
      </trkpt>
      <trkpt lat="44.42059" lon="1.55369">
        <ele>243.2</ele>
        <time>2026-03-22T10:12:09Z</time>
      </trkpt>
      <trkpt lat="44.42042" lon="1.55369">
        <ele>243.2</ele>
        <time>2026-03-22T10:12:12Z</time>
      </trkpt>
      <trkpt lat="44.42035" lon="1.55368">
        <ele>243</ele>
        <time>2026-03-22T10:12:13Z</time>
      </trkpt>
      <trkpt lat="44.4203" lon="1.55368">
        <ele>243</ele>
        <time>2026-03-22T10:12:14Z</time>
      </trkpt>
      <trkpt lat="44.42019" lon="1.55367">
        <ele>243</ele>
        <time>2026-03-22T10:12:16Z</time>
      </trkpt>
      <trkpt lat="44.42014" lon="1.55367">
        <ele>243</ele>
        <time>2026-03-22T10:12:17Z</time>
      </trkpt>
      <trkpt lat="44.42011" lon="1.55367">
        <ele>243</ele>
        <time>2026-03-22T10:12:18Z</time>
      </trkpt>
      <trkpt lat="44.42006" lon="1.55367">
        <ele>243</ele>
        <time>2026-03-22T10:12:19Z</time>
      </trkpt>
      <trkpt lat="44.41992" lon="1.55367">
        <ele>243</ele>
        <time>2026-03-22T10:12:22Z</time>
      </trkpt>
      <trkpt lat="44.41988" lon="1.55367">
        <ele>242.8</ele>
        <time>2026-03-22T10:12:23Z</time>
      </trkpt>
      <trkpt lat="44.41985" lon="1.55369">
        <ele>242.8</ele>
        <time>2026-03-22T10:12:24Z</time>
      </trkpt>
      <trkpt lat="44.41984" lon="1.55374">
        <ele>242.8</ele>
        <time>2026-03-22T10:12:25Z</time>
      </trkpt>
      <trkpt lat="44.41984" lon="1.55389">
        <ele>242.8</ele>
        <time>2026-03-22T10:12:27Z</time>
      </trkpt>
      <trkpt lat="44.41979" lon="1.55399">
        <ele>242.8</ele>
        <time>2026-03-22T10:12:29Z</time>
      </trkpt>
      <trkpt lat="44.41976" lon="1.55408">
        <ele>242.6</ele>
        <time>2026-03-22T10:12:30Z</time>
      </trkpt>
      <trkpt lat="44.41974" lon="1.55417">
        <ele>242.6</ele>
        <time>2026-03-22T10:12:31Z</time>
      </trkpt>
      <trkpt lat="44.41963" lon="1.55441">
        <ele>242.2</ele>
        <time>2026-03-22T10:12:34Z</time>
      </trkpt>
      <trkpt lat="44.4196" lon="1.55448">
        <ele>241.6</ele>
        <time>2026-03-22T10:12:35Z</time>
      </trkpt>
      <trkpt lat="44.41951" lon="1.55477">
        <ele>240.4</ele>
        <time>2026-03-22T10:12:38Z</time>
      </trkpt>
      <trkpt lat="44.41946" lon="1.55488">
        <ele>239.8</ele>
        <time>2026-03-22T10:12:39Z</time>
      </trkpt>
      <trkpt lat="44.41942" lon="1.55494">
        <ele>239.4</ele>
        <time>2026-03-22T10:12:40Z</time>
      </trkpt>
      <trkpt lat="44.41936" lon="1.55501">
        <ele>239</ele>
        <time>2026-03-22T10:12:41Z</time>
      </trkpt>
      <trkpt lat="44.41932" lon="1.5551">
        <ele>238.4</ele>
        <time>2026-03-22T10:12:42Z</time>
      </trkpt>
      <trkpt lat="44.41924" lon="1.55529">
        <ele>237.2</ele>
        <time>2026-03-22T10:12:44Z</time>
      </trkpt>
      <trkpt lat="44.4192" lon="1.55542">
        <ele>236.2</ele>
        <time>2026-03-22T10:12:45Z</time>
      </trkpt>
      <trkpt lat="44.41917" lon="1.55553">
        <ele>235.6</ele>
        <time>2026-03-22T10:12:46Z</time>
      </trkpt>
      <trkpt lat="44.41908" lon="1.55573">
        <ele>234.8</ele>
        <time>2026-03-22T10:12:48Z</time>
      </trkpt>
      <trkpt lat="44.41904" lon="1.55584">
        <ele>234.8</ele>
        <time>2026-03-22T10:12:49Z</time>
      </trkpt>
      <trkpt lat="44.419" lon="1.55592">
        <ele>234</ele>
        <time>2026-03-22T10:12:50Z</time>
      </trkpt>
      <trkpt lat="44.41891" lon="1.55617">
        <ele>233</ele>
        <time>2026-03-22T10:12:52Z</time>
      </trkpt>
      <trkpt lat="44.41888" lon="1.55625">
        <ele>232.6</ele>
        <time>2026-03-22T10:12:53Z</time>
      </trkpt>
      <trkpt lat="44.41882" lon="1.55637">
        <ele>232</ele>
        <time>2026-03-22T10:12:54Z</time>
      </trkpt>
      <trkpt lat="44.41876" lon="1.55646">
        <ele>231.2</ele>
        <time>2026-03-22T10:12:55Z</time>
      </trkpt>
      <trkpt lat="44.41867" lon="1.55664">
        <ele>229.8</ele>
        <time>2026-03-22T10:12:57Z</time>
      </trkpt>
      <trkpt lat="44.41862" lon="1.5567">
        <ele>229.4</ele>
        <time>2026-03-22T10:12:58Z</time>
      </trkpt>
      <trkpt lat="44.41858" lon="1.55674">
        <ele>228.4</ele>
        <time>2026-03-22T10:12:59Z</time>
      </trkpt>
      <trkpt lat="44.41852" lon="1.55677">
        <ele>227.6</ele>
        <time>2026-03-22T10:13:00Z</time>
      </trkpt>
      <trkpt lat="44.41849" lon="1.55682">
        <ele>227.2</ele>
        <time>2026-03-22T10:13:01Z</time>
      </trkpt>
      <trkpt lat="44.41847" lon="1.55687">
        <ele>227</ele>
        <time>2026-03-22T10:13:02Z</time>
      </trkpt>
      <trkpt lat="44.41844" lon="1.55692">
        <ele>226.8</ele>
        <time>2026-03-22T10:13:03Z</time>
      </trkpt>
      <trkpt lat="44.41842" lon="1.55697">
        <ele>226.6</ele>
        <time>2026-03-22T10:13:04Z</time>
      </trkpt>
      <trkpt lat="44.4184" lon="1.55699">
        <ele>226.6</ele>
        <time>2026-03-22T10:13:05Z</time>
      </trkpt>
      <trkpt lat="44.41835" lon="1.557">
        <ele>226.4</ele>
        <time>2026-03-22T10:13:06Z</time>
      </trkpt>
      <trkpt lat="44.41828" lon="1.557">
        <ele>226.4</ele>
        <time>2026-03-22T10:13:08Z</time>
      </trkpt>
      <trkpt lat="44.41823" lon="1.55702">
        <ele>226.2</ele>
        <time>2026-03-22T10:13:09Z</time>
      </trkpt>
      <trkpt lat="44.41819" lon="1.55704">
        <ele>226.2</ele>
        <time>2026-03-22T10:13:10Z</time>
      </trkpt>
      <trkpt lat="44.41815" lon="1.55707">
        <ele>226.2</ele>
        <time>2026-03-22T10:13:11Z</time>
      </trkpt>
      <trkpt lat="44.41805" lon="1.55712">
        <ele>226.2</ele>
        <time>2026-03-22T10:13:13Z</time>
      </trkpt>
      <trkpt lat="44.41796" lon="1.55717">
        <ele>226.2</ele>
        <time>2026-03-22T10:13:15Z</time>
      </trkpt>
      <trkpt lat="44.41792" lon="1.55721">
        <ele>226.2</ele>
        <time>2026-03-22T10:13:16Z</time>
      </trkpt>
      <trkpt lat="44.41787" lon="1.55724">
        <ele>226.2</ele>
        <time>2026-03-22T10:13:17Z</time>
      </trkpt>
      <trkpt lat="44.41782" lon="1.55725">
        <ele>226.2</ele>
        <time>2026-03-22T10:13:18Z</time>
      </trkpt>
      <trkpt lat="44.41778" lon="1.55724">
        <ele>226.2</ele>
        <time>2026-03-22T10:13:19Z</time>
      </trkpt>
      <trkpt lat="44.41775" lon="1.55725">
        <ele>226</ele>
        <time>2026-03-22T10:13:20Z</time>
      </trkpt>
      <trkpt lat="44.41771" lon="1.55728">
        <ele>226</ele>
        <time>2026-03-22T10:13:21Z</time>
      </trkpt>
      <trkpt lat="44.41767" lon="1.55729">
        <ele>226</ele>
        <time>2026-03-22T10:13:22Z</time>
      </trkpt>
      <trkpt lat="44.41764" lon="1.55728">
        <ele>226</ele>
        <time>2026-03-22T10:13:23Z</time>
      </trkpt>
      <trkpt lat="44.41761" lon="1.55726">
        <ele>225.8</ele>
        <time>2026-03-22T10:13:24Z</time>
      </trkpt>
      <trkpt lat="44.41755" lon="1.55724">
        <ele>225.6</ele>
        <time>2026-03-22T10:13:26Z</time>
      </trkpt>
      <trkpt lat="44.41751" lon="1.55724">
        <ele>225.4</ele>
        <time>2026-03-22T10:13:27Z</time>
      </trkpt>
      <trkpt lat="44.41748" lon="1.55725">
        <ele>225</ele>
        <time>2026-03-22T10:13:28Z</time>
      </trkpt>
      <trkpt lat="44.41745" lon="1.55724">
        <ele>225</ele>
        <time>2026-03-22T10:13:29Z</time>
      </trkpt>
      <trkpt lat="44.41742" lon="1.55725">
        <ele>225</ele>
        <time>2026-03-22T10:13:30Z</time>
      </trkpt>
      <trkpt lat="44.41738" lon="1.55726">
        <ele>224.8</ele>
        <time>2026-03-22T10:13:31Z</time>
      </trkpt>
      <trkpt lat="44.41735" lon="1.55727">
        <ele>224.8</ele>
        <time>2026-03-22T10:13:32Z</time>
      </trkpt>
      <trkpt lat="44.41732" lon="1.5573">
        <ele>224.8</ele>
        <time>2026-03-22T10:13:33Z</time>
      </trkpt>
      <trkpt lat="44.41729" lon="1.55732">
        <ele>224.6</ele>
        <time>2026-03-22T10:13:34Z</time>
      </trkpt>
      <trkpt lat="44.41727" lon="1.55735">
        <ele>224.6</ele>
        <time>2026-03-22T10:13:35Z</time>
      </trkpt>
      <trkpt lat="44.41724" lon="1.55737">
        <ele>224.6</ele>
        <time>2026-03-22T10:13:36Z</time>
      </trkpt>
      <trkpt lat="44.4172" lon="1.55739">
        <ele>224.6</ele>
        <time>2026-03-22T10:13:37Z</time>
      </trkpt>
      <trkpt lat="44.41716" lon="1.55742">
        <ele>224.4</ele>
        <time>2026-03-22T10:13:38Z</time>
      </trkpt>
      <trkpt lat="44.4171" lon="1.55751">
        <ele>224</ele>
        <time>2026-03-22T10:13:40Z</time>
      </trkpt>
      <trkpt lat="44.41707" lon="1.55755">
        <ele>223.8</ele>
        <time>2026-03-22T10:13:41Z</time>
      </trkpt>
      <trkpt lat="44.417" lon="1.55762">
        <ele>223.4</ele>
        <time>2026-03-22T10:13:43Z</time>
      </trkpt>
      <trkpt lat="44.41696" lon="1.55765">
        <ele>223</ele>
        <time>2026-03-22T10:13:44Z</time>
      </trkpt>
      <trkpt lat="44.41693" lon="1.55767">
        <ele>222.6</ele>
        <time>2026-03-22T10:13:45Z</time>
      </trkpt>
      <trkpt lat="44.4169" lon="1.55768">
        <ele>222.4</ele>
        <time>2026-03-22T10:13:46Z</time>
      </trkpt>
      <trkpt lat="44.41687" lon="1.55768">
        <ele>221.8</ele>
        <time>2026-03-22T10:13:47Z</time>
      </trkpt>
      <trkpt lat="44.41684" lon="1.55767">
        <ele>221.6</ele>
        <time>2026-03-22T10:13:48Z</time>
      </trkpt>
      <trkpt lat="44.41679" lon="1.55766">
        <ele>221.6</ele>
        <time>2026-03-22T10:13:49Z</time>
      </trkpt>
      <trkpt lat="44.41677" lon="1.55762">
        <ele>221</ele>
        <time>2026-03-22T10:13:50Z</time>
      </trkpt>
      <trkpt lat="44.41674" lon="1.55759">
        <ele>220.8</ele>
        <time>2026-03-22T10:13:51Z</time>
      </trkpt>
      <trkpt lat="44.41671" lon="1.55756">
        <ele>220.6</ele>
        <time>2026-03-22T10:13:52Z</time>
      </trkpt>
      <trkpt lat="44.41668" lon="1.55754">
        <ele>220.4</ele>
        <time>2026-03-22T10:13:53Z</time>
      </trkpt>
      <trkpt lat="44.41665" lon="1.55752">
        <ele>220.2</ele>
        <time>2026-03-22T10:13:54Z</time>
      </trkpt>
      <trkpt lat="44.41662" lon="1.5575">
        <ele>220</ele>
        <time>2026-03-22T10:13:55Z</time>
      </trkpt>
      <trkpt lat="44.41655" lon="1.55743">
        <ele>219.6</ele>
        <time>2026-03-22T10:13:57Z</time>
      </trkpt>
      <trkpt lat="44.41645" lon="1.55732">
        <ele>219</ele>
        <time>2026-03-22T10:14:00Z</time>
      </trkpt>
      <trkpt lat="44.41643" lon="1.5573">
        <ele>218.8</ele>
        <time>2026-03-22T10:14:01Z</time>
      </trkpt>
      <trkpt lat="44.41641" lon="1.55729">
        <ele>218.6</ele>
        <time>2026-03-22T10:14:02Z</time>
      </trkpt>
      <trkpt lat="44.41638" lon="1.5573">
        <ele>218.6</ele>
        <time>2026-03-22T10:14:03Z</time>
      </trkpt>
      <trkpt lat="44.41636" lon="1.55731">
        <ele>218.4</ele>
        <time>2026-03-22T10:14:04Z</time>
      </trkpt>
      <trkpt lat="44.41632" lon="1.55733">
        <ele>217.8</ele>
        <time>2026-03-22T10:14:06Z</time>
      </trkpt>
      <trkpt lat="44.41631" lon="1.55733">
        <ele>216.4</ele>
        <time>2026-03-22T10:14:07Z</time>
      </trkpt>
      <trkpt lat="44.41631" lon="1.55733">
        <ele>216.4</ele>
        <time>2026-03-22T10:14:08Z</time>
      </trkpt>
      <trkpt lat="44.41631" lon="1.55733">
        <ele>215.2</ele>
        <time>2026-03-22T10:14:09Z</time>
      </trkpt>
      <trkpt lat="44.41631" lon="1.55733">
        <ele>214.6</ele>
        <time>2026-03-22T10:14:10Z</time>
      </trkpt>
      <trkpt lat="44.41622" lon="1.55743">
        <ele>210.4</ele>
        <time>2026-03-22T10:14:23Z</time>
      </trkpt>
      <trkpt lat="44.4162" lon="1.55745">
        <ele>210.2</ele>
        <time>2026-03-22T10:14:24Z</time>
      </trkpt>
      <trkpt lat="44.41618" lon="1.55749">
        <ele>210</ele>
        <time>2026-03-22T10:14:25Z</time>
      </trkpt>
      <trkpt lat="44.4161" lon="1.55756">
        <ele>209.6</ele>
        <time>2026-03-22T10:14:28Z</time>
      </trkpt>
      <trkpt lat="44.41609" lon="1.55757">
        <ele>209.4</ele>
        <time>2026-03-22T10:14:29Z</time>
      </trkpt>
      <trkpt lat="44.41607" lon="1.55759">
        <ele>208.8</ele>
        <time>2026-03-22T10:14:30Z</time>
      </trkpt>
      <trkpt lat="44.41604" lon="1.55764">
        <ele>208</ele>
        <time>2026-03-22T10:14:31Z</time>
      </trkpt>
      <trkpt lat="44.41602" lon="1.55768">
        <ele>207.2</ele>
        <time>2026-03-22T10:14:32Z</time>
      </trkpt>
      <trkpt lat="44.41599" lon="1.55771">
        <ele>206.2</ele>
        <time>2026-03-22T10:14:33Z</time>
      </trkpt>
      <trkpt lat="44.41596" lon="1.55775">
        <ele>205</ele>
        <time>2026-03-22T10:14:34Z</time>
      </trkpt>
      <trkpt lat="44.41593" lon="1.55779">
        <ele>203.6</ele>
        <time>2026-03-22T10:14:35Z</time>
      </trkpt>
      <trkpt lat="44.4159" lon="1.55783">
        <ele>202.4</ele>
        <time>2026-03-22T10:14:36Z</time>
      </trkpt>
      <trkpt lat="44.41587" lon="1.55786">
        <ele>201</ele>
        <time>2026-03-22T10:14:37Z</time>
      </trkpt>
      <trkpt lat="44.41584" lon="1.5579">
        <ele>200.2</ele>
        <time>2026-03-22T10:14:38Z</time>
      </trkpt>
      <trkpt lat="44.41582" lon="1.55793">
        <ele>199</ele>
        <time>2026-03-22T10:14:39Z</time>
      </trkpt>
      <trkpt lat="44.4158" lon="1.55798">
        <ele>197.8</ele>
        <time>2026-03-22T10:14:40Z</time>
      </trkpt>
      <trkpt lat="44.41578" lon="1.558">
        <ele>196.8</ele>
        <time>2026-03-22T10:14:41Z</time>
      </trkpt>
      <trkpt lat="44.41575" lon="1.55803">
        <ele>195.4</ele>
        <time>2026-03-22T10:14:42Z</time>
      </trkpt>
      <trkpt lat="44.41572" lon="1.55804">
        <ele>194</ele>
        <time>2026-03-22T10:14:43Z</time>
      </trkpt>
      <trkpt lat="44.41569" lon="1.55806">
        <ele>192.6</ele>
        <time>2026-03-22T10:14:44Z</time>
      </trkpt>
      <trkpt lat="44.41565" lon="1.55807">
        <ele>191.4</ele>
        <time>2026-03-22T10:14:45Z</time>
      </trkpt>
      <trkpt lat="44.4156" lon="1.55807">
        <ele>190</ele>
        <time>2026-03-22T10:14:46Z</time>
      </trkpt>
      <trkpt lat="44.41551" lon="1.55807">
        <ele>189</ele>
        <time>2026-03-22T10:14:48Z</time>
      </trkpt>
      <trkpt lat="44.41547" lon="1.55806">
        <ele>187.8</ele>
        <time>2026-03-22T10:14:49Z</time>
      </trkpt>
      <trkpt lat="44.41543" lon="1.55806">
        <ele>187.2</ele>
        <time>2026-03-22T10:14:50Z</time>
      </trkpt>
      <trkpt lat="44.4154" lon="1.55806">
        <ele>187</ele>
        <time>2026-03-22T10:14:51Z</time>
      </trkpt>
      <trkpt lat="44.41537" lon="1.55805">
        <ele>186.8</ele>
        <time>2026-03-22T10:14:52Z</time>
      </trkpt>
      <trkpt lat="44.41533" lon="1.55804">
        <ele>186.8</ele>
        <time>2026-03-22T10:14:53Z</time>
      </trkpt>
      <trkpt lat="44.41514" lon="1.55804">
        <ele>186.6</ele>
        <time>2026-03-22T10:14:58Z</time>
      </trkpt>
      <trkpt lat="44.41511" lon="1.55804">
        <ele>186.6</ele>
        <time>2026-03-22T10:14:59Z</time>
      </trkpt>
      <trkpt lat="44.41503" lon="1.55803">
        <ele>186.8</ele>
        <time>2026-03-22T10:15:01Z</time>
      </trkpt>
      <trkpt lat="44.41492" lon="1.55804">
        <ele>187.8</ele>
        <time>2026-03-22T10:15:04Z</time>
      </trkpt>
      <trkpt lat="44.41476" lon="1.55805">
        <ele>189.2</ele>
        <time>2026-03-22T10:15:08Z</time>
      </trkpt>
      <trkpt lat="44.41464" lon="1.55806">
        <ele>190.4</ele>
        <time>2026-03-22T10:15:11Z</time>
      </trkpt>
      <trkpt lat="44.41451" lon="1.55806">
        <ele>191.6</ele>
        <time>2026-03-22T10:15:14Z</time>
      </trkpt>
      <trkpt lat="44.41447" lon="1.55805">
        <ele>191.6</ele>
        <time>2026-03-22T10:15:15Z</time>
      </trkpt>
      <trkpt lat="44.4144" lon="1.55803">
        <ele>192.4</ele>
        <time>2026-03-22T10:15:17Z</time>
      </trkpt>
      <trkpt lat="44.41436" lon="1.558">
        <ele>192.8</ele>
        <time>2026-03-22T10:15:18Z</time>
      </trkpt>
      <trkpt lat="44.41429" lon="1.55794">
        <ele>193.6</ele>
        <time>2026-03-22T10:15:20Z</time>
      </trkpt>
      <trkpt lat="44.41426" lon="1.55791">
        <ele>194</ele>
        <time>2026-03-22T10:15:21Z</time>
      </trkpt>
      <trkpt lat="44.41422" lon="1.55789">
        <ele>194.2</ele>
        <time>2026-03-22T10:15:22Z</time>
      </trkpt>
      <trkpt lat="44.41418" lon="1.55786">
        <ele>194.6</ele>
        <time>2026-03-22T10:15:23Z</time>
      </trkpt>
      <trkpt lat="44.41414" lon="1.55785">
        <ele>195</ele>
        <time>2026-03-22T10:15:24Z</time>
      </trkpt>
      <trkpt lat="44.4141" lon="1.55784">
        <ele>195.4</ele>
        <time>2026-03-22T10:15:25Z</time>
      </trkpt>
      <trkpt lat="44.41406" lon="1.55783">
        <ele>195.8</ele>
        <time>2026-03-22T10:15:26Z</time>
      </trkpt>
      <trkpt lat="44.41401" lon="1.55781">
        <ele>196.2</ele>
        <time>2026-03-22T10:15:27Z</time>
      </trkpt>
      <trkpt lat="44.41397" lon="1.5578">
        <ele>196.2</ele>
        <time>2026-03-22T10:15:28Z</time>
      </trkpt>
      <trkpt lat="44.41393" lon="1.55779">
        <ele>196.4</ele>
        <time>2026-03-22T10:15:29Z</time>
      </trkpt>
      <trkpt lat="44.4139" lon="1.55779">
        <ele>197</ele>
        <time>2026-03-22T10:15:30Z</time>
      </trkpt>
      <trkpt lat="44.41385" lon="1.55778">
        <ele>197.2</ele>
        <time>2026-03-22T10:15:31Z</time>
      </trkpt>
      <trkpt lat="44.41381" lon="1.55777">
        <ele>197.8</ele>
        <time>2026-03-22T10:15:32Z</time>
      </trkpt>
      <trkpt lat="44.41376" lon="1.55775">
        <ele>198.2</ele>
        <time>2026-03-22T10:15:33Z</time>
      </trkpt>
      <trkpt lat="44.41373" lon="1.55774">
        <ele>198.8</ele>
        <time>2026-03-22T10:15:34Z</time>
      </trkpt>
      <trkpt lat="44.41368" lon="1.55773">
        <ele>199.2</ele>
        <time>2026-03-22T10:15:35Z</time>
      </trkpt>
      <trkpt lat="44.41364" lon="1.55772">
        <ele>199.4</ele>
        <time>2026-03-22T10:15:36Z</time>
      </trkpt>
      <trkpt lat="44.4136" lon="1.55771">
        <ele>200</ele>
        <time>2026-03-22T10:15:37Z</time>
      </trkpt>
      <trkpt lat="44.41356" lon="1.5577">
        <ele>200.4</ele>
        <time>2026-03-22T10:15:38Z</time>
      </trkpt>
      <trkpt lat="44.41353" lon="1.55769">
        <ele>200.8</ele>
        <time>2026-03-22T10:15:39Z</time>
      </trkpt>
      <trkpt lat="44.41349" lon="1.55768">
        <ele>201.2</ele>
        <time>2026-03-22T10:15:40Z</time>
      </trkpt>
      <trkpt lat="44.41344" lon="1.55766">
        <ele>201.6</ele>
        <time>2026-03-22T10:15:41Z</time>
      </trkpt>
      <trkpt lat="44.41341" lon="1.55765">
        <ele>201.8</ele>
        <time>2026-03-22T10:15:42Z</time>
      </trkpt>
      <trkpt lat="44.41337" lon="1.55764">
        <ele>202.2</ele>
        <time>2026-03-22T10:15:43Z</time>
      </trkpt>
      <trkpt lat="44.41334" lon="1.55762">
        <ele>203</ele>
        <time>2026-03-22T10:15:44Z</time>
      </trkpt>
      <trkpt lat="44.4133" lon="1.55761">
        <ele>203.4</ele>
        <time>2026-03-22T10:15:45Z</time>
      </trkpt>
      <trkpt lat="44.41326" lon="1.55759">
        <ele>203.8</ele>
        <time>2026-03-22T10:15:46Z</time>
      </trkpt>
      <trkpt lat="44.41323" lon="1.55757">
        <ele>204.2</ele>
        <time>2026-03-22T10:15:47Z</time>
      </trkpt>
      <trkpt lat="44.41319" lon="1.55756">
        <ele>204.6</ele>
        <time>2026-03-22T10:15:48Z</time>
      </trkpt>
      <trkpt lat="44.41315" lon="1.55753">
        <ele>204.8</ele>
        <time>2026-03-22T10:15:49Z</time>
      </trkpt>
      <trkpt lat="44.41312" lon="1.55751">
        <ele>205.4</ele>
        <time>2026-03-22T10:15:50Z</time>
      </trkpt>
      <trkpt lat="44.41308" lon="1.55749">
        <ele>205.8</ele>
        <time>2026-03-22T10:15:51Z</time>
      </trkpt>
      <trkpt lat="44.41304" lon="1.55747">
        <ele>206</ele>
        <time>2026-03-22T10:15:52Z</time>
      </trkpt>
      <trkpt lat="44.41301" lon="1.55746">
        <ele>206</ele>
        <time>2026-03-22T10:15:53Z</time>
      </trkpt>
      <trkpt lat="44.41298" lon="1.55744">
        <ele>206.6</ele>
        <time>2026-03-22T10:15:54Z</time>
      </trkpt>
      <trkpt lat="44.41293" lon="1.55743">
        <ele>207.2</ele>
        <time>2026-03-22T10:15:55Z</time>
      </trkpt>
      <trkpt lat="44.4129" lon="1.55741">
        <ele>207.6</ele>
        <time>2026-03-22T10:15:56Z</time>
      </trkpt>
      <trkpt lat="44.41286" lon="1.5574">
        <ele>207.8</ele>
        <time>2026-03-22T10:15:57Z</time>
      </trkpt>
      <trkpt lat="44.41281" lon="1.55738">
        <ele>208.2</ele>
        <time>2026-03-22T10:15:58Z</time>
      </trkpt>
      <trkpt lat="44.41277" lon="1.55736">
        <ele>208.4</ele>
        <time>2026-03-22T10:15:59Z</time>
      </trkpt>
      <trkpt lat="44.41274" lon="1.55734">
        <ele>208.8</ele>
        <time>2026-03-22T10:16:00Z</time>
      </trkpt>
      <trkpt lat="44.4127" lon="1.55732">
        <ele>209</ele>
        <time>2026-03-22T10:16:01Z</time>
      </trkpt>
      <trkpt lat="44.41267" lon="1.5573">
        <ele>209.4</ele>
        <time>2026-03-22T10:16:02Z</time>
      </trkpt>
      <trkpt lat="44.41262" lon="1.55728">
        <ele>209.8</ele>
        <time>2026-03-22T10:16:03Z</time>
      </trkpt>
      <trkpt lat="44.41259" lon="1.55726">
        <ele>210</ele>
        <time>2026-03-22T10:16:04Z</time>
      </trkpt>
      <trkpt lat="44.41255" lon="1.55723">
        <ele>210.4</ele>
        <time>2026-03-22T10:16:05Z</time>
      </trkpt>
      <trkpt lat="44.41252" lon="1.55722">
        <ele>211</ele>
        <time>2026-03-22T10:16:06Z</time>
      </trkpt>
      <trkpt lat="44.41247" lon="1.55719">
        <ele>211.2</ele>
        <time>2026-03-22T10:16:07Z</time>
      </trkpt>
      <trkpt lat="44.41243" lon="1.55717">
        <ele>211.4</ele>
        <time>2026-03-22T10:16:08Z</time>
      </trkpt>
      <trkpt lat="44.41239" lon="1.55716">
        <ele>212</ele>
        <time>2026-03-22T10:16:09Z</time>
      </trkpt>
      <trkpt lat="44.41235" lon="1.55714">
        <ele>212.4</ele>
        <time>2026-03-22T10:16:10Z</time>
      </trkpt>
      <trkpt lat="44.41231" lon="1.55713">
        <ele>212.8</ele>
        <time>2026-03-22T10:16:11Z</time>
      </trkpt>
      <trkpt lat="44.41227" lon="1.55712">
        <ele>213</ele>
        <time>2026-03-22T10:16:12Z</time>
      </trkpt>
      <trkpt lat="44.41223" lon="1.55711">
        <ele>213.6</ele>
        <time>2026-03-22T10:16:13Z</time>
      </trkpt>
      <trkpt lat="44.41219" lon="1.5571">
        <ele>213.8</ele>
        <time>2026-03-22T10:16:14Z</time>
      </trkpt>
      <trkpt lat="44.41215" lon="1.5571">
        <ele>214.2</ele>
        <time>2026-03-22T10:16:15Z</time>
      </trkpt>
      <trkpt lat="44.41211" lon="1.55709">
        <ele>214.6</ele>
        <time>2026-03-22T10:16:16Z</time>
      </trkpt>
      <trkpt lat="44.41207" lon="1.55709">
        <ele>215</ele>
        <time>2026-03-22T10:16:17Z</time>
      </trkpt>
      <trkpt lat="44.41202" lon="1.55709">
        <ele>215</ele>
        <time>2026-03-22T10:16:18Z</time>
      </trkpt>
      <trkpt lat="44.41198" lon="1.55708">
        <ele>215.2</ele>
        <time>2026-03-22T10:16:19Z</time>
      </trkpt>
      <trkpt lat="44.41195" lon="1.55708">
        <ele>215.6</ele>
        <time>2026-03-22T10:16:20Z</time>
      </trkpt>
      <trkpt lat="44.41191" lon="1.55707">
        <ele>216</ele>
        <time>2026-03-22T10:16:21Z</time>
      </trkpt>
      <trkpt lat="44.41187" lon="1.55706">
        <ele>216.4</ele>
        <time>2026-03-22T10:16:22Z</time>
      </trkpt>
      <trkpt lat="44.41183" lon="1.55705">
        <ele>216.8</ele>
        <time>2026-03-22T10:16:23Z</time>
      </trkpt>
      <trkpt lat="44.41179" lon="1.55704">
        <ele>217.2</ele>
        <time>2026-03-22T10:16:24Z</time>
      </trkpt>
      <trkpt lat="44.41175" lon="1.55703">
        <ele>217.6</ele>
        <time>2026-03-22T10:16:25Z</time>
      </trkpt>
      <trkpt lat="44.41172" lon="1.55702">
        <ele>218.2</ele>
        <time>2026-03-22T10:16:26Z</time>
      </trkpt>
      <trkpt lat="44.41169" lon="1.557">
        <ele>218.6</ele>
        <time>2026-03-22T10:16:27Z</time>
      </trkpt>
      <trkpt lat="44.41165" lon="1.55699">
        <ele>219</ele>
        <time>2026-03-22T10:16:28Z</time>
      </trkpt>
      <trkpt lat="44.41163" lon="1.55697">
        <ele>219.4</ele>
        <time>2026-03-22T10:16:29Z</time>
      </trkpt>
      <trkpt lat="44.41159" lon="1.55694">
        <ele>219.8</ele>
        <time>2026-03-22T10:16:30Z</time>
      </trkpt>
      <trkpt lat="44.41157" lon="1.55692">
        <ele>220.4</ele>
        <time>2026-03-22T10:16:31Z</time>
      </trkpt>
      <trkpt lat="44.41153" lon="1.5569">
        <ele>221</ele>
        <time>2026-03-22T10:16:32Z</time>
      </trkpt>
      <trkpt lat="44.4115" lon="1.55687">
        <ele>221.6</ele>
        <time>2026-03-22T10:16:33Z</time>
      </trkpt>
      <trkpt lat="44.41148" lon="1.55684">
        <ele>221.8</ele>
        <time>2026-03-22T10:16:34Z</time>
      </trkpt>
      <trkpt lat="44.41145" lon="1.55681">
        <ele>222.2</ele>
        <time>2026-03-22T10:16:35Z</time>
      </trkpt>
      <trkpt lat="44.41141" lon="1.55679">
        <ele>222.8</ele>
        <time>2026-03-22T10:16:36Z</time>
      </trkpt>
      <trkpt lat="44.41137" lon="1.5568">
        <ele>223.2</ele>
        <time>2026-03-22T10:16:37Z</time>
      </trkpt>
      <trkpt lat="44.41134" lon="1.55683">
        <ele>223.8</ele>
        <time>2026-03-22T10:16:38Z</time>
      </trkpt>
      <trkpt lat="44.41133" lon="1.55687">
        <ele>224</ele>
        <time>2026-03-22T10:16:39Z</time>
      </trkpt>
      <trkpt lat="44.41133" lon="1.55691">
        <ele>224.4</ele>
        <time>2026-03-22T10:16:40Z</time>
      </trkpt>
      <trkpt lat="44.41133" lon="1.55696">
        <ele>225</ele>
        <time>2026-03-22T10:16:41Z</time>
      </trkpt>
      <trkpt lat="44.41133" lon="1.55701">
        <ele>225.2</ele>
        <time>2026-03-22T10:16:42Z</time>
      </trkpt>
      <trkpt lat="44.41132" lon="1.55705">
        <ele>225.6</ele>
        <time>2026-03-22T10:16:43Z</time>
      </trkpt>
      <trkpt lat="44.41131" lon="1.5571">
        <ele>226</ele>
        <time>2026-03-22T10:16:44Z</time>
      </trkpt>
      <trkpt lat="44.4113" lon="1.55714">
        <ele>226</ele>
        <time>2026-03-22T10:16:45Z</time>
      </trkpt>
      <trkpt lat="44.41128" lon="1.55718">
        <ele>226.4</ele>
        <time>2026-03-22T10:16:46Z</time>
      </trkpt>
      <trkpt lat="44.41125" lon="1.55723">
        <ele>226.6</ele>
        <time>2026-03-22T10:16:47Z</time>
      </trkpt>
      <trkpt lat="44.41123" lon="1.55725">
        <ele>227</ele>
        <time>2026-03-22T10:16:48Z</time>
      </trkpt>
      <trkpt lat="44.4112" lon="1.55728">
        <ele>227.4</ele>
        <time>2026-03-22T10:16:49Z</time>
      </trkpt>
      <trkpt lat="44.41116" lon="1.55732">
        <ele>227.8</ele>
        <time>2026-03-22T10:16:50Z</time>
      </trkpt>
      <trkpt lat="44.41113" lon="1.55734">
        <ele>228.4</ele>
        <time>2026-03-22T10:16:51Z</time>
      </trkpt>
      <trkpt lat="44.41109" lon="1.55738">
        <ele>228.6</ele>
        <time>2026-03-22T10:16:52Z</time>
      </trkpt>
      <trkpt lat="44.41107" lon="1.5574">
        <ele>228.8</ele>
        <time>2026-03-22T10:16:53Z</time>
      </trkpt>
      <trkpt lat="44.41104" lon="1.55743">
        <ele>229.2</ele>
        <time>2026-03-22T10:16:54Z</time>
      </trkpt>
      <trkpt lat="44.411" lon="1.55746">
        <ele>229.4</ele>
        <time>2026-03-22T10:16:55Z</time>
      </trkpt>
      <trkpt lat="44.41097" lon="1.55749">
        <ele>229.8</ele>
        <time>2026-03-22T10:16:56Z</time>
      </trkpt>
      <trkpt lat="44.41094" lon="1.55753">
        <ele>230.4</ele>
        <time>2026-03-22T10:16:57Z</time>
      </trkpt>
      <trkpt lat="44.4109" lon="1.55756">
        <ele>230.4</ele>
        <time>2026-03-22T10:16:58Z</time>
      </trkpt>
      <trkpt lat="44.41088" lon="1.55759">
        <ele>231</ele>
        <time>2026-03-22T10:16:59Z</time>
      </trkpt>
      <trkpt lat="44.41084" lon="1.55762">
        <ele>231</ele>
        <time>2026-03-22T10:17:00Z</time>
      </trkpt>
      <trkpt lat="44.41081" lon="1.55765">
        <ele>231.8</ele>
        <time>2026-03-22T10:17:01Z</time>
      </trkpt>
      <trkpt lat="44.41078" lon="1.55767">
        <ele>231.8</ele>
        <time>2026-03-22T10:17:02Z</time>
      </trkpt>
      <trkpt lat="44.41074" lon="1.5577">
        <ele>232.2</ele>
        <time>2026-03-22T10:17:03Z</time>
      </trkpt>
      <trkpt lat="44.41071" lon="1.55772">
        <ele>232.4</ele>
        <time>2026-03-22T10:17:04Z</time>
      </trkpt>
      <trkpt lat="44.41067" lon="1.55775">
        <ele>232.6</ele>
        <time>2026-03-22T10:17:05Z</time>
      </trkpt>
      <trkpt lat="44.41063" lon="1.55778">
        <ele>232.8</ele>
        <time>2026-03-22T10:17:06Z</time>
      </trkpt>
      <trkpt lat="44.41059" lon="1.55781">
        <ele>232.8</ele>
        <time>2026-03-22T10:17:07Z</time>
      </trkpt>
      <trkpt lat="44.41056" lon="1.55783">
        <ele>233.4</ele>
        <time>2026-03-22T10:17:08Z</time>
      </trkpt>
      <trkpt lat="44.41052" lon="1.55786">
        <ele>233.8</ele>
        <time>2026-03-22T10:17:09Z</time>
      </trkpt>
      <trkpt lat="44.41048" lon="1.55789">
        <ele>234</ele>
        <time>2026-03-22T10:17:10Z</time>
      </trkpt>
      <trkpt lat="44.41043" lon="1.55792">
        <ele>234.2</ele>
        <time>2026-03-22T10:17:11Z</time>
      </trkpt>
      <trkpt lat="44.4104" lon="1.55794">
        <ele>234.4</ele>
        <time>2026-03-22T10:17:12Z</time>
      </trkpt>
      <trkpt lat="44.41037" lon="1.55797">
        <ele>234.4</ele>
        <time>2026-03-22T10:17:13Z</time>
      </trkpt>
      <trkpt lat="44.41032" lon="1.558">
        <ele>234.6</ele>
        <time>2026-03-22T10:17:14Z</time>
      </trkpt>
      <trkpt lat="44.41029" lon="1.55802">
        <ele>234.8</ele>
        <time>2026-03-22T10:17:15Z</time>
      </trkpt>
      <trkpt lat="44.41026" lon="1.55805">
        <ele>235.2</ele>
        <time>2026-03-22T10:17:16Z</time>
      </trkpt>
      <trkpt lat="44.41022" lon="1.55808">
        <ele>235.4</ele>
        <time>2026-03-22T10:17:17Z</time>
      </trkpt>
      <trkpt lat="44.41019" lon="1.55811">
        <ele>235.6</ele>
        <time>2026-03-22T10:17:18Z</time>
      </trkpt>
      <trkpt lat="44.41015" lon="1.55813">
        <ele>235.8</ele>
        <time>2026-03-22T10:17:19Z</time>
      </trkpt>
      <trkpt lat="44.41011" lon="1.55815">
        <ele>236</ele>
        <time>2026-03-22T10:17:20Z</time>
      </trkpt>
      <trkpt lat="44.41007" lon="1.55815">
        <ele>236.2</ele>
        <time>2026-03-22T10:17:21Z</time>
      </trkpt>
      <trkpt lat="44.41002" lon="1.55815">
        <ele>236.4</ele>
        <time>2026-03-22T10:17:22Z</time>
      </trkpt>
      <trkpt lat="44.40998" lon="1.55813">
        <ele>236.8</ele>
        <time>2026-03-22T10:17:23Z</time>
      </trkpt>
      <trkpt lat="44.40993" lon="1.55812">
        <ele>236.8</ele>
        <time>2026-03-22T10:17:24Z</time>
      </trkpt>
      <trkpt lat="44.40989" lon="1.5581">
        <ele>237.2</ele>
        <time>2026-03-22T10:17:25Z</time>
      </trkpt>
      <trkpt lat="44.40986" lon="1.55808">
        <ele>237.4</ele>
        <time>2026-03-22T10:17:26Z</time>
      </trkpt>
      <trkpt lat="44.40981" lon="1.55805">
        <ele>237.8</ele>
        <time>2026-03-22T10:17:27Z</time>
      </trkpt>
      <trkpt lat="44.40977" lon="1.55803">
        <ele>238.2</ele>
        <time>2026-03-22T10:17:28Z</time>
      </trkpt>
      <trkpt lat="44.40972" lon="1.55799">
        <ele>238.4</ele>
        <time>2026-03-22T10:17:29Z</time>
      </trkpt>
      <trkpt lat="44.40968" lon="1.55797">
        <ele>238.6</ele>
        <time>2026-03-22T10:17:30Z</time>
      </trkpt>
      <trkpt lat="44.40965" lon="1.55795">
        <ele>239</ele>
        <time>2026-03-22T10:17:31Z</time>
      </trkpt>
      <trkpt lat="44.4096" lon="1.55792">
        <ele>239.2</ele>
        <time>2026-03-22T10:17:32Z</time>
      </trkpt>
      <trkpt lat="44.40956" lon="1.5579">
        <ele>239.4</ele>
        <time>2026-03-22T10:17:33Z</time>
      </trkpt>
      <trkpt lat="44.40951" lon="1.55788">
        <ele>239.6</ele>
        <time>2026-03-22T10:17:34Z</time>
      </trkpt>
      <trkpt lat="44.40947" lon="1.55786">
        <ele>239.6</ele>
        <time>2026-03-22T10:17:35Z</time>
      </trkpt>
      <trkpt lat="44.40941" lon="1.55784">
        <ele>239.6</ele>
        <time>2026-03-22T10:17:36Z</time>
      </trkpt>
      <trkpt lat="44.40937" lon="1.55782">
        <ele>239.6</ele>
        <time>2026-03-22T10:17:37Z</time>
      </trkpt>
      <trkpt lat="44.40932" lon="1.5578">
        <ele>239.8</ele>
        <time>2026-03-22T10:17:38Z</time>
      </trkpt>
      <trkpt lat="44.40928" lon="1.55778">
        <ele>240</ele>
        <time>2026-03-22T10:17:39Z</time>
      </trkpt>
      <trkpt lat="44.40923" lon="1.55775">
        <ele>240.2</ele>
        <time>2026-03-22T10:17:40Z</time>
      </trkpt>
      <trkpt lat="44.40919" lon="1.55773">
        <ele>240.4</ele>
        <time>2026-03-22T10:17:41Z</time>
      </trkpt>
      <trkpt lat="44.40914" lon="1.5577">
        <ele>240.8</ele>
        <time>2026-03-22T10:17:42Z</time>
      </trkpt>
      <trkpt lat="44.40908" lon="1.55767">
        <ele>241</ele>
        <time>2026-03-22T10:17:43Z</time>
      </trkpt>
      <trkpt lat="44.40904" lon="1.55764">
        <ele>241.2</ele>
        <time>2026-03-22T10:17:44Z</time>
      </trkpt>
      <trkpt lat="44.40898" lon="1.55761">
        <ele>241.4</ele>
        <time>2026-03-22T10:17:45Z</time>
      </trkpt>
      <trkpt lat="44.40893" lon="1.55759">
        <ele>241.4</ele>
        <time>2026-03-22T10:17:46Z</time>
      </trkpt>
      <trkpt lat="44.40889" lon="1.55758">
        <ele>241.6</ele>
        <time>2026-03-22T10:17:47Z</time>
      </trkpt>
      <trkpt lat="44.40883" lon="1.55756">
        <ele>242</ele>
        <time>2026-03-22T10:17:48Z</time>
      </trkpt>
      <trkpt lat="44.40877" lon="1.55755">
        <ele>242.2</ele>
        <time>2026-03-22T10:17:49Z</time>
      </trkpt>
      <trkpt lat="44.40872" lon="1.55754">
        <ele>242.2</ele>
        <time>2026-03-22T10:17:50Z</time>
      </trkpt>
      <trkpt lat="44.40867" lon="1.55753">
        <ele>242.4</ele>
        <time>2026-03-22T10:17:51Z</time>
      </trkpt>
      <trkpt lat="44.40862" lon="1.55752">
        <ele>242.4</ele>
        <time>2026-03-22T10:17:52Z</time>
      </trkpt>
      <trkpt lat="44.40859" lon="1.55751">
        <ele>242.6</ele>
        <time>2026-03-22T10:17:53Z</time>
      </trkpt>
      <trkpt lat="44.40853" lon="1.55749">
        <ele>242.8</ele>
        <time>2026-03-22T10:17:54Z</time>
      </trkpt>
      <trkpt lat="44.40848" lon="1.55748">
        <ele>243</ele>
        <time>2026-03-22T10:17:55Z</time>
      </trkpt>
      <trkpt lat="44.40843" lon="1.55747">
        <ele>243.2</ele>
        <time>2026-03-22T10:17:56Z</time>
      </trkpt>
      <trkpt lat="44.40838" lon="1.55745">
        <ele>243.2</ele>
        <time>2026-03-22T10:17:57Z</time>
      </trkpt>
      <trkpt lat="44.40833" lon="1.55744">
        <ele>243.2</ele>
        <time>2026-03-22T10:17:58Z</time>
      </trkpt>
      <trkpt lat="44.40827" lon="1.55742">
        <ele>243.2</ele>
        <time>2026-03-22T10:17:59Z</time>
      </trkpt>
      <trkpt lat="44.40822" lon="1.55741">
        <ele>243.4</ele>
        <time>2026-03-22T10:18:00Z</time>
      </trkpt>
      <trkpt lat="44.40817" lon="1.55739">
        <ele>243.4</ele>
        <time>2026-03-22T10:18:01Z</time>
      </trkpt>
      <trkpt lat="44.40811" lon="1.55737">
        <ele>243.4</ele>
        <time>2026-03-22T10:18:02Z</time>
      </trkpt>
      <trkpt lat="44.40806" lon="1.55736">
        <ele>243.4</ele>
        <time>2026-03-22T10:18:03Z</time>
      </trkpt>
      <trkpt lat="44.40801" lon="1.55735">
        <ele>243.6</ele>
        <time>2026-03-22T10:18:04Z</time>
      </trkpt>
      <trkpt lat="44.40796" lon="1.55733">
        <ele>243.6</ele>
        <time>2026-03-22T10:18:05Z</time>
      </trkpt>
      <trkpt lat="44.40791" lon="1.55731">
        <ele>243.6</ele>
        <time>2026-03-22T10:18:06Z</time>
      </trkpt>
      <trkpt lat="44.40786" lon="1.55729">
        <ele>243.6</ele>
        <time>2026-03-22T10:18:07Z</time>
      </trkpt>
      <trkpt lat="44.40781" lon="1.55728">
        <ele>243.8</ele>
        <time>2026-03-22T10:18:08Z</time>
      </trkpt>
      <trkpt lat="44.40776" lon="1.55727">
        <ele>243.8</ele>
        <time>2026-03-22T10:18:09Z</time>
      </trkpt>
      <trkpt lat="44.40771" lon="1.55726">
        <ele>243.8</ele>
        <time>2026-03-22T10:18:10Z</time>
      </trkpt>
      <trkpt lat="44.40766" lon="1.55724">
        <ele>244</ele>
        <time>2026-03-22T10:18:11Z</time>
      </trkpt>
      <trkpt lat="44.40761" lon="1.55722">
        <ele>244</ele>
        <time>2026-03-22T10:18:12Z</time>
      </trkpt>
      <trkpt lat="44.40757" lon="1.5572">
        <ele>244.2</ele>
        <time>2026-03-22T10:18:13Z</time>
      </trkpt>
      <trkpt lat="44.40752" lon="1.55717">
        <ele>244.4</ele>
        <time>2026-03-22T10:18:14Z</time>
      </trkpt>
      <trkpt lat="44.40748" lon="1.55714">
        <ele>244.6</ele>
        <time>2026-03-22T10:18:15Z</time>
      </trkpt>
      <trkpt lat="44.40743" lon="1.5571">
        <ele>244.6</ele>
        <time>2026-03-22T10:18:16Z</time>
      </trkpt>
      <trkpt lat="44.40739" lon="1.55705">
        <ele>244.6</ele>
        <time>2026-03-22T10:18:17Z</time>
      </trkpt>
      <trkpt lat="44.40733" lon="1.55694">
        <ele>245</ele>
        <time>2026-03-22T10:18:19Z</time>
      </trkpt>
      <trkpt lat="44.40731" lon="1.55687">
        <ele>245.6</ele>
        <time>2026-03-22T10:18:20Z</time>
      </trkpt>
      <trkpt lat="44.40729" lon="1.55679">
        <ele>246</ele>
        <time>2026-03-22T10:18:21Z</time>
      </trkpt>
      <trkpt lat="44.40728" lon="1.55672">
        <ele>246.2</ele>
        <time>2026-03-22T10:18:22Z</time>
      </trkpt>
      <trkpt lat="44.40727" lon="1.55664">
        <ele>246.6</ele>
        <time>2026-03-22T10:18:23Z</time>
      </trkpt>
      <trkpt lat="44.40726" lon="1.55657">
        <ele>246.8</ele>
        <time>2026-03-22T10:18:24Z</time>
      </trkpt>
      <trkpt lat="44.40725" lon="1.55648">
        <ele>246.8</ele>
        <time>2026-03-22T10:18:25Z</time>
      </trkpt>
      <trkpt lat="44.40724" lon="1.5564">
        <ele>247</ele>
        <time>2026-03-22T10:18:26Z</time>
      </trkpt>
      <trkpt lat="44.40724" lon="1.55632">
        <ele>247.2</ele>
        <time>2026-03-22T10:18:27Z</time>
      </trkpt>
      <trkpt lat="44.40723" lon="1.55626">
        <ele>247.2</ele>
        <time>2026-03-22T10:18:28Z</time>
      </trkpt>
      <trkpt lat="44.40722" lon="1.55618">
        <ele>247.4</ele>
        <time>2026-03-22T10:18:29Z</time>
      </trkpt>
      <trkpt lat="44.40721" lon="1.55609">
        <ele>247.4</ele>
        <time>2026-03-22T10:18:30Z</time>
      </trkpt>
      <trkpt lat="44.4072" lon="1.55602">
        <ele>247.6</ele>
        <time>2026-03-22T10:18:31Z</time>
      </trkpt>
      <trkpt lat="44.4072" lon="1.55596">
        <ele>247.8</ele>
        <time>2026-03-22T10:18:32Z</time>
      </trkpt>
      <trkpt lat="44.40719" lon="1.55587">
        <ele>248</ele>
        <time>2026-03-22T10:18:33Z</time>
      </trkpt>
      <trkpt lat="44.40719" lon="1.5558">
        <ele>248</ele>
        <time>2026-03-22T10:18:34Z</time>
      </trkpt>
      <trkpt lat="44.40719" lon="1.55574">
        <ele>248</ele>
        <time>2026-03-22T10:18:35Z</time>
      </trkpt>
      <trkpt lat="44.4072" lon="1.55567">
        <ele>248.2</ele>
        <time>2026-03-22T10:18:36Z</time>
      </trkpt>
      <trkpt lat="44.40721" lon="1.55558">
        <ele>248.2</ele>
        <time>2026-03-22T10:18:37Z</time>
      </trkpt>
      <trkpt lat="44.40722" lon="1.55552">
        <ele>248.4</ele>
        <time>2026-03-22T10:18:38Z</time>
      </trkpt>
      <trkpt lat="44.40723" lon="1.55544">
        <ele>248.4</ele>
        <time>2026-03-22T10:18:39Z</time>
      </trkpt>
      <trkpt lat="44.40725" lon="1.55536">
        <ele>248.6</ele>
        <time>2026-03-22T10:18:40Z</time>
      </trkpt>
      <trkpt lat="44.40726" lon="1.55531">
        <ele>248.6</ele>
        <time>2026-03-22T10:18:41Z</time>
      </trkpt>
      <trkpt lat="44.40727" lon="1.55522">
        <ele>248.6</ele>
        <time>2026-03-22T10:18:42Z</time>
      </trkpt>
      <trkpt lat="44.40729" lon="1.55517">
        <ele>248.6</ele>
        <time>2026-03-22T10:18:43Z</time>
      </trkpt>
      <trkpt lat="44.4073" lon="1.5551">
        <ele>248.8</ele>
        <time>2026-03-22T10:18:44Z</time>
      </trkpt>
      <trkpt lat="44.40732" lon="1.55504">
        <ele>249</ele>
        <time>2026-03-22T10:18:45Z</time>
      </trkpt>
      <trkpt lat="44.40734" lon="1.55496">
        <ele>249</ele>
        <time>2026-03-22T10:18:46Z</time>
      </trkpt>
      <trkpt lat="44.40735" lon="1.55491">
        <ele>249.2</ele>
        <time>2026-03-22T10:18:47Z</time>
      </trkpt>
      <trkpt lat="44.40736" lon="1.55484">
        <ele>249.4</ele>
        <time>2026-03-22T10:18:48Z</time>
      </trkpt>
      <trkpt lat="44.40736" lon="1.55477">
        <ele>249.6</ele>
        <time>2026-03-22T10:18:49Z</time>
      </trkpt>
      <trkpt lat="44.40736" lon="1.55472">
        <ele>249.6</ele>
        <time>2026-03-22T10:18:50Z</time>
      </trkpt>
      <trkpt lat="44.40735" lon="1.55464">
        <ele>249.8</ele>
        <time>2026-03-22T10:18:51Z</time>
      </trkpt>
      <trkpt lat="44.40734" lon="1.55458">
        <ele>249.8</ele>
        <time>2026-03-22T10:18:52Z</time>
      </trkpt>
      <trkpt lat="44.40734" lon="1.55454">
        <ele>250</ele>
        <time>2026-03-22T10:18:53Z</time>
      </trkpt>
      <trkpt lat="44.40733" lon="1.55449">
        <ele>250</ele>
        <time>2026-03-22T10:18:54Z</time>
      </trkpt>
      <trkpt lat="44.40732" lon="1.55443">
        <ele>250</ele>
        <time>2026-03-22T10:18:55Z</time>
      </trkpt>
      <trkpt lat="44.40731" lon="1.55436">
        <ele>250</ele>
        <time>2026-03-22T10:18:56Z</time>
      </trkpt>
      <trkpt lat="44.40729" lon="1.5543">
        <ele>250</ele>
        <time>2026-03-22T10:18:57Z</time>
      </trkpt>
      <trkpt lat="44.40727" lon="1.55425">
        <ele>250</ele>
        <time>2026-03-22T10:18:58Z</time>
      </trkpt>
      <trkpt lat="44.40726" lon="1.55419">
        <ele>250</ele>
        <time>2026-03-22T10:18:59Z</time>
      </trkpt>
      <trkpt lat="44.40724" lon="1.55412">
        <ele>250</ele>
        <time>2026-03-22T10:19:00Z</time>
      </trkpt>
      <trkpt lat="44.40723" lon="1.55406">
        <ele>250</ele>
        <time>2026-03-22T10:19:01Z</time>
      </trkpt>
      <trkpt lat="44.4072" lon="1.55393">
        <ele>249.8</ele>
        <time>2026-03-22T10:19:03Z</time>
      </trkpt>
      <trkpt lat="44.40714" lon="1.55377">
        <ele>249.4</ele>
        <time>2026-03-22T10:19:06Z</time>
      </trkpt>
      <trkpt lat="44.40712" lon="1.55374">
        <ele>249.2</ele>
        <time>2026-03-22T10:19:07Z</time>
      </trkpt>
      <trkpt lat="44.40709" lon="1.55372">
        <ele>249.2</ele>
        <time>2026-03-22T10:19:08Z</time>
      </trkpt>
      <trkpt lat="44.40707" lon="1.55369">
        <ele>248.8</ele>
        <time>2026-03-22T10:19:09Z</time>
      </trkpt>
      <trkpt lat="44.40707" lon="1.55365">
        <ele>248.4</ele>
        <time>2026-03-22T10:19:10Z</time>
      </trkpt>
      <trkpt lat="44.40707" lon="1.55359">
        <ele>248</ele>
        <time>2026-03-22T10:19:11Z</time>
      </trkpt>
      <trkpt lat="44.40706" lon="1.55354">
        <ele>247.6</ele>
        <time>2026-03-22T10:19:12Z</time>
      </trkpt>
      <trkpt lat="44.40703" lon="1.55349">
        <ele>247.2</ele>
        <time>2026-03-22T10:19:13Z</time>
      </trkpt>
      <trkpt lat="44.40699" lon="1.55345">
        <ele>246.6</ele>
        <time>2026-03-22T10:19:14Z</time>
      </trkpt>
      <trkpt lat="44.40695" lon="1.55341">
        <ele>246.2</ele>
        <time>2026-03-22T10:19:15Z</time>
      </trkpt>
      <trkpt lat="44.4069" lon="1.55337">
        <ele>245.8</ele>
        <time>2026-03-22T10:19:16Z</time>
      </trkpt>
      <trkpt lat="44.40685" lon="1.55333">
        <ele>245.8</ele>
        <time>2026-03-22T10:19:17Z</time>
      </trkpt>
      <trkpt lat="44.4068" lon="1.55329">
        <ele>245.4</ele>
        <time>2026-03-22T10:19:18Z</time>
      </trkpt>
      <trkpt lat="44.40671" lon="1.5532">
        <ele>245</ele>
        <time>2026-03-22T10:19:20Z</time>
      </trkpt>
      <trkpt lat="44.40663" lon="1.55309">
        <ele>244.6</ele>
        <time>2026-03-22T10:19:22Z</time>
      </trkpt>
      <trkpt lat="44.40652" lon="1.55294">
        <ele>244.4</ele>
        <time>2026-03-22T10:19:25Z</time>
      </trkpt>
      <trkpt lat="44.40649" lon="1.55289">
        <ele>244.4</ele>
        <time>2026-03-22T10:19:26Z</time>
      </trkpt>
      <trkpt lat="44.40645" lon="1.55284">
        <ele>244.4</ele>
        <time>2026-03-22T10:19:27Z</time>
      </trkpt>
      <trkpt lat="44.40642" lon="1.55279">
        <ele>244.4</ele>
        <time>2026-03-22T10:19:28Z</time>
      </trkpt>
      <trkpt lat="44.4064" lon="1.55274">
        <ele>244.4</ele>
        <time>2026-03-22T10:19:29Z</time>
      </trkpt>
      <trkpt lat="44.40638" lon="1.55269">
        <ele>244.4</ele>
        <time>2026-03-22T10:19:30Z</time>
      </trkpt>
      <trkpt lat="44.40634" lon="1.55258">
        <ele>244.4</ele>
        <time>2026-03-22T10:19:32Z</time>
      </trkpt>
      <trkpt lat="44.40632" lon="1.55252">
        <ele>244.4</ele>
        <time>2026-03-22T10:19:33Z</time>
      </trkpt>
      <trkpt lat="44.4063" lon="1.55246">
        <ele>244.8</ele>
        <time>2026-03-22T10:19:34Z</time>
      </trkpt>
      <trkpt lat="44.40626" lon="1.55235">
        <ele>245.2</ele>
        <time>2026-03-22T10:19:36Z</time>
      </trkpt>
      <trkpt lat="44.40624" lon="1.5523">
        <ele>245.4</ele>
        <time>2026-03-22T10:19:37Z</time>
      </trkpt>
      <trkpt lat="44.40622" lon="1.55226">
        <ele>245.4</ele>
        <time>2026-03-22T10:19:38Z</time>
      </trkpt>
      <trkpt lat="44.40619" lon="1.55221">
        <ele>245.6</ele>
        <time>2026-03-22T10:19:39Z</time>
      </trkpt>
      <trkpt lat="44.40616" lon="1.55217">
        <ele>245.8</ele>
        <time>2026-03-22T10:19:40Z</time>
      </trkpt>
      <trkpt lat="44.40613" lon="1.55215">
        <ele>245.8</ele>
        <time>2026-03-22T10:19:41Z</time>
      </trkpt>
      <trkpt lat="44.40609" lon="1.55214">
        <ele>245.8</ele>
        <time>2026-03-22T10:19:42Z</time>
      </trkpt>
      <trkpt lat="44.40605" lon="1.55213">
        <ele>246</ele>
        <time>2026-03-22T10:19:43Z</time>
      </trkpt>
      <trkpt lat="44.40601" lon="1.55214">
        <ele>246</ele>
        <time>2026-03-22T10:19:44Z</time>
      </trkpt>
      <trkpt lat="44.40597" lon="1.55214">
        <ele>246</ele>
        <time>2026-03-22T10:19:45Z</time>
      </trkpt>
      <trkpt lat="44.40593" lon="1.55215">
        <ele>246.2</ele>
        <time>2026-03-22T10:19:46Z</time>
      </trkpt>
      <trkpt lat="44.4059" lon="1.55216">
        <ele>246.2</ele>
        <time>2026-03-22T10:19:47Z</time>
      </trkpt>
      <trkpt lat="44.40587" lon="1.55218">
        <ele>246.4</ele>
        <time>2026-03-22T10:19:48Z</time>
      </trkpt>
      <trkpt lat="44.40584" lon="1.55219">
        <ele>246.4</ele>
        <time>2026-03-22T10:19:49Z</time>
      </trkpt>
      <trkpt lat="44.40582" lon="1.55221">
        <ele>246.4</ele>
        <time>2026-03-22T10:19:50Z</time>
      </trkpt>
      <trkpt lat="44.40579" lon="1.55222">
        <ele>246.6</ele>
        <time>2026-03-22T10:19:51Z</time>
      </trkpt>
      <trkpt lat="44.40575" lon="1.55227">
        <ele>246.8</ele>
        <time>2026-03-22T10:19:53Z</time>
      </trkpt>
      <trkpt lat="44.40573" lon="1.5523">
        <ele>247</ele>
        <time>2026-03-22T10:19:54Z</time>
      </trkpt>
      <trkpt lat="44.40571" lon="1.55232">
        <ele>247.4</ele>
        <time>2026-03-22T10:19:55Z</time>
      </trkpt>
      <trkpt lat="44.40569" lon="1.55233">
        <ele>247.6</ele>
        <time>2026-03-22T10:19:56Z</time>
      </trkpt>
      <trkpt lat="44.40567" lon="1.55234">
        <ele>247.8</ele>
        <time>2026-03-22T10:19:57Z</time>
      </trkpt>
      <trkpt lat="44.40564" lon="1.55235">
        <ele>248</ele>
        <time>2026-03-22T10:19:58Z</time>
      </trkpt>
      <trkpt lat="44.40562" lon="1.55236">
        <ele>248</ele>
        <time>2026-03-22T10:19:59Z</time>
      </trkpt>
      <trkpt lat="44.40559" lon="1.55237">
        <ele>248.2</ele>
        <time>2026-03-22T10:20:00Z</time>
      </trkpt>
      <trkpt lat="44.40557" lon="1.55238">
        <ele>248.4</ele>
        <time>2026-03-22T10:20:01Z</time>
      </trkpt>
      <trkpt lat="44.40554" lon="1.55239">
        <ele>248.4</ele>
        <time>2026-03-22T10:20:02Z</time>
      </trkpt>
      <trkpt lat="44.40552" lon="1.5524">
        <ele>248.6</ele>
        <time>2026-03-22T10:20:03Z</time>
      </trkpt>
      <trkpt lat="44.40549" lon="1.55241">
        <ele>248.8</ele>
        <time>2026-03-22T10:20:04Z</time>
      </trkpt>
      <trkpt lat="44.40547" lon="1.55241">
        <ele>248.8</ele>
        <time>2026-03-22T10:20:05Z</time>
      </trkpt>
      <trkpt lat="44.40544" lon="1.55242">
        <ele>249</ele>
        <time>2026-03-22T10:20:06Z</time>
      </trkpt>
      <trkpt lat="44.40542" lon="1.55243">
        <ele>249.2</ele>
        <time>2026-03-22T10:20:07Z</time>
      </trkpt>
      <trkpt lat="44.40539" lon="1.55243">
        <ele>249.4</ele>
        <time>2026-03-22T10:20:08Z</time>
      </trkpt>
      <trkpt lat="44.40538" lon="1.55243">
        <ele>249.6</ele>
        <time>2026-03-22T10:20:09Z</time>
      </trkpt>
      <trkpt lat="44.40537" lon="1.55243">
        <ele>250</ele>
        <time>2026-03-22T10:20:10Z</time>
      </trkpt>
      <trkpt lat="44.40536" lon="1.55244">
        <ele>250.2</ele>
        <time>2026-03-22T10:20:11Z</time>
      </trkpt>
      <trkpt lat="44.40534" lon="1.55246">
        <ele>250.4</ele>
        <time>2026-03-22T10:20:12Z</time>
      </trkpt>
      <trkpt lat="44.40532" lon="1.55248">
        <ele>250.6</ele>
        <time>2026-03-22T10:20:13Z</time>
      </trkpt>
      <trkpt lat="44.40531" lon="1.55251">
        <ele>250.8</ele>
        <time>2026-03-22T10:20:14Z</time>
      </trkpt>
      <trkpt lat="44.40529" lon="1.55254">
        <ele>251</ele>
        <time>2026-03-22T10:20:15Z</time>
      </trkpt>
      <trkpt lat="44.40527" lon="1.55257">
        <ele>251.2</ele>
        <time>2026-03-22T10:20:16Z</time>
      </trkpt>
      <trkpt lat="44.40526" lon="1.55261">
        <ele>251.2</ele>
        <time>2026-03-22T10:20:17Z</time>
      </trkpt>
      <trkpt lat="44.40525" lon="1.55264">
        <ele>251.4</ele>
        <time>2026-03-22T10:20:18Z</time>
      </trkpt>
      <trkpt lat="44.40524" lon="1.55268">
        <ele>251.4</ele>
        <time>2026-03-22T10:20:19Z</time>
      </trkpt>
      <trkpt lat="44.40523" lon="1.55272">
        <ele>251.4</ele>
        <time>2026-03-22T10:20:20Z</time>
      </trkpt>
      <trkpt lat="44.40522" lon="1.55274">
        <ele>251.6</ele>
        <time>2026-03-22T10:20:21Z</time>
      </trkpt>
      <trkpt lat="44.40521" lon="1.55277">
        <ele>251.8</ele>
        <time>2026-03-22T10:20:22Z</time>
      </trkpt>
      <trkpt lat="44.4052" lon="1.55279">
        <ele>252</ele>
        <time>2026-03-22T10:20:23Z</time>
      </trkpt>
      <trkpt lat="44.4052" lon="1.55281">
        <ele>252.2</ele>
        <time>2026-03-22T10:20:24Z</time>
      </trkpt>
      <trkpt lat="44.40519" lon="1.55282">
        <ele>252.2</ele>
        <time>2026-03-22T10:20:25Z</time>
      </trkpt>
      <trkpt lat="44.4052" lon="1.55285">
        <ele>252.4</ele>
        <time>2026-03-22T10:20:26Z</time>
      </trkpt>
      <trkpt lat="44.40519" lon="1.55287">
        <ele>252.4</ele>
        <time>2026-03-22T10:20:27Z</time>
      </trkpt>
      <trkpt lat="44.40519" lon="1.5529">
        <ele>252.6</ele>
        <time>2026-03-22T10:20:28Z</time>
      </trkpt>
      <trkpt lat="44.4052" lon="1.55293">
        <ele>252.8</ele>
        <time>2026-03-22T10:20:29Z</time>
      </trkpt>
      <trkpt lat="44.4052" lon="1.55296">
        <ele>252.8</ele>
        <time>2026-03-22T10:20:30Z</time>
      </trkpt>
      <trkpt lat="44.4052" lon="1.55299">
        <ele>253</ele>
        <time>2026-03-22T10:20:31Z</time>
      </trkpt>
      <trkpt lat="44.4052" lon="1.55301">
        <ele>253</ele>
        <time>2026-03-22T10:20:32Z</time>
      </trkpt>
      <trkpt lat="44.40519" lon="1.55302">
        <ele>253.2</ele>
        <time>2026-03-22T10:20:33Z</time>
      </trkpt>
      <trkpt lat="44.40517" lon="1.55303">
        <ele>253.2</ele>
        <time>2026-03-22T10:20:34Z</time>
      </trkpt>
      <trkpt lat="44.40515" lon="1.55304">
        <ele>253.2</ele>
        <time>2026-03-22T10:20:35Z</time>
      </trkpt>
      <trkpt lat="44.40514" lon="1.55305">
        <ele>253.4</ele>
        <time>2026-03-22T10:20:36Z</time>
      </trkpt>
      <trkpt lat="44.40512" lon="1.55305">
        <ele>253.4</ele>
        <time>2026-03-22T10:20:37Z</time>
      </trkpt>
      <trkpt lat="44.4051" lon="1.55306">
        <ele>253.6</ele>
        <time>2026-03-22T10:20:38Z</time>
      </trkpt>
      <trkpt lat="44.40508" lon="1.55306">
        <ele>253.6</ele>
        <time>2026-03-22T10:20:39Z</time>
      </trkpt>
      <trkpt lat="44.40507" lon="1.55306">
        <ele>253.8</ele>
        <time>2026-03-22T10:20:40Z</time>
      </trkpt>
      <trkpt lat="44.40506" lon="1.55305">
        <ele>253.8</ele>
        <time>2026-03-22T10:20:41Z</time>
      </trkpt>
      <trkpt lat="44.40504" lon="1.55306">
        <ele>253.8</ele>
        <time>2026-03-22T10:20:42Z</time>
      </trkpt>
      <trkpt lat="44.40503" lon="1.55307">
        <ele>254</ele>
        <time>2026-03-22T10:20:43Z</time>
      </trkpt>
      <trkpt lat="44.40503" lon="1.55308">
        <ele>254</ele>
        <time>2026-03-22T10:20:44Z</time>
      </trkpt>
      <trkpt lat="44.40501" lon="1.55309">
        <ele>254</ele>
        <time>2026-03-22T10:20:45Z</time>
      </trkpt>
      <trkpt lat="44.40499" lon="1.55309">
        <ele>254.2</ele>
        <time>2026-03-22T10:20:46Z</time>
      </trkpt>
      <trkpt lat="44.40496" lon="1.55308">
        <ele>254.2</ele>
        <time>2026-03-22T10:20:47Z</time>
      </trkpt>
      <trkpt lat="44.40493" lon="1.55308">
        <ele>254.2</ele>
        <time>2026-03-22T10:20:48Z</time>
      </trkpt>
      <trkpt lat="44.4049" lon="1.55309">
        <ele>254.4</ele>
        <time>2026-03-22T10:20:49Z</time>
      </trkpt>
      <trkpt lat="44.40487" lon="1.5531">
        <ele>254.4</ele>
        <time>2026-03-22T10:20:50Z</time>
      </trkpt>
      <trkpt lat="44.40484" lon="1.55311">
        <ele>254.4</ele>
        <time>2026-03-22T10:20:51Z</time>
      </trkpt>
      <trkpt lat="44.40475" lon="1.55315">
        <ele>254.6</ele>
        <time>2026-03-22T10:20:54Z</time>
      </trkpt>
      <trkpt lat="44.40472" lon="1.55317">
        <ele>254.6</ele>
        <time>2026-03-22T10:20:55Z</time>
      </trkpt>
      <trkpt lat="44.40469" lon="1.55318">
        <ele>254.8</ele>
        <time>2026-03-22T10:20:56Z</time>
      </trkpt>
      <trkpt lat="44.40452" lon="1.55337">
        <ele>255.4</ele>
        <time>2026-03-22T10:21:02Z</time>
      </trkpt>
      <trkpt lat="44.40441" lon="1.5535">
        <ele>256</ele>
        <time>2026-03-22T10:21:06Z</time>
      </trkpt>
      <trkpt lat="44.40432" lon="1.5536">
        <ele>256.4</ele>
        <time>2026-03-22T10:21:09Z</time>
      </trkpt>
      <trkpt lat="44.40427" lon="1.55366">
        <ele>257</ele>
        <time>2026-03-22T10:21:11Z</time>
      </trkpt>
      <trkpt lat="44.40421" lon="1.55373">
        <ele>257.6</ele>
        <time>2026-03-22T10:21:13Z</time>
      </trkpt>
      <trkpt lat="44.40418" lon="1.55375">
        <ele>257.6</ele>
        <time>2026-03-22T10:21:14Z</time>
      </trkpt>
      <trkpt lat="44.40415" lon="1.55377">
        <ele>258</ele>
        <time>2026-03-22T10:21:15Z</time>
      </trkpt>
      <trkpt lat="44.40412" lon="1.55378">
        <ele>258</ele>
        <time>2026-03-22T10:21:16Z</time>
      </trkpt>
      <trkpt lat="44.40409" lon="1.5538">
        <ele>258</ele>
        <time>2026-03-22T10:21:17Z</time>
      </trkpt>
      <trkpt lat="44.40405" lon="1.55381">
        <ele>258.2</ele>
        <time>2026-03-22T10:21:18Z</time>
      </trkpt>
      <trkpt lat="44.40401" lon="1.55382">
        <ele>258.4</ele>
        <time>2026-03-22T10:21:19Z</time>
      </trkpt>
      <trkpt lat="44.40398" lon="1.55383">
        <ele>258.6</ele>
        <time>2026-03-22T10:21:20Z</time>
      </trkpt>
      <trkpt lat="44.40394" lon="1.55384">
        <ele>258.8</ele>
        <time>2026-03-22T10:21:21Z</time>
      </trkpt>
      <trkpt lat="44.40391" lon="1.55385">
        <ele>259</ele>
        <time>2026-03-22T10:21:22Z</time>
      </trkpt>
      <trkpt lat="44.40388" lon="1.55384">
        <ele>259.4</ele>
        <time>2026-03-22T10:21:23Z</time>
      </trkpt>
      <trkpt lat="44.40385" lon="1.55382">
        <ele>259.6</ele>
        <time>2026-03-22T10:21:24Z</time>
      </trkpt>
      <trkpt lat="44.40382" lon="1.55379">
        <ele>259.6</ele>
        <time>2026-03-22T10:21:25Z</time>
      </trkpt>
      <trkpt lat="44.40379" lon="1.55375">
        <ele>259.8</ele>
        <time>2026-03-22T10:21:26Z</time>
      </trkpt>
      <trkpt lat="44.40377" lon="1.55371">
        <ele>259.8</ele>
        <time>2026-03-22T10:21:27Z</time>
      </trkpt>
      <trkpt lat="44.40375" lon="1.55367">
        <ele>259.8</ele>
        <time>2026-03-22T10:21:28Z</time>
      </trkpt>
      <trkpt lat="44.40373" lon="1.55363">
        <ele>259.8</ele>
        <time>2026-03-22T10:21:29Z</time>
      </trkpt>
      <trkpt lat="44.40372" lon="1.5536">
        <ele>259.8</ele>
        <time>2026-03-22T10:21:30Z</time>
      </trkpt>
      <trkpt lat="44.4037" lon="1.55357">
        <ele>259.8</ele>
        <time>2026-03-22T10:21:31Z</time>
      </trkpt>
      <trkpt lat="44.40368" lon="1.55355">
        <ele>259.8</ele>
        <time>2026-03-22T10:21:32Z</time>
      </trkpt>
      <trkpt lat="44.40367" lon="1.55353">
        <ele>259.8</ele>
        <time>2026-03-22T10:21:33Z</time>
      </trkpt>
      <trkpt lat="44.40365" lon="1.5535">
        <ele>259.6</ele>
        <time>2026-03-22T10:21:34Z</time>
      </trkpt>
      <trkpt lat="44.40364" lon="1.55347">
        <ele>259.4</ele>
        <time>2026-03-22T10:21:35Z</time>
      </trkpt>
      <trkpt lat="44.40362" lon="1.55343">
        <ele>259.4</ele>
        <time>2026-03-22T10:21:36Z</time>
      </trkpt>
      <trkpt lat="44.4036" lon="1.55339">
        <ele>259</ele>
        <time>2026-03-22T10:21:37Z</time>
      </trkpt>
      <trkpt lat="44.40358" lon="1.55334">
        <ele>258.8</ele>
        <time>2026-03-22T10:21:38Z</time>
      </trkpt>
      <trkpt lat="44.40356" lon="1.55329">
        <ele>258.8</ele>
        <time>2026-03-22T10:21:39Z</time>
      </trkpt>
      <trkpt lat="44.40356" lon="1.55323">
        <ele>258.6</ele>
        <time>2026-03-22T10:21:40Z</time>
      </trkpt>
      <trkpt lat="44.40356" lon="1.55317">
        <ele>258.4</ele>
        <time>2026-03-22T10:21:41Z</time>
      </trkpt>
      <trkpt lat="44.40356" lon="1.5531">
        <ele>258.2</ele>
        <time>2026-03-22T10:21:42Z</time>
      </trkpt>
      <trkpt lat="44.40355" lon="1.55303">
        <ele>258.2</ele>
        <time>2026-03-22T10:21:43Z</time>
      </trkpt>
      <trkpt lat="44.4035" lon="1.55268">
        <ele>257.4</ele>
        <time>2026-03-22T10:21:48Z</time>
      </trkpt>
      <trkpt lat="44.40349" lon="1.5526">
        <ele>257.4</ele>
        <time>2026-03-22T10:21:49Z</time>
      </trkpt>
      <trkpt lat="44.40348" lon="1.55253">
        <ele>257</ele>
        <time>2026-03-22T10:21:50Z</time>
      </trkpt>
      <trkpt lat="44.40347" lon="1.55246">
        <ele>256.8</ele>
        <time>2026-03-22T10:21:51Z</time>
      </trkpt>
      <trkpt lat="44.40346" lon="1.55241">
        <ele>256.4</ele>
        <time>2026-03-22T10:21:52Z</time>
      </trkpt>
      <trkpt lat="44.40346" lon="1.55236">
        <ele>256</ele>
        <time>2026-03-22T10:21:53Z</time>
      </trkpt>
      <trkpt lat="44.40344" lon="1.55232">
        <ele>255.6</ele>
        <time>2026-03-22T10:21:54Z</time>
      </trkpt>
      <trkpt lat="44.40342" lon="1.55228">
        <ele>255.2</ele>
        <time>2026-03-22T10:21:55Z</time>
      </trkpt>
      <trkpt lat="44.40339" lon="1.55227">
        <ele>254.8</ele>
        <time>2026-03-22T10:21:56Z</time>
      </trkpt>
      <trkpt lat="44.40335" lon="1.55227">
        <ele>254.2</ele>
        <time>2026-03-22T10:21:57Z</time>
      </trkpt>
      <trkpt lat="44.40332" lon="1.55229">
        <ele>253.6</ele>
        <time>2026-03-22T10:21:58Z</time>
      </trkpt>
      <trkpt lat="44.40329" lon="1.55231">
        <ele>253</ele>
        <time>2026-03-22T10:21:59Z</time>
      </trkpt>
      <trkpt lat="44.40326" lon="1.55231">
        <ele>253</ele>
        <time>2026-03-22T10:22:00Z</time>
      </trkpt>
      <trkpt lat="44.40322" lon="1.5523">
        <ele>252.4</ele>
        <time>2026-03-22T10:22:01Z</time>
      </trkpt>
      <trkpt lat="44.40317" lon="1.55227">
        <ele>251.8</ele>
        <time>2026-03-22T10:22:02Z</time>
      </trkpt>
      <trkpt lat="44.40313" lon="1.55223">
        <ele>251.6</ele>
        <time>2026-03-22T10:22:03Z</time>
      </trkpt>
      <trkpt lat="44.40309" lon="1.55218">
        <ele>251.4</ele>
        <time>2026-03-22T10:22:04Z</time>
      </trkpt>
      <trkpt lat="44.40306" lon="1.55212">
        <ele>251.4</ele>
        <time>2026-03-22T10:22:05Z</time>
      </trkpt>
      <trkpt lat="44.40302" lon="1.55208">
        <ele>251.2</ele>
        <time>2026-03-22T10:22:06Z</time>
      </trkpt>
      <trkpt lat="44.40298" lon="1.55204">
        <ele>251.2</ele>
        <time>2026-03-22T10:22:07Z</time>
      </trkpt>
      <trkpt lat="44.40293" lon="1.55204">
        <ele>251.2</ele>
        <time>2026-03-22T10:22:08Z</time>
      </trkpt>
      <trkpt lat="44.4029" lon="1.55205">
        <ele>251.2</ele>
        <time>2026-03-22T10:22:09Z</time>
      </trkpt>
      <trkpt lat="44.40286" lon="1.55208">
        <ele>251</ele>
        <time>2026-03-22T10:22:10Z</time>
      </trkpt>
      <trkpt lat="44.40283" lon="1.55211">
        <ele>250.6</ele>
        <time>2026-03-22T10:22:11Z</time>
      </trkpt>
      <trkpt lat="44.40279" lon="1.55213">
        <ele>250.4</ele>
        <time>2026-03-22T10:22:12Z</time>
      </trkpt>
      <trkpt lat="44.40272" lon="1.55219">
        <ele>250.2</ele>
        <time>2026-03-22T10:22:14Z</time>
      </trkpt>
      <trkpt lat="44.40268" lon="1.55221">
        <ele>250.2</ele>
        <time>2026-03-22T10:22:15Z</time>
      </trkpt>
      <trkpt lat="44.40265" lon="1.55223">
        <ele>250.2</ele>
        <time>2026-03-22T10:22:16Z</time>
      </trkpt>
      <trkpt lat="44.40254" lon="1.5523">
        <ele>250.2</ele>
        <time>2026-03-22T10:22:19Z</time>
      </trkpt>
      <trkpt lat="44.40251" lon="1.55232">
        <ele>250.2</ele>
        <time>2026-03-22T10:22:20Z</time>
      </trkpt>
      <trkpt lat="44.40248" lon="1.55234">
        <ele>250.2</ele>
        <time>2026-03-22T10:22:21Z</time>
      </trkpt>
      <trkpt lat="44.40245" lon="1.55237">
        <ele>250.2</ele>
        <time>2026-03-22T10:22:22Z</time>
      </trkpt>
      <trkpt lat="44.40236" lon="1.55244">
        <ele>250.8</ele>
        <time>2026-03-22T10:22:25Z</time>
      </trkpt>
      <trkpt lat="44.40233" lon="1.55246">
        <ele>251</ele>
        <time>2026-03-22T10:22:26Z</time>
      </trkpt>
      <trkpt lat="44.40231" lon="1.55249">
        <ele>251.2</ele>
        <time>2026-03-22T10:22:27Z</time>
      </trkpt>
      <trkpt lat="44.4023" lon="1.55251">
        <ele>251.4</ele>
        <time>2026-03-22T10:22:28Z</time>
      </trkpt>
      <trkpt lat="44.40229" lon="1.55254">
        <ele>251.6</ele>
        <time>2026-03-22T10:22:29Z</time>
      </trkpt>
      <trkpt lat="44.40229" lon="1.55256">
        <ele>251.8</ele>
        <time>2026-03-22T10:22:30Z</time>
      </trkpt>
      <trkpt lat="44.4023" lon="1.55258">
        <ele>251.8</ele>
        <time>2026-03-22T10:22:31Z</time>
      </trkpt>
      <trkpt lat="44.40231" lon="1.55258">
        <ele>252</ele>
        <time>2026-03-22T10:22:32Z</time>
      </trkpt>
      <trkpt lat="44.40231" lon="1.55258">
        <ele>252.4</ele>
        <time>2026-03-22T10:22:34Z</time>
      </trkpt>
    </trkseg>
  </trk>
</gpx>